<?xml version='1.0' encoding='UTF-8'?><gpx version="1.1" creator="JPX - https://github.com/jenetics/jpx" xmlns="http://www.topografix.com/GPX/1/1"><trk><trkseg><trkpt lat="37.47039052769807" lon="14.321072319337416"><ele>749.1666666666666</ele><time>2026-05-03T07:10:36.98Z</time></trkpt><trkpt lat="37.47048383570515" lon="14.321084426227394"><ele>748.3333333333334</ele><time>2026-05-03T07:11:16.999Z</time></trkpt><trkpt lat="37.47055091744323" lon="14.321135016283137"><ele>747.5</ele><time>2026-05-03T07:11:19Z</time></trkpt><trkpt lat="37.47059434142564" lon="14.321241383223128"><ele>746.6666666666667</ele><time>2026-05-03T07:11:21Z</time></trkpt><trkpt lat="37.4705857011818" lon="14.321336719599952"><ele>745.8333333333334</ele><time>2026-05-03T07:11:23Z</time></trkpt><trkpt lat="37.47059248444376" lon="14.321453215689544"><ele>745.0</ele><time>2026-05-03T07:11:25Z</time></trkpt><trkpt lat="37.47060869379381" lon="14.321542135624854"><ele>748.4</ele><time>2026-05-03T07:11:26Z</time></trkpt><trkpt lat="37.470600437702736" lon="14.321687512768042"><ele>751.8</ele><time>2026-05-03T07:11:28Z</time></trkpt><trkpt lat="37.470595051111985" lon="14.321798234186415"><ele>755.2</ele><time>2026-05-03T07:11:30Z</time></trkpt><trkpt lat="37.470573210016894" lon="14.321943950443956"><ele>758.6</ele><time>2026-05-03T07:11:32Z</time></trkpt><trkpt lat="37.47057779119407" lon="14.322096013172374"><ele>762.0</ele><time>2026-05-03T07:11:34.001Z</time></trkpt><trkpt lat="37.470574544367274" lon="14.32225437022348"><ele>764.8333333333334</ele><time>2026-05-03T07:11:36.001Z</time></trkpt><trkpt lat="37.470571655702074" lon="14.32234196825886"><ele>767.6666666666667</ele><time>2026-05-03T07:11:37.001Z</time></trkpt><trkpt lat="37.47058150425609" lon="14.322438316511896"><ele>770.5</ele><time>2026-05-03T07:11:38.001Z</time></trkpt><trkpt lat="37.470595580966005" lon="14.322530675129864"><ele>773.3333333333334</ele><time>2026-05-03T07:11:39.001Z</time></trkpt><trkpt lat="37.470607838864005" lon="14.322629341267293"><ele>776.1666666666667</ele><time>2026-05-03T07:11:40.001Z</time></trkpt><trkpt lat="37.4706187602753" lon="14.322756629671044"><ele>779.0</ele><time>2026-05-03T07:11:42.001Z</time></trkpt><trkpt lat="37.47061365544683" lon="14.322867497235157"><ele>779.0</ele><time>2026-05-03T07:11:44.001Z</time></trkpt><trkpt lat="37.470650970961884" lon="14.322980893761288"><ele>779.0</ele><time>2026-05-03T07:11:46.001Z</time></trkpt><trkpt lat="37.47065637308314" lon="14.323094318472824"><ele>779.0</ele><time>2026-05-03T07:12:00.001Z</time></trkpt><trkpt lat="37.470655776755805" lon="14.32317857759559"><ele>779.0</ele><time>2026-05-03T07:12:01.001Z</time></trkpt><trkpt lat="37.47067871303638" lon="14.323314368010942"><ele>779.0</ele><time>2026-05-03T07:12:03.001Z</time></trkpt><trkpt lat="37.470667789717574" lon="14.32344920331483"><ele>780.3333333333334</ele><time>2026-05-03T07:12:05.001Z</time></trkpt><trkpt lat="37.47065465007717" lon="14.32355759942421"><ele>781.6666666666667</ele><time>2026-05-03T07:12:06.001Z</time></trkpt><trkpt lat="37.47063246032724" lon="14.323646203162674"><ele>783.0</ele><time>2026-05-03T07:12:07.001Z</time></trkpt><trkpt lat="37.47060913304452" lon="14.323727850410048"><ele>784.3333333333333</ele><time>2026-05-03T07:12:08.001Z</time></trkpt><trkpt lat="37.47059295663536" lon="14.32381744033108"><ele>785.6666666666666</ele><time>2026-05-03T07:12:09.001Z</time></trkpt><trkpt lat="37.47058373901399" lon="14.323912799426667"><ele>787.0</ele><time>2026-05-03T07:12:10.001Z</time></trkpt><trkpt lat="37.47058184958698" lon="14.324003554595443"><ele>786.9999999999999</ele><time>2026-05-03T07:12:11.001Z</time></trkpt><trkpt lat="37.47059020950562" lon="14.324106896118831"><ele>787.0</ele><time>2026-05-03T07:12:12.001Z</time></trkpt><trkpt lat="37.470595437879076" lon="14.32420443582285"><ele>787.0</ele><time>2026-05-03T07:12:13.001Z</time></trkpt><trkpt lat="37.47059814285704" lon="14.324304083073136"><ele>787.0</ele><time>2026-05-03T07:12:14.001Z</time></trkpt><trkpt lat="37.47060139826988" lon="14.324400037844262"><ele>786.9999999999999</ele><time>2026-05-03T07:12:15.001Z</time></trkpt><trkpt lat="37.47060995187092" lon="14.324515686204574"><ele>787.0</ele><time>2026-05-03T07:12:16.001Z</time></trkpt><trkpt lat="37.47061554335688" lon="14.324634483464374"><ele>789.4999999999999</ele><time>2026-05-03T07:12:17.001Z</time></trkpt><trkpt lat="37.47061128047739" lon="14.324744463232015"><ele>792.0</ele><time>2026-05-03T07:12:18.001Z</time></trkpt><trkpt lat="37.47061776973387" lon="14.32484356556288"><ele>794.5</ele><time>2026-05-03T07:12:19.001Z</time></trkpt><trkpt lat="37.470628154955826" lon="14.32493117080773"><ele>797.0</ele><time>2026-05-03T07:12:20.001Z</time></trkpt><trkpt lat="37.47065258316046" lon="14.32501203677955"><ele>799.4999999999999</ele><time>2026-05-03T07:12:21.001Z</time></trkpt><trkpt lat="37.47066985996248" lon="14.325099541737078"><ele>802.0</ele><time>2026-05-03T07:12:22.001Z</time></trkpt><trkpt lat="37.47069253049408" lon="14.325204991406117"><ele>802.0</ele><time>2026-05-03T07:12:23.001Z</time></trkpt><trkpt lat="37.470713525411554" lon="14.32528817362746"><ele>802.0</ele><time>2026-05-03T07:12:24.001Z</time></trkpt><trkpt lat="37.47075892406989" lon="14.325462443403849"><ele>802.0</ele><time>2026-05-03T07:12:26.001Z</time></trkpt><trkpt lat="37.47078331149297" lon="14.325563400068553"><ele>802.0</ele><time>2026-05-03T07:12:27.001Z</time></trkpt><trkpt lat="37.47082379643339" lon="14.325655439780617"><ele>802.0</ele><time>2026-05-03T07:12:28.001Z</time></trkpt><trkpt lat="37.470839855913795" lon="14.325763517673735"><ele>803.6</ele><time>2026-05-03T07:12:29.001Z</time></trkpt><trkpt lat="37.470846474560005" lon="14.32588619540773"><ele>805.2</ele><time>2026-05-03T07:12:30.001Z</time></trkpt><trkpt lat="37.470843265516514" lon="14.326008886160315"><ele>806.8</ele><time>2026-05-03T07:12:31.001Z</time></trkpt><trkpt lat="37.47082826421604" lon="14.326140074245577"><ele>808.4</ele><time>2026-05-03T07:12:32.001Z</time></trkpt><trkpt lat="37.4708095036082" lon="14.32626150950742"><ele>810.0</ele><time>2026-05-03T07:12:33.001Z</time></trkpt><trkpt lat="37.47081658736173" lon="14.326396895791538"><ele>810.4</ele><time>2026-05-03T07:12:34.001Z</time></trkpt><trkpt lat="37.47082155022018" lon="14.326534690401157"><ele>810.8</ele><time>2026-05-03T07:12:35.001Z</time></trkpt><trkpt lat="37.47082468157107" lon="14.32665778280568"><ele>811.2</ele><time>2026-05-03T07:12:36.001Z</time></trkpt><trkpt lat="37.470833879988426" lon="14.326764075781863"><ele>811.6</ele><time>2026-05-03T07:12:37.001Z</time></trkpt><trkpt lat="37.470845358796474" lon="14.326890411042065"><ele>812.0</ele><time>2026-05-03T07:12:38.001Z</time></trkpt><trkpt lat="37.47085791000072" lon="14.327008006802838"><ele>812.0</ele><time>2026-05-03T07:12:39.001Z</time></trkpt><trkpt lat="37.47086761898803" lon="14.327122711579653"><ele>812.0</ele><time>2026-05-03T07:12:40.001Z</time></trkpt><trkpt lat="37.47087273935585" lon="14.327244082752584"><ele>812.0</ele><time>2026-05-03T07:12:41.001Z</time></trkpt><trkpt lat="37.47088084675047" lon="14.327362897527504"><ele>812.0</ele><time>2026-05-03T07:12:42.001Z</time></trkpt><trkpt lat="37.47088749729588" lon="14.327484604995128"><ele>812.0</ele><time>2026-05-03T07:12:43.001Z</time></trkpt><trkpt lat="37.470889964016656" lon="14.327616237818377"><ele>811.6</ele><time>2026-05-03T07:12:44.001Z</time></trkpt><trkpt lat="37.470899111484975" lon="14.327729988341847"><ele>811.2</ele><time>2026-05-03T07:12:45.001Z</time></trkpt><trkpt lat="37.470900630577646" lon="14.32783875405846"><ele>810.8</ele><time>2026-05-03T07:12:46.001Z</time></trkpt><trkpt lat="37.47091064663361" lon="14.32792820162861"><ele>810.4</ele><time>2026-05-03T07:12:47.001Z</time></trkpt><trkpt lat="37.47090400941227" lon="14.32805687144461"><ele>810.0</ele><time>2026-05-03T07:12:49.001Z</time></trkpt><trkpt lat="37.47078795070711" lon="14.328099517749642"><ele>810.0</ele><time>2026-05-03T07:12:51.001Z</time></trkpt><trkpt lat="37.4707052553191" lon="14.328059463274762"><ele>810.0</ele><time>2026-05-03T07:12:52.001Z</time></trkpt><trkpt lat="37.47061698235248" lon="14.328007512388746"><ele>810.0</ele><time>2026-05-03T07:12:53.001Z</time></trkpt><trkpt lat="37.4705398904259" lon="14.327972178720742"><ele>810.0</ele><time>2026-05-03T07:12:54Z</time></trkpt><trkpt lat="37.470438514910015" lon="14.32795292039787"><ele>810.0</ele><time>2026-05-03T07:12:56Z</time></trkpt><trkpt lat="37.470345385114165" lon="14.327867162263933"><ele>807.8571428571428</ele><time>2026-05-03T07:12:58Z</time></trkpt><trkpt lat="37.470296702898004" lon="14.327805531917075"><ele>805.7142857142857</ele><time>2026-05-03T07:12:59Z</time></trkpt><trkpt lat="37.470252751347736" lon="14.327747637553543"><ele>803.5714285714286</ele><time>2026-05-03T07:13:00Z</time></trkpt><trkpt lat="37.4701970584871" lon="14.327682599777482"><ele>801.4285714285713</ele><time>2026-05-03T07:13:01Z</time></trkpt><trkpt lat="37.47014151601918" lon="14.32763027770252"><ele>799.2857142857143</ele><time>2026-05-03T07:13:02Z</time></trkpt><trkpt lat="37.47009146014404" lon="14.327563130943213"><ele>797.1428571428571</ele><time>2026-05-03T07:13:03Z</time></trkpt><trkpt lat="37.47004538311808" lon="14.327500329527068"><ele>795.0</ele><time>2026-05-03T07:13:04Z</time></trkpt><trkpt lat="37.469993286253384" lon="14.327434487562435"><ele>795.0</ele><time>2026-05-03T07:13:05Z</time></trkpt><trkpt lat="37.46994584213182" lon="14.327371250855368"><ele>795.0</ele><time>2026-05-03T07:13:06Z</time></trkpt><trkpt lat="37.46990349554563" lon="14.327300292726441"><ele>795.0</ele><time>2026-05-03T07:13:07Z</time></trkpt><trkpt lat="37.46982989747075" lon="14.327160998829324"><ele>795.0</ele><time>2026-05-03T07:13:09Z</time></trkpt><trkpt lat="37.469793064848034" lon="14.327096148794569"><ele>795.0</ele><time>2026-05-03T07:13:10Z</time></trkpt><trkpt lat="37.46973765394231" lon="14.326990028517333"><ele>795.0</ele><time>2026-05-03T07:13:12Z</time></trkpt><trkpt lat="37.46971044355253" lon="14.327107825372133"><ele>795.0</ele><time>2026-05-03T07:13:16Z</time></trkpt><trkpt lat="37.46975992463399" lon="14.327192119921234"><ele>795.0</ele><time>2026-05-03T07:13:17Z</time></trkpt><trkpt lat="37.46983742485848" lon="14.327312277636697"><ele>795.0</ele><time>2026-05-03T07:13:18Z</time></trkpt><trkpt lat="37.469903591816255" lon="14.327459672437033"><ele>795.0</ele><time>2026-05-03T07:13:19Z</time></trkpt><trkpt lat="37.46997267517296" lon="14.327592089559417"><ele>795.0</ele><time>2026-05-03T07:13:20Z</time></trkpt><trkpt lat="37.470012489965704" lon="14.327723201166066"><ele>795.0</ele><time>2026-05-03T07:13:21Z</time></trkpt><trkpt lat="37.47005251987027" lon="14.327866419615152"><ele>795.0</ele><time>2026-05-03T07:13:22Z</time></trkpt><trkpt lat="37.470093030436715" lon="14.327969275289949"><ele>795.0</ele><time>2026-05-03T07:13:23Z</time></trkpt><trkpt lat="37.47015403157913" lon="14.328066171648292"><ele>795.0</ele><time>2026-05-03T07:13:24Z</time></trkpt><trkpt lat="37.470204428580644" lon="14.328153951315889"><ele>794.2</ele><time>2026-05-03T07:13:25Z</time></trkpt><trkpt lat="37.47025543686764" lon="14.328233700745361"><ele>793.4</ele><time>2026-05-03T07:13:26Z</time></trkpt><trkpt lat="37.470309577087214" lon="14.328327269495297"><ele>792.5999999999999</ele><time>2026-05-03T07:13:27Z</time></trkpt><trkpt lat="37.47035437629237" lon="14.328431158328632"><ele>791.8</ele><time>2026-05-03T07:13:28Z</time></trkpt><trkpt lat="37.47039514022558" lon="14.328550962846428"><ele>791.0</ele><time>2026-05-03T07:13:29Z</time></trkpt><trkpt lat="37.47043889636515" lon="14.328666048313638"><ele>793.6666666666667</ele><time>2026-05-03T07:13:30Z</time></trkpt><trkpt lat="37.47047011705867" lon="14.328768166214468"><ele>796.3333333333334</ele><time>2026-05-03T07:13:31Z</time></trkpt><trkpt lat="37.47049668384314" lon="14.328874236388142"><ele>799.0</ele><time>2026-05-03T07:13:32Z</time></trkpt><trkpt lat="37.470520263578834" lon="14.32897653743344"><ele>801.6666666666667</ele><time>2026-05-03T07:13:33Z</time></trkpt><trkpt lat="37.47053451844866" lon="14.329066597001928"><ele>804.3333333333334</ele><time>2026-05-03T07:13:34Z</time></trkpt><trkpt lat="37.47054900601843" lon="14.329184611208861"><ele>807.0</ele><time>2026-05-03T07:13:35Z</time></trkpt><trkpt lat="37.47054922180963" lon="14.329292564412617"><ele>807.0</ele><time>2026-05-03T07:13:36Z</time></trkpt><trkpt lat="37.4705365885754" lon="14.329395894534722"><ele>807.0</ele><time>2026-05-03T07:13:37Z</time></trkpt><trkpt lat="37.47054591485314" lon="14.329492849932405"><ele>807.0</ele><time>2026-05-03T07:13:38Z</time></trkpt><trkpt lat="37.47055049431325" lon="14.3295922101713"><ele>807.0</ele><time>2026-05-03T07:13:39Z</time></trkpt><trkpt lat="37.47054217697775" lon="14.329697197225748"><ele>807.0</ele><time>2026-05-03T07:13:40Z</time></trkpt><trkpt lat="37.47054246876256" lon="14.329805618780094"><ele>807.0</ele><time>2026-05-03T07:13:41Z</time></trkpt><trkpt lat="37.47053403136182" lon="14.329913601505275"><ele>807.0</ele><time>2026-05-03T07:13:42Z</time></trkpt><trkpt lat="37.47050204872214" lon="14.330029777856884"><ele>807.0</ele><time>2026-05-03T07:13:43Z</time></trkpt><trkpt lat="37.47048379068128" lon="14.330150349137392"><ele>807.0</ele><time>2026-05-03T07:13:44Z</time></trkpt><trkpt lat="37.47047145240855" lon="14.330263663218751"><ele>807.0</ele><time>2026-05-03T07:13:45Z</time></trkpt><trkpt lat="37.470457999536244" lon="14.330383902975681"><ele>807.0</ele><time>2026-05-03T07:13:46Z</time></trkpt><trkpt lat="37.47044906555334" lon="14.330493593701302"><ele>807.0</ele><time>2026-05-03T07:13:47Z</time></trkpt><trkpt lat="37.470450961360164" lon="14.330600911790214"><ele>807.0</ele><time>2026-05-03T07:13:48Z</time></trkpt><trkpt lat="37.470446926057356" lon="14.330727465941361"><ele>807.0</ele><time>2026-05-03T07:13:49Z</time></trkpt><trkpt lat="37.47044784331658" lon="14.330866680866462"><ele>807.0</ele><time>2026-05-03T07:13:50Z</time></trkpt><trkpt lat="37.470441739188324" lon="14.331020485201682"><ele>807.0</ele><time>2026-05-03T07:13:51Z</time></trkpt><trkpt lat="37.470437281276354" lon="14.331163845912313"><ele>807.0</ele><time>2026-05-03T07:13:52Z</time></trkpt><trkpt lat="37.47042705330035" lon="14.331303615921467"><ele>807.0</ele><time>2026-05-03T07:13:53Z</time></trkpt><trkpt lat="37.47041464404182" lon="14.33145763986888"><ele>807.0</ele><time>2026-05-03T07:13:54Z</time></trkpt><trkpt lat="37.470411878213454" lon="14.331618451061262"><ele>807.0</ele><time>2026-05-03T07:13:55Z</time></trkpt><trkpt lat="37.47039973170709" lon="14.331757838113791"><ele>805.8</ele><time>2026-05-03T07:13:56Z</time></trkpt><trkpt lat="37.47038577327195" lon="14.331894374727346"><ele>804.6</ele><time>2026-05-03T07:13:57Z</time></trkpt><trkpt lat="37.47035898487687" lon="14.332020916670935"><ele>803.4</ele><time>2026-05-03T07:13:58Z</time></trkpt><trkpt lat="37.47033196461678" lon="14.332112839302118"><ele>802.1999999999999</ele><time>2026-05-03T07:13:59Z</time></trkpt><trkpt lat="37.470327957569076" lon="14.332236542878613"><ele>801.0</ele><time>2026-05-03T07:14:00Z</time></trkpt><trkpt lat="37.47034452294005" lon="14.3324216733816"><ele>798.6666666666667</ele><time>2026-05-03T07:14:01Z</time></trkpt><trkpt lat="37.47034060861642" lon="14.33263196654643"><ele>796.3333333333334</ele><time>2026-05-03T07:14:02Z</time></trkpt><trkpt lat="37.47034476817792" lon="14.33285549334715"><ele>794.0</ele><time>2026-05-03T07:14:03Z</time></trkpt><trkpt lat="37.47035439913753" lon="14.333098116447996"><ele>792.6666666666667</ele><time>2026-05-03T07:14:04Z</time></trkpt><trkpt lat="37.47034982935825" lon="14.333313897173271"><ele>791.3333333333333</ele><time>2026-05-03T07:14:05Z</time></trkpt><trkpt lat="37.47032794475375" lon="14.333532964155447"><ele>790.0</ele><time>2026-05-03T07:14:06Z</time></trkpt><trkpt lat="37.47029853332812" lon="14.333727571004976"><ele>791.6666666666666</ele><time>2026-05-03T07:14:07Z</time></trkpt><trkpt lat="37.47026661628475" lon="14.333908917435588"><ele>793.3333333333333</ele><time>2026-05-03T07:14:08Z</time></trkpt><trkpt lat="37.47021803587956" lon="14.33409946582828"><ele>795.0</ele><time>2026-05-03T07:14:09Z</time></trkpt><trkpt lat="37.47016939205197" lon="14.334314624371721"><ele>795.0</ele><time>2026-05-03T07:14:10Z</time></trkpt><trkpt lat="37.47012325897337" lon="14.334565701281312"><ele>795.0</ele><time>2026-05-03T07:14:11Z</time></trkpt><trkpt lat="37.47008737341053" lon="14.334775411850261"><ele>795.0</ele><time>2026-05-03T07:14:12Z</time></trkpt><trkpt lat="37.47006855782396" lon="14.334927579954844"><ele>795.1666666666666</ele><time>2026-05-03T07:14:13Z</time></trkpt><trkpt lat="37.47004339334863" lon="14.33505212756564"><ele>795.3333333333333</ele><time>2026-05-03T07:14:14Z</time></trkpt><trkpt lat="37.47000950161526" lon="14.33515121039598"><ele>795.5</ele><time>2026-05-03T07:14:15Z</time></trkpt><trkpt lat="37.469987887280325" lon="14.335230619720354"><ele>795.6666666666666</ele><time>2026-05-03T07:14:16Z</time></trkpt><trkpt lat="37.46996816172187" lon="14.335312521351426"><ele>795.8333333333333</ele><time>2026-05-03T07:14:17Z</time></trkpt><trkpt lat="37.469947901114274" lon="14.335399656137806"><ele>796.0</ele><time>2026-05-03T07:14:18Z</time></trkpt><trkpt lat="37.4699281409969" lon="14.335487265647014"><ele>796.1666666666666</ele><time>2026-05-03T07:14:19Z</time></trkpt><trkpt lat="37.46989867092333" lon="14.33559239338784"><ele>796.3333333333333</ele><time>2026-05-03T07:14:20Z</time></trkpt><trkpt lat="37.469855895879334" lon="14.335693943132132"><ele>796.5</ele><time>2026-05-03T07:14:21Z</time></trkpt><trkpt lat="37.46980766609652" lon="14.335785927205324"><ele>796.6666666666667</ele><time>2026-05-03T07:14:22Z</time></trkpt><trkpt lat="37.469781334297366" lon="14.33587643692727"><ele>796.8333333333334</ele><time>2026-05-03T07:14:23Z</time></trkpt><trkpt lat="37.46975578597976" lon="14.335963070930024"><ele>797.0</ele><time>2026-05-03T07:14:24Z</time></trkpt><trkpt lat="37.469733252779115" lon="14.336060535506759"><ele>797.0</ele><time>2026-05-03T07:14:25Z</time></trkpt><trkpt lat="37.46969735243281" lon="14.336181400547863"><ele>797.0</ele><time>2026-05-03T07:14:26Z</time></trkpt><trkpt lat="37.4696617067266" lon="14.336286103594446"><ele>797.0</ele><time>2026-05-03T07:14:27Z</time></trkpt><trkpt lat="37.46963101359574" lon="14.33639587524622"><ele>797.0</ele><time>2026-05-03T07:14:28Z</time></trkpt><trkpt lat="37.469593858927944" lon="14.336499395645797"><ele>797.0</ele><time>2026-05-03T07:14:29Z</time></trkpt><trkpt lat="37.469539014033245" lon="14.336612022613492"><ele>794.8</ele><time>2026-05-03T07:14:30Z</time></trkpt><trkpt lat="37.46949493858055" lon="14.336710555016431"><ele>792.6</ele><time>2026-05-03T07:14:31Z</time></trkpt><trkpt lat="37.4694449841277" lon="14.336825524424956"><ele>790.4</ele><time>2026-05-03T07:14:32Z</time></trkpt><trkpt lat="37.469391773203775" lon="14.33694276254903"><ele>788.1999999999999</ele><time>2026-05-03T07:14:33Z</time></trkpt><trkpt lat="37.46935455374682" lon="14.337043578545225"><ele>786.0</ele><time>2026-05-03T07:14:34Z</time></trkpt><trkpt lat="37.46932049592133" lon="14.337147706162051"><ele>787.0</ele><time>2026-05-03T07:14:35Z</time></trkpt><trkpt lat="37.4692916294408" lon="14.33724755372263"><ele>788.0</ele><time>2026-05-03T07:14:36Z</time></trkpt><trkpt lat="37.46926967542675" lon="14.33733671573075"><ele>789.0</ele><time>2026-05-03T07:14:37Z</time></trkpt><trkpt lat="37.46921186056594" lon="14.337481342595463"><ele>790.0</ele><time>2026-05-03T07:14:39Z</time></trkpt><trkpt lat="37.46912568514112" lon="14.33754667794021"><ele>791.0</ele><time>2026-05-03T07:14:40Z</time></trkpt><trkpt lat="37.46901344762262" lon="14.337616189374176"><ele>791.0</ele><time>2026-05-03T07:14:41Z</time></trkpt><trkpt lat="37.46888255223066" lon="14.337715083109073"><ele>791.0</ele><time>2026-05-03T07:14:42Z</time></trkpt><trkpt lat="37.468799306405714" lon="14.337771126332067"><ele>791.0</ele><time>2026-05-03T07:14:43Z</time></trkpt><trkpt lat="37.468737602529764" lon="14.337817757771951"><ele>791.0</ele><time>2026-05-03T07:14:44Z</time></trkpt><trkpt lat="37.468654890737184" lon="14.33791101470014"><ele>791.0</ele><time>2026-05-03T07:14:46Z</time></trkpt><trkpt lat="37.46862637558066" lon="14.337983638702918"><ele>793.0000000000001</ele><time>2026-05-03T07:14:48Z</time></trkpt><trkpt lat="37.46862475212355" lon="14.338072707879588"><ele>795.0</ele><time>2026-05-03T07:14:49Z</time></trkpt><trkpt lat="37.46861631202946" lon="14.338159389385513"><ele>797.0</ele><time>2026-05-03T07:14:50Z</time></trkpt><trkpt lat="37.46861534152729" lon="14.338247713263803"><ele>799.0</ele><time>2026-05-03T07:14:51Z</time></trkpt><trkpt lat="37.46862552200069" lon="14.338339116013453"><ele>801.0000000000001</ele><time>2026-05-03T07:14:52Z</time></trkpt><trkpt lat="37.46863571665704" lon="14.338422932320796"><ele>803.0</ele><time>2026-05-03T07:14:53Z</time></trkpt><trkpt lat="37.468657204139454" lon="14.338557509507115"><ele>803.0</ele><time>2026-05-03T07:14:55Z</time></trkpt><trkpt lat="37.46868184871873" lon="14.33866945915258"><ele>803.0</ele><time>2026-05-03T07:14:57Z</time></trkpt><trkpt lat="37.468684398917915" lon="14.338779835046507"><ele>803.0</ele><time>2026-05-03T07:14:59Z</time></trkpt><trkpt lat="37.46869901271366" lon="14.338885364644279"><ele>803.0</ele><time>2026-05-03T07:15:01Z</time></trkpt><trkpt lat="37.46873425222784" lon="14.338993050892004"><ele>803.0</ele><time>2026-05-03T07:15:03Z</time></trkpt><trkpt lat="37.46874459960007" lon="14.339110142298471"><ele>801.2857142857142</ele><time>2026-05-03T07:15:05Z</time></trkpt><trkpt lat="37.46874942160258" lon="14.339194400685036"><ele>799.5714285714286</ele><time>2026-05-03T07:15:06Z</time></trkpt><trkpt lat="37.46875153755584" lon="14.339283797714714"><ele>797.8571428571429</ele><time>2026-05-03T07:15:07Z</time></trkpt><trkpt lat="37.468743684882845" lon="14.339364098524005"><ele>796.1428571428571</ele><time>2026-05-03T07:15:08Z</time></trkpt><trkpt lat="37.46873294510495" lon="14.339451212444787"><ele>794.4285714285714</ele><time>2026-05-03T07:15:09Z</time></trkpt><trkpt lat="37.46871484159026" lon="14.339536705641274"><ele>792.7142857142857</ele><time>2026-05-03T07:15:10Z</time></trkpt><trkpt lat="37.46867834245528" lon="14.339611315325891"><ele>791.0</ele><time>2026-05-03T07:15:11Z</time></trkpt><trkpt lat="37.46864261319605" lon="14.339688709841305"><ele>788.8</ele><time>2026-05-03T07:15:12Z</time></trkpt><trkpt lat="37.46859181353467" lon="14.339838795575295"><ele>786.5999999999999</ele><time>2026-05-03T07:15:14Z</time></trkpt><trkpt lat="37.46856160707167" lon="14.339932521711063"><ele>784.4</ele><time>2026-05-03T07:15:15Z</time></trkpt><trkpt lat="37.46853431454667" lon="14.340028246879484"><ele>782.2</ele><time>2026-05-03T07:15:16Z</time></trkpt><trkpt lat="37.46850390742287" lon="14.34011923547441"><ele>780.0</ele><time>2026-05-03T07:15:17Z</time></trkpt><trkpt lat="37.46847181399532" lon="14.340215066470263"><ele>780.0</ele><time>2026-05-03T07:15:18Z</time></trkpt><trkpt lat="37.468442007390806" lon="14.3403223978175"><ele>780.0</ele><time>2026-05-03T07:15:19Z</time></trkpt><trkpt lat="37.46842193987448" lon="14.340426530954373"><ele>780.0</ele><time>2026-05-03T07:15:20Z</time></trkpt><trkpt lat="37.46839927953263" lon="14.340529151572596"><ele>780.0</ele><time>2026-05-03T07:15:21Z</time></trkpt><trkpt lat="37.46838034615709" lon="14.340660563889408"><ele>780.0</ele><time>2026-05-03T07:15:22Z</time></trkpt><trkpt lat="37.468342505519196" lon="14.34081474052413"><ele>778.0</ele><time>2026-05-03T07:15:23Z</time></trkpt><trkpt lat="37.46829844898556" lon="14.340950714067043"><ele>776.0</ele><time>2026-05-03T07:15:24Z</time></trkpt><trkpt lat="37.46827459542866" lon="14.341070528853797"><ele>774.0</ele><time>2026-05-03T07:15:25Z</time></trkpt><trkpt lat="37.46826357658409" lon="14.341180903018895"><ele>772.0</ele><time>2026-05-03T07:15:26Z</time></trkpt><trkpt lat="37.46827319969398" lon="14.341266709221722"><ele>770.0</ele><time>2026-05-03T07:15:27Z</time></trkpt><trkpt lat="37.468308160237" lon="14.341383977854393"><ele>770.0</ele><time>2026-05-03T07:15:28Z</time></trkpt><trkpt lat="37.46835615087331" lon="14.341495943736708"><ele>770.0</ele><time>2026-05-03T07:15:29Z</time></trkpt><trkpt lat="37.46840357699411" lon="14.341604555166295"><ele>770.0</ele><time>2026-05-03T07:15:30Z</time></trkpt><trkpt lat="37.468456363977886" lon="14.341721268419372"><ele>770.0</ele><time>2026-05-03T07:15:31Z</time></trkpt><trkpt lat="37.4685120817884" lon="14.341846918799153"><ele>770.0</ele><time>2026-05-03T07:15:32Z</time></trkpt><trkpt lat="37.46856531032811" lon="14.341976153486671"><ele>770.0</ele><time>2026-05-03T07:15:33Z</time></trkpt><trkpt lat="37.46860494394144" lon="14.342115477493847"><ele>770.0</ele><time>2026-05-03T07:15:34Z</time></trkpt><trkpt lat="37.468625165005236" lon="14.342249635995232"><ele>770.0</ele><time>2026-05-03T07:15:35Z</time></trkpt><trkpt lat="37.46862499411474" lon="14.342355789836441"><ele>770.0</ele><time>2026-05-03T07:15:36Z</time></trkpt><trkpt lat="37.46860637240385" lon="14.342470885690366"><ele>770.0</ele><time>2026-05-03T07:15:37Z</time></trkpt><trkpt lat="37.468564119289525" lon="14.342584695589453"><ele>771.0</ele><time>2026-05-03T07:15:38Z</time></trkpt><trkpt lat="37.46848042755967" lon="14.34272416308081"><ele>772.0</ele><time>2026-05-03T07:15:39Z</time></trkpt><trkpt lat="37.468401451292245" lon="14.342853375111744"><ele>773.0</ele><time>2026-05-03T07:15:40Z</time></trkpt><trkpt lat="37.468344050996656" lon="14.342972860557678"><ele>774.0</ele><time>2026-05-03T07:15:41Z</time></trkpt><trkpt lat="37.4683191541682" lon="14.343084599063932"><ele>774.3333333333334</ele><time>2026-05-03T07:15:42Z</time></trkpt><trkpt lat="37.46832294019038" lon="14.34320621281272"><ele>774.6666666666667</ele><time>2026-05-03T07:15:43Z</time></trkpt><trkpt lat="37.46830146900526" lon="14.343313505598454"><ele>775.0</ele><time>2026-05-03T07:15:44Z</time></trkpt><trkpt lat="37.46829078014286" lon="14.343393648813205"><ele>775.3333333333334</ele><time>2026-05-03T07:15:45Z</time></trkpt><trkpt lat="37.46827795812675" lon="14.343474493075592"><ele>775.6666666666667</ele><time>2026-05-03T07:15:46Z</time></trkpt><trkpt lat="37.46827830217471" lon="14.343554986403927"><ele>776.0</ele><time>2026-05-03T07:15:47Z</time></trkpt><trkpt lat="37.468278592814706" lon="14.343644867416746"><ele>776.0000000000001</ele><time>2026-05-03T07:15:48Z</time></trkpt><trkpt lat="37.468286731894814" lon="14.343769177085072"><ele>776.0</ele><time>2026-05-03T07:15:50Z</time></trkpt><trkpt lat="37.46829441608805" lon="14.343908541144545"><ele>776.0</ele><time>2026-05-03T07:15:52Z</time></trkpt><trkpt lat="37.46829476788132" lon="14.343991780138586"><ele>776.0</ele><time>2026-05-03T07:15:53Z</time></trkpt><trkpt lat="37.46829166795823" lon="14.34409364796006"><ele>776.0000000000001</ele><time>2026-05-03T07:15:54Z</time></trkpt><trkpt lat="37.46827432530629" lon="14.34419750935716"><ele>776.0</ele><time>2026-05-03T07:15:55Z</time></trkpt><trkpt lat="37.46824975428404" lon="14.344312001982136"><ele>775.1999999999999</ele><time>2026-05-03T07:15:56Z</time></trkpt><trkpt lat="37.46822820592993" lon="14.344425759743036"><ele>774.4</ele><time>2026-05-03T07:15:57Z</time></trkpt><trkpt lat="37.46822493842309" lon="14.344544033037858"><ele>773.6</ele><time>2026-05-03T07:15:58Z</time></trkpt><trkpt lat="37.468235400490585" lon="14.344647337968478"><ele>772.8</ele><time>2026-05-03T07:15:59Z</time></trkpt><trkpt lat="37.468234253166095" lon="14.344759676768037"><ele>772.0</ele><time>2026-05-03T07:16:00Z</time></trkpt><trkpt lat="37.46821353188373" lon="14.344881136512399"><ele>771.4999999999999</ele><time>2026-05-03T07:16:01Z</time></trkpt><trkpt lat="37.468174863599835" lon="14.345030124879338"><ele>771.0</ele><time>2026-05-03T07:16:02Z</time></trkpt><trkpt lat="37.468138895331585" lon="14.345139990578934"><ele>770.5</ele><time>2026-05-03T07:16:03Z</time></trkpt><trkpt lat="37.46811383694043" lon="14.345213890108418"><ele>770.0</ele><time>2026-05-03T07:16:04Z</time></trkpt><trkpt lat="37.46811076870908" lon="14.345304349718464"><ele>769.4999999999999</ele><time>2026-05-03T07:16:05Z</time></trkpt><trkpt lat="37.46813251470064" lon="14.345408359871575"><ele>769.0</ele><time>2026-05-03T07:16:06Z</time></trkpt><trkpt lat="37.46816271819316" lon="14.34552151534546"><ele>769.0</ele><time>2026-05-03T07:16:07Z</time></trkpt><trkpt lat="37.46816399613389" lon="14.345627514619482"><ele>769.0</ele><time>2026-05-03T07:16:08Z</time></trkpt><trkpt lat="37.46814530976856" lon="14.345755389205355"><ele>769.0</ele><time>2026-05-03T07:16:09Z</time></trkpt><trkpt lat="37.468126292831926" lon="14.345901675057762"><ele>769.0</ele><time>2026-05-03T07:16:10Z</time></trkpt><trkpt lat="37.46811877522645" lon="14.346058153053097"><ele>769.0</ele><time>2026-05-03T07:16:11Z</time></trkpt><trkpt lat="37.46810939741206" lon="14.34620765431263"><ele>769.0</ele><time>2026-05-03T07:16:12Z</time></trkpt><trkpt lat="37.46809133603716" lon="14.346340595755462"><ele>769.0</ele><time>2026-05-03T07:16:13Z</time></trkpt><trkpt lat="37.468072414704736" lon="14.346483643618452"><ele>769.0</ele><time>2026-05-03T07:16:14Z</time></trkpt><trkpt lat="37.468065859349224" lon="14.346622831708261"><ele>769.0</ele><time>2026-05-03T07:16:15Z</time></trkpt><trkpt lat="37.46808626339112" lon="14.34673352614998"><ele>769.0</ele><time>2026-05-03T07:16:16Z</time></trkpt><trkpt lat="37.46811659071038" lon="14.346859221996985"><ele>770.0</ele><time>2026-05-03T07:16:17Z</time></trkpt><trkpt lat="37.468157107250576" lon="14.346989748352046"><ele>771.0</ele><time>2026-05-03T07:16:18Z</time></trkpt><trkpt lat="37.46819647985155" lon="14.347098128206571"><ele>772.0</ele><time>2026-05-03T07:16:19Z</time></trkpt><trkpt lat="37.46823439510723" lon="14.34718906375759"><ele>773.0</ele><time>2026-05-03T07:16:20Z</time></trkpt><trkpt lat="37.46827947427606" lon="14.347283208314886"><ele>774.0</ele><time>2026-05-03T07:16:21Z</time></trkpt><trkpt lat="37.468332593663106" lon="14.34738644376839"><ele>774.8000000000001</ele><time>2026-05-03T07:16:22Z</time></trkpt><trkpt lat="37.46837651543753" lon="14.347464666843795"><ele>775.6</ele><time>2026-05-03T07:16:23Z</time></trkpt><trkpt lat="37.46848868254169" lon="14.347492807687807"><ele>776.4</ele><time>2026-05-03T07:16:24Z</time></trkpt><trkpt lat="37.46851426266981" lon="14.347580689777748"><ele>777.2</ele><time>2026-05-03T07:16:25Z</time></trkpt><trkpt lat="37.46855520277836" lon="14.347694805877342"><ele>778.0</ele><time>2026-05-03T07:16:26Z</time></trkpt><trkpt lat="37.468606902964076" lon="14.347805744623185"><ele>777.9999999999999</ele><time>2026-05-03T07:16:27Z</time></trkpt><trkpt lat="37.46868231048697" lon="14.347904269980107"><ele>778.0</ele><time>2026-05-03T07:16:28Z</time></trkpt><trkpt lat="37.46872619771332" lon="14.347997154919257"><ele>778.0</ele><time>2026-05-03T07:16:29Z</time></trkpt><trkpt lat="37.46877190310047" lon="14.348074512630403"><ele>778.0</ele><time>2026-05-03T07:16:30Z</time></trkpt><trkpt lat="37.46884229095418" lon="14.348155047766198"><ele>777.9999999999999</ele><time>2026-05-03T07:16:32Z</time></trkpt><trkpt lat="37.46889201611699" lon="14.348223286773067"><ele>778.0</ele><time>2026-05-03T07:16:34Z</time></trkpt><trkpt lat="37.46895105238948" lon="14.348324347862755"><ele>775.4</ele><time>2026-05-03T07:16:37Z</time></trkpt><trkpt lat="37.46894026131037" lon="14.348458032861965"><ele>772.8</ele><time>2026-05-03T07:16:39Z</time></trkpt><trkpt lat="37.468936142217224" lon="14.348571867962722"><ele>770.2</ele><time>2026-05-03T07:16:41Z</time></trkpt><trkpt lat="37.46893172599047" lon="14.348705653426462"><ele>767.6</ele><time>2026-05-03T07:16:43Z</time></trkpt><trkpt lat="37.46892991423915" lon="14.348839294882238"><ele>765.0</ele><time>2026-05-03T07:16:45Z</time></trkpt><trkpt lat="37.46894343173569" lon="14.348975550888047"><ele>764.6</ele><time>2026-05-03T07:16:47Z</time></trkpt><trkpt lat="37.46895411799934" lon="14.349055714648598"><ele>764.2</ele><time>2026-05-03T07:16:48Z</time></trkpt><trkpt lat="37.46896282686742" lon="14.349145116966202"><ele>763.8</ele><time>2026-05-03T07:16:49Z</time></trkpt><trkpt lat="37.468897379668256" lon="14.349229332474206"><ele>763.4</ele><time>2026-05-03T07:16:51Z</time></trkpt><trkpt lat="37.46880658145084" lon="14.34934275355817"><ele>763.0</ele><time>2026-05-03T07:16:53Z</time></trkpt><trkpt lat="37.468741966309196" lon="14.349441823817742"><ele>763.0</ele><time>2026-05-03T07:16:55Z</time></trkpt><trkpt lat="37.46869260428925" lon="14.349546021283079"><ele>763.0</ele><time>2026-05-03T07:16:57Z</time></trkpt><trkpt lat="37.46862018015689" lon="14.34964129006372"><ele>763.0</ele><time>2026-05-03T07:16:59Z</time></trkpt><trkpt lat="37.46855764386556" lon="14.349749035543429"><ele>763.0</ele><time>2026-05-03T07:17:01Z</time></trkpt><trkpt lat="37.468503327788035" lon="14.349868233086905"><ele>763.0</ele><time>2026-05-03T07:17:03Z</time></trkpt><trkpt lat="37.46856651263949" lon="14.349837298435812"><ele>762.5</ele><time>2026-05-03T07:21:25Z</time></trkpt><trkpt lat="37.46863001149943" lon="14.349869834775346"><ele>762.0</ele><time>2026-05-03T07:22:04Z</time></trkpt><trkpt lat="37.46870041745236" lon="14.34985385223867"><ele>761.5</ele><time>2026-05-03T07:22:07Z</time></trkpt><trkpt lat="37.46879897211814" lon="14.349910924635155"><ele>761.0</ele><time>2026-05-03T07:22:09Z</time></trkpt><trkpt lat="37.46878312891349" lon="14.350036013330351"><ele>760.5</ele><time>2026-05-03T07:22:11Z</time></trkpt><trkpt lat="37.46873387691084" lon="14.350137555890244"><ele>760.0</ele><time>2026-05-03T07:22:12Z</time></trkpt><trkpt lat="37.46867098193217" lon="14.35025129319754"><ele>758.2</ele><time>2026-05-03T07:22:13Z</time></trkpt><trkpt lat="37.46862647046886" lon="14.350381603528588"><ele>756.4</ele><time>2026-05-03T07:22:14Z</time></trkpt><trkpt lat="37.468601295139635" lon="14.350509561547302"><ele>754.5999999999999</ele><time>2026-05-03T07:22:15Z</time></trkpt><trkpt lat="37.46858619558422" lon="14.350640093695976"><ele>752.8</ele><time>2026-05-03T07:22:16Z</time></trkpt><trkpt lat="37.46858503524148" lon="14.350779631557723"><ele>751.0</ele><time>2026-05-03T07:22:17Z</time></trkpt><trkpt lat="37.46861821897957" lon="14.35091590165523"><ele>752.0</ele><time>2026-05-03T07:22:18Z</time></trkpt><trkpt lat="37.46868634828214" lon="14.351063232566935"><ele>753.0</ele><time>2026-05-03T07:22:19Z</time></trkpt><trkpt lat="37.468765802781796" lon="14.351214159872816"><ele>754.0</ele><time>2026-05-03T07:22:20Z</time></trkpt><trkpt lat="37.46883141819816" lon="14.35135762315284"><ele>755.0</ele><time>2026-05-03T07:22:21Z</time></trkpt><trkpt lat="37.4688899399325" lon="14.351486845568957"><ele>753.4</ele><time>2026-05-03T07:22:22Z</time></trkpt><trkpt lat="37.46893984806426" lon="14.351615910178376"><ele>751.8</ele><time>2026-05-03T07:22:23Z</time></trkpt><trkpt lat="37.46896693635215" lon="14.351735587993165"><ele>750.2</ele><time>2026-05-03T07:22:24Z</time></trkpt><trkpt lat="37.46898305875928" lon="14.35185246251143"><ele>748.6</ele><time>2026-05-03T07:22:25Z</time></trkpt><trkpt lat="37.468988838816415" lon="14.351973090654894"><ele>747.0</ele><time>2026-05-03T07:22:26Z</time></trkpt><trkpt lat="37.46898536329127" lon="14.35210749155255"><ele>745.8</ele><time>2026-05-03T07:22:27Z</time></trkpt><trkpt lat="37.46898448913629" lon="14.352251552544262"><ele>744.6</ele><time>2026-05-03T07:22:28Z</time></trkpt><trkpt lat="37.46899962346908" lon="14.352388232256907"><ele>743.4</ele><time>2026-05-03T07:22:29Z</time></trkpt><trkpt lat="37.46901999656289" lon="14.35250863721535"><ele>742.1999999999999</ele><time>2026-05-03T07:22:30Z</time></trkpt><trkpt lat="37.469046543256454" lon="14.352621061645548"><ele>741.0</ele><time>2026-05-03T07:22:31Z</time></trkpt><trkpt lat="37.46909264336107" lon="14.352736505518426"><ele>741.0</ele><time>2026-05-03T07:22:32Z</time></trkpt><trkpt lat="37.469128874604074" lon="14.352884607260073"><ele>741.0</ele><time>2026-05-03T07:22:33Z</time></trkpt><trkpt lat="37.46917169321612" lon="14.353046297785315"><ele>741.0</ele><time>2026-05-03T07:22:34Z</time></trkpt><trkpt lat="37.469222523966955" lon="14.35321970187769"><ele>741.0</ele><time>2026-05-03T07:22:35Z</time></trkpt><trkpt lat="37.469275129432305" lon="14.353377247447542"><ele>738.75</ele><time>2026-05-03T07:22:36Z</time></trkpt><trkpt lat="37.46931935135308" lon="14.353538075653054"><ele>736.5</ele><time>2026-05-03T07:22:37Z</time></trkpt><trkpt lat="37.46936753725737" lon="14.353710855282586"><ele>734.25</ele><time>2026-05-03T07:22:38Z</time></trkpt><trkpt lat="37.469407196128074" lon="14.353862419622006"><ele>732.0</ele><time>2026-05-03T07:22:39Z</time></trkpt><trkpt lat="37.46944617870419" lon="14.35400244449851"><ele>731.8</ele><time>2026-05-03T07:22:40Z</time></trkpt><trkpt lat="37.4694589123526" lon="14.354157372964615"><ele>731.6</ele><time>2026-05-03T07:22:41Z</time></trkpt><trkpt lat="37.46946472187176" lon="14.354303010710803"><ele>731.4</ele><time>2026-05-03T07:22:42Z</time></trkpt><trkpt lat="37.46945216687492" lon="14.35441864140935"><ele>731.1999999999999</ele><time>2026-05-03T07:22:43Z</time></trkpt><trkpt lat="37.46942086225238" lon="14.35455209295404"><ele>731.0</ele><time>2026-05-03T07:22:44Z</time></trkpt><trkpt lat="37.46935936890942" lon="14.354637643607372"><ele>732.0</ele><time>2026-05-03T07:22:45Z</time></trkpt><trkpt lat="37.469284475290024" lon="14.354733333478716"><ele>733.0</ele><time>2026-05-03T07:22:46Z</time></trkpt><trkpt lat="37.46920076339776" lon="14.354789577486587"><ele>734.0</ele><time>2026-05-03T07:22:47Z</time></trkpt><trkpt lat="37.46912676771724" lon="14.354814665795766"><ele>735.0</ele><time>2026-05-03T07:22:48Z</time></trkpt><trkpt lat="37.46905741074844" lon="14.354840182832868"><ele>736.0</ele><time>2026-05-03T07:22:49Z</time></trkpt><trkpt lat="37.46900882122245" lon="14.355082403050577"><ele>736.0</ele><time>2026-05-03T07:22:51Z</time></trkpt><trkpt lat="37.46904150889103" lon="14.355193225920859"><ele>736.0</ele><time>2026-05-03T07:22:52Z</time></trkpt><trkpt lat="37.469119831244164" lon="14.355314748585087"><ele>736.0</ele><time>2026-05-03T07:22:53Z</time></trkpt><trkpt lat="37.4692336391826" lon="14.35543030071092"><ele>736.0</ele><time>2026-05-03T07:22:54Z</time></trkpt><trkpt lat="37.469369988276256" lon="14.355560546088661"><ele>737.3333333333334</ele><time>2026-05-03T07:22:55Z</time></trkpt><trkpt lat="37.46951136696016" lon="14.355705752486562"><ele>738.6666666666666</ele><time>2026-05-03T07:22:56Z</time></trkpt><trkpt lat="37.469669147501236" lon="14.355844622599932"><ele>740.0</ele><time>2026-05-03T07:22:57Z</time></trkpt><trkpt lat="37.46984127169405" lon="14.355972803144214"><ele>740.0</ele><time>2026-05-03T07:22:58Z</time></trkpt><trkpt lat="37.47003958139836" lon="14.356106430481182"><ele>740.0</ele><time>2026-05-03T07:22:59Z</time></trkpt><trkpt lat="37.470270850200535" lon="14.356220520902"><ele>741.6666666666666</ele><time>2026-05-03T07:23:00Z</time></trkpt><trkpt lat="37.47047124486772" lon="14.356294465659515"><ele>743.3333333333334</ele><time>2026-05-03T07:23:01Z</time></trkpt><trkpt lat="37.47065446389136" lon="14.356333634164251"><ele>745.0</ele><time>2026-05-03T07:23:02Z</time></trkpt><trkpt lat="37.47081442414801" lon="14.356354337574077"><ele>745.0</ele><time>2026-05-03T07:23:03Z</time></trkpt><trkpt lat="37.470952956970365" lon="14.35636116845056"><ele>745.0</ele><time>2026-05-03T07:23:04Z</time></trkpt><trkpt lat="37.471068189309015" lon="14.356367286553349"><ele>745.0</ele><time>2026-05-03T07:23:05Z</time></trkpt><trkpt lat="37.47115520100934" lon="14.356369973281545"><ele>745.0</ele><time>2026-05-03T07:23:06Z</time></trkpt><trkpt lat="37.47121935308465" lon="14.356380301014516"><ele>745.0</ele><time>2026-05-03T07:23:07Z</time></trkpt><trkpt lat="37.471222665634656" lon="14.356510862149587"><ele>745.5</ele><time>2026-05-03T07:23:09Z</time></trkpt><trkpt lat="37.47126254794084" lon="14.356602185826768"><ele>746.0</ele><time>2026-05-03T07:23:11Z</time></trkpt><trkpt lat="37.471407600958344" lon="14.356603715478244"><ele>746.5</ele><time>2026-05-03T07:23:14Z</time></trkpt><trkpt lat="37.4714590964419" lon="14.35639199213815"><ele>747.0</ele><time>2026-05-03T07:23:15Z</time></trkpt><trkpt lat="37.47152343330264" lon="14.356380560671937"><ele>747.0</ele><time>2026-05-03T07:23:16Z</time></trkpt><trkpt lat="37.4716290591482" lon="14.356359215741346"><ele>747.0</ele><time>2026-05-03T07:23:18Z</time></trkpt><trkpt lat="37.471718365176045" lon="14.356336700790203"><ele>747.0</ele><time>2026-05-03T07:23:21Z</time></trkpt><trkpt lat="37.47179599930802" lon="14.356313987882316"><ele>747.0</ele><time>2026-05-03T07:23:23Z</time></trkpt><trkpt lat="37.47150948601373" lon="14.357196855164238"><ele>747.6666666666666</ele><time>2026-05-03T07:23:26Z</time></trkpt><trkpt lat="37.47154753815427" lon="14.35729234138105"><ele>748.3333333333334</ele><time>2026-05-03T07:23:27Z</time></trkpt><trkpt lat="37.471590641165186" lon="14.357400502161381"><ele>749.0</ele><time>2026-05-03T07:23:28Z</time></trkpt><trkpt lat="37.47162587250801" lon="14.357488910085262"><ele>749.6666666666667</ele><time>2026-05-03T07:23:29Z</time></trkpt><trkpt lat="37.47166168615981" lon="14.357578779199063"><ele>750.3333333333334</ele><time>2026-05-03T07:23:30Z</time></trkpt><trkpt lat="37.47169266273132" lon="14.357656510411198"><ele>751.0</ele><time>2026-05-03T07:23:31Z</time></trkpt><trkpt lat="37.47172360424392" lon="14.357734153720875"><ele>751.0</ele><time>2026-05-03T07:23:32Z</time></trkpt><trkpt lat="37.471774520980205" lon="14.357870491787263"><ele>751.0</ele><time>2026-05-03T07:23:34Z</time></trkpt><trkpt lat="37.47181051277405" lon="14.357973492182333"><ele>751.0</ele><time>2026-05-03T07:23:35Z</time></trkpt><trkpt lat="37.47188766516883" lon="14.358166810460942"><ele>751.0</ele><time>2026-05-03T07:23:36Z</time></trkpt><trkpt lat="37.471938328504365" lon="14.358270454649517"><ele>751.0</ele><time>2026-05-03T07:23:37Z</time></trkpt><trkpt lat="37.47198891973299" lon="14.358373951797155"><ele>751.0</ele><time>2026-05-03T07:23:38Z</time></trkpt><trkpt lat="37.472019103379516" lon="14.358466782827923"><ele>751.0</ele><time>2026-05-03T07:23:40Z</time></trkpt><trkpt lat="37.47205672584114" lon="14.35857507642905"><ele>751.0</ele><time>2026-05-03T07:23:42Z</time></trkpt><trkpt lat="37.47209753448995" lon="14.358696397554334"><ele>751.0</ele><time>2026-05-03T07:23:45Z</time></trkpt><trkpt lat="37.47267899146885" lon="14.35845730037806"><ele>763.0</ele><time>2026-05-03T07:23:46Z</time></trkpt><trkpt lat="37.47213865505091" lon="14.358818645984865"><ele>763.8</ele><time>2026-05-03T07:23:47Z</time></trkpt><trkpt lat="37.47216818796234" lon="14.358908058138997"><ele>764.5999999999999</ele><time>2026-05-03T07:23:52Z</time></trkpt><trkpt lat="37.47223842387545" lon="14.358873936703203"><ele>765.4000000000001</ele><time>2026-05-03T07:23:58Z</time></trkpt><trkpt lat="37.47228442943045" lon="14.35894948503542"><ele>766.2</ele><time>2026-05-03T07:24:02Z</time></trkpt><trkpt lat="37.47236536150045" lon="14.358976148292237"><ele>767.0</ele><time>2026-05-03T07:24:04Z</time></trkpt><trkpt lat="37.47253955146407" lon="14.359016645445063"><ele>767.0</ele><time>2026-05-03T07:24:09Z</time></trkpt><trkpt lat="37.47269886034368" lon="14.359064518328791"><ele>767.0</ele><time>2026-05-03T07:24:13Z</time></trkpt><trkpt lat="37.472895810759795" lon="14.358998252447055"><ele>767.0</ele><time>2026-05-03T07:24:15Z</time></trkpt><trkpt lat="37.47288297756929" lon="14.359109169148041"><ele>767.0</ele><time>2026-05-03T07:24:22Z</time></trkpt><trkpt lat="37.472875155744845" lon="14.359189731980846"><ele>767.0</ele><time>2026-05-03T07:24:23Z</time></trkpt><trkpt lat="37.47294422982764" lon="14.359282281603516"><ele>767.0</ele><time>2026-05-03T07:24:25Z</time></trkpt><trkpt lat="37.473007492876526" lon="14.359404257356115"><ele>767.0</ele><time>2026-05-03T07:24:27Z</time></trkpt><trkpt lat="37.47304521486716" lon="14.359476988118436"><ele>767.0</ele><time>2026-05-03T07:24:28Z</time></trkpt><trkpt lat="37.473004497077454" lon="14.359644999697974"><ele>769.8</ele><time>2026-05-03T07:24:29Z</time></trkpt><trkpt lat="37.473035406290535" lon="14.359746296226893"><ele>772.6</ele><time>2026-05-03T07:24:30Z</time></trkpt><trkpt lat="37.473074831272726" lon="14.359855250059496"><ele>775.4</ele><time>2026-05-03T07:24:31Z</time></trkpt><trkpt lat="37.47311787805372" lon="14.35996596215906"><ele>778.1999999999999</ele><time>2026-05-03T07:24:32Z</time></trkpt><trkpt lat="37.473157003885994" lon="14.360083229178109"><ele>781.0</ele><time>2026-05-03T07:24:33Z</time></trkpt><trkpt lat="37.47319652986394" lon="14.36019639438593"><ele>781.0</ele><time>2026-05-03T07:24:34Z</time></trkpt><trkpt lat="37.47323897976463" lon="14.36031852286698"><ele>781.0</ele><time>2026-05-03T07:24:35Z</time></trkpt><trkpt lat="37.47326902877388" lon="14.360442256492739"><ele>781.0</ele><time>2026-05-03T07:24:36Z</time></trkpt><trkpt lat="37.47331169752783" lon="14.360563297135498"><ele>781.0</ele><time>2026-05-03T07:24:37Z</time></trkpt><trkpt lat="37.473353309438195" lon="14.360679804110934"><ele>781.0</ele><time>2026-05-03T07:24:38Z</time></trkpt><trkpt lat="37.47338562027712" lon="14.360794412248104"><ele>782.4</ele><time>2026-05-03T07:24:39Z</time></trkpt><trkpt lat="37.47342388633831" lon="14.360903693096779"><ele>783.8</ele><time>2026-05-03T07:24:40Z</time></trkpt><trkpt lat="37.47345365341994" lon="14.361008970579826"><ele>785.1999999999999</ele><time>2026-05-03T07:24:41Z</time></trkpt><trkpt lat="37.47348316884806" lon="14.361127063745924"><ele>786.5999999999999</ele><time>2026-05-03T07:24:42Z</time></trkpt><trkpt lat="37.473513154147085" lon="14.361223529800183"><ele>788.0</ele><time>2026-05-03T07:24:43Z</time></trkpt><trkpt lat="37.47353675024474" lon="14.36134734050998"><ele>790.2</ele><time>2026-05-03T07:24:44Z</time></trkpt><trkpt lat="37.4735664633941" lon="14.361454854613639"><ele>792.4</ele><time>2026-05-03T07:24:45Z</time></trkpt><trkpt lat="37.473601794345825" lon="14.361577209113957"><ele>794.6</ele><time>2026-05-03T07:24:46Z</time></trkpt><trkpt lat="37.47365076939053" lon="14.361692865102953"><ele>796.8000000000001</ele><time>2026-05-03T07:24:47Z</time></trkpt><trkpt lat="37.473704036317955" lon="14.361802457713733"><ele>799.0</ele><time>2026-05-03T07:24:48Z</time></trkpt><trkpt lat="37.47376039141406" lon="14.361907370325836"><ele>800.4999999999999</ele><time>2026-05-03T07:24:49Z</time></trkpt><trkpt lat="37.473812966083216" lon="14.36200447281254"><ele>802.0</ele><time>2026-05-03T07:24:50Z</time></trkpt><trkpt lat="37.47384698080318" lon="14.362086164767641"><ele>803.5</ele><time>2026-05-03T07:24:51Z</time></trkpt><trkpt lat="37.473937686737806" lon="14.3621134627005"><ele>805.0</ele><time>2026-05-03T07:24:53Z</time></trkpt><trkpt lat="37.47398969274734" lon="14.362047796817192"><ele>806.4999999999999</ele><time>2026-05-03T07:24:54Z</time></trkpt><trkpt lat="37.474062220304404" lon="14.36195971938679"><ele>808.0</ele><time>2026-05-03T07:24:55Z</time></trkpt><trkpt lat="37.47413101745194" lon="14.36190130329547"><ele>808.0</ele><time>2026-05-03T07:24:56Z</time></trkpt><trkpt lat="37.474114709607186" lon="14.361981886506735"><ele>808.0</ele><time>2026-05-03T07:25:01Z</time></trkpt><trkpt lat="37.474042560083646" lon="14.36201288723811"><ele>808.0</ele><time>2026-05-03T07:25:02Z</time></trkpt><trkpt lat="37.47392319844506" lon="14.362131055494988"><ele>808.0</ele><time>2026-05-03T07:25:04Z</time></trkpt><trkpt lat="37.4738385815525" lon="14.36223744380469"><ele>808.0</ele><time>2026-05-03T07:25:05Z</time></trkpt><trkpt lat="37.473770154270255" lon="14.36231237768857"><ele>808.4999999999999</ele><time>2026-05-03T07:25:06Z</time></trkpt><trkpt lat="37.47370512973742" lon="14.362345238221298"><ele>809.0</ele><time>2026-05-03T07:25:07Z</time></trkpt><trkpt lat="37.47364345857402" lon="14.362322959581544"><ele>809.5</ele><time>2026-05-03T07:25:08Z</time></trkpt><trkpt lat="37.47355103834425" lon="14.362314577987018"><ele>810.0</ele><time>2026-05-03T07:25:09Z</time></trkpt><trkpt lat="37.47348574894523" lon="14.362352244363686"><ele>810.4999999999999</ele><time>2026-05-03T07:25:10Z</time></trkpt><trkpt lat="37.473440168895586" lon="14.36241873333321"><ele>811.0</ele><time>2026-05-03T07:25:11Z</time></trkpt><trkpt lat="37.47340387692198" lon="14.362551387436598"><ele>811.0</ele><time>2026-05-03T07:25:13Z</time></trkpt><trkpt lat="37.473425515071185" lon="14.362663748569465"><ele>811.0</ele><time>2026-05-03T07:25:14Z</time></trkpt><trkpt lat="37.473433743785954" lon="14.362801957354444"><ele>811.0</ele><time>2026-05-03T07:25:15Z</time></trkpt><trkpt lat="37.47342108108013" lon="14.36292277095933"><ele>811.0</ele><time>2026-05-03T07:25:16Z</time></trkpt><trkpt lat="37.47338401997524" lon="14.363032388874025"><ele>811.0</ele><time>2026-05-03T07:25:17Z</time></trkpt><trkpt lat="37.47334539375534" lon="14.363144659689924"><ele>812.0</ele><time>2026-05-03T07:25:18Z</time></trkpt><trkpt lat="37.47332104037814" lon="14.363270837645612"><ele>813.0</ele><time>2026-05-03T07:25:19Z</time></trkpt><trkpt lat="37.47331249038662" lon="14.363424410713387"><ele>814.0</ele><time>2026-05-03T07:25:20Z</time></trkpt><trkpt lat="37.47330696008765" lon="14.363552265214958"><ele>815.0</ele><time>2026-05-03T07:25:21Z</time></trkpt><trkpt lat="37.47329131369143" lon="14.363690094703037"><ele>816.0</ele><time>2026-05-03T07:25:22Z</time></trkpt><trkpt lat="37.47327296743754" lon="14.363814585594671"><ele>815.3333333333334</ele><time>2026-05-03T07:25:23Z</time></trkpt><trkpt lat="37.47324130978558" lon="14.363914617910298"><ele>814.6666666666667</ele><time>2026-05-03T07:25:24Z</time></trkpt><trkpt lat="37.473192241006856" lon="14.363997741886559"><ele>814.0</ele><time>2026-05-03T07:25:25Z</time></trkpt><trkpt lat="37.47315116108191" lon="14.364082261955534"><ele>813.3333333333334</ele><time>2026-05-03T07:25:26Z</time></trkpt><trkpt lat="37.47313103621117" lon="14.364180167285317"><ele>812.6666666666667</ele><time>2026-05-03T07:25:27Z</time></trkpt><trkpt lat="37.47310187025253" lon="14.36427908819867"><ele>812.0</ele><time>2026-05-03T07:25:28Z</time></trkpt><trkpt lat="37.47307064790232" lon="14.364370426577704"><ele>812.0</ele><time>2026-05-03T07:25:29Z</time></trkpt><trkpt lat="37.47304034920114" lon="14.364449398008647"><ele>812.0</ele><time>2026-05-03T07:25:30Z</time></trkpt><trkpt lat="37.47301329143589" lon="14.36454139085801"><ele>812.0</ele><time>2026-05-03T07:25:31Z</time></trkpt><trkpt lat="37.4729958111495" lon="14.364626622261202"><ele>812.0</ele><time>2026-05-03T07:25:32Z</time></trkpt><trkpt lat="37.47298378883379" lon="14.36470580420288"><ele>812.0</ele><time>2026-05-03T07:25:33Z</time></trkpt><trkpt lat="37.472964566643284" lon="14.364794369433382"><ele>812.0</ele><time>2026-05-03T07:25:34Z</time></trkpt><trkpt lat="37.47294994637823" lon="14.3648875977247"><ele>812.0</ele><time>2026-05-03T07:25:35Z</time></trkpt><trkpt lat="37.47294051293122" lon="14.364979681673418"><ele>811.3333333333334</ele><time>2026-05-03T07:25:36Z</time></trkpt><trkpt lat="37.47291976561401" lon="14.365078017468093"><ele>810.6666666666667</ele><time>2026-05-03T07:25:37Z</time></trkpt><trkpt lat="37.47289298425042" lon="14.365178954994308"><ele>810.0</ele><time>2026-05-03T07:25:38Z</time></trkpt><trkpt lat="37.47286576694259" lon="14.365272777822536"><ele>809.3333333333333</ele><time>2026-05-03T07:25:39Z</time></trkpt><trkpt lat="37.47285162708572" lon="14.365372191051383"><ele>808.6666666666666</ele><time>2026-05-03T07:25:40Z</time></trkpt><trkpt lat="37.47283150208681" lon="14.365471130706636"><ele>808.0</ele><time>2026-05-03T07:25:41Z</time></trkpt><trkpt lat="37.47281010439734" lon="14.3655603984872"><ele>806.8333333333333</ele><time>2026-05-03T07:25:42Z</time></trkpt><trkpt lat="37.47278279828922" lon="14.365642183514097"><ele>805.6666666666666</ele><time>2026-05-03T07:25:43Z</time></trkpt><trkpt lat="37.47276056663163" lon="14.365721643513051"><ele>804.5</ele><time>2026-05-03T07:25:44Z</time></trkpt><trkpt lat="37.47272030739342" lon="14.365849169326445"><ele>803.3333333333333</ele><time>2026-05-03T07:25:46Z</time></trkpt><trkpt lat="37.4726927376711" lon="14.365929507741692"><ele>802.1666666666666</ele><time>2026-05-03T07:25:47Z</time></trkpt><trkpt lat="37.472650162602655" lon="14.366010326128237"><ele>801.0</ele><time>2026-05-03T07:25:48Z</time></trkpt><trkpt lat="37.47261126421619" lon="14.366098713638223"><ele>801.0</ele><time>2026-05-03T07:25:49Z</time></trkpt><trkpt lat="37.47259109618132" lon="14.366186907627938"><ele>801.0</ele><time>2026-05-03T07:25:50Z</time></trkpt><trkpt lat="37.472593271097864" lon="14.366270343958703"><ele>801.0</ele><time>2026-05-03T07:25:51Z</time></trkpt><trkpt lat="37.47258882854437" lon="14.366360399157013"><ele>801.0</ele><time>2026-05-03T07:25:52Z</time></trkpt><trkpt lat="37.47258787260185" lon="14.366445692889481"><ele>801.0</ele><time>2026-05-03T07:25:53Z</time></trkpt><trkpt lat="37.47259383483327" lon="14.366542488187005"><ele>801.0</ele><time>2026-05-03T07:25:54Z</time></trkpt><trkpt lat="37.47260615983188" lon="14.366638650376448"><ele>801.0</ele><time>2026-05-03T07:25:55Z</time></trkpt><trkpt lat="37.472615806158025" lon="14.366742910607906"><ele>801.3333333333334</ele><time>2026-05-03T07:25:56Z</time></trkpt><trkpt lat="37.472614313083355" lon="14.366850637661337"><ele>801.6666666666667</ele><time>2026-05-03T07:25:57Z</time></trkpt><trkpt lat="37.472590087490495" lon="14.366956922367056"><ele>802.0</ele><time>2026-05-03T07:25:58Z</time></trkpt><trkpt lat="37.47256863684282" lon="14.367053573408445"><ele>802.3333333333334</ele><time>2026-05-03T07:25:59Z</time></trkpt><trkpt lat="37.4725602129395" lon="14.367169426488104"><ele>802.6666666666667</ele><time>2026-05-03T07:26:00Z</time></trkpt><trkpt lat="37.4725662065109" lon="14.367292932430658"><ele>803.0</ele><time>2026-05-03T07:26:01Z</time></trkpt><trkpt lat="37.47257379773156" lon="14.367434361130966"><ele>803.5000000000001</ele><time>2026-05-03T07:26:02Z</time></trkpt><trkpt lat="37.472569845656125" lon="14.367550953835192"><ele>804.0</ele><time>2026-05-03T07:26:03Z</time></trkpt><trkpt lat="37.47256610037957" lon="14.367646531309422"><ele>804.5</ele><time>2026-05-03T07:26:04Z</time></trkpt><trkpt lat="37.472563183672165" lon="14.367736800037312"><ele>805.0</ele><time>2026-05-03T07:26:05Z</time></trkpt><trkpt lat="37.47254412788303" lon="14.367846163136573"><ele>805.5000000000001</ele><time>2026-05-03T07:26:06Z</time></trkpt><trkpt lat="37.4725268097288" lon="14.367931647767517"><ele>806.0</ele><time>2026-05-03T07:26:07Z</time></trkpt><trkpt lat="37.472506241979346" lon="14.368021085895467"><ele>804.5999999999999</ele><time>2026-05-03T07:26:08Z</time></trkpt><trkpt lat="37.4724715467729" lon="14.368123250764736"><ele>803.2</ele><time>2026-05-03T07:26:09Z</time></trkpt><trkpt lat="37.472425192488544" lon="14.368227000078404"><ele>801.8</ele><time>2026-05-03T07:26:10Z</time></trkpt><trkpt lat="37.4723743949403" lon="14.368337158643373"><ele>800.4000000000001</ele><time>2026-05-03T07:26:11Z</time></trkpt><trkpt lat="37.472318005542995" lon="14.368450453997715"><ele>799.0</ele><time>2026-05-03T07:26:12Z</time></trkpt><trkpt lat="37.47223968631471" lon="14.368594449278117"><ele>799.0</ele><time>2026-05-03T07:26:13Z</time></trkpt><trkpt lat="37.472165730574815" lon="14.368769613457166"><ele>799.0</ele><time>2026-05-03T07:26:14Z</time></trkpt><trkpt lat="37.47211177600227" lon="14.368894638512945"><ele>799.0</ele><time>2026-05-03T07:26:15Z</time></trkpt><trkpt lat="37.47206542727061" lon="14.36900136205924"><ele>799.0</ele><time>2026-05-03T07:26:16Z</time></trkpt><trkpt lat="37.47202522340896" lon="14.36910264511477"><ele>800.4999999999999</ele><time>2026-05-03T07:26:17Z</time></trkpt><trkpt lat="37.471984667678896" lon="14.36920675347745"><ele>802.0</ele><time>2026-05-03T07:26:18Z</time></trkpt><trkpt lat="37.47193970126501" lon="14.369311662723952"><ele>803.5</ele><time>2026-05-03T07:26:19Z</time></trkpt><trkpt lat="37.47191212434035" lon="14.36940242861162"><ele>805.0</ele><time>2026-05-03T07:26:20Z</time></trkpt><trkpt lat="37.47190788324508" lon="14.369492890590823"><ele>806.4999999999999</ele><time>2026-05-03T07:26:21Z</time></trkpt><trkpt lat="37.471919393632454" lon="14.369594220683833"><ele>808.0</ele><time>2026-05-03T07:26:22Z</time></trkpt><trkpt lat="37.47196609927374" lon="14.369808662190497"><ele>809.0</ele><time>2026-05-03T07:26:24Z</time></trkpt><trkpt lat="37.471995294553125" lon="14.369945682563438"><ele>810.0</ele><time>2026-05-03T07:26:25Z</time></trkpt><trkpt lat="37.47201510287819" lon="14.370085161509069"><ele>811.0</ele><time>2026-05-03T07:26:26Z</time></trkpt><trkpt lat="37.47203680701286" lon="14.370219271782815"><ele>812.0</ele><time>2026-05-03T07:26:27Z</time></trkpt><trkpt lat="37.47207592099526" lon="14.370360497550665"><ele>812.0</ele><time>2026-05-03T07:26:28Z</time></trkpt><trkpt lat="37.472115152566076" lon="14.370482193223147"><ele>812.0</ele><time>2026-05-03T07:26:29Z</time></trkpt><trkpt lat="37.47212989939915" lon="14.37060952037462"><ele>812.0</ele><time>2026-05-03T07:26:30Z</time></trkpt><trkpt lat="37.472120213864876" lon="14.370752287933868"><ele>812.0</ele><time>2026-05-03T07:26:31Z</time></trkpt><trkpt lat="37.47211358485812" lon="14.37091153390249"><ele>812.0</ele><time>2026-05-03T07:26:32Z</time></trkpt><trkpt lat="37.47212019696919" lon="14.371044363063147"><ele>812.0</ele><time>2026-05-03T07:26:33Z</time></trkpt><trkpt lat="37.4721348941998" lon="14.371160406072226"><ele>812.0</ele><time>2026-05-03T07:26:34Z</time></trkpt><trkpt lat="37.472159524126376" lon="14.371253554867645"><ele>812.0</ele><time>2026-05-03T07:26:35Z</time></trkpt><trkpt lat="37.47212752195368" lon="14.371409428696838"><ele>812.0</ele><time>2026-05-03T07:26:37Z</time></trkpt><trkpt lat="37.47205734212457" lon="14.371506398287455"><ele>812.0</ele><time>2026-05-03T07:26:38Z</time></trkpt><trkpt lat="37.47197842114703" lon="14.37159052705344"><ele>812.5000000000001</ele><time>2026-05-03T07:26:39Z</time></trkpt><trkpt lat="37.471919307613796" lon="14.37165886732551"><ele>813.0</ele><time>2026-05-03T07:26:40Z</time></trkpt><trkpt lat="37.47186954508761" lon="14.371740984428056"><ele>813.5</ele><time>2026-05-03T07:26:41Z</time></trkpt><trkpt lat="37.4718295196934" lon="14.371818257814665"><ele>814.0</ele><time>2026-05-03T07:26:42Z</time></trkpt><trkpt lat="37.47178454175526" lon="14.371886769222504"><ele>814.5000000000001</ele><time>2026-05-03T07:26:43Z</time></trkpt><trkpt lat="37.47171631070517" lon="14.371987902822898"><ele>815.0</ele><time>2026-05-03T07:26:45Z</time></trkpt><trkpt lat="37.471679850151354" lon="14.37205944968585"><ele>815.0000000000001</ele><time>2026-05-03T07:26:47Z</time></trkpt><trkpt lat="37.47163033309666" lon="14.372150368615422"><ele>815.0</ele><time>2026-05-03T07:26:50Z</time></trkpt><trkpt lat="37.47159495010844" lon="14.372239663213414"><ele>815.0</ele><time>2026-05-03T07:26:52Z</time></trkpt><trkpt lat="37.47156017066801" lon="14.372368543889305"><ele>815.0</ele><time>2026-05-03T07:26:54Z</time></trkpt><trkpt lat="37.47153007029782" lon="14.372450352032239"><ele>815.0000000000001</ele><time>2026-05-03T07:26:55Z</time></trkpt><trkpt lat="37.47149631836722" lon="14.372526023413412"><ele>815.0</ele><time>2026-05-03T07:26:56Z</time></trkpt><trkpt lat="37.47144819807736" lon="14.372651263136731"><ele>814.3333333333334</ele><time>2026-05-03T07:26:58Z</time></trkpt><trkpt lat="37.471401793775584" lon="14.37275681387669"><ele>813.6666666666667</ele><time>2026-05-03T07:27:00Z</time></trkpt><trkpt lat="37.47136789148592" lon="14.372829795546513"><ele>813.0</ele><time>2026-05-03T07:27:01Z</time></trkpt><trkpt lat="37.4713336826027" lon="14.372917447933048"><ele>812.3333333333333</ele><time>2026-05-03T07:27:02Z</time></trkpt><trkpt lat="37.471298255721884" lon="14.37299964191517"><ele>811.6666666666666</ele><time>2026-05-03T07:27:03Z</time></trkpt><trkpt lat="37.47126278647347" lon="14.373080861115492"><ele>811.0</ele><time>2026-05-03T07:27:04Z</time></trkpt><trkpt lat="37.47122172227082" lon="14.373178649830889"><ele>810.9999999999999</ele><time>2026-05-03T07:27:05Z</time></trkpt><trkpt lat="37.47118033146789" lon="14.373275036405772"><ele>811.0</ele><time>2026-05-03T07:27:06Z</time></trkpt><trkpt lat="37.471129910862075" lon="14.373381893256818"><ele>811.0</ele><time>2026-05-03T07:27:07Z</time></trkpt><trkpt lat="37.471078164151244" lon="14.373485698077252"><ele>811.0</ele><time>2026-05-03T07:27:08Z</time></trkpt><trkpt lat="37.47103346359276" lon="14.373577851861251"><ele>810.9999999999999</ele><time>2026-05-03T07:27:09Z</time></trkpt><trkpt lat="37.47099462684717" lon="14.373656499091124"><ele>811.0</ele><time>2026-05-03T07:27:10Z</time></trkpt><trkpt lat="37.47097150177943" lon="14.373732845123468"><ele>811.0</ele><time>2026-05-03T07:27:11Z</time></trkpt><trkpt lat="37.47092395692686" lon="14.37388048450528"><ele>811.0</ele><time>2026-05-03T07:27:13Z</time></trkpt><trkpt lat="37.47088828993158" lon="14.37396246586066"><ele>811.0</ele><time>2026-05-03T07:27:14Z</time></trkpt><trkpt lat="37.470815279928395" lon="14.37409393529177"><ele>811.0</ele><time>2026-05-03T07:27:16Z</time></trkpt><trkpt lat="37.47075689379901" lon="14.374150865536942"><ele>811.0</ele><time>2026-05-03T07:27:17Z</time></trkpt><trkpt lat="37.470692430705604" lon="14.374201638298047"><ele>810.9999999999999</ele><time>2026-05-03T07:27:18Z</time></trkpt><trkpt lat="37.47062874678668" lon="14.374218881885852"><ele>811.0</ele><time>2026-05-03T07:27:19Z</time></trkpt><trkpt lat="37.470556558123306" lon="14.374253579815672"><ele>811.0</ele><time>2026-05-03T07:27:21Z</time></trkpt><trkpt lat="37.470492020340885" lon="14.374305166860523"><ele>811.0</ele><time>2026-05-03T07:27:23Z</time></trkpt><trkpt lat="37.47041010381891" lon="14.37428627421816"><ele>810.9999999999999</ele><time>2026-05-03T07:27:25Z</time></trkpt><trkpt lat="37.47034014404901" lon="14.374197128317855"><ele>811.0</ele><time>2026-05-03T07:27:27Z</time></trkpt><trkpt lat="37.47023961758599" lon="14.374064843949894"><ele>809.1999999999999</ele><time>2026-05-03T07:27:29Z</time></trkpt><trkpt lat="37.47019417596822" lon="14.37399614066969"><ele>807.4</ele><time>2026-05-03T07:27:30Z</time></trkpt><trkpt lat="37.470104138053735" lon="14.373993321785317"><ele>805.6</ele><time>2026-05-03T07:27:32Z</time></trkpt><trkpt lat="37.469999729949606" lon="14.374032736975662"><ele>803.8</ele><time>2026-05-03T07:27:34Z</time></trkpt><trkpt lat="37.46987396444601" lon="14.37401327942702"><ele>802.0</ele><time>2026-05-03T07:27:36Z</time></trkpt><trkpt lat="37.469805519564915" lon="14.373996797461409"><ele>802.0</ele><time>2026-05-03T07:27:37Z</time></trkpt><trkpt lat="37.46968738851817" lon="14.373973871336494"><ele>802.0</ele><time>2026-05-03T07:27:39Z</time></trkpt><trkpt lat="37.469569072191625" lon="14.373961240767366"><ele>802.0</ele><time>2026-05-03T07:27:41Z</time></trkpt><trkpt lat="37.469501417358714" lon="14.373951399067687"><ele>802.0</ele><time>2026-05-03T07:27:42Z</time></trkpt><trkpt lat="37.46939694074583" lon="14.37393581896966"><ele>802.0</ele><time>2026-05-03T07:27:44Z</time></trkpt><trkpt lat="37.46932126113593" lon="14.373934059614912"><ele>800.8333333333333</ele><time>2026-05-03T07:27:47Z</time></trkpt><trkpt lat="37.46925112437839" lon="14.373958309201845"><ele>799.6666666666666</ele><time>2026-05-03T07:27:51Z</time></trkpt><trkpt lat="37.46919920686037" lon="14.374098977297276"><ele>798.5</ele><time>2026-05-03T07:27:53Z</time></trkpt><trkpt lat="37.46917490550462" lon="14.374196966063812"><ele>797.3333333333333</ele><time>2026-05-03T07:27:54Z</time></trkpt><trkpt lat="37.46915153878774" lon="14.374291686844819"><ele>796.1666666666666</ele><time>2026-05-03T07:27:55Z</time></trkpt><trkpt lat="37.46913464724249" lon="14.374370299912231"><ele>795.0</ele><time>2026-05-03T07:27:56Z</time></trkpt><trkpt lat="37.46924670780021" lon="14.374498710295693"><ele>795.0</ele><time>2026-05-03T07:27:57Z</time></trkpt><trkpt lat="37.469226402453586" lon="14.374583556539363"><ele>795.0</ele><time>2026-05-03T07:27:58Z</time></trkpt><trkpt lat="37.469196182638406" lon="14.374706640061646"><ele>795.0</ele><time>2026-05-03T07:28:00Z</time></trkpt><trkpt lat="37.46916605837701" lon="14.374821057598828"><ele>795.0</ele><time>2026-05-03T07:28:02Z</time></trkpt><trkpt lat="37.46913144669376" lon="14.3749648525983"><ele>795.0</ele><time>2026-05-03T07:28:04Z</time></trkpt><trkpt lat="37.46911608932675" lon="14.375050605637663"><ele>794.5</ele><time>2026-05-03T07:28:05Z</time></trkpt><trkpt lat="37.469102700109275" lon="14.375130409911533"><ele>794.0</ele><time>2026-05-03T07:28:06Z</time></trkpt><trkpt lat="37.46908969779933" lon="14.375263653376722"><ele>793.5</ele><time>2026-05-03T07:28:08Z</time></trkpt><trkpt lat="37.46908339706508" lon="14.375393836449812"><ele>793.0</ele><time>2026-05-03T07:28:10Z</time></trkpt><trkpt lat="37.469082661895335" lon="14.375474504625979"><ele>792.5</ele><time>2026-05-03T07:28:11Z</time></trkpt><trkpt lat="37.46908385420058" lon="14.375570558353594"><ele>792.0</ele><time>2026-05-03T07:28:12Z</time></trkpt><trkpt lat="37.46908555964709" lon="14.375655293815251"><ele>792.0</ele><time>2026-05-03T07:28:13Z</time></trkpt><trkpt lat="37.46908729928211" lon="14.375741727944213"><ele>792.0</ele><time>2026-05-03T07:28:14Z</time></trkpt><trkpt lat="37.46908996869652" lon="14.375828617352399"><ele>792.0</ele><time>2026-05-03T07:28:15Z</time></trkpt><trkpt lat="37.46909298025761" lon="14.375913452403946"><ele>792.0</ele><time>2026-05-03T07:28:16Z</time></trkpt><trkpt lat="37.46909591728922" lon="14.375996188053076"><ele>792.0</ele><time>2026-05-03T07:28:17Z</time></trkpt><trkpt lat="37.46909909978365" lon="14.376085838325503"><ele>792.0</ele><time>2026-05-03T07:28:18Z</time></trkpt><trkpt lat="37.4691020884518" lon="14.376170028558404"><ele>792.0</ele><time>2026-05-03T07:28:19Z</time></trkpt><trkpt lat="37.46910497099118" lon="14.376255930133148"><ele>792.0</ele><time>2026-05-03T07:28:20Z</time></trkpt><trkpt lat="37.46910772563386" lon="14.376344115460874"><ele>792.0</ele><time>2026-05-03T07:28:21Z</time></trkpt><trkpt lat="37.46911042602171" lon="14.376430563953528"><ele>792.0</ele><time>2026-05-03T07:28:22Z</time></trkpt><trkpt lat="37.46911123336059" lon="14.3765245619573"><ele>792.0</ele><time>2026-05-03T07:28:23Z</time></trkpt><trkpt lat="37.46911079457474" lon="14.376610786290419"><ele>792.0</ele><time>2026-05-03T07:28:24Z</time></trkpt><trkpt lat="37.46910995909304" lon="14.376693388354328"><ele>792.0</ele><time>2026-05-03T07:28:25Z</time></trkpt><trkpt lat="37.469107893939686" lon="14.376776510778974"><ele>792.0</ele><time>2026-05-03T07:28:26Z</time></trkpt><trkpt lat="37.469103655209175" lon="14.376857930171187"><ele>791.8</ele><time>2026-05-03T07:28:27Z</time></trkpt><trkpt lat="37.469085402467854" lon="14.376993551879071"><ele>791.6</ele><time>2026-05-03T07:28:29Z</time></trkpt><trkpt lat="37.46905582509425" lon="14.377124272259064"><ele>791.4</ele><time>2026-05-03T07:28:31Z</time></trkpt><trkpt lat="37.46900058452288" lon="14.37724203892499"><ele>791.1999999999999</ele><time>2026-05-03T07:28:33Z</time></trkpt><trkpt lat="37.46898668815358" lon="14.377350608991843"><ele>791.0</ele><time>2026-05-03T07:28:35Z</time></trkpt><trkpt lat="37.46898088062641" lon="14.377438817927933"><ele>791.0000000000001</ele><time>2026-05-03T07:28:38Z</time></trkpt><trkpt lat="37.468950182224056" lon="14.37755631624721"><ele>791.0</ele><time>2026-05-03T07:29:11Z</time></trkpt><trkpt lat="37.46892851957976" lon="14.37765606227456"><ele>791.0</ele><time>2026-05-03T07:29:12Z</time></trkpt><trkpt lat="37.46890523306238" lon="14.377754121274888"><ele>791.0</ele><time>2026-05-03T07:29:13Z</time></trkpt><trkpt lat="37.46886918484782" lon="14.377845593988757"><ele>791.0000000000001</ele><time>2026-05-03T07:29:14Z</time></trkpt><trkpt lat="37.4688226441468" lon="14.377936568957777"><ele>791.0</ele><time>2026-05-03T07:29:15Z</time></trkpt><trkpt lat="37.46879055979546" lon="14.378044273789577"><ele>790.8</ele><time>2026-05-03T07:29:16Z</time></trkpt><trkpt lat="37.46876790676213" lon="14.378146038924251"><ele>790.5999999999999</ele><time>2026-05-03T07:29:17Z</time></trkpt><trkpt lat="37.46875938163527" lon="14.378235810869707"><ele>790.4</ele><time>2026-05-03T07:29:18Z</time></trkpt><trkpt lat="37.468765395736796" lon="14.378348242851365"><ele>790.2</ele><time>2026-05-03T07:29:19Z</time></trkpt><trkpt lat="37.468778055601085" lon="14.378448091123891"><ele>790.0</ele><time>2026-05-03T07:29:20Z</time></trkpt><trkpt lat="37.46895344320617" lon="14.3785273653561"><ele>789.9999999999999</ele><time>2026-05-03T07:29:21Z</time></trkpt><trkpt lat="37.46896581924814" lon="14.378616497547677"><ele>790.0</ele><time>2026-05-03T07:29:22Z</time></trkpt><trkpt lat="37.468987330201855" lon="14.378702834953913"><ele>790.0</ele><time>2026-05-03T07:29:23Z</time></trkpt><trkpt lat="37.4690396313075" lon="14.378849417856733"><ele>790.0</ele><time>2026-05-03T07:29:25Z</time></trkpt><trkpt lat="37.4690693048285" lon="14.378940839928827"><ele>789.9999999999999</ele><time>2026-05-03T07:29:26Z</time></trkpt><trkpt lat="37.46909783252684" lon="14.379028731792681"><ele>790.0</ele><time>2026-05-03T07:29:27Z</time></trkpt><trkpt lat="37.469124197027774" lon="14.379109958996242"><ele>789.0</ele><time>2026-05-03T07:29:28Z</time></trkpt><trkpt lat="37.468961081256616" lon="14.379281210435959"><ele>788.0</ele><time>2026-05-03T07:29:29Z</time></trkpt><trkpt lat="37.468993328980396" lon="14.379359047739253"><ele>787.0</ele><time>2026-05-03T07:29:30Z</time></trkpt><trkpt lat="37.46901038851528" lon="14.379505641100932"><ele>786.0</ele><time>2026-05-03T07:29:32Z</time></trkpt><trkpt lat="37.46898236392881" lon="14.379589678420357"><ele>786.0</ele><time>2026-05-03T07:29:33Z</time></trkpt><trkpt lat="37.46894027865454" lon="14.379671618814625"><ele>786.0</ele><time>2026-05-03T07:29:34Z</time></trkpt><trkpt lat="37.46890687168127" lon="14.379758833839551"><ele>786.0</ele><time>2026-05-03T07:29:35Z</time></trkpt><trkpt lat="37.468877399413195" lon="14.379846181689778"><ele>786.0</ele><time>2026-05-03T07:29:36Z</time></trkpt><trkpt lat="37.46884978045014" lon="14.379941225798293"><ele>786.0</ele><time>2026-05-03T07:29:37Z</time></trkpt><trkpt lat="37.46883361075529" lon="14.380050563943016"><ele>786.0</ele><time>2026-05-03T07:29:38Z</time></trkpt><trkpt lat="37.46883260260554" lon="14.380143456381537"><ele>786.1666666666666</ele><time>2026-05-03T07:29:39Z</time></trkpt><trkpt lat="37.46883747591576" lon="14.380245850154937"><ele>786.3333333333333</ele><time>2026-05-03T07:29:40Z</time></trkpt><trkpt lat="37.46885306123536" lon="14.380342403928065"><ele>786.5</ele><time>2026-05-03T07:29:41Z</time></trkpt><trkpt lat="37.46885988900654" lon="14.380438743349684"><ele>786.6666666666666</ele><time>2026-05-03T07:29:42Z</time></trkpt><trkpt lat="37.468861768701416" lon="14.380545495628608"><ele>786.8333333333333</ele><time>2026-05-03T07:29:43Z</time></trkpt><trkpt lat="37.46888236209626" lon="14.380654831712748"><ele>787.0</ele><time>2026-05-03T07:29:44Z</time></trkpt><trkpt lat="37.46890214093024" lon="14.380761807764594"><ele>787.4999999999999</ele><time>2026-05-03T07:29:45Z</time></trkpt><trkpt lat="37.468911974716114" lon="14.380882661596738"><ele>788.0</ele><time>2026-05-03T07:29:46Z</time></trkpt><trkpt lat="37.46892152035064" lon="14.380990803952812"><ele>788.5</ele><time>2026-05-03T07:29:47Z</time></trkpt><trkpt lat="37.468919951527475" lon="14.38110510219759"><ele>789.0</ele><time>2026-05-03T07:29:48Z</time></trkpt><trkpt lat="37.46889440813724" lon="14.381211100672218"><ele>789.4999999999999</ele><time>2026-05-03T07:29:49Z</time></trkpt><trkpt lat="37.468851479259186" lon="14.381300336524568"><ele>790.0</ele><time>2026-05-03T07:29:50Z</time></trkpt><trkpt lat="37.46880646008992" lon="14.381378185134443"><ele>789.9999999999999</ele><time>2026-05-03T07:29:51Z</time></trkpt><trkpt lat="37.46875726398713" lon="14.381457855447904"><ele>790.0</ele><time>2026-05-03T07:29:52Z</time></trkpt><trkpt lat="37.46871144528042" lon="14.38152982782105"><ele>790.0</ele><time>2026-05-03T07:29:53Z</time></trkpt><trkpt lat="37.46868116468955" lon="14.381614299079446"><ele>790.0</ele><time>2026-05-03T07:29:54Z</time></trkpt><trkpt lat="37.46867424377868" lon="14.381715117815942"><ele>789.9999999999999</ele><time>2026-05-03T07:29:55Z</time></trkpt><trkpt lat="37.46867595956471" lon="14.381814016116834"><ele>790.0</ele><time>2026-05-03T07:29:56Z</time></trkpt><trkpt lat="37.468655398584794" lon="14.381915466281617"><ele>789.9999999999999</ele><time>2026-05-03T07:29:57Z</time></trkpt><trkpt lat="37.468635762539115" lon="14.38201588481839"><ele>790.0</ele><time>2026-05-03T07:29:58Z</time></trkpt><trkpt lat="37.46861522799468" lon="14.382115316055847"><ele>790.0</ele><time>2026-05-03T07:29:59Z</time></trkpt><trkpt lat="37.46859198056535" lon="14.382225358582655"><ele>790.0</ele><time>2026-05-03T07:30:00Z</time></trkpt><trkpt lat="37.46857232218957" lon="14.382335724313469"><ele>789.9999999999999</ele><time>2026-05-03T07:30:01Z</time></trkpt><trkpt lat="37.46855486572315" lon="14.382444340939312"><ele>790.0</ele><time>2026-05-03T07:30:02Z</time></trkpt><trkpt lat="37.468533288372726" lon="14.382547645819166"><ele>790.4999999999999</ele><time>2026-05-03T07:30:03Z</time></trkpt><trkpt lat="37.46850637126906" lon="14.382651696645995"><ele>791.0</ele><time>2026-05-03T07:30:04Z</time></trkpt><trkpt lat="37.46848694998975" lon="14.382740882298858"><ele>791.5</ele><time>2026-05-03T07:30:05Z</time></trkpt><trkpt lat="37.468467601000945" lon="14.382833734145551"><ele>792.0</ele><time>2026-05-03T07:30:06Z</time></trkpt><trkpt lat="37.46844716106298" lon="14.382917611788164"><ele>792.4999999999999</ele><time>2026-05-03T07:30:08Z</time></trkpt><trkpt lat="37.468504031124056" lon="14.382999444112393"><ele>793.0</ele><time>2026-05-03T07:30:12Z</time></trkpt><trkpt lat="37.46854799469642" lon="14.383099432308923"><ele>794.1666666666666</ele><time>2026-05-03T07:30:14Z</time></trkpt><trkpt lat="37.468606754749096" lon="14.38316175103218"><ele>795.3333333333333</ele><time>2026-05-03T07:30:16Z</time></trkpt><trkpt lat="37.46855863864179" lon="14.383218730482717"><ele>796.5</ele><time>2026-05-03T07:30:19Z</time></trkpt><trkpt lat="37.46851305100366" lon="14.383277746626398"><ele>797.6666666666667</ele><time>2026-05-03T07:30:21Z</time></trkpt><trkpt lat="37.46847646601481" lon="14.383400497960158"><ele>798.8333333333334</ele><time>2026-05-03T07:30:23Z</time></trkpt><trkpt lat="37.46842389107954" lon="14.38352307154094"><ele>800.0</ele><time>2026-05-03T07:30:25Z</time></trkpt><trkpt lat="37.468393231746106" lon="14.38363809907194"><ele>800.0000000000001</ele><time>2026-05-03T07:30:27Z</time></trkpt><trkpt lat="37.46835100630201" lon="14.383773540895861"><ele>800.0</ele><time>2026-05-03T07:30:29Z</time></trkpt><trkpt lat="37.4683197065553" lon="14.383911222535046"><ele>800.0</ele><time>2026-05-03T07:30:31Z</time></trkpt><trkpt lat="37.468285699270375" lon="14.383980337217348"><ele>800.0</ele><time>2026-05-03T07:30:32Z</time></trkpt><trkpt lat="37.46824252419314" lon="14.38404458954003"><ele>800.0000000000001</ele><time>2026-05-03T07:30:33Z</time></trkpt><trkpt lat="37.46820638219859" lon="14.384111715422636"><ele>800.0</ele><time>2026-05-03T07:30:34Z</time></trkpt><trkpt lat="37.46816010617987" lon="14.38423478108027"><ele>801.6666666666667</ele><time>2026-05-03T07:30:36Z</time></trkpt><trkpt lat="37.4681393769138" lon="14.384319077045598"><ele>803.3333333333334</ele><time>2026-05-03T07:30:37Z</time></trkpt><trkpt lat="37.46811571933968" lon="14.38439968612119"><ele>805.0</ele><time>2026-05-03T07:30:38Z</time></trkpt><trkpt lat="37.46809235188874" lon="14.384477931196681"><ele>806.6666666666667</ele><time>2026-05-03T07:30:39Z</time></trkpt><trkpt lat="37.46805532480472" lon="14.384623821517488"><ele>808.3333333333334</ele><time>2026-05-03T07:30:41Z</time></trkpt><trkpt lat="37.46803402645578" lon="14.384698609261324"><ele>810.0</ele><time>2026-05-03T07:30:42Z</time></trkpt><trkpt lat="37.46800311359094" lon="14.384767782951341"><ele>810.3333333333334</ele><time>2026-05-03T07:30:43Z</time></trkpt><trkpt lat="37.467965571587726" lon="14.384839877247236"><ele>810.6666666666667</ele><time>2026-05-03T07:30:44Z</time></trkpt><trkpt lat="37.46790332057008" lon="14.384978196471048"><ele>811.0</ele><time>2026-05-03T07:30:46Z</time></trkpt><trkpt lat="37.467877269983454" lon="14.38508906032703"><ele>811.3333333333334</ele><time>2026-05-03T07:30:48Z</time></trkpt><trkpt lat="37.46782658657732" lon="14.385164424480262"><ele>811.6666666666667</ele><time>2026-05-03T07:30:50Z</time></trkpt><trkpt lat="37.467798855641455" lon="14.38524837622602"><ele>812.0</ele><time>2026-05-03T07:30:52Z</time></trkpt><trkpt lat="37.46775759822433" lon="14.38531532946848"><ele>812.0000000000001</ele><time>2026-05-03T07:30:54Z</time></trkpt><trkpt lat="37.4677376032622" lon="14.38540853397899"><ele>812.0</ele><time>2026-05-03T07:30:56Z</time></trkpt><trkpt lat="37.46768731604987" lon="14.385483000589304"><ele>812.0</ele><time>2026-05-03T07:30:58Z</time></trkpt><trkpt lat="37.46763727802457" lon="14.38555196338599"><ele>812.0</ele><time>2026-05-03T07:31:00Z</time></trkpt><trkpt lat="37.46757030833687" lon="14.38564972743037"><ele>812.0000000000001</ele><time>2026-05-03T07:31:03Z</time></trkpt><trkpt lat="37.4675358267651" lon="14.38575673566988"><ele>812.0</ele><time>2026-05-03T07:31:05Z</time></trkpt><trkpt lat="37.467483890223555" lon="14.385835726707821"><ele>816.4000000000001</ele><time>2026-05-03T07:31:07Z</time></trkpt><trkpt lat="37.467427938303686" lon="14.385947537970921"><ele>820.8000000000001</ele><time>2026-05-03T07:31:09Z</time></trkpt><trkpt lat="37.46734745208405" lon="14.386051344455186"><ele>825.2</ele><time>2026-05-03T07:31:11Z</time></trkpt><trkpt lat="37.46728619210774" lon="14.386129231335612"><ele>829.6</ele><time>2026-05-03T07:31:13Z</time></trkpt><trkpt lat="37.46722709998651" lon="14.386225809906184"><ele>834.0</ele><time>2026-05-03T07:31:16Z</time></trkpt><trkpt lat="37.46717998004301" lon="14.386309448997629"><ele>834.3333333333334</ele><time>2026-05-03T07:31:18Z</time></trkpt><trkpt lat="37.467150404313834" lon="14.386414991661354"><ele>834.6666666666667</ele><time>2026-05-03T07:31:21Z</time></trkpt><trkpt lat="37.46710222563848" lon="14.386494423742828"><ele>835.0</ele><time>2026-05-03T07:31:24Z</time></trkpt><trkpt lat="37.467069411259864" lon="14.386580024078285"><ele>835.3333333333334</ele><time>2026-05-03T07:31:26Z</time></trkpt><trkpt lat="37.46702312200563" lon="14.38667851945078"><ele>835.6666666666667</ele><time>2026-05-03T07:31:28Z</time></trkpt><trkpt lat="37.46697709936144" lon="14.386769230358635"><ele>836.0</ele><time>2026-05-03T07:31:31Z</time></trkpt><trkpt lat="37.46693801009223" lon="14.386855369996175"><ele>836.0</ele><time>2026-05-03T07:31:33Z</time></trkpt><trkpt lat="37.46687111761108" lon="14.38691618612465"><ele>836.0</ele><time>2026-05-03T07:31:35Z</time></trkpt><trkpt lat="37.46682571760017" lon="14.386985758947805"><ele>836.0</ele><time>2026-05-03T07:32:13Z</time></trkpt><trkpt lat="37.46678383944576" lon="14.387061970881806"><ele>836.0</ele><time>2026-05-03T07:32:16Z</time></trkpt><trkpt lat="37.46675008929731" lon="14.387136816148834"><ele>836.0</ele><time>2026-05-03T07:32:18Z</time></trkpt><trkpt lat="37.466719869481864" lon="14.38721460795303"><ele>836.0</ele><time>2026-05-03T07:32:20Z</time></trkpt><trkpt lat="37.46668581698195" lon="14.38728987668475"><ele>836.0</ele><time>2026-05-03T07:32:22Z</time></trkpt><trkpt lat="37.46665786338896" lon="14.387390019490477"><ele>838.8333333333334</ele><time>2026-05-03T07:32:25Z</time></trkpt><trkpt lat="37.46662020613294" lon="14.387497082216273"><ele>841.6666666666667</ele><time>2026-05-03T07:32:28Z</time></trkpt><trkpt lat="37.46659157621379" lon="14.387601103194859"><ele>844.5</ele><time>2026-05-03T07:32:31Z</time></trkpt><trkpt lat="37.46656007022877" lon="14.387692230620354"><ele>847.3333333333333</ele><time>2026-05-03T07:32:33Z</time></trkpt><trkpt lat="37.46654608928272" lon="14.38778506883801"><ele>850.1666666666666</ele><time>2026-05-03T07:32:35Z</time></trkpt><trkpt lat="37.466530277667175" lon="14.387865429403504"><ele>853.0</ele><time>2026-05-03T07:32:37Z</time></trkpt><trkpt lat="37.46650574255372" lon="14.387949077517966"><ele>855.1666666666666</ele><time>2026-05-03T07:32:39Z</time></trkpt><trkpt lat="37.466478686120446" lon="14.388041874846905"><ele>857.3333333333333</ele><time>2026-05-03T07:32:41Z</time></trkpt><trkpt lat="37.46644546239341" lon="14.388145839202483"><ele>859.5</ele><time>2026-05-03T07:32:43Z</time></trkpt><trkpt lat="37.466421274967075" lon="14.388220644899373"><ele>861.6666666666667</ele><time>2026-05-03T07:32:45Z</time></trkpt><trkpt lat="37.466399705961955" lon="14.388312000350115"><ele>863.8333333333334</ele><time>2026-05-03T07:32:47Z</time></trkpt><trkpt lat="37.466364128758094" lon="14.388386381464631"><ele>866.0</ele><time>2026-05-03T07:32:49Z</time></trkpt><trkpt lat="37.46630175841403" lon="14.388472815795575"><ele>863.0</ele><time>2026-05-03T07:32:57Z</time></trkpt><trkpt lat="37.46625736090105" lon="14.388567233792442"><ele>859.9999999999999</ele><time>2026-05-03T07:32:59Z</time></trkpt><trkpt lat="37.466247070226736" lon="14.388672725188066"><ele>857.0</ele><time>2026-05-03T07:33:01Z</time></trkpt><trkpt lat="37.46624260805435" lon="14.388797240329085"><ele>854.0</ele><time>2026-05-03T07:33:03Z</time></trkpt><trkpt lat="37.466233766719434" lon="14.388925537554806"><ele>851.0</ele><time>2026-05-03T07:33:05Z</time></trkpt><trkpt lat="37.46624597290743" lon="14.389054881629258"><ele>851.0000000000001</ele><time>2026-05-03T07:33:07Z</time></trkpt><trkpt lat="37.466262997180756" lon="14.389182881394358"><ele>851.0</ele><time>2026-05-03T07:33:09Z</time></trkpt><trkpt lat="37.466293845391014" lon="14.389278451633354"><ele>851.0</ele><time>2026-05-03T07:33:11Z</time></trkpt><trkpt lat="37.46630191548912" lon="14.389357378553136"><ele>851.0</ele><time>2026-05-03T07:33:13Z</time></trkpt><trkpt lat="37.46636349314814" lon="14.38945634094354"><ele>851.0000000000001</ele><time>2026-05-03T07:33:30Z</time></trkpt><trkpt lat="37.466345681272095" lon="14.389536177279169"><ele>851.0</ele><time>2026-05-03T07:34:03Z</time></trkpt><trkpt lat="37.46639613703617" lon="14.38959809493486"><ele>852.5000000000001</ele><time>2026-05-03T07:34:07Z</time></trkpt><trkpt lat="37.46647510595097" lon="14.38965464718681"><ele>854.0</ele><time>2026-05-03T07:34:10Z</time></trkpt><trkpt lat="37.466510978714176" lon="14.389758260707039"><ele>855.5</ele><time>2026-05-03T07:34:13Z</time></trkpt><trkpt lat="37.46651705532038" lon="14.38985750533673"><ele>857.0</ele><time>2026-05-03T07:34:16Z</time></trkpt><trkpt lat="37.46655462715335" lon="14.389955386380388"><ele>858.5000000000001</ele><time>2026-05-03T07:34:19Z</time></trkpt><trkpt lat="37.466580564405746" lon="14.390050620411861"><ele>860.0</ele><time>2026-05-03T07:34:22Z</time></trkpt><trkpt lat="37.46660930371366" lon="14.390151048269695"><ele>860.0000000000001</ele><time>2026-05-03T07:34:25Z</time></trkpt><trkpt lat="37.46661641430563" lon="14.390254913040355"><ele>860.0</ele><time>2026-05-03T07:34:28Z</time></trkpt><trkpt lat="37.46661782573585" lon="14.390361811844484"><ele>860.0</ele><time>2026-05-03T07:34:30Z</time></trkpt><trkpt lat="37.46660150782685" lon="14.390455176830919"><ele>860.0</ele><time>2026-05-03T07:34:32Z</time></trkpt><trkpt lat="37.46660209594374" lon="14.390545930994852"><ele>860.0000000000001</ele><time>2026-05-03T07:34:34Z</time></trkpt><trkpt lat="37.46659922514961" lon="14.390647112415442"><ele>860.0</ele><time>2026-05-03T07:34:36Z</time></trkpt><trkpt lat="37.466579276426025" lon="14.39077049231941"><ele>861.0</ele><time>2026-05-03T07:34:38Z</time></trkpt><trkpt lat="37.46657747559335" lon="14.390899789402106"><ele>862.0</ele><time>2026-05-03T07:34:40Z</time></trkpt><trkpt lat="37.466573747159536" lon="14.391022179359233"><ele>863.0</ele><time>2026-05-03T07:34:42Z</time></trkpt><trkpt lat="37.46656289231964" lon="14.391115230333938"><ele>864.0</ele><time>2026-05-03T07:34:44Z</time></trkpt><trkpt lat="37.466551725409964" lon="14.391225171148664"><ele>865.0</ele><time>2026-05-03T07:34:46Z</time></trkpt><trkpt lat="37.466554962539306" lon="14.391339588518479"><ele>865.2</ele><time>2026-05-03T07:34:48Z</time></trkpt><trkpt lat="37.46657421069177" lon="14.391466830444825"><ele>865.4</ele><time>2026-05-03T07:34:50Z</time></trkpt><trkpt lat="37.46655933049517" lon="14.391591046166182"><ele>865.5999999999999</ele><time>2026-05-03T07:34:52Z</time></trkpt><trkpt lat="37.466516855812024" lon="14.391672507592565"><ele>865.8</ele><time>2026-05-03T07:35:17Z</time></trkpt><trkpt lat="37.46646369325374" lon="14.391775447945102"><ele>866.0</ele><time>2026-05-03T07:35:20Z</time></trkpt><trkpt lat="37.46641688588212" lon="14.391868971169515"><ele>866.0000000000001</ele><time>2026-05-03T07:35:22Z</time></trkpt><trkpt lat="37.46638717031527" lon="14.391964555871914"><ele>866.0</ele><time>2026-05-03T07:35:24Z</time></trkpt><trkpt lat="37.4663783015176" lon="14.392059605521787"><ele>866.0</ele><time>2026-05-03T07:35:26Z</time></trkpt><trkpt lat="37.46637381182829" lon="14.392155630592386"><ele>866.0</ele><time>2026-05-03T07:35:28Z</time></trkpt><trkpt lat="37.46635245430546" lon="14.392260120855726"><ele>866.0000000000001</ele><time>2026-05-03T07:35:31Z</time></trkpt><trkpt lat="37.466341158381965" lon="14.392363745119455"><ele>866.0</ele><time>2026-05-03T07:35:33Z</time></trkpt><trkpt lat="37.466332858886815" lon="14.392463914136963"><ele>867.8</ele><time>2026-05-03T07:35:35Z</time></trkpt><trkpt lat="37.46631492984533" lon="14.392588118853276"><ele>869.5999999999999</ele><time>2026-05-03T07:35:38Z</time></trkpt><trkpt lat="37.466302591345034" lon="14.392705210510611"><ele>871.4</ele><time>2026-05-03T07:35:41Z</time></trkpt><trkpt lat="37.46627028234346" lon="14.392810725854883"><ele>873.2</ele><time>2026-05-03T07:35:44Z</time></trkpt><trkpt lat="37.46623071599202" lon="14.392917964235716"><ele>875.0</ele><time>2026-05-03T07:35:47Z</time></trkpt><trkpt lat="37.4662026256264" lon="14.393004708965403"><ele>873.8333333333334</ele><time>2026-05-03T07:35:49Z</time></trkpt><trkpt lat="37.46619881387317" lon="14.393105708832865"><ele>872.6666666666667</ele><time>2026-05-03T07:35:52Z</time></trkpt><trkpt lat="37.46621017298244" lon="14.39319702342316"><ele>871.5</ele><time>2026-05-03T07:35:54Z</time></trkpt><trkpt lat="37.46624136460715" lon="14.393274079708853"><ele>870.3333333333333</ele><time>2026-05-03T07:35:57Z</time></trkpt><trkpt lat="37.46627534210618" lon="14.393367621364009"><ele>869.1666666666666</ele><time>2026-05-03T07:36:00Z</time></trkpt><trkpt lat="37.46634165140219" lon="14.393458722271127"><ele>868.0</ele><time>2026-05-03T07:36:02Z</time></trkpt><trkpt lat="37.466369994331934" lon="14.393567093044249"><ele>867.9999999999999</ele><time>2026-05-03T07:36:04Z</time></trkpt><trkpt lat="37.466332114097234" lon="14.3936637497087"><ele>868.0</ele><time>2026-05-03T07:36:12Z</time></trkpt><trkpt lat="37.46631255181469" lon="14.393775081816232"><ele>868.0</ele><time>2026-05-03T07:36:14Z</time></trkpt><trkpt lat="37.46630605233676" lon="14.39389198031177"><ele>868.0</ele><time>2026-05-03T07:36:16Z</time></trkpt><trkpt lat="37.46628240193606" lon="14.394015462890396"><ele>867.9999999999999</ele><time>2026-05-03T07:36:18Z</time></trkpt><trkpt lat="37.466269990649444" lon="14.39409659966658"><ele>868.0</ele><time>2026-05-03T07:36:19Z</time></trkpt><trkpt lat="37.46623950099051" lon="14.39425317808104"><ele>866.4</ele><time>2026-05-03T07:36:21Z</time></trkpt><trkpt lat="37.46620086757925" lon="14.394383673245652"><ele>864.8</ele><time>2026-05-03T07:36:23Z</time></trkpt><trkpt lat="37.46613795630678" lon="14.39446473395691"><ele>863.2</ele><time>2026-05-03T07:36:24Z</time></trkpt><trkpt lat="37.46615005191287" lon="14.394607927543994"><ele>861.6</ele><time>2026-05-03T07:36:26Z</time></trkpt><trkpt lat="37.46612932914893" lon="14.39471413218087"><ele>860.0</ele><time>2026-05-03T07:36:28Z</time></trkpt><trkpt lat="37.46610869703906" lon="14.394844648953287"><ele>860.0000000000001</ele><time>2026-05-03T07:36:30Z</time></trkpt><trkpt lat="37.4660834803059" lon="14.394955174718207"><ele>860.0</ele><time>2026-05-03T07:36:32Z</time></trkpt><trkpt lat="37.466067938946836" lon="14.39506586555953"><ele>860.0</ele><time>2026-05-03T07:36:34Z</time></trkpt><trkpt lat="37.46607691230121" lon="14.39515630363723"><ele>860.0</ele><time>2026-05-03T07:36:37Z</time></trkpt><trkpt lat="37.46605470797313" lon="14.395246182720234"><ele>860.0000000000001</ele><time>2026-05-03T07:36:39Z</time></trkpt><trkpt lat="37.46600348085531" lon="14.395366034867891"><ele>860.0</ele><time>2026-05-03T07:36:41Z</time></trkpt><trkpt lat="37.46598318625037" lon="14.395492042853414"><ele>860.2</ele><time>2026-05-03T07:36:43Z</time></trkpt><trkpt lat="37.46597403649193" lon="14.3956233380282"><ele>860.4</ele><time>2026-05-03T07:36:45Z</time></trkpt><trkpt lat="37.46596972345634" lon="14.395758215269606"><ele>860.5999999999999</ele><time>2026-05-03T07:36:47Z</time></trkpt><trkpt lat="37.465955096847765" lon="14.395921538705052"><ele>860.8</ele><time>2026-05-03T07:36:49Z</time></trkpt><trkpt lat="37.46593587071416" lon="14.396031958780766"><ele>861.0</ele><time>2026-05-03T07:36:50Z</time></trkpt><trkpt lat="37.4659267014183" lon="14.39613672860746"><ele>861.0</ele><time>2026-05-03T07:36:51Z</time></trkpt><trkpt lat="37.46591804591187" lon="14.396227355914293"><ele>861.0</ele><time>2026-05-03T07:36:52Z</time></trkpt><trkpt lat="37.46591133606988" lon="14.396316664724802"><ele>861.0</ele><time>2026-05-03T07:36:53Z</time></trkpt><trkpt lat="37.46587479694201" lon="14.396477548112252"><ele>861.0</ele><time>2026-05-03T07:36:55Z</time></trkpt><trkpt lat="37.465846802234594" lon="14.396564850718166"><ele>861.0</ele><time>2026-05-03T07:36:56Z</time></trkpt><trkpt lat="37.46582293854038" lon="14.396654394871161"><ele>861.0</ele><time>2026-05-03T07:36:57Z</time></trkpt><trkpt lat="37.465779452061234" lon="14.396790391767999"><ele>863.5</ele><time>2026-05-03T07:36:59Z</time></trkpt><trkpt lat="37.46573530964757" lon="14.396881621473778"><ele>866.0</ele><time>2026-05-03T07:37:02Z</time></trkpt><trkpt lat="37.465693686348075" lon="14.396971697764615"><ele>868.5</ele><time>2026-05-03T07:37:05Z</time></trkpt><trkpt lat="37.46566491074497" lon="14.397049155851276"><ele>871.0</ele><time>2026-05-03T07:37:08Z</time></trkpt><trkpt lat="37.46565047381607" lon="14.39715879759406"><ele>873.5</ele><time>2026-05-03T07:37:10Z</time></trkpt><trkpt lat="37.46559253599609" lon="14.39728643184883"><ele>876.0</ele><time>2026-05-03T07:37:12Z</time></trkpt><trkpt lat="37.46553561483154" lon="14.397382248261152"><ele>874.5999999999999</ele><time>2026-05-03T07:37:14Z</time></trkpt><trkpt lat="37.46543900782072" lon="14.397493589043831"><ele>873.1999999999999</ele><time>2026-05-03T07:37:16Z</time></trkpt><trkpt lat="37.4653836577875" lon="14.397534912051846"><ele>871.8000000000001</ele><time>2026-05-03T07:37:17Z</time></trkpt><trkpt lat="37.46530895608069" lon="14.397605702510024"><ele>870.4000000000001</ele><time>2026-05-03T07:37:19Z</time></trkpt><trkpt lat="37.46519820501608" lon="14.397644278007599"><ele>869.0</ele><time>2026-05-03T07:37:21Z</time></trkpt><trkpt lat="37.46513539833509" lon="14.397650221915976"><ele>869.0000000000001</ele><time>2026-05-03T07:37:22Z</time></trkpt><trkpt lat="37.465060658014586" lon="14.397653150412435"><ele>869.0</ele><time>2026-05-03T07:37:23Z</time></trkpt><trkpt lat="37.464962481446825" lon="14.397651339748037"><ele>869.0</ele><time>2026-05-03T07:37:25Z</time></trkpt><trkpt lat="37.46484596961525" lon="14.397664839776967"><ele>869.0</ele><time>2026-05-03T07:37:28Z</time></trkpt><trkpt lat="37.4647779783824" lon="14.397680890589635"><ele>869.0000000000001</ele><time>2026-05-03T07:37:29Z</time></trkpt><trkpt lat="37.464716347221525" lon="14.397701968305574"><ele>869.0</ele><time>2026-05-03T07:37:30Z</time></trkpt><trkpt lat="37.464619557051655" lon="14.397716218944854"><ele>866.0</ele><time>2026-05-03T07:37:32Z</time></trkpt><trkpt lat="37.46453705367782" lon="14.397708311414608"><ele>863.0000000000001</ele><time>2026-05-03T07:37:34Z</time></trkpt><trkpt lat="37.464444887236475" lon="14.39771526214983"><ele>860.0000000000001</ele><time>2026-05-03T07:37:36Z</time></trkpt><trkpt lat="37.46434748986901" lon="14.397712771083958"><ele>857.0</ele><time>2026-05-03T07:37:38Z</time></trkpt><trkpt lat="37.46422738126565" lon="14.397626618561373"><ele>854.0</ele><time>2026-05-03T07:37:40Z</time></trkpt><trkpt lat="37.46415305903964" lon="14.39759672318501"><ele>854.0</ele><time>2026-05-03T07:37:41Z</time></trkpt><trkpt lat="37.464012060877224" lon="14.39757882824568"><ele>854.0000000000001</ele><time>2026-05-03T07:37:43Z</time></trkpt><trkpt lat="37.46394459513684" lon="14.397576210540056"><ele>854.0000000000001</ele><time>2026-05-03T07:37:44Z</time></trkpt><trkpt lat="37.46382926284723" lon="14.39757471952767"><ele>854.0</ele><time>2026-05-03T07:37:46Z</time></trkpt><trkpt lat="37.46375892660865" lon="14.397571505409934"><ele>854.0</ele><time>2026-05-03T07:37:48Z</time></trkpt><trkpt lat="37.463663410979656" lon="14.397547730348968"><ele>854.8000000000001</ele><time>2026-05-03T07:37:51Z</time></trkpt><trkpt lat="37.463551517312794" lon="14.397528747894855"><ele>855.6000000000001</ele><time>2026-05-03T07:37:53Z</time></trkpt><trkpt lat="37.463493401503854" lon="14.397495694625952"><ele>856.4</ele><time>2026-05-03T07:37:54Z</time></trkpt><trkpt lat="37.463403360076114" lon="14.397442273763323"><ele>857.2</ele><time>2026-05-03T07:37:56Z</time></trkpt><trkpt lat="37.46330107397992" lon="14.397403886227416"><ele>858.0</ele><time>2026-05-03T07:37:58Z</time></trkpt><trkpt lat="37.463237910375994" lon="14.397337499374839"><ele>858.0</ele><time>2026-05-03T07:38:00Z</time></trkpt><trkpt lat="37.463163331655664" lon="14.397304684342135"><ele>858.0</ele><time>2026-05-03T07:38:03Z</time></trkpt><trkpt lat="37.463104316142676" lon="14.39727646875879"><ele>858.0</ele><time>2026-05-03T07:38:31Z</time></trkpt><trkpt lat="37.46306185569165" lon="14.397200115019148"><ele>858.0</ele><time>2026-05-03T07:38:38Z</time></trkpt><trkpt lat="37.462994611879125" lon="14.397108307334658"><ele>858.0</ele><time>2026-05-03T07:38:51Z</time></trkpt><trkpt lat="37.46294691767328" lon="14.397162638701918"><ele>858.0</ele><time>2026-05-03T07:38:56Z</time></trkpt><trkpt lat="37.462882423325006" lon="14.39710230506287"><ele>855.0</ele><time>2026-05-03T07:41:19Z</time></trkpt><trkpt lat="37.46281127772481" lon="14.397035505266215"><ele>852.0</ele><time>2026-05-03T07:41:21Z</time></trkpt><trkpt lat="37.46273004698686" lon="14.3969632387279"><ele>849.0</ele><time>2026-05-03T07:41:23Z</time></trkpt><trkpt lat="37.462668725144965" lon="14.396883357729372"><ele>846.0</ele><time>2026-05-03T07:41:25Z</time></trkpt><trkpt lat="37.462611949925005" lon="14.396817248028619"><ele>843.0</ele><time>2026-05-03T07:41:27Z</time></trkpt><trkpt lat="37.462561153152315" lon="14.39676292910217"><ele>840.0</ele><time>2026-05-03T07:41:29Z</time></trkpt><trkpt lat="37.462481667411375" lon="14.39670436212329"><ele>840.0</ele><time>2026-05-03T07:41:32Z</time></trkpt><trkpt lat="37.46240365186535" lon="14.396657473674683"><ele>840.0</ele><time>2026-05-03T07:41:34Z</time></trkpt><trkpt lat="37.46233139582563" lon="14.396653712637116"><ele>840.0</ele><time>2026-05-03T07:41:37Z</time></trkpt><trkpt lat="37.46227158439977" lon="14.396603817666279"><ele>840.0</ele><time>2026-05-03T07:41:44Z</time></trkpt><trkpt lat="37.46220604841863" lon="14.396539009837038"><ele>840.0</ele><time>2026-05-03T07:41:47Z</time></trkpt><trkpt lat="37.462138437438576" lon="14.396507678169968"><ele>840.0</ele><time>2026-05-03T07:41:49Z</time></trkpt><trkpt lat="37.46206099881299" lon="14.396428988421178"><ele>837.6666666666666</ele><time>2026-05-03T07:41:51Z</time></trkpt><trkpt lat="37.46197861194723" lon="14.396339309305429"><ele>835.3333333333333</ele><time>2026-05-03T07:41:53Z</time></trkpt><trkpt lat="37.46186544819611" lon="14.396292674947938"><ele>833.0</ele><time>2026-05-03T07:41:55Z</time></trkpt><trkpt lat="37.46180173971481" lon="14.396266106953986"><ele>830.6666666666666</ele><time>2026-05-03T07:41:56Z</time></trkpt><trkpt lat="37.46173940505909" lon="14.396248180075169"><ele>828.3333333333333</ele><time>2026-05-03T07:41:57Z</time></trkpt><trkpt lat="37.461674437285566" lon="14.39622785850988"><ele>826.0</ele><time>2026-05-03T07:41:58Z</time></trkpt><trkpt lat="37.46157048480749" lon="14.396189503201127"><ele>825.9999999999999</ele><time>2026-05-03T07:42:00Z</time></trkpt><trkpt lat="37.461512373216024" lon="14.396267522852188"><ele>826.0</ele><time>2026-05-03T07:42:03Z</time></trkpt><trkpt lat="37.46155270849894" lon="14.396328974365618"><ele>826.0</ele><time>2026-05-03T07:42:24Z</time></trkpt><trkpt lat="37.461644051979356" lon="14.396427058055961"><ele>826.0</ele><time>2026-05-03T07:42:28Z</time></trkpt><trkpt lat="37.46169941065104" lon="14.396489606227725"><ele>825.9999999999999</ele><time>2026-05-03T07:42:29Z</time></trkpt><trkpt lat="37.461752107237366" lon="14.396551205349873"><ele>826.0</ele><time>2026-05-03T07:42:30Z</time></trkpt><trkpt lat="37.46184435247151" lon="14.396663798634004"><ele>825.9999999999999</ele><time>2026-05-03T07:42:32Z</time></trkpt><trkpt lat="37.46190531689082" lon="14.396724946028757"><ele>826.0</ele><time>2026-05-03T07:42:33Z</time></trkpt><trkpt lat="37.461955146462756" lon="14.396792477453547"><ele>826.0</ele><time>2026-05-03T07:42:34Z</time></trkpt><trkpt lat="37.46200520324251" lon="14.396866445890906"><ele>826.0</ele><time>2026-05-03T07:42:35Z</time></trkpt><trkpt lat="37.46205756436283" lon="14.39695871127879"><ele>825.9999999999999</ele><time>2026-05-03T07:42:36Z</time></trkpt><trkpt lat="37.462110626183794" lon="14.397057097157548"><ele>826.0</ele><time>2026-05-03T07:42:37Z</time></trkpt><trkpt lat="37.46215805846496" lon="14.397140902264061"><ele>828.1666666666666</ele><time>2026-05-03T07:42:38Z</time></trkpt><trkpt lat="37.46222800427969" lon="14.397266319413484"><ele>830.3333333333333</ele><time>2026-05-03T07:42:40Z</time></trkpt><trkpt lat="37.462253210453184" lon="14.397339268510795"><ele>832.5</ele><time>2026-05-03T07:42:41Z</time></trkpt><trkpt lat="37.46228791859744" lon="14.397407062799616"><ele>834.6666666666667</ele><time>2026-05-03T07:42:42Z</time></trkpt><trkpt lat="37.462340424578585" lon="14.3974690125147"><ele>836.8333333333334</ele><time>2026-05-03T07:42:44Z</time></trkpt><trkpt lat="37.462380459584175" lon="14.397559427154675"><ele>839.0</ele><time>2026-05-03T07:42:46Z</time></trkpt><trkpt lat="37.46240419361033" lon="14.397690314891813"><ele>839.0</ele><time>2026-05-03T07:42:48Z</time></trkpt><trkpt lat="37.462427421855764" lon="14.397819321103063"><ele>839.0</ele><time>2026-05-03T07:42:50Z</time></trkpt><trkpt lat="37.46241314903248" lon="14.397959078611109"><ele>839.0</ele><time>2026-05-03T07:42:52Z</time></trkpt><trkpt lat="37.462394249056274" lon="14.398105713625448"><ele>839.0</ele><time>2026-05-03T07:42:54Z</time></trkpt><trkpt lat="37.462368704878216" lon="14.398215663744582"><ele>839.0</ele><time>2026-05-03T07:42:56Z</time></trkpt><trkpt lat="37.46234737489406" lon="14.398297548449678"><ele>836.6</ele><time>2026-05-03T07:42:59Z</time></trkpt><trkpt lat="37.46235129005918" lon="14.398376747662978"><ele>834.2</ele><time>2026-05-03T07:43:01Z</time></trkpt><trkpt lat="37.46234460976959" lon="14.398466642317885"><ele>831.8000000000001</ele><time>2026-05-03T07:43:02Z</time></trkpt><trkpt lat="37.46232752852463" lon="14.39860360027924"><ele>829.4000000000001</ele><time>2026-05-03T07:43:04Z</time></trkpt><trkpt lat="37.462283757748125" lon="14.398756763007723"><ele>827.0</ele><time>2026-05-03T07:43:06Z</time></trkpt><trkpt lat="37.46225887535188" lon="14.398886416822522"><ele>826.8</ele><time>2026-05-03T07:43:08Z</time></trkpt><trkpt lat="37.462217762821645" lon="14.398998697097703"><ele>826.6</ele><time>2026-05-03T07:43:10Z</time></trkpt><trkpt lat="37.46217496419169" lon="14.399082194644368"><ele>826.4</ele><time>2026-05-03T07:43:12Z</time></trkpt><trkpt lat="37.462152059509364" lon="14.399192959059375"><ele>826.1999999999999</ele><time>2026-05-03T07:43:14Z</time></trkpt><trkpt lat="37.46211104687153" lon="14.399341048465807"><ele>826.0</ele><time>2026-05-03T07:43:16Z</time></trkpt><trkpt lat="37.46205642499076" lon="14.399468062845013"><ele>820.8</ele><time>2026-05-03T07:43:18Z</time></trkpt><trkpt lat="37.461989970064856" lon="14.399563717608052"><ele>815.5999999999999</ele><time>2026-05-03T07:43:20Z</time></trkpt><trkpt lat="37.46193463867763" lon="14.399646839666568"><ele>810.4</ele><time>2026-05-03T07:43:22Z</time></trkpt><trkpt lat="37.46187843564925" lon="14.399731611920869"><ele>805.2</ele><time>2026-05-03T07:43:25Z</time></trkpt><trkpt lat="37.46180361489148" lon="14.399813525194642"><ele>800.0</ele><time>2026-05-03T07:43:28Z</time></trkpt><trkpt lat="37.46176164509612" lon="14.39990089549783"><ele>800.0</ele><time>2026-05-03T07:43:30Z</time></trkpt><trkpt lat="37.461715046498455" lon="14.399983055704475"><ele>800.0</ele><time>2026-05-03T07:43:32Z</time></trkpt><trkpt lat="37.46163677717978" lon="14.400039286439975"><ele>800.0</ele><time>2026-05-03T07:43:34Z</time></trkpt><trkpt lat="37.4615652936572" lon="14.40010074062937"><ele>800.0</ele><time>2026-05-03T07:43:36Z</time></trkpt><trkpt lat="37.461467082451726" lon="14.400177772573466"><ele>800.0</ele><time>2026-05-03T07:43:39Z</time></trkpt><trkpt lat="37.46137723280104" lon="14.400259839657487"><ele>800.0000000000001</ele><time>2026-05-03T07:43:41Z</time></trkpt><trkpt lat="37.461309432431776" lon="14.400296752162838"><ele>800.0</ele><time>2026-05-03T07:43:43Z</time></trkpt><trkpt lat="37.461208093346535" lon="14.400358292808592"><ele>800.0</ele><time>2026-05-03T07:43:45Z</time></trkpt><trkpt lat="37.46115161098778" lon="14.400437512848535"><ele>800.0</ele><time>2026-05-03T07:43:47Z</time></trkpt><trkpt lat="37.46108875304821" lon="14.40046508923594"><ele>800.0000000000001</ele><time>2026-05-03T07:43:49Z</time></trkpt><trkpt lat="37.46098231771813" lon="14.400493789143407"><ele>800.0</ele><time>2026-05-03T07:43:51Z</time></trkpt><trkpt lat="37.46092091535156" lon="14.400543383530435"><ele>797.8</ele><time>2026-05-03T07:43:52Z</time></trkpt><trkpt lat="37.46087740900471" lon="14.400606813686274"><ele>795.6</ele><time>2026-05-03T07:43:53Z</time></trkpt><trkpt lat="37.460774266115706" lon="14.400700842248657"><ele>793.4000000000001</ele><time>2026-05-03T07:43:55Z</time></trkpt><trkpt lat="37.460655239397255" lon="14.400737513615672"><ele>791.2</ele><time>2026-05-03T07:43:57Z</time></trkpt><trkpt lat="37.46058943094499" lon="14.400762648168437"><ele>789.0</ele><time>2026-05-03T07:43:58Z</time></trkpt><trkpt lat="37.46052570056132" lon="14.400785188870701"><ele>783.8000000000001</ele><time>2026-05-03T07:43:59Z</time></trkpt><trkpt lat="37.460406912953" lon="14.400827569709177"><ele>778.6</ele><time>2026-05-03T07:44:01Z</time></trkpt><trkpt lat="37.460346158196806" lon="14.400859032755532"><ele>773.4</ele><time>2026-05-03T07:44:02Z</time></trkpt><trkpt lat="37.460238364171786" lon="14.400909834493186"><ele>768.2</ele><time>2026-05-03T07:44:04Z</time></trkpt><trkpt lat="37.460170712564015" lon="14.40095959188277"><ele>763.0</ele><time>2026-05-03T07:44:05Z</time></trkpt><trkpt lat="37.46009625516986" lon="14.401013355413832"><ele>763.0</ele><time>2026-05-03T07:44:06Z</time></trkpt><trkpt lat="37.46002912466272" lon="14.401050184877713"><ele>763.0</ele><time>2026-05-03T07:44:07Z</time></trkpt><trkpt lat="37.459941356357675" lon="14.401120213090847"><ele>763.0</ele><time>2026-05-03T07:44:09Z</time></trkpt><trkpt lat="37.45985993022887" lon="14.401210397300485"><ele>763.0</ele><time>2026-05-03T07:44:11Z</time></trkpt><trkpt lat="37.45979235799965" lon="14.401281532970211"><ele>763.0</ele><time>2026-05-03T07:44:13Z</time></trkpt><trkpt lat="37.45968714283624" lon="14.401305331128828"><ele>763.4</ele><time>2026-05-03T07:44:15Z</time></trkpt><trkpt lat="37.459638622914234" lon="14.40138183414841"><ele>763.8</ele><time>2026-05-03T07:46:56Z</time></trkpt><trkpt lat="37.459658951573424" lon="14.401515456248097"><ele>764.2</ele><time>2026-05-03T07:46:58Z</time></trkpt><trkpt lat="37.459743501046894" lon="14.401631569317367"><ele>764.6</ele><time>2026-05-03T07:47:00Z</time></trkpt><trkpt lat="37.45979726878272" lon="14.401684776057552"><ele>765.0</ele><time>2026-05-03T07:47:01Z</time></trkpt><trkpt lat="37.45985846473333" lon="14.401768664417126"><ele>765.0</ele><time>2026-05-03T07:47:02Z</time></trkpt><trkpt lat="37.45990770621601" lon="14.40183052312915"><ele>765.0</ele><time>2026-05-03T07:47:03Z</time></trkpt><trkpt lat="37.45996888213503" lon="14.401899531092395"><ele>765.0</ele><time>2026-05-03T07:47:04Z</time></trkpt><trkpt lat="37.46003415665074" lon="14.401950976529005"><ele>765.0</ele><time>2026-05-03T07:47:05Z</time></trkpt><trkpt lat="37.46009441906476" lon="14.40199238718983"><ele>765.0</ele><time>2026-05-03T07:47:06Z</time></trkpt><trkpt lat="37.46015164578307" lon="14.40203401635359"><ele>765.0</ele><time>2026-05-03T07:47:07Z</time></trkpt><trkpt lat="37.46023409344864" lon="14.402103264040782"><ele>763.6</ele><time>2026-05-03T07:47:08Z</time></trkpt><trkpt lat="37.46031170040915" lon="14.402169949898564"><ele>762.2</ele><time>2026-05-03T07:47:09Z</time></trkpt><trkpt lat="37.460382140149925" lon="14.402221288273491"><ele>760.8</ele><time>2026-05-03T07:47:10Z</time></trkpt><trkpt lat="37.46044115081089" lon="14.402255264372723"><ele>759.4</ele><time>2026-05-03T07:47:11Z</time></trkpt><trkpt lat="37.46055068923453" lon="14.402294175776733"><ele>758.0</ele><time>2026-05-03T07:47:13Z</time></trkpt><trkpt lat="37.46062443295024" lon="14.402376528613226"><ele>758.0</ele><time>2026-05-03T07:47:15Z</time></trkpt><trkpt lat="37.46066754455983" lon="14.402486204908339"><ele>758.0</ele><time>2026-05-03T07:47:17Z</time></trkpt><trkpt lat="37.46068767636666" lon="14.40259464492725"><ele>758.0</ele><time>2026-05-03T07:47:19Z</time></trkpt><trkpt lat="37.4606302886901" lon="14.402671764570194"><ele>758.0</ele><time>2026-05-03T07:47:45Z</time></trkpt><trkpt lat="37.460564129163686" lon="14.402681103050002"><ele>758.0</ele><time>2026-05-03T07:47:47Z</time></trkpt><trkpt lat="37.46048755660646" lon="14.402713599462684"><ele>758.0</ele><time>2026-05-03T07:47:49Z</time></trkpt><trkpt lat="37.4604151773182" lon="14.402722019098668"><ele>756.5</ele><time>2026-05-03T07:47:51Z</time></trkpt><trkpt lat="37.46032505329121" lon="14.402709617162968"><ele>755.0</ele><time>2026-05-03T07:47:53Z</time></trkpt><trkpt lat="37.460240206051324" lon="14.40269560742683"><ele>753.5</ele><time>2026-05-03T07:47:55Z</time></trkpt><trkpt lat="37.46017474424329" lon="14.402710589416266"><ele>752.0</ele><time>2026-05-03T07:47:57Z</time></trkpt><trkpt lat="37.46008925914722" lon="14.402732452499903"><ele>750.5</ele><time>2026-05-03T07:48:00Z</time></trkpt><trkpt lat="37.460015840785964" lon="14.402737392846753"><ele>749.0</ele><time>2026-05-03T07:48:02Z</time></trkpt><trkpt lat="37.45993951944183" lon="14.402744161678557"><ele>749.0</ele><time>2026-05-03T07:48:04Z</time></trkpt><trkpt lat="37.45986502059137" lon="14.402759680674153"><ele>749.0</ele><time>2026-05-03T07:48:06Z</time></trkpt><trkpt lat="37.45977743230661" lon="14.402772931068789"><ele>749.0</ele><time>2026-05-03T07:48:08Z</time></trkpt><trkpt lat="37.45969970058895" lon="14.40277312650068"><ele>749.0</ele><time>2026-05-03T07:48:10Z</time></trkpt><trkpt lat="37.45962045825664" lon="14.402783798368104"><ele>749.0</ele><time>2026-05-03T07:48:12Z</time></trkpt><trkpt lat="37.45953610464684" lon="14.402790401467703"><ele>749.0</ele><time>2026-05-03T07:48:14Z</time></trkpt><trkpt lat="37.459462182289755" lon="14.402783218516431"><ele>747.0</ele><time>2026-05-03T07:48:16Z</time></trkpt><trkpt lat="37.45937947684892" lon="14.40279288217111"><ele>745.0</ele><time>2026-05-03T07:48:19Z</time></trkpt><trkpt lat="37.45930301432549" lon="14.402799359045057"><ele>743.0</ele><time>2026-05-03T07:48:22Z</time></trkpt><trkpt lat="37.45923490451001" lon="14.402775233526512"><ele>741.0</ele><time>2026-05-03T07:48:25Z</time></trkpt><trkpt lat="37.45917397132134" lon="14.402815630776379"><ele>739.0</ele><time>2026-05-03T07:48:29Z</time></trkpt><trkpt lat="37.45912589154113" lon="14.402882572453672"><ele>737.0</ele><time>2026-05-03T07:51:20Z</time></trkpt><trkpt lat="37.45910076086096" lon="14.402984302441444"><ele>737.4000000000001</ele><time>2026-05-03T07:52:40Z</time></trkpt><trkpt lat="37.45902667068098" lon="14.403132901113315"><ele>737.8000000000001</ele><time>2026-05-03T07:52:42Z</time></trkpt><trkpt lat="37.45893342723457" lon="14.403205715334552"><ele>738.2</ele><time>2026-05-03T07:52:43Z</time></trkpt><trkpt lat="37.45884985416323" lon="14.403267169629133"><ele>738.6</ele><time>2026-05-03T07:52:44Z</time></trkpt><trkpt lat="37.45877007492141" lon="14.403337890667526"><ele>739.0</ele><time>2026-05-03T07:52:45Z</time></trkpt><trkpt lat="37.458708315788435" lon="14.403423780039006"><ele>736.6666666666667</ele><time>2026-05-03T07:52:46Z</time></trkpt><trkpt lat="37.4586378014858" lon="14.403493665349815"><ele>734.3333333333334</ele><time>2026-05-03T07:52:47Z</time></trkpt><trkpt lat="37.458556457433545" lon="14.403556374851403"><ele>732.0</ele><time>2026-05-03T07:52:48Z</time></trkpt><trkpt lat="37.45847872643437" lon="14.403598569949407"><ele>729.6666666666666</ele><time>2026-05-03T07:52:49Z</time></trkpt><trkpt lat="37.45840915556416" lon="14.40367753465195"><ele>727.3333333333333</ele><time>2026-05-03T07:52:50Z</time></trkpt><trkpt lat="37.45835213568787" lon="14.403743135961395"><ele>725.0</ele><time>2026-05-03T07:52:51Z</time></trkpt><trkpt lat="37.4582987318829" lon="14.403811935477139"><ele>727.3333333333333</ele><time>2026-05-03T07:52:52Z</time></trkpt><trkpt lat="37.45826328989516" lon="14.40389128013152"><ele>729.6666666666666</ele><time>2026-05-03T07:52:53Z</time></trkpt><trkpt lat="37.45820140482244" lon="14.403950486584218"><ele>732.0</ele><time>2026-05-03T07:52:54Z</time></trkpt><trkpt lat="37.45815860252308" lon="14.404038433440506"><ele>734.3333333333334</ele><time>2026-05-03T07:52:55Z</time></trkpt><trkpt lat="37.4581034972664" lon="14.404124012576906"><ele>736.6666666666667</ele><time>2026-05-03T07:52:56Z</time></trkpt><trkpt lat="37.45806799453069" lon="14.404199347641619"><ele>739.0</ele><time>2026-05-03T07:52:57Z</time></trkpt><trkpt lat="37.45802255991669" lon="14.404311262347699"><ele>739.0</ele><time>2026-05-03T07:52:59Z</time></trkpt><trkpt lat="37.45804597288983" lon="14.40441783653047"><ele>739.0</ele><time>2026-05-03T07:53:00Z</time></trkpt><trkpt lat="37.45808795357291" lon="14.40453275726289"><ele>739.0</ele><time>2026-05-03T07:53:01Z</time></trkpt><trkpt lat="37.458140194455126" lon="14.40459652609546"><ele>739.0</ele><time>2026-05-03T07:53:02Z</time></trkpt><trkpt lat="37.4581867986157" lon="14.404653725475582"><ele>739.0</ele><time>2026-05-03T07:53:03Z</time></trkpt><trkpt lat="37.45824364755188" lon="14.404722016786518"><ele>739.0</ele><time>2026-05-03T07:53:04Z</time></trkpt><trkpt lat="37.458290964169805" lon="14.404789390617367"><ele>739.1666666666667</ele><time>2026-05-03T07:53:05Z</time></trkpt><trkpt lat="37.45835370068942" lon="14.404835318879966"><ele>739.3333333333334</ele><time>2026-05-03T07:53:08Z</time></trkpt><trkpt lat="37.45840781992629" lon="14.40493566667653"><ele>739.5</ele><time>2026-05-03T07:53:11Z</time></trkpt><trkpt lat="37.458433618915386" lon="14.405010161831653"><ele>739.6666666666666</ele><time>2026-05-03T07:53:13Z</time></trkpt><trkpt lat="37.458456405403155" lon="14.40511724525441"><ele>739.8333333333333</ele><time>2026-05-03T07:53:26Z</time></trkpt><trkpt lat="37.458495595396826" lon="14.405231227232482"><ele>740.0</ele><time>2026-05-03T07:53:28Z</time></trkpt><trkpt lat="37.45851636283317" lon="14.405336097808103"><ele>740.0</ele><time>2026-05-03T07:53:30Z</time></trkpt><trkpt lat="37.45852862235488" lon="14.405440155655008"><ele>740.0</ele><time>2026-05-03T07:53:32Z</time></trkpt><trkpt lat="37.45858516376867" lon="14.40551424557335"><ele>740.0</ele><time>2026-05-03T07:53:34Z</time></trkpt><trkpt lat="37.45859660049293" lon="14.405611481002511"><ele>740.0</ele><time>2026-05-03T07:53:36Z</time></trkpt><trkpt lat="37.458605904425276" lon="14.405772424233566"><ele>740.0</ele><time>2026-05-03T07:53:39Z</time></trkpt><trkpt lat="37.458619486695184" lon="14.405851937894987"><ele>740.0</ele><time>2026-05-03T07:53:40Z</time></trkpt><trkpt lat="37.4586129505316" lon="14.405948577184132"><ele>739.6</ele><time>2026-05-03T07:53:41Z</time></trkpt><trkpt lat="37.45858958763156" lon="14.40603453103296"><ele>739.2</ele><time>2026-05-03T07:53:42Z</time></trkpt><trkpt lat="37.45855534322004" lon="14.406169956656298"><ele>738.8</ele><time>2026-05-03T07:53:44Z</time></trkpt><trkpt lat="37.458524719156294" lon="14.406306693232095"><ele>738.4</ele><time>2026-05-03T07:53:46Z</time></trkpt><trkpt lat="37.458558488811526" lon="14.406377056057128"><ele>738.0</ele><time>2026-05-03T07:53:48Z</time></trkpt><trkpt lat="37.45864606922669" lon="14.406344994105664"><ele>738.0</ele><time>2026-05-03T07:53:50Z</time></trkpt><trkpt lat="37.45872330848815" lon="14.406314743125915"><ele>738.0</ele><time>2026-05-03T07:53:56Z</time></trkpt><trkpt lat="37.45881795214541" lon="14.406455204600773"><ele>738.0</ele><time>2026-05-03T07:53:58Z</time></trkpt><trkpt lat="37.45885090876923" lon="14.40657813313511"><ele>738.0</ele><time>2026-05-03T07:53:59Z</time></trkpt><trkpt lat="37.458881416906834" lon="14.406705863357297"><ele>738.0</ele><time>2026-05-03T07:54:00Z</time></trkpt><trkpt lat="37.45891723740045" lon="14.406836226263483"><ele>735.75</ele><time>2026-05-03T07:54:01Z</time></trkpt><trkpt lat="37.45896364600139" lon="14.406973336885946"><ele>733.5</ele><time>2026-05-03T07:54:02Z</time></trkpt><trkpt lat="37.459010829919045" lon="14.407110105310087"><ele>731.25</ele><time>2026-05-03T07:54:03Z</time></trkpt><trkpt lat="37.4590327274823" lon="14.40726688272318"><ele>729.0</ele><time>2026-05-03T07:54:04Z</time></trkpt><trkpt lat="37.459053455911096" lon="14.407386583436283"><ele>726.8333333333334</ele><time>2026-05-03T07:54:05Z</time></trkpt><trkpt lat="37.45907108056449" lon="14.407487480012245"><ele>724.6666666666666</ele><time>2026-05-03T07:54:06Z</time></trkpt><trkpt lat="37.45909610549129" lon="14.407566106973022"><ele>722.5</ele><time>2026-05-03T07:54:07Z</time></trkpt><trkpt lat="37.45914945693509" lon="14.407611907511443"><ele>720.3333333333333</ele><time>2026-05-03T07:54:08Z</time></trkpt><trkpt lat="37.45921927418321" lon="14.4076236108665"><ele>718.1666666666666</ele><time>2026-05-03T07:54:09Z</time></trkpt><trkpt lat="37.45932186824815" lon="14.407578065287247"><ele>716.0</ele><time>2026-05-03T07:54:10Z</time></trkpt><trkpt lat="37.45944290285709" lon="14.4075079667159"><ele>716.0</ele><time>2026-05-03T07:54:11Z</time></trkpt><trkpt lat="37.45952761511657" lon="14.407451153285606"><ele>716.0</ele><time>2026-05-03T07:54:12Z</time></trkpt><trkpt lat="37.45960678442907" lon="14.407433540037273"><ele>716.0</ele><time>2026-05-03T07:54:13Z</time></trkpt><trkpt lat="37.459681956340496" lon="14.407401880483286"><ele>716.0</ele><time>2026-05-03T07:54:14Z</time></trkpt><trkpt lat="37.459752678894645" lon="14.407367500209546"><ele>716.0</ele><time>2026-05-03T07:54:15Z</time></trkpt><trkpt lat="37.45982334706293" lon="14.407335016847332"><ele>716.0</ele><time>2026-05-03T07:54:16Z</time></trkpt><trkpt lat="37.459905529929976" lon="14.407272339557704"><ele>714.4</ele><time>2026-05-03T07:54:17Z</time></trkpt><trkpt lat="37.460006098170304" lon="14.407197832181463"><ele>712.8</ele><time>2026-05-03T07:54:18Z</time></trkpt><trkpt lat="37.460111242143554" lon="14.407109591760035"><ele>711.1999999999999</ele><time>2026-05-03T07:54:19Z</time></trkpt><trkpt lat="37.46021220123751" lon="14.407049228363865"><ele>709.5999999999999</ele><time>2026-05-03T07:54:20Z</time></trkpt><trkpt lat="37.460296253853144" lon="14.407011790995051"><ele>708.0</ele><time>2026-05-03T07:54:21Z</time></trkpt><trkpt lat="37.46036582104468" lon="14.406981543485601"><ele>707.6666666666666</ele><time>2026-05-03T07:54:22Z</time></trkpt><trkpt lat="37.460441034483964" lon="14.406955588663354"><ele>707.3333333333334</ele><time>2026-05-03T07:54:23Z</time></trkpt><trkpt lat="37.460494053652276" lon="14.406891400313729"><ele>707.0</ele><time>2026-05-03T07:54:25Z</time></trkpt><trkpt lat="37.460548232492236" lon="14.40684736940431"><ele>706.6666666666667</ele><time>2026-05-03T07:54:26Z</time></trkpt><trkpt lat="37.460602703536885" lon="14.406796008960011"><ele>706.3333333333334</ele><time>2026-05-03T07:54:27Z</time></trkpt><trkpt lat="37.46069541837756" lon="14.406659182408639"><ele>706.0</ele><time>2026-05-03T07:54:29Z</time></trkpt><trkpt lat="37.46074244021155" lon="14.40660017163246"><ele>706.0</ele><time>2026-05-03T07:54:30Z</time></trkpt><trkpt lat="37.460819921832396" lon="14.406504236026024"><ele>706.0</ele><time>2026-05-03T07:54:32Z</time></trkpt><trkpt lat="37.460875836397946" lon="14.406453244271296"><ele>706.0</ele><time>2026-05-03T07:54:33Z</time></trkpt><trkpt lat="37.4609366080763" lon="14.4063401745783"><ele>706.0</ele><time>2026-05-03T07:54:35Z</time></trkpt><trkpt lat="37.461001568336094" lon="14.40620722522197"><ele>706.0</ele><time>2026-05-03T07:54:37Z</time></trkpt><trkpt lat="37.461034395212494" lon="14.4061205953692"><ele>709.6666666666667</ele><time>2026-05-03T07:54:38Z</time></trkpt><trkpt lat="37.461083564484554" lon="14.40604121862871"><ele>713.3333333333334</ele><time>2026-05-03T07:54:39Z</time></trkpt><trkpt lat="37.461121089193874" lon="14.405950203123561"><ele>717.0</ele><time>2026-05-03T07:54:40Z</time></trkpt><trkpt lat="37.46115792921007" lon="14.405848370442053"><ele>720.6666666666666</ele><time>2026-05-03T07:54:41Z</time></trkpt><trkpt lat="37.46117299080614" lon="14.405734363676151"><ele>724.3333333333333</ele><time>2026-05-03T07:54:42Z</time></trkpt><trkpt lat="37.46120888280622" lon="14.405635353643978"><ele>728.0</ele><time>2026-05-03T07:54:43Z</time></trkpt><trkpt lat="37.46125006031091" lon="14.405560487915091"><ele>722.2</ele><time>2026-05-03T07:54:44Z</time></trkpt><trkpt lat="37.46138711863356" lon="14.405526227142444"><ele>716.4</ele><time>2026-05-03T07:54:46Z</time></trkpt><trkpt lat="37.46148019580094" lon="14.405538001357595"><ele>710.6</ele><time>2026-05-03T07:54:47Z</time></trkpt><trkpt lat="37.46155522138474" lon="14.405539865340147"><ele>704.8000000000001</ele><time>2026-05-03T07:54:48Z</time></trkpt><trkpt lat="37.461630279018166" lon="14.40553795290754"><ele>699.0</ele><time>2026-05-03T07:54:49Z</time></trkpt><trkpt lat="37.46170691844354" lon="14.40554216434681"><ele>699.0</ele><time>2026-05-03T07:54:50Z</time></trkpt><trkpt lat="37.46178654667982" lon="14.405566858765514"><ele>699.0</ele><time>2026-05-03T07:54:51Z</time></trkpt><trkpt lat="37.46186968650435" lon="14.405589561775797"><ele>699.0</ele><time>2026-05-03T07:54:52Z</time></trkpt><trkpt lat="37.46193261418249" lon="14.405601890667391"><ele>699.0</ele><time>2026-05-03T07:54:53Z</time></trkpt><trkpt lat="37.46204655490023" lon="14.405621787214447"><ele>699.0</ele><time>2026-05-03T07:54:55Z</time></trkpt><trkpt lat="37.46216614984441" lon="14.405579160009419"><ele>700.6666666666666</ele><time>2026-05-03T07:54:57Z</time></trkpt><trkpt lat="37.46222242648243" lon="14.405533262998842"><ele>702.3333333333334</ele><time>2026-05-03T07:54:58Z</time></trkpt><trkpt lat="37.4622999618128" lon="14.405472794278973"><ele>704.0</ele><time>2026-05-03T07:54:59Z</time></trkpt><trkpt lat="37.462363020626796" lon="14.40539634327648"><ele>705.6666666666667</ele><time>2026-05-03T07:55:00Z</time></trkpt><trkpt lat="37.46241533078168" lon="14.405305800826433"><ele>707.3333333333334</ele><time>2026-05-03T07:55:01Z</time></trkpt><trkpt lat="37.46246430342273" lon="14.405223145595706"><ele>709.0</ele><time>2026-05-03T07:55:02Z</time></trkpt><trkpt lat="37.46251539163283" lon="14.405145043428051"><ele>709.0</ele><time>2026-05-03T07:55:03Z</time></trkpt><trkpt lat="37.462574026286845" lon="14.405094273164595"><ele>709.0</ele><time>2026-05-03T07:55:04Z</time></trkpt><trkpt lat="37.46263189959969" lon="14.405048213460834"><ele>709.0</ele><time>2026-05-03T07:55:05Z</time></trkpt><trkpt lat="37.462743521606384" lon="14.40494348615469"><ele>709.0</ele><time>2026-05-03T07:55:07Z</time></trkpt><trkpt lat="37.46279426570112" lon="14.404877356229768"><ele>709.0</ele><time>2026-05-03T07:55:08Z</time></trkpt><trkpt lat="37.462827143949966" lon="14.404808374764201"><ele>709.0</ele><time>2026-05-03T07:55:09Z</time></trkpt><trkpt lat="37.46288141410363" lon="14.404763335711769"><ele>709.0</ele><time>2026-05-03T07:55:10Z</time></trkpt><trkpt lat="37.462946833749896" lon="14.404693740886222"><ele>709.0</ele><time>2026-05-03T07:55:11Z</time></trkpt><trkpt lat="37.46301306771793" lon="14.40462002945954"><ele>709.0</ele><time>2026-05-03T07:55:12Z</time></trkpt><trkpt lat="37.46306944284845" lon="14.404532127772393"><ele>709.0</ele><time>2026-05-03T07:55:13Z</time></trkpt><trkpt lat="37.46312831372356" lon="14.40446052592515"><ele>709.0</ele><time>2026-05-03T07:55:14Z</time></trkpt><trkpt lat="37.46318086537482" lon="14.404387319514573"><ele>709.0</ele><time>2026-05-03T07:55:15Z</time></trkpt><trkpt lat="37.463224596576815" lon="14.404324890283599"><ele>706.4000000000001</ele><time>2026-05-03T07:55:16Z</time></trkpt><trkpt lat="37.46329877130234" lon="14.404182440523487"><ele>703.8</ele><time>2026-05-03T07:55:18Z</time></trkpt><trkpt lat="37.46332897522819" lon="14.404043006478206"><ele>701.2</ele><time>2026-05-03T07:55:20Z</time></trkpt><trkpt lat="37.46333623422667" lon="14.403957285753947"><ele>698.5999999999999</ele><time>2026-05-03T07:55:21Z</time></trkpt><trkpt lat="37.46333817981434" lon="14.403829505300074"><ele>696.0</ele><time>2026-05-03T07:55:22Z</time></trkpt><trkpt lat="37.46335213007177" lon="14.4037081304975"><ele>696.0</ele><time>2026-05-03T07:55:23Z</time></trkpt><trkpt lat="37.463383555151346" lon="14.403627052878965"><ele>696.0</ele><time>2026-05-03T07:55:24Z</time></trkpt><trkpt lat="37.46342722196313" lon="14.403569179884412"><ele>696.0</ele><time>2026-05-03T07:55:26Z</time></trkpt><trkpt lat="37.46356658920515" lon="14.403551809802195"><ele>696.0</ele><time>2026-05-03T07:55:28Z</time></trkpt><trkpt lat="37.4636782360042" lon="14.403592263869594"><ele>696.0</ele><time>2026-05-03T07:55:29Z</time></trkpt><trkpt lat="37.463809529602216" lon="14.40368475433903"><ele>695.7142857142857</ele><time>2026-05-03T07:55:30Z</time></trkpt><trkpt lat="37.463892394052294" lon="14.403728662710284"><ele>695.4285714285714</ele><time>2026-05-03T07:55:31Z</time></trkpt><trkpt lat="37.463956141075464" lon="14.403757787267017"><ele>695.1428571428571</ele><time>2026-05-03T07:55:32Z</time></trkpt><trkpt lat="37.46401864714218" lon="14.403800745795728"><ele>694.8571428571429</ele><time>2026-05-03T07:55:33Z</time></trkpt><trkpt lat="37.46408634152555" lon="14.403851971779693"><ele>694.5714285714286</ele><time>2026-05-03T07:55:34Z</time></trkpt><trkpt lat="37.464145767660995" lon="14.40390691255996"><ele>694.2857142857143</ele><time>2026-05-03T07:55:35Z</time></trkpt><trkpt lat="37.464189755172164" lon="14.403964092070266"><ele>694.0</ele><time>2026-05-03T07:55:36Z</time></trkpt><trkpt lat="37.46424423295961" lon="14.404016660406102"><ele>693.0</ele><time>2026-05-03T07:55:37Z</time></trkpt><trkpt lat="37.46429860476707" lon="14.40406444062063"><ele>692.0</ele><time>2026-05-03T07:55:38Z</time></trkpt><trkpt lat="37.46436097821245" lon="14.404113770729365"><ele>691.0</ele><time>2026-05-03T07:55:39Z</time></trkpt><trkpt lat="37.46443037273588" lon="14.404163672577932"><ele>690.0</ele><time>2026-05-03T07:55:40Z</time></trkpt><trkpt lat="37.46448355851901" lon="14.404210346807778"><ele>689.0</ele><time>2026-05-03T07:55:41Z</time></trkpt><trkpt lat="37.464563257587656" lon="14.404271408085174"><ele>688.0</ele><time>2026-05-03T07:55:43Z</time></trkpt><trkpt lat="37.4646229620827" lon="14.404322081244434"><ele>688.0</ele><time>2026-05-03T07:55:46Z</time></trkpt><trkpt lat="37.46470383741346" lon="14.404412214979725"><ele>688.0</ele><time>2026-05-03T07:55:48Z</time></trkpt><trkpt lat="37.4647625468887" lon="14.404555745738072"><ele>688.0</ele><time>2026-05-03T07:55:50Z</time></trkpt><trkpt lat="37.46478435128302" lon="14.404642487792445"><ele>688.0</ele><time>2026-05-03T07:55:51Z</time></trkpt><trkpt lat="37.464772795615566" lon="14.404772280406732"><ele>688.0</ele><time>2026-05-03T07:55:53Z</time></trkpt><trkpt lat="37.46472521631068" lon="14.404861049902381"><ele>686.3333333333334</ele><time>2026-05-03T07:55:55Z</time></trkpt><trkpt lat="37.46460148828519" lon="14.4048678982557"><ele>684.6666666666667</ele><time>2026-05-03T07:55:56Z</time></trkpt><trkpt lat="37.46453048038939" lon="14.40487307860525"><ele>683.0</ele><time>2026-05-03T07:55:57Z</time></trkpt><trkpt lat="37.46446363575058" lon="14.404884905397862"><ele>681.3333333333334</ele><time>2026-05-03T07:55:58Z</time></trkpt><trkpt lat="37.464398411130325" lon="14.404909625910621"><ele>679.6666666666666</ele><time>2026-05-03T07:55:59Z</time></trkpt><trkpt lat="37.46433733323867" lon="14.404939717064785"><ele>678.0</ele><time>2026-05-03T07:56:00Z</time></trkpt><trkpt lat="37.464264836595284" lon="14.404970644143946"><ele>678.0</ele><time>2026-05-03T07:56:01Z</time></trkpt><trkpt lat="37.46421176148826" lon="14.405047544238727"><ele>678.0</ele><time>2026-05-03T07:56:02Z</time></trkpt><trkpt lat="37.464175402245786" lon="14.405143281997736"><ele>678.0</ele><time>2026-05-03T07:56:03Z</time></trkpt><trkpt lat="37.46414432829639" lon="14.405223814949888"><ele>678.0</ele><time>2026-05-03T07:56:04Z</time></trkpt><trkpt lat="37.46413574140695" lon="14.405316186035959"><ele>678.0</ele><time>2026-05-03T07:56:05Z</time></trkpt><trkpt lat="37.46409323202073" lon="14.40542295533871"><ele>678.0</ele><time>2026-05-03T07:56:06Z</time></trkpt><trkpt lat="37.4640581170614" lon="14.405515746392577"><ele>679.2</ele><time>2026-05-03T07:56:07Z</time></trkpt><trkpt lat="37.46399561401541" lon="14.40561746027941"><ele>680.4</ele><time>2026-05-03T07:56:08Z</time></trkpt><trkpt lat="37.46390698368902" lon="14.40569642657408"><ele>681.6</ele><time>2026-05-03T07:56:09Z</time></trkpt><trkpt lat="37.46383599078699" lon="14.405781837112434"><ele>682.8000000000001</ele><time>2026-05-03T07:56:10Z</time></trkpt><trkpt lat="37.46376907384188" lon="14.405868115448987"><ele>684.0</ele><time>2026-05-03T07:56:11Z</time></trkpt><trkpt lat="37.46372006559286" lon="14.405951795565263"><ele>680.8000000000001</ele><time>2026-05-03T07:56:12Z</time></trkpt><trkpt lat="37.46363900183253" lon="14.40599658516099"><ele>677.6</ele><time>2026-05-03T07:56:13Z</time></trkpt><trkpt lat="37.46358011089244" lon="14.406081367096348"><ele>674.4</ele><time>2026-05-03T07:56:14Z</time></trkpt><trkpt lat="37.46351207274556" lon="14.406152757868378"><ele>671.2</ele><time>2026-05-03T07:56:15Z</time></trkpt><trkpt lat="37.46344077676202" lon="14.406249389134924"><ele>668.0</ele><time>2026-05-03T07:56:16Z</time></trkpt><trkpt lat="37.463377264194705" lon="14.406357104410722"><ele>668.0</ele><time>2026-05-03T07:56:17Z</time></trkpt><trkpt lat="37.46331280762984" lon="14.406442067223129"><ele>668.0</ele><time>2026-05-03T07:56:18Z</time></trkpt><trkpt lat="37.46324708589247" lon="14.406507916446753"><ele>668.0</ele><time>2026-05-03T07:56:19Z</time></trkpt><trkpt lat="37.46317645932803" lon="14.406577957684659"><ele>668.0</ele><time>2026-05-03T07:56:20Z</time></trkpt><trkpt lat="37.46312088083274" lon="14.40665080463271"><ele>668.0</ele><time>2026-05-03T07:56:21Z</time></trkpt><trkpt lat="37.46304611003812" lon="14.406729244125208"><ele>668.0</ele><time>2026-05-03T07:56:22Z</time></trkpt><trkpt lat="37.46298678548811" lon="14.406835889412285"><ele>665.8</ele><time>2026-05-03T07:56:23Z</time></trkpt><trkpt lat="37.462935964860954" lon="14.406941057610677"><ele>663.5999999999999</ele><time>2026-05-03T07:56:24Z</time></trkpt><trkpt lat="37.46288490880938" lon="14.407028719253038"><ele>661.4000000000001</ele><time>2026-05-03T07:56:25Z</time></trkpt><trkpt lat="37.462821773331704" lon="14.407129776026638"><ele>659.2</ele><time>2026-05-03T07:56:26Z</time></trkpt><trkpt lat="37.4627524767605" lon="14.407220450495444"><ele>657.0</ele><time>2026-05-03T07:56:27Z</time></trkpt><trkpt lat="37.46269441553858" lon="14.407296956103524"><ele>656.5</ele><time>2026-05-03T07:56:28Z</time></trkpt><trkpt lat="37.46263114799247" lon="14.407369938405713"><ele>656.0</ele><time>2026-05-03T07:56:29Z</time></trkpt><trkpt lat="37.462571648464895" lon="14.407457372121812"><ele>655.5</ele><time>2026-05-03T07:56:30Z</time></trkpt><trkpt lat="37.46251255480956" lon="14.407536631807"><ele>655.0</ele><time>2026-05-03T07:56:31Z</time></trkpt><trkpt lat="37.46246676973159" lon="14.407627630440587"><ele>654.5</ele><time>2026-05-03T07:56:32Z</time></trkpt><trkpt lat="37.46244984118697" lon="14.407708646823902"><ele>654.0</ele><time>2026-05-03T07:56:33Z</time></trkpt><trkpt lat="37.462398559366974" lon="14.407792328994436"><ele>654.0</ele><time>2026-05-03T07:56:34Z</time></trkpt><trkpt lat="37.462350689958605" lon="14.407859939654783"><ele>654.0</ele><time>2026-05-03T07:56:35Z</time></trkpt><trkpt lat="37.462290111992075" lon="14.4078906270781"><ele>654.0</ele><time>2026-05-03T07:56:36Z</time></trkpt><trkpt lat="37.46223235783218" lon="14.407927026322634"><ele>654.0</ele><time>2026-05-03T07:56:37Z</time></trkpt><trkpt lat="37.462152972176455" lon="14.40804033413841"><ele>654.0</ele><time>2026-05-03T07:56:39Z</time></trkpt><trkpt lat="37.46211062937639" lon="14.408118565850565"><ele>654.0</ele><time>2026-05-03T07:56:40Z</time></trkpt><trkpt lat="37.46206973948568" lon="14.408219593477208"><ele>651.0</ele><time>2026-05-03T07:56:41Z</time></trkpt><trkpt lat="37.46202063267258" lon="14.408320150506649"><ele>648.0</ele><time>2026-05-03T07:56:42Z</time></trkpt><trkpt lat="37.46197942129161" lon="14.408402154170485"><ele>645.0</ele><time>2026-05-03T07:56:43Z</time></trkpt><trkpt lat="37.46193310174668" lon="14.408487246414893"><ele>642.0</ele><time>2026-05-03T07:56:44Z</time></trkpt><trkpt lat="37.46185520069064" lon="14.40857888746581"><ele>639.0</ele><time>2026-05-03T07:56:45Z</time></trkpt><trkpt lat="37.46179529362848" lon="14.408673997211368"><ele>639.0</ele><time>2026-05-03T07:56:46Z</time></trkpt><trkpt lat="37.46174176687316" lon="14.408759110277671"><ele>639.0</ele><time>2026-05-03T07:56:47Z</time></trkpt><trkpt lat="37.461689368219474" lon="14.408852199799595"><ele>639.0</ele><time>2026-05-03T07:56:48Z</time></trkpt><trkpt lat="37.46160240840463" lon="14.408943106640056"><ele>639.0</ele><time>2026-05-03T07:56:49Z</time></trkpt><trkpt lat="37.461523452155504" lon="14.40900458112918"><ele>639.0</ele><time>2026-05-03T07:56:50Z</time></trkpt><trkpt lat="37.46145098971831" lon="14.409095921962734"><ele>638.6666666666666</ele><time>2026-05-03T07:56:52Z</time></trkpt><trkpt lat="37.461393918851456" lon="14.40918053785017"><ele>638.3333333333334</ele><time>2026-05-03T07:56:58Z</time></trkpt><trkpt lat="37.461332749995385" lon="14.40923227075256"><ele>638.0</ele><time>2026-05-03T07:56:59Z</time></trkpt><trkpt lat="37.46127988038592" lon="14.409296914996991"><ele>637.6666666666667</ele><time>2026-05-03T07:57:00Z</time></trkpt><trkpt lat="37.461233083786404" lon="14.409375004827396"><ele>637.3333333333334</ele><time>2026-05-03T07:57:01Z</time></trkpt><trkpt lat="37.46116764474314" lon="14.409432339862224"><ele>637.0</ele><time>2026-05-03T07:57:02Z</time></trkpt><trkpt lat="37.46110037562992" lon="14.409506011104137"><ele>635.6666666666667</ele><time>2026-05-03T07:57:03Z</time></trkpt><trkpt lat="37.4610383979547" lon="14.409557301286437"><ele>634.3333333333334</ele><time>2026-05-03T07:57:04Z</time></trkpt><trkpt lat="37.46096102271928" lon="14.409613150452422"><ele>633.0</ele><time>2026-05-03T07:57:05Z</time></trkpt><trkpt lat="37.46088757382922" lon="14.409664299618191"><ele>631.6666666666666</ele><time>2026-05-03T07:57:06Z</time></trkpt><trkpt lat="37.460812140565224" lon="14.409714208087777"><ele>630.3333333333333</ele><time>2026-05-03T07:57:07Z</time></trkpt><trkpt lat="37.460733371915566" lon="14.409770138588513"><ele>629.0</ele><time>2026-05-03T07:57:08Z</time></trkpt><trkpt lat="37.46066216781976" lon="14.409832134758496"><ele>629.0</ele><time>2026-05-03T07:57:09Z</time></trkpt><trkpt lat="37.46059942273153" lon="14.409905125531163"><ele>629.0</ele><time>2026-05-03T07:57:10Z</time></trkpt><trkpt lat="37.46052311050025" lon="14.409971568897312"><ele>629.0</ele><time>2026-05-03T07:57:11Z</time></trkpt><trkpt lat="37.46043826831365" lon="14.410051789005955"><ele>629.0</ele><time>2026-05-03T07:57:12Z</time></trkpt><trkpt lat="37.46034750779418" lon="14.41010597687225"><ele>629.0</ele><time>2026-05-03T07:57:13Z</time></trkpt><trkpt lat="37.46025561414445" lon="14.410171117503745"><ele>627.3333333333333</ele><time>2026-05-03T07:57:14Z</time></trkpt><trkpt lat="37.46015381880848" lon="14.41021453014608"><ele>625.6666666666666</ele><time>2026-05-03T07:57:16Z</time></trkpt><trkpt lat="37.460070963453575" lon="14.410209447842526"><ele>624.0</ele><time>2026-05-03T07:57:18Z</time></trkpt><trkpt lat="37.45999447185913" lon="14.410181098344015"><ele>622.3333333333334</ele><time>2026-05-03T07:57:21Z</time></trkpt><trkpt lat="37.45991782456552" lon="14.410136793567276"><ele>620.6666666666667</ele><time>2026-05-03T07:57:23Z</time></trkpt><trkpt lat="37.45986030359086" lon="14.410094442208345"><ele>619.0</ele><time>2026-05-03T07:57:24Z</time></trkpt><trkpt lat="37.4597875546983" lon="14.410043905609864"><ele>619.0</ele><time>2026-05-03T07:57:25Z</time></trkpt><trkpt lat="37.45971039617543" lon="14.409999288377561"><ele>619.0</ele><time>2026-05-03T07:57:26Z</time></trkpt><trkpt lat="37.45963386488478" lon="14.409971594932662"><ele>619.0</ele><time>2026-05-03T07:57:27Z</time></trkpt><trkpt lat="37.45952300329134" lon="14.409968938684782"><ele>619.0</ele><time>2026-05-03T07:57:29Z</time></trkpt><trkpt lat="37.45947117142529" lon="14.41005135299975"><ele>619.0</ele><time>2026-05-03T07:57:30Z</time></trkpt><trkpt lat="37.45939638207119" lon="14.410103762576032"><ele>619.0</ele><time>2026-05-03T07:57:31Z</time></trkpt><trkpt lat="37.45931663069661" lon="14.410151158547642"><ele>618.8</ele><time>2026-05-03T07:57:32Z</time></trkpt><trkpt lat="37.45922221753642" lon="14.410155420532416"><ele>618.5999999999999</ele><time>2026-05-03T07:57:33Z</time></trkpt><trkpt lat="37.45911128167629" lon="14.410176175323112"><ele>618.4</ele><time>2026-05-03T07:57:34Z</time></trkpt><trkpt lat="37.45898516761227" lon="14.410221524559258"><ele>618.1999999999999</ele><time>2026-05-03T07:57:35Z</time></trkpt><trkpt lat="37.45888537912128" lon="14.41025003162211"><ele>618.0</ele><time>2026-05-03T07:57:36Z</time></trkpt><trkpt lat="37.458764138332036" lon="14.41029874754515"><ele>619.1999999999999</ele><time>2026-05-03T07:57:37Z</time></trkpt><trkpt lat="37.458669492096824" lon="14.410341935866212"><ele>620.4</ele><time>2026-05-03T07:57:38Z</time></trkpt><trkpt lat="37.45858811010716" lon="14.410386816550144"><ele>621.5999999999999</ele><time>2026-05-03T07:57:39Z</time></trkpt><trkpt lat="37.45851482048255" lon="14.410429781461605"><ele>622.8</ele><time>2026-05-03T07:57:40Z</time></trkpt><trkpt lat="37.45843136707814" lon="14.410471095865338"><ele>624.0</ele><time>2026-05-03T07:57:41Z</time></trkpt><trkpt lat="37.458333905209464" lon="14.410496966564814"><ele>621.8</ele><time>2026-05-03T07:57:42Z</time></trkpt><trkpt lat="37.45823646355187" lon="14.410513914814713"><ele>619.5999999999999</ele><time>2026-05-03T07:57:43Z</time></trkpt><trkpt lat="37.45814581964737" lon="14.410534376977196"><ele>617.4</ele><time>2026-05-03T07:57:44Z</time></trkpt><trkpt lat="37.45806734856944" lon="14.41055908469469"><ele>615.1999999999999</ele><time>2026-05-03T07:57:45Z</time></trkpt><trkpt lat="37.45797932009129" lon="14.410624189796808"><ele>613.0</ele><time>2026-05-03T07:57:46Z</time></trkpt><trkpt lat="37.457904316227726" lon="14.410674098545002"><ele>613.0</ele><time>2026-05-03T07:57:47Z</time></trkpt><trkpt lat="37.45783815689612" lon="14.41073678858392"><ele>613.0</ele><time>2026-05-03T07:57:48Z</time></trkpt><trkpt lat="37.45773521708333" lon="14.410813362838063"><ele>613.0</ele><time>2026-05-03T07:57:49Z</time></trkpt><trkpt lat="37.45765790463253" lon="14.410924065903124"><ele>613.0</ele><time>2026-05-03T07:57:50Z</time></trkpt><trkpt lat="37.457578023517925" lon="14.411015841461815"><ele>613.0</ele><time>2026-05-03T07:57:51Z</time></trkpt><trkpt lat="37.457455074710474" lon="14.411134059046356"><ele>613.0</ele><time>2026-05-03T07:57:52Z</time></trkpt><trkpt lat="37.45736030362378" lon="14.41121094621381"><ele>613.0</ele><time>2026-05-03T07:57:53Z</time></trkpt><trkpt lat="37.457276013000126" lon="14.411290081612965"><ele>613.0</ele><time>2026-05-03T07:57:54Z</time></trkpt><trkpt lat="37.45718630710495" lon="14.411366328004314"><ele>613.0</ele><time>2026-05-03T07:57:55Z</time></trkpt><trkpt lat="37.45711471961545" lon="14.411430165606024"><ele>613.0</ele><time>2026-05-03T07:57:56Z</time></trkpt><trkpt lat="37.45704525139792" lon="14.411478853075883"><ele>611.6666666666667</ele><time>2026-05-03T07:57:57Z</time></trkpt><trkpt lat="37.456977350777294" lon="14.41151397352519"><ele>610.3333333333334</ele><time>2026-05-03T07:57:58Z</time></trkpt><trkpt lat="37.45690016790272" lon="14.411557000543928"><ele>609.0</ele><time>2026-05-03T07:57:59Z</time></trkpt><trkpt lat="37.45681119872857" lon="14.411598997428836"><ele>607.6666666666666</ele><time>2026-05-03T07:58:00Z</time></trkpt><trkpt lat="37.45673219091524" lon="14.411649280732503"><ele>606.3333333333333</ele><time>2026-05-03T07:58:01Z</time></trkpt><trkpt lat="37.456656675776784" lon="14.411712990054765"><ele>605.0</ele><time>2026-05-03T07:58:02Z</time></trkpt><trkpt lat="37.456564239076656" lon="14.411797735304718"><ele>605.0</ele><time>2026-05-03T07:58:03Z</time></trkpt><trkpt lat="37.45647934245139" lon="14.4118929876839"><ele>605.0</ele><time>2026-05-03T07:58:04Z</time></trkpt><trkpt lat="37.456393948489264" lon="14.411993701030106"><ele>605.0</ele><time>2026-05-03T07:58:05Z</time></trkpt><trkpt lat="37.456315677241996" lon="14.412078642746971"><ele>605.0</ele><time>2026-05-03T07:58:06Z</time></trkpt><trkpt lat="37.45623731951098" lon="14.412133924725767"><ele>605.0</ele><time>2026-05-03T07:58:07Z</time></trkpt><trkpt lat="37.4561710156316" lon="14.412220656492236"><ele>606.8</ele><time>2026-05-03T07:58:08Z</time></trkpt><trkpt lat="37.456120599500466" lon="14.412344590813683"><ele>608.6</ele><time>2026-05-03T07:58:09Z</time></trkpt><trkpt lat="37.45604825481455" lon="14.412446298019525"><ele>610.4</ele><time>2026-05-03T07:58:10Z</time></trkpt><trkpt lat="37.455985751706486" lon="14.412551848256445"><ele>612.2</ele><time>2026-05-03T07:58:11Z</time></trkpt><trkpt lat="37.45593933919682" lon="14.412664059531213"><ele>614.0</ele><time>2026-05-03T07:58:12Z</time></trkpt><trkpt lat="37.455922151284035" lon="14.412765245958093"><ele>614.0</ele><time>2026-05-03T07:58:13Z</time></trkpt><trkpt lat="37.45591294918727" lon="14.412900615781252"><ele>614.0</ele><time>2026-05-03T07:58:14Z</time></trkpt><trkpt lat="37.45590744747524" lon="14.41302848567981"><ele>614.0</ele><time>2026-05-03T07:58:15Z</time></trkpt><trkpt lat="37.45587860998965" lon="14.413153340102802"><ele>614.0</ele><time>2026-05-03T07:58:16Z</time></trkpt><trkpt lat="37.45584652117447" lon="14.41329075559893"><ele>614.0</ele><time>2026-05-03T07:58:17Z</time></trkpt><trkpt lat="37.455833110919976" lon="14.413374505340432"><ele>611.0</ele><time>2026-05-03T07:58:18Z</time></trkpt><trkpt lat="37.45577563178018" lon="14.413537485569245"><ele>608.0</ele><time>2026-05-03T07:58:20Z</time></trkpt><trkpt lat="37.45573881310787" lon="14.413663467651032"><ele>605.0</ele><time>2026-05-03T07:58:21Z</time></trkpt><trkpt lat="37.455687129310334" lon="14.413805966771196"><ele>602.0</ele><time>2026-05-03T07:58:22Z</time></trkpt><trkpt lat="37.45562174173207" lon="14.413941723341118"><ele>604.0</ele><time>2026-05-03T07:58:23Z</time></trkpt><trkpt lat="37.455539431546306" lon="14.414061606961612"><ele>606.0</ele><time>2026-05-03T07:58:24Z</time></trkpt><trkpt lat="37.45546360526378" lon="14.414144359643746"><ele>608.0</ele><time>2026-05-03T07:58:25Z</time></trkpt><trkpt lat="37.45537727522" lon="14.41422318407144"><ele>610.0</ele><time>2026-05-03T07:58:26Z</time></trkpt><trkpt lat="37.45529971881134" lon="14.414303219843687"><ele>612.0</ele><time>2026-05-03T07:58:27Z</time></trkpt><trkpt lat="37.45521958597111" lon="14.414383659230046"><ele>612.0</ele><time>2026-05-03T07:58:28Z</time></trkpt><trkpt lat="37.45512669197279" lon="14.414446562620746"><ele>612.0</ele><time>2026-05-03T07:58:29Z</time></trkpt><trkpt lat="37.45503189929717" lon="14.41452544164296"><ele>612.0</ele><time>2026-05-03T07:58:30Z</time></trkpt><trkpt lat="37.454942281991265" lon="14.414612191563204"><ele>612.0</ele><time>2026-05-03T07:58:31Z</time></trkpt><trkpt lat="37.45485330375803" lon="14.414704137745844"><ele>612.0</ele><time>2026-05-03T07:58:32Z</time></trkpt><trkpt lat="37.45477547457782" lon="14.414789781361684"><ele>611.1666666666666</ele><time>2026-05-03T07:58:33Z</time></trkpt><trkpt lat="37.45470804505657" lon="14.414878857274322"><ele>610.3333333333334</ele><time>2026-05-03T07:58:34Z</time></trkpt><trkpt lat="37.45463265154339" lon="14.414952754084107"><ele>609.5</ele><time>2026-05-03T07:58:35Z</time></trkpt><trkpt lat="37.45456886930042" lon="14.415014393188768"><ele>608.6666666666667</ele><time>2026-05-03T07:58:36Z</time></trkpt><trkpt lat="37.45451210411299" lon="14.415056861867333"><ele>607.8333333333334</ele><time>2026-05-03T07:58:37Z</time></trkpt><trkpt lat="37.454449990592884" lon="14.415072886222008"><ele>607.0</ele><time>2026-05-03T07:58:38Z</time></trkpt><trkpt lat="37.454387290272585" lon="14.415106588869495"><ele>607.0</ele><time>2026-05-03T07:58:39Z</time></trkpt><trkpt lat="37.45430651106479" lon="14.415156615030945"><ele>607.0</ele><time>2026-05-03T07:58:40Z</time></trkpt><trkpt lat="37.45420410958282" lon="14.415212186534426"><ele>607.0</ele><time>2026-05-03T07:58:41Z</time></trkpt><trkpt lat="37.45408561418646" lon="14.41524589580624"><ele>607.0</ele><time>2026-05-03T07:58:42Z</time></trkpt><trkpt lat="37.45398776607212" lon="14.415334828160306"><ele>607.0</ele><time>2026-05-03T07:58:43Z</time></trkpt><trkpt lat="37.45389971579128" lon="14.41541329889378"><ele>604.6</ele><time>2026-05-03T07:58:44Z</time></trkpt><trkpt lat="37.45383846353653" lon="14.415496908989004"><ele>602.2</ele><time>2026-05-03T07:58:45Z</time></trkpt><trkpt lat="37.45382048499539" lon="14.415597408977426"><ele>599.8</ele><time>2026-05-03T07:58:46Z</time></trkpt><trkpt lat="37.4538275193815" lon="14.415724066111906"><ele>597.4</ele><time>2026-05-03T07:58:47Z</time></trkpt><trkpt lat="37.453849625826585" lon="14.415851050661049"><ele>595.0</ele><time>2026-05-03T07:58:48Z</time></trkpt><trkpt lat="37.45389344734845" lon="14.415991267209407"><ele>595.0</ele><time>2026-05-03T07:58:49Z</time></trkpt><trkpt lat="37.45394231868879" lon="14.416132629204121"><ele>595.0</ele><time>2026-05-03T07:58:50Z</time></trkpt><trkpt lat="37.453979609009195" lon="14.41626648864627"><ele>595.0</ele><time>2026-05-03T07:58:51Z</time></trkpt><trkpt lat="37.45400396270414" lon="14.41636016908153"><ele>595.0</ele><time>2026-05-03T07:58:52Z</time></trkpt><trkpt lat="37.453999379491826" lon="14.416455561083394"><ele>595.0</ele><time>2026-05-03T07:58:53Z</time></trkpt><trkpt lat="37.45401921102699" lon="14.416638499994212"><ele>595.0</ele><time>2026-05-03T07:58:55Z</time></trkpt><trkpt lat="37.45402910133003" lon="14.416755750914628"><ele>595.0</ele><time>2026-05-03T07:58:56Z</time></trkpt><trkpt lat="37.45402840960299" lon="14.41688528972185"><ele>595.0</ele><time>2026-05-03T07:58:57Z</time></trkpt><trkpt lat="37.454036970211796" lon="14.417019345919027"><ele>595.0</ele><time>2026-05-03T07:58:58Z</time></trkpt><trkpt lat="37.45404981011363" lon="14.417152111576446"><ele>595.0</ele><time>2026-05-03T07:58:59Z</time></trkpt><trkpt lat="37.45405598101594" lon="14.417258859061398"><ele>595.8</ele><time>2026-05-03T07:59:00Z</time></trkpt><trkpt lat="37.45406768680137" lon="14.417377731997357"><ele>596.6</ele><time>2026-05-03T07:59:01Z</time></trkpt><trkpt lat="37.454087992089725" lon="14.417497218981588"><ele>597.4</ele><time>2026-05-03T07:59:02Z</time></trkpt><trkpt lat="37.45411687591702" lon="14.41760718185136"><ele>598.2</ele><time>2026-05-03T07:59:03Z</time></trkpt><trkpt lat="37.454142417613625" lon="14.41773180576992"><ele>599.0</ele><time>2026-05-03T07:59:04Z</time></trkpt><trkpt lat="37.454179968598005" lon="14.41786059275141"><ele>600.6</ele><time>2026-05-03T07:59:05Z</time></trkpt><trkpt lat="37.45421973398851" lon="14.4179966369354"><ele>602.2</ele><time>2026-05-03T07:59:06Z</time></trkpt><trkpt lat="37.45424196669715" lon="14.418121296616986"><ele>603.8000000000001</ele><time>2026-05-03T07:59:07Z</time></trkpt><trkpt lat="37.45428385618118" lon="14.41827181927854"><ele>605.4</ele><time>2026-05-03T07:59:08Z</time></trkpt><trkpt lat="37.454303165317846" lon="14.418403217917916"><ele>607.0</ele><time>2026-05-03T07:59:09Z</time></trkpt><trkpt lat="37.454321815953584" lon="14.418544938261286"><ele>607.0</ele><time>2026-05-03T07:59:10Z</time></trkpt><trkpt lat="37.45434585354138" lon="14.418671903952045"><ele>607.0</ele><time>2026-05-03T07:59:11Z</time></trkpt><trkpt lat="37.454348611894424" lon="14.41882018765132"><ele>607.0</ele><time>2026-05-03T07:59:12Z</time></trkpt><trkpt lat="37.45435784386117" lon="14.418940881943364"><ele>607.0</ele><time>2026-05-03T07:59:13Z</time></trkpt><trkpt lat="37.45436173869817" lon="14.419064954334955"><ele>607.0</ele><time>2026-05-03T07:59:14Z</time></trkpt><trkpt lat="37.454363783599604" lon="14.419168999448514"><ele>607.0</ele><time>2026-05-03T07:59:15Z</time></trkpt><trkpt lat="37.45436464112595" lon="14.419280734273718"><ele>607.0</ele><time>2026-05-03T07:59:16Z</time></trkpt><trkpt lat="37.454364093610195" lon="14.419401536436572"><ele>607.0</ele><time>2026-05-03T07:59:17Z</time></trkpt><trkpt lat="37.45436441415588" lon="14.419537044281205"><ele>607.0</ele><time>2026-05-03T07:59:18Z</time></trkpt><trkpt lat="37.45436261681749" lon="14.419660019128854"><ele>607.0</ele><time>2026-05-03T07:59:19Z</time></trkpt><trkpt lat="37.454342323621375" lon="14.419763929883501"><ele>605.2</ele><time>2026-05-03T07:59:20Z</time></trkpt><trkpt lat="37.454304311961316" lon="14.419854970807068"><ele>603.4000000000001</ele><time>2026-05-03T07:59:21Z</time></trkpt><trkpt lat="37.454251064036306" lon="14.41999084975175"><ele>601.5999999999999</ele><time>2026-05-03T07:59:22Z</time></trkpt><trkpt lat="37.45419991930375" lon="14.420122812419068"><ele>599.8</ele><time>2026-05-03T07:59:23Z</time></trkpt><trkpt lat="37.45414647436413" lon="14.420228797010894"><ele>598.0</ele><time>2026-05-03T07:59:24Z</time></trkpt><trkpt lat="37.45405792358168" lon="14.420313815886443"><ele>598.0</ele><time>2026-05-03T07:59:26Z</time></trkpt><trkpt lat="37.4539940094221" lon="14.420332213781933"><ele>598.0</ele><time>2026-05-03T07:59:28Z</time></trkpt><trkpt lat="37.45391881557254" lon="14.420288965962202"><ele>598.0</ele><time>2026-05-03T07:59:31Z</time></trkpt><trkpt lat="37.45385226894724" lon="14.420275384557796"><ele>598.0</ele><time>2026-05-03T07:59:33Z</time></trkpt><trkpt lat="37.45375599932345" lon="14.420242503069712"><ele>598.0</ele><time>2026-05-03T07:59:35Z</time></trkpt><trkpt lat="37.45364144478664" lon="14.42019700888951"><ele>598.0</ele><time>2026-05-03T07:59:37Z</time></trkpt><trkpt lat="37.45357842701642" lon="14.420182856859029"><ele>598.5</ele><time>2026-05-03T07:59:38Z</time></trkpt><trkpt lat="37.4535080089038" lon="14.42013928211951"><ele>599.0</ele><time>2026-05-03T07:59:39Z</time></trkpt><trkpt lat="37.45340769650397" lon="14.420132796933245"><ele>599.5</ele><time>2026-05-03T07:59:41Z</time></trkpt><trkpt lat="37.453341746004355" lon="14.420126988028262"><ele>600.0</ele><time>2026-05-03T07:59:42Z</time></trkpt><trkpt lat="37.45312205841945" lon="14.42075768097962"><ele>598.2</ele><time>2026-05-03T07:59:44Z</time></trkpt><trkpt lat="37.45305510921257" lon="14.420809814416806"><ele>596.4</ele><time>2026-05-03T07:59:45Z</time></trkpt><trkpt lat="37.45293281564" lon="14.420912132315427"><ele>594.6</ele><time>2026-05-03T07:59:47Z</time></trkpt><trkpt lat="37.45285622507216" lon="14.420975233773355"><ele>592.8</ele><time>2026-05-03T07:59:48Z</time></trkpt><trkpt lat="37.45278457607452" lon="14.421029631647489"><ele>591.0</ele><time>2026-05-03T07:59:49Z</time></trkpt><trkpt lat="37.45272141232695" lon="14.421082718200106"><ele>590.1428571428571</ele><time>2026-05-03T07:59:50Z</time></trkpt><trkpt lat="37.45265734594343" lon="14.421124612949072"><ele>589.2857142857143</ele><time>2026-05-03T07:59:51Z</time></trkpt><trkpt lat="37.45258514771863" lon="14.421181568311225"><ele>588.4285714285714</ele><time>2026-05-03T07:59:52Z</time></trkpt><trkpt lat="37.4525189709146" lon="14.421244847472517"><ele>587.5714285714286</ele><time>2026-05-03T07:59:53Z</time></trkpt><trkpt lat="37.452462513451174" lon="14.421287015782084"><ele>586.7142857142857</ele><time>2026-05-03T07:59:54Z</time></trkpt><trkpt lat="37.45240838091275" lon="14.421330772724371"><ele>585.8571428571429</ele><time>2026-05-03T07:59:55Z</time></trkpt><trkpt lat="37.45235483053194" lon="14.421384503949222"><ele>585.0</ele><time>2026-05-03T07:59:56Z</time></trkpt><trkpt lat="37.45229696327094" lon="14.42144854995091"><ele>584.4</ele><time>2026-05-03T07:59:57Z</time></trkpt><trkpt lat="37.452205591952655" lon="14.421529189628203"><ele>583.8</ele><time>2026-05-03T07:59:59Z</time></trkpt><trkpt lat="37.45212550556356" lon="14.42161474283472"><ele>583.2</ele><time>2026-05-03T08:00:01Z</time></trkpt><trkpt lat="37.452039554587735" lon="14.421712596619049"><ele>582.6</ele><time>2026-05-03T08:00:03Z</time></trkpt><trkpt lat="37.45198566444281" lon="14.421760717500698"><ele>582.0</ele><time>2026-05-03T08:00:04Z</time></trkpt><trkpt lat="37.45192131730222" lon="14.421879938054163"><ele>581.5</ele><time>2026-05-03T08:00:06Z</time></trkpt><trkpt lat="37.45189171385126" lon="14.421954106895441"><ele>581.0</ele><time>2026-05-03T08:00:07Z</time></trkpt><trkpt lat="37.45185931120113" lon="14.422027095170739"><ele>580.5</ele><time>2026-05-03T08:00:08Z</time></trkpt><trkpt lat="37.45182703260663" lon="14.422103575733692"><ele>580.0</ele><time>2026-05-03T08:00:09Z</time></trkpt><trkpt lat="37.45179209764502" lon="14.422265767195544"><ele>579.5</ele><time>2026-05-03T08:00:11Z</time></trkpt><trkpt lat="37.451758987033394" lon="14.42234492088779"><ele>579.0</ele><time>2026-05-03T08:00:12Z</time></trkpt><trkpt lat="37.45173717758855" lon="14.422431915991314"><ele>578.0</ele><time>2026-05-03T08:00:13Z</time></trkpt><trkpt lat="37.45171301547667" lon="14.42251862207417"><ele>577.0</ele><time>2026-05-03T08:00:14Z</time></trkpt><trkpt lat="37.45168989369924" lon="14.42262115997096"><ele>576.0</ele><time>2026-05-03T08:00:15Z</time></trkpt><trkpt lat="37.451682404672944" lon="14.422727684673834"><ele>575.0</ele><time>2026-05-03T08:00:16Z</time></trkpt><trkpt lat="37.45166119352597" lon="14.422814518590219"><ele>574.0</ele><time>2026-05-03T08:00:17Z</time></trkpt><trkpt lat="37.451634178424484" lon="14.422903726242776"><ele>573.0</ele><time>2026-05-03T08:00:19Z</time></trkpt><trkpt lat="37.45160273458385" lon="14.422974096079832"><ele>571.6666666666666</ele><time>2026-05-03T08:00:27Z</time></trkpt><trkpt lat="37.45157824138851" lon="14.423067289521093"><ele>570.3333333333334</ele><time>2026-05-03T08:00:31Z</time></trkpt><trkpt lat="37.45156583806808" lon="14.423165512718677"><ele>569.0</ele><time>2026-05-03T08:00:33Z</time></trkpt><trkpt lat="37.45155430401011" lon="14.423261650435556"><ele>567.6666666666667</ele><time>2026-05-03T08:00:34Z</time></trkpt><trkpt lat="37.45154452313514" lon="14.423348994223891"><ele>566.3333333333334</ele><time>2026-05-03T08:00:35Z</time></trkpt><trkpt lat="37.45153638733172" lon="14.423494428566134"><ele>565.0</ele><time>2026-05-03T08:00:37Z</time></trkpt><trkpt lat="37.45154347981605" lon="14.42357594983319"><ele>565.0</ele><time>2026-05-03T08:00:39Z</time></trkpt><trkpt lat="37.45152183690101" lon="14.423662756886522"><ele>565.0</ele><time>2026-05-03T08:00:48Z</time></trkpt><trkpt lat="37.45156313064288" lon="14.423751680826788"><ele>565.0</ele><time>2026-05-03T08:00:52Z</time></trkpt><trkpt lat="37.451574101221375" lon="14.423845980856077"><ele>565.0</ele><time>2026-05-03T08:00:56Z</time></trkpt><trkpt lat="37.45151308549299" lon="14.423918520505628"><ele>565.0</ele><time>2026-05-03T08:00:59Z</time></trkpt><trkpt lat="37.451607320782884" lon="14.423972580753551"><ele>565.0</ele><time>2026-05-03T08:01:04Z</time></trkpt><trkpt lat="37.45166460733769" lon="14.42402219596383"><ele>564.2</ele><time>2026-05-03T08:01:05Z</time></trkpt><trkpt lat="37.45174896937207" lon="14.424067734874665"><ele>563.4</ele><time>2026-05-03T08:01:06Z</time></trkpt><trkpt lat="37.451854256022266" lon="14.424099633158706"><ele>562.6</ele><time>2026-05-03T08:01:07Z</time></trkpt><trkpt lat="37.45196287404767" lon="14.424159055068248"><ele>561.8</ele><time>2026-05-03T08:01:08Z</time></trkpt><trkpt lat="37.452070019602004" lon="14.424228223470635"><ele>561.0</ele><time>2026-05-03T08:01:09Z</time></trkpt><trkpt lat="37.452166366230045" lon="14.424275551006719"><ele>561.0</ele><time>2026-05-03T08:01:10Z</time></trkpt><trkpt lat="37.45226661972744" lon="14.424307078981759"><ele>561.0</ele><time>2026-05-03T08:01:11Z</time></trkpt><trkpt lat="37.45235917609654" lon="14.424328730054517"><ele>561.0</ele><time>2026-05-03T08:01:12Z</time></trkpt><trkpt lat="37.45244478613209" lon="14.424367731791799"><ele>561.0</ele><time>2026-05-03T08:01:13Z</time></trkpt><trkpt lat="37.45252916253012" lon="14.424416089147604"><ele>561.0</ele><time>2026-05-03T08:01:14Z</time></trkpt><trkpt lat="37.45261648805529" lon="14.424492869006475"><ele>561.0</ele><time>2026-05-03T08:01:15Z</time></trkpt><trkpt lat="37.4526888512112" lon="14.424539637594258"><ele>561.0</ele><time>2026-05-03T08:01:16Z</time></trkpt><trkpt lat="37.45275879137349" lon="14.424564873402026"><ele>561.0</ele><time>2026-05-03T08:01:17Z</time></trkpt><trkpt lat="37.45283128183981" lon="14.42457680860558"><ele>561.0</ele><time>2026-05-03T08:01:18Z</time></trkpt><trkpt lat="37.45290546379372" lon="14.424576188017568"><ele>561.0</ele><time>2026-05-03T08:01:19Z</time></trkpt><trkpt lat="37.45298236728235" lon="14.42457696508567"><ele>561.0</ele><time>2026-05-03T08:01:20Z</time></trkpt><trkpt lat="37.45305095505505" lon="14.424602194634355"><ele>562.3333333333334</ele><time>2026-05-03T08:01:21Z</time></trkpt><trkpt lat="37.453116216952054" lon="14.424637078332083"><ele>563.6666666666666</ele><time>2026-05-03T08:01:22Z</time></trkpt><trkpt lat="37.45317784743335" lon="14.424672421999523"><ele>565.0</ele><time>2026-05-03T08:01:23Z</time></trkpt><trkpt lat="37.45326352210254" lon="14.424717414648926"><ele>566.3333333333333</ele><time>2026-05-03T08:01:25Z</time></trkpt><trkpt lat="37.453336947244615" lon="14.424768469475342"><ele>567.6666666666666</ele><time>2026-05-03T08:01:27Z</time></trkpt><trkpt lat="37.45339896200842" lon="14.424858896565937"><ele>569.0</ele><time>2026-05-03T08:01:29Z</time></trkpt><trkpt lat="37.453494853380676" lon="14.424926311494483"><ele>566.0</ele><time>2026-05-03T08:01:31Z</time></trkpt><trkpt lat="37.45356866311099" lon="14.424953024922154"><ele>563.0</ele><time>2026-05-03T08:01:32Z</time></trkpt><trkpt lat="37.45363875270161" lon="14.424967415938813"><ele>560.0</ele><time>2026-05-03T08:01:33Z</time></trkpt><trkpt lat="37.4537584407695" lon="14.424969209330268"><ele>557.0</ele><time>2026-05-03T08:01:35Z</time></trkpt><trkpt lat="37.45382462940677" lon="14.42495403918455"><ele>554.0</ele><time>2026-05-03T08:01:36Z</time></trkpt><trkpt lat="37.45395878811073" lon="14.42492285955314"><ele>554.0</ele><time>2026-05-03T08:01:38Z</time></trkpt><trkpt lat="37.45403817427386" lon="14.424919996275019"><ele>554.0</ele><time>2026-05-03T08:01:39Z</time></trkpt><trkpt lat="37.45412072908323" lon="14.424917074857238"><ele>554.0</ele><time>2026-05-03T08:01:40Z</time></trkpt><trkpt lat="37.4541940972988" lon="14.424942339843275"><ele>554.0</ele><time>2026-05-03T08:01:41Z</time></trkpt><trkpt lat="37.45425659866135" lon="14.424998997632947"><ele>554.0</ele><time>2026-05-03T08:01:42Z</time></trkpt><trkpt lat="37.45432417881916" lon="14.42508086675822"><ele>554.0</ele><time>2026-05-03T08:01:44Z</time></trkpt><trkpt lat="37.45434483182598" lon="14.425163264832472"><ele>554.0</ele><time>2026-05-03T08:01:47Z</time></trkpt><trkpt lat="37.454373138422746" lon="14.425268276427465"><ele>554.0</ele><time>2026-05-03T08:01:50Z</time></trkpt><trkpt lat="37.45439625944793" lon="14.425371511536927"><ele>554.0</ele><time>2026-05-03T08:01:53Z</time></trkpt><trkpt lat="37.45445851959941" lon="14.425419951718958"><ele>554.0</ele><time>2026-05-03T08:01:56Z</time></trkpt><trkpt lat="37.454553555937785" lon="14.425481370521847"><ele>554.0</ele><time>2026-05-03T08:01:58Z</time></trkpt><trkpt lat="37.454636679285045" lon="14.425517610292767"><ele>554.0</ele><time>2026-05-03T08:01:59Z</time></trkpt><trkpt lat="37.45474743832585" lon="14.425546261023825"><ele>552.3333333333333</ele><time>2026-05-03T08:02:00Z</time></trkpt><trkpt lat="37.454827312325314" lon="14.425596552176199"><ele>550.6666666666666</ele><time>2026-05-03T08:02:01Z</time></trkpt><trkpt lat="37.45490607533313" lon="14.425630040562158"><ele>549.0</ele><time>2026-05-03T08:02:02Z</time></trkpt><trkpt lat="37.454985499382" lon="14.42566343841329"><ele>547.3333333333334</ele><time>2026-05-03T08:02:03Z</time></trkpt><trkpt lat="37.455075079429314" lon="14.4257049375042"><ele>545.6666666666667</ele><time>2026-05-03T08:02:04Z</time></trkpt><trkpt lat="37.45516422774709" lon="14.425730374693917"><ele>544.0</ele><time>2026-05-03T08:02:05Z</time></trkpt><trkpt lat="37.45526585595833" lon="14.425742219754607"><ele>544.0</ele><time>2026-05-03T08:02:06Z</time></trkpt><trkpt lat="37.455352858207675" lon="14.425738494127776"><ele>544.0</ele><time>2026-05-03T08:02:07Z</time></trkpt><trkpt lat="37.45547198099568" lon="14.425721845501572"><ele>544.0</ele><time>2026-05-03T08:02:08Z</time></trkpt><trkpt lat="37.4555540018678" lon="14.425709103257056"><ele>544.0</ele><time>2026-05-03T08:02:09Z</time></trkpt><trkpt lat="37.45564732561971" lon="14.425717681289354"><ele>544.0</ele><time>2026-05-03T08:02:11Z</time></trkpt><trkpt lat="37.45569723698691" lon="14.425798619332546"><ele>542.6666666666667</ele><time>2026-05-03T08:02:13Z</time></trkpt><trkpt lat="37.45572371692578" lon="14.42587993406705"><ele>541.3333333333334</ele><time>2026-05-03T08:02:14Z</time></trkpt><trkpt lat="37.45577042603456" lon="14.425952554930994"><ele>540.0</ele><time>2026-05-03T08:02:15Z</time></trkpt><trkpt lat="37.45581002072524" lon="14.426018312314262"><ele>538.6666666666666</ele><time>2026-05-03T08:02:16Z</time></trkpt><trkpt lat="37.45589822761552" lon="14.426106595785313"><ele>537.3333333333333</ele><time>2026-05-03T08:02:18Z</time></trkpt><trkpt lat="37.455959256249024" lon="14.42605669121343"><ele>536.0</ele><time>2026-05-03T08:02:20Z</time></trkpt><trkpt lat="37.456013393260704" lon="14.426008856074596"><ele>536.0</ele><time>2026-05-03T08:02:21Z</time></trkpt><trkpt lat="37.45605583934152" lon="14.42594774901446"><ele>536.0</ele><time>2026-05-03T08:02:22Z</time></trkpt><trkpt lat="37.45610594257963" lon="14.425885395854777"><ele>536.0</ele><time>2026-05-03T08:02:23Z</time></trkpt><trkpt lat="37.45614244036498" lon="14.425813808807638"><ele>536.0</ele><time>2026-05-03T08:02:24Z</time></trkpt><trkpt lat="37.456199662128824" lon="14.425687806546067"><ele>536.0</ele><time>2026-05-03T08:02:26Z</time></trkpt><trkpt lat="37.456227915722685" lon="14.425598544580343"><ele>536.0</ele><time>2026-05-03T08:02:28Z</time></trkpt><trkpt lat="37.45626054018624" lon="14.425488733572934"><ele>533.0</ele><time>2026-05-03T08:02:30Z</time></trkpt><trkpt lat="37.456289094406735" lon="14.425375386794373"><ele>530.0</ele><time>2026-05-03T08:02:32Z</time></trkpt><trkpt lat="37.45631995205877" lon="14.42523253820988"><ele>527.0</ele><time>2026-05-03T08:02:34Z</time></trkpt><trkpt lat="37.456341324411945" lon="14.425140573004635"><ele>524.0</ele><time>2026-05-03T08:02:35Z</time></trkpt><trkpt lat="37.45635643498894" lon="14.425048903453712"><ele>521.0</ele><time>2026-05-03T08:02:36Z</time></trkpt><trkpt lat="37.45638158636149" lon="14.424968656152387"><ele>518.0</ele><time>2026-05-03T08:02:37Z</time></trkpt><trkpt lat="37.456400144023114" lon="14.424889380033598"><ele>518.0</ele><time>2026-05-03T08:02:38Z</time></trkpt><trkpt lat="37.45643711369733" lon="14.42474955811642"><ele>518.0</ele><time>2026-05-03T08:02:40Z</time></trkpt><trkpt lat="37.456474470677776" lon="14.424672930424734"><ele>518.0</ele><time>2026-05-03T08:02:42Z</time></trkpt><trkpt lat="37.456541859160815" lon="14.424622436080474"><ele>518.0</ele><time>2026-05-03T08:02:45Z</time></trkpt><trkpt lat="37.456605464958024" lon="14.424629445933997"><ele>518.0</ele><time>2026-05-03T08:02:51Z</time></trkpt><trkpt lat="37.45667136604283" lon="14.424668451057617"><ele>518.0</ele><time>2026-05-03T08:02:54Z</time></trkpt><trkpt lat="37.45673741174871" lon="14.424696676054273"><ele>518.0</ele><time>2026-05-03T08:02:56Z</time></trkpt><trkpt lat="37.45676024702772" lon="14.42477609756776"><ele>518.0</ele><time>2026-05-03T08:02:59Z</time></trkpt><trkpt lat="37.45682566740887" lon="14.425010692971842"><ele>518.0</ele><time>2026-05-03T08:04:11Z</time></trkpt><trkpt lat="37.45686064700778" lon="14.425082817035923"><ele>518.0</ele><time>2026-05-03T08:04:12Z</time></trkpt><trkpt lat="37.45688694504251" lon="14.4251550234164"><ele>518.0</ele><time>2026-05-03T08:04:13Z</time></trkpt><trkpt lat="37.45689712744677" lon="14.425283925959244"><ele>518.0</ele><time>2026-05-03T08:04:15Z</time></trkpt><trkpt lat="37.456949771043284" lon="14.42541852389147"><ele>518.0</ele><time>2026-05-03T08:04:17Z</time></trkpt><trkpt lat="37.45698772483533" lon="14.425492156530288"><ele>518.0</ele><time>2026-05-03T08:04:18Z</time></trkpt><trkpt lat="37.457008135413446" lon="14.425598095475259"><ele>518.0</ele><time>2026-05-03T08:04:20Z</time></trkpt><trkpt lat="37.457099144369174" lon="14.42558117691895"><ele>518.0</ele><time>2026-05-03T08:08:52Z</time></trkpt><trkpt lat="37.457152838585515" lon="14.425537366342787"><ele>518.0</ele><time>2026-05-03T08:08:54Z</time></trkpt><trkpt lat="37.457247356433264" lon="14.425508959659863"><ele>519.2857142857143</ele><time>2026-05-03T08:09:00Z</time></trkpt><trkpt lat="37.45730831514996" lon="14.425485049332593"><ele>520.5714285714286</ele><time>2026-05-03T08:09:02Z</time></trkpt><trkpt lat="37.45736760136788" lon="14.42543694313128"><ele>521.8571428571429</ele><time>2026-05-03T08:09:05Z</time></trkpt><trkpt lat="37.457430498178624" lon="14.425405996004265"><ele>523.1428571428571</ele><time>2026-05-03T08:09:08Z</time></trkpt><trkpt lat="37.457507795854816" lon="14.425375360974526"><ele>524.4285714285714</ele><time>2026-05-03T08:09:13Z</time></trkpt><trkpt lat="37.45757685146233" lon="14.425338618831663"><ele>525.7142857142858</ele><time>2026-05-03T08:09:16Z</time></trkpt><trkpt lat="37.45763575809479" lon="14.425298244062184"><ele>527.0</ele><time>2026-05-03T08:09:21Z</time></trkpt><trkpt lat="37.45767660787165" lon="14.425229301217422"><ele>529.2857142857143</ele><time>2026-05-03T08:09:45Z</time></trkpt><trkpt lat="37.457700394039996" lon="14.42515190713577"><ele>531.5714285714286</ele><time>2026-05-03T08:09:49Z</time></trkpt><trkpt lat="37.457701780902866" lon="14.425070213888175"><ele>533.8571428571429</ele><time>2026-05-03T08:09:51Z</time></trkpt><trkpt lat="37.45773787498611" lon="14.425001922532974"><ele>536.1428571428571</ele><time>2026-05-03T08:09:54Z</time></trkpt><trkpt lat="37.45776972481722" lon="14.424917508417845"><ele>538.4285714285714</ele><time>2026-05-03T08:09:57Z</time></trkpt><trkpt lat="37.45780001884787" lon="14.424809310305028"><ele>540.7142857142858</ele><time>2026-05-03T08:10:00Z</time></trkpt><trkpt lat="37.45782245890653" lon="14.424716735253138"><ele>543.0</ele><time>2026-05-03T08:10:02Z</time></trkpt><trkpt lat="37.45786138735756" lon="14.424617741118716"><ele>544.3333333333334</ele><time>2026-05-03T08:12:03Z</time></trkpt><trkpt lat="37.457895639230124" lon="14.42452122026757"><ele>545.6666666666666</ele><time>2026-05-03T08:12:05Z</time></trkpt><trkpt lat="37.457946319688375" lon="14.424414255361784"><ele>547.0</ele><time>2026-05-03T08:12:07Z</time></trkpt><trkpt lat="37.45800004310108" lon="14.424351099928595"><ele>548.3333333333333</ele><time>2026-05-03T08:12:09Z</time></trkpt><trkpt lat="37.458044606880556" lon="14.42429133666156"><ele>549.6666666666666</ele><time>2026-05-03T08:12:10Z</time></trkpt><trkpt lat="37.45811049791716" lon="14.424196428816394"><ele>551.0</ele><time>2026-05-03T08:12:12Z</time></trkpt><trkpt lat="37.45817276371555" lon="14.424125154144518"><ele>554.6666666666666</ele><time>2026-05-03T08:12:14Z</time></trkpt><trkpt lat="37.45822534491481" lon="14.424049588990467"><ele>558.3333333333333</ele><time>2026-05-03T08:12:16Z</time></trkpt><trkpt lat="37.45829260491889" lon="14.42394372277959"><ele>562.0</ele><time>2026-05-03T08:12:18Z</time></trkpt><trkpt lat="37.45832406053738" lon="14.42385730919581"><ele>565.6666666666666</ele><time>2026-05-03T08:12:20Z</time></trkpt><trkpt lat="37.458358381751594" lon="14.423756303808656"><ele>569.3333333333334</ele><time>2026-05-03T08:12:22Z</time></trkpt><trkpt lat="37.45839210861969" lon="14.4236535476012"><ele>573.0</ele><time>2026-05-03T08:12:24Z</time></trkpt><trkpt lat="37.4584197172783" lon="14.423537661878484"><ele>574.3333333333334</ele><time>2026-05-03T08:12:27Z</time></trkpt><trkpt lat="37.45845573342058" lon="14.423453723151155"><ele>575.6666666666666</ele><time>2026-05-03T08:12:29Z</time></trkpt><trkpt lat="37.458484016599385" lon="14.423381395809319"><ele>577.0</ele><time>2026-05-03T08:12:30Z</time></trkpt><trkpt lat="37.45855287005823" lon="14.423245876654939"><ele>578.3333333333333</ele><time>2026-05-03T08:12:32Z</time></trkpt><trkpt lat="37.458596153319256" lon="14.423172490978065"><ele>579.6666666666666</ele><time>2026-05-03T08:12:33Z</time></trkpt><trkpt lat="37.458643074724364" lon="14.423118896666528"><ele>581.0</ele><time>2026-05-03T08:12:34Z</time></trkpt><trkpt lat="37.458683072144076" lon="14.4230541423417"><ele>581.0</ele><time>2026-05-03T08:12:36Z</time></trkpt><trkpt lat="37.45875633474803" lon="14.423022044292162"><ele>581.0</ele><time>2026-05-03T08:12:39Z</time></trkpt><trkpt lat="37.458820240240016" lon="14.42297253545759"><ele>581.0</ele><time>2026-05-03T08:12:41Z</time></trkpt><trkpt lat="37.458887672824595" lon="14.422868802010465"><ele>581.0</ele><time>2026-05-03T08:13:40Z</time></trkpt><trkpt lat="37.45894847581922" lon="14.422794023521023"><ele>581.0</ele><time>2026-05-03T08:13:42Z</time></trkpt><trkpt lat="37.45899775771444" lon="14.422711319800545"><ele>581.0</ele><time>2026-05-03T08:13:44Z</time></trkpt><trkpt lat="37.459031146710785" lon="14.422642374355854"><ele>584.1666666666666</ele><time>2026-05-03T08:14:58Z</time></trkpt><trkpt lat="37.45907847093582" lon="14.422587377960681"><ele>587.3333333333333</ele><time>2026-05-03T08:15:06Z</time></trkpt><trkpt lat="37.45907695171062" lon="14.422460052654062"><ele>590.5</ele><time>2026-05-03T08:15:24Z</time></trkpt><trkpt lat="37.45908094303174" lon="14.422351597982464"><ele>593.6666666666666</ele><time>2026-05-03T08:15:26Z</time></trkpt><trkpt lat="37.45911723815005" lon="14.42227770406618"><ele>596.8333333333334</ele><time>2026-05-03T08:15:30Z</time></trkpt><trkpt lat="37.45915519933686" lon="14.42220271489809"><ele>600.0</ele><time>2026-05-03T08:15:32Z</time></trkpt><trkpt lat="37.45921348320556" lon="14.422167288403898"><ele>601.4285714285713</ele><time>2026-05-03T08:16:12Z</time></trkpt><trkpt lat="37.45918952412594" lon="14.42207307059404"><ele>602.8571428571429</ele><time>2026-05-03T08:20:40Z</time></trkpt><trkpt lat="37.45918518933858" lon="14.42198993281958"><ele>604.2857142857142</ele><time>2026-05-03T08:20:43Z</time></trkpt><trkpt lat="37.459236153149334" lon="14.421902003885924"><ele>605.7142857142857</ele><time>2026-05-03T08:20:51Z</time></trkpt><trkpt lat="37.45924344057892" lon="14.421802014779491"><ele>607.1428571428571</ele><time>2026-05-03T08:20:54Z</time></trkpt><trkpt lat="37.45925886288958" lon="14.421717641274473"><ele>608.5714285714286</ele><time>2026-05-03T08:20:57Z</time></trkpt><trkpt lat="37.45929114904968" lon="14.421645797060085"><ele>610.0</ele><time>2026-05-03T08:21:05Z</time></trkpt><trkpt lat="37.45934683026051" lon="14.4216057490384"><ele>610.0</ele><time>2026-05-03T08:21:08Z</time></trkpt><trkpt lat="37.45940328689747" lon="14.421556409325678"><ele>610.0</ele><time>2026-05-03T08:21:10Z</time></trkpt><trkpt lat="37.45946542179966" lon="14.42151978948183"><ele>610.0</ele><time>2026-05-03T08:21:12Z</time></trkpt><trkpt lat="37.45953808287729" lon="14.421492952379113"><ele>610.0</ele><time>2026-05-03T08:21:59Z</time></trkpt><trkpt lat="37.45959745181868" lon="14.421447447313824"><ele>610.0</ele><time>2026-05-03T08:22:04Z</time></trkpt><trkpt lat="37.45961511744709" lon="14.42136977476633"><ele>610.0</ele><time>2026-05-03T08:22:06Z</time></trkpt><trkpt lat="37.45966054608897" lon="14.421285885600975"><ele>610.0</ele><time>2026-05-03T08:22:09Z</time></trkpt><trkpt lat="37.45968596687849" lon="14.421213151407255"><ele>612.0</ele><time>2026-05-03T08:22:11Z</time></trkpt><trkpt lat="37.4596942097981" lon="14.421124103774261"><ele>614.0</ele><time>2026-05-03T08:22:13Z</time></trkpt><trkpt lat="37.45971050996796" lon="14.421036317934654"><ele>616.0</ele><time>2026-05-03T08:23:24Z</time></trkpt><trkpt lat="37.45973759619041" lon="14.420948111025847"><ele>618.0</ele><time>2026-05-03T08:23:26Z</time></trkpt><trkpt lat="37.45976054292436" lon="14.420863813764587"><ele>620.0</ele><time>2026-05-03T08:23:28Z</time></trkpt><trkpt lat="37.45981290775069" lon="14.420790763476557"><ele>622.0</ele><time>2026-05-03T08:23:34Z</time></trkpt><trkpt lat="37.459840494789084" lon="14.420706452975914"><ele>624.0</ele><time>2026-05-03T08:23:37Z</time></trkpt><trkpt lat="37.459868225318665" lon="14.420627111370663"><ele>624.0</ele><time>2026-05-03T08:23:40Z</time></trkpt><trkpt lat="37.45992820842982" lon="14.420600068525912"><ele>624.0</ele><time>2026-05-03T08:23:51Z</time></trkpt><trkpt lat="37.459995747842754" lon="14.420568991280662"><ele>624.0</ele><time>2026-05-03T08:24:04Z</time></trkpt><trkpt lat="37.46002000979881" lon="14.420495191694055"><ele>624.0</ele><time>2026-05-03T08:24:24Z</time></trkpt><trkpt lat="37.46008060515454" lon="14.420458179560738"><ele>624.0</ele><time>2026-05-03T08:24:27Z</time></trkpt><trkpt lat="37.460112483014086" lon="14.420373990451841"><ele>624.0</ele><time>2026-05-03T08:24:31Z</time></trkpt><trkpt lat="37.460160196446395" lon="14.420307826751309"><ele>624.0</ele><time>2026-05-03T08:24:38Z</time></trkpt><trkpt lat="37.46016500999859" lon="14.420198484886646"><ele>624.8</ele><time>2026-05-03T08:24:42Z</time></trkpt><trkpt lat="37.460166017046596" lon="14.420095929021077"><ele>625.5999999999999</ele><time>2026-05-03T08:24:45Z</time></trkpt><trkpt lat="37.46017140622842" lon="14.419998604771628"><ele>626.4</ele><time>2026-05-03T08:24:48Z</time></trkpt><trkpt lat="37.46023264865002" lon="14.419919647807323"><ele>627.1999999999999</ele><time>2026-05-03T08:24:51Z</time></trkpt><trkpt lat="37.460307335454885" lon="14.419885026615598"><ele>628.0</ele><time>2026-05-03T08:24:54Z</time></trkpt><trkpt lat="37.46044877688846" lon="14.41981940917802"><ele>628.3333333333334</ele><time>2026-05-03T08:26:16Z</time></trkpt><trkpt lat="37.46052088073951" lon="14.419789574299571"><ele>628.6666666666667</ele><time>2026-05-03T08:26:18Z</time></trkpt><trkpt lat="37.46061124073568" lon="14.419749882800167"><ele>629.0</ele><time>2026-05-03T08:26:20Z</time></trkpt><trkpt lat="37.460677343944376" lon="14.419680489360227"><ele>629.3333333333334</ele><time>2026-05-03T08:26:23Z</time></trkpt><trkpt lat="37.46073814620068" lon="14.419648704272788"><ele>629.6666666666666</ele><time>2026-05-03T08:26:25Z</time></trkpt><trkpt lat="37.46077502195613" lon="14.41958223415404"><ele>630.0</ele><time>2026-05-03T08:26:27Z</time></trkpt><trkpt lat="37.46085963447434" lon="14.419557117578377"><ele>630.0</ele><time>2026-05-03T08:26:30Z</time></trkpt><trkpt lat="37.46093254376095" lon="14.419536318006527"><ele>630.0</ele><time>2026-05-03T08:26:32Z</time></trkpt><trkpt lat="37.461014419246894" lon="14.419509507436878"><ele>630.0</ele><time>2026-05-03T08:26:35Z</time></trkpt><trkpt lat="37.46109535508098" lon="14.419528265698968"><ele>630.0</ele><time>2026-05-03T08:26:37Z</time></trkpt><trkpt lat="37.46116447083688" lon="14.419522739860096"><ele>630.0</ele><time>2026-05-03T08:26:39Z</time></trkpt><trkpt lat="37.46124030125364" lon="14.419499006772762"><ele>630.0</ele><time>2026-05-03T08:26:41Z</time></trkpt><trkpt lat="37.46131145914476" lon="14.419497127441746"><ele>630.0</ele><time>2026-05-03T08:26:43Z</time></trkpt><trkpt lat="37.46136350664411" lon="14.419399830081634"><ele>630.0</ele><time>2026-05-03T08:26:46Z</time></trkpt><trkpt lat="37.46134035440514" lon="14.419278741342843"><ele>630.0</ele><time>2026-05-03T08:26:48Z</time></trkpt><trkpt lat="37.4613054792903" lon="14.419140884831254"><ele>630.0</ele><time>2026-05-03T08:26:50Z</time></trkpt><trkpt lat="37.46127237793435" lon="14.419010862771337"><ele>630.0</ele><time>2026-05-03T08:26:52Z</time></trkpt><trkpt lat="37.46126053535177" lon="14.418858805992974"><ele>632.0</ele><time>2026-05-03T08:26:54Z</time></trkpt><trkpt lat="37.461234322923" lon="14.418729867668047"><ele>634.0</ele><time>2026-05-03T08:26:56Z</time></trkpt><trkpt lat="37.46121256788979" lon="14.418610941964399"><ele>636.0</ele><time>2026-05-03T08:26:58Z</time></trkpt><trkpt lat="37.461192457302005" lon="14.418476339553456"><ele>638.0</ele><time>2026-05-03T08:27:00Z</time></trkpt><trkpt lat="37.461172086058326" lon="14.418339992601105"><ele>640.0</ele><time>2026-05-03T08:27:02Z</time></trkpt><trkpt lat="37.461140953695065" lon="14.418200278657716"><ele>640.0</ele><time>2026-05-03T08:27:04Z</time></trkpt><trkpt lat="37.46106371639605" lon="14.418100179490024"><ele>640.0</ele><time>2026-05-03T08:27:06Z</time></trkpt><trkpt lat="37.461002314928194" lon="14.418043759490256"><ele>640.0</ele><time>2026-05-03T08:27:07Z</time></trkpt><trkpt lat="37.46094701842418" lon="14.41798606996271"><ele>640.0</ele><time>2026-05-03T08:27:08Z</time></trkpt><trkpt lat="37.460888322212234" lon="14.417945700014883"><ele>640.0</ele><time>2026-05-03T08:27:09Z</time></trkpt><trkpt lat="37.460831702012726" lon="14.417822414330244"><ele>640.0</ele><time>2026-05-03T08:27:11Z</time></trkpt><trkpt lat="37.46079475685699" lon="14.417666039024354"><ele>642.0</ele><time>2026-05-03T08:27:13Z</time></trkpt><trkpt lat="37.460775839711275" lon="14.417551813037896"><ele>644.0</ele><time>2026-05-03T08:27:15Z</time></trkpt><trkpt lat="37.460722539246675" lon="14.417506102500134"><ele>646.0</ele><time>2026-05-03T08:29:45Z</time></trkpt><trkpt lat="37.46086830172849" lon="14.41755102353803"><ele>648.0</ele><time>2026-05-03T08:31:11Z</time></trkpt><trkpt lat="37.46094874355874" lon="14.417574967779656"><ele>650.0</ele><time>2026-05-03T08:31:12Z</time></trkpt><trkpt lat="37.46105636331742" lon="14.417582555810814"><ele>650.0</ele><time>2026-05-03T08:31:13Z</time></trkpt><trkpt lat="37.46118726228609" lon="14.417596879114788"><ele>650.0</ele><time>2026-05-03T08:31:14Z</time></trkpt><trkpt lat="37.46127743796971" lon="14.417615065015722"><ele>650.0</ele><time>2026-05-03T08:31:15Z</time></trkpt><trkpt lat="37.461359107463394" lon="14.417592010331038"><ele>650.0</ele><time>2026-05-03T08:31:16Z</time></trkpt><trkpt lat="37.46145152472488" lon="14.417566247300934"><ele>650.0</ele><time>2026-05-03T08:31:17Z</time></trkpt><trkpt lat="37.46155174012821" lon="14.417510088437277"><ele>650.8333333333333</ele><time>2026-05-03T08:31:18Z</time></trkpt><trkpt lat="37.46163023081674" lon="14.417464760916348"><ele>651.6666666666666</ele><time>2026-05-03T08:31:19Z</time></trkpt><trkpt lat="37.46169693520617" lon="14.417416378634439"><ele>652.5</ele><time>2026-05-03T08:31:20Z</time></trkpt><trkpt lat="37.46176066980355" lon="14.417352071856405"><ele>653.3333333333334</ele><time>2026-05-03T08:31:21Z</time></trkpt><trkpt lat="37.46181908606732" lon="14.41727705721694"><ele>654.1666666666667</ele><time>2026-05-03T08:31:22Z</time></trkpt><trkpt lat="37.46185009609901" lon="14.417204047732136"><ele>655.0</ele><time>2026-05-03T08:31:23Z</time></trkpt><trkpt lat="37.461870267767395" lon="14.417109431279796"><ele>655.0</ele><time>2026-05-03T08:31:24Z</time></trkpt><trkpt lat="37.461876495324226" lon="14.417016866162607"><ele>655.0</ele><time>2026-05-03T08:31:25Z</time></trkpt><trkpt lat="37.4618588367487" lon="14.416936130473763"><ele>655.0</ele><time>2026-05-03T08:31:26Z</time></trkpt><trkpt lat="37.46184974148703" lon="14.416820722659871"><ele>655.0</ele><time>2026-05-03T08:31:28Z</time></trkpt><trkpt lat="37.461957007603885" lon="14.416759808070651"><ele>655.0</ele><time>2026-05-03T08:31:30Z</time></trkpt><trkpt lat="37.46203622986384" lon="14.416710962808645"><ele>655.0</ele><time>2026-05-03T08:31:31Z</time></trkpt><trkpt lat="37.462126463043326" lon="14.416655786603"><ele>655.5</ele><time>2026-05-03T08:31:32Z</time></trkpt><trkpt lat="37.462277883176526" lon="14.41655837308026"><ele>656.0</ele><time>2026-05-03T08:31:33Z</time></trkpt><trkpt lat="37.46241523108004" lon="14.4164797478238"><ele>656.5</ele><time>2026-05-03T08:31:34Z</time></trkpt><trkpt lat="37.462526773735796" lon="14.416415002747685"><ele>657.0</ele><time>2026-05-03T08:31:35Z</time></trkpt><trkpt lat="37.46266435589637" lon="14.416329478162515"><ele>657.5</ele><time>2026-05-03T08:31:36Z</time></trkpt><trkpt lat="37.462783150762974" lon="14.41624356025011"><ele>658.0</ele><time>2026-05-03T08:31:37Z</time></trkpt><trkpt lat="37.462883083439046" lon="14.416177331265034"><ele>658.5</ele><time>2026-05-03T08:31:38Z</time></trkpt><trkpt lat="37.46299463564597" lon="14.416121388616947"><ele>659.0</ele><time>2026-05-03T08:31:39Z</time></trkpt><trkpt lat="37.463095116840414" lon="14.416056419791833"><ele>660.0</ele><time>2026-05-03T08:31:40Z</time></trkpt><trkpt lat="37.463187811996754" lon="14.415992622613958"><ele>661.0</ele><time>2026-05-03T08:31:41Z</time></trkpt><trkpt lat="37.463297338400636" lon="14.415918726501923"><ele>662.0</ele><time>2026-05-03T08:31:42Z</time></trkpt><trkpt lat="37.46341799233153" lon="14.41583801839862"><ele>663.0</ele><time>2026-05-03T08:31:43Z</time></trkpt><trkpt lat="37.46352597498724" lon="14.415778309186601"><ele>663.0</ele><time>2026-05-03T08:31:44Z</time></trkpt><trkpt lat="37.4636298562194" lon="14.415715166733087"><ele>663.0</ele><time>2026-05-03T08:31:45Z</time></trkpt><trkpt lat="37.46373923852371" lon="14.415657096104317"><ele>663.0</ele><time>2026-05-03T08:31:46Z</time></trkpt><trkpt lat="37.4638281978045" lon="14.415607948300652"><ele>663.0</ele><time>2026-05-03T08:31:47Z</time></trkpt><trkpt lat="37.46392960065298" lon="14.41554060995537"><ele>663.0</ele><time>2026-05-03T08:31:48Z</time></trkpt><trkpt lat="37.464018318442236" lon="14.415465445404791"><ele>665.5999999999999</ele><time>2026-05-03T08:31:49Z</time></trkpt><trkpt lat="37.46410880197011" lon="14.415403178404318"><ele>668.1999999999999</ele><time>2026-05-03T08:31:50Z</time></trkpt><trkpt lat="37.464191977324866" lon="14.415350005034622"><ele>670.8</ele><time>2026-05-03T08:31:51Z</time></trkpt><trkpt lat="37.46428096473962" lon="14.415296813285229"><ele>673.4</ele><time>2026-05-03T08:31:52Z</time></trkpt><trkpt lat="37.46436665408881" lon="14.415235884757696"><ele>676.0</ele><time>2026-05-03T08:31:53Z</time></trkpt><trkpt lat="37.464461269512725" lon="14.415184409621869"><ele>676.0</ele><time>2026-05-03T08:31:54Z</time></trkpt><trkpt lat="37.464554245575485" lon="14.415128952346583"><ele>676.0</ele><time>2026-05-03T08:31:55Z</time></trkpt><trkpt lat="37.46464254524755" lon="14.415071662556871"><ele>676.0</ele><time>2026-05-03T08:31:56Z</time></trkpt><trkpt lat="37.4647286932205" lon="14.415007756338351"><ele>676.0</ele><time>2026-05-03T08:31:57Z</time></trkpt><trkpt lat="37.46481037624036" lon="14.414942341945368"><ele>676.0</ele><time>2026-05-03T08:31:58Z</time></trkpt><trkpt lat="37.464893206410764" lon="14.414885709574403"><ele>676.1999999999999</ele><time>2026-05-03T08:31:59Z</time></trkpt><trkpt lat="37.46497143565191" lon="14.4148252385637"><ele>676.4</ele><time>2026-05-03T08:32:00Z</time></trkpt><trkpt lat="37.465057536022094" lon="14.414788473004053"><ele>676.6</ele><time>2026-05-03T08:32:01Z</time></trkpt><trkpt lat="37.46513763540845" lon="14.414718723318453"><ele>676.8</ele><time>2026-05-03T08:32:02Z</time></trkpt><trkpt lat="37.46522726264253" lon="14.414645062810541"><ele>677.0</ele><time>2026-05-03T08:32:03Z</time></trkpt><trkpt lat="37.46531901681947" lon="14.414566104551946"><ele>679.4000000000001</ele><time>2026-05-03T08:32:04Z</time></trkpt><trkpt lat="37.46541291148427" lon="14.414501037050478"><ele>681.8000000000001</ele><time>2026-05-03T08:32:05Z</time></trkpt><trkpt lat="37.465525094448" lon="14.414458175753616"><ele>684.2</ele><time>2026-05-03T08:32:06Z</time></trkpt><trkpt lat="37.46560329463645" lon="14.414384446086048"><ele>686.6</ele><time>2026-05-03T08:32:07Z</time></trkpt><trkpt lat="37.46569440101076" lon="14.414329305931334"><ele>689.0</ele><time>2026-05-03T08:32:08Z</time></trkpt><trkpt lat="37.46578844484759" lon="14.414270795425844"><ele>689.2</ele><time>2026-05-03T08:32:09Z</time></trkpt><trkpt lat="37.46588006962361" lon="14.41419752051402"><ele>689.4000000000001</ele><time>2026-05-03T08:32:10Z</time></trkpt><trkpt lat="37.465964527994245" lon="14.414130482944962"><ele>689.6</ele><time>2026-05-03T08:32:11Z</time></trkpt><trkpt lat="37.46606774258163" lon="14.414043775770843"><ele>689.8</ele><time>2026-05-03T08:32:12Z</time></trkpt><trkpt lat="37.46616595778538" lon="14.413964564737139"><ele>690.0</ele><time>2026-05-03T08:32:13Z</time></trkpt><trkpt lat="37.46625837122345" lon="14.413892643330273"><ele>693.5</ele><time>2026-05-03T08:32:14Z</time></trkpt><trkpt lat="37.4663427899028" lon="14.413811202319797"><ele>697.0</ele><time>2026-05-03T08:32:15Z</time></trkpt><trkpt lat="37.46643629172526" lon="14.41371012841962"><ele>700.5</ele><time>2026-05-03T08:32:16Z</time></trkpt><trkpt lat="37.46652677684304" lon="14.413605593134273"><ele>704.0</ele><time>2026-05-03T08:32:17Z</time></trkpt><trkpt lat="37.46660279940263" lon="14.413498458561875"><ele>704.0</ele><time>2026-05-03T08:32:18Z</time></trkpt><trkpt lat="37.46665134868293" lon="14.413402609594163"><ele>704.0</ele><time>2026-05-03T08:32:19Z</time></trkpt><trkpt lat="37.466690209586524" lon="14.413301878253733"><ele>704.0</ele><time>2026-05-03T08:32:20Z</time></trkpt><trkpt lat="37.46672351784582" lon="14.41319364857294"><ele>704.0</ele><time>2026-05-03T08:32:21Z</time></trkpt><trkpt lat="37.46676515760993" lon="14.413090510733925"><ele>704.0</ele><time>2026-05-03T08:32:22Z</time></trkpt><trkpt lat="37.46681489775211" lon="14.412984062673258"><ele>706.4000000000001</ele><time>2026-05-03T08:32:23Z</time></trkpt><trkpt lat="37.46689225625816" lon="14.412892783529575"><ele>708.8</ele><time>2026-05-03T08:32:24Z</time></trkpt><trkpt lat="37.46697068803426" lon="14.412777564888863"><ele>711.2</ele><time>2026-05-03T08:32:25Z</time></trkpt><trkpt lat="37.467043101164435" lon="14.412678562394351"><ele>713.5999999999999</ele><time>2026-05-03T08:32:26Z</time></trkpt><trkpt lat="37.467098973893364" lon="14.412585837361252"><ele>716.0</ele><time>2026-05-03T08:32:27Z</time></trkpt><trkpt lat="37.46715487598078" lon="14.412481716174064"><ele>716.0</ele><time>2026-05-03T08:32:28Z</time></trkpt><trkpt lat="37.46722868320963" lon="14.412364718803765"><ele>716.0</ele><time>2026-05-03T08:32:29Z</time></trkpt><trkpt lat="37.46730315979413" lon="14.412254739273218"><ele>716.0</ele><time>2026-05-03T08:32:30Z</time></trkpt><trkpt lat="37.46735112566303" lon="14.412163707540142"><ele>716.0</ele><time>2026-05-03T08:32:31Z</time></trkpt><trkpt lat="37.46737372366902" lon="14.41207890496376"><ele>716.0</ele><time>2026-05-03T08:32:32Z</time></trkpt><trkpt lat="37.46739161148345" lon="14.411957468753283"><ele>717.8</ele><time>2026-05-03T08:32:34Z</time></trkpt><trkpt lat="37.46740342506333" lon="14.411821857088736"><ele>719.5999999999999</ele><time>2026-05-03T08:32:37Z</time></trkpt><trkpt lat="37.46743062463362" lon="14.411675216768584"><ele>721.4</ele><time>2026-05-03T08:32:39Z</time></trkpt><trkpt lat="37.467466023917204" lon="14.411540911314011"><ele>723.2</ele><time>2026-05-03T08:32:41Z</time></trkpt><trkpt lat="37.467484869660076" lon="14.411445643411037"><ele>725.0</ele><time>2026-05-03T08:32:42Z</time></trkpt><trkpt lat="37.46751266837111" lon="14.411329705611438"><ele>728.6</ele><time>2026-05-03T08:32:43Z</time></trkpt><trkpt lat="37.4675416510062" lon="14.411231349620872"><ele>732.2</ele><time>2026-05-03T08:32:44Z</time></trkpt><trkpt lat="37.467580639682005" lon="14.41109843147752"><ele>735.8</ele><time>2026-05-03T08:32:45Z</time></trkpt><trkpt lat="37.467617958137616" lon="14.410975256524356"><ele>739.4</ele><time>2026-05-03T08:32:46Z</time></trkpt><trkpt lat="37.4676593338522" lon="14.41084844203719"><ele>743.0</ele><time>2026-05-03T08:32:47Z</time></trkpt><trkpt lat="37.467697812784564" lon="14.410723187442724"><ele>743.0</ele><time>2026-05-03T08:32:48Z</time></trkpt><trkpt lat="37.4677329709007" lon="14.410604378406095"><ele>743.0</ele><time>2026-05-03T08:32:49Z</time></trkpt><trkpt lat="37.467775962675546" lon="14.410506907766836"><ele>743.0</ele><time>2026-05-03T08:32:50Z</time></trkpt><trkpt lat="37.46778967792193" lon="14.41042656781181"><ele>743.0</ele><time>2026-05-03T08:32:51Z</time></trkpt><trkpt lat="37.46781966703404" lon="14.410307561788164"><ele>743.0</ele><time>2026-05-03T08:32:53Z</time></trkpt><trkpt lat="37.467883932075885" lon="14.410176227570256"><ele>744.2</ele><time>2026-05-03T08:34:32Z</time></trkpt><trkpt lat="37.46789607046716" lon="14.410061831242498"><ele>745.4</ele><time>2026-05-03T08:34:34Z</time></trkpt><trkpt lat="37.46791661470327" lon="14.409954259271426"><ele>746.6</ele><time>2026-05-03T08:34:36Z</time></trkpt><trkpt lat="37.46794346514505" lon="14.409839300976179"><ele>747.8000000000001</ele><time>2026-05-03T08:34:38Z</time></trkpt><trkpt lat="37.46799154899066" lon="14.40974922741834"><ele>749.0</ele><time>2026-05-03T08:34:40Z</time></trkpt><trkpt lat="37.46803883802171" lon="14.409633925095973"><ele>746.8333333333333</ele><time>2026-05-03T08:34:42Z</time></trkpt><trkpt lat="37.46810062413298" lon="14.409523336806245"><ele>744.6666666666666</ele><time>2026-05-03T08:34:44Z</time></trkpt><trkpt lat="37.468113906554024" lon="14.409382005323332"><ele>742.5</ele><time>2026-05-03T08:34:46Z</time></trkpt><trkpt lat="37.468067305396914" lon="14.409320481228928"><ele>740.3333333333334</ele><time>2026-05-03T08:34:47Z</time></trkpt><trkpt lat="37.46799575881242" lon="14.409285925822354"><ele>738.1666666666667</ele><time>2026-05-03T08:34:48Z</time></trkpt><trkpt lat="37.46792692065719" lon="14.409251524678638"><ele>736.0</ele><time>2026-05-03T08:34:49Z</time></trkpt><trkpt lat="37.467857888310725" lon="14.409124082813824"><ele>736.0</ele><time>2026-05-03T08:34:51Z</time></trkpt><trkpt lat="37.467842446916" lon="14.40904021657718"><ele>736.0</ele><time>2026-05-03T08:34:52Z</time></trkpt><trkpt lat="37.46783325202987" lon="14.408960835526223"><ele>736.0</ele><time>2026-05-03T08:34:53Z</time></trkpt><trkpt lat="37.46784761202007" lon="14.408878775000264"><ele>736.0</ele><time>2026-05-03T08:34:54Z</time></trkpt><trkpt lat="37.46788007918468" lon="14.408798181986263"><ele>736.0</ele><time>2026-05-03T08:34:55Z</time></trkpt><trkpt lat="37.467946825843356" lon="14.408694696053548"><ele>736.0</ele><time>2026-05-03T08:34:56Z</time></trkpt><trkpt lat="37.468009195865584" lon="14.408522740691708"><ele>728.25</ele><time>2026-05-03T08:34:57Z</time></trkpt><trkpt lat="37.46807186989313" lon="14.408323508802612"><ele>720.5</ele><time>2026-05-03T08:34:58Z</time></trkpt><trkpt lat="37.46812233842968" lon="14.408180049404532"><ele>712.75</ele><time>2026-05-03T08:34:59Z</time></trkpt><trkpt lat="37.46818424798816" lon="14.408054117775643"><ele>705.0</ele><time>2026-05-03T08:35:00Z</time></trkpt><trkpt lat="37.468206016287" lon="14.407929430553683"><ele>704.0</ele><time>2026-05-03T08:35:01Z</time></trkpt><trkpt lat="37.468258382699425" lon="14.407744031827848"><ele>703.0</ele><time>2026-05-03T08:35:02Z</time></trkpt><trkpt lat="37.46829750770359" lon="14.407597766446651"><ele>702.0</ele><time>2026-05-03T08:35:03Z</time></trkpt><trkpt lat="37.46834297677751" lon="14.407469655423327"><ele>701.0</ele><time>2026-05-03T08:35:04Z</time></trkpt><trkpt lat="37.46836345353388" lon="14.407334094198307"><ele>701.0</ele><time>2026-05-03T08:35:05Z</time></trkpt><trkpt lat="37.468408050224184" lon="14.407200574802081"><ele>701.0</ele><time>2026-05-03T08:35:06Z</time></trkpt><trkpt lat="37.46845342622142" lon="14.407093049453726"><ele>701.0</ele><time>2026-05-03T08:35:07Z</time></trkpt><trkpt lat="37.468527561278094" lon="14.40702261539873"><ele>701.0</ele><time>2026-05-03T08:35:08Z</time></trkpt><trkpt lat="37.46860531627645" lon="14.40694203479565"><ele>701.0</ele><time>2026-05-03T08:35:09Z</time></trkpt><trkpt lat="37.46869159199809" lon="14.406828848997103"><ele>700.6666666666666</ele><time>2026-05-03T08:35:10Z</time></trkpt><trkpt lat="37.4687508160452" lon="14.406757516882518"><ele>700.3333333333333</ele><time>2026-05-03T08:35:11Z</time></trkpt><trkpt lat="37.46880647402296" lon="14.406717939351465"><ele>700.0</ele><time>2026-05-03T08:35:12Z</time></trkpt><trkpt lat="37.46887370219444" lon="14.406689407455005"><ele>699.6666666666666</ele><time>2026-05-03T08:35:29Z</time></trkpt><trkpt lat="37.46880236491356" lon="14.406721255388224"><ele>699.3333333333334</ele><time>2026-05-03T08:35:32Z</time></trkpt><trkpt lat="37.468766709839606" lon="14.406826593029306"><ele>699.0</ele><time>2026-05-03T08:35:33Z</time></trkpt><trkpt lat="37.46873910121192" lon="14.406926636952475"><ele>699.0</ele><time>2026-05-03T08:35:34Z</time></trkpt><trkpt lat="37.46871522169823" lon="14.407050856956468"><ele>699.0</ele><time>2026-05-03T08:35:35Z</time></trkpt><trkpt lat="37.46869851180521" lon="14.407149242781575"><ele>699.0</ele><time>2026-05-03T08:35:36Z</time></trkpt><trkpt lat="37.468706290311275" lon="14.407235714987822"><ele>699.0</ele><time>2026-05-03T08:35:37Z</time></trkpt><trkpt lat="37.468694980475284" lon="14.40737183105322"><ele>699.0</ele><time>2026-05-03T08:35:38Z</time></trkpt><trkpt lat="37.46868186230777" lon="14.407529710773217"><ele>699.4000000000001</ele><time>2026-05-03T08:35:39Z</time></trkpt><trkpt lat="37.46867146896106" lon="14.407694533313425"><ele>699.8</ele><time>2026-05-03T08:35:40Z</time></trkpt><trkpt lat="37.468669766241746" lon="14.407870613254806"><ele>700.2</ele><time>2026-05-03T08:35:41Z</time></trkpt><trkpt lat="37.46867991200634" lon="14.407967199065611"><ele>700.5999999999999</ele><time>2026-05-03T08:35:42Z</time></trkpt><trkpt lat="37.46868116991684" lon="14.408070250987917"><ele>701.0</ele><time>2026-05-03T08:35:43Z</time></trkpt><trkpt lat="37.46867954126538" lon="14.40821034944472"><ele>703.0</ele><time>2026-05-03T08:35:44Z</time></trkpt><trkpt lat="37.468673587224245" lon="14.408339834323883"><ele>705.0</ele><time>2026-05-03T08:35:45Z</time></trkpt><trkpt lat="37.46797396158974" lon="14.408600671496334"><ele>709.0</ele><time>2026-05-03T08:35:46Z</time></trkpt><trkpt lat="37.46792060220052" lon="14.408734346920774"><ele>713.0</ele><time>2026-05-03T08:35:47Z</time></trkpt><trkpt lat="37.46787922015773" lon="14.408835992473714"><ele>717.0</ele><time>2026-05-03T08:35:48Z</time></trkpt><trkpt lat="37.4678311548318" lon="14.408924046179267"><ele>721.0</ele><time>2026-05-03T08:35:49Z</time></trkpt><trkpt lat="37.46780436670978" lon="14.409012476313924"><ele>725.0</ele><time>2026-05-03T08:35:50Z</time></trkpt><trkpt lat="37.467809214172384" lon="14.409101747162193"><ele>729.0</ele><time>2026-05-03T08:35:52Z</time></trkpt><trkpt lat="37.46786943203348" lon="14.40914896421967"><ele>729.0</ele><time>2026-05-03T08:37:07Z</time></trkpt><trkpt lat="37.46785726820989" lon="14.409024780290924"><ele>729.0</ele><time>2026-05-03T08:37:14Z</time></trkpt><trkpt lat="37.467837699072945" lon="14.408922621935853"><ele>729.0</ele><time>2026-05-03T08:37:15Z</time></trkpt><trkpt lat="37.46786478885082" lon="14.408798033010601"><ele>729.0</ele><time>2026-05-03T08:37:16Z</time></trkpt><trkpt lat="37.46795423071972" lon="14.408677223812699"><ele>729.0</ele><time>2026-05-03T08:37:17Z</time></trkpt><trkpt lat="37.46800449046096" lon="14.408503915327456"><ele>723.0</ele><time>2026-05-03T08:37:18Z</time></trkpt><trkpt lat="37.46807376355599" lon="14.408350901825484"><ele>717.0</ele><time>2026-05-03T08:37:19Z</time></trkpt><trkpt lat="37.46813173333883" lon="14.408196977327199"><ele>711.0</ele><time>2026-05-03T08:37:20Z</time></trkpt><trkpt lat="37.4681819414584" lon="14.408060647943575"><ele>705.0</ele><time>2026-05-03T08:37:21Z</time></trkpt><trkpt lat="37.46822502150942" lon="14.407925617474605"><ele>704.2</ele><time>2026-05-03T08:37:22Z</time></trkpt><trkpt lat="37.46825550215338" lon="14.407790613993546"><ele>703.4</ele><time>2026-05-03T08:37:23Z</time></trkpt><trkpt lat="37.46828423831966" lon="14.407670406597234"><ele>702.5999999999999</ele><time>2026-05-03T08:37:24Z</time></trkpt><trkpt lat="37.4683117818887" lon="14.407560597600586"><ele>701.8</ele><time>2026-05-03T08:37:25Z</time></trkpt><trkpt lat="37.46834637128383" lon="14.407456153258156"><ele>701.0</ele><time>2026-05-03T08:37:26Z</time></trkpt><trkpt lat="37.46836642422418" lon="14.40733405276696"><ele>701.0</ele><time>2026-05-03T08:37:27Z</time></trkpt><trkpt lat="37.4683961914623" lon="14.407238602050043"><ele>701.0</ele><time>2026-05-03T08:37:28Z</time></trkpt><trkpt lat="37.46842588555449" lon="14.407157303655255"><ele>701.0</ele><time>2026-05-03T08:37:29Z</time></trkpt><trkpt lat="37.46847104758981" lon="14.40709532450465"><ele>701.0</ele><time>2026-05-03T08:37:30Z</time></trkpt><trkpt lat="37.468517723668185" lon="14.407036121953634"><ele>701.0</ele><time>2026-05-03T08:37:31Z</time></trkpt><trkpt lat="37.46856415740285" lon="14.406982223342398"><ele>701.0</ele><time>2026-05-03T08:37:32Z</time></trkpt><trkpt lat="37.46862322298545" lon="14.406921143625603"><ele>701.0</ele><time>2026-05-03T08:37:33Z</time></trkpt><trkpt lat="37.468682787985365" lon="14.406841482105378"><ele>700.6666666666666</ele><time>2026-05-03T08:37:34Z</time></trkpt><trkpt lat="37.46872574621033" lon="14.40678328246865"><ele>700.3333333333333</ele><time>2026-05-03T08:37:35Z</time></trkpt><trkpt lat="37.46878673126216" lon="14.406730618226202"><ele>700.0</ele><time>2026-05-03T08:37:37Z</time></trkpt><trkpt lat="37.46889622795665" lon="14.406671908138598"><ele>699.6666666666666</ele><time>2026-05-03T08:37:52Z</time></trkpt><trkpt lat="37.468936995015454" lon="14.406593120357716"><ele>699.3333333333334</ele><time>2026-05-03T08:37:53Z</time></trkpt><trkpt lat="37.46897200123856" lon="14.406498102262681"><ele>699.0</ele><time>2026-05-03T08:37:54Z</time></trkpt><trkpt lat="37.46901731026152" lon="14.406389008128045"><ele>696.75</ele><time>2026-05-03T08:37:55Z</time></trkpt><trkpt lat="37.469070607224964" lon="14.40625821075119"><ele>694.5</ele><time>2026-05-03T08:37:56Z</time></trkpt><trkpt lat="37.46912941885678" lon="14.4060919542064"><ele>692.25</ele><time>2026-05-03T08:37:57Z</time></trkpt><trkpt lat="37.46919209315064" lon="14.405924357259124"><ele>690.0</ele><time>2026-05-03T08:37:58Z</time></trkpt><trkpt lat="37.46925135454294" lon="14.405768745515468"><ele>690.0</ele><time>2026-05-03T08:37:59Z</time></trkpt><trkpt lat="37.46930811213722" lon="14.405635154952513"><ele>690.0</ele><time>2026-05-03T08:38:00Z</time></trkpt><trkpt lat="37.4693602569244" lon="14.405506634981478"><ele>690.0</ele><time>2026-05-03T08:38:01Z</time></trkpt><trkpt lat="37.46941238579771" lon="14.405387194554496"><ele>690.0</ele><time>2026-05-03T08:38:02Z</time></trkpt><trkpt lat="37.46946645611161" lon="14.405281236914437"><ele>690.0</ele><time>2026-05-03T08:38:03Z</time></trkpt><trkpt lat="37.46954365515772" lon="14.405188649022582"><ele>690.8</ele><time>2026-05-03T08:38:04Z</time></trkpt><trkpt lat="37.4696446133352" lon="14.4051410008766"><ele>691.6</ele><time>2026-05-03T08:38:05Z</time></trkpt><trkpt lat="37.469736883211276" lon="14.405095653805667"><ele>692.4000000000001</ele><time>2026-05-03T08:38:06Z</time></trkpt><trkpt lat="37.469816459959404" lon="14.405083248947125"><ele>693.2</ele><time>2026-05-03T08:38:07Z</time></trkpt><trkpt lat="37.46988721666027" lon="14.405116923371258"><ele>694.0</ele><time>2026-05-03T08:38:08Z</time></trkpt><trkpt lat="37.46994717875591" lon="14.405216649719986"><ele>694.0</ele><time>2026-05-03T08:38:09Z</time></trkpt><trkpt lat="37.470048715936834" lon="14.405290612902126"><ele>694.0</ele><time>2026-05-03T08:38:10Z</time></trkpt><trkpt lat="37.47015259853556" lon="14.405363388907533"><ele>694.0</ele><time>2026-05-03T08:38:11Z</time></trkpt><trkpt lat="37.47027183400721" lon="14.405432501962574"><ele>694.0</ele><time>2026-05-03T08:38:12Z</time></trkpt><trkpt lat="37.47039525302389" lon="14.405511554409804"><ele>694.75</ele><time>2026-05-03T08:38:13Z</time></trkpt><trkpt lat="37.470523120595445" lon="14.405578273339506"><ele>695.5</ele><time>2026-05-03T08:38:14Z</time></trkpt><trkpt lat="37.47067199976085" lon="14.405633133269866"><ele>696.25</ele><time>2026-05-03T08:38:15Z</time></trkpt><trkpt lat="37.47078554537766" lon="14.405693214171446"><ele>697.0</ele><time>2026-05-03T08:38:16Z</time></trkpt><trkpt lat="37.47090506989546" lon="14.405754033948721"><ele>697.0</ele><time>2026-05-03T08:38:17Z</time></trkpt><trkpt lat="37.4710182585129" lon="14.405829661149578"><ele>697.0</ele><time>2026-05-03T08:38:18Z</time></trkpt><trkpt lat="37.47113023317833" lon="14.405905359320421"><ele>697.0</ele><time>2026-05-03T08:38:19Z</time></trkpt><trkpt lat="37.471233100774974" lon="14.405983891675996"><ele>697.0</ele><time>2026-05-03T08:38:20Z</time></trkpt><trkpt lat="37.47135403499859" lon="14.406076233496261"><ele>697.0</ele><time>2026-05-03T08:38:21Z</time></trkpt><trkpt lat="37.47146321378957" lon="14.406158886252967"><ele>697.0</ele><time>2026-05-03T08:38:22Z</time></trkpt><trkpt lat="37.47158739608821" lon="14.406233146339618"><ele>697.0</ele><time>2026-05-03T08:38:23Z</time></trkpt><trkpt lat="37.4716775530766" lon="14.406304123103546"><ele>697.0</ele><time>2026-05-03T08:38:24Z</time></trkpt><trkpt lat="37.47176458857911" lon="14.406356365209762"><ele>697.0</ele><time>2026-05-03T08:38:25Z</time></trkpt><trkpt lat="37.4718457220872" lon="14.406384423137123"><ele>697.0</ele><time>2026-05-03T08:38:26Z</time></trkpt><trkpt lat="37.47193207998325" lon="14.406407214371852"><ele>697.0</ele><time>2026-05-03T08:38:27Z</time></trkpt><trkpt lat="37.472021322145736" lon="14.406446940662583"><ele>697.0</ele><time>2026-05-03T08:38:28Z</time></trkpt><trkpt lat="37.472106599655" lon="14.406504406794156"><ele>697.0</ele><time>2026-05-03T08:38:29Z</time></trkpt><trkpt lat="37.472203420516266" lon="14.406569617419086"><ele>700.2</ele><time>2026-05-03T08:38:30Z</time></trkpt><trkpt lat="37.472293276907536" lon="14.406630330954906"><ele>703.4000000000001</ele><time>2026-05-03T08:38:31Z</time></trkpt><trkpt lat="37.47238589092831" lon="14.40668952716934"><ele>706.5999999999999</ele><time>2026-05-03T08:38:32Z</time></trkpt><trkpt lat="37.47247722929717" lon="14.406753070481173"><ele>709.8</ele><time>2026-05-03T08:38:33Z</time></trkpt><trkpt lat="37.472563416394756" lon="14.406815104367643"><ele>713.0</ele><time>2026-05-03T08:38:34Z</time></trkpt><trkpt lat="37.47264895640024" lon="14.406860848816017"><ele>713.0</ele><time>2026-05-03T08:38:35Z</time></trkpt><trkpt lat="37.47273456475971" lon="14.40691046753148"><ele>713.0</ele><time>2026-05-03T08:38:36Z</time></trkpt><trkpt lat="37.4728107295352" lon="14.40694753039986"><ele>713.0</ele><time>2026-05-03T08:38:37Z</time></trkpt><trkpt lat="37.47288934549729" lon="14.40700490345379"><ele>713.0</ele><time>2026-05-03T08:38:38Z</time></trkpt><trkpt lat="37.47296474930977" lon="14.40703289533486"><ele>713.0</ele><time>2026-05-03T08:38:39Z</time></trkpt><trkpt lat="37.473047037411504" lon="14.407064863170914"><ele>713.0</ele><time>2026-05-03T08:38:40Z</time></trkpt><trkpt lat="37.47312508312085" lon="14.407099165294436"><ele>713.6666666666666</ele><time>2026-05-03T08:38:41Z</time></trkpt><trkpt lat="37.47320528712836" lon="14.40713153590796"><ele>714.3333333333333</ele><time>2026-05-03T08:38:42Z</time></trkpt><trkpt lat="37.47328772308642" lon="14.407169585802842"><ele>715.0</ele><time>2026-05-03T08:38:43Z</time></trkpt><trkpt lat="37.47335925683813" lon="14.407202286484232"><ele>715.6666666666666</ele><time>2026-05-03T08:38:44Z</time></trkpt><trkpt lat="37.47343074243711" lon="14.407236697798908"><ele>716.3333333333334</ele><time>2026-05-03T08:38:45Z</time></trkpt><trkpt lat="37.473501401717755" lon="14.407273792476229"><ele>717.0</ele><time>2026-05-03T08:38:46Z</time></trkpt><trkpt lat="37.47356610749627" lon="14.407308297688113"><ele>714.3333333333334</ele><time>2026-05-03T08:38:47Z</time></trkpt><trkpt lat="37.47364360303891" lon="14.407349938810698"><ele>711.6666666666666</ele><time>2026-05-03T08:38:48Z</time></trkpt><trkpt lat="37.473717835861535" lon="14.407390862039012"><ele>709.0</ele><time>2026-05-03T08:38:49Z</time></trkpt><trkpt lat="37.47379529108318" lon="14.407436108987513"><ele>706.3333333333333</ele><time>2026-05-03T08:38:50Z</time></trkpt><trkpt lat="37.47387382097176" lon="14.407483138683071"><ele>703.6666666666666</ele><time>2026-05-03T08:38:51Z</time></trkpt><trkpt lat="37.473944212132054" lon="14.407520127853877"><ele>701.0</ele><time>2026-05-03T08:38:52Z</time></trkpt><trkpt lat="37.47403070366855" lon="14.407551497678266"><ele>701.0</ele><time>2026-05-03T08:38:53Z</time></trkpt><trkpt lat="37.474113831730726" lon="14.407589541077883"><ele>701.0</ele><time>2026-05-03T08:38:54Z</time></trkpt><trkpt lat="37.47420423959714" lon="14.407605101444119"><ele>701.0</ele><time>2026-05-03T08:38:55Z</time></trkpt><trkpt lat="37.47430152176282" lon="14.40762421900472"><ele>701.0</ele><time>2026-05-03T08:38:56Z</time></trkpt><trkpt lat="37.47439997503678" lon="14.407640806590392"><ele>701.0</ele><time>2026-05-03T08:38:57Z</time></trkpt><trkpt lat="37.47449756448131" lon="14.4076563953592"><ele>700.5999999999999</ele><time>2026-05-03T08:38:58Z</time></trkpt><trkpt lat="37.474604654798476" lon="14.407673458686414"><ele>700.2</ele><time>2026-05-03T08:38:59Z</time></trkpt><trkpt lat="37.474711813965456" lon="14.407690592715882"><ele>699.8</ele><time>2026-05-03T08:39:00Z</time></trkpt><trkpt lat="37.47481553643215" lon="14.407711240030602"><ele>699.4000000000001</ele><time>2026-05-03T08:39:01Z</time></trkpt><trkpt lat="37.474902099020866" lon="14.40772334690415"><ele>699.0</ele><time>2026-05-03T08:39:02Z</time></trkpt><trkpt lat="37.474995108455815" lon="14.407725824254896"><ele>699.0</ele><time>2026-05-03T08:39:03Z</time></trkpt><trkpt lat="37.47509300759601" lon="14.407702758577976"><ele>699.0</ele><time>2026-05-03T08:39:04Z</time></trkpt><trkpt lat="37.47518666482665" lon="14.407635844831377"><ele>699.0</ele><time>2026-05-03T08:39:05Z</time></trkpt><trkpt lat="37.47529430708438" lon="14.407587330448832"><ele>699.0</ele><time>2026-05-03T08:39:06Z</time></trkpt><trkpt lat="37.475383523998296" lon="14.407514807768461"><ele>699.0</ele><time>2026-05-03T08:39:07Z</time></trkpt><trkpt lat="37.47547364408387" lon="14.407440869790394"><ele>696.6</ele><time>2026-05-03T08:39:08Z</time></trkpt><trkpt lat="37.47557263867776" lon="14.407380658678273"><ele>694.2</ele><time>2026-05-03T08:39:09Z</time></trkpt><trkpt lat="37.475670889467644" lon="14.407333835289636"><ele>691.8000000000001</ele><time>2026-05-03T08:39:10Z</time></trkpt><trkpt lat="37.47574484509746" lon="14.407275736353583"><ele>689.4000000000001</ele><time>2026-05-03T08:39:11Z</time></trkpt><trkpt lat="37.47582328999744" lon="14.407225686128244"><ele>687.0</ele><time>2026-05-03T08:39:12Z</time></trkpt><trkpt lat="37.475908340842764" lon="14.407165927216205"><ele>685.6</ele><time>2026-05-03T08:39:13Z</time></trkpt><trkpt lat="37.47599335109077" lon="14.407101874179654"><ele>684.2</ele><time>2026-05-03T08:39:14Z</time></trkpt><trkpt lat="37.47607631348768" lon="14.407037319999501"><ele>682.8</ele><time>2026-05-03T08:39:15Z</time></trkpt><trkpt lat="37.476154464568886" lon="14.406957696018265"><ele>681.4</ele><time>2026-05-03T08:39:16Z</time></trkpt><trkpt lat="37.47621658385856" lon="14.406861877338251"><ele>680.0</ele><time>2026-05-03T08:39:17Z</time></trkpt><trkpt lat="37.47627799743167" lon="14.406769769064788"><ele>680.0</ele><time>2026-05-03T08:39:18Z</time></trkpt><trkpt lat="37.47634127279391" lon="14.406678884156822"><ele>680.0</ele><time>2026-05-03T08:39:19Z</time></trkpt><trkpt lat="37.476402037056985" lon="14.406592172901643"><ele>680.0</ele><time>2026-05-03T08:39:20Z</time></trkpt><trkpt lat="37.47645999932276" lon="14.406507445250112"><ele>680.0</ele><time>2026-05-03T08:39:21Z</time></trkpt><trkpt lat="37.47653197981585" lon="14.406402202889234"><ele>680.0</ele><time>2026-05-03T08:39:22Z</time></trkpt><trkpt lat="37.47659917130589" lon="14.406296718680968"><ele>680.6</ele><time>2026-05-03T08:39:23Z</time></trkpt><trkpt lat="37.47666265617565" lon="14.406196686424453"><ele>681.2</ele><time>2026-05-03T08:39:24Z</time></trkpt><trkpt lat="37.47672395256287" lon="14.406109871294788"><ele>681.8</ele><time>2026-05-03T08:39:25Z</time></trkpt><trkpt lat="37.476790818832654" lon="14.406009633560261"><ele>682.4</ele><time>2026-05-03T08:39:26Z</time></trkpt><trkpt lat="37.47685480576762" lon="14.405917208776035"><ele>683.0</ele><time>2026-05-03T08:39:27Z</time></trkpt><trkpt lat="37.4769212755982" lon="14.405821365781863"><ele>683.0</ele><time>2026-05-03T08:39:28Z</time></trkpt><trkpt lat="37.476984334005785" lon="14.40572411916653"><ele>683.0</ele><time>2026-05-03T08:39:29Z</time></trkpt><trkpt lat="37.47704603506297" lon="14.405637181979886"><ele>683.0</ele><time>2026-05-03T08:39:30Z</time></trkpt><trkpt lat="37.47711272402059" lon="14.405555599470206"><ele>683.0</ele><time>2026-05-03T08:39:31Z</time></trkpt><trkpt lat="37.47718942107059" lon="14.40549043765542"><ele>683.0</ele><time>2026-05-03T08:39:32Z</time></trkpt><trkpt lat="37.47728301868379" lon="14.405438901068736"><ele>681.4</ele><time>2026-05-03T08:39:33Z</time></trkpt><trkpt lat="37.47739174118525" lon="14.40543173690894"><ele>679.8</ele><time>2026-05-03T08:39:34Z</time></trkpt><trkpt lat="37.47748903962296" lon="14.405407278740139"><ele>678.2</ele><time>2026-05-03T08:39:35Z</time></trkpt><trkpt lat="37.477586479728195" lon="14.405387831479942"><ele>676.6</ele><time>2026-05-03T08:39:36Z</time></trkpt><trkpt lat="37.47768106455475" lon="14.405376508506716"><ele>675.0</ele><time>2026-05-03T08:39:37Z</time></trkpt><trkpt lat="37.4777769596379" lon="14.405395504220683"><ele>675.0</ele><time>2026-05-03T08:39:38Z</time></trkpt><trkpt lat="37.477869455634185" lon="14.405438220612737"><ele>675.0</ele><time>2026-05-03T08:39:39Z</time></trkpt><trkpt lat="37.477966730562436" lon="14.405461080286406"><ele>675.0</ele><time>2026-05-03T08:39:40Z</time></trkpt><trkpt lat="37.478066742023124" lon="14.405465637192806"><ele>675.0</ele><time>2026-05-03T08:39:41Z</time></trkpt><trkpt lat="37.478148426281855" lon="14.405374633881454"><ele>675.0</ele><time>2026-05-03T08:39:42Z</time></trkpt><trkpt lat="37.47820719296691" lon="14.405244246370438"><ele>670.5</ele><time>2026-05-03T08:39:43Z</time></trkpt><trkpt lat="37.478289983760014" lon="14.40512787776492"><ele>666.0</ele><time>2026-05-03T08:39:44Z</time></trkpt><trkpt lat="37.47836584946587" lon="14.404969910565121"><ele>661.5</ele><time>2026-05-03T08:39:45Z</time></trkpt><trkpt lat="37.4784362290188" lon="14.404849657217996"><ele>657.0</ele><time>2026-05-03T08:39:46Z</time></trkpt><trkpt lat="37.47850698629151" lon="14.404729509190327"><ele>654.75</ele><time>2026-05-03T08:39:47Z</time></trkpt><trkpt lat="37.47858091737579" lon="14.404583245884455"><ele>652.5</ele><time>2026-05-03T08:39:48Z</time></trkpt><trkpt lat="37.47866751589079" lon="14.40443627747378"><ele>650.25</ele><time>2026-05-03T08:39:49Z</time></trkpt><trkpt lat="37.47875169532715" lon="14.40428837348158"><ele>648.0</ele><time>2026-05-03T08:39:50Z</time></trkpt><trkpt lat="37.478838452649505" lon="14.404135400046245"><ele>648.0</ele><time>2026-05-03T08:39:51Z</time></trkpt><trkpt lat="37.47892587332586" lon="14.40398888008048"><ele>648.0</ele><time>2026-05-03T08:39:52Z</time></trkpt><trkpt lat="37.47899911029171" lon="14.403844938205536"><ele>648.0</ele><time>2026-05-03T08:39:53Z</time></trkpt><trkpt lat="37.4790759748937" lon="14.403703529067043"><ele>648.0</ele><time>2026-05-03T08:39:54Z</time></trkpt><trkpt lat="37.4791537138302" lon="14.403566271841521"><ele>648.75</ele><time>2026-05-03T08:39:55Z</time></trkpt><trkpt lat="37.479231584649575" lon="14.403423468169029"><ele>649.5</ele><time>2026-05-03T08:39:56Z</time></trkpt><trkpt lat="37.479304806823" lon="14.403285200858994"><ele>650.25</ele><time>2026-05-03T08:39:57Z</time></trkpt><trkpt lat="37.479372363794624" lon="14.403122168594539"><ele>651.0</ele><time>2026-05-03T08:39:58Z</time></trkpt><trkpt lat="37.47943945230585" lon="14.403027901138119"><ele>651.4</ele><time>2026-05-03T08:39:59Z</time></trkpt><trkpt lat="37.479507980092784" lon="14.4029277255161"><ele>651.8</ele><time>2026-05-03T08:40:00Z</time></trkpt><trkpt lat="37.47960520544741" lon="14.402883183145168"><ele>652.1999999999999</ele><time>2026-05-03T08:40:01Z</time></trkpt><trkpt lat="37.479697979571164" lon="14.402893442612932"><ele>652.5999999999999</ele><time>2026-05-03T08:40:02Z</time></trkpt><trkpt lat="37.47978909842929" lon="14.40293054138314"><ele>653.0</ele><time>2026-05-03T08:40:03Z</time></trkpt><trkpt lat="37.479903156090444" lon="14.403000149638277"><ele>652.0</ele><time>2026-05-03T08:40:04Z</time></trkpt><trkpt lat="37.48003983861778" lon="14.403072764789801"><ele>651.0</ele><time>2026-05-03T08:40:05Z</time></trkpt><trkpt lat="37.48015638769571" lon="14.403108791486396"><ele>650.0</ele><time>2026-05-03T08:40:06Z</time></trkpt><trkpt lat="37.48025599948813" lon="14.40310608252213"><ele>649.0</ele><time>2026-05-03T08:40:07Z</time></trkpt><trkpt lat="37.48033527620312" lon="14.40301264056729"><ele>650.0</ele><time>2026-05-03T08:40:08Z</time></trkpt><trkpt lat="37.48040828962421" lon="14.402909888225903"><ele>651.0</ele><time>2026-05-03T08:40:09Z</time></trkpt><trkpt lat="37.4805074219004" lon="14.402834230463732"><ele>652.0</ele><time>2026-05-03T08:40:10Z</time></trkpt><trkpt lat="37.48060764354583" lon="14.40277936185343"><ele>653.0</ele><time>2026-05-03T08:40:11Z</time></trkpt><trkpt lat="37.48072822614872" lon="14.402751079898232"><ele>654.75</ele><time>2026-05-03T08:40:12Z</time></trkpt><trkpt lat="37.48085368430483" lon="14.402739205152079"><ele>656.5</ele><time>2026-05-03T08:40:13Z</time></trkpt><trkpt lat="37.48097853706333" lon="14.402705360217942"><ele>658.25</ele><time>2026-05-03T08:40:14Z</time></trkpt><trkpt lat="37.481094369051874" lon="14.40265592112424"><ele>660.0</ele><time>2026-05-03T08:40:15Z</time></trkpt><trkpt lat="37.481209674691755" lon="14.402607430888082"><ele>661.6</ele><time>2026-05-03T08:40:16Z</time></trkpt><trkpt lat="37.48132227875535" lon="14.402558440220107"><ele>663.2</ele><time>2026-05-03T08:40:17Z</time></trkpt><trkpt lat="37.481417849649866" lon="14.40251397709972"><ele>664.8</ele><time>2026-05-03T08:40:18Z</time></trkpt><trkpt lat="37.481502651851876" lon="14.402461356109583"><ele>666.4</ele><time>2026-05-03T08:40:19Z</time></trkpt><trkpt lat="37.48158249395429" lon="14.402412883641977"><ele>668.0</ele><time>2026-05-03T08:40:20Z</time></trkpt><trkpt lat="37.481655614777715" lon="14.40236386759942"><ele>668.0</ele><time>2026-05-03T08:40:21Z</time></trkpt><trkpt lat="37.481716106649934" lon="14.40232995589655"><ele>668.0</ele><time>2026-05-03T08:40:22Z</time></trkpt><trkpt lat="37.48183613351179" lon="14.402341741533382"><ele>668.0</ele><time>2026-05-03T08:40:24Z</time></trkpt><trkpt lat="37.48189454112256" lon="14.402400842787406"><ele>668.0</ele><time>2026-05-03T08:40:25Z</time></trkpt><trkpt lat="37.48192607223539" lon="14.402484468595613"><ele>668.0</ele><time>2026-05-03T08:40:26Z</time></trkpt><trkpt lat="37.48186616668836" lon="14.402585465492105"><ele>668.0</ele><time>2026-05-03T08:40:27Z</time></trkpt><trkpt lat="37.48185660356573" lon="14.402697865857567"><ele>668.0</ele><time>2026-05-03T08:40:28Z</time></trkpt><trkpt lat="37.48184598243296" lon="14.402817418774509"><ele>668.0</ele><time>2026-05-03T08:40:29Z</time></trkpt><trkpt lat="37.48183496774267" lon="14.40294029577921"><ele>668.0</ele><time>2026-05-03T08:40:30Z</time></trkpt><trkpt lat="37.48182162372052" lon="14.403066801528775"><ele>668.0</ele><time>2026-05-03T08:40:31Z</time></trkpt><trkpt lat="37.48182863895018" lon="14.403193115382903"><ele>668.0</ele><time>2026-05-03T08:40:32Z</time></trkpt><trkpt lat="37.48182753455431" lon="14.403312944658543"><ele>668.3333333333333</ele><time>2026-05-03T08:40:33Z</time></trkpt><trkpt lat="37.481845635783934" lon="14.403425926543695"><ele>668.6666666666666</ele><time>2026-05-03T08:40:34Z</time></trkpt><trkpt lat="37.481875718013875" lon="14.40353751171218"><ele>669.0</ele><time>2026-05-03T08:40:35Z</time></trkpt><trkpt lat="37.481907986148165" lon="14.403634601977686"><ele>669.3333333333334</ele><time>2026-05-03T08:40:36Z</time></trkpt><trkpt lat="37.48193708935003" lon="14.403732531850459"><ele>669.6666666666667</ele><time>2026-05-03T08:40:37Z</time></trkpt><trkpt lat="37.48196664095304" lon="14.403835589166391"><ele>670.0</ele><time>2026-05-03T08:40:38Z</time></trkpt><trkpt lat="37.482008745321664" lon="14.40393856646517"><ele>671.25</ele><time>2026-05-03T08:40:39Z</time></trkpt><trkpt lat="37.482064628600945" lon="14.404040154163676"><ele>672.5</ele><time>2026-05-03T08:40:40Z</time></trkpt><trkpt lat="37.482134205741126" lon="14.404138676505935"><ele>673.75</ele><time>2026-05-03T08:40:41Z</time></trkpt><trkpt lat="37.48222678539926" lon="14.404225288771375"><ele>675.0</ele><time>2026-05-03T08:40:42Z</time></trkpt><trkpt lat="37.48233567795472" lon="14.404341270207809"><ele>675.5</ele><time>2026-05-03T08:40:43Z</time></trkpt><trkpt lat="37.48244002274067" lon="14.40445676120761"><ele>676.0</ele><time>2026-05-03T08:40:44Z</time></trkpt><trkpt lat="37.482529938418345" lon="14.404559094945874"><ele>676.5</ele><time>2026-05-03T08:40:45Z</time></trkpt><trkpt lat="37.48261537765832" lon="14.404656605965002"><ele>677.0</ele><time>2026-05-03T08:40:46Z</time></trkpt><trkpt lat="37.48269475597487" lon="14.404741255289032"><ele>677.0</ele><time>2026-05-03T08:40:47Z</time></trkpt><trkpt lat="37.482763666558654" lon="14.404818231540771"><ele>677.0</ele><time>2026-05-03T08:40:48Z</time></trkpt><trkpt lat="37.482808564731414" lon="14.404912756612195"><ele>677.0</ele><time>2026-05-03T08:40:49Z</time></trkpt><trkpt lat="37.48286557340609" lon="14.405002276911732"><ele>677.0</ele><time>2026-05-03T08:40:50Z</time></trkpt><trkpt lat="37.48287565636799" lon="14.40511224826592"><ele>677.0</ele><time>2026-05-03T08:40:51Z</time></trkpt><trkpt lat="37.48286581502137" lon="14.405220313265295"><ele>677.0</ele><time>2026-05-03T08:40:52Z</time></trkpt><trkpt lat="37.48286365965851" lon="14.405343505933352"><ele>677.0</ele><time>2026-05-03T08:40:53Z</time></trkpt><trkpt lat="37.48285676872115" lon="14.40547901306648"><ele>677.0</ele><time>2026-05-03T08:40:54Z</time></trkpt><trkpt lat="37.48288805424567" lon="14.405648726146813"><ele>677.0</ele><time>2026-05-03T08:40:55Z</time></trkpt><trkpt lat="37.48286924442287" lon="14.405845294566502"><ele>677.0</ele><time>2026-05-03T08:40:56Z</time></trkpt><trkpt lat="37.48283853461502" lon="14.406058302282943"><ele>676.6666666666666</ele><time>2026-05-03T08:40:57Z</time></trkpt><trkpt lat="37.48279151922223" lon="14.406310330584061"><ele>676.3333333333334</ele><time>2026-05-03T08:40:58Z</time></trkpt><trkpt lat="37.48270773343672" lon="14.406582854774115"><ele>676.0</ele><time>2026-05-03T08:40:59Z</time></trkpt><trkpt lat="37.48266261800896" lon="14.40685878299547"><ele>676.6666666666667</ele><time>2026-05-03T08:41:00Z</time></trkpt><trkpt lat="37.482629111796435" lon="14.407115444415705"><ele>677.3333333333334</ele><time>2026-05-03T08:41:01Z</time></trkpt><trkpt lat="37.4825920154945" lon="14.407336036299204"><ele>678.0</ele><time>2026-05-03T08:41:02Z</time></trkpt><trkpt lat="37.48256483617864" lon="14.4075353213421"><ele>678.25</ele><time>2026-05-03T08:41:03Z</time></trkpt><trkpt lat="37.482566759791816" lon="14.407723702790923"><ele>678.5</ele><time>2026-05-03T08:41:04Z</time></trkpt><trkpt lat="37.48260316988291" lon="14.4078966408495"><ele>678.75</ele><time>2026-05-03T08:41:05Z</time></trkpt><trkpt lat="37.48266391391704" lon="14.408069422871206"><ele>679.0</ele><time>2026-05-03T08:41:06Z</time></trkpt><trkpt lat="37.48276206322388" lon="14.40823891378861"><ele>679.0</ele><time>2026-05-03T08:41:07Z</time></trkpt><trkpt lat="37.4828743662338" lon="14.408395817265456"><ele>679.0</ele><time>2026-05-03T08:41:08Z</time></trkpt><trkpt lat="37.48297276499199" lon="14.408517576898978"><ele>679.0</ele><time>2026-05-03T08:41:09Z</time></trkpt><trkpt lat="37.48305524380337" lon="14.408643223099615"><ele>679.0</ele><time>2026-05-03T08:41:10Z</time></trkpt><trkpt lat="37.48312486447828" lon="14.408804683230436"><ele>679.6666666666667</ele><time>2026-05-03T08:41:11Z</time></trkpt><trkpt lat="37.48314096384661" lon="14.409004447698603"><ele>680.3333333333334</ele><time>2026-05-03T08:41:12Z</time></trkpt><trkpt lat="37.48317110467817" lon="14.409206607577108"><ele>681.0</ele><time>2026-05-03T08:41:13Z</time></trkpt><trkpt lat="37.48320994517803" lon="14.409380294461368"><ele>681.0</ele><time>2026-05-03T08:41:14Z</time></trkpt><trkpt lat="37.483241962706174" lon="14.409535159822335"><ele>681.0</ele><time>2026-05-03T08:41:15Z</time></trkpt><trkpt lat="37.48329223841068" lon="14.409662153292745"><ele>681.0</ele><time>2026-05-03T08:41:16Z</time></trkpt><trkpt lat="37.483372728559814" lon="14.409776511487127"><ele>681.0</ele><time>2026-05-03T08:41:17Z</time></trkpt><trkpt lat="37.48347130215366" lon="14.409873732987"><ele>679.5</ele><time>2026-05-03T08:41:18Z</time></trkpt><trkpt lat="37.483575793401855" lon="14.409959618940613"><ele>678.0</ele><time>2026-05-03T08:41:19Z</time></trkpt><trkpt lat="37.48366851488203" lon="14.410059722668596"><ele>676.5</ele><time>2026-05-03T08:41:20Z</time></trkpt><trkpt lat="37.48375657982879" lon="14.410135947118198"><ele>675.0</ele><time>2026-05-03T08:41:21Z</time></trkpt><trkpt lat="37.483857242517" lon="14.410168781558294"><ele>674.25</ele><time>2026-05-03T08:41:22Z</time></trkpt><trkpt lat="37.483966028508945" lon="14.410184675320464"><ele>673.5</ele><time>2026-05-03T08:41:23Z</time></trkpt><trkpt lat="37.48408221232403" lon="14.410181962030594"><ele>672.75</ele><time>2026-05-03T08:41:24Z</time></trkpt><trkpt lat="37.48420465287986" lon="14.410181601719685"><ele>672.0</ele><time>2026-05-03T08:41:25Z</time></trkpt><trkpt lat="37.48430904260219" lon="14.410185310453342"><ele>672.0</ele><time>2026-05-03T08:41:26Z</time></trkpt><trkpt lat="37.48442268559408" lon="14.410190056245636"><ele>672.0</ele><time>2026-05-03T08:41:27Z</time></trkpt><trkpt lat="37.484541871725405" lon="14.41022657115978"><ele>672.0</ele><time>2026-05-03T08:41:28Z</time></trkpt><trkpt lat="37.48466078579129" lon="14.410215598157777"><ele>672.0</ele><time>2026-05-03T08:41:29Z</time></trkpt><trkpt lat="37.48479489080158" lon="14.410211573253216"><ele>671.4000000000001</ele><time>2026-05-03T08:41:30Z</time></trkpt><trkpt lat="37.484908315287896" lon="14.410201994651564"><ele>670.8000000000001</ele><time>2026-05-03T08:41:31Z</time></trkpt><trkpt lat="37.485013214320205" lon="14.410186164654233"><ele>670.2</ele><time>2026-05-03T08:41:32Z</time></trkpt><trkpt lat="37.48510834618402" lon="14.410177134635704"><ele>669.6</ele><time>2026-05-03T08:41:33Z</time></trkpt><trkpt lat="37.485207862168664" lon="14.41015752638494"><ele>669.0</ele><time>2026-05-03T08:41:34Z</time></trkpt><trkpt lat="37.485316454243794" lon="14.410143364775545"><ele>669.0</ele><time>2026-05-03T08:41:35Z</time></trkpt><trkpt lat="37.48542166589416" lon="14.410124664222623"><ele>669.0</ele><time>2026-05-03T08:41:36Z</time></trkpt><trkpt lat="37.48550972853337" lon="14.41011007506347"><ele>669.0</ele><time>2026-05-03T08:41:37Z</time></trkpt><trkpt lat="37.48559537858448" lon="14.410092277421022"><ele>669.0</ele><time>2026-05-03T08:41:38Z</time></trkpt><trkpt lat="37.48566354581007" lon="14.410084348918348"><ele>669.0</ele><time>2026-05-03T08:41:39Z</time></trkpt><trkpt lat="37.485754092266276" lon="14.41007883286026"><ele>669.0</ele><time>2026-05-03T08:41:40Z</time></trkpt><trkpt lat="37.485849510884165" lon="14.410085321571755"><ele>668.8000000000001</ele><time>2026-05-03T08:41:41Z</time></trkpt><trkpt lat="37.48593676301763" lon="14.410091309007386"><ele>668.6</ele><time>2026-05-03T08:41:42Z</time></trkpt><trkpt lat="37.48603039459763" lon="14.410102186551656"><ele>668.4</ele><time>2026-05-03T08:41:43Z</time></trkpt><trkpt lat="37.486120310495714" lon="14.410117460012328"><ele>668.2</ele><time>2026-05-03T08:41:44Z</time></trkpt><trkpt lat="37.48620593838825" lon="14.410143208665385"><ele>668.0</ele><time>2026-05-03T08:41:45Z</time></trkpt><trkpt lat="37.486299197868696" lon="14.410174571775148"><ele>666.0</ele><time>2026-05-03T08:41:46Z</time></trkpt><trkpt lat="37.486390910406875" lon="14.410216778164653"><ele>664.0</ele><time>2026-05-03T08:41:47Z</time></trkpt><trkpt lat="37.486474262261616" lon="14.410283886387646"><ele>662.0</ele><time>2026-05-03T08:41:48Z</time></trkpt><trkpt lat="37.4865545308794" lon="14.410322013552074"><ele>660.0</ele><time>2026-05-03T08:41:49Z</time></trkpt><trkpt lat="37.48663808459924" lon="14.410389639703133"><ele>658.0</ele><time>2026-05-03T08:41:50Z</time></trkpt><trkpt lat="37.486722920622235" lon="14.410463648890026"><ele>660.4</ele><time>2026-05-03T08:41:51Z</time></trkpt><trkpt lat="37.486798562221686" lon="14.410544122793498"><ele>662.8</ele><time>2026-05-03T08:41:52Z</time></trkpt><trkpt lat="37.486880755721025" lon="14.410622595610283"><ele>665.2</ele><time>2026-05-03T08:41:53Z</time></trkpt><trkpt lat="37.486955561881246" lon="14.410706890554925"><ele>667.6</ele><time>2026-05-03T08:41:54Z</time></trkpt><trkpt lat="37.487025157789795" lon="14.410787724097425"><ele>670.0</ele><time>2026-05-03T08:41:55Z</time></trkpt><trkpt lat="37.48708994315352" lon="14.410859869744073"><ele>667.3333333333334</ele><time>2026-05-03T08:41:56Z</time></trkpt><trkpt lat="37.48715397679281" lon="14.410932814325607"><ele>664.6666666666667</ele><time>2026-05-03T08:41:57Z</time></trkpt><trkpt lat="37.487218497236896" lon="14.411014781124951"><ele>662.0</ele><time>2026-05-03T08:41:58Z</time></trkpt><trkpt lat="37.48728171496728" lon="14.411086922686836"><ele>659.3333333333334</ele><time>2026-05-03T08:41:59Z</time></trkpt><trkpt lat="37.48733966755797" lon="14.411146217417702"><ele>656.6666666666666</ele><time>2026-05-03T08:42:00Z</time></trkpt><trkpt lat="37.487402047792536" lon="14.41118580852803"><ele>654.0</ele><time>2026-05-03T08:42:01Z</time></trkpt><trkpt lat="37.48747715320669" lon="14.411207293485596"><ele>654.0</ele><time>2026-05-03T08:42:02Z</time></trkpt><trkpt lat="37.487590452430894" lon="14.41125144703291"><ele>654.0</ele><time>2026-05-03T08:42:04Z</time></trkpt><trkpt lat="37.48766401019976" lon="14.4112513302712"><ele>654.0</ele><time>2026-05-03T08:42:06Z</time></trkpt><trkpt lat="37.48773925598777" lon="14.411261619147858"><ele>654.0</ele><time>2026-05-03T08:42:08Z</time></trkpt><trkpt lat="37.487818348417996" lon="14.411260800915702"><ele>654.0</ele><time>2026-05-03T08:42:10Z</time></trkpt><trkpt lat="37.4879010399636" lon="14.411251380129865"><ele>654.0</ele><time>2026-05-03T08:42:12Z</time></trkpt><trkpt lat="37.48798332942645" lon="14.411243559586694"><ele>653.5</ele><time>2026-05-03T08:42:14Z</time></trkpt><trkpt lat="37.48807518729242" lon="14.411217195235194"><ele>653.0</ele><time>2026-05-03T08:42:16Z</time></trkpt><trkpt lat="37.48816836639768" lon="14.411177768297973"><ele>652.5</ele><time>2026-05-03T08:42:18Z</time></trkpt><trkpt lat="37.48826272177123" lon="14.411127660337607"><ele>652.0</ele><time>2026-05-03T08:42:20Z</time></trkpt><trkpt lat="37.488325668977254" lon="14.411096044769147"><ele>651.5</ele><time>2026-05-03T08:42:21Z</time></trkpt><trkpt lat="37.488393697395594" lon="14.411047984350132"><ele>651.0</ele><time>2026-05-03T08:42:22Z</time></trkpt><trkpt lat="37.48847526901838" lon="14.410988681384024"><ele>651.0</ele><time>2026-05-03T08:42:23Z</time></trkpt><trkpt lat="37.488552206082744" lon="14.410903543332626"><ele>651.0</ele><time>2026-05-03T08:42:24Z</time></trkpt><trkpt lat="37.48861393716728" lon="14.410810401014624"><ele>651.0</ele><time>2026-05-03T08:42:25Z</time></trkpt><trkpt lat="37.48867078333264" lon="14.410700367615382"><ele>651.0</ele><time>2026-05-03T08:42:26Z</time></trkpt><trkpt lat="37.48871586754632" lon="14.410583155842147"><ele>651.0</ele><time>2026-05-03T08:42:27Z</time></trkpt><trkpt lat="37.48875097637214" lon="14.41046590173146"><ele>650.0</ele><time>2026-05-03T08:42:28Z</time></trkpt><trkpt lat="37.488772245533845" lon="14.410330845782072"><ele>649.0</ele><time>2026-05-03T08:42:29Z</time></trkpt><trkpt lat="37.48875532469375" lon="14.410188221344455"><ele>648.0</ele><time>2026-05-03T08:42:30Z</time></trkpt><trkpt lat="37.48870452231307" lon="14.410056000221308"><ele>647.0</ele><time>2026-05-03T08:42:31Z</time></trkpt><trkpt lat="37.48862204511571" lon="14.40990879534429"><ele>646.2</ele><time>2026-05-03T08:42:32Z</time></trkpt><trkpt lat="37.48855151214378" lon="14.409783648732537"><ele>645.4000000000001</ele><time>2026-05-03T08:42:33Z</time></trkpt><trkpt lat="37.48849399439096" lon="14.40967513869108"><ele>644.5999999999999</ele><time>2026-05-03T08:42:34Z</time></trkpt><trkpt lat="37.488440507027484" lon="14.409569998773993"><ele>643.8</ele><time>2026-05-03T08:42:35Z</time></trkpt><trkpt lat="37.48839491577451" lon="14.409469455005084"><ele>643.0</ele><time>2026-05-03T08:42:36Z</time></trkpt><trkpt lat="37.488379547620916" lon="14.40936035957459"><ele>641.6</ele><time>2026-05-03T08:42:37Z</time></trkpt><trkpt lat="37.48841583097924" lon="14.409246163898874"><ele>640.1999999999999</ele><time>2026-05-03T08:42:38Z</time></trkpt><trkpt lat="37.48846054474632" lon="14.409121184130566"><ele>638.8</ele><time>2026-05-03T08:42:39Z</time></trkpt><trkpt lat="37.488502743941325" lon="14.409008299527937"><ele>637.4</ele><time>2026-05-03T08:42:40Z</time></trkpt><trkpt lat="37.488547317005306" lon="14.408894670116398"><ele>636.0</ele><time>2026-05-03T08:42:41Z</time></trkpt><trkpt lat="37.48858016103012" lon="14.408782128845136"><ele>635.2</ele><time>2026-05-03T08:42:42Z</time></trkpt><trkpt lat="37.48861943628421" lon="14.408685464750084"><ele>634.4000000000001</ele><time>2026-05-03T08:42:43Z</time></trkpt><trkpt lat="37.48862908565329" lon="14.40858111814438"><ele>633.6</ele><time>2026-05-03T08:42:44Z</time></trkpt><trkpt lat="37.488617041301914" lon="14.408470846428791"><ele>632.8000000000001</ele><time>2026-05-03T08:42:45Z</time></trkpt><trkpt lat="37.488589324624165" lon="14.40835374902256"><ele>632.0</ele><time>2026-05-03T08:42:46Z</time></trkpt><trkpt lat="37.48855587547122" lon="14.40823026856567"><ele>632.0</ele><time>2026-05-03T08:42:47Z</time></trkpt><trkpt lat="37.48852562085617" lon="14.408110780601817"><ele>632.0</ele><time>2026-05-03T08:42:48Z</time></trkpt><trkpt lat="37.48850050126887" lon="14.407992203560633"><ele>632.0</ele><time>2026-05-03T08:42:49Z</time></trkpt><trkpt lat="37.48847787125656" lon="14.40786596291056"><ele>632.0</ele><time>2026-05-03T08:42:50Z</time></trkpt><trkpt lat="37.48845497967064" lon="14.407739211701172"><ele>632.0</ele><time>2026-05-03T08:42:51Z</time></trkpt><trkpt lat="37.488431805225936" lon="14.407614559917425"><ele>631.4</ele><time>2026-05-03T08:42:52Z</time></trkpt><trkpt lat="37.48841065808736" lon="14.407488882884472"><ele>630.8000000000001</ele><time>2026-05-03T08:42:53Z</time></trkpt><trkpt lat="37.48839133992167" lon="14.407352575095755"><ele>630.2</ele><time>2026-05-03T08:42:54Z</time></trkpt><trkpt lat="37.48837618913691" lon="14.40722218706493"><ele>629.6</ele><time>2026-05-03T08:42:55Z</time></trkpt><trkpt lat="37.488374647056574" lon="14.407075622223406"><ele>629.0</ele><time>2026-05-03T08:42:56Z</time></trkpt><trkpt lat="37.4883769712734" lon="14.406933049081166"><ele>627.8</ele><time>2026-05-03T08:42:57Z</time></trkpt><trkpt lat="37.48839008725893" lon="14.406798639206883"><ele>626.5999999999999</ele><time>2026-05-03T08:42:58Z</time></trkpt><trkpt lat="37.48837896561186" lon="14.40665457778646"><ele>625.4</ele><time>2026-05-03T08:42:59Z</time></trkpt><trkpt lat="37.488368457364864" lon="14.406510658477995"><ele>624.1999999999999</ele><time>2026-05-03T08:43:00Z</time></trkpt><trkpt lat="37.48835728570214" lon="14.406373571131368"><ele>623.0</ele><time>2026-05-03T08:43:01Z</time></trkpt><trkpt lat="37.48834154164032" lon="14.406231233931418"><ele>621.75</ele><time>2026-05-03T08:43:02Z</time></trkpt><trkpt lat="37.488332603170505" lon="14.406081974021667"><ele>620.5</ele><time>2026-05-03T08:43:03Z</time></trkpt><trkpt lat="37.488333876633334" lon="14.405939728628134"><ele>619.25</ele><time>2026-05-03T08:43:04Z</time></trkpt><trkpt lat="37.48834202307418" lon="14.405782851073198"><ele>618.0</ele><time>2026-05-03T08:43:05Z</time></trkpt><trkpt lat="37.48834839728351" lon="14.405625886662182"><ele>617.25</ele><time>2026-05-03T08:43:06Z</time></trkpt><trkpt lat="37.488354400656654" lon="14.405481769059818"><ele>616.5</ele><time>2026-05-03T08:43:07Z</time></trkpt><trkpt lat="37.48835747680661" lon="14.40533937457208"><ele>615.75</ele><time>2026-05-03T08:43:08Z</time></trkpt><trkpt lat="37.4883634891794" lon="14.405194126466785"><ele>615.0</ele><time>2026-05-03T08:43:09Z</time></trkpt><trkpt lat="37.488367426392095" lon="14.405057494026813"><ele>615.0</ele><time>2026-05-03T08:43:10Z</time></trkpt><trkpt lat="37.488374899072205" lon="14.404926616538624"><ele>615.0</ele><time>2026-05-03T08:43:11Z</time></trkpt><trkpt lat="37.48837346127554" lon="14.40483020487479"><ele>615.0</ele><time>2026-05-03T08:43:12Z</time></trkpt><trkpt lat="37.4883900333813" lon="14.404665776562153"><ele>615.0</ele><time>2026-05-03T08:43:13Z</time></trkpt><trkpt lat="37.4884098154216" lon="14.404520961374253"><ele>615.0</ele><time>2026-05-03T08:43:14Z</time></trkpt><trkpt lat="37.48846242339675" lon="14.404391401212687"><ele>614.25</ele><time>2026-05-03T08:43:15Z</time></trkpt><trkpt lat="37.48852983305952" lon="14.40426800230556"><ele>613.5</ele><time>2026-05-03T08:43:16Z</time></trkpt><trkpt lat="37.48858168889608" lon="14.404145833207236"><ele>612.75</ele><time>2026-05-03T08:43:17Z</time></trkpt><trkpt lat="37.488612536346224" lon="14.40401433110642"><ele>612.0</ele><time>2026-05-03T08:43:18Z</time></trkpt><trkpt lat="37.48863915457838" lon="14.403873182535174"><ele>611.6</ele><time>2026-05-03T08:43:19Z</time></trkpt><trkpt lat="37.488666348245985" lon="14.40372103648421"><ele>611.2</ele><time>2026-05-03T08:43:20Z</time></trkpt><trkpt lat="37.48868710833126" lon="14.403588805951866"><ele>610.8</ele><time>2026-05-03T08:43:21Z</time></trkpt><trkpt lat="37.488700938892755" lon="14.403457808929588"><ele>610.4</ele><time>2026-05-03T08:43:22Z</time></trkpt><trkpt lat="37.48871126614276" lon="14.403335598644214"><ele>610.0</ele><time>2026-05-03T08:43:23Z</time></trkpt><trkpt lat="37.48871742624981" lon="14.403208635838158"><ele>610.0</ele><time>2026-05-03T08:43:24Z</time></trkpt><trkpt lat="37.488729179757684" lon="14.40307072121041"><ele>610.0</ele><time>2026-05-03T08:43:25Z</time></trkpt><trkpt lat="37.488734828835014" lon="14.402939909180573"><ele>610.0</ele><time>2026-05-03T08:43:26Z</time></trkpt><trkpt lat="37.488740730803634" lon="14.402814836319953"><ele>610.0</ele><time>2026-05-03T08:43:27Z</time></trkpt><trkpt lat="37.48874851318598" lon="14.40269335118676"><ele>610.0</ele><time>2026-05-03T08:43:28Z</time></trkpt><trkpt lat="37.488756379147055" lon="14.4025735023369"><ele>609.1666666666667</ele><time>2026-05-03T08:43:29Z</time></trkpt><trkpt lat="37.48876048318839" lon="14.402456221681897"><ele>608.3333333333334</ele><time>2026-05-03T08:43:30Z</time></trkpt><trkpt lat="37.488769709450764" lon="14.402345456118839"><ele>607.5</ele><time>2026-05-03T08:43:31Z</time></trkpt><trkpt lat="37.48877225682613" lon="14.402237924182057"><ele>606.6666666666666</ele><time>2026-05-03T08:43:32Z</time></trkpt><trkpt lat="37.48877554712955" lon="14.402135219588155"><ele>605.8333333333333</ele><time>2026-05-03T08:43:33Z</time></trkpt><trkpt lat="37.48878103940426" lon="14.402033726796928"><ele>605.0</ele><time>2026-05-03T08:43:34Z</time></trkpt><trkpt lat="37.4887850723134" lon="14.401931073630148"><ele>604.3333333333333</ele><time>2026-05-03T08:43:35Z</time></trkpt><trkpt lat="37.48879870193806" lon="14.401830667938757"><ele>603.6666666666666</ele><time>2026-05-03T08:43:36Z</time></trkpt><trkpt lat="37.48880471046007" lon="14.401732364401422"><ele>603.0</ele><time>2026-05-03T08:43:37Z</time></trkpt><trkpt lat="37.48880662725064" lon="14.401623620327472"><ele>602.3333333333334</ele><time>2026-05-03T08:43:38Z</time></trkpt><trkpt lat="37.48881235248725" lon="14.401503811324863"><ele>601.6666666666667</ele><time>2026-05-03T08:43:39Z</time></trkpt><trkpt lat="37.488811510291875" lon="14.401395721449594"><ele>601.0</ele><time>2026-05-03T08:43:40Z</time></trkpt><trkpt lat="37.48881008523312" lon="14.40129859632788"><ele>600.8</ele><time>2026-05-03T08:43:41Z</time></trkpt><trkpt lat="37.48881384660697" lon="14.401198875155407"><ele>600.6</ele><time>2026-05-03T08:43:42Z</time></trkpt><trkpt lat="37.488817529256316" lon="14.401097902985606"><ele>600.4</ele><time>2026-05-03T08:43:43Z</time></trkpt><trkpt lat="37.488822880490915" lon="14.400984688712501"><ele>600.2</ele><time>2026-05-03T08:43:44Z</time></trkpt><trkpt lat="37.4888287396878" lon="14.400878764040392"><ele>600.0</ele><time>2026-05-03T08:43:45Z</time></trkpt><trkpt lat="37.48884038900339" lon="14.400721070579781"><ele>600.0</ele><time>2026-05-03T08:43:47Z</time></trkpt><trkpt lat="37.488863484296985" lon="14.400575509269181"><ele>600.0</ele><time>2026-05-03T08:43:49Z</time></trkpt><trkpt lat="37.48891306107125" lon="14.400427968180429"><ele>600.0</ele><time>2026-05-03T08:43:51Z</time></trkpt><trkpt lat="37.4889361197866" lon="14.400344002125228"><ele>600.0</ele><time>2026-05-03T08:43:52Z</time></trkpt><trkpt lat="37.488955613585425" lon="14.400259946022596"><ele>600.0</ele><time>2026-05-03T08:43:53Z</time></trkpt><trkpt lat="37.488985891433714" lon="14.400168381089973"><ele>599.1666666666666</ele><time>2026-05-03T08:43:54Z</time></trkpt><trkpt lat="37.48901687149686" lon="14.400074188027403"><ele>598.3333333333334</ele><time>2026-05-03T08:43:55Z</time></trkpt><trkpt lat="37.489054397525514" lon="14.399975751005448"><ele>597.5</ele><time>2026-05-03T08:43:56Z</time></trkpt><trkpt lat="37.48908902365469" lon="14.399872610338813"><ele>596.6666666666667</ele><time>2026-05-03T08:43:57Z</time></trkpt><trkpt lat="37.489120552539035" lon="14.399768457214574"><ele>595.8333333333334</ele><time>2026-05-03T08:43:58Z</time></trkpt><trkpt lat="37.48915095908472" lon="14.399655553802297"><ele>595.0</ele><time>2026-05-03T08:43:59Z</time></trkpt><trkpt lat="37.48916469164475" lon="14.399537485365379"><ele>593.8</ele><time>2026-05-03T08:44:00Z</time></trkpt><trkpt lat="37.489168285810685" lon="14.399414457459121"><ele>592.6</ele><time>2026-05-03T08:44:01Z</time></trkpt><trkpt lat="37.489170045231326" lon="14.399289477690957"><ele>591.4</ele><time>2026-05-03T08:44:02Z</time></trkpt><trkpt lat="37.48916640494956" lon="14.399156456822013"><ele>590.2</ele><time>2026-05-03T08:44:03Z</time></trkpt><trkpt lat="37.489154665116715" lon="14.399039673547334"><ele>589.0</ele><time>2026-05-03T08:44:04Z</time></trkpt><trkpt lat="37.48914842034925" lon="14.398935457866788"><ele>589.3333333333334</ele><time>2026-05-03T08:44:05Z</time></trkpt><trkpt lat="37.48913921143802" lon="14.398823575148425"><ele>589.6666666666667</ele><time>2026-05-03T08:44:06Z</time></trkpt><trkpt lat="37.48913351911544" lon="14.398720438989063"><ele>590.0</ele><time>2026-05-03T08:44:07Z</time></trkpt><trkpt lat="37.48912781516825" lon="14.398613453004213"><ele>590.3333333333334</ele><time>2026-05-03T08:44:08Z</time></trkpt><trkpt lat="37.489121019772305" lon="14.398507957174319"><ele>590.6666666666666</ele><time>2026-05-03T08:44:09Z</time></trkpt><trkpt lat="37.489117240134206" lon="14.398396811394115"><ele>591.0</ele><time>2026-05-03T08:44:10Z</time></trkpt><trkpt lat="37.489117271981875" lon="14.398279858131604"><ele>591.0</ele><time>2026-05-03T08:44:11Z</time></trkpt><trkpt lat="37.48912764458963" lon="14.398159096604386"><ele>591.0</ele><time>2026-05-03T08:44:12Z</time></trkpt><trkpt lat="37.489149425449746" lon="14.39803649916558"><ele>591.0</ele><time>2026-05-03T08:44:13Z</time></trkpt><trkpt lat="37.48917498285154" lon="14.397923390687808"><ele>591.0</ele><time>2026-05-03T08:44:14Z</time></trkpt><trkpt lat="37.48919832452671" lon="14.397805820348353"><ele>591.0</ele><time>2026-05-03T08:44:15Z</time></trkpt><trkpt lat="37.48922036586627" lon="14.39767434029337"><ele>590.4</ele><time>2026-05-03T08:44:16Z</time></trkpt><trkpt lat="37.48923971914365" lon="14.397539122425316"><ele>589.8</ele><time>2026-05-03T08:44:17Z</time></trkpt><trkpt lat="37.48926452349806" lon="14.397404929902487"><ele>589.1999999999999</ele><time>2026-05-03T08:44:18Z</time></trkpt><trkpt lat="37.489295733217986" lon="14.397266851522318"><ele>588.6</ele><time>2026-05-03T08:44:19Z</time></trkpt><trkpt lat="37.48934253630294" lon="14.397140751849664"><ele>588.0</ele><time>2026-05-03T08:44:20Z</time></trkpt><trkpt lat="37.48938560858343" lon="14.39701504971448"><ele>587.8</ele><time>2026-05-03T08:44:21Z</time></trkpt><trkpt lat="37.48941452439422" lon="14.396899482371076"><ele>587.5999999999999</ele><time>2026-05-03T08:44:22Z</time></trkpt><trkpt lat="37.4894599232777" lon="14.396794310174622"><ele>587.4000000000001</ele><time>2026-05-03T08:44:23Z</time></trkpt><trkpt lat="37.48949450628905" lon="14.396675515417927"><ele>587.2</ele><time>2026-05-03T08:44:24Z</time></trkpt><trkpt lat="37.489511794715064" lon="14.39655042267688"><ele>587.0</ele><time>2026-05-03T08:44:25Z</time></trkpt><trkpt lat="37.48955758043768" lon="14.396491361041873"><ele>587.0</ele><time>2026-05-03T08:44:26Z</time></trkpt><trkpt lat="37.48956584501555" lon="14.396345340642956"><ele>587.0</ele><time>2026-05-03T08:44:27Z</time></trkpt><trkpt lat="37.48958400393604" lon="14.396222924104313"><ele>587.0</ele><time>2026-05-03T08:44:28Z</time></trkpt><trkpt lat="37.48960532836167" lon="14.396099763002256"><ele>587.0</ele><time>2026-05-03T08:44:29Z</time></trkpt><trkpt lat="37.48962413922496" lon="14.395981407201432"><ele>587.0</ele><time>2026-05-03T08:44:30Z</time></trkpt><trkpt lat="37.48964240120926" lon="14.395868468067238"><ele>589.0</ele><time>2026-05-03T08:44:31Z</time></trkpt><trkpt lat="37.489659551018974" lon="14.395756480392816"><ele>591.0</ele><time>2026-05-03T08:44:32Z</time></trkpt><trkpt lat="37.48968058791344" lon="14.39564776787042"><ele>593.0</ele><time>2026-05-03T08:44:33Z</time></trkpt><trkpt lat="37.48970568984897" lon="14.39554459127278"><ele>595.0</ele><time>2026-05-03T08:44:34Z</time></trkpt><trkpt lat="37.48972650129295" lon="14.395441017869217"><ele>597.0</ele><time>2026-05-03T08:44:35Z</time></trkpt><trkpt lat="37.48977005103242" lon="14.39534022303531"><ele>599.0</ele><time>2026-05-03T08:44:36Z</time></trkpt><trkpt lat="37.4898298964253" lon="14.395254407230242"><ele>599.0</ele><time>2026-05-03T08:44:37Z</time></trkpt><trkpt lat="37.489897698494325" lon="14.395164686666773"><ele>599.0</ele><time>2026-05-03T08:44:38Z</time></trkpt><trkpt lat="37.4899836431308" lon="14.395096001700548"><ele>599.0</ele><time>2026-05-03T08:44:39Z</time></trkpt><trkpt lat="37.490053279876165" lon="14.395016227714889"><ele>599.0</ele><time>2026-05-03T08:44:40Z</time></trkpt><trkpt lat="37.49014020842714" lon="14.394978478855345"><ele>599.0</ele><time>2026-05-03T08:44:41Z</time></trkpt><trkpt lat="37.490218328020276" lon="14.394911481480836"><ele>599.0</ele><time>2026-05-03T08:44:42Z</time></trkpt><trkpt lat="37.49030134269026" lon="14.394878457939624"><ele>599.0</ele><time>2026-05-03T08:44:43Z</time></trkpt><trkpt lat="37.49037006328814" lon="14.394848605915554"><ele>599.0</ele><time>2026-05-03T08:44:44Z</time></trkpt><trkpt lat="37.49044465199022" lon="14.394814995355755"><ele>599.0</ele><time>2026-05-03T08:44:45Z</time></trkpt><trkpt lat="37.4905158878658" lon="14.394781006144912"><ele>599.0</ele><time>2026-05-03T08:44:46Z</time></trkpt><trkpt lat="37.49058245641958" lon="14.39474060805647"><ele>599.0</ele><time>2026-05-03T08:44:47Z</time></trkpt><trkpt lat="37.49064850561877" lon="14.394704822829771"><ele>599.8</ele><time>2026-05-03T08:44:48Z</time></trkpt><trkpt lat="37.49070994601762" lon="14.394671034357955"><ele>600.5999999999999</ele><time>2026-05-03T08:44:49Z</time></trkpt><trkpt lat="37.49077121870065" lon="14.394618661161655"><ele>601.4</ele><time>2026-05-03T08:44:50Z</time></trkpt><trkpt lat="37.4908262430852" lon="14.39455964708229"><ele>602.1999999999999</ele><time>2026-05-03T08:44:51Z</time></trkpt><trkpt lat="37.490912844749886" lon="14.394438367989988"><ele>603.0</ele><time>2026-05-03T08:44:53Z</time></trkpt><trkpt lat="37.49095752809446" lon="14.394304133975025"><ele>603.0</ele><time>2026-05-03T08:44:55Z</time></trkpt><trkpt lat="37.4909972024747" lon="14.39419705141826"><ele>603.0</ele><time>2026-05-03T08:44:57Z</time></trkpt><trkpt lat="37.491015635994266" lon="14.394097300891554"><ele>603.0</ele><time>2026-05-03T08:44:59Z</time></trkpt><trkpt lat="37.491050538516184" lon="14.393983318041325"><ele>603.0</ele><time>2026-05-03T08:45:01Z</time></trkpt><trkpt lat="37.491088743509316" lon="14.393869928853052"><ele>603.0</ele><time>2026-05-03T08:45:03Z</time></trkpt><trkpt lat="37.49112447903559" lon="14.393802654935278"><ele>603.0</ele><time>2026-05-03T08:45:04Z</time></trkpt><trkpt lat="37.49115178591439" lon="14.393724549126217"><ele>603.8</ele><time>2026-05-03T08:45:05Z</time></trkpt><trkpt lat="37.49119271844946" lon="14.393583968120982"><ele>604.5999999999999</ele><time>2026-05-03T08:45:07Z</time></trkpt><trkpt lat="37.49121402372096" lon="14.39350745101409"><ele>605.4000000000001</ele><time>2026-05-03T08:45:08Z</time></trkpt><trkpt lat="37.49126208542432" lon="14.393366390647135"><ele>606.2</ele><time>2026-05-03T08:45:10Z</time></trkpt><trkpt lat="37.491302600556274" lon="14.393230932008562"><ele>607.0</ele><time>2026-05-03T08:45:12Z</time></trkpt><trkpt lat="37.491375536582595" lon="14.39309254578716"><ele>605.8000000000001</ele><time>2026-05-03T08:45:14Z</time></trkpt><trkpt lat="37.491450887161164" lon="14.392984735053114"><ele>604.6</ele><time>2026-05-03T08:45:16Z</time></trkpt><trkpt lat="37.49155304441449" lon="14.39293770422715"><ele>603.4000000000001</ele><time>2026-05-03T08:45:18Z</time></trkpt><trkpt lat="37.49165447194703" lon="14.3928864320131"><ele>602.2</ele><time>2026-05-03T08:45:20Z</time></trkpt><trkpt lat="37.49175058468372" lon="14.392841904006417"><ele>601.0</ele><time>2026-05-03T08:45:22Z</time></trkpt><trkpt lat="37.49184098985191" lon="14.392792562315488"><ele>602.0</ele><time>2026-05-03T08:45:24Z</time></trkpt><trkpt lat="37.49209166744014" lon="14.392696416342563"><ele>603.0</ele><time>2026-05-03T08:45:31Z</time></trkpt><trkpt lat="37.49215458506817" lon="14.392669748686489"><ele>604.0</ele><time>2026-05-03T08:45:32Z</time></trkpt><trkpt lat="37.49215091102301" lon="14.39247986445777"><ele>603.25</ele><time>2026-05-03T08:45:34Z</time></trkpt><trkpt lat="37.492031408343905" lon="14.392431617902197"><ele>602.5</ele><time>2026-05-03T08:45:36Z</time></trkpt><trkpt lat="37.491901708205" lon="14.39240244619773"><ele>601.75</ele><time>2026-05-03T08:45:37Z</time></trkpt><trkpt lat="37.491739015964924" lon="14.39235474103374"><ele>601.0</ele><time>2026-05-03T08:45:38Z</time></trkpt><trkpt lat="37.491592640164676" lon="14.39234820341432"><ele>601.0</ele><time>2026-05-03T08:45:39Z</time></trkpt><trkpt lat="37.491466286144004" lon="14.3923268738134"><ele>601.0</ele><time>2026-05-03T08:45:40Z</time></trkpt><trkpt lat="37.491391659886915" lon="14.392315559956348"><ele>601.0</ele><time>2026-05-03T08:45:41Z</time></trkpt><trkpt lat="37.49132845030222" lon="14.39226273008633"><ele>601.0</ele><time>2026-05-03T08:45:45Z</time></trkpt><trkpt lat="37.49133863388583" lon="14.39208448331197"><ele>601.0</ele><time>2026-05-03T08:45:47Z</time></trkpt><trkpt lat="37.49136285975095" lon="14.391943384896635"><ele>600.0</ele><time>2026-05-03T08:45:48Z</time></trkpt><trkpt lat="37.491395299881134" lon="14.391792248454685"><ele>599.0</ele><time>2026-05-03T08:45:49Z</time></trkpt><trkpt lat="37.491420743056665" lon="14.391661735700145"><ele>598.0</ele><time>2026-05-03T08:45:50Z</time></trkpt><trkpt lat="37.49144530673653" lon="14.391534606126777"><ele>597.0</ele><time>2026-05-03T08:45:51Z</time></trkpt><trkpt lat="37.491464591487045" lon="14.39143077496123"><ele>596.0</ele><time>2026-05-03T08:45:52Z</time></trkpt><trkpt lat="37.491499729245426" lon="14.391343676858524"><ele>595.6</ele><time>2026-05-03T08:45:53Z</time></trkpt><trkpt lat="37.4915653604106" lon="14.391231092855387"><ele>595.2</ele><time>2026-05-03T08:45:54Z</time></trkpt><trkpt lat="37.49162951734231" lon="14.391125357292538"><ele>594.8</ele><time>2026-05-03T08:45:55Z</time></trkpt><trkpt lat="37.49169273627147" lon="14.390999458775934"><ele>594.4</ele><time>2026-05-03T08:45:56Z</time></trkpt><trkpt lat="37.49175448109708" lon="14.390887124226172"><ele>594.0</ele><time>2026-05-03T08:45:57Z</time></trkpt><trkpt lat="37.49181913980698" lon="14.39077924001567"><ele>594.0</ele><time>2026-05-03T08:45:58Z</time></trkpt><trkpt lat="37.491891180522686" lon="14.390655695717943"><ele>594.0</ele><time>2026-05-03T08:45:59Z</time></trkpt><trkpt lat="37.491959380420354" lon="14.39054503958374"><ele>594.0</ele><time>2026-05-03T08:46:00Z</time></trkpt><trkpt lat="37.492019262813024" lon="14.390451377531937"><ele>594.0</ele><time>2026-05-03T08:46:01Z</time></trkpt><trkpt lat="37.492070045725136" lon="14.390357496814499"><ele>594.0</ele><time>2026-05-03T08:46:02Z</time></trkpt><trkpt lat="37.492119845823055" lon="14.39026383094845"><ele>592.6666666666666</ele><time>2026-05-03T08:46:03Z</time></trkpt><trkpt lat="37.492161859165655" lon="14.390181309458383"><ele>591.3333333333334</ele><time>2026-05-03T08:46:04Z</time></trkpt><trkpt lat="37.49220673157315" lon="14.39010068228877"><ele>590.0</ele><time>2026-05-03T08:46:05Z</time></trkpt><trkpt lat="37.49224578096374" lon="14.390013126133626"><ele>588.6666666666667</ele><time>2026-05-03T08:46:06Z</time></trkpt><trkpt lat="37.49228455893256" lon="14.389936051292604"><ele>587.3333333333334</ele><time>2026-05-03T08:46:07Z</time></trkpt><trkpt lat="37.4923539341195" lon="14.389824823206657"><ele>586.0</ele><time>2026-05-03T08:46:09Z</time></trkpt><trkpt lat="37.49240839425013" lon="14.3897657382284"><ele>586.0</ele><time>2026-05-03T08:46:10Z</time></trkpt><trkpt lat="37.49248059325964" lon="14.389736280172198"><ele>586.0</ele><time>2026-05-03T08:46:11Z</time></trkpt><trkpt lat="37.492552004833605" lon="14.389790307500004"><ele>586.0</ele><time>2026-05-03T08:46:12Z</time></trkpt><trkpt lat="37.492654040085085" lon="14.389816218539776"><ele>586.0</ele><time>2026-05-03T08:46:14Z</time></trkpt><trkpt lat="37.492705143436176" lon="14.389768026766143"><ele>586.0</ele><time>2026-05-03T08:46:17Z</time></trkpt><trkpt lat="37.492715440142234" lon="14.389636082938571"><ele>586.0</ele><time>2026-05-03T08:46:20Z</time></trkpt><trkpt lat="37.492671418458215" lon="14.389499795696462"><ele>584.0</ele><time>2026-05-03T08:46:21Z</time></trkpt><trkpt lat="37.492630387060615" lon="14.389345902871433"><ele>582.0</ele><time>2026-05-03T08:46:22Z</time></trkpt><trkpt lat="37.49259630393761" lon="14.389175998364216"><ele>580.0</ele><time>2026-05-03T08:46:23Z</time></trkpt><trkpt lat="37.49256000746377" lon="14.388993065149323"><ele>578.0</ele><time>2026-05-03T08:46:24Z</time></trkpt><trkpt lat="37.49250330893218" lon="14.388846372549585"><ele>573.75</ele><time>2026-05-03T08:46:25Z</time></trkpt><trkpt lat="37.492422286926185" lon="14.388728891325865"><ele>569.5</ele><time>2026-05-03T08:46:26Z</time></trkpt><trkpt lat="37.49231009217862" lon="14.388641240390394"><ele>565.25</ele><time>2026-05-03T08:46:27Z</time></trkpt><trkpt lat="37.49217116971557" lon="14.38860733331631"><ele>561.0</ele><time>2026-05-03T08:46:28Z</time></trkpt><trkpt lat="37.492011878902616" lon="14.388616443409061"><ele>561.0</ele><time>2026-05-03T08:46:29Z</time></trkpt><trkpt lat="37.491820230246354" lon="14.388642818449723"><ele>561.0</ele><time>2026-05-03T08:46:30Z</time></trkpt><trkpt lat="37.49166296046494" lon="14.388651359769504"><ele>561.0</ele><time>2026-05-03T08:46:31Z</time></trkpt><trkpt lat="37.4915199270093" lon="14.388628900234641"><ele>561.0</ele><time>2026-05-03T08:46:32Z</time></trkpt><trkpt lat="37.49137995218004" lon="14.388534725042557"><ele>561.0</ele><time>2026-05-03T08:46:33Z</time></trkpt><trkpt lat="37.491225866824955" lon="14.388435741330063"><ele>561.0</ele><time>2026-05-03T08:46:34Z</time></trkpt><trkpt lat="37.49108443557043" lon="14.388384250576147"><ele>560.75</ele><time>2026-05-03T08:46:35Z</time></trkpt><trkpt lat="37.49094934948371" lon="14.388363524750968"><ele>560.5</ele><time>2026-05-03T08:46:36Z</time></trkpt><trkpt lat="37.49082576700172" lon="14.38835945156051"><ele>560.25</ele><time>2026-05-03T08:46:37Z</time></trkpt><trkpt lat="37.49072192971189" lon="14.388409108176628"><ele>560.0</ele><time>2026-05-03T08:46:38Z</time></trkpt><trkpt lat="37.49061181982975" lon="14.388519870260088"><ele>560.0</ele><time>2026-05-03T08:46:39Z</time></trkpt><trkpt lat="37.4904922620975" lon="14.388671166116145"><ele>560.0</ele><time>2026-05-03T08:46:40Z</time></trkpt><trkpt lat="37.49036089392372" lon="14.388838008579231"><ele>560.0</ele><time>2026-05-03T08:46:41Z</time></trkpt><trkpt lat="37.49022066533599" lon="14.389022236838077"><ele>558.3333333333333</ele><time>2026-05-03T08:46:42Z</time></trkpt><trkpt lat="37.490101326769654" lon="14.389221095434312"><ele>556.6666666666666</ele><time>2026-05-03T08:46:43Z</time></trkpt><trkpt lat="37.49000111376992" lon="14.389443450569305"><ele>555.0</ele><time>2026-05-03T08:46:44Z</time></trkpt><trkpt lat="37.48993210026844" lon="14.389645337187144"><ele>557.6666666666666</ele><time>2026-05-03T08:46:45Z</time></trkpt><trkpt lat="37.48988170537527" lon="14.389831796162499"><ele>560.3333333333333</ele><time>2026-05-03T08:46:46Z</time></trkpt><trkpt lat="37.48985410924449" lon="14.390017486591498"><ele>563.0</ele><time>2026-05-03T08:46:47Z</time></trkpt><trkpt lat="37.489857921876535" lon="14.390220157292719"><ele>563.0</ele><time>2026-05-03T08:46:48Z</time></trkpt><trkpt lat="37.489893652212416" lon="14.39044356562907"><ele>563.0</ele><time>2026-05-03T08:46:49Z</time></trkpt><trkpt lat="37.4899478709921" lon="14.390701460831153"><ele>563.0</ele><time>2026-05-03T08:46:50Z</time></trkpt><trkpt lat="37.48997193111648" lon="14.39091630240609"><ele>563.0</ele><time>2026-05-03T08:46:51Z</time></trkpt><trkpt lat="37.48994704019654" lon="14.391115119094259"><ele>563.0</ele><time>2026-05-03T08:46:52Z</time></trkpt><trkpt lat="37.48993093101349" lon="14.391295753796152"><ele>563.0</ele><time>2026-05-03T08:46:53Z</time></trkpt><trkpt lat="37.489915190815275" lon="14.391456684707368"><ele>563.0</ele><time>2026-05-03T08:46:54Z</time></trkpt><trkpt lat="37.48988938494501" lon="14.391579044527171"><ele>563.0</ele><time>2026-05-03T08:46:55Z</time></trkpt><trkpt lat="37.489849699176325" lon="14.391684515611555"><ele>563.0</ele><time>2026-05-03T08:46:56Z</time></trkpt><trkpt lat="37.489786327368684" lon="14.391756421130466"><ele>563.0</ele><time>2026-05-03T08:46:57Z</time></trkpt><trkpt lat="37.48970599583718" lon="14.39179916683691"><ele>563.0</ele><time>2026-05-03T08:46:58Z</time></trkpt><trkpt lat="37.48961933297591" lon="14.391798664942458"><ele>563.0</ele><time>2026-05-03T08:46:59Z</time></trkpt><trkpt lat="37.489509505051736" lon="14.391810172742241"><ele>561.8</ele><time>2026-05-03T08:47:00Z</time></trkpt><trkpt lat="37.48941700968135" lon="14.391788952767662"><ele>560.5999999999999</ele><time>2026-05-03T08:47:01Z</time></trkpt><trkpt lat="37.48933671968396" lon="14.391745150877583"><ele>559.4000000000001</ele><time>2026-05-03T08:47:02Z</time></trkpt><trkpt lat="37.48925943911902" lon="14.39166194259338"><ele>558.2</ele><time>2026-05-03T08:47:03Z</time></trkpt><trkpt lat="37.4892102877044" lon="14.391521160194516"><ele>557.0</ele><time>2026-05-03T08:47:04Z</time></trkpt><trkpt lat="37.48914159832521" lon="14.391336688216052"><ele>555.6666666666666</ele><time>2026-05-03T08:47:05Z</time></trkpt><trkpt lat="37.489052291639986" lon="14.39113037084792"><ele>554.3333333333334</ele><time>2026-05-03T08:47:06Z</time></trkpt><trkpt lat="37.48896976968409" lon="14.390930782556838"><ele>553.0</ele><time>2026-05-03T08:47:07Z</time></trkpt><trkpt lat="37.488903246024655" lon="14.390748610331714"><ele>553.0</ele><time>2026-05-03T08:47:08Z</time></trkpt><trkpt lat="37.48886195529886" lon="14.390561613791442"><ele>553.0</ele><time>2026-05-03T08:47:09Z</time></trkpt><trkpt lat="37.4888114090585" lon="14.390379362775265"><ele>553.0</ele><time>2026-05-03T08:47:10Z</time></trkpt><trkpt lat="37.4887896562641" lon="14.390169024352982"><ele>552.75</ele><time>2026-05-03T08:47:11Z</time></trkpt><trkpt lat="37.488756210177115" lon="14.389961803934419"><ele>552.5</ele><time>2026-05-03T08:47:12Z</time></trkpt><trkpt lat="37.48872391082133" lon="14.389791886174596"><ele>552.25</ele><time>2026-05-03T08:47:13Z</time></trkpt><trkpt lat="37.488678193225915" lon="14.38964067352489"><ele>552.0</ele><time>2026-05-03T08:47:14Z</time></trkpt><trkpt lat="37.48859619650185" lon="14.38950284149046"><ele>552.0</ele><time>2026-05-03T08:47:15Z</time></trkpt><trkpt lat="37.488477287020416" lon="14.389372976862333"><ele>552.0</ele><time>2026-05-03T08:47:16Z</time></trkpt><trkpt lat="37.48833828703867" lon="14.389265205274986"><ele>552.0</ele><time>2026-05-03T08:47:17Z</time></trkpt><trkpt lat="37.48817369243562" lon="14.389152049834703"><ele>552.0</ele><time>2026-05-03T08:47:18Z</time></trkpt><trkpt lat="37.48799590178729" lon="14.389052837649881"><ele>552.0</ele><time>2026-05-03T08:47:19Z</time></trkpt><trkpt lat="37.48783115080705" lon="14.388948659541295"><ele>552.0</ele><time>2026-05-03T08:47:20Z</time></trkpt><trkpt lat="37.48768615107999" lon="14.388859180650666"><ele>551.8000000000001</ele><time>2026-05-03T08:47:21Z</time></trkpt><trkpt lat="37.48758122152753" lon="14.388775525400478"><ele>551.6</ele><time>2026-05-03T08:47:22Z</time></trkpt><trkpt lat="37.48750931653649" lon="14.388670319799708"><ele>551.4000000000001</ele><time>2026-05-03T08:47:23Z</time></trkpt><trkpt lat="37.48749632816878" lon="14.388554410490615"><ele>551.2</ele><time>2026-05-03T08:47:24Z</time></trkpt><trkpt lat="37.48748905625405" lon="14.38844956213227"><ele>551.0</ele><time>2026-05-03T08:47:25Z</time></trkpt><trkpt lat="37.48751674061883" lon="14.388348651268648"><ele>551.0</ele><time>2026-05-03T08:47:27Z</time></trkpt><trkpt lat="37.48750721997827" lon="14.388264347006604"><ele>551.0</ele><time>2026-05-03T08:47:30Z</time></trkpt><trkpt lat="37.487387637256845" lon="14.388201636962924"><ele>551.0</ele><time>2026-05-03T08:47:31Z</time></trkpt><trkpt lat="37.487313200117484" lon="14.388164253499527"><ele>551.0</ele><time>2026-05-03T08:47:32Z</time></trkpt><trkpt lat="37.48725224844884" lon="14.388117287686628"><ele>551.0</ele><time>2026-05-03T08:47:33Z</time></trkpt><trkpt lat="37.4871921679143" lon="14.388083828356654"><ele>551.0</ele><time>2026-05-03T08:47:34Z</time></trkpt><trkpt lat="37.487117417390074" lon="14.388069070134774"><ele>554.25</ele><time>2026-05-03T08:47:35Z</time></trkpt><trkpt lat="37.48700391609632" lon="14.388087574542844"><ele>557.5</ele><time>2026-05-03T08:47:37Z</time></trkpt><trkpt lat="37.48687530345235" lon="14.388085471645693"><ele>560.75</ele><time>2026-05-03T08:47:39Z</time></trkpt><trkpt lat="37.4867656875677" lon="14.388060899513848"><ele>564.0</ele><time>2026-05-03T08:47:40Z</time></trkpt><trkpt lat="37.48663621508898" lon="14.388051442534632"><ele>564.0</ele><time>2026-05-03T08:47:41Z</time></trkpt><trkpt lat="37.48648382112172" lon="14.388039275688335"><ele>564.0</ele><time>2026-05-03T08:47:42Z</time></trkpt><trkpt lat="37.48629361327778" lon="14.388027543833292"><ele>564.0</ele><time>2026-05-03T08:47:43Z</time></trkpt><trkpt lat="37.48608877395869" lon="14.388018601080386"><ele>560.3333333333334</ele><time>2026-05-03T08:47:44Z</time></trkpt><trkpt lat="37.485935147723346" lon="14.38798929487449"><ele>556.6666666666667</ele><time>2026-05-03T08:47:45Z</time></trkpt><trkpt lat="37.48579502064321" lon="14.387912889745989"><ele>553.0</ele><time>2026-05-03T08:47:46Z</time></trkpt><trkpt lat="37.48563461054065" lon="14.387904297451499"><ele>553.0</ele><time>2026-05-03T08:47:47Z</time></trkpt><trkpt lat="37.4855352276972" lon="14.38767624910429"><ele>553.0</ele><time>2026-05-03T08:47:48Z</time></trkpt><trkpt lat="37.48543026447946" lon="14.38751690583549"><ele>553.0</ele><time>2026-05-03T08:47:49Z</time></trkpt><trkpt lat="37.48534017359433" lon="14.387316461578788"><ele>557.6666666666667</ele><time>2026-05-03T08:47:50Z</time></trkpt><trkpt lat="37.48528573992516" lon="14.387087720393078"><ele>562.3333333333334</ele><time>2026-05-03T08:47:51Z</time></trkpt><trkpt lat="37.4852572021788" lon="14.386839337654957"><ele>567.0</ele><time>2026-05-03T08:47:52Z</time></trkpt><trkpt lat="37.485256767194066" lon="14.386588786992961"><ele>567.3333333333334</ele><time>2026-05-03T08:47:53Z</time></trkpt><trkpt lat="37.48526565206006" lon="14.386327299357104"><ele>567.6666666666667</ele><time>2026-05-03T08:47:54Z</time></trkpt><trkpt lat="37.48527750153568" lon="14.386066471751548"><ele>568.0</ele><time>2026-05-03T08:47:55Z</time></trkpt><trkpt lat="37.48528226153708" lon="14.385780563372991"><ele>568.6666666666667</ele><time>2026-05-03T08:47:56Z</time></trkpt><trkpt lat="37.485297783664635" lon="14.385499357967081"><ele>569.3333333333334</ele><time>2026-05-03T08:47:57Z</time></trkpt><trkpt lat="37.48530875071475" lon="14.385227128041775"><ele>570.0</ele><time>2026-05-03T08:47:58Z</time></trkpt><trkpt lat="37.485319613870665" lon="14.384964946984747"><ele>570.0</ele><time>2026-05-03T08:47:59Z</time></trkpt><trkpt lat="37.4853205636375" lon="14.384699511520692"><ele>570.0</ele><time>2026-05-03T08:48:00Z</time></trkpt><trkpt lat="37.48532245032101" lon="14.384446243302904"><ele>570.0</ele><time>2026-05-03T08:48:01Z</time></trkpt><trkpt lat="37.48532237901848" lon="14.384199782867992"><ele>571.0</ele><time>2026-05-03T08:48:02Z</time></trkpt><trkpt lat="37.485321201671894" lon="14.383960729872559"><ele>572.0</ele><time>2026-05-03T08:48:03Z</time></trkpt><trkpt lat="37.48531975145796" lon="14.383723183172435"><ele>573.0</ele><time>2026-05-03T08:48:04Z</time></trkpt><trkpt lat="37.485313830636365" lon="14.38348858074502"><ele>574.6666666666666</ele><time>2026-05-03T08:48:05Z</time></trkpt><trkpt lat="37.48530943159632" lon="14.38325764741491"><ele>576.3333333333333</ele><time>2026-05-03T08:48:06Z</time></trkpt><trkpt lat="37.485308235014315" lon="14.38303160173617"><ele>578.0</ele><time>2026-05-03T08:48:07Z</time></trkpt><trkpt lat="37.48530377316308" lon="14.38280834458329"><ele>578.3333333333333</ele><time>2026-05-03T08:48:08Z</time></trkpt><trkpt lat="37.48529890481611" lon="14.382588070694553"><ele>578.6666666666666</ele><time>2026-05-03T08:48:09Z</time></trkpt><trkpt lat="37.48529500672997" lon="14.382364117403572"><ele>579.0</ele><time>2026-05-03T08:48:10Z</time></trkpt><trkpt lat="37.48529130232971" lon="14.382142827693675"><ele>581.0</ele><time>2026-05-03T08:48:11Z</time></trkpt><trkpt lat="37.48528055922821" lon="14.381917272654913"><ele>583.0</ele><time>2026-05-03T08:48:12Z</time></trkpt><trkpt lat="37.48526558690698" lon="14.381688347242962"><ele>585.0</ele><time>2026-05-03T08:48:13Z</time></trkpt><trkpt lat="37.485239924178664" lon="14.381452871831586"><ele>585.0</ele><time>2026-05-03T08:48:14Z</time></trkpt><trkpt lat="37.48519796936677" lon="14.381222354349328"><ele>585.0</ele><time>2026-05-03T08:48:15Z</time></trkpt><trkpt lat="37.48514982195847" lon="14.380996193499909"><ele>585.0</ele><time>2026-05-03T08:48:16Z</time></trkpt><trkpt lat="37.485095274800564" lon="14.38077620805451"><ele>585.0</ele><time>2026-05-03T08:48:17Z</time></trkpt><trkpt lat="37.48502595017765" lon="14.380561952476901"><ele>585.0</ele><time>2026-05-03T08:48:18Z</time></trkpt><trkpt lat="37.48494889944098" lon="14.38035698513083"><ele>585.0</ele><time>2026-05-03T08:48:19Z</time></trkpt><trkpt lat="37.48486208728193" lon="14.380161846541684"><ele>584.6666666666666</ele><time>2026-05-03T08:48:20Z</time></trkpt><trkpt lat="37.484762215764896" lon="14.379974315035492"><ele>584.3333333333333</ele><time>2026-05-03T08:48:21Z</time></trkpt><trkpt lat="37.484660316963776" lon="14.379790293370226"><ele>584.0</ele><time>2026-05-03T08:48:22Z</time></trkpt><trkpt lat="37.4845480248129" lon="14.379610222482118"><ele>586.0</ele><time>2026-05-03T08:48:23Z</time></trkpt><trkpt lat="37.48441775347576" lon="14.379440799167675"><ele>588.0</ele><time>2026-05-03T08:48:24Z</time></trkpt><trkpt lat="37.4842712906773" lon="14.37928660295109"><ele>590.0</ele><time>2026-05-03T08:48:25Z</time></trkpt><trkpt lat="37.48412795434623" lon="14.379136704387365"><ele>590.0</ele><time>2026-05-03T08:48:26Z</time></trkpt><trkpt lat="37.48397640638605" lon="14.378995909313982"><ele>590.0</ele><time>2026-05-03T08:48:27Z</time></trkpt><trkpt lat="37.48382001650855" lon="14.378875892159389"><ele>590.0</ele><time>2026-05-03T08:48:28Z</time></trkpt><trkpt lat="37.48365977736491" lon="14.378760843327388"><ele>590.6666666666666</ele><time>2026-05-03T08:48:29Z</time></trkpt><trkpt lat="37.48348916055324" lon="14.378659293828107"><ele>591.3333333333334</ele><time>2026-05-03T08:48:30Z</time></trkpt><trkpt lat="37.48331611542271" lon="14.37857016477925"><ele>592.0</ele><time>2026-05-03T08:48:31Z</time></trkpt><trkpt lat="37.48314790476823" lon="14.378481330661607"><ele>592.0</ele><time>2026-05-03T08:48:32Z</time></trkpt><trkpt lat="37.482984495989946" lon="14.378371556935988"><ele>592.0</ele><time>2026-05-03T08:48:33Z</time></trkpt><trkpt lat="37.48282749741521" lon="14.378244978342012"><ele>592.0</ele><time>2026-05-03T08:48:34Z</time></trkpt><trkpt lat="37.48268717725447" lon="14.378110815234676"><ele>592.3333333333334</ele><time>2026-05-03T08:48:35Z</time></trkpt><trkpt lat="37.48255251495553" lon="14.3779709013314"><ele>592.6666666666666</ele><time>2026-05-03T08:48:36Z</time></trkpt><trkpt lat="37.48242625987601" lon="14.377810819123177"><ele>593.0</ele><time>2026-05-03T08:48:37Z</time></trkpt><trkpt lat="37.482306630151555" lon="14.37764295818719"><ele>593.0</ele><time>2026-05-03T08:48:38Z</time></trkpt><trkpt lat="37.482197363259175" lon="14.37746644259555"><ele>593.0</ele><time>2026-05-03T08:48:39Z</time></trkpt><trkpt lat="37.48209337300319" lon="14.377278365828545"><ele>593.0</ele><time>2026-05-03T08:48:40Z</time></trkpt><trkpt lat="37.48200387469864" lon="14.377083295963114"><ele>595.6666666666666</ele><time>2026-05-03T08:48:41Z</time></trkpt><trkpt lat="37.48192191408521" lon="14.376877575359398"><ele>598.3333333333334</ele><time>2026-05-03T08:48:42Z</time></trkpt><trkpt lat="37.48184918103605" lon="14.376662947539938"><ele>601.0</ele><time>2026-05-03T08:48:43Z</time></trkpt><trkpt lat="37.48178790224937" lon="14.376445158870114"><ele>603.0</ele><time>2026-05-03T08:48:44Z</time></trkpt><trkpt lat="37.48173880962056" lon="14.37621981065625"><ele>605.0</ele><time>2026-05-03T08:48:45Z</time></trkpt><trkpt lat="37.48171105442242" lon="14.3759884322388"><ele>607.0</ele><time>2026-05-03T08:48:46Z</time></trkpt><trkpt lat="37.48169026929603" lon="14.375751228073192"><ele>609.6666666666667</ele><time>2026-05-03T08:48:47Z</time></trkpt><trkpt lat="37.48167503614539" lon="14.375517011540902"><ele>612.3333333333334</ele><time>2026-05-03T08:48:48Z</time></trkpt><trkpt lat="37.48167392054354" lon="14.375284118073123"><ele>615.0</ele><time>2026-05-03T08:48:49Z</time></trkpt><trkpt lat="37.48168904702083" lon="14.375048360361669"><ele>615.0</ele><time>2026-05-03T08:48:50Z</time></trkpt><trkpt lat="37.481712099608075" lon="14.374808707558087"><ele>615.0</ele><time>2026-05-03T08:48:51Z</time></trkpt><trkpt lat="37.481748600957395" lon="14.374577777099882"><ele>615.0</ele><time>2026-05-03T08:48:52Z</time></trkpt><trkpt lat="37.481795398254576" lon="14.374347059520119"><ele>616.3333333333334</ele><time>2026-05-03T08:48:53Z</time></trkpt><trkpt lat="37.4818618462846" lon="14.374119991743289"><ele>617.6666666666667</ele><time>2026-05-03T08:48:54Z</time></trkpt><trkpt lat="37.4819413245414" lon="14.373898571216893"><ele>619.0</ele><time>2026-05-03T08:48:55Z</time></trkpt><trkpt lat="37.482028884938295" lon="14.373684299210245"><ele>619.3333333333334</ele><time>2026-05-03T08:48:56Z</time></trkpt><trkpt lat="37.4821260794305" lon="14.373481673467323"><ele>619.6666666666666</ele><time>2026-05-03T08:48:57Z</time></trkpt><trkpt lat="37.482234597194584" lon="14.37328398737245"><ele>620.0</ele><time>2026-05-03T08:48:58Z</time></trkpt><trkpt lat="37.48235086957975" lon="14.373088853500331"><ele>621.6666666666666</ele><time>2026-05-03T08:48:59Z</time></trkpt><trkpt lat="37.482472431784295" lon="14.372893213821362"><ele>623.3333333333334</ele><time>2026-05-03T08:49:00Z</time></trkpt><trkpt lat="37.48258643598756" lon="14.372701336141306"><ele>625.0</ele><time>2026-05-03T08:49:01Z</time></trkpt><trkpt lat="37.4826959178549" lon="14.372508736037622"><ele>625.0</ele><time>2026-05-03T08:49:02Z</time></trkpt><trkpt lat="37.482807463688125" lon="14.372314270270413"><ele>625.0</ele><time>2026-05-03T08:49:03Z</time></trkpt><trkpt lat="37.482902607863835" lon="14.372111382165029"><ele>625.0</ele><time>2026-05-03T08:49:04Z</time></trkpt><trkpt lat="37.48298105774713" lon="14.371903777229122"><ele>622.6666666666667</ele><time>2026-05-03T08:49:05Z</time></trkpt><trkpt lat="37.48304540888451" lon="14.371681847438389"><ele>620.3333333333334</ele><time>2026-05-03T08:49:06Z</time></trkpt><trkpt lat="37.48308542312655" lon="14.371449528365147"><ele>618.0</ele><time>2026-05-03T08:49:07Z</time></trkpt><trkpt lat="37.4831002006949" lon="14.371212720469497"><ele>615.3333333333334</ele><time>2026-05-03T08:49:08Z</time></trkpt><trkpt lat="37.48308724295124" lon="14.370977305644528"><ele>612.6666666666667</ele><time>2026-05-03T08:49:09Z</time></trkpt><trkpt lat="37.483055418683875" lon="14.370737616950702"><ele>610.0</ele><time>2026-05-03T08:49:10Z</time></trkpt><trkpt lat="37.48300344555114" lon="14.37050409633372"><ele>608.3333333333334</ele><time>2026-05-03T08:49:11Z</time></trkpt><trkpt lat="37.4829479719577" lon="14.37027377532332"><ele>606.6666666666666</ele><time>2026-05-03T08:49:12Z</time></trkpt><trkpt lat="37.482908933236615" lon="14.370048315584908"><ele>605.0</ele><time>2026-05-03T08:49:13Z</time></trkpt><trkpt lat="37.48289951172695" lon="14.369820291337083"><ele>603.3333333333333</ele><time>2026-05-03T08:49:14Z</time></trkpt><trkpt lat="37.48291099944153" lon="14.369580851275902"><ele>601.6666666666666</ele><time>2026-05-03T08:49:15Z</time></trkpt><trkpt lat="37.482943970030746" lon="14.369349132477309"><ele>600.0</ele><time>2026-05-03T08:49:16Z</time></trkpt><trkpt lat="37.48299516754689" lon="14.36911694646409"><ele>600.6666666666666</ele><time>2026-05-03T08:49:17Z</time></trkpt><trkpt lat="37.48307031317741" lon="14.36889461267236"><ele>601.3333333333333</ele><time>2026-05-03T08:49:18Z</time></trkpt><trkpt lat="37.48318086244724" lon="14.368688743916904"><ele>602.0</ele><time>2026-05-03T08:49:19Z</time></trkpt><trkpt lat="37.48329709484061" lon="14.368496160492937"><ele>602.0</ele><time>2026-05-03T08:49:20Z</time></trkpt><trkpt lat="37.48342775144569" lon="14.368314709123563"><ele>602.0</ele><time>2026-05-03T08:49:21Z</time></trkpt><trkpt lat="37.483558304792155" lon="14.368131733838172"><ele>602.0</ele><time>2026-05-03T08:49:22Z</time></trkpt><trkpt lat="37.48370453382384" lon="14.367966114254978"><ele>604.3333333333333</ele><time>2026-05-03T08:49:23Z</time></trkpt><trkpt lat="37.483840334679115" lon="14.367800121211584"><ele>606.6666666666666</ele><time>2026-05-03T08:49:24Z</time></trkpt><trkpt lat="37.483972701703884" lon="14.367623666682473"><ele>609.0</ele><time>2026-05-03T08:49:25Z</time></trkpt><trkpt lat="37.48409786753593" lon="14.367446783192637"><ele>609.0</ele><time>2026-05-03T08:49:26Z</time></trkpt><trkpt lat="37.48421310592038" lon="14.367264291878111"><ele>609.0</ele><time>2026-05-03T08:49:27Z</time></trkpt><trkpt lat="37.484315713736954" lon="14.367077810526723"><ele>609.0</ele><time>2026-05-03T08:49:28Z</time></trkpt><trkpt lat="37.48441223083944" lon="14.366889491314216"><ele>612.6666666666666</ele><time>2026-05-03T08:49:29Z</time></trkpt><trkpt lat="37.48449406148563" lon="14.36670295553637"><ele>616.3333333333333</ele><time>2026-05-03T08:49:30Z</time></trkpt><trkpt lat="37.484570219270594" lon="14.366506439088315"><ele>620.0</ele><time>2026-05-03T08:49:31Z</time></trkpt><trkpt lat="37.48464236496023" lon="14.366297463668314"><ele>620.0</ele><time>2026-05-03T08:49:32Z</time></trkpt><trkpt lat="37.48471100701524" lon="14.366080632477445"><ele>620.0</ele><time>2026-05-03T08:49:33Z</time></trkpt><trkpt lat="37.484764963177305" lon="14.365856164146937"><ele>620.0</ele><time>2026-05-03T08:49:34Z</time></trkpt><trkpt lat="37.4848205587453" lon="14.365633808954525"><ele>619.6666666666666</ele><time>2026-05-03T08:49:35Z</time></trkpt><trkpt lat="37.48486229461698" lon="14.365410455566058"><ele>619.3333333333334</ele><time>2026-05-03T08:49:36Z</time></trkpt><trkpt lat="37.48489158598653" lon="14.36518197908678"><ele>619.0</ele><time>2026-05-03T08:49:37Z</time></trkpt><trkpt lat="37.48491004470784" lon="14.364962871960385"><ele>619.0</ele><time>2026-05-03T08:49:38Z</time></trkpt><trkpt lat="37.48492452219619" lon="14.364743407934746"><ele>619.0</ele><time>2026-05-03T08:49:39Z</time></trkpt><trkpt lat="37.48494074659755" lon="14.364524895677933"><ele>619.0</ele><time>2026-05-03T08:49:40Z</time></trkpt><trkpt lat="37.484958351847915" lon="14.364313141281421"><ele>619.6666666666667</ele><time>2026-05-03T08:49:41Z</time></trkpt><trkpt lat="37.484973528046666" lon="14.364102806787324"><ele>620.3333333333334</ele><time>2026-05-03T08:49:42Z</time></trkpt><trkpt lat="37.48498986770283" lon="14.363897003550118"><ele>621.0</ele><time>2026-05-03T08:49:43Z</time></trkpt><trkpt lat="37.4850040479433" lon="14.363687651334292"><ele>621.6666666666666</ele><time>2026-05-03T08:49:44Z</time></trkpt><trkpt lat="37.48501888624548" lon="14.36348280655116"><ele>622.3333333333333</ele><time>2026-05-03T08:49:45Z</time></trkpt><trkpt lat="37.485034132760674" lon="14.363271310070827"><ele>623.0</ele><time>2026-05-03T08:49:46Z</time></trkpt><trkpt lat="37.4850513092514" lon="14.363066963201062"><ele>623.3333333333333</ele><time>2026-05-03T08:49:47Z</time></trkpt><trkpt lat="37.4850646142023" lon="14.362863650290034"><ele>623.6666666666666</ele><time>2026-05-03T08:49:48Z</time></trkpt><trkpt lat="37.48508043192443" lon="14.362658580534724"><ele>624.0</ele><time>2026-05-03T08:49:49Z</time></trkpt><trkpt lat="37.48509208203947" lon="14.362451770285709"><ele>624.0</ele><time>2026-05-03T08:49:50Z</time></trkpt><trkpt lat="37.48510440797097" lon="14.36224410141913"><ele>624.0</ele><time>2026-05-03T08:49:51Z</time></trkpt><trkpt lat="37.48512107781017" lon="14.362038252827949"><ele>624.0</ele><time>2026-05-03T08:49:52Z</time></trkpt><trkpt lat="37.48513195531958" lon="14.361830997842667"><ele>625.6666666666666</ele><time>2026-05-03T08:49:53Z</time></trkpt><trkpt lat="37.48515310258044" lon="14.361628397954943"><ele>627.3333333333333</ele><time>2026-05-03T08:49:54Z</time></trkpt><trkpt lat="37.485164671650175" lon="14.361423545042573"><ele>629.0</ele><time>2026-05-03T08:49:55Z</time></trkpt><trkpt lat="37.48517767491883" lon="14.361215722763763"><ele>630.0</ele><time>2026-05-03T08:49:56Z</time></trkpt><trkpt lat="37.48518704303928" lon="14.360976080265939"><ele>631.0</ele><time>2026-05-03T08:49:57Z</time></trkpt><trkpt lat="37.4851984942581" lon="14.360738620175733"><ele>632.0</ele><time>2026-05-03T08:49:58Z</time></trkpt><trkpt lat="37.485210936499314" lon="14.36053208645725"><ele>632.3333333333333</ele><time>2026-05-03T08:49:59Z</time></trkpt><trkpt lat="37.485229350179644" lon="14.360323146724117"><ele>632.6666666666666</ele><time>2026-05-03T08:50:00Z</time></trkpt><trkpt lat="37.485251874885414" lon="14.360141722651834"><ele>633.0</ele><time>2026-05-03T08:50:01Z</time></trkpt><trkpt lat="37.48526707405631" lon="14.359959593252066"><ele>633.0</ele><time>2026-05-03T08:50:02Z</time></trkpt><trkpt lat="37.48528570018563" lon="14.359784691046764"><ele>633.0</ele><time>2026-05-03T08:50:03Z</time></trkpt><trkpt lat="37.48529769294439" lon="14.359634797560691"><ele>633.0</ele><time>2026-05-03T08:50:04Z</time></trkpt><trkpt lat="37.48530688975036" lon="14.359499992422718"><ele>633.0</ele><time>2026-05-03T08:50:05Z</time></trkpt><trkpt lat="37.48531531902058" lon="14.359381216090373"><ele>633.6666666666666</ele><time>2026-05-03T08:50:06Z</time></trkpt><trkpt lat="37.48531163394732" lon="14.35928693213124"><ele>634.3333333333334</ele><time>2026-05-03T08:50:07Z</time></trkpt><trkpt lat="37.485245944909515" lon="14.359173563574284"><ele>635.0</ele><time>2026-05-03T08:50:09Z</time></trkpt><trkpt lat="37.48521959490282" lon="14.359069745323788"><ele>635.6666666666667</ele><time>2026-05-03T08:51:09Z</time></trkpt><trkpt lat="37.48522259107901" lon="14.358983824030943"><ele>636.3333333333334</ele><time>2026-05-03T08:51:10Z</time></trkpt><trkpt lat="37.4852204154969" lon="14.358892019675379"><ele>637.0</ele><time>2026-05-03T08:51:11Z</time></trkpt><trkpt lat="37.48522624228777" lon="14.35876769164079"><ele>639.0</ele><time>2026-05-03T08:51:12Z</time></trkpt><trkpt lat="37.48523344516579" lon="14.358625557273045"><ele>641.0</ele><time>2026-05-03T08:51:13Z</time></trkpt><trkpt lat="37.48523383336572" lon="14.358481671995948"><ele>643.0</ele><time>2026-05-03T08:51:14Z</time></trkpt><trkpt lat="37.48523026946155" lon="14.35837272431025"><ele>645.0</ele><time>2026-05-03T08:51:15Z</time></trkpt><trkpt lat="37.48520632749161" lon="14.35826940122369"><ele>647.0</ele><time>2026-05-03T08:51:16Z</time></trkpt><trkpt lat="37.48518363942244" lon="14.358191083154388"><ele>647.0</ele><time>2026-05-03T08:51:17Z</time></trkpt><trkpt lat="37.485127535244025" lon="14.358092556645477"><ele>647.0</ele><time>2026-05-03T08:51:19Z</time></trkpt><trkpt lat="37.485058446731834" lon="14.35810432050028"><ele>647.0</ele><time>2026-05-03T08:51:20Z</time></trkpt><trkpt lat="37.484961784632986" lon="14.358113491233398"><ele>647.0</ele><time>2026-05-03T08:51:21Z</time></trkpt><trkpt lat="37.48482474706877" lon="14.35807419377602"><ele>647.0</ele><time>2026-05-03T08:51:22Z</time></trkpt><trkpt lat="37.48465691884858" lon="14.358063870276323"><ele>650.6666666666666</ele><time>2026-05-03T08:51:23Z</time></trkpt><trkpt lat="37.48451347993605" lon="14.358019415569327"><ele>654.3333333333334</ele><time>2026-05-03T08:51:24Z</time></trkpt><trkpt lat="37.4843685885846" lon="14.358011413295307"><ele>658.0</ele><time>2026-05-03T08:51:25Z</time></trkpt><trkpt lat="37.4842130469874" lon="14.357984178422743"><ele>658.0</ele><time>2026-05-03T08:51:26Z</time></trkpt><trkpt lat="37.48406458788227" lon="14.357940660841335"><ele>658.0</ele><time>2026-05-03T08:51:27Z</time></trkpt><trkpt lat="37.48389915384792" lon="14.357910298531836"><ele>658.0</ele><time>2026-05-03T08:51:28Z</time></trkpt><trkpt lat="37.483713636687895" lon="14.35790048292039"><ele>660.6666666666667</ele><time>2026-05-03T08:51:29Z</time></trkpt><trkpt lat="37.483534244992555" lon="14.357853861723836"><ele>663.3333333333334</ele><time>2026-05-03T08:51:30Z</time></trkpt><trkpt lat="37.48335117092512" lon="14.357826813806888"><ele>666.0</ele><time>2026-05-03T08:51:31Z</time></trkpt><trkpt lat="37.483147655207944" lon="14.357801713740768"><ele>666.0</ele><time>2026-05-03T08:51:32Z</time></trkpt><trkpt lat="37.48294455008145" lon="14.35778006048563"><ele>666.0</ele><time>2026-05-03T08:51:33Z</time></trkpt><trkpt lat="37.48271110539285" lon="14.357761031429728"><ele>666.0</ele><time>2026-05-03T08:51:34Z</time></trkpt><trkpt lat="37.48246048172347" lon="14.357735950160349"><ele>668.3333333333334</ele><time>2026-05-03T08:51:35Z</time></trkpt><trkpt lat="37.48223314030293" lon="14.35770530066042"><ele>670.6666666666667</ele><time>2026-05-03T08:51:36Z</time></trkpt><trkpt lat="37.48205331168583" lon="14.357678206700555"><ele>673.0</ele><time>2026-05-03T08:51:37Z</time></trkpt><trkpt lat="37.48190659004147" lon="14.357652134020132"><ele>675.5999999999999</ele><time>2026-05-03T08:51:38Z</time></trkpt><trkpt lat="37.48178975560719" lon="14.357626247580258"><ele>678.1999999999999</ele><time>2026-05-03T08:51:39Z</time></trkpt><trkpt lat="37.4817192331985" lon="14.357588458541416"><ele>680.8</ele><time>2026-05-03T08:51:40Z</time></trkpt><trkpt lat="37.48169358183032" lon="14.35751459654142"><ele>683.4</ele><time>2026-05-03T08:51:41Z</time></trkpt><trkpt lat="37.48172231687038" lon="14.357352430889891"><ele>686.0</ele><time>2026-05-03T08:51:43Z</time></trkpt><trkpt lat="37.4817496523212" lon="14.35721968551578"><ele>687.6666666666666</ele><time>2026-05-03T08:51:44Z</time></trkpt><trkpt lat="37.481774241225864" lon="14.357021954364413"><ele>689.3333333333334</ele><time>2026-05-03T08:51:45Z</time></trkpt><trkpt lat="37.4817935736605" lon="14.356784663284117"><ele>691.0</ele><time>2026-05-03T08:51:46Z</time></trkpt><trkpt lat="37.481771401969375" lon="14.35660169407606"><ele>691.0</ele><time>2026-05-03T08:51:47Z</time></trkpt><trkpt lat="37.48176662677121" lon="14.356493438267192"><ele>691.0</ele><time>2026-05-03T08:51:48Z</time></trkpt><trkpt lat="37.481680234671046" lon="14.356436862476674"><ele>691.0</ele><time>2026-05-03T08:51:50Z</time></trkpt><trkpt lat="37.481627941483815" lon="14.35636025815723"><ele>691.0</ele><time>2026-05-03T08:51:51Z</time></trkpt><trkpt lat="37.48154494995376" lon="14.356256089452254"><ele>691.0</ele><time>2026-05-03T08:51:52Z</time></trkpt><trkpt lat="37.48147708880479" lon="14.35611911675889"><ele>691.0</ele><time>2026-05-03T08:51:53Z</time></trkpt><trkpt lat="37.48141469099875" lon="14.355954976674344"><ele>691.0</ele><time>2026-05-03T08:51:54Z</time></trkpt><trkpt lat="37.48136673163168" lon="14.355789760812147"><ele>691.0</ele><time>2026-05-03T08:51:55Z</time></trkpt><trkpt lat="37.481341610545385" lon="14.355707024663012"><ele>691.0</ele><time>2026-05-03T08:51:56Z</time></trkpt><trkpt lat="37.48121893487266" lon="14.355966613081174"><ele>695.4</ele><time>2026-05-03T08:52:06Z</time></trkpt><trkpt lat="37.481202979490114" lon="14.356072659453574"><ele>699.8</ele><time>2026-05-03T08:52:07Z</time></trkpt><trkpt lat="37.481183168810965" lon="14.35621829070978"><ele>704.1999999999999</ele><time>2026-05-03T08:52:08Z</time></trkpt><trkpt lat="37.48118787853816" lon="14.35636585320116"><ele>708.5999999999999</ele><time>2026-05-03T08:52:09Z</time></trkpt><trkpt lat="37.481213518420496" lon="14.356522634999877"><ele>713.0</ele><time>2026-05-03T08:52:10Z</time></trkpt><trkpt lat="37.48124509093504" lon="14.356654668785408"><ele>713.0</ele><time>2026-05-03T08:52:11Z</time></trkpt><trkpt lat="37.48124927422642" lon="14.3567352661066"><ele>713.0</ele><time>2026-05-03T08:52:12Z</time></trkpt><trkpt lat="37.48114885438852" lon="14.356764461363305"><ele>713.0</ele><time>2026-05-03T08:52:14Z</time></trkpt><trkpt lat="37.48109282819805" lon="14.356724893890494"><ele>713.0</ele><time>2026-05-03T08:52:15Z</time></trkpt><trkpt lat="37.4810183851608" lon="14.356716346391964"><ele>713.0</ele><time>2026-05-03T08:52:16Z</time></trkpt><trkpt lat="37.48091656406095" lon="14.35669291202883"><ele>713.0</ele><time>2026-05-03T08:52:17Z</time></trkpt><trkpt lat="37.48078291431574" lon="14.356642445350781"><ele>713.0</ele><time>2026-05-03T08:52:18Z</time></trkpt><trkpt lat="37.48065428820392" lon="14.35659671387996"><ele>713.0</ele><time>2026-05-03T08:52:19Z</time></trkpt><trkpt lat="37.480542883154776" lon="14.356530530068314"><ele>713.0</ele><time>2026-05-03T08:52:20Z</time></trkpt><trkpt lat="37.480464492680156" lon="14.35645599039742"><ele>713.0</ele><time>2026-05-03T08:52:21Z</time></trkpt><trkpt lat="37.48038543615405" lon="14.356360995574523"><ele>716.8</ele><time>2026-05-03T08:52:22Z</time></trkpt><trkpt lat="37.48033276504107" lon="14.356279325764785"><ele>720.5999999999999</ele><time>2026-05-03T08:52:23Z</time></trkpt><trkpt lat="37.48028890080291" lon="14.356207934408532"><ele>724.4000000000001</ele><time>2026-05-03T08:52:24Z</time></trkpt><trkpt lat="37.480238267176375" lon="14.356132094941595"><ele>728.2</ele><time>2026-05-03T08:52:25Z</time></trkpt><trkpt lat="37.48003769400869" lon="14.35612973765913"><ele>732.0</ele><time>2026-05-03T08:52:26Z</time></trkpt><trkpt lat="37.479980217127924" lon="14.356020303201019"><ele>732.0</ele><time>2026-05-03T08:52:27Z</time></trkpt><trkpt lat="37.47992785509109" lon="14.355923969727382"><ele>732.0</ele><time>2026-05-03T08:52:28Z</time></trkpt><trkpt lat="37.47986380873389" lon="14.355805633625883"><ele>732.0</ele><time>2026-05-03T08:52:29Z</time></trkpt><trkpt lat="37.47977074124319" lon="14.355649273458871"><ele>732.0</ele><time>2026-05-03T08:52:31Z</time></trkpt><trkpt lat="37.47971309582295" lon="14.355543151680825"><ele>739.0</ele><time>2026-05-03T08:52:32Z</time></trkpt><trkpt lat="37.47965658847501" lon="14.35543728203063"><ele>746.0</ele><time>2026-05-03T08:52:33Z</time></trkpt><trkpt lat="37.48001321828193" lon="14.354767922753021"><ele>747.8</ele><time>2026-05-03T08:52:34Z</time></trkpt><trkpt lat="37.47997824522197" lon="14.354619483253282"><ele>749.5999999999999</ele><time>2026-05-03T08:52:35Z</time></trkpt><trkpt lat="37.47995460116624" lon="14.354478526319344"><ele>751.4</ele><time>2026-05-03T08:52:36Z</time></trkpt><trkpt lat="37.479938756564174" lon="14.354342858250497"><ele>753.2</ele><time>2026-05-03T08:52:37Z</time></trkpt><trkpt lat="37.47995116811246" lon="14.354216666044163"><ele>755.0</ele><time>2026-05-03T08:52:38Z</time></trkpt><trkpt lat="37.47998632350624" lon="14.354104152340804"><ele>755.0</ele><time>2026-05-03T08:52:39Z</time></trkpt><trkpt lat="37.480022953214984" lon="14.353983592574057"><ele>755.0</ele><time>2026-05-03T08:52:40Z</time></trkpt><trkpt lat="37.48005432869324" lon="14.353866928060219"><ele>755.0</ele><time>2026-05-03T08:52:41Z</time></trkpt><trkpt lat="37.48007635481901" lon="14.3537804885852"><ele>755.0</ele><time>2026-05-03T08:52:42Z</time></trkpt><trkpt lat="37.48001373305255" lon="14.353743759945825"><ele>755.0</ele><time>2026-05-03T08:52:48Z</time></trkpt><trkpt lat="37.479958993481425" lon="14.353863680327219"><ele>755.0</ele><time>2026-05-03T08:52:50Z</time></trkpt><trkpt lat="37.47991830008051" lon="14.353938691463936"><ele>755.0</ele><time>2026-05-03T08:52:51Z</time></trkpt><trkpt lat="37.47987495233428" lon="14.354000283880113"><ele>755.0</ele><time>2026-05-03T08:52:52Z</time></trkpt><trkpt lat="37.47982948358573" lon="14.35407411733105"><ele>755.0</ele><time>2026-05-03T08:53:29Z</time></trkpt><trkpt lat="37.47972897714588" lon="14.354117281979118"><ele>755.0</ele><time>2026-05-03T08:53:31Z</time></trkpt><trkpt lat="37.479664130359055" lon="14.354127073312425"><ele>755.0</ele><time>2026-05-03T08:53:32Z</time></trkpt><trkpt lat="37.47951495718881" lon="14.35418058948126"><ele>756.2</ele><time>2026-05-03T08:53:34Z</time></trkpt><trkpt lat="37.47944038330362" lon="14.354219391686973"><ele>757.4</ele><time>2026-05-03T08:53:35Z</time></trkpt><trkpt lat="37.47935480827808" lon="14.354302349742941"><ele>758.5999999999999</ele><time>2026-05-03T08:53:37Z</time></trkpt><trkpt lat="37.47928545219891" lon="14.35438050909187"><ele>759.8</ele><time>2026-05-03T08:53:39Z</time></trkpt><trkpt lat="37.47933538382095" lon="14.354308423500163"><ele>761.0</ele><time>2026-05-03T08:54:37Z</time></trkpt><trkpt lat="37.47943980934218" lon="14.35422140548715"><ele>760.9999999999999</ele><time>2026-05-03T08:54:39Z</time></trkpt><trkpt lat="37.47949832380638" lon="14.354183855888431"><ele>761.0</ele><time>2026-05-03T08:54:40Z</time></trkpt><trkpt lat="37.479560840716616" lon="14.354145914602906"><ele>761.0</ele><time>2026-05-03T08:54:41Z</time></trkpt><trkpt lat="37.47962546078028" lon="14.354123928566072"><ele>761.0</ele><time>2026-05-03T08:54:42Z</time></trkpt><trkpt lat="37.47969082676755" lon="14.354093458885213"><ele>761.0</ele><time>2026-05-03T08:54:43Z</time></trkpt><trkpt lat="37.47975608119382" lon="14.354066894781164"><ele>760.9999999999999</ele><time>2026-05-03T08:54:44Z</time></trkpt><trkpt lat="37.47982038563664" lon="14.354041498574258"><ele>761.0</ele><time>2026-05-03T08:54:45Z</time></trkpt><trkpt lat="37.479882031467525" lon="14.354006214907763"><ele>759.8</ele><time>2026-05-03T08:54:46Z</time></trkpt><trkpt lat="37.47993703867216" lon="14.353948223116467"><ele>758.5999999999999</ele><time>2026-05-03T08:54:47Z</time></trkpt><trkpt lat="37.47999253064777" lon="14.353845185421823"><ele>757.4</ele><time>2026-05-03T08:54:48Z</time></trkpt><trkpt lat="37.48005014181482" lon="14.353732036666553"><ele>756.2</ele><time>2026-05-03T08:54:49Z</time></trkpt><trkpt lat="37.48009335840033" lon="14.353646292067884"><ele>755.0</ele><time>2026-05-03T08:54:50Z</time></trkpt><trkpt lat="37.48014835990175" lon="14.353508966571708"><ele>754.8</ele><time>2026-05-03T08:54:52Z</time></trkpt><trkpt lat="37.48020126523303" lon="14.353388752938335"><ele>754.6</ele><time>2026-05-03T08:54:54Z</time></trkpt><trkpt lat="37.480224990558916" lon="14.353270138342092"><ele>754.4000000000001</ele><time>2026-05-03T08:54:55Z</time></trkpt><trkpt lat="37.48024316194099" lon="14.35312012603909"><ele>754.2</ele><time>2026-05-03T08:54:56Z</time></trkpt><trkpt lat="37.480263694797834" lon="14.352967626216472"><ele>754.0</ele><time>2026-05-03T08:54:57Z</time></trkpt><trkpt lat="37.48027846461345" lon="14.352830617557455"><ele>751.8000000000001</ele><time>2026-05-03T08:54:58Z</time></trkpt><trkpt lat="37.4803215113527" lon="14.352679269204575"><ele>749.6</ele><time>2026-05-03T08:54:59Z</time></trkpt><trkpt lat="37.48036224401923" lon="14.352527993673228"><ele>747.4</ele><time>2026-05-03T08:55:00Z</time></trkpt><trkpt lat="37.48037939316512" lon="14.352402273381202"><ele>745.2</ele><time>2026-05-03T08:55:01Z</time></trkpt><trkpt lat="37.48039524216511" lon="14.352306440860609"><ele>743.0</ele><time>2026-05-03T08:55:02Z</time></trkpt><trkpt lat="37.48040782197911" lon="14.352228572437603"><ele>740.0</ele><time>2026-05-03T08:55:03Z</time></trkpt><trkpt lat="37.48039126672206" lon="14.352119036603899"><ele>737.0</ele><time>2026-05-03T08:55:05Z</time></trkpt><trkpt lat="37.480355559479044" lon="14.351975874874835"><ele>734.0</ele><time>2026-05-03T08:55:07Z</time></trkpt><trkpt lat="37.480337467392665" lon="14.35187997962887"><ele>731.0</ele><time>2026-05-03T08:55:08Z</time></trkpt><trkpt lat="37.48031520185272" lon="14.351756749874621"><ele>728.0</ele><time>2026-05-03T08:55:09Z</time></trkpt><trkpt lat="37.48030339615547" lon="14.351646942852181"><ele>728.0</ele><time>2026-05-03T08:55:10Z</time></trkpt><trkpt lat="37.48029035746496" lon="14.351543238164412"><ele>728.0</ele><time>2026-05-03T08:55:11Z</time></trkpt><trkpt lat="37.480278788497365" lon="14.351440333933683"><ele>728.0</ele><time>2026-05-03T08:55:12Z</time></trkpt><trkpt lat="37.48026935631394" lon="14.351341600752727"><ele>728.0</ele><time>2026-05-03T08:55:13Z</time></trkpt><trkpt lat="37.48025557219715" lon="14.351263650624286"><ele>728.0</ele><time>2026-05-03T08:55:14Z</time></trkpt><trkpt lat="37.480247597893204" lon="14.35116986313506"><ele>728.0</ele><time>2026-05-03T08:55:15Z</time></trkpt><trkpt lat="37.48024097579768" lon="14.351074141454157"><ele>726.3333333333333</ele><time>2026-05-03T08:55:16Z</time></trkpt><trkpt lat="37.48023395224368" lon="14.35097776661383"><ele>724.6666666666666</ele><time>2026-05-03T08:55:17Z</time></trkpt><trkpt lat="37.48022962719054" lon="14.350890137041214"><ele>723.0</ele><time>2026-05-03T08:55:18Z</time></trkpt><trkpt lat="37.480217795922016" lon="14.350753534757134"><ele>721.3333333333334</ele><time>2026-05-03T08:55:20Z</time></trkpt><trkpt lat="37.48021159294752" lon="14.350651145915279"><ele>719.6666666666667</ele><time>2026-05-03T08:55:22Z</time></trkpt><trkpt lat="37.4801881688427" lon="14.350554235189087"><ele>718.0</ele><time>2026-05-03T08:55:24Z</time></trkpt><trkpt lat="37.48017313847515" lon="14.350432313181264"><ele>716.4285714285714</ele><time>2026-05-03T08:55:26Z</time></trkpt><trkpt lat="37.48015653757381" lon="14.350350951779458"><ele>714.8571428571429</ele><time>2026-05-03T08:55:27Z</time></trkpt><trkpt lat="37.48013734655456" lon="14.35027196432599"><ele>713.2857142857142</ele><time>2026-05-03T08:55:28Z</time></trkpt><trkpt lat="37.480095340462995" lon="14.350212189139839"><ele>711.7142857142858</ele><time>2026-05-03T08:55:29Z</time></trkpt><trkpt lat="37.48003579291498" lon="14.350162576046351"><ele>710.1428571428571</ele><time>2026-05-03T08:55:30Z</time></trkpt><trkpt lat="37.47992532738767" lon="14.350145508405866"><ele>708.5714285714286</ele><time>2026-05-03T08:55:32Z</time></trkpt><trkpt lat="37.47988107556204" lon="14.350215343220913"><ele>707.0</ele><time>2026-05-03T08:55:34Z</time></trkpt><trkpt lat="37.479874503175076" lon="14.350304121716437"><ele>707.0</ele><time>2026-05-03T08:55:37Z</time></trkpt><trkpt lat="37.47990615909778" lon="14.350408981664785"><ele>707.0</ele><time>2026-05-03T08:55:44Z</time></trkpt><trkpt lat="37.47989248788323" lon="14.350549447722614"><ele>707.0</ele><time>2026-05-03T08:55:46Z</time></trkpt><trkpt lat="37.47989465303157" lon="14.350635515926193"><ele>707.0</ele><time>2026-05-03T08:55:47Z</time></trkpt><trkpt lat="37.479892298053876" lon="14.350740917406162"><ele>707.0</ele><time>2026-05-03T08:55:48Z</time></trkpt><trkpt lat="37.47987206606437" lon="14.350862743447593"><ele>709.2</ele><time>2026-05-03T08:55:49Z</time></trkpt><trkpt lat="37.479838802605414" lon="14.350989756676741"><ele>711.4000000000001</ele><time>2026-05-03T08:55:50Z</time></trkpt><trkpt lat="37.47981794795489" lon="14.351109563493317"><ele>713.5999999999999</ele><time>2026-05-03T08:55:51Z</time></trkpt><trkpt lat="37.47980276573638" lon="14.351231836041054"><ele>715.8</ele><time>2026-05-03T08:55:52Z</time></trkpt><trkpt lat="37.47979017962501" lon="14.351357616172825"><ele>718.0</ele><time>2026-05-03T08:55:53Z</time></trkpt><trkpt lat="37.47977010041657" lon="14.351506682633666"><ele>720.0</ele><time>2026-05-03T08:55:54Z</time></trkpt><trkpt lat="37.47975063814245" lon="14.351655138610278"><ele>722.0</ele><time>2026-05-03T08:55:55Z</time></trkpt><trkpt lat="37.47974268480477" lon="14.35177604804698"><ele>724.0</ele><time>2026-05-03T08:55:56Z</time></trkpt><trkpt lat="37.479713839736846" lon="14.351885987096026"><ele>726.0</ele><time>2026-05-03T08:55:57Z</time></trkpt><trkpt lat="37.47968859150139" lon="14.351987292319805"><ele>728.0</ele><time>2026-05-03T08:55:58Z</time></trkpt><trkpt lat="37.47966629088405" lon="14.35209511278404"><ele>728.0</ele><time>2026-05-03T08:55:59Z</time></trkpt><trkpt lat="37.47964486572196" lon="14.35220024433204"><ele>728.0</ele><time>2026-05-03T08:56:00Z</time></trkpt><trkpt lat="37.47962255042533" lon="14.35228591001486"><ele>728.0</ele><time>2026-05-03T08:56:01Z</time></trkpt><trkpt lat="37.47959089027" lon="14.35236854062273"><ele>728.0</ele><time>2026-05-03T08:56:02Z</time></trkpt><trkpt lat="37.479557328080546" lon="14.352456225762218"><ele>728.0</ele><time>2026-05-03T08:56:03Z</time></trkpt><trkpt lat="37.479519781765774" lon="14.352539806773224"><ele>728.0</ele><time>2026-05-03T08:56:56Z</time></trkpt><trkpt lat="37.47947304326453" lon="14.352629879678872"><ele>729.1666666666666</ele><time>2026-05-03T08:56:58Z</time></trkpt><trkpt lat="37.479405926927" lon="14.352725156116518"><ele>730.3333333333333</ele><time>2026-05-03T08:57:00Z</time></trkpt><trkpt lat="37.479356698653966" lon="14.352775361109382"><ele>731.5</ele><time>2026-05-03T08:57:01Z</time></trkpt><trkpt lat="37.47929926449218" lon="14.352817734598938"><ele>732.6666666666666</ele><time>2026-05-03T08:57:02Z</time></trkpt><trkpt lat="37.47922783872501" lon="14.352921457889533"><ele>733.8333333333334</ele><time>2026-05-03T08:57:04Z</time></trkpt><trkpt lat="37.47919237308867" lon="14.35299350878902"><ele>735.0</ele><time>2026-05-03T08:57:05Z</time></trkpt><trkpt lat="37.47912850700714" lon="14.353106369293554"><ele>738.2</ele><time>2026-05-03T08:57:07Z</time></trkpt><trkpt lat="37.47905578962966" lon="14.353211094843305"><ele>741.4</ele><time>2026-05-03T08:57:09Z</time></trkpt><trkpt lat="37.47897076191449" lon="14.35328977001249"><ele>744.5999999999999</ele><time>2026-05-03T08:57:11Z</time></trkpt><trkpt lat="37.47890012654354" lon="14.353336654177749"><ele>747.8</ele><time>2026-05-03T08:57:13Z</time></trkpt><trkpt lat="37.47884890741597" lon="14.353385388415214"><ele>751.0</ele><time>2026-05-03T08:57:14Z</time></trkpt><trkpt lat="37.47878604380433" lon="14.353471771686584"><ele>750.1999999999999</ele><time>2026-05-03T08:57:16Z</time></trkpt><trkpt lat="37.47874600406193" lon="14.353550251023572"><ele>749.4</ele><time>2026-05-03T08:57:18Z</time></trkpt><trkpt lat="37.47869388200373" lon="14.353658021343911"><ele>748.6</ele><time>2026-05-03T08:57:20Z</time></trkpt><trkpt lat="37.478658049563954" lon="14.353760064762527"><ele>747.8</ele><time>2026-05-03T08:57:22Z</time></trkpt><trkpt lat="37.478645990681564" lon="14.353900938474553"><ele>747.0</ele><time>2026-05-03T08:57:24Z</time></trkpt><trkpt lat="37.47862343199485" lon="14.353998116873695"><ele>749.3333333333334</ele><time>2026-05-03T08:57:27Z</time></trkpt><trkpt lat="37.47861531849542" lon="14.354107591721542"><ele>751.6666666666666</ele><time>2026-05-03T08:57:29Z</time></trkpt><trkpt lat="37.47859711854024" lon="14.35418685580369"><ele>754.0</ele><time>2026-05-03T08:57:30Z</time></trkpt><trkpt lat="37.47853992061313" lon="14.35432557291683"><ele>756.3333333333333</ele><time>2026-05-03T08:57:32Z</time></trkpt><trkpt lat="37.47853115891666" lon="14.354406691637266"><ele>758.6666666666666</ele><time>2026-05-03T08:57:33Z</time></trkpt><trkpt lat="37.47849315375211" lon="14.354474387582593"><ele>761.0</ele><time>2026-05-03T08:57:35Z</time></trkpt><trkpt lat="37.47845357307913" lon="14.354592358931217"><ele>761.0</ele><time>2026-05-03T08:57:55Z</time></trkpt><trkpt lat="37.47841088676188" lon="14.35469994929141"><ele>761.0</ele><time>2026-05-03T08:57:56Z</time></trkpt><trkpt lat="37.4783640682416" lon="14.35481151223246"><ele>761.0</ele><time>2026-05-03T08:57:57Z</time></trkpt><trkpt lat="37.478292203013595" lon="14.354939473909155"><ele>761.0</ele><time>2026-05-03T08:57:58Z</time></trkpt><trkpt lat="37.47822859342121" lon="14.355059820880536"><ele>761.0</ele><time>2026-05-03T08:57:59Z</time></trkpt><trkpt lat="37.4781638603619" lon="14.355186127848846"><ele>761.5999999999999</ele><time>2026-05-03T08:58:00Z</time></trkpt><trkpt lat="37.47811925198144" lon="14.355275025816724"><ele>762.2</ele><time>2026-05-03T08:58:01Z</time></trkpt><trkpt lat="37.4780833673619" lon="14.355349877535467"><ele>762.8</ele><time>2026-05-03T08:58:03Z</time></trkpt><trkpt lat="37.477953907364586" lon="14.355285008225056"><ele>763.4000000000001</ele><time>2026-05-03T08:58:06Z</time></trkpt><trkpt lat="37.47786601388683" lon="14.355253349705682"><ele>764.0</ele><time>2026-05-03T08:58:07Z</time></trkpt><trkpt lat="37.477782313718905" lon="14.355244499777848"><ele>766.2</ele><time>2026-05-03T08:58:08Z</time></trkpt><trkpt lat="37.47769917818055" lon="14.355263618995707"><ele>768.4000000000001</ele><time>2026-05-03T08:58:09Z</time></trkpt><trkpt lat="37.47762280672603" lon="14.355312585401776"><ele>770.6</ele><time>2026-05-03T08:58:10Z</time></trkpt><trkpt lat="37.47753109848056" lon="14.355339649086831"><ele>772.8</ele><time>2026-05-03T08:58:11Z</time></trkpt><trkpt lat="37.47744285152871" lon="14.35534693227459"><ele>775.0</ele><time>2026-05-03T08:58:12Z</time></trkpt><trkpt lat="37.4773384651115" lon="14.355478465762264"><ele>775.0</ele><time>2026-05-03T08:58:14Z</time></trkpt><trkpt lat="37.47727749452688" lon="14.355579022914535"><ele>775.0</ele><time>2026-05-03T08:58:15Z</time></trkpt><trkpt lat="37.477224693259046" lon="14.35568663743475"><ele>775.0</ele><time>2026-05-03T08:58:16Z</time></trkpt><trkpt lat="37.47716112333301" lon="14.355792725752076"><ele>775.0</ele><time>2026-05-03T08:58:17Z</time></trkpt><trkpt lat="37.47708974208839" lon="14.355904073270803"><ele>775.0</ele><time>2026-05-03T08:58:18Z</time></trkpt><trkpt lat="37.47702649950683" lon="14.356023058472806"><ele>778.2</ele><time>2026-05-03T08:58:19Z</time></trkpt><trkpt lat="37.47696419188141" lon="14.35614687924608"><ele>781.4</ele><time>2026-05-03T08:58:20Z</time></trkpt><trkpt lat="37.47690909676081" lon="14.35626931372526"><ele>784.5999999999999</ele><time>2026-05-03T08:58:21Z</time></trkpt><trkpt lat="37.47685087970628" lon="14.356382544430167"><ele>787.8</ele><time>2026-05-03T08:58:22Z</time></trkpt><trkpt lat="37.476787820508726" lon="14.356495492960988"><ele>791.0</ele><time>2026-05-03T08:58:23Z</time></trkpt><trkpt lat="37.47672393557552" lon="14.356611371375783"><ele>791.0</ele><time>2026-05-03T08:58:24Z</time></trkpt><trkpt lat="37.47664519043114" lon="14.356720614083914"><ele>791.0</ele><time>2026-05-03T08:58:25Z</time></trkpt><trkpt lat="37.476555627876344" lon="14.356847613729524"><ele>791.0</ele><time>2026-05-03T08:58:26Z</time></trkpt><trkpt lat="37.47647125964005" lon="14.356968820779684"><ele>791.0</ele><time>2026-05-03T08:58:27Z</time></trkpt><trkpt lat="37.47638638411052" lon="14.357101026278913"><ele>791.0</ele><time>2026-05-03T08:58:28Z</time></trkpt><trkpt lat="37.47630769571167" lon="14.357199854692336"><ele>791.0</ele><time>2026-05-03T08:58:29Z</time></trkpt><trkpt lat="37.47623392918646" lon="14.357311719876627"><ele>791.0</ele><time>2026-05-03T08:58:30Z</time></trkpt><trkpt lat="37.47615722451001" lon="14.357428682854959"><ele>791.0</ele><time>2026-05-03T08:58:31Z</time></trkpt><trkpt lat="37.476082945050074" lon="14.357544227793966"><ele>793.0</ele><time>2026-05-03T08:58:32Z</time></trkpt><trkpt lat="37.47601168705264" lon="14.35764155137555"><ele>795.0</ele><time>2026-05-03T08:58:33Z</time></trkpt><trkpt lat="37.47596445989703" lon="14.357733503411726"><ele>797.0</ele><time>2026-05-03T08:58:34Z</time></trkpt><trkpt lat="37.47593757218657" lon="14.357858179789499"><ele>799.0</ele><time>2026-05-03T08:58:35Z</time></trkpt><trkpt lat="37.475892244813245" lon="14.358012116958152"><ele>801.0</ele><time>2026-05-03T08:58:36Z</time></trkpt><trkpt lat="37.4758645864353" lon="14.358145252031157"><ele>801.0</ele><time>2026-05-03T08:58:37Z</time></trkpt><trkpt lat="37.47581793217493" lon="14.358292625341482"><ele>801.0</ele><time>2026-05-03T08:58:38Z</time></trkpt><trkpt lat="37.475778539629744" lon="14.358443454269931"><ele>801.0</ele><time>2026-05-03T08:58:39Z</time></trkpt><trkpt lat="37.47574128236273" lon="14.358607821980556"><ele>801.0</ele><time>2026-05-03T08:58:40Z</time></trkpt><trkpt lat="37.47570217492299" lon="14.358744133584736"><ele>801.1999999999999</ele><time>2026-05-03T08:58:41Z</time></trkpt><trkpt lat="37.47567650763486" lon="14.358876079910129"><ele>801.4</ele><time>2026-05-03T08:58:42Z</time></trkpt><trkpt lat="37.47565259228571" lon="14.35899240535618"><ele>801.6</ele><time>2026-05-03T08:58:43Z</time></trkpt><trkpt lat="37.475623293682645" lon="14.359110716648349"><ele>801.8</ele><time>2026-05-03T08:58:44Z</time></trkpt><trkpt lat="37.47557887245787" lon="14.359229595178643"><ele>802.0</ele><time>2026-05-03T08:58:45Z</time></trkpt><trkpt lat="37.47554203617363" lon="14.359364248377204"><ele>802.0</ele><time>2026-05-03T08:58:46Z</time></trkpt><trkpt lat="37.475494000726414" lon="14.359508648398368"><ele>802.0</ele><time>2026-05-03T08:58:47Z</time></trkpt><trkpt lat="37.47543391845764" lon="14.359670852254894"><ele>802.0</ele><time>2026-05-03T08:58:48Z</time></trkpt><trkpt lat="37.47537682025719" lon="14.359832187854016"><ele>802.0</ele><time>2026-05-03T08:58:49Z</time></trkpt><trkpt lat="37.47531411663027" lon="14.359997459884742"><ele>803.75</ele><time>2026-05-03T08:58:50Z</time></trkpt><trkpt lat="37.475252139915284" lon="14.360159087942792"><ele>805.5</ele><time>2026-05-03T08:58:51Z</time></trkpt><trkpt lat="37.47518355747866" lon="14.360326322466113"><ele>807.25</ele><time>2026-05-03T08:58:52Z</time></trkpt><trkpt lat="37.475122333905055" lon="14.360485478290165"><ele>809.0</ele><time>2026-05-03T08:58:53Z</time></trkpt><trkpt lat="37.475075731583345" lon="14.360634262711594"><ele>809.25</ele><time>2026-05-03T08:58:54Z</time></trkpt><trkpt lat="37.475028141062076" lon="14.360767648396518"><ele>809.5</ele><time>2026-05-03T08:58:55Z</time></trkpt><trkpt lat="37.474966131541876" lon="14.360911308855627"><ele>809.75</ele><time>2026-05-03T08:58:56Z</time></trkpt><trkpt lat="37.47489266874742" lon="14.36108133559568"><ele>810.0</ele><time>2026-05-03T08:58:57Z</time></trkpt><trkpt lat="37.47482877753908" lon="14.361265728806863"><ele>809.6</ele><time>2026-05-03T08:58:58Z</time></trkpt><trkpt lat="37.47477475821529" lon="14.36142794863045"><ele>809.2</ele><time>2026-05-03T08:58:59Z</time></trkpt><trkpt lat="37.47472426746962" lon="14.361556504964232"><ele>808.8</ele><time>2026-05-03T08:59:00Z</time></trkpt><trkpt lat="37.47468697053371" lon="14.361650733556857"><ele>808.4</ele><time>2026-05-03T08:59:01Z</time></trkpt><trkpt lat="37.47465494924366" lon="14.361741441213194"><ele>808.0</ele><time>2026-05-03T08:59:02Z</time></trkpt><trkpt lat="37.47457232506214" lon="14.361766762144994"><ele>807.9999999999999</ele><time>2026-05-03T08:59:04Z</time></trkpt><trkpt lat="37.47447076708137" lon="14.361754930046823"><ele>808.0</ele><time>2026-05-03T08:59:06Z</time></trkpt><trkpt lat="37.47440575464741" lon="14.361780383116367"><ele>808.0</ele><time>2026-05-03T08:59:07Z</time></trkpt><trkpt lat="37.47433200503931" lon="14.361804766891048"><ele>808.0</ele><time>2026-05-03T08:59:08Z</time></trkpt><trkpt lat="37.474246881126376" lon="14.361824347730659"><ele>807.9999999999999</ele><time>2026-05-03T08:59:09Z</time></trkpt><trkpt lat="37.47418971738825" lon="14.361859077466395"><ele>808.0</ele><time>2026-05-03T08:59:10Z</time></trkpt><trkpt lat="37.47413736012009" lon="14.361914699602096"><ele>807.9999999999999</ele><time>2026-05-03T08:59:11Z</time></trkpt><trkpt lat="37.4740786677978" lon="14.36197648465823"><ele>808.0</ele><time>2026-05-03T08:59:12Z</time></trkpt><trkpt lat="37.474018146361196" lon="14.362035656499526"><ele>808.0</ele><time>2026-05-03T08:59:13Z</time></trkpt><trkpt lat="37.47396111142911" lon="14.362105182796249"><ele>808.0</ele><time>2026-05-03T08:59:14Z</time></trkpt><trkpt lat="37.473887672053166" lon="14.362190278431099"><ele>807.9999999999999</ele><time>2026-05-03T08:59:15Z</time></trkpt><trkpt lat="37.4738078415572" lon="14.362276523839235"><ele>808.0</ele><time>2026-05-03T08:59:16Z</time></trkpt><trkpt lat="37.47374186922641" lon="14.362326442249678"><ele>808.5999999999999</ele><time>2026-05-03T08:59:17Z</time></trkpt><trkpt lat="37.47361056991864" lon="14.362293149952666"><ele>809.1999999999999</ele><time>2026-05-03T08:59:19Z</time></trkpt><trkpt lat="37.473521642243966" lon="14.362298252138066"><ele>809.8</ele><time>2026-05-03T08:59:20Z</time></trkpt><trkpt lat="37.47344659844607" lon="14.362320961609338"><ele>810.4</ele><time>2026-05-03T08:59:21Z</time></trkpt><trkpt lat="37.47334100172421" lon="14.36245401454177"><ele>811.0</ele><time>2026-05-03T08:59:23Z</time></trkpt><trkpt lat="37.47323928797168" lon="14.362579799822782"><ele>811.0</ele><time>2026-05-03T08:59:24Z</time></trkpt><trkpt lat="37.47312468066582" lon="14.362689156561457"><ele>811.0</ele><time>2026-05-03T08:59:25Z</time></trkpt><trkpt lat="37.4730309783933" lon="14.362796922039164"><ele>811.0</ele><time>2026-05-03T08:59:26Z</time></trkpt><trkpt lat="37.47295145404931" lon="14.362855435378822"><ele>811.0</ele><time>2026-05-03T08:59:27Z</time></trkpt><trkpt lat="37.47284091100122" lon="14.362939960476972"><ele>809.8</ele><time>2026-05-03T08:59:29Z</time></trkpt><trkpt lat="37.47276200134236" lon="14.362998186260532"><ele>808.5999999999999</ele><time>2026-05-03T08:59:30Z</time></trkpt><trkpt lat="37.472682759922336" lon="14.363097619661156"><ele>807.4</ele><time>2026-05-03T08:59:31Z</time></trkpt><trkpt lat="37.47261135431653" lon="14.363215851855607"><ele>806.2</ele><time>2026-05-03T08:59:32Z</time></trkpt><trkpt lat="37.47255729710196" lon="14.363349646148778"><ele>805.0</ele><time>2026-05-03T08:59:33Z</time></trkpt><trkpt lat="37.47250623736471" lon="14.363480917225688"><ele>805.0</ele><time>2026-05-03T08:59:34Z</time></trkpt><trkpt lat="37.47245789817766" lon="14.363601453149855"><ele>805.0</ele><time>2026-05-03T08:59:35Z</time></trkpt><trkpt lat="37.47240662069367" lon="14.363720898162548"><ele>805.0</ele><time>2026-05-03T08:59:36Z</time></trkpt><trkpt lat="37.4723573877779" lon="14.363846501779403"><ele>805.0</ele><time>2026-05-03T08:59:37Z</time></trkpt><trkpt lat="37.47228489951122" lon="14.363993916210116"><ele>806.2</ele><time>2026-05-03T08:59:38Z</time></trkpt><trkpt lat="37.47221710874971" lon="14.364098271706103"><ele>807.4</ele><time>2026-05-03T08:59:39Z</time></trkpt><trkpt lat="37.47215471348259" lon="14.364190495362003"><ele>808.5999999999999</ele><time>2026-05-03T08:59:40Z</time></trkpt><trkpt lat="37.472099602332115" lon="14.364284263771934"><ele>809.8</ele><time>2026-05-03T08:59:41Z</time></trkpt><trkpt lat="37.472042530333496" lon="14.364360245267397"><ele>811.0</ele><time>2026-05-03T08:59:42Z</time></trkpt><trkpt lat="37.47198266526676" lon="14.364412532268819"><ele>809.4999999999999</ele><time>2026-05-03T08:59:43Z</time></trkpt><trkpt lat="37.47191624285927" lon="14.364440583427074"><ele>808.0</ele><time>2026-05-03T08:59:44Z</time></trkpt><trkpt lat="37.47185025398376" lon="14.364456128431945"><ele>806.5</ele><time>2026-05-03T08:59:45Z</time></trkpt><trkpt lat="37.471789249752966" lon="14.364480568675297"><ele>805.0</ele><time>2026-05-03T08:59:46Z</time></trkpt><trkpt lat="37.471735516164" lon="14.364529519250585"><ele>803.4999999999999</ele><time>2026-05-03T08:59:47Z</time></trkpt><trkpt lat="37.47169744235199" lon="14.364609854143888"><ele>802.0</ele><time>2026-05-03T08:59:48Z</time></trkpt><trkpt lat="37.4716519962822" lon="14.364740394976414"><ele>801.9999999999999</ele><time>2026-05-03T08:59:49Z</time></trkpt><trkpt lat="37.47161311353126" lon="14.364833926171155"><ele>802.0</ele><time>2026-05-03T08:59:50Z</time></trkpt><trkpt lat="37.47157258794718" lon="14.364918775278165"><ele>802.0</ele><time>2026-05-03T08:59:51Z</time></trkpt><trkpt lat="37.47152545485468" lon="14.365027545565027"><ele>802.0</ele><time>2026-05-03T08:59:53Z</time></trkpt><trkpt lat="37.471491550295404" lon="14.365108031333365"><ele>801.9999999999999</ele><time>2026-05-03T08:59:55Z</time></trkpt><trkpt lat="37.47143696466432" lon="14.36517716648032"><ele>802.0</ele><time>2026-05-03T08:59:57Z</time></trkpt><trkpt lat="37.471381801713" lon="14.365272363778866"><ele>802.0</ele><time>2026-05-03T08:59:59Z</time></trkpt><trkpt lat="37.47131534855535" lon="14.365353101047917"><ele>802.0</ele><time>2026-05-03T09:00:01Z</time></trkpt><trkpt lat="37.47123875315019" lon="14.365481370043375"><ele>802.0</ele><time>2026-05-03T09:00:03Z</time></trkpt><trkpt lat="37.471185991740306" lon="14.365545155172942"><ele>802.0</ele><time>2026-05-03T09:00:04Z</time></trkpt><trkpt lat="37.471087554274156" lon="14.365618881773317"><ele>802.0</ele><time>2026-05-03T09:00:06Z</time></trkpt><trkpt lat="37.47102762393955" lon="14.36564962709125"><ele>799.6666666666666</ele><time>2026-05-03T09:00:07Z</time></trkpt><trkpt lat="37.470959736972816" lon="14.3656854806543"><ele>797.3333333333333</ele><time>2026-05-03T09:00:08Z</time></trkpt><trkpt lat="37.47089180463644" lon="14.365732548445553"><ele>795.0</ele><time>2026-05-03T09:00:09Z</time></trkpt><trkpt lat="37.47082967941082" lon="14.365794028973168"><ele>792.6666666666667</ele><time>2026-05-03T09:00:10Z</time></trkpt><trkpt lat="37.47077670854209" lon="14.3658521765497"><ele>790.3333333333334</ele><time>2026-05-03T09:00:11Z</time></trkpt><trkpt lat="37.470726931950274" lon="14.365901743824445"><ele>788.0</ele><time>2026-05-03T09:00:12Z</time></trkpt><trkpt lat="37.4706506508555" lon="14.366025923832314"><ele>788.0</ele><time>2026-05-03T09:00:14Z</time></trkpt><trkpt lat="37.470617411651176" lon="14.366101141890418"><ele>788.0</ele><time>2026-05-03T09:00:15Z</time></trkpt><trkpt lat="37.470568205225646" lon="14.366163747708448"><ele>788.0</ele><time>2026-05-03T09:00:16Z</time></trkpt><trkpt lat="37.47047019462106" lon="14.366258959574916"><ele>788.0</ele><time>2026-05-03T09:00:18Z</time></trkpt><trkpt lat="37.470357013464884" lon="14.366341795862988"><ele>788.0</ele><time>2026-05-03T09:00:20Z</time></trkpt><trkpt lat="37.47029891694071" lon="14.366390100524086"><ele>787.1666666666667</ele><time>2026-05-03T09:00:21Z</time></trkpt><trkpt lat="37.47023783661822" lon="14.36641786880277"><ele>786.3333333333334</ele><time>2026-05-03T09:00:22Z</time></trkpt><trkpt lat="37.47017659600445" lon="14.366464351656639"><ele>785.5</ele><time>2026-05-03T09:00:23Z</time></trkpt><trkpt lat="37.470054750653716" lon="14.366493055256376"><ele>784.6666666666667</ele><time>2026-05-03T09:00:25Z</time></trkpt><trkpt lat="37.469991463138044" lon="14.366529755468601"><ele>783.8333333333334</ele><time>2026-05-03T09:00:27Z</time></trkpt><trkpt lat="37.46993733981948" lon="14.366650537312799"><ele>783.0</ele><time>2026-05-03T09:00:31Z</time></trkpt><trkpt lat="37.469905652224234" lon="14.366785911154107"><ele>783.0</ele><time>2026-05-03T09:00:33Z</time></trkpt><trkpt lat="37.46983867670133" lon="14.366896370924188"><ele>783.0</ele><time>2026-05-03T09:00:35Z</time></trkpt><trkpt lat="37.46976357789849" lon="14.366926530711156"><ele>783.0</ele><time>2026-05-03T09:00:36Z</time></trkpt><trkpt lat="37.46970998054751" lon="14.367013067380494"><ele>783.0</ele><time>2026-05-03T09:00:37Z</time></trkpt><trkpt lat="37.46965532954189" lon="14.367074940724047"><ele>783.0</ele><time>2026-05-03T09:00:38Z</time></trkpt><trkpt lat="37.46961506009533" lon="14.367144828679114"><ele>783.0</ele><time>2026-05-03T09:00:39Z</time></trkpt><trkpt lat="37.46953895272044" lon="14.367219123918455"><ele>787.0</ele><time>2026-05-03T09:00:41Z</time></trkpt><trkpt lat="37.46927205547001" lon="14.366987559621831"><ele>791.0</ele><time>2026-05-03T09:00:44Z</time></trkpt><trkpt lat="37.469162050034264" lon="14.366884866066016"><ele>791.0000000000001</ele><time>2026-05-03T09:00:46Z</time></trkpt><trkpt lat="37.469103343352955" lon="14.36682116033485"><ele>791.0</ele><time>2026-05-03T09:00:47Z</time></trkpt><trkpt lat="37.46905370258323" lon="14.366760272629286"><ele>791.0</ele><time>2026-05-03T09:00:48Z</time></trkpt><trkpt lat="37.46898424710474" lon="14.366683328273139"><ele>791.0</ele><time>2026-05-03T09:00:50Z</time></trkpt><trkpt lat="37.46891356541709" lon="14.366607567368385"><ele>791.0000000000001</ele><time>2026-05-03T09:00:52Z</time></trkpt><trkpt lat="37.468835817125495" lon="14.36662676543377"><ele>791.0</ele><time>2026-05-03T09:00:54Z</time></trkpt><trkpt lat="37.468752472596826" lon="14.366621166045498"><ele>793.8333333333334</ele><time>2026-05-03T09:00:58Z</time></trkpt><trkpt lat="37.4686619445533" lon="14.36664760062635"><ele>796.6666666666667</ele><time>2026-05-03T09:01:01Z</time></trkpt><trkpt lat="37.46858401794788" lon="14.366680467911353"><ele>799.5</ele><time>2026-05-03T09:01:04Z</time></trkpt><trkpt lat="37.46852118571475" lon="14.366703251751698"><ele>802.3333333333333</ele><time>2026-05-03T09:01:06Z</time></trkpt><trkpt lat="37.468434133918926" lon="14.366700525134025"><ele>805.1666666666666</ele><time>2026-05-03T09:01:08Z</time></trkpt><trkpt lat="37.46834032503365" lon="14.366720578871801"><ele>808.0</ele><time>2026-05-03T09:01:10Z</time></trkpt><trkpt lat="37.468274694716115" lon="14.3667357315568"><ele>808.0</ele><time>2026-05-03T09:01:11Z</time></trkpt><trkpt lat="37.468149488322354" lon="14.366732778973867"><ele>808.0</ele><time>2026-05-03T09:01:13Z</time></trkpt><trkpt lat="37.46804162023237" lon="14.366765196995333"><ele>808.0</ele><time>2026-05-03T09:01:15Z</time></trkpt><trkpt lat="37.467951805503326" lon="14.366803371790581"><ele>808.0</ele><time>2026-05-03T09:01:17Z</time></trkpt><trkpt lat="37.467871540666074" lon="14.366803570043295"><ele>808.0</ele><time>2026-05-03T09:01:19Z</time></trkpt><trkpt lat="37.46778528791142" lon="14.366834141288223"><ele>809.6666666666666</ele><time>2026-05-03T09:01:21Z</time></trkpt><trkpt lat="37.467728875177016" lon="14.366871199370014"><ele>811.3333333333333</ele><time>2026-05-03T09:01:23Z</time></trkpt><trkpt lat="37.46765974264514" lon="14.366875362404713"><ele>813.0</ele><time>2026-05-03T09:01:25Z</time></trkpt><trkpt lat="37.467585300656715" lon="14.366872149944296"><ele>814.6666666666667</ele><time>2026-05-03T09:01:27Z</time></trkpt><trkpt lat="37.46750512750388" lon="14.366925513585057"><ele>816.3333333333334</ele><time>2026-05-03T09:01:30Z</time></trkpt><trkpt lat="37.467388649309065" lon="14.366933617579587"><ele>818.0</ele><time>2026-05-03T09:01:32Z</time></trkpt><trkpt lat="37.46728857246935" lon="14.366950295088989"><ele>818.0000000000001</ele><time>2026-05-03T09:01:33Z</time></trkpt><trkpt lat="37.467203914151796" lon="14.366954948466606"><ele>818.0</ele><time>2026-05-03T09:01:34Z</time></trkpt><trkpt lat="37.46711492521469" lon="14.366953860081816"><ele>818.0</ele><time>2026-05-03T09:01:35Z</time></trkpt><trkpt lat="37.467036608942564" lon="14.366976238582868"><ele>818.0</ele><time>2026-05-03T09:01:36Z</time></trkpt><trkpt lat="37.46696692088044" lon="14.366995484005537"><ele>818.0000000000001</ele><time>2026-05-03T09:01:37Z</time></trkpt><trkpt lat="37.466883310019846" lon="14.367015031920845"><ele>818.0</ele><time>2026-05-03T09:01:39Z</time></trkpt><trkpt lat="37.466817391445716" lon="14.366998889496255"><ele>820.0</ele><time>2026-05-03T09:01:42Z</time></trkpt><trkpt lat="37.466742658511365" lon="14.366886508626184"><ele>822.0</ele><time>2026-05-03T09:02:28Z</time></trkpt><trkpt lat="37.46668322064489" lon="14.366845623268187"><ele>824.0</ele><time>2026-05-03T09:02:29Z</time></trkpt><trkpt lat="37.4665717526514" lon="14.366823427780337"><ele>826.0</ele><time>2026-05-03T09:02:30Z</time></trkpt><trkpt lat="37.46642143353813" lon="14.36678696950136"><ele>825.0</ele><time>2026-05-03T09:02:31Z</time></trkpt><trkpt lat="37.46624313027575" lon="14.366730162788341"><ele>824.0</ele><time>2026-05-03T09:02:32Z</time></trkpt><trkpt lat="37.46603916653151" lon="14.366689597589524"><ele>823.0</ele><time>2026-05-03T09:02:33Z</time></trkpt><trkpt lat="37.465823442088976" lon="14.36667306027281"><ele>823.0</ele><time>2026-05-03T09:02:34Z</time></trkpt><trkpt lat="37.46561332968509" lon="14.366641873671957"><ele>823.0</ele><time>2026-05-03T09:02:35Z</time></trkpt><trkpt lat="37.46544890531377" lon="14.366581277725002"><ele>823.0</ele><time>2026-05-03T09:02:36Z</time></trkpt><trkpt lat="37.465302256113844" lon="14.366503460949035"><ele>823.5</ele><time>2026-05-03T09:02:37Z</time></trkpt><trkpt lat="37.465155868243286" lon="14.366445228926942"><ele>824.0</ele><time>2026-05-03T09:02:38Z</time></trkpt><trkpt lat="37.46502850925072" lon="14.36637911361505"><ele>824.5</ele><time>2026-05-03T09:02:39Z</time></trkpt><trkpt lat="37.46490028280902" lon="14.366333759914111"><ele>825.0</ele><time>2026-05-03T09:02:40Z</time></trkpt><trkpt lat="37.46474996890328" lon="14.366281286917388"><ele>823.75</ele><time>2026-05-03T09:02:41Z</time></trkpt><trkpt lat="37.46461220635531" lon="14.366226246648889"><ele>822.5</ele><time>2026-05-03T09:02:42Z</time></trkpt><trkpt lat="37.464483264361476" lon="14.366171358026895"><ele>821.25</ele><time>2026-05-03T09:02:43Z</time></trkpt><trkpt lat="37.4643638172276" lon="14.366139756196612"><ele>820.0</ele><time>2026-05-03T09:02:44Z</time></trkpt><trkpt lat="37.464237544923506" lon="14.366096782361268"><ele>820.0</ele><time>2026-05-03T09:02:45Z</time></trkpt><trkpt lat="37.46410922899371" lon="14.366070546326617"><ele>820.0</ele><time>2026-05-03T09:02:46Z</time></trkpt><trkpt lat="37.4639718566016" lon="14.366039749748948"><ele>820.0</ele><time>2026-05-03T09:02:47Z</time></trkpt><trkpt lat="37.463844166633606" lon="14.366025017131117"><ele>820.0</ele><time>2026-05-03T09:02:48Z</time></trkpt><trkpt lat="37.46370772231996" lon="14.36603311239496"><ele>817.75</ele><time>2026-05-03T09:02:49Z</time></trkpt><trkpt lat="37.46355876645119" lon="14.366062670847947"><ele>815.5</ele><time>2026-05-03T09:02:50Z</time></trkpt><trkpt lat="37.46341907331507" lon="14.366111777222832"><ele>813.25</ele><time>2026-05-03T09:02:51Z</time></trkpt><trkpt lat="37.463288497545726" lon="14.366204202445237"><ele>811.0</ele><time>2026-05-03T09:02:52Z</time></trkpt><trkpt lat="37.463178004507" lon="14.366295838591364"><ele>811.5</ele><time>2026-05-03T09:02:53Z</time></trkpt><trkpt lat="37.463096369624765" lon="14.366364484202332"><ele>812.0</ele><time>2026-05-03T09:02:54Z</time></trkpt><trkpt lat="37.463010786026096" lon="14.366442587314344"><ele>812.5</ele><time>2026-05-03T09:02:55Z</time></trkpt><trkpt lat="37.46290844828082" lon="14.36652527118267"><ele>813.0</ele><time>2026-05-03T09:02:56Z</time></trkpt><trkpt lat="37.462792231119565" lon="14.366598660493494"><ele>813.0</ele><time>2026-05-03T09:02:57Z</time></trkpt><trkpt lat="37.46266571006619" lon="14.366671647901594"><ele>813.0</ele><time>2026-05-03T09:02:58Z</time></trkpt><trkpt lat="37.46254711621801" lon="14.366741886781384"><ele>813.0</ele><time>2026-05-03T09:02:59Z</time></trkpt><trkpt lat="37.4624435710825" lon="14.366804641516122"><ele>813.0</ele><time>2026-05-03T09:03:00Z</time></trkpt><trkpt lat="37.46235035403774" lon="14.366855060802909"><ele>813.0</ele><time>2026-05-03T09:03:01Z</time></trkpt><trkpt lat="37.46226208256965" lon="14.366908417419817"><ele>813.0</ele><time>2026-05-03T09:03:02Z</time></trkpt><trkpt lat="37.46215212516715" lon="14.366946579281718"><ele>813.0</ele><time>2026-05-03T09:03:03Z</time></trkpt><trkpt lat="37.4620709105756" lon="14.366935154822835"><ele>813.0</ele><time>2026-05-03T09:03:04Z</time></trkpt><trkpt lat="37.46197575072644" lon="14.366903462684812"><ele>813.0</ele><time>2026-05-03T09:03:05Z</time></trkpt><trkpt lat="37.46186606019869" lon="14.366911006529111"><ele>812.25</ele><time>2026-05-03T09:03:06Z</time></trkpt><trkpt lat="37.46174533803534" lon="14.366935744268362"><ele>811.5</ele><time>2026-05-03T09:03:07Z</time></trkpt><trkpt lat="37.46159779836952" lon="14.366966294470448"><ele>810.75</ele><time>2026-05-03T09:03:08Z</time></trkpt><trkpt lat="37.461428228934665" lon="14.366981935279352"><ele>810.0</ele><time>2026-05-03T09:03:09Z</time></trkpt><trkpt lat="37.461279416447034" lon="14.366959465941832"><ele>809.75</ele><time>2026-05-03T09:03:10Z</time></trkpt><trkpt lat="37.46111769605107" lon="14.366954450152296"><ele>809.5</ele><time>2026-05-03T09:03:11Z</time></trkpt><trkpt lat="37.46098268488245" lon="14.366953432591409"><ele>809.25</ele><time>2026-05-03T09:03:12Z</time></trkpt><trkpt lat="37.46085621378504" lon="14.366974628934022"><ele>809.0</ele><time>2026-05-03T09:03:13Z</time></trkpt><trkpt lat="37.460724453774596" lon="14.367002881086856"><ele>809.0</ele><time>2026-05-03T09:03:14Z</time></trkpt><trkpt lat="37.460596922822134" lon="14.367053135109137"><ele>809.0</ele><time>2026-05-03T09:03:15Z</time></trkpt><trkpt lat="37.46046280353424" lon="14.367110635271686"><ele>809.0</ele><time>2026-05-03T09:03:16Z</time></trkpt><trkpt lat="37.46028293663629" lon="14.366911847708167"><ele>808.6</ele><time>2026-05-03T09:03:17Z</time></trkpt><trkpt lat="37.46018423879078" lon="14.366951851257882"><ele>808.2</ele><time>2026-05-03T09:03:18Z</time></trkpt><trkpt lat="37.46009120012007" lon="14.366987411249625"><ele>807.8000000000001</ele><time>2026-05-03T09:03:19Z</time></trkpt><trkpt lat="37.46000638010626" lon="14.367019102051039"><ele>807.4000000000001</ele><time>2026-05-03T09:03:20Z</time></trkpt><trkpt lat="37.45992839159807" lon="14.367040279056106"><ele>807.0</ele><time>2026-05-03T09:03:21Z</time></trkpt><trkpt lat="37.45983219230245" lon="14.367061520844361"><ele>807.0</ele><time>2026-05-03T09:03:22Z</time></trkpt><trkpt lat="37.45976191285284" lon="14.367072985805567"><ele>807.0</ele><time>2026-05-03T09:03:23Z</time></trkpt><trkpt lat="37.45969127358781" lon="14.367083103048875"><ele>807.0</ele><time>2026-05-03T09:03:24Z</time></trkpt><trkpt lat="37.459615915244" lon="14.367093837037467"><ele>807.0</ele><time>2026-05-03T09:03:25Z</time></trkpt><trkpt lat="37.459510494820854" lon="14.36710885292009"><ele>807.0</ele><time>2026-05-03T09:03:27Z</time></trkpt><trkpt lat="37.459461324178164" lon="14.367423149758352"><ele>811.3333333333333</ele><time>2026-05-03T09:03:29Z</time></trkpt><trkpt lat="37.45936063106788" lon="14.367103891738205"><ele>815.6666666666666</ele><time>2026-05-03T09:03:31Z</time></trkpt><trkpt lat="37.4592397258594" lon="14.367099603630605"><ele>820.0</ele><time>2026-05-03T09:03:33Z</time></trkpt><trkpt lat="37.45915774521273" lon="14.367093743964572"><ele>819.9999999999999</ele><time>2026-05-03T09:03:35Z</time></trkpt><trkpt lat="37.45909095823046" lon="14.367086474712666"><ele>820.0</ele><time>2026-05-03T09:03:36Z</time></trkpt><trkpt lat="37.45898647006982" lon="14.367069442271264"><ele>820.0</ele><time>2026-05-03T09:03:38Z</time></trkpt><trkpt lat="37.458899502048126" lon="14.367053207706315"><ele>820.0</ele><time>2026-05-03T09:03:40Z</time></trkpt><trkpt lat="37.45882081636897" lon="14.36702959355508"><ele>819.9999999999999</ele><time>2026-05-03T09:03:42Z</time></trkpt><trkpt lat="37.45873957116041" lon="14.367004473919131"><ele>820.0</ele><time>2026-05-03T09:03:44Z</time></trkpt><trkpt lat="37.458662543580324" lon="14.36697912386645"><ele>821.5</ele><time>2026-05-03T09:03:46Z</time></trkpt><trkpt lat="37.4585893202194" lon="14.366952334414641"><ele>823.0</ele><time>2026-05-03T09:03:48Z</time></trkpt><trkpt lat="37.458505197608176" lon="14.366918942168642"><ele>824.5</ele><time>2026-05-03T09:03:51Z</time></trkpt><trkpt lat="37.458422906740736" lon="14.366880635781946"><ele>826.0</ele><time>2026-05-03T09:03:55Z</time></trkpt><trkpt lat="37.458227817677724" lon="14.36739725174776"><ele>825.9999999999999</ele><time>2026-05-03T09:04:02Z</time></trkpt><trkpt lat="37.45816338878518" lon="14.367337953320572"><ele>826.0</ele><time>2026-05-03T09:04:21Z</time></trkpt><trkpt lat="37.458094855962635" lon="14.367344979097103"><ele>826.0</ele><time>2026-05-03T09:04:23Z</time></trkpt><trkpt lat="37.45796708199144" lon="14.367344347932772"><ele>826.0</ele><time>2026-05-03T09:04:25Z</time></trkpt><trkpt lat="37.45786874864896" lon="14.367345219643628"><ele>825.9999999999999</ele><time>2026-05-03T09:04:27Z</time></trkpt><trkpt lat="37.45780041458591" lon="14.367342256498569"><ele>826.0</ele><time>2026-05-03T09:04:29Z</time></trkpt><trkpt lat="37.45783346811398" lon="14.367272087462343"><ele>826.4999999999999</ele><time>2026-05-03T09:04:42Z</time></trkpt><trkpt lat="37.457856551375784" lon="14.36717616221843"><ele>827.0</ele><time>2026-05-03T09:04:45Z</time></trkpt><trkpt lat="37.45784865189037" lon="14.36708427004318"><ele>827.5</ele><time>2026-05-03T09:05:11Z</time></trkpt><trkpt lat="37.45782918289517" lon="14.366981637622256"><ele>828.0</ele><time>2026-05-03T09:05:14Z</time></trkpt><trkpt lat="37.457821663494315" lon="14.366866128912251"><ele>828.4999999999999</ele><time>2026-05-03T09:05:17Z</time></trkpt><trkpt lat="37.457792470560904" lon="14.36675633927353"><ele>829.0</ele><time>2026-05-03T09:05:20Z</time></trkpt><trkpt lat="37.45772916981635" lon="14.366701739251253"><ele>829.0</ele><time>2026-05-03T09:05:22Z</time></trkpt><trkpt lat="37.45766300836007" lon="14.366646725126454"><ele>829.0</ele><time>2026-05-03T09:05:24Z</time></trkpt><trkpt lat="37.45760997812356" lon="14.366595871241637"><ele>829.0</ele><time>2026-05-03T09:05:26Z</time></trkpt><trkpt lat="37.457550064364774" lon="14.36654737505895"><ele>829.0</ele><time>2026-05-03T09:05:28Z</time></trkpt><trkpt lat="37.45749218975354" lon="14.3665041755667"><ele>829.0</ele><time>2026-05-03T09:05:30Z</time></trkpt><trkpt lat="37.457422721911236" lon="14.366461721570289"><ele>829.0</ele><time>2026-05-03T09:05:32Z</time></trkpt><trkpt lat="37.45735254784249" lon="14.366406167803603"><ele>829.0</ele><time>2026-05-03T09:05:35Z</time></trkpt><trkpt lat="37.45728636830334" lon="14.366363501130936"><ele>826.25</ele><time>2026-05-03T09:05:38Z</time></trkpt><trkpt lat="37.457196631900615" lon="14.366306487125815"><ele>823.5</ele><time>2026-05-03T09:05:41Z</time></trkpt><trkpt lat="37.45713627040726" lon="14.36626825565159"><ele>820.75</ele><time>2026-05-03T09:05:43Z</time></trkpt><trkpt lat="37.457023737743505" lon="14.36621517883631"><ele>818.0</ele><time>2026-05-03T09:05:45Z</time></trkpt><trkpt lat="37.45701503853405" lon="14.365952590354468"><ele>816.5999999999999</ele><time>2026-05-03T09:05:47Z</time></trkpt><trkpt lat="37.45693824257054" lon="14.365899035862075"><ele>815.1999999999999</ele><time>2026-05-03T09:05:49Z</time></trkpt><trkpt lat="37.456847142183435" lon="14.365835505891715"><ele>813.8</ele><time>2026-05-03T09:05:51Z</time></trkpt><trkpt lat="37.45675324702533" lon="14.365770026985619"><ele>812.4</ele><time>2026-05-03T09:05:53Z</time></trkpt><trkpt lat="37.45666618553977" lon="14.36570931370343"><ele>811.0</ele><time>2026-05-03T09:05:55Z</time></trkpt><trkpt lat="37.45657283341926" lon="14.365644231901614"><ele>810.9999999999999</ele><time>2026-05-03T09:05:57Z</time></trkpt><trkpt lat="37.45649903637962" lon="14.365592837791626"><ele>811.0</ele><time>2026-05-03T09:05:59Z</time></trkpt><trkpt lat="37.45642250230432" lon="14.36553953750443"><ele>811.0</ele><time>2026-05-03T09:06:01Z</time></trkpt><trkpt lat="37.45633412054413" lon="14.365477986157108"><ele>811.0</ele><time>2026-05-03T09:06:03Z</time></trkpt><trkpt lat="37.456259033999565" lon="14.365425693925717"><ele>810.9999999999999</ele><time>2026-05-03T09:06:05Z</time></trkpt><trkpt lat="37.45620305167212" lon="14.365386706363804"><ele>811.0</ele><time>2026-05-03T09:06:07Z</time></trkpt><trkpt lat="37.456119890215646" lon="14.365328790620705"><ele>810.4999999999999</ele><time>2026-05-03T09:06:10Z</time></trkpt><trkpt lat="37.45605232880115" lon="14.365281739132262"><ele>810.0</ele><time>2026-05-03T09:06:12Z</time></trkpt><trkpt lat="37.455977591181195" lon="14.365229689963545"><ele>809.5</ele><time>2026-05-03T09:06:15Z</time></trkpt><trkpt lat="37.455904483041365" lon="14.365343301942474"><ele>809.0</ele><time>2026-05-03T09:06:16Z</time></trkpt><trkpt lat="37.45583031964292" lon="14.36531335545798"><ele>808.4999999999999</ele><time>2026-05-03T09:06:19Z</time></trkpt><trkpt lat="37.45575631305781" lon="14.365302746164613"><ele>808.0</ele><time>2026-05-03T09:06:21Z</time></trkpt><trkpt lat="37.455666101154975" lon="14.365230707625924"><ele>808.0</ele><time>2026-05-03T09:06:23Z</time></trkpt><trkpt lat="37.455597275448305" lon="14.365176663051283"><ele>808.0</ele><time>2026-05-03T09:06:25Z</time></trkpt><trkpt lat="37.455519525203734" lon="14.365142676239516"><ele>808.0</ele><time>2026-05-03T09:06:27Z</time></trkpt><trkpt lat="37.45543843947631" lon="14.365070464753709"><ele>808.0</ele><time>2026-05-03T09:06:29Z</time></trkpt><trkpt lat="37.455378459761576" lon="14.365041717213424"><ele>808.0</ele><time>2026-05-03T09:06:30Z</time></trkpt><trkpt lat="37.45533571040976" lon="14.364782573115184"><ele>808.6666666666666</ele><time>2026-05-03T09:06:32Z</time></trkpt><trkpt lat="37.4552709678651" lon="14.364737769087053"><ele>809.3333333333333</ele><time>2026-05-03T09:06:33Z</time></trkpt><trkpt lat="37.45517776451331" lon="14.364673269249522"><ele>810.0</ele><time>2026-05-03T09:06:35Z</time></trkpt><trkpt lat="37.4551050197637" lon="14.36462292742057"><ele>810.6666666666667</ele><time>2026-05-03T09:06:36Z</time></trkpt><trkpt lat="37.455039845242965" lon="14.364577824451402"><ele>811.3333333333334</ele><time>2026-05-03T09:06:37Z</time></trkpt><trkpt lat="37.45498211943715" lon="14.364537876048209"><ele>812.0</ele><time>2026-05-03T09:06:38Z</time></trkpt><trkpt lat="37.45489515665891" lon="14.364521391663603"><ele>811.0000000000001</ele><time>2026-05-03T09:06:41Z</time></trkpt><trkpt lat="37.454823631802526" lon="14.364509962430711"><ele>810.0</ele><time>2026-05-03T09:06:43Z</time></trkpt><trkpt lat="37.45482424019116" lon="14.364428618309631"><ele>809.0</ele><time>2026-05-03T09:06:44Z</time></trkpt><trkpt lat="37.45474862578005" lon="14.364376290237812"><ele>808.0</ele><time>2026-05-03T09:06:46Z</time></trkpt><trkpt lat="37.454682938323415" lon="14.364331014750366"><ele>807.0000000000001</ele><time>2026-05-03T09:06:47Z</time></trkpt><trkpt lat="37.45457980710096" lon="14.364261345491904"><ele>806.0</ele><time>2026-05-03T09:06:49Z</time></trkpt><trkpt lat="37.454490867733625" lon="14.364208223438007"><ele>806.0</ele><time>2026-05-03T09:06:52Z</time></trkpt><trkpt lat="37.45441853189288" lon="14.36416501842443"><ele>806.0</ele><time>2026-05-03T09:06:54Z</time></trkpt><trkpt lat="37.45431795098196" lon="14.364112513035339"><ele>806.0</ele><time>2026-05-03T09:06:56Z</time></trkpt><trkpt lat="37.45422402674857" lon="14.364071508892772"><ele>806.0</ele><time>2026-05-03T09:06:58Z</time></trkpt><trkpt lat="37.45416219440655" lon="14.364046904199016"><ele>806.0</ele><time>2026-05-03T09:06:59Z</time></trkpt><trkpt lat="37.45406026334611" lon="14.364229458242216"><ele>806.0000000000001</ele><time>2026-05-03T09:07:00Z</time></trkpt><trkpt lat="37.45398211859852" lon="14.364188496455435"><ele>806.0</ele><time>2026-05-03T09:07:04Z</time></trkpt><trkpt lat="37.453918350552485" lon="14.364148119156608"><ele>806.0</ele><time>2026-05-03T09:07:06Z</time></trkpt><trkpt lat="37.45385116574839" lon="14.364118323055038"><ele>806.0</ele><time>2026-05-03T09:08:11Z</time></trkpt><trkpt lat="37.453774918644804" lon="14.364101535715657"><ele>806.0000000000001</ele><time>2026-05-03T09:08:38Z</time></trkpt><trkpt lat="37.45370435590603" lon="14.36409738911205"><ele>806.0</ele><time>2026-05-03T09:08:41Z</time></trkpt><trkpt lat="37.45362407590963" lon="14.364088508742862"><ele>806.75</ele><time>2026-05-03T09:08:45Z</time></trkpt><trkpt lat="37.453527859619086" lon="14.364076288126727"><ele>807.5</ele><time>2026-05-03T09:08:47Z</time></trkpt><trkpt lat="37.4534180257096" lon="14.364074557467347"><ele>808.25</ele><time>2026-05-03T09:08:49Z</time></trkpt><trkpt lat="37.453364019602915" lon="14.363880971166825"><ele>809.0</ele><time>2026-05-03T09:08:50Z</time></trkpt><trkpt lat="37.45327186394138" lon="14.363880893086096"><ele>809.0</ele><time>2026-05-03T09:08:53Z</time></trkpt><trkpt lat="37.45319410465165" lon="14.36388364014504"><ele>809.0</ele><time>2026-05-03T09:08:55Z</time></trkpt><trkpt lat="37.45311875495393" lon="14.363890038396676"><ele>809.0</ele><time>2026-05-03T09:08:57Z</time></trkpt><trkpt lat="37.453008105000876" lon="14.363903768162844"><ele>809.0</ele><time>2026-05-03T09:08:59Z</time></trkpt><trkpt lat="37.452888666446185" lon="14.363927074975019"><ele>809.0</ele><time>2026-05-03T09:09:01Z</time></trkpt><trkpt lat="37.4528127041914" lon="14.363943874496917"><ele>807.1666666666667</ele><time>2026-05-03T09:09:02Z</time></trkpt><trkpt lat="37.45273363280142" lon="14.363965429461508"><ele>805.3333333333334</ele><time>2026-05-03T09:09:03Z</time></trkpt><trkpt lat="37.45265880346554" lon="14.363986471858961"><ele>803.5</ele><time>2026-05-03T09:09:04Z</time></trkpt><trkpt lat="37.45257640941604" lon="14.364013457644543"><ele>801.6666666666667</ele><time>2026-05-03T09:09:05Z</time></trkpt><trkpt lat="37.45250167906695" lon="14.36404138404736"><ele>799.8333333333334</ele><time>2026-05-03T09:09:06Z</time></trkpt><trkpt lat="37.4524220900187" lon="14.364072637806878"><ele>798.0</ele><time>2026-05-03T09:09:07Z</time></trkpt><trkpt lat="37.452333631341226" lon="14.364110661797216"><ele>798.0</ele><time>2026-05-03T09:09:08Z</time></trkpt><trkpt lat="37.45225178380786" lon="14.364147183977892"><ele>798.0</ele><time>2026-05-03T09:09:09Z</time></trkpt><trkpt lat="37.45216295269589" lon="14.364188345326381"><ele>798.0</ele><time>2026-05-03T09:09:10Z</time></trkpt><trkpt lat="37.452075863613224" lon="14.364231118071306"><ele>798.0</ele><time>2026-05-03T09:09:11Z</time></trkpt><trkpt lat="37.45198976964243" lon="14.364275095806763"><ele>798.0</ele><time>2026-05-03T09:09:12Z</time></trkpt><trkpt lat="37.45192504567497" lon="14.364308157386194"><ele>798.0</ele><time>2026-05-03T09:09:13Z</time></trkpt><trkpt lat="37.45184493799032" lon="14.364349077190752"><ele>796.6666666666666</ele><time>2026-05-03T09:09:14Z</time></trkpt><trkpt lat="37.45177779126891" lon="14.36438320912757"><ele>795.3333333333333</ele><time>2026-05-03T09:09:15Z</time></trkpt><trkpt lat="37.45170720083065" lon="14.364418877154762"><ele>794.0</ele><time>2026-05-03T09:09:16Z</time></trkpt><trkpt lat="37.45163075189754" lon="14.364457505415036"><ele>792.6666666666666</ele><time>2026-05-03T09:09:17Z</time></trkpt><trkpt lat="37.451544558177716" lon="14.364501057495408"><ele>791.3333333333333</ele><time>2026-05-03T09:09:18Z</time></trkpt><trkpt lat="37.451466105361376" lon="14.364540698115457"><ele>790.0</ele><time>2026-05-03T09:09:19Z</time></trkpt><trkpt lat="37.451384609046734" lon="14.36458045190594"><ele>790.1666666666666</ele><time>2026-05-03T09:09:20Z</time></trkpt><trkpt lat="37.451289134079985" lon="14.36462683694884"><ele>790.3333333333333</ele><time>2026-05-03T09:09:21Z</time></trkpt><trkpt lat="37.45121011030706" lon="14.364661664369244"><ele>790.5</ele><time>2026-05-03T09:09:22Z</time></trkpt><trkpt lat="37.451131596944364" lon="14.364694409345296"><ele>790.6666666666667</ele><time>2026-05-03T09:09:23Z</time></trkpt><trkpt lat="37.451044367453875" lon="14.364728190210945"><ele>790.8333333333334</ele><time>2026-05-03T09:09:24Z</time></trkpt><trkpt lat="37.45096334778533" lon="14.36475607117333"><ele>791.0</ele><time>2026-05-03T09:09:25Z</time></trkpt><trkpt lat="37.450870469043636" lon="14.364782851930727"><ele>792.8333333333334</ele><time>2026-05-03T09:09:26Z</time></trkpt><trkpt lat="37.4507920468795" lon="14.364802842261204"><ele>794.6666666666667</ele><time>2026-05-03T09:09:27Z</time></trkpt><trkpt lat="37.450725384080535" lon="14.364817709181326"><ele>796.5</ele><time>2026-05-03T09:09:28Z</time></trkpt><trkpt lat="37.45060470984655" lon="14.364841787569526"><ele>798.3333333333333</ele><time>2026-05-03T09:09:30Z</time></trkpt><trkpt lat="37.45052879209448" lon="14.36485101895339"><ele>800.1666666666666</ele><time>2026-05-03T09:09:31Z</time></trkpt><trkpt lat="37.450449655892704" lon="14.36485998575193"><ele>802.0</ele><time>2026-05-03T09:09:32Z</time></trkpt><trkpt lat="37.450367570853594" lon="14.36486624823093"><ele>802.3333333333333</ele><time>2026-05-03T09:09:33Z</time></trkpt><trkpt lat="37.450280841293896" lon="14.364871526258739"><ele>802.6666666666666</ele><time>2026-05-03T09:09:34Z</time></trkpt><trkpt lat="37.45019367733197" lon="14.364874046888895"><ele>803.0</ele><time>2026-05-03T09:09:35Z</time></trkpt><trkpt lat="37.45010826365414" lon="14.364876516903777"><ele>803.3333333333333</ele><time>2026-05-03T09:09:36Z</time></trkpt><trkpt lat="37.45002571129313" lon="14.364878906316763"><ele>803.6666666666666</ele><time>2026-05-03T09:09:37Z</time></trkpt><trkpt lat="37.44994658384615" lon="14.364881241716711"><ele>804.0</ele><time>2026-05-03T09:09:38Z</time></trkpt><trkpt lat="37.44987588179897" lon="14.364883328450077"><ele>804.0</ele><time>2026-05-03T09:09:39Z</time></trkpt><trkpt lat="37.44979664850443" lon="14.364885666983506"><ele>804.0</ele><time>2026-05-03T09:09:41Z</time></trkpt><trkpt lat="37.449724393421505" lon="14.364887799563986"><ele>804.0</ele><time>2026-05-03T09:09:43Z</time></trkpt><trkpt lat="37.4496356831745" lon="14.364890067027046"><ele>804.0</ele><time>2026-05-03T09:09:45Z</time></trkpt><trkpt lat="37.44950428076268" lon="14.364893358546615"><ele>804.0</ele><time>2026-05-03T09:09:47Z</time></trkpt><trkpt lat="37.449438057884876" lon="14.364895017366447"><ele>804.0</ele><time>2026-05-03T09:09:48Z</time></trkpt><trkpt lat="37.44937472196817" lon="14.364896603876131"><ele>804.8333333333334</ele><time>2026-05-03T09:09:49Z</time></trkpt><trkpt lat="37.449304838467405" lon="14.364898354392832"><ele>805.6666666666667</ele><time>2026-05-03T09:09:50Z</time></trkpt><trkpt lat="37.44922069534461" lon="14.364900462106739"><ele>806.5</ele><time>2026-05-03T09:09:52Z</time></trkpt><trkpt lat="37.44915029368195" lon="14.364902225604137"><ele>807.3333333333334</ele><time>2026-05-03T09:09:54Z</time></trkpt><trkpt lat="37.44907207795688" lon="14.36490418483176"><ele>808.1666666666667</ele><time>2026-05-03T09:09:56Z</time></trkpt><trkpt lat="37.448994530118256" lon="14.364906127316305"><ele>809.0</ele><time>2026-05-03T09:09:58Z</time></trkpt><trkpt lat="37.44889761069489" lon="14.364908555056024"><ele>809.0000000000001</ele><time>2026-05-03T09:10:00Z</time></trkpt><trkpt lat="37.44883182453298" lon="14.364910202950496"><ele>809.0</ele><time>2026-05-03T09:10:02Z</time></trkpt><trkpt lat="37.4487672296129" lon="14.364911820994918"><ele>809.0</ele><time>2026-05-03T09:10:04Z</time></trkpt><trkpt lat="37.44868452084257" lon="14.364914064867339"><ele>809.0</ele><time>2026-05-03T09:10:10Z</time></trkpt><trkpt lat="37.44858872015955" lon="14.364917879933984"><ele>809.0000000000001</ele><time>2026-05-03T09:10:14Z</time></trkpt><trkpt lat="37.44852449822247" lon="14.364920437447477"><ele>809.0</ele><time>2026-05-03T09:10:16Z</time></trkpt><trkpt lat="37.44849874057432" lon="14.364789197875126"><ele>807.2</ele><time>2026-05-03T09:10:34Z</time></trkpt><trkpt lat="37.44847702851438" lon="14.364659333713009"><ele>805.4000000000001</ele><time>2026-05-03T09:10:36Z</time></trkpt><trkpt lat="37.44844990562395" lon="14.364539723864155"><ele>803.6</ele><time>2026-05-03T09:10:37Z</time></trkpt><trkpt lat="37.44842016698614" lon="14.364445036402085"><ele>801.8</ele><time>2026-05-03T09:10:38Z</time></trkpt><trkpt lat="37.4483995118132" lon="14.3643609474051"><ele>800.0</ele><time>2026-05-03T09:10:39Z</time></trkpt><trkpt lat="37.44837990624171" lon="14.364238495077682"><ele>800.0</ele><time>2026-05-03T09:10:41Z</time></trkpt><trkpt lat="37.448147777114244" lon="14.364260594459655"><ele>800.0</ele><time>2026-05-03T09:10:44Z</time></trkpt><trkpt lat="37.44806814039568" lon="14.364301306844542"><ele>800.0</ele><time>2026-05-03T09:10:45Z</time></trkpt><trkpt lat="37.44798051490752" lon="14.364352650807218"><ele>800.0</ele><time>2026-05-03T09:10:46Z</time></trkpt><trkpt lat="37.447917865150224" lon="14.364402070683564"><ele>799.5000000000001</ele><time>2026-05-03T09:10:47Z</time></trkpt><trkpt lat="37.447856142478955" lon="14.364418794016338"><ele>799.0</ele><time>2026-05-03T09:10:48Z</time></trkpt><trkpt lat="37.44779325628805" lon="14.364411485359478"><ele>798.5</ele><time>2026-05-03T09:10:49Z</time></trkpt><trkpt lat="37.44772108538658" lon="14.364426136975855"><ele>798.0</ele><time>2026-05-03T09:10:50Z</time></trkpt><trkpt lat="37.447661385751" lon="14.364584042044259"><ele>797.5000000000001</ele><time>2026-05-03T09:10:51Z</time></trkpt><trkpt lat="37.44756494525004" lon="14.36465042138849"><ele>797.0</ele><time>2026-05-03T09:10:53Z</time></trkpt><trkpt lat="37.44745266629926" lon="14.364713103114521"><ele>797.0</ele><time>2026-05-03T09:10:55Z</time></trkpt><trkpt lat="37.44737618393804" lon="14.364772059184114"><ele>797.0</ele><time>2026-05-03T09:10:56Z</time></trkpt><trkpt lat="37.44729106153661" lon="14.364828623307003"><ele>797.0</ele><time>2026-05-03T09:10:57Z</time></trkpt><trkpt lat="37.447191826397294" lon="14.364856313522987"><ele>797.0</ele><time>2026-05-03T09:10:58Z</time></trkpt><trkpt lat="37.44708406719475" lon="14.36487129649556"><ele>797.0</ele><time>2026-05-03T09:10:59Z</time></trkpt><trkpt lat="37.446952463953146" lon="14.364886159903802"><ele>797.3333333333334</ele><time>2026-05-03T09:11:00Z</time></trkpt><trkpt lat="37.44677145807989" lon="14.364899051910191"><ele>797.6666666666667</ele><time>2026-05-03T09:11:01Z</time></trkpt><trkpt lat="37.44656135787972" lon="14.364911341274631"><ele>798.0</ele><time>2026-05-03T09:11:02Z</time></trkpt><trkpt lat="37.44634192261501" lon="14.364915270143197"><ele>798.6666666666667</ele><time>2026-05-03T09:11:03Z</time></trkpt><trkpt lat="37.44612676709882" lon="14.36490766169962"><ele>799.3333333333334</ele><time>2026-05-03T09:11:04Z</time></trkpt><trkpt lat="37.44595716227085" lon="14.364906645368597"><ele>800.0</ele><time>2026-05-03T09:11:05Z</time></trkpt><trkpt lat="37.44578503199436" lon="14.364911315922013"><ele>800.0</ele><time>2026-05-03T09:11:06Z</time></trkpt><trkpt lat="37.44562980893233" lon="14.364915543031998"><ele>800.0</ele><time>2026-05-03T09:11:07Z</time></trkpt><trkpt lat="37.44546665061956" lon="14.364915748144488"><ele>800.0</ele><time>2026-05-03T09:11:08Z</time></trkpt><trkpt lat="37.445306921223484" lon="14.364932842034964"><ele>799.25</ele><time>2026-05-03T09:11:09Z</time></trkpt><trkpt lat="37.44515798140008" lon="14.364965203206417"><ele>798.5</ele><time>2026-05-03T09:11:10Z</time></trkpt><trkpt lat="37.44503192435898" lon="14.365006365155352"><ele>797.75</ele><time>2026-05-03T09:11:11Z</time></trkpt><trkpt lat="37.444900134708035" lon="14.365036600630585"><ele>797.0</ele><time>2026-05-03T09:11:12Z</time></trkpt><trkpt lat="37.44475195219477" lon="14.365071307177654"><ele>797.25</ele><time>2026-05-03T09:11:13Z</time></trkpt><trkpt lat="37.444601097520625" lon="14.365126326455687"><ele>797.5</ele><time>2026-05-03T09:11:14Z</time></trkpt><trkpt lat="37.444461816732456" lon="14.365202584978732"><ele>797.75</ele><time>2026-05-03T09:11:15Z</time></trkpt><trkpt lat="37.44433180120156" lon="14.365266465314786"><ele>798.0</ele><time>2026-05-03T09:11:16Z</time></trkpt><trkpt lat="37.44419987524603" lon="14.365338415779178"><ele>798.0</ele><time>2026-05-03T09:11:17Z</time></trkpt><trkpt lat="37.44408504036337" lon="14.365408179690064"><ele>798.0</ele><time>2026-05-03T09:11:18Z</time></trkpt><trkpt lat="37.44396733727085" lon="14.365480839264185"><ele>798.0</ele><time>2026-05-03T09:11:19Z</time></trkpt><trkpt lat="37.44385256984434" lon="14.365552862417154"><ele>798.0</ele><time>2026-05-03T09:11:20Z</time></trkpt><trkpt lat="37.44373314316993" lon="14.365629703356422"><ele>799.25</ele><time>2026-05-03T09:11:21Z</time></trkpt><trkpt lat="37.44360770970456" lon="14.365710408291163"><ele>800.5</ele><time>2026-05-03T09:11:22Z</time></trkpt><trkpt lat="37.44348020630232" lon="14.36579272600161"><ele>801.75</ele><time>2026-05-03T09:11:23Z</time></trkpt><trkpt lat="37.44334282018987" lon="14.365881836734799"><ele>803.0</ele><time>2026-05-03T09:11:24Z</time></trkpt><trkpt lat="37.44318346012911" lon="14.365947051081735"><ele>803.0</ele><time>2026-05-03T09:11:25Z</time></trkpt><trkpt lat="37.443022733249215" lon="14.366007020431626"><ele>803.0</ele><time>2026-05-03T09:11:26Z</time></trkpt><trkpt lat="37.44288924497245" lon="14.366045939353944"><ele>803.0</ele><time>2026-05-03T09:11:27Z</time></trkpt><trkpt lat="37.44278652788064" lon="14.366063933676049"><ele>803.0</ele><time>2026-05-03T09:11:28Z</time></trkpt><trkpt lat="37.44269252996595" lon="14.366075009338067"><ele>802.0</ele><time>2026-05-03T09:11:29Z</time></trkpt><trkpt lat="37.44262117464378" lon="14.36606765848929"><ele>801.0</ele><time>2026-05-03T09:11:30Z</time></trkpt><trkpt lat="37.44232624266527" lon="14.365522629117482"><ele>801.0</ele><time>2026-05-03T09:11:32Z</time></trkpt><trkpt lat="37.442230314234926" lon="14.365498341426605"><ele>801.0</ele><time>2026-05-03T09:11:34Z</time></trkpt><trkpt lat="37.44212971144921" lon="14.365504876904136"><ele>801.0</ele><time>2026-05-03T09:11:35Z</time></trkpt><trkpt lat="37.44199638318421" lon="14.365531174677097"><ele>801.0</ele><time>2026-05-03T09:11:36Z</time></trkpt><trkpt lat="37.441857857180324" lon="14.365542785627262"><ele>799.0</ele><time>2026-05-03T09:11:37Z</time></trkpt><trkpt lat="37.441724277436634" lon="14.365584523565213"><ele>797.0</ele><time>2026-05-03T09:11:38Z</time></trkpt><trkpt lat="37.44162152000084" lon="14.365587389574886"><ele>795.0</ele><time>2026-05-03T09:11:39Z</time></trkpt><trkpt lat="37.44151892471686" lon="14.365598632600324"><ele>793.0</ele><time>2026-05-03T09:11:40Z</time></trkpt><trkpt lat="37.441412114057776" lon="14.365595021771812"><ele>793.0</ele><time>2026-05-03T09:11:41Z</time></trkpt><trkpt lat="37.44131172393324" lon="14.365542955339215"><ele>793.0</ele><time>2026-05-03T09:11:42Z</time></trkpt><trkpt lat="37.44120016720705" lon="14.36547849622249"><ele>793.0</ele><time>2026-05-03T09:11:43Z</time></trkpt><trkpt lat="37.441127613125325" lon="14.365416208918774"><ele>793.0</ele><time>2026-05-03T09:11:44Z</time></trkpt><trkpt lat="37.44104032204416" lon="14.365350899056155"><ele>793.0</ele><time>2026-05-03T09:11:45Z</time></trkpt><trkpt lat="37.440944306757196" lon="14.365256279794968"><ele>792.4</ele><time>2026-05-03T09:11:46Z</time></trkpt><trkpt lat="37.44084474592422" lon="14.36518354119288"><ele>791.8</ele><time>2026-05-03T09:11:47Z</time></trkpt><trkpt lat="37.4407672910272" lon="14.365121963307498"><ele>791.2</ele><time>2026-05-03T09:11:48Z</time></trkpt><trkpt lat="37.440718815858865" lon="14.365064807409624"><ele>790.6</ele><time>2026-05-03T09:11:49Z</time></trkpt><trkpt lat="37.44069274799061" lon="14.364970636169177"><ele>790.0</ele><time>2026-05-03T09:11:50Z</time></trkpt><trkpt lat="37.44068803021165" lon="14.364834248260145"><ele>790.0</ele><time>2026-05-03T09:11:51Z</time></trkpt><trkpt lat="37.44071684975468" lon="14.364696725895438"><ele>790.0</ele><time>2026-05-03T09:11:52Z</time></trkpt><trkpt lat="37.44078416367641" lon="14.364510910850932"><ele>790.0</ele><time>2026-05-03T09:11:53Z</time></trkpt><trkpt lat="37.44085675907641" lon="14.364293719277423"><ele>789.0</ele><time>2026-05-03T09:11:54Z</time></trkpt><trkpt lat="37.44093191604986" lon="14.364040187239638"><ele>788.0</ele><time>2026-05-03T09:11:55Z</time></trkpt><trkpt lat="37.440980779946194" lon="14.363844142152681"><ele>787.0</ele><time>2026-05-03T09:11:56Z</time></trkpt><trkpt lat="37.44101608908152" lon="14.363693512762792"><ele>786.5</ele><time>2026-05-03T09:11:57Z</time></trkpt><trkpt lat="37.441057554882434" lon="14.363547892148135"><ele>786.0</ele><time>2026-05-03T09:11:58Z</time></trkpt><trkpt lat="37.441103118974056" lon="14.363403800741452"><ele>785.5</ele><time>2026-05-03T09:11:59Z</time></trkpt><trkpt lat="37.44113675221387" lon="14.363219685111833"><ele>785.0</ele><time>2026-05-03T09:12:00Z</time></trkpt><trkpt lat="37.441167928715494" lon="14.363059295376612"><ele>785.0</ele><time>2026-05-03T09:12:01Z</time></trkpt><trkpt lat="37.44121719621114" lon="14.362922819136216"><ele>785.0</ele><time>2026-05-03T09:12:02Z</time></trkpt><trkpt lat="37.44125992774826" lon="14.362823697728043"><ele>785.0</ele><time>2026-05-03T09:12:03Z</time></trkpt><trkpt lat="37.44132266290434" lon="14.362727314172536"><ele>785.0</ele><time>2026-05-03T09:12:05Z</time></trkpt><trkpt lat="37.44138271507363" lon="14.362687437101835"><ele>785.0</ele><time>2026-05-03T09:12:08Z</time></trkpt><trkpt lat="37.44144521898555" lon="14.362574983993134"><ele>785.0</ele><time>2026-05-03T09:12:10Z</time></trkpt><trkpt lat="37.441495912106355" lon="14.36244985771364"><ele>785.0</ele><time>2026-05-03T09:12:11Z</time></trkpt><trkpt lat="37.44156237345932" lon="14.362315884408492"><ele>785.0</ele><time>2026-05-03T09:12:12Z</time></trkpt><trkpt lat="37.44161889759297" lon="14.36219959083306"><ele>785.0</ele><time>2026-05-03T09:12:13Z</time></trkpt><trkpt lat="37.441634483570446" lon="14.362102149358273"><ele>785.0</ele><time>2026-05-03T09:12:14Z</time></trkpt><trkpt lat="37.44161249864358" lon="14.362021988918075"><ele>783.6</ele><time>2026-05-03T09:12:15Z</time></trkpt><trkpt lat="37.441549898744086" lon="14.361950464163344"><ele>782.2</ele><time>2026-05-03T09:12:17Z</time></trkpt><trkpt lat="37.44147956836456" lon="14.361895941325086"><ele>780.8</ele><time>2026-05-03T09:12:26Z</time></trkpt><trkpt lat="37.44135948239169" lon="14.36177036260925"><ele>779.4</ele><time>2026-05-03T09:12:28Z</time></trkpt><trkpt lat="37.441264978380985" lon="14.36167472120823"><ele>778.0</ele><time>2026-05-03T09:12:29Z</time></trkpt><trkpt lat="37.44114319997856" lon="14.361565398200648"><ele>778.0</ele><time>2026-05-03T09:12:30Z</time></trkpt><trkpt lat="37.44100528944717" lon="14.361440133482906"><ele>778.0</ele><time>2026-05-03T09:12:31Z</time></trkpt><trkpt lat="37.44089711779609" lon="14.361355132090667"><ele>778.0</ele><time>2026-05-03T09:12:32Z</time></trkpt><trkpt lat="37.4408065437883" lon="14.361286098748517"><ele>778.0</ele><time>2026-05-03T09:12:33Z</time></trkpt><trkpt lat="37.44072250286169" lon="14.361208651028813"><ele>777.2</ele><time>2026-05-03T09:12:34Z</time></trkpt><trkpt lat="37.44066385802269" lon="14.361125325782103"><ele>776.4</ele><time>2026-05-03T09:12:35Z</time></trkpt><trkpt lat="37.44060845961239" lon="14.361074879139789"><ele>775.6</ele><time>2026-05-03T09:12:36Z</time></trkpt><trkpt lat="37.44051291805275" lon="14.36106859450951"><ele>774.8000000000001</ele><time>2026-05-03T09:12:38Z</time></trkpt><trkpt lat="37.44041966798496" lon="14.361117274988846"><ele>774.0</ele><time>2026-05-03T09:12:39Z</time></trkpt><trkpt lat="37.44030032491314" lon="14.361086069512016"><ele>774.0</ele><time>2026-05-03T09:12:40Z</time></trkpt><trkpt lat="37.440234543807115" lon="14.361087186437098"><ele>774.0</ele><time>2026-05-03T09:12:41Z</time></trkpt><trkpt lat="37.44015601524879" lon="14.3611152509598"><ele>774.0</ele><time>2026-05-03T09:12:42Z</time></trkpt><trkpt lat="37.440088033277114" lon="14.361145121959686"><ele>774.0</ele><time>2026-05-03T09:12:43Z</time></trkpt><trkpt lat="37.440006294260634" lon="14.361182579463653"><ele>774.0</ele><time>2026-05-03T09:12:44Z</time></trkpt><trkpt lat="37.439920860070245" lon="14.361276180835326"><ele>774.0</ele><time>2026-05-03T09:12:45Z</time></trkpt><trkpt lat="37.43981641671227" lon="14.36135209690091"><ele>774.0</ele><time>2026-05-03T09:12:46Z</time></trkpt><trkpt lat="37.43971364000989" lon="14.361446069915791"><ele>774.0</ele><time>2026-05-03T09:12:47Z</time></trkpt><trkpt lat="37.439611160444414" lon="14.361521699376231"><ele>774.0</ele><time>2026-05-03T09:12:48Z</time></trkpt><trkpt lat="37.439523167158484" lon="14.361597359982992"><ele>774.0</ele><time>2026-05-03T09:12:49Z</time></trkpt><trkpt lat="37.4394341359964" lon="14.361662777242842"><ele>773.6</ele><time>2026-05-03T09:12:50Z</time></trkpt><trkpt lat="37.439354701705916" lon="14.361712284946153"><ele>773.2</ele><time>2026-05-03T09:12:51Z</time></trkpt><trkpt lat="37.43926637136257" lon="14.361787284696248"><ele>772.8000000000001</ele><time>2026-05-03T09:12:52Z</time></trkpt><trkpt lat="37.43917436959906" lon="14.361846828546959"><ele>772.4000000000001</ele><time>2026-05-03T09:12:53Z</time></trkpt><trkpt lat="37.43908913532854" lon="14.36191558154908"><ele>772.0</ele><time>2026-05-03T09:12:54Z</time></trkpt><trkpt lat="37.43901554833211" lon="14.361965750108581"><ele>772.0</ele><time>2026-05-03T09:12:55Z</time></trkpt><trkpt lat="37.438934551021234" lon="14.362012270240314"><ele>772.0</ele><time>2026-05-03T09:12:56Z</time></trkpt><trkpt lat="37.438867943598595" lon="14.362065848896986"><ele>772.0</ele><time>2026-05-03T09:12:57Z</time></trkpt><trkpt lat="37.43880041069878" lon="14.362122416375835"><ele>772.0</ele><time>2026-05-03T09:12:58Z</time></trkpt><trkpt lat="37.438693986649554" lon="14.362177456291164"><ele>772.0</ele><time>2026-05-03T09:12:59Z</time></trkpt><trkpt lat="37.43859193607357" lon="14.362224396053925"><ele>770.3333333333333</ele><time>2026-05-03T09:13:00Z</time></trkpt><trkpt lat="37.4385133827524" lon="14.36228280670507"><ele>768.6666666666666</ele><time>2026-05-03T09:13:01Z</time></trkpt><trkpt lat="37.4384562148413" lon="14.362346092720664"><ele>767.0</ele><time>2026-05-03T09:13:02Z</time></trkpt><trkpt lat="37.438396844459874" lon="14.362388117934993"><ele>765.3333333333333</ele><time>2026-05-03T09:13:03Z</time></trkpt><trkpt lat="37.43831082855326" lon="14.362470870017187"><ele>763.6666666666666</ele><time>2026-05-03T09:13:05Z</time></trkpt><trkpt lat="37.43824167177812" lon="14.362515986907566"><ele>762.0</ele><time>2026-05-03T09:13:08Z</time></trkpt><trkpt lat="37.43818198740285" lon="14.362467437022001"><ele>762.0</ele><time>2026-05-03T09:13:10Z</time></trkpt><trkpt lat="37.43816822562587" lon="14.362375288706097"><ele>762.0</ele><time>2026-05-03T09:13:12Z</time></trkpt><trkpt lat="37.438162406242625" lon="14.362295428318907"><ele>762.0</ele><time>2026-05-03T09:13:13Z</time></trkpt><trkpt lat="37.43814812131432" lon="14.362203182881567"><ele>762.0</ele><time>2026-05-03T09:13:14Z</time></trkpt><trkpt lat="37.43814070390358" lon="14.362114438986122"><ele>762.0</ele><time>2026-05-03T09:13:15Z</time></trkpt><trkpt lat="37.43812865347799" lon="14.362019227426634"><ele>762.0</ele><time>2026-05-03T09:13:16Z</time></trkpt><trkpt lat="37.43811063491346" lon="14.36191667245867"><ele>762.0</ele><time>2026-05-03T09:13:17Z</time></trkpt><trkpt lat="37.43809263740514" lon="14.361796941384824"><ele>762.6</ele><time>2026-05-03T09:13:18Z</time></trkpt><trkpt lat="37.438083083393835" lon="14.361682283852579"><ele>763.2</ele><time>2026-05-03T09:13:19Z</time></trkpt><trkpt lat="37.438071690378486" lon="14.36159478773602"><ele>763.8</ele><time>2026-05-03T09:13:24Z</time></trkpt><trkpt lat="37.438048412101544" lon="14.361409391782713"><ele>764.4</ele><time>2026-05-03T09:13:26Z</time></trkpt><trkpt lat="37.43802998217082" lon="14.361269441017868"><ele>765.0</ele><time>2026-05-03T09:13:27Z</time></trkpt><trkpt lat="37.438004785985065" lon="14.361139148113391"><ele>765.1666666666666</ele><time>2026-05-03T09:13:28Z</time></trkpt><trkpt lat="37.4379806389412" lon="14.361025359167325"><ele>765.3333333333334</ele><time>2026-05-03T09:13:29Z</time></trkpt><trkpt lat="37.437962665814936" lon="14.360914094888816"><ele>765.5</ele><time>2026-05-03T09:13:30Z</time></trkpt><trkpt lat="37.43794943099716" lon="14.360824883470544"><ele>765.6666666666667</ele><time>2026-05-03T09:13:31Z</time></trkpt><trkpt lat="37.43793026005336" lon="14.360731050609909"><ele>765.8333333333334</ele><time>2026-05-03T09:13:33Z</time></trkpt><trkpt lat="37.437976451398775" lon="14.360797202971636"><ele>766.0</ele><time>2026-05-03T09:13:46Z</time></trkpt><trkpt lat="37.43796970540262" lon="14.360908030263449"><ele>766.0</ele><time>2026-05-03T09:13:47Z</time></trkpt><trkpt lat="37.437987490977555" lon="14.36103732813448"><ele>766.0</ele><time>2026-05-03T09:13:48Z</time></trkpt><trkpt lat="37.43801179879022" lon="14.361149917480574"><ele>766.0</ele><time>2026-05-03T09:13:49Z</time></trkpt><trkpt lat="37.438028461504814" lon="14.361250620113616"><ele>766.0</ele><time>2026-05-03T09:13:50Z</time></trkpt><trkpt lat="37.438031710718846" lon="14.361351127909918"><ele>766.0</ele><time>2026-05-03T09:13:51Z</time></trkpt><trkpt lat="37.43805658259661" lon="14.361476528829364"><ele>765.8</ele><time>2026-05-03T09:13:52Z</time></trkpt><trkpt lat="37.43807717335606" lon="14.361601748315751"><ele>765.5999999999999</ele><time>2026-05-03T09:13:53Z</time></trkpt><trkpt lat="37.43808713971199" lon="14.361735254068876"><ele>765.4</ele><time>2026-05-03T09:13:54Z</time></trkpt><trkpt lat="37.43809771490356" lon="14.361856391844285"><ele>765.2</ele><time>2026-05-03T09:13:55Z</time></trkpt><trkpt lat="37.43811952441964" lon="14.361983182706771"><ele>765.0</ele><time>2026-05-03T09:13:56Z</time></trkpt><trkpt lat="37.43814287818271" lon="14.362117071775408"><ele>764.4</ele><time>2026-05-03T09:13:57Z</time></trkpt><trkpt lat="37.43817031220946" lon="14.36226350897"><ele>763.8</ele><time>2026-05-03T09:13:58Z</time></trkpt><trkpt lat="37.438192640948216" lon="14.362390092865153"><ele>763.2</ele><time>2026-05-03T09:13:59Z</time></trkpt><trkpt lat="37.438213061418374" lon="14.362492744414686"><ele>762.6</ele><time>2026-05-03T09:14:00Z</time></trkpt><trkpt lat="37.43826771411906" lon="14.362569269102645"><ele>762.0</ele><time>2026-05-03T09:14:02Z</time></trkpt><trkpt lat="37.43832610097171" lon="14.362502064690656"><ele>762.0</ele><time>2026-05-03T09:14:04Z</time></trkpt><trkpt lat="37.438350811774505" lon="14.362575450977456"><ele>762.0</ele><time>2026-05-03T09:14:07Z</time></trkpt><trkpt lat="37.43834947764617" lon="14.362681040940581"><ele>762.0</ele><time>2026-05-03T09:14:08Z</time></trkpt><trkpt lat="37.43837853183263" lon="14.36282062788895"><ele>762.0</ele><time>2026-05-03T09:14:09Z</time></trkpt><trkpt lat="37.43840713649745" lon="14.362991828489527"><ele>762.0</ele><time>2026-05-03T09:14:10Z</time></trkpt><trkpt lat="37.43844734067454" lon="14.36315735181192"><ele>761.25</ele><time>2026-05-03T09:14:11Z</time></trkpt><trkpt lat="37.43849577212911" lon="14.363301904270976"><ele>760.5</ele><time>2026-05-03T09:14:12Z</time></trkpt><trkpt lat="37.43855004065569" lon="14.363445368356386"><ele>759.75</ele><time>2026-05-03T09:14:13Z</time></trkpt><trkpt lat="37.43860780949507" lon="14.363563706065136"><ele>759.0</ele><time>2026-05-03T09:14:14Z</time></trkpt><trkpt lat="37.438661161896086" lon="14.363673220923816"><ele>759.0</ele><time>2026-05-03T09:14:15Z</time></trkpt><trkpt lat="37.438721421694844" lon="14.363778799722324"><ele>759.0</ele><time>2026-05-03T09:14:16Z</time></trkpt><trkpt lat="37.43876645708479" lon="14.363875031176498"><ele>759.0</ele><time>2026-05-03T09:14:17Z</time></trkpt><trkpt lat="37.438819879375025" lon="14.36394943127966"><ele>759.0</ele><time>2026-05-03T09:14:18Z</time></trkpt><trkpt lat="37.438874817561086" lon="14.364050320337531"><ele>759.0</ele><time>2026-05-03T09:14:19Z</time></trkpt><trkpt lat="37.43893930726381" lon="14.364146851932635"><ele>759.1666666666666</ele><time>2026-05-03T09:14:20Z</time></trkpt><trkpt lat="37.43900223137571" lon="14.364229231963192"><ele>759.3333333333334</ele><time>2026-05-03T09:14:21Z</time></trkpt><trkpt lat="37.43905113093312" lon="14.364315130006316"><ele>759.5</ele><time>2026-05-03T09:14:22Z</time></trkpt><trkpt lat="37.439048224561326" lon="14.364439233600423"><ele>759.6666666666667</ele><time>2026-05-03T09:14:24Z</time></trkpt><trkpt lat="37.438991044957206" lon="14.364485145746052"><ele>759.8333333333334</ele><time>2026-05-03T09:14:25Z</time></trkpt><trkpt lat="37.43889967636545" lon="14.364521089814719"><ele>760.0</ele><time>2026-05-03T09:14:26Z</time></trkpt><trkpt lat="37.43876695766639" lon="14.3645363783462"><ele>759.0</ele><time>2026-05-03T09:14:27Z</time></trkpt><trkpt lat="37.43863093959841" lon="14.364556154111039"><ele>758.0</ele><time>2026-05-03T09:14:28Z</time></trkpt><trkpt lat="37.4385128182604" lon="14.36460457121289"><ele>757.0</ele><time>2026-05-03T09:14:29Z</time></trkpt><trkpt lat="37.43839710229963" lon="14.364646014982231"><ele>756.0</ele><time>2026-05-03T09:14:30Z</time></trkpt><trkpt lat="37.4383067788478" lon="14.364664337982086"><ele>756.0</ele><time>2026-05-03T09:14:31Z</time></trkpt><trkpt lat="37.43820404390655" lon="14.364639197097134"><ele>756.0</ele><time>2026-05-03T09:14:32Z</time></trkpt><trkpt lat="37.43809583209483" lon="14.36459565064113"><ele>756.0</ele><time>2026-05-03T09:14:33Z</time></trkpt><trkpt lat="37.437985751346886" lon="14.364563684551197"><ele>756.0</ele><time>2026-05-03T09:14:34Z</time></trkpt><trkpt lat="37.437865505506714" lon="14.364509902905862"><ele>754.0</ele><time>2026-05-03T09:14:35Z</time></trkpt><trkpt lat="37.437740350500384" lon="14.364446910745915"><ele>752.0</ele><time>2026-05-03T09:14:36Z</time></trkpt><trkpt lat="37.437630459910125" lon="14.364387239172665"><ele>750.0</ele><time>2026-05-03T09:14:37Z</time></trkpt><trkpt lat="37.43752696532617" lon="14.364352301029948"><ele>748.0</ele><time>2026-05-03T09:14:38Z</time></trkpt><trkpt lat="37.437425223233795" lon="14.364292783898023"><ele>748.0</ele><time>2026-05-03T09:14:39Z</time></trkpt><trkpt lat="37.43733312349337" lon="14.364248013491325"><ele>748.0</ele><time>2026-05-03T09:14:40Z</time></trkpt><trkpt lat="37.43725541705727" lon="14.364204789178773"><ele>748.0</ele><time>2026-05-03T09:14:41Z</time></trkpt><trkpt lat="37.43717471770771" lon="14.364160013684835"><ele>748.0</ele><time>2026-05-03T09:14:42Z</time></trkpt><trkpt lat="37.43707626378746" lon="14.364119086389211"><ele>748.0</ele><time>2026-05-03T09:14:43Z</time></trkpt><trkpt lat="37.43698232013493" lon="14.36408800342988"><ele>747.5</ele><time>2026-05-03T09:14:44Z</time></trkpt><trkpt lat="37.43688604930409" lon="14.364056229735077"><ele>747.0</ele><time>2026-05-03T09:14:45Z</time></trkpt><trkpt lat="37.43680615505489" lon="14.36403526072157"><ele>746.5</ele><time>2026-05-03T09:14:46Z</time></trkpt><trkpt lat="37.43673700279178" lon="14.364027767185592"><ele>746.0</ele><time>2026-05-03T09:14:47Z</time></trkpt><trkpt lat="37.436670435227214" lon="14.364047434584533"><ele>745.5</ele><time>2026-05-03T09:14:48Z</time></trkpt><trkpt lat="37.43660017934885" lon="14.364088509507232"><ele>745.0</ele><time>2026-05-03T09:14:49Z</time></trkpt><trkpt lat="37.4365324297191" lon="14.364138504611452"><ele>745.0</ele><time>2026-05-03T09:14:50Z</time></trkpt><trkpt lat="37.4364888449536" lon="14.364199710614464"><ele>745.0</ele><time>2026-05-03T09:14:51Z</time></trkpt><trkpt lat="37.436419629742424" lon="14.364264726831523"><ele>745.0</ele><time>2026-05-03T09:14:52Z</time></trkpt><trkpt lat="37.43629581387505" lon="14.364343697248513"><ele>745.0</ele><time>2026-05-03T09:14:54Z</time></trkpt><trkpt lat="37.43620658489927" lon="14.364376768475452"><ele>745.0</ele><time>2026-05-03T09:14:55Z</time></trkpt><trkpt lat="37.43612149247032" lon="14.364457560304078"><ele>744.8</ele><time>2026-05-03T09:14:56Z</time></trkpt><trkpt lat="37.43602731500418" lon="14.364530416448083"><ele>744.6</ele><time>2026-05-03T09:14:57Z</time></trkpt><trkpt lat="37.43594624012287" lon="14.36459304607051"><ele>744.4000000000001</ele><time>2026-05-03T09:14:58Z</time></trkpt><trkpt lat="37.435853079244694" lon="14.364663600498243"><ele>744.2</ele><time>2026-05-03T09:14:59Z</time></trkpt><trkpt lat="37.43577064039088" lon="14.364740763919782"><ele>744.0</ele><time>2026-05-03T09:15:00Z</time></trkpt><trkpt lat="37.43570963256627" lon="14.364805881887303"><ele>744.0</ele><time>2026-05-03T09:15:01Z</time></trkpt><trkpt lat="37.43563488588294" lon="14.364894714432385"><ele>744.0</ele><time>2026-05-03T09:15:03Z</time></trkpt><trkpt lat="37.43565504171314" lon="14.36499931420771"><ele>744.0</ele><time>2026-05-03T09:15:07Z</time></trkpt><trkpt lat="37.43569390934191" lon="14.365085531421789"><ele>744.0</ele><time>2026-05-03T09:15:08Z</time></trkpt><trkpt lat="37.43574226717151" lon="14.36518573821502"><ele>744.0</ele><time>2026-05-03T09:15:09Z</time></trkpt><trkpt lat="37.43581235839996" lon="14.365318820791432"><ele>744.0</ele><time>2026-05-03T09:15:10Z</time></trkpt><trkpt lat="37.435891325709676" lon="14.365464545834287"><ele>744.0</ele><time>2026-05-03T09:15:11Z</time></trkpt><trkpt lat="37.43595935334185" lon="14.365610828853983"><ele>744.0</ele><time>2026-05-03T09:15:12Z</time></trkpt><trkpt lat="37.43601923253047" lon="14.365755749999446"><ele>744.0</ele><time>2026-05-03T09:15:13Z</time></trkpt><trkpt lat="37.43606696412265" lon="14.365906916697341"><ele>744.0</ele><time>2026-05-03T09:15:14Z</time></trkpt><trkpt lat="37.436118843448604" lon="14.366085512632106"><ele>744.0</ele><time>2026-05-03T09:15:15Z</time></trkpt><trkpt lat="37.436176276869425" lon="14.366249532492605"><ele>744.0</ele><time>2026-05-03T09:15:16Z</time></trkpt><trkpt lat="37.436241703150614" lon="14.366403564819606"><ele>744.0</ele><time>2026-05-03T09:15:17Z</time></trkpt><trkpt lat="37.43629863361892" lon="14.366557864325616"><ele>745.75</ele><time>2026-05-03T09:15:18Z</time></trkpt><trkpt lat="37.43636910313077" lon="14.366704688030199"><ele>747.5</ele><time>2026-05-03T09:15:19Z</time></trkpt><trkpt lat="37.43644238006726" lon="14.366860309710091"><ele>749.25</ele><time>2026-05-03T09:15:20Z</time></trkpt><trkpt lat="37.436509930617525" lon="14.367001042664967"><ele>751.0</ele><time>2026-05-03T09:15:21Z</time></trkpt><trkpt lat="37.4365641463971" lon="14.367140672865988"><ele>750.5</ele><time>2026-05-03T09:15:22Z</time></trkpt><trkpt lat="37.43661257604621" lon="14.36725401989432"><ele>750.0</ele><time>2026-05-03T09:15:23Z</time></trkpt><trkpt lat="37.436655352283765" lon="14.367330297914792"><ele>749.5</ele><time>2026-05-03T09:15:24Z</time></trkpt><trkpt lat="37.436689062818566" lon="14.367403165834537"><ele>749.0</ele><time>2026-05-03T09:15:25Z</time></trkpt><trkpt lat="37.43677939574977" lon="14.36745583330974"><ele>748.5</ele><time>2026-05-03T09:15:27Z</time></trkpt><trkpt lat="37.43685640360718" lon="14.36742122443243"><ele>748.0</ele><time>2026-05-03T09:15:28Z</time></trkpt><trkpt lat="37.43697005981988" lon="14.367352413040129"><ele>748.0</ele><time>2026-05-03T09:15:29Z</time></trkpt><trkpt lat="37.437073316387895" lon="14.36727047079727"><ele>748.0</ele><time>2026-05-03T09:15:30Z</time></trkpt><trkpt lat="37.4372270931148" lon="14.367216508328443"><ele>748.0</ele><time>2026-05-03T09:15:31Z</time></trkpt><trkpt lat="37.437349232059965" lon="14.367161249677272"><ele>748.0</ele><time>2026-05-03T09:15:32Z</time></trkpt><trkpt lat="37.437455791277294" lon="14.367110362033179"><ele>750.5</ele><time>2026-05-03T09:15:33Z</time></trkpt><trkpt lat="37.43756964316589" lon="14.367058700017365"><ele>753.0</ele><time>2026-05-03T09:15:34Z</time></trkpt><trkpt lat="37.43769571058053" lon="14.367003706256547"><ele>755.5</ele><time>2026-05-03T09:15:35Z</time></trkpt><trkpt lat="37.43781975831051" lon="14.366936356027706"><ele>758.0</ele><time>2026-05-03T09:15:36Z</time></trkpt><trkpt lat="37.43794426742144" lon="14.366874506155956"><ele>758.0</ele><time>2026-05-03T09:15:37Z</time></trkpt><trkpt lat="37.438083131207016" lon="14.366802779189099"><ele>758.0</ele><time>2026-05-03T09:15:38Z</time></trkpt><trkpt lat="37.43824531238654" lon="14.366729141966191"><ele>758.0</ele><time>2026-05-03T09:15:39Z</time></trkpt><trkpt lat="37.43839816877116" lon="14.366653882709452"><ele>758.0</ele><time>2026-05-03T09:15:40Z</time></trkpt><trkpt lat="37.43853708647267" lon="14.366583680586443"><ele>758.0</ele><time>2026-05-03T09:15:41Z</time></trkpt><trkpt lat="37.43866011345699" lon="14.366525826872982"><ele>758.0</ele><time>2026-05-03T09:15:42Z</time></trkpt><trkpt lat="37.43879438532756" lon="14.366444230452135"><ele>758.0</ele><time>2026-05-03T09:15:43Z</time></trkpt><trkpt lat="37.438938680659746" lon="14.366368613032655"><ele>759.75</ele><time>2026-05-03T09:15:44Z</time></trkpt><trkpt lat="37.43907371571554" lon="14.366305318328552"><ele>761.5</ele><time>2026-05-03T09:15:45Z</time></trkpt><trkpt lat="37.43921107825956" lon="14.366237822069804"><ele>763.25</ele><time>2026-05-03T09:15:46Z</time></trkpt><trkpt lat="37.439323820338" lon="14.36618214532797"><ele>765.0</ele><time>2026-05-03T09:15:47Z</time></trkpt><trkpt lat="37.439414417741006" lon="14.366133749356445"><ele>765.0</ele><time>2026-05-03T09:15:48Z</time></trkpt><trkpt lat="37.439504320381694" lon="14.36609872111738"><ele>765.0</ele><time>2026-05-03T09:15:49Z</time></trkpt><trkpt lat="37.43961394671706" lon="14.366073747039621"><ele>765.0</ele><time>2026-05-03T09:15:50Z</time></trkpt><trkpt lat="37.43972093215302" lon="14.366037053929452"><ele>765.0</ele><time>2026-05-03T09:15:51Z</time></trkpt><trkpt lat="37.43982991192532" lon="14.366013009543895"><ele>765.0</ele><time>2026-05-03T09:15:52Z</time></trkpt><trkpt lat="37.43990910753634" lon="14.365998409897966"><ele>767.0</ele><time>2026-05-03T09:15:53Z</time></trkpt><trkpt lat="37.439993455390976" lon="14.365974834332318"><ele>769.0</ele><time>2026-05-03T09:15:54Z</time></trkpt><trkpt lat="37.44008966034166" lon="14.36596733391892"><ele>771.0</ele><time>2026-05-03T09:15:55Z</time></trkpt><trkpt lat="37.440185255507465" lon="14.365987054894742"><ele>773.0</ele><time>2026-05-03T09:15:56Z</time></trkpt><trkpt lat="37.440295390148044" lon="14.36603014235912"><ele>775.0</ele><time>2026-05-03T09:15:57Z</time></trkpt><trkpt lat="37.44038601907887" lon="14.366067584502352"><ele>775.0</ele><time>2026-05-03T09:15:58Z</time></trkpt><trkpt lat="37.440452792643484" lon="14.366085826738123"><ele>775.0</ele><time>2026-05-03T09:15:59Z</time></trkpt><trkpt lat="37.440542116407826" lon="14.366106994097649"><ele>775.0</ele><time>2026-05-03T09:16:00Z</time></trkpt><trkpt lat="37.44064409691303" lon="14.366136092238348"><ele>775.0</ele><time>2026-05-03T09:16:01Z</time></trkpt><trkpt lat="37.44075624091706" lon="14.366145279291292"><ele>775.0</ele><time>2026-05-03T09:16:02Z</time></trkpt><trkpt lat="37.440870217537515" lon="14.366137585794133"><ele>777.75</ele><time>2026-05-03T09:16:03Z</time></trkpt><trkpt lat="37.440984028409964" lon="14.366133635483527"><ele>780.5</ele><time>2026-05-03T09:16:04Z</time></trkpt><trkpt lat="37.44109561612382" lon="14.36616010475483"><ele>783.25</ele><time>2026-05-03T09:16:05Z</time></trkpt><trkpt lat="37.44120513426023" lon="14.366188190661832"><ele>786.0</ele><time>2026-05-03T09:16:06Z</time></trkpt><trkpt lat="37.441311636799426" lon="14.366233189639495"><ele>787.4</ele><time>2026-05-03T09:16:07Z</time></trkpt><trkpt lat="37.44142538140794" lon="14.366244116492974"><ele>788.8</ele><time>2026-05-03T09:16:08Z</time></trkpt><trkpt lat="37.44152722195104" lon="14.366233651744317"><ele>790.1999999999999</ele><time>2026-05-03T09:16:09Z</time></trkpt><trkpt lat="37.44161402832239" lon="14.366231803662144"><ele>791.5999999999999</ele><time>2026-05-03T09:16:10Z</time></trkpt><trkpt lat="37.44168745422576" lon="14.36624012106441"><ele>793.0</ele><time>2026-05-03T09:16:11Z</time></trkpt><trkpt lat="37.44178906961949" lon="14.366258740658772"><ele>792.9999999999999</ele><time>2026-05-03T09:16:13Z</time></trkpt><trkpt lat="37.441886197048724" lon="14.36627795705935"><ele>793.0</ele><time>2026-05-03T09:16:15Z</time></trkpt><trkpt lat="37.44195592108048" lon="14.366308867565817"><ele>793.0</ele><time>2026-05-03T09:16:17Z</time></trkpt><trkpt lat="37.44201446904533" lon="14.36634001716321"><ele>793.0</ele><time>2026-05-03T09:16:47Z</time></trkpt><trkpt lat="37.44200998682264" lon="14.36642840608826"><ele>792.9999999999999</ele><time>2026-05-03T09:16:49Z</time></trkpt><trkpt lat="37.44200407080178" lon="14.366552340740448"><ele>793.0</ele><time>2026-05-03T09:16:51Z</time></trkpt><trkpt lat="37.442034949819735" lon="14.366672200423537"><ele>791.9999999999999</ele><time>2026-05-03T09:16:53Z</time></trkpt><trkpt lat="37.44206569650954" lon="14.366763691504014"><ele>791.0</ele><time>2026-05-03T09:16:55Z</time></trkpt><trkpt lat="37.442139125954895" lon="14.366868907961575"><ele>790.0</ele><time>2026-05-03T09:17:08Z</time></trkpt><trkpt lat="37.442185281203315" lon="14.36693452867167"><ele>789.0</ele><time>2026-05-03T09:17:09Z</time></trkpt><trkpt lat="37.4422520130336" lon="14.367019188055728"><ele>787.9999999999999</ele><time>2026-05-03T09:17:10Z</time></trkpt><trkpt lat="37.442304391872426" lon="14.36709093559753"><ele>787.0</ele><time>2026-05-03T09:17:11Z</time></trkpt><trkpt lat="37.44235494470804" lon="14.367163537151518"><ele>789.5</ele><time>2026-05-03T09:17:13Z</time></trkpt><trkpt lat="37.442391605235684" lon="14.36728072922903"><ele>792.0</ele><time>2026-05-03T09:17:16Z</time></trkpt><trkpt lat="37.442414531329106" lon="14.367354663603287"><ele>794.5</ele><time>2026-05-03T09:17:18Z</time></trkpt><trkpt lat="37.44267347311487" lon="14.367371021505363"><ele>797.0</ele><time>2026-05-03T09:17:31Z</time></trkpt><trkpt lat="37.44273212122289" lon="14.36741344752893"><ele>797.0</ele><time>2026-05-03T09:17:32Z</time></trkpt><trkpt lat="37.4426561650974" lon="14.367366122952424"><ele>797.0</ele><time>2026-05-03T09:17:41Z</time></trkpt><trkpt lat="37.442591208191836" lon="14.367352813261197"><ele>797.0</ele><time>2026-05-03T09:17:42Z</time></trkpt><trkpt lat="37.44252982294756" lon="14.367334324364034"><ele>797.0</ele><time>2026-05-03T09:17:43Z</time></trkpt><trkpt lat="37.442414273750344" lon="14.367352657648508"><ele>797.0</ele><time>2026-05-03T09:17:45Z</time></trkpt><trkpt lat="37.44233880248346" lon="14.367212854189189"><ele>797.4000000000001</ele><time>2026-05-03T09:17:53Z</time></trkpt><trkpt lat="37.442304489019804" lon="14.36710378817626"><ele>797.8000000000001</ele><time>2026-05-03T09:17:54Z</time></trkpt><trkpt lat="37.442246654588025" lon="14.366995579079177"><ele>798.2</ele><time>2026-05-03T09:17:55Z</time></trkpt><trkpt lat="37.442191052803416" lon="14.366942935498429"><ele>798.6</ele><time>2026-05-03T09:17:56Z</time></trkpt><trkpt lat="37.4421410523636" lon="14.366875228316303"><ele>799.0</ele><time>2026-05-03T09:17:58Z</time></trkpt><trkpt lat="37.442023532983264" lon="14.366835932368662"><ele>796.0</ele><time>2026-05-03T09:18:10Z</time></trkpt><trkpt lat="37.44192920179477" lon="14.366880686430534"><ele>793.0</ele><time>2026-05-03T09:18:11Z</time></trkpt><trkpt lat="37.44182512363485" lon="14.36695721127273"><ele>790.0</ele><time>2026-05-03T09:18:12Z</time></trkpt><trkpt lat="37.44170827254374" lon="14.367041087880315"><ele>787.0</ele><time>2026-05-03T09:18:13Z</time></trkpt><trkpt lat="37.44158362194568" lon="14.367125894158118"><ele>787.6666666666666</ele><time>2026-05-03T09:18:14Z</time></trkpt><trkpt lat="37.44144921446816" lon="14.367213992879169"><ele>788.3333333333333</ele><time>2026-05-03T09:18:15Z</time></trkpt><trkpt lat="37.441307487404586" lon="14.367297939044379"><ele>789.0</ele><time>2026-05-03T09:18:16Z</time></trkpt><trkpt lat="37.44116667553791" lon="14.367396525052616"><ele>787.6666666666667</ele><time>2026-05-03T09:18:17Z</time></trkpt><trkpt lat="37.441027578767155" lon="14.367486188019388"><ele>786.3333333333334</ele><time>2026-05-03T09:18:18Z</time></trkpt><trkpt lat="37.44089121825599" lon="14.367571535801755"><ele>785.0</ele><time>2026-05-03T09:18:19Z</time></trkpt><trkpt lat="37.44075824526047" lon="14.367649728705604"><ele>785.0</ele><time>2026-05-03T09:18:20Z</time></trkpt><trkpt lat="37.440614699332464" lon="14.36774644118411"><ele>785.0</ele><time>2026-05-03T09:18:21Z</time></trkpt><trkpt lat="37.44046926479519" lon="14.367842643346874"><ele>785.0</ele><time>2026-05-03T09:18:22Z</time></trkpt><trkpt lat="37.44032171099007" lon="14.367937355397483"><ele>783.3333333333334</ele><time>2026-05-03T09:18:23Z</time></trkpt><trkpt lat="37.440169144375936" lon="14.368028611192885"><ele>781.6666666666667</ele><time>2026-05-03T09:18:24Z</time></trkpt><trkpt lat="37.44001644109265" lon="14.368123111101067"><ele>780.0</ele><time>2026-05-03T09:18:25Z</time></trkpt><trkpt lat="37.43986618648685" lon="14.36822922731825"><ele>780.0</ele><time>2026-05-03T09:18:26Z</time></trkpt><trkpt lat="37.439719870190636" lon="14.368334324712137"><ele>780.0</ele><time>2026-05-03T09:18:27Z</time></trkpt><trkpt lat="37.439571661053286" lon="14.36843060884294"><ele>780.0</ele><time>2026-05-03T09:18:28Z</time></trkpt><trkpt lat="37.43941748673737" lon="14.368531411712265"><ele>774.6666666666666</ele><time>2026-05-03T09:18:29Z</time></trkpt><trkpt lat="37.439261475420686" lon="14.368634066364287"><ele>769.3333333333333</ele><time>2026-05-03T09:18:30Z</time></trkpt><trkpt lat="37.43910324981012" lon="14.368729394568946"><ele>764.0</ele><time>2026-05-03T09:18:31Z</time></trkpt><trkpt lat="37.43895088505168" lon="14.36883010340435"><ele>764.3333333333333</ele><time>2026-05-03T09:18:32Z</time></trkpt><trkpt lat="37.438794646438005" lon="14.368930196685447"><ele>764.6666666666666</ele><time>2026-05-03T09:18:33Z</time></trkpt><trkpt lat="37.43863513044376" lon="14.369025803640579"><ele>765.0</ele><time>2026-05-03T09:18:34Z</time></trkpt><trkpt lat="37.43847376914569" lon="14.369127873413332"><ele>765.0</ele><time>2026-05-03T09:18:35Z</time></trkpt><trkpt lat="37.43831112082698" lon="14.36923499071542"><ele>765.0</ele><time>2026-05-03T09:18:36Z</time></trkpt><trkpt lat="37.43815201958609" lon="14.369336715946664"><ele>765.0</ele><time>2026-05-03T09:18:37Z</time></trkpt><trkpt lat="37.437992467524104" lon="14.369441481889746"><ele>765.0</ele><time>2026-05-03T09:18:38Z</time></trkpt><trkpt lat="37.43782942779735" lon="14.369542487346882"><ele>765.0</ele><time>2026-05-03T09:18:39Z</time></trkpt><trkpt lat="37.43766284539477" lon="14.369650639007336"><ele>765.0</ele><time>2026-05-03T09:18:40Z</time></trkpt><trkpt lat="37.437501530619905" lon="14.369757218765221"><ele>765.0</ele><time>2026-05-03T09:18:41Z</time></trkpt><trkpt lat="37.437336809621954" lon="14.36986444015436"><ele>765.0</ele><time>2026-05-03T09:18:42Z</time></trkpt><trkpt lat="37.43717778873236" lon="14.369974155466586"><ele>765.0</ele><time>2026-05-03T09:18:43Z</time></trkpt><trkpt lat="37.437009479117776" lon="14.370078943890334"><ele>759.6666666666666</ele><time>2026-05-03T09:18:44Z</time></trkpt><trkpt lat="37.43684408742872" lon="14.370185072596247"><ele>754.3333333333333</ele><time>2026-05-03T09:18:45Z</time></trkpt><trkpt lat="37.43667705387242" lon="14.370290730207708"><ele>749.0</ele><time>2026-05-03T09:18:46Z</time></trkpt><trkpt lat="37.43651363598583" lon="14.37039855388963"><ele>749.0</ele><time>2026-05-03T09:18:47Z</time></trkpt><trkpt lat="37.436349677567634" lon="14.370507650041613"><ele>749.0</ele><time>2026-05-03T09:18:48Z</time></trkpt><trkpt lat="37.43618485238341" lon="14.370610130385435"><ele>749.0</ele><time>2026-05-03T09:18:49Z</time></trkpt><trkpt lat="37.43602257535411" lon="14.370711837661341"><ele>750.0</ele><time>2026-05-03T09:18:50Z</time></trkpt><trkpt lat="37.43585595693799" lon="14.370805211192975"><ele>751.0</ele><time>2026-05-03T09:18:51Z</time></trkpt><trkpt lat="37.43568614145389" lon="14.370889189057234"><ele>752.0</ele><time>2026-05-03T09:18:52Z</time></trkpt><trkpt lat="37.435505927278996" lon="14.370938872939512"><ele>750.6666666666666</ele><time>2026-05-03T09:18:53Z</time></trkpt><trkpt lat="37.43532700653286" lon="14.370987438604613"><ele>749.3333333333334</ele><time>2026-05-03T09:18:54Z</time></trkpt><trkpt lat="37.43514252861258" lon="14.371022947038679"><ele>748.0</ele><time>2026-05-03T09:18:55Z</time></trkpt><trkpt lat="37.434958910358056" lon="14.371038737181179"><ele>748.0</ele><time>2026-05-03T09:18:56Z</time></trkpt><trkpt lat="37.43477579723665" lon="14.371040834978945"><ele>748.0</ele><time>2026-05-03T09:18:57Z</time></trkpt><trkpt lat="37.43458188850753" lon="14.371028971729439"><ele>748.0</ele><time>2026-05-03T09:18:58Z</time></trkpt><trkpt lat="37.43438714490897" lon="14.37101689382516"><ele>748.3333333333334</ele><time>2026-05-03T09:18:59Z</time></trkpt><trkpt lat="37.43419229472766" lon="14.37098304564567"><ele>748.6666666666666</ele><time>2026-05-03T09:19:00Z</time></trkpt><trkpt lat="37.43400342802926" lon="14.370932121128659"><ele>749.0</ele><time>2026-05-03T09:19:01Z</time></trkpt><trkpt lat="37.43381365396536" lon="14.37089808946389"><ele>748.3333333333333</ele><time>2026-05-03T09:19:02Z</time></trkpt><trkpt lat="37.43363078408452" lon="14.370884129470369"><ele>747.6666666666666</ele><time>2026-05-03T09:19:03Z</time></trkpt><trkpt lat="37.433447911152" lon="14.370845754837672"><ele>747.0</ele><time>2026-05-03T09:19:04Z</time></trkpt><trkpt lat="37.43326888419409" lon="14.370808179535576"><ele>747.0</ele><time>2026-05-03T09:19:05Z</time></trkpt><trkpt lat="37.433090384800664" lon="14.370771097712742"><ele>747.0</ele><time>2026-05-03T09:19:06Z</time></trkpt><trkpt lat="37.43290440457259" lon="14.370734848678435"><ele>747.0</ele><time>2026-05-03T09:19:07Z</time></trkpt><trkpt lat="37.43272104871274" lon="14.370703364744996"><ele>746.3333333333334</ele><time>2026-05-03T09:19:08Z</time></trkpt><trkpt lat="37.43253781143912" lon="14.37066529248107"><ele>745.6666666666667</ele><time>2026-05-03T09:19:09Z</time></trkpt><trkpt lat="37.43235552111817" lon="14.370625793927042"><ele>745.0</ele><time>2026-05-03T09:19:10Z</time></trkpt><trkpt lat="37.43217181059533" lon="14.370592093802099"><ele>744.3333333333334</ele><time>2026-05-03T09:19:11Z</time></trkpt><trkpt lat="37.43198822315898" lon="14.370558098341785"><ele>743.6666666666666</ele><time>2026-05-03T09:19:12Z</time></trkpt><trkpt lat="37.43180482888092" lon="14.370522430570112"><ele>743.0</ele><time>2026-05-03T09:19:13Z</time></trkpt><trkpt lat="37.43162211912017" lon="14.370486346602327"><ele>742.0</ele><time>2026-05-03T09:19:14Z</time></trkpt><trkpt lat="37.431437120728305" lon="14.370450931967886"><ele>741.0</ele><time>2026-05-03T09:19:15Z</time></trkpt><trkpt lat="37.431251195714644" lon="14.370419962784524"><ele>740.0</ele><time>2026-05-03T09:19:16Z</time></trkpt><trkpt lat="37.43106590254517" lon="14.370386420134102"><ele>739.6666666666666</ele><time>2026-05-03T09:19:17Z</time></trkpt><trkpt lat="37.430880932463154" lon="14.370350601780258"><ele>739.3333333333334</ele><time>2026-05-03T09:19:18Z</time></trkpt><trkpt lat="37.43069534045866" lon="14.370314247841378"><ele>739.0</ele><time>2026-05-03T09:19:19Z</time></trkpt><trkpt lat="37.430503979506796" lon="14.37027888353924"><ele>738.3333333333334</ele><time>2026-05-03T09:19:20Z</time></trkpt><trkpt lat="37.43031284976829" lon="14.370246100729915"><ele>737.6666666666666</ele><time>2026-05-03T09:19:21Z</time></trkpt><trkpt lat="37.43012248412722" lon="14.370226695751276"><ele>737.0</ele><time>2026-05-03T09:19:22Z</time></trkpt><trkpt lat="37.429941552077395" lon="14.370215587298494"><ele>737.0</ele><time>2026-05-03T09:19:23Z</time></trkpt><trkpt lat="37.42975903348613" lon="14.37021619586208"><ele>737.0</ele><time>2026-05-03T09:19:24Z</time></trkpt><trkpt lat="37.42957398249784" lon="14.370208002789857"><ele>737.0</ele><time>2026-05-03T09:19:25Z</time></trkpt><trkpt lat="37.42938694795582" lon="14.370207461031487"><ele>736.6666666666666</ele><time>2026-05-03T09:19:26Z</time></trkpt><trkpt lat="37.42919147077356" lon="14.370222180509248"><ele>736.3333333333334</ele><time>2026-05-03T09:19:27Z</time></trkpt><trkpt lat="37.4289951892567" lon="14.370243311952521"><ele>736.0</ele><time>2026-05-03T09:19:28Z</time></trkpt><trkpt lat="37.42880538358363" lon="14.37026323390497"><ele>735.0</ele><time>2026-05-03T09:19:29Z</time></trkpt><trkpt lat="37.42862530801778" lon="14.370291584918215"><ele>734.0</ele><time>2026-05-03T09:19:30Z</time></trkpt><trkpt lat="37.42844168127739" lon="14.370319593243257"><ele>733.0</ele><time>2026-05-03T09:19:31Z</time></trkpt><trkpt lat="37.42826020856849" lon="14.370348559393133"><ele>733.0</ele><time>2026-05-03T09:19:32Z</time></trkpt><trkpt lat="37.42807610286362" lon="14.3703784881678"><ele>733.0</ele><time>2026-05-03T09:19:33Z</time></trkpt><trkpt lat="37.42789032575838" lon="14.370410317240605"><ele>733.0</ele><time>2026-05-03T09:19:34Z</time></trkpt><trkpt lat="37.42770403419208" lon="14.37043519034181"><ele>731.6666666666667</ele><time>2026-05-03T09:19:35Z</time></trkpt><trkpt lat="37.427518446830646" lon="14.370467064343107"><ele>730.3333333333334</ele><time>2026-05-03T09:19:36Z</time></trkpt><trkpt lat="37.42732750322707" lon="14.370491583768569"><ele>729.0</ele><time>2026-05-03T09:19:37Z</time></trkpt><trkpt lat="37.42713937115339" lon="14.37052013148237"><ele>730.3333333333334</ele><time>2026-05-03T09:19:38Z</time></trkpt><trkpt lat="37.426951706926694" lon="14.370551215498724"><ele>731.6666666666667</ele><time>2026-05-03T09:19:39Z</time></trkpt><trkpt lat="37.426762984036564" lon="14.370581985033438"><ele>733.0</ele><time>2026-05-03T09:19:40Z</time></trkpt><trkpt lat="37.42657376698724" lon="14.370602629625134"><ele>733.0</ele><time>2026-05-03T09:19:41Z</time></trkpt><trkpt lat="37.42638083804202" lon="14.370633243186223"><ele>733.0</ele><time>2026-05-03T09:19:42Z</time></trkpt><trkpt lat="37.42619003449697" lon="14.370657615355414"><ele>733.0</ele><time>2026-05-03T09:19:43Z</time></trkpt><trkpt lat="37.426001664463364" lon="14.370680157109406"><ele>732.0</ele><time>2026-05-03T09:19:44Z</time></trkpt><trkpt lat="37.42581855985826" lon="14.370705096250784"><ele>731.0</ele><time>2026-05-03T09:19:45Z</time></trkpt><trkpt lat="37.42563919662136" lon="14.370732108792758"><ele>730.0</ele><time>2026-05-03T09:19:46Z</time></trkpt><trkpt lat="37.425456320994876" lon="14.370749081597458"><ele>728.6666666666667</ele><time>2026-05-03T09:19:47Z</time></trkpt><trkpt lat="37.42527924041772" lon="14.370747012370856"><ele>727.3333333333334</ele><time>2026-05-03T09:19:48Z</time></trkpt><trkpt lat="37.4250937216139" lon="14.370744202390426"><ele>726.0</ele><time>2026-05-03T09:19:49Z</time></trkpt><trkpt lat="37.42490657055642" lon="14.37074126037777"><ele>726.0</ele><time>2026-05-03T09:19:50Z</time></trkpt><trkpt lat="37.4247205829758" lon="14.370732661729315"><ele>726.0</ele><time>2026-05-03T09:19:51Z</time></trkpt><trkpt lat="37.42453621652899" lon="14.370721864537957"><ele>726.0</ele><time>2026-05-03T09:19:52Z</time></trkpt><trkpt lat="37.42435185140411" lon="14.370714805630454"><ele>723.0</ele><time>2026-05-03T09:19:53Z</time></trkpt><trkpt lat="37.424165599347404" lon="14.370707640117665"><ele>720.0</ele><time>2026-05-03T09:19:54Z</time></trkpt><trkpt lat="37.42397705391421" lon="14.37070623501975"><ele>717.0</ele><time>2026-05-03T09:19:55Z</time></trkpt><trkpt lat="37.423791327630155" lon="14.370720347869431"><ele>717.0</ele><time>2026-05-03T09:19:56Z</time></trkpt><trkpt lat="37.42360294742684" lon="14.37074794587755"><ele>717.0</ele><time>2026-05-03T09:19:57Z</time></trkpt><trkpt lat="37.423417421277776" lon="14.37078987522059"><ele>717.0</ele><time>2026-05-03T09:19:58Z</time></trkpt><trkpt lat="37.423232458035855" lon="14.370846959524789"><ele>717.0</ele><time>2026-05-03T09:19:59Z</time></trkpt><trkpt lat="37.423056587998204" lon="14.370924846729165"><ele>717.0</ele><time>2026-05-03T09:20:00Z</time></trkpt><trkpt lat="37.422903551003245" lon="14.371009046374912"><ele>717.0</ele><time>2026-05-03T09:20:01Z</time></trkpt><trkpt lat="37.4227652265768" lon="14.371098880687503"><ele>717.5</ele><time>2026-05-03T09:20:02Z</time></trkpt><trkpt lat="37.42263783520116" lon="14.371182618392329"><ele>718.0</ele><time>2026-05-03T09:20:03Z</time></trkpt><trkpt lat="37.42252881994947" lon="14.371279813989752"><ele>718.5</ele><time>2026-05-03T09:20:04Z</time></trkpt><trkpt lat="37.422429745020416" lon="14.37137324106858"><ele>719.0</ele><time>2026-05-03T09:20:05Z</time></trkpt><trkpt lat="37.42233483668228" lon="14.371473967093715"><ele>719.0</ele><time>2026-05-03T09:20:06Z</time></trkpt><trkpt lat="37.42223880529935" lon="14.371583470594654"><ele>719.0</ele><time>2026-05-03T09:20:07Z</time></trkpt><trkpt lat="37.42214385085001" lon="14.371696481809575"><ele>719.0</ele><time>2026-05-03T09:20:08Z</time></trkpt><trkpt lat="37.42205529876253" lon="14.371807868969874"><ele>719.0</ele><time>2026-05-03T09:20:09Z</time></trkpt><trkpt lat="37.42196077660544" lon="14.371914431750458"><ele>719.2</ele><time>2026-05-03T09:20:10Z</time></trkpt><trkpt lat="37.42187665529938" lon="14.372011868581511"><ele>719.4000000000001</ele><time>2026-05-03T09:20:11Z</time></trkpt><trkpt lat="37.4217994165424" lon="14.37210133358227"><ele>719.6</ele><time>2026-05-03T09:20:12Z</time></trkpt><trkpt lat="37.421733276625055" lon="14.372177941392406"><ele>719.8</ele><time>2026-05-03T09:20:13Z</time></trkpt><trkpt lat="37.42166986545136" lon="14.372249723879381"><ele>720.0</ele><time>2026-05-03T09:20:14Z</time></trkpt><trkpt lat="37.42162237223991" lon="14.372304698934391"><ele>720.0</ele><time>2026-05-03T09:20:15Z</time></trkpt><trkpt lat="37.42148752022379" lon="14.372461428320905"><ele>720.0</ele><time>2026-05-03T09:20:35Z</time></trkpt><trkpt lat="37.4213900999893" lon="14.372575058455428"><ele>720.0</ele><time>2026-05-03T09:20:36Z</time></trkpt><trkpt lat="37.421275380783925" lon="14.372708865872145"><ele>720.75</ele><time>2026-05-03T09:20:37Z</time></trkpt><trkpt lat="37.4211615971602" lon="14.37284158205698"><ele>721.5</ele><time>2026-05-03T09:20:38Z</time></trkpt><trkpt lat="37.42106475384272" lon="14.372954539193271"><ele>722.25</ele><time>2026-05-03T09:20:39Z</time></trkpt><trkpt lat="37.42097281046623" lon="14.373061781121315"><ele>723.0</ele><time>2026-05-03T09:20:40Z</time></trkpt><trkpt lat="37.420898018525605" lon="14.373149017782838"><ele>723.0</ele><time>2026-05-03T09:20:41Z</time></trkpt><trkpt lat="37.420817784366896" lon="14.373243111188192"><ele>723.0</ele><time>2026-05-03T09:20:42Z</time></trkpt><trkpt lat="37.42073420508657" lon="14.37334115311968"><ele>723.0</ele><time>2026-05-03T09:20:43Z</time></trkpt><trkpt lat="37.42067955934119" lon="14.373405254778847"><ele>723.0</ele><time>2026-05-03T09:20:44Z</time></trkpt><trkpt lat="37.420624127760014" lon="14.373470278319717"><ele>723.0</ele><time>2026-05-03T09:20:45Z</time></trkpt><trkpt lat="37.420565585952936" lon="14.373538950237707"><ele>723.0</ele><time>2026-05-03T09:20:46Z</time></trkpt><trkpt lat="37.42050355697027" lon="14.37361154063039"><ele>723.0</ele><time>2026-05-03T09:20:47Z</time></trkpt><trkpt lat="37.420447301069416" lon="14.373676957678162"><ele>723.0</ele><time>2026-05-03T09:20:48Z</time></trkpt><trkpt lat="37.42037506273152" lon="14.373760959748571"><ele>723.0</ele><time>2026-05-03T09:20:49Z</time></trkpt><trkpt lat="37.42031181163415" lon="14.37383451101674"><ele>723.0</ele><time>2026-05-03T09:20:50Z</time></trkpt><trkpt lat="37.420212039825266" lon="14.373950530423937"><ele>723.3333333333334</ele><time>2026-05-03T09:20:51Z</time></trkpt><trkpt lat="37.42010163210224" lon="14.374078917653021"><ele>723.6666666666667</ele><time>2026-05-03T09:20:52Z</time></trkpt><trkpt lat="37.41997943096123" lon="14.3742218237025"><ele>724.0</ele><time>2026-05-03T09:20:53Z</time></trkpt><trkpt lat="37.419854247635186" lon="14.374369957084077"><ele>724.0</ele><time>2026-05-03T09:20:54Z</time></trkpt><trkpt lat="37.41975693815624" lon="14.374484920517554"><ele>724.0</ele><time>2026-05-03T09:20:55Z</time></trkpt><trkpt lat="37.419661583321634" lon="14.374596630737516"><ele>724.0</ele><time>2026-05-03T09:20:56Z</time></trkpt><trkpt lat="37.419583041990215" lon="14.374685981024538"><ele>724.0</ele><time>2026-05-03T09:20:57Z</time></trkpt><trkpt lat="37.419503300671835" lon="14.374776191979194"><ele>724.3333333333334</ele><time>2026-05-03T09:20:58Z</time></trkpt><trkpt lat="37.4194114050205" lon="14.374878214450767"><ele>724.6666666666666</ele><time>2026-05-03T09:20:59Z</time></trkpt><trkpt lat="37.419297007301594" lon="14.375005179429843"><ele>725.0</ele><time>2026-05-03T09:21:00Z</time></trkpt><trkpt lat="37.41915103609723" lon="14.375166902032992"><ele>725.0</ele><time>2026-05-03T09:21:01Z</time></trkpt><trkpt lat="37.41902941209225" lon="14.375301250294255"><ele>725.0</ele><time>2026-05-03T09:21:02Z</time></trkpt><trkpt lat="37.41892884301127" lon="14.375410462729652"><ele>725.0</ele><time>2026-05-03T09:21:03Z</time></trkpt><trkpt lat="37.41883698550104" lon="14.37551021532227"><ele>725.0</ele><time>2026-05-03T09:21:04Z</time></trkpt><trkpt lat="37.41875009911469" lon="14.375604569281442"><ele>724.6</ele><time>2026-05-03T09:21:05Z</time></trkpt><trkpt lat="37.41867692799025" lon="14.375684029044336"><ele>724.2</ele><time>2026-05-03T09:21:06Z</time></trkpt><trkpt lat="37.41860347704094" lon="14.37576379306469"><ele>723.8</ele><time>2026-05-03T09:21:07Z</time></trkpt><trkpt lat="37.418544436249746" lon="14.375827908141376"><ele>723.4</ele><time>2026-05-03T09:21:08Z</time></trkpt><trkpt lat="37.41847489193487" lon="14.375903202626922"><ele>723.0</ele><time>2026-05-03T09:21:09Z</time></trkpt><trkpt lat="37.41837877330262" lon="14.376006871047368"><ele>723.0</ele><time>2026-05-03T09:21:10Z</time></trkpt><trkpt lat="37.418268922895045" lon="14.376125348762095"><ele>723.0</ele><time>2026-05-03T09:21:11Z</time></trkpt><trkpt lat="37.418160783054844" lon="14.376241981558332"><ele>723.0</ele><time>2026-05-03T09:21:12Z</time></trkpt><trkpt lat="37.41806383114077" lon="14.37634698915512"><ele>723.0</ele><time>2026-05-03T09:21:13Z</time></trkpt><trkpt lat="37.417975580958704" lon="14.376442727649554"><ele>722.5999999999999</ele><time>2026-05-03T09:21:14Z</time></trkpt><trkpt lat="37.417886001126696" lon="14.376539908558156"><ele>722.1999999999999</ele><time>2026-05-03T09:21:15Z</time></trkpt><trkpt lat="37.41782174823685" lon="14.376609613489787"><ele>721.8</ele><time>2026-05-03T09:21:16Z</time></trkpt><trkpt lat="37.41774512039614" lon="14.37669274339611"><ele>721.4</ele><time>2026-05-03T09:21:17Z</time></trkpt><trkpt lat="37.417639288527646" lon="14.376807555433693"><ele>721.0</ele><time>2026-05-03T09:21:18Z</time></trkpt><trkpt lat="37.41755007178968" lon="14.376903377182813"><ele>721.0</ele><time>2026-05-03T09:21:19Z</time></trkpt><trkpt lat="37.41746745844536" lon="14.376990326043599"><ele>721.0</ele><time>2026-05-03T09:21:20Z</time></trkpt><trkpt lat="37.41739230109106" lon="14.377069427607056"><ele>721.0</ele><time>2026-05-03T09:21:21Z</time></trkpt><trkpt lat="37.41732939872365" lon="14.377137373356787"><ele>721.0</ele><time>2026-05-03T09:21:22Z</time></trkpt><trkpt lat="37.41726945659521" lon="14.377202903302798"><ele>721.0</ele><time>2026-05-03T09:21:24Z</time></trkpt><trkpt lat="37.417236638281224" lon="14.377274802997517"><ele>721.0</ele><time>2026-05-03T09:21:27Z</time></trkpt><trkpt lat="37.417169778065" lon="14.377313845609844"><ele>723.0</ele><time>2026-05-03T09:21:29Z</time></trkpt><trkpt lat="37.417094162850624" lon="14.377399567603712"><ele>725.0</ele><time>2026-05-03T09:21:31Z</time></trkpt><trkpt lat="37.41701144586073" lon="14.377493414551887"><ele>727.0</ele><time>2026-05-03T09:21:32Z</time></trkpt><trkpt lat="37.41692156280245" lon="14.377597255955402"><ele>729.0</ele><time>2026-05-03T09:21:33Z</time></trkpt><trkpt lat="37.416838260684" lon="14.377693494481854"><ele>731.0</ele><time>2026-05-03T09:21:34Z</time></trkpt><trkpt lat="37.41676032842498" lon="14.37778352921839"><ele>731.0</ele><time>2026-05-03T09:21:35Z</time></trkpt><trkpt lat="37.41668869937432" lon="14.377866281878472"><ele>731.0</ele><time>2026-05-03T09:21:36Z</time></trkpt><trkpt lat="37.416608154757725" lon="14.377961357282452"><ele>731.0</ele><time>2026-05-03T09:21:37Z</time></trkpt><trkpt lat="37.41651475658782" lon="14.378071544316763"><ele>731.0</ele><time>2026-05-03T09:21:38Z</time></trkpt><trkpt lat="37.416421948549214" lon="14.378181035121418"><ele>731.1666666666666</ele><time>2026-05-03T09:21:39Z</time></trkpt><trkpt lat="37.41634691080045" lon="14.378268528949505"><ele>731.3333333333333</ele><time>2026-05-03T09:21:40Z</time></trkpt><trkpt lat="37.41627651711259" lon="14.378350310520227"><ele>731.5</ele><time>2026-05-03T09:21:41Z</time></trkpt><trkpt lat="37.4162118918465" lon="14.378425390484065"><ele>731.6666666666666</ele><time>2026-05-03T09:21:42Z</time></trkpt><trkpt lat="37.41615861767108" lon="14.378487283012102"><ele>731.8333333333334</ele><time>2026-05-03T09:21:43Z</time></trkpt><trkpt lat="37.41611072378486" lon="14.378542924919978"><ele>732.0</ele><time>2026-05-03T09:21:44Z</time></trkpt><trkpt lat="37.41603672505879" lon="14.37862889472366"><ele>732.0</ele><time>2026-05-03T09:21:46Z</time></trkpt><trkpt lat="37.41595995380885" lon="14.378718085570368"><ele>732.0</ele><time>2026-05-03T09:21:48Z</time></trkpt><trkpt lat="37.41589266500248" lon="14.378796259926974"><ele>732.0</ele><time>2026-05-03T09:21:51Z</time></trkpt><trkpt lat="37.415835125317514" lon="14.378863108063934"><ele>732.0</ele><time>2026-05-03T09:21:52Z</time></trkpt><trkpt lat="37.41577456096487" lon="14.378933545966333"><ele>732.0</ele><time>2026-05-03T09:21:53Z</time></trkpt><trkpt lat="37.415708196469275" lon="14.37901116013569"><ele>732.0</ele><time>2026-05-03T09:21:54Z</time></trkpt><trkpt lat="37.41562492734541" lon="14.379108544513574"><ele>732.6</ele><time>2026-05-03T09:21:55Z</time></trkpt><trkpt lat="37.41554573219574" lon="14.37920116431209"><ele>733.2</ele><time>2026-05-03T09:21:56Z</time></trkpt><trkpt lat="37.41547670902914" lon="14.379281887854516"><ele>733.8</ele><time>2026-05-03T09:21:57Z</time></trkpt><trkpt lat="37.415417538318145" lon="14.379351088797232"><ele>734.4</ele><time>2026-05-03T09:21:58Z</time></trkpt><trkpt lat="37.415345002328486" lon="14.379435920640946"><ele>735.0</ele><time>2026-05-03T09:21:59Z</time></trkpt><trkpt lat="37.41529358187034" lon="14.37949605760881"><ele>735.0</ele><time>2026-05-03T09:22:00Z</time></trkpt><trkpt lat="37.41524216822529" lon="14.3795561865154"><ele>735.0</ele><time>2026-05-03T09:22:01Z</time></trkpt><trkpt lat="37.415159186584624" lon="14.379653226311195"><ele>735.0</ele><time>2026-05-03T09:22:03Z</time></trkpt><trkpt lat="37.415069176187245" lon="14.379758810575037"><ele>735.0</ele><time>2026-05-03T09:22:05Z</time></trkpt><trkpt lat="37.41502184438104" lon="14.379815816796938"><ele>735.0</ele><time>2026-05-03T09:22:06Z</time></trkpt><trkpt lat="37.41495416529467" lon="14.379897329227619"><ele>737.0</ele><time>2026-05-03T09:22:08Z</time></trkpt><trkpt lat="37.41487956355616" lon="14.379987179201544"><ele>739.0</ele><time>2026-05-03T09:22:10Z</time></trkpt><trkpt lat="37.414820926202204" lon="14.380057801777838"><ele>741.0</ele><time>2026-05-03T09:22:11Z</time></trkpt><trkpt lat="37.41476779705687" lon="14.380121790282342"><ele>743.0</ele><time>2026-05-03T09:22:12Z</time></trkpt><trkpt lat="37.414675715023876" lon="14.380234709980002"><ele>745.0</ele><time>2026-05-03T09:22:14Z</time></trkpt><trkpt lat="37.414610770426556" lon="14.380314457454592"><ele>745.0</ele><time>2026-05-03T09:22:15Z</time></trkpt><trkpt lat="37.414534128200124" lon="14.38040872298186"><ele>745.0</ele><time>2026-05-03T09:22:16Z</time></trkpt><trkpt lat="37.414474455712316" lon="14.380482699869255"><ele>745.0</ele><time>2026-05-03T09:22:17Z</time></trkpt><trkpt lat="37.41441556810344" lon="14.380555703701967"><ele>745.0</ele><time>2026-05-03T09:22:18Z</time></trkpt><trkpt lat="37.41435342532707" lon="14.380632743052288"><ele>745.0</ele><time>2026-05-03T09:22:19Z</time></trkpt><trkpt lat="37.41427911149182" lon="14.380724871017112"><ele>740.0</ele><time>2026-05-03T09:22:20Z</time></trkpt><trkpt lat="37.41421644139686" lon="14.380802564059703"><ele>735.0</ele><time>2026-05-03T09:22:21Z</time></trkpt><trkpt lat="37.41415336003065" lon="14.380880767131362"><ele>730.0</ele><time>2026-05-03T09:22:22Z</time></trkpt><trkpt lat="37.41409606391382" lon="14.380951797963693"><ele>725.0</ele><time>2026-05-03T09:22:23Z</time></trkpt><trkpt lat="37.414040811205915" lon="14.381020295609316"><ele>720.0</ele><time>2026-05-03T09:22:24Z</time></trkpt><trkpt lat="37.4139793135719" lon="14.381096535761593"><ele>715.0</ele><time>2026-05-03T09:22:25Z</time></trkpt><trkpt lat="37.41391958338424" lon="14.38116857962459"><ele>715.0</ele><time>2026-05-03T09:22:26Z</time></trkpt><trkpt lat="37.4138539311269" lon="14.381249913503838"><ele>715.0</ele><time>2026-05-03T09:22:27Z</time></trkpt><trkpt lat="37.41379185015385" lon="14.381326149107624"><ele>715.0</ele><time>2026-05-03T09:22:28Z</time></trkpt><trkpt lat="37.41373248279371" lon="14.381400779714745"><ele>715.0</ele><time>2026-05-03T09:22:29Z</time></trkpt><trkpt lat="37.41367493517816" lon="14.381473287122448"><ele>715.0</ele><time>2026-05-03T09:22:30Z</time></trkpt><trkpt lat="37.413615756404816" lon="14.381546902414092"><ele>715.0</ele><time>2026-05-03T09:22:31Z</time></trkpt><trkpt lat="37.41356318921361" lon="14.381611356997361"><ele>715.2</ele><time>2026-05-03T09:22:32Z</time></trkpt><trkpt lat="37.41350550594102" lon="14.381682084383087"><ele>715.4</ele><time>2026-05-03T09:22:33Z</time></trkpt><trkpt lat="37.41344257868321" lon="14.381759242461202"><ele>715.5999999999999</ele><time>2026-05-03T09:22:34Z</time></trkpt><trkpt lat="37.41336600943481" lon="14.381853085877104"><ele>715.8</ele><time>2026-05-03T09:22:35Z</time></trkpt><trkpt lat="37.41327772876605" lon="14.381961212568882"><ele>716.0</ele><time>2026-05-03T09:22:36Z</time></trkpt><trkpt lat="37.41317628246427" lon="14.382082045965461"><ele>715.0</ele><time>2026-05-03T09:22:37Z</time></trkpt><trkpt lat="37.413087326003655" lon="14.382187638828404"><ele>714.0</ele><time>2026-05-03T09:22:38Z</time></trkpt><trkpt lat="37.41301869829083" lon="14.382268502484498"><ele>713.0</ele><time>2026-05-03T09:22:39Z</time></trkpt><trkpt lat="37.412956477637316" lon="14.382337949911884"><ele>712.0</ele><time>2026-05-03T09:22:41Z</time></trkpt><trkpt lat="37.41314666889384" lon="14.382617469814175"><ele>710.4000000000001</ele><time>2026-05-03T09:22:48Z</time></trkpt><trkpt lat="37.41321363682221" lon="14.38275418714034"><ele>708.8000000000001</ele><time>2026-05-03T09:22:50Z</time></trkpt><trkpt lat="37.41326674854653" lon="14.382859766768963"><ele>707.2</ele><time>2026-05-03T09:22:51Z</time></trkpt><trkpt lat="37.41331904574411" lon="14.382967542748476"><ele>705.6</ele><time>2026-05-03T09:22:52Z</time></trkpt><trkpt lat="37.413371666379334" lon="14.383104867796956"><ele>704.0</ele><time>2026-05-03T09:22:53Z</time></trkpt><trkpt lat="37.4134157716845" lon="14.383244406065012"><ele>703.2</ele><time>2026-05-03T09:22:54Z</time></trkpt><trkpt lat="37.41345978312856" lon="14.383354766462876"><ele>702.4000000000001</ele><time>2026-05-03T09:22:55Z</time></trkpt><trkpt lat="37.41350060028327" lon="14.383456625590053"><ele>701.6</ele><time>2026-05-03T09:22:56Z</time></trkpt><trkpt lat="37.413535347078486" lon="14.383559026451415"><ele>700.8</ele><time>2026-05-03T09:22:57Z</time></trkpt><trkpt lat="37.413555867743995" lon="14.383681071096472"><ele>700.0</ele><time>2026-05-03T09:22:58Z</time></trkpt><trkpt lat="37.4135843618225" lon="14.383803582168749"><ele>700.4</ele><time>2026-05-03T09:22:59Z</time></trkpt><trkpt lat="37.41364074342434" lon="14.38392903369327"><ele>700.8</ele><time>2026-05-03T09:23:00Z</time></trkpt><trkpt lat="37.41368648840781" lon="14.384031699721715"><ele>701.2</ele><time>2026-05-03T09:23:01Z</time></trkpt><trkpt lat="37.41370977403177" lon="14.38411785207445"><ele>701.6</ele><time>2026-05-03T09:23:02Z</time></trkpt><trkpt lat="37.4136729616365" lon="14.384218431145612"><ele>702.0</ele><time>2026-05-03T09:23:03Z</time></trkpt><trkpt lat="37.4135986758065" lon="14.384280657371546"><ele>702.0</ele><time>2026-05-03T09:23:04Z</time></trkpt><trkpt lat="37.41355673224048" lon="14.384369699106838"><ele>702.0</ele><time>2026-05-03T09:23:06Z</time></trkpt><trkpt lat="37.41359481893799" lon="14.384440654669646"><ele>702.0</ele><time>2026-05-03T09:23:07Z</time></trkpt><trkpt lat="37.41365314862073" lon="14.38449304112261"><ele>702.0</ele><time>2026-05-03T09:23:08Z</time></trkpt><trkpt lat="37.413720301945865" lon="14.384526709746446"><ele>702.0</ele><time>2026-05-03T09:23:09Z</time></trkpt><trkpt lat="37.4137879841093" lon="14.384602063870004"><ele>702.0</ele><time>2026-05-03T09:23:10Z</time></trkpt><trkpt lat="37.413863745959326" lon="14.38471343437553"><ele>704.2</ele><time>2026-05-03T09:23:11Z</time></trkpt><trkpt lat="37.413928856885974" lon="14.38480917019132"><ele>706.4000000000001</ele><time>2026-05-03T09:23:12Z</time></trkpt><trkpt lat="37.41399130406428" lon="14.38493344103063"><ele>708.5999999999999</ele><time>2026-05-03T09:23:13Z</time></trkpt><trkpt lat="37.41403668886584" lon="14.385029888126393"><ele>710.8</ele><time>2026-05-03T09:23:14Z</time></trkpt><trkpt lat="37.41408028212208" lon="14.385097989178943"><ele>713.0</ele><time>2026-05-03T09:23:15Z</time></trkpt><trkpt lat="37.4141818411232" lon="14.385124498543073"><ele>713.0</ele><time>2026-05-03T09:23:17Z</time></trkpt><trkpt lat="37.41422421777248" lon="14.385192009951282"><ele>713.0</ele><time>2026-05-03T09:23:20Z</time></trkpt><trkpt lat="37.41420927228772" lon="14.385271434575685"><ele>713.0</ele><time>2026-05-03T09:23:23Z</time></trkpt><trkpt lat="37.414207755039584" lon="14.385353189081997"><ele>713.0</ele><time>2026-05-03T09:26:34Z</time></trkpt><trkpt lat="37.4142064825544" lon="14.38526459879322"><ele>713.0</ele><time>2026-05-03T09:27:11Z</time></trkpt><trkpt lat="37.41417323160173" lon="14.385353705967802"><ele>713.0</ele><time>2026-05-03T09:34:12Z</time></trkpt><trkpt lat="37.414058555111566" lon="14.385498165203648"><ele>713.5999999999999</ele><time>2026-05-03T09:34:33Z</time></trkpt><trkpt lat="37.41399217193093" lon="14.385527707663375"><ele>714.1999999999999</ele><time>2026-05-03T09:34:34Z</time></trkpt><trkpt lat="37.41392137139574" lon="14.3855660197204"><ele>714.8</ele><time>2026-05-03T09:34:35Z</time></trkpt><trkpt lat="37.41382422331528" lon="14.385588252125768"><ele>715.4</ele><time>2026-05-03T09:34:36Z</time></trkpt><trkpt lat="37.41373239768868" lon="14.385633597528592"><ele>716.0</ele><time>2026-05-03T09:34:37Z</time></trkpt><trkpt lat="37.41362914253707" lon="14.385678239050023"><ele>716.0</ele><time>2026-05-03T09:34:38Z</time></trkpt><trkpt lat="37.413513474816" lon="14.385730019065742"><ele>716.0</ele><time>2026-05-03T09:34:39Z</time></trkpt><trkpt lat="37.41339584850008" lon="14.385788135155874"><ele>716.0</ele><time>2026-05-03T09:34:40Z</time></trkpt><trkpt lat="37.413286294674464" lon="14.38587184889743"><ele>716.0</ele><time>2026-05-03T09:34:41Z</time></trkpt><trkpt lat="37.41316768832307" lon="14.385924083819779"><ele>716.0</ele><time>2026-05-03T09:34:42Z</time></trkpt><trkpt lat="37.4130752899149" lon="14.385979146112696"><ele>716.0</ele><time>2026-05-03T09:34:43Z</time></trkpt><trkpt lat="37.413008268370135" lon="14.386015100591878"><ele>716.0</ele><time>2026-05-03T09:34:45Z</time></trkpt><trkpt lat="37.41315503823015" lon="14.386167634651807"><ele>716.0</ele><time>2026-05-03T09:34:49Z</time></trkpt><trkpt lat="37.41320700781039" lon="14.38630839500905"><ele>716.1666666666666</ele><time>2026-05-03T09:34:51Z</time></trkpt><trkpt lat="37.413239591311275" lon="14.386406530125212"><ele>716.3333333333333</ele><time>2026-05-03T09:34:52Z</time></trkpt><trkpt lat="37.41329108280399" lon="14.386500798240489"><ele>716.5</ele><time>2026-05-03T09:34:53Z</time></trkpt><trkpt lat="37.41334732168321" lon="14.386584948678284"><ele>716.6666666666666</ele><time>2026-05-03T09:34:54Z</time></trkpt><trkpt lat="37.41340712119895" lon="14.38665729948127"><ele>716.8333333333334</ele><time>2026-05-03T09:34:55Z</time></trkpt><trkpt lat="37.41346351156714" lon="14.386736001933713"><ele>717.0</ele><time>2026-05-03T09:34:56Z</time></trkpt><trkpt lat="37.41350612302307" lon="14.386795952163983"><ele>717.0</ele><time>2026-05-03T09:34:57Z</time></trkpt><trkpt lat="37.41359056306825" lon="14.386897832410913"><ele>717.0</ele><time>2026-05-03T09:34:59Z</time></trkpt><trkpt lat="37.413669178008156" lon="14.386985084103399"><ele>717.0</ele><time>2026-05-03T09:35:01Z</time></trkpt><trkpt lat="37.41378207340127" lon="14.386932458845687"><ele>717.0</ele><time>2026-05-03T09:35:03Z</time></trkpt><trkpt lat="37.41382829012129" lon="14.386868010956082"><ele>717.0</ele><time>2026-05-03T09:35:04Z</time></trkpt><trkpt lat="37.41389618004073" lon="14.38683209176902"><ele>717.8333333333334</ele><time>2026-05-03T09:35:05Z</time></trkpt><trkpt lat="37.41396763399593" lon="14.386803948906648"><ele>718.6666666666666</ele><time>2026-05-03T09:35:06Z</time></trkpt><trkpt lat="37.414078649627626" lon="14.386789084612056"><ele>719.5</ele><time>2026-05-03T09:35:08Z</time></trkpt><trkpt lat="37.414151680819856" lon="14.386793609435514"><ele>720.3333333333333</ele><time>2026-05-03T09:35:09Z</time></trkpt><trkpt lat="37.41421437653108" lon="14.386776895941525"><ele>721.1666666666666</ele><time>2026-05-03T09:35:10Z</time></trkpt><trkpt lat="37.41428115295377" lon="14.386758872382847"><ele>722.0</ele><time>2026-05-03T09:35:11Z</time></trkpt><trkpt lat="37.41437909310916" lon="14.38669756389906"><ele>722.0</ele><time>2026-05-03T09:35:13Z</time></trkpt><trkpt lat="37.414441259861256" lon="14.386648667172928"><ele>722.0</ele><time>2026-05-03T09:35:15Z</time></trkpt><trkpt lat="37.41451673826913" lon="14.386601126418201"><ele>722.0</ele><time>2026-05-03T09:35:18Z</time></trkpt><trkpt lat="37.41458984851899" lon="14.386604234856259"><ele>722.0</ele><time>2026-05-03T09:35:25Z</time></trkpt><trkpt lat="37.414620271726854" lon="14.386510849916542"><ele>722.0</ele><time>2026-05-03T09:35:28Z</time></trkpt><trkpt lat="37.41464936932186" lon="14.386437100401452"><ele>722.0</ele><time>2026-05-03T09:35:31Z</time></trkpt><trkpt lat="37.414736369551655" lon="14.386447332791167"><ele>723.8333333333333</ele><time>2026-05-03T09:35:40Z</time></trkpt><trkpt lat="37.41480105750954" lon="14.386487729227651"><ele>725.6666666666666</ele><time>2026-05-03T09:35:44Z</time></trkpt><trkpt lat="37.41486672828784" lon="14.386466681940977"><ele>727.5</ele><time>2026-05-03T09:35:48Z</time></trkpt><trkpt lat="37.41493011145027" lon="14.386496014763898"><ele>729.3333333333334</ele><time>2026-05-03T09:35:51Z</time></trkpt><trkpt lat="37.4150479951097" lon="14.386423060876735"><ele>731.1666666666667</ele><time>2026-05-03T09:35:53Z</time></trkpt><trkpt lat="37.41512776820703" lon="14.386386325784187"><ele>733.0</ele><time>2026-05-03T09:35:54Z</time></trkpt><trkpt lat="37.415204451237464" lon="14.386348856634449"><ele>733.0</ele><time>2026-05-03T09:35:55Z</time></trkpt><trkpt lat="37.4152756199268" lon="14.386322978156493"><ele>733.0</ele><time>2026-05-03T09:35:56Z</time></trkpt><trkpt lat="37.415350316180024" lon="14.386251826703448"><ele>733.0</ele><time>2026-05-03T09:35:58Z</time></trkpt><trkpt lat="37.415366270305675" lon="14.386162952957124"><ele>733.0</ele><time>2026-05-03T09:35:59Z</time></trkpt><trkpt lat="37.41539863427287" lon="14.386088068160655"><ele>733.0</ele><time>2026-05-03T09:36:00Z</time></trkpt><trkpt lat="37.415512014361845" lon="14.386041697292951"><ele>733.0</ele><time>2026-05-03T09:36:02Z</time></trkpt><trkpt lat="37.415579383396405" lon="14.386039750417618"><ele>733.0</ele><time>2026-05-03T09:36:03Z</time></trkpt><trkpt lat="37.415647082629214" lon="14.386034751302377"><ele>733.0</ele><time>2026-05-03T09:36:05Z</time></trkpt><trkpt lat="37.41572935560233" lon="14.386040312543662"><ele>733.0</ele><time>2026-05-03T09:36:07Z</time></trkpt><trkpt lat="37.41580379643331" lon="14.386070108860642"><ele>733.0</ele><time>2026-05-03T09:36:09Z</time></trkpt><trkpt lat="37.4158685888348" lon="14.386079799733675"><ele>733.0</ele><time>2026-05-03T09:36:33Z</time></trkpt><trkpt lat="37.415965399336216" lon="14.386072666087795"><ele>733.0</ele><time>2026-05-03T09:39:06Z</time></trkpt><trkpt lat="37.416055058397056" lon="14.38604960177507"><ele>733.0</ele><time>2026-05-03T09:39:08Z</time></trkpt><trkpt lat="37.41615499100684" lon="14.385995898984024"><ele>733.0</ele><time>2026-05-03T09:39:10Z</time></trkpt><trkpt lat="37.41622427897863" lon="14.385934338788527"><ele>733.0</ele><time>2026-05-03T09:39:13Z</time></trkpt><trkpt lat="37.41626854398254" lon="14.385871386587116"><ele>733.0</ele><time>2026-05-03T09:39:15Z</time></trkpt><trkpt lat="37.416302567323896" lon="14.385788619433932"><ele>733.0</ele><time>2026-05-03T09:39:33Z</time></trkpt><trkpt lat="37.41638919764036" lon="14.385752832856396"><ele>733.0</ele><time>2026-05-03T09:40:06Z</time></trkpt><trkpt lat="37.41646531013358" lon="14.385748462655487"><ele>734.6666666666667</ele><time>2026-05-03T09:40:09Z</time></trkpt><trkpt lat="37.41641052881841" lon="14.38580024822703"><ele>736.3333333333334</ele><time>2026-05-03T09:40:24Z</time></trkpt><trkpt lat="37.41646993052935" lon="14.385862714263919"><ele>738.0</ele><time>2026-05-03T09:40:28Z</time></trkpt><trkpt lat="37.41656545085329" lon="14.385883262077513"><ele>739.6666666666666</ele><time>2026-05-03T09:40:31Z</time></trkpt><trkpt lat="37.41654016860493" lon="14.385971378073569"><ele>741.3333333333333</ele><time>2026-05-03T09:41:08Z</time></trkpt><trkpt lat="37.416549203405204" lon="14.386059647621384"><ele>743.0</ele><time>2026-05-03T09:41:16Z</time></trkpt><trkpt lat="37.416581389928865" lon="14.38598233750957"><ele>743.0</ele><time>2026-05-03T09:42:10Z</time></trkpt><trkpt lat="37.41660199514297" lon="14.385901618975208"><ele>743.0</ele><time>2026-05-03T09:42:21Z</time></trkpt><trkpt lat="37.416621569789655" lon="14.385807965285371"><ele>743.0</ele><time>2026-05-03T09:44:28Z</time></trkpt><trkpt lat="37.4166925855669" lon="14.385768098635609"><ele>743.0</ele><time>2026-05-03T09:44:31Z</time></trkpt><trkpt lat="37.41676536021524" lon="14.385745407539057"><ele>743.0</ele><time>2026-05-03T09:44:34Z</time></trkpt><trkpt lat="37.41682954022587" lon="14.385729875031288"><ele>743.0</ele><time>2026-05-03T09:44:36Z</time></trkpt><trkpt lat="37.41692055753216" lon="14.38570897708941"><ele>743.0</ele><time>2026-05-03T09:44:39Z</time></trkpt><trkpt lat="37.416995328013286" lon="14.385651393270495"><ele>743.0</ele><time>2026-05-03T09:44:41Z</time></trkpt><trkpt lat="37.417091775643975" lon="14.385605111704772"><ele>743.0</ele><time>2026-05-03T09:44:43Z</time></trkpt><trkpt lat="37.4171678258545" lon="14.385565358749838"><ele>743.0</ele><time>2026-05-03T09:44:46Z</time></trkpt><trkpt lat="37.417237712887385" lon="14.385524734809925"><ele>743.0</ele><time>2026-05-03T09:44:49Z</time></trkpt><trkpt lat="37.417316689306226" lon="14.385457522528172"><ele>743.0</ele><time>2026-05-03T09:44:51Z</time></trkpt><trkpt lat="37.41738050686127" lon="14.385477993025704"><ele>744.1666666666666</ele><time>2026-05-03T09:44:53Z</time></trkpt><trkpt lat="37.417453871710826" lon="14.38547069560338"><ele>745.3333333333333</ele><time>2026-05-03T09:44:55Z</time></trkpt><trkpt lat="37.41754376279443" lon="14.385386433635988"><ele>746.5</ele><time>2026-05-03T09:44:57Z</time></trkpt><trkpt lat="37.41759880945477" lon="14.385343293816884"><ele>747.6666666666666</ele><time>2026-05-03T09:44:58Z</time></trkpt><trkpt lat="37.41771255167979" lon="14.3852980307233"><ele>748.8333333333334</ele><time>2026-05-03T09:45:00Z</time></trkpt><trkpt lat="37.41777930854252" lon="14.385273472983496"><ele>750.0</ele><time>2026-05-03T09:45:01Z</time></trkpt><trkpt lat="37.41786324483858" lon="14.385241644668277"><ele>750.0</ele><time>2026-05-03T09:45:02Z</time></trkpt><trkpt lat="37.41796004587123" lon="14.385206899409084"><ele>750.0</ele><time>2026-05-03T09:45:04Z</time></trkpt><trkpt lat="37.418012926812324" lon="14.385252791799934"><ele>750.0</ele><time>2026-05-03T09:45:06Z</time></trkpt><trkpt lat="37.41800230726245" lon="14.385354558882923"><ele>750.0</ele><time>2026-05-03T09:45:09Z</time></trkpt><trkpt lat="37.41806737905244" lon="14.385433081649046"><ele>750.0</ele><time>2026-05-03T09:45:12Z</time></trkpt><trkpt lat="37.418117397037236" lon="14.385369013145702"><ele>750.0</ele><time>2026-05-03T09:45:15Z</time></trkpt><trkpt lat="37.41817375707236" lon="14.385295142579373"><ele>749.8333333333334</ele><time>2026-05-03T09:45:18Z</time></trkpt><trkpt lat="37.41825314385372" lon="14.385253202348988"><ele>749.6666666666666</ele><time>2026-05-03T09:45:22Z</time></trkpt><trkpt lat="37.41834029956938" lon="14.385191800813763"><ele>749.5</ele><time>2026-05-03T09:45:25Z</time></trkpt><trkpt lat="37.41841064007815" lon="14.385157708622614"><ele>749.3333333333333</ele><time>2026-05-03T09:45:27Z</time></trkpt><trkpt lat="37.41852020813898" lon="14.385119193695397"><ele>749.1666666666666</ele><time>2026-05-03T09:45:29Z</time></trkpt><trkpt lat="37.418591095240735" lon="14.385103222714752"><ele>749.0</ele><time>2026-05-03T09:45:30Z</time></trkpt><trkpt lat="37.41868736807385" lon="14.38509591595639"><ele>749.0</ele><time>2026-05-03T09:45:32Z</time></trkpt><trkpt lat="37.418728701891396" lon="14.385022652210838"><ele>749.0</ele><time>2026-05-03T09:45:35Z</time></trkpt><trkpt lat="37.418789538691776" lon="14.384972951471914"><ele>749.0</ele><time>2026-05-03T09:46:25Z</time></trkpt><trkpt lat="37.41887285731465" lon="14.384956795065209"><ele>749.0</ele><time>2026-05-03T09:46:27Z</time></trkpt><trkpt lat="37.41894319529862" lon="14.384941633993263"><ele>749.0</ele><time>2026-05-03T09:46:28Z</time></trkpt><trkpt lat="37.419052578087324" lon="14.384904390272215"><ele>749.0</ele><time>2026-05-03T09:46:30Z</time></trkpt><trkpt lat="37.41912874383568" lon="14.384889567735485"><ele>747.6</ele><time>2026-05-03T09:46:32Z</time></trkpt><trkpt lat="37.41917676544688" lon="14.384822759995174"><ele>746.2</ele><time>2026-05-03T09:46:34Z</time></trkpt><trkpt lat="37.41925197727887" lon="14.384687999909579"><ele>744.8000000000001</ele><time>2026-05-03T09:46:36Z</time></trkpt><trkpt lat="37.41935817566998" lon="14.384626709877582"><ele>743.4000000000001</ele><time>2026-05-03T09:46:38Z</time></trkpt><trkpt lat="37.41943734206991" lon="14.384593923139192"><ele>742.0</ele><time>2026-05-03T09:46:40Z</time></trkpt><trkpt lat="37.419543177220454" lon="14.384559944524739"><ele>742.0</ele><time>2026-05-03T09:46:42Z</time></trkpt><trkpt lat="37.41963243107816" lon="14.384537397963566"><ele>742.0</ele><time>2026-05-03T09:46:44Z</time></trkpt><trkpt lat="37.41969541362186" lon="14.384463479170334"><ele>742.0</ele><time>2026-05-03T09:46:48Z</time></trkpt><trkpt lat="37.41971018313151" lon="14.384376291205152"><ele>742.0</ele><time>2026-05-03T09:47:01Z</time></trkpt><trkpt lat="37.41975047339502" lon="14.384307833254702"><ele>742.0</ele><time>2026-05-03T09:47:50Z</time></trkpt><trkpt lat="37.41979185199731" lon="14.384242136652462"><ele>742.0</ele><time>2026-05-03T09:47:54Z</time></trkpt><trkpt lat="37.41980608241857" lon="14.384146755803597"><ele>744.8333333333334</ele><time>2026-05-03T09:51:47Z</time></trkpt><trkpt lat="37.41988484552481" lon="14.384107447347082"><ele>747.6666666666667</ele><time>2026-05-03T09:51:50Z</time></trkpt><trkpt lat="37.41996662027841" lon="14.384115759356728"><ele>750.5</ele><time>2026-05-03T09:51:52Z</time></trkpt><trkpt lat="37.42003834690024" lon="14.38414563862691"><ele>753.3333333333334</ele><time>2026-05-03T09:51:54Z</time></trkpt><trkpt lat="37.42009388389621" lon="14.384183693680235"><ele>756.1666666666666</ele><time>2026-05-03T09:51:56Z</time></trkpt><trkpt lat="37.42013293776446" lon="14.384246644909544"><ele>759.0</ele><time>2026-05-03T09:51:58Z</time></trkpt><trkpt lat="37.420195661632974" lon="14.384347021351791"><ele>759.0</ele><time>2026-05-03T09:52:00Z</time></trkpt><trkpt lat="37.42025730412114" lon="14.384378163977424"><ele>759.0</ele><time>2026-05-03T09:52:02Z</time></trkpt><trkpt lat="37.420341513828355" lon="14.384314436502743"><ele>759.0</ele><time>2026-05-03T09:52:04Z</time></trkpt><trkpt lat="37.42040250730407" lon="14.384258782938753"><ele>759.0</ele><time>2026-05-03T09:52:13Z</time></trkpt><trkpt lat="37.42049248775196" lon="14.384215315204406"><ele>759.0</ele><time>2026-05-03T09:52:14Z</time></trkpt><trkpt lat="37.42058486434819" lon="14.384166653937678"><ele>759.0</ele><time>2026-05-03T09:52:15Z</time></trkpt><trkpt lat="37.42067477831042" lon="14.384127596155636"><ele>760.6666666666666</ele><time>2026-05-03T09:52:16Z</time></trkpt><trkpt lat="37.420747140814306" lon="14.384128864697312"><ele>762.3333333333333</ele><time>2026-05-03T09:52:17Z</time></trkpt><trkpt lat="37.420819873611435" lon="14.384144672894651"><ele>764.0</ele><time>2026-05-03T09:52:18Z</time></trkpt><trkpt lat="37.420930008024136" lon="14.384090424296549"><ele>765.6666666666666</ele><time>2026-05-03T09:52:20Z</time></trkpt><trkpt lat="37.420971894350735" lon="14.384028307741666"><ele>767.3333333333333</ele><time>2026-05-03T09:52:22Z</time></trkpt><trkpt lat="37.4210407162403" lon="14.384006697225185"><ele>769.0</ele><time>2026-05-03T09:52:34Z</time></trkpt><trkpt lat="37.42112250003649" lon="14.38398224838303"><ele>769.0</ele><time>2026-05-03T09:52:35Z</time></trkpt><trkpt lat="37.42121833090274" lon="14.383942247941157"><ele>769.0</ele><time>2026-05-03T09:52:36Z</time></trkpt><trkpt lat="37.4213079798489" lon="14.38391792685809"><ele>769.0</ele><time>2026-05-03T09:52:37Z</time></trkpt><trkpt lat="37.421393018092125" lon="14.383886393287977"><ele>769.0</ele><time>2026-05-03T09:52:38Z</time></trkpt><trkpt lat="37.42148220856046" lon="14.38382759350704"><ele>769.0</ele><time>2026-05-03T09:52:39Z</time></trkpt><trkpt lat="37.42158666877198" lon="14.383769667606794"><ele>769.25</ele><time>2026-05-03T09:52:40Z</time></trkpt><trkpt lat="37.42171548370587" lon="14.383708893911768"><ele>769.5</ele><time>2026-05-03T09:52:41Z</time></trkpt><trkpt lat="37.42184698987076" lon="14.383656077035814"><ele>769.75</ele><time>2026-05-03T09:52:42Z</time></trkpt><trkpt lat="37.421972097958395" lon="14.383614300553004"><ele>770.0</ele><time>2026-05-03T09:52:43Z</time></trkpt><trkpt lat="37.42209393098563" lon="14.383579687587686"><ele>771.25</ele><time>2026-05-03T09:52:44Z</time></trkpt><trkpt lat="37.42222348794157" lon="14.38354481373329"><ele>772.5</ele><time>2026-05-03T09:52:45Z</time></trkpt><trkpt lat="37.422336780953785" lon="14.383501019846529"><ele>773.75</ele><time>2026-05-03T09:52:46Z</time></trkpt><trkpt lat="37.422447084994005" lon="14.383442288623447"><ele>775.0</ele><time>2026-05-03T09:52:47Z</time></trkpt><trkpt lat="37.42254882390751" lon="14.383382282338973"><ele>775.0</ele><time>2026-05-03T09:52:48Z</time></trkpt><trkpt lat="37.422662001170735" lon="14.383342106572227"><ele>775.0</ele><time>2026-05-03T09:52:49Z</time></trkpt><trkpt lat="37.422775754264144" lon="14.383305082095044"><ele>775.0</ele><time>2026-05-03T09:52:50Z</time></trkpt><trkpt lat="37.42287808867398" lon="14.38326697421825"><ele>775.0</ele><time>2026-05-03T09:52:51Z</time></trkpt><trkpt lat="37.42297214345305" lon="14.383223402698045"><ele>775.0</ele><time>2026-05-03T09:52:52Z</time></trkpt><trkpt lat="37.42306143435458" lon="14.383177755221139"><ele>775.2</ele><time>2026-05-03T09:52:53Z</time></trkpt><trkpt lat="37.42315327980977" lon="14.383124418036417"><ele>775.4</ele><time>2026-05-03T09:52:54Z</time></trkpt><trkpt lat="37.42324386017418" lon="14.383078441561098"><ele>775.5999999999999</ele><time>2026-05-03T09:52:55Z</time></trkpt><trkpt lat="37.42334788009277" lon="14.383047337824943"><ele>775.8</ele><time>2026-05-03T09:52:56Z</time></trkpt><trkpt lat="37.42345332865939" lon="14.383017499466726"><ele>776.0</ele><time>2026-05-03T09:52:57Z</time></trkpt><trkpt lat="37.42355832044476" lon="14.382977039787189"><ele>776.0</ele><time>2026-05-03T09:52:58Z</time></trkpt><trkpt lat="37.42366603780879" lon="14.382930550542216"><ele>776.0</ele><time>2026-05-03T09:52:59Z</time></trkpt><trkpt lat="37.42377463614434" lon="14.382883437965646"><ele>776.0</ele><time>2026-05-03T09:53:00Z</time></trkpt><trkpt lat="37.42387643347082" lon="14.38285334735836"><ele>776.0</ele><time>2026-05-03T09:53:01Z</time></trkpt><trkpt lat="37.42396274609445" lon="14.382849215336321"><ele>776.0</ele><time>2026-05-03T09:53:02Z</time></trkpt><trkpt lat="37.424035080223355" lon="14.38284532985403"><ele>776.0</ele><time>2026-05-03T09:53:03Z</time></trkpt><trkpt lat="37.424117057435076" lon="14.382829922472638"><ele>776.0</ele><time>2026-05-03T09:53:04Z</time></trkpt><trkpt lat="37.42421124611728" lon="14.382784086047463"><ele>776.0</ele><time>2026-05-03T09:53:05Z</time></trkpt><trkpt lat="37.42432059572279" lon="14.382714525183976"><ele>776.0</ele><time>2026-05-03T09:53:06Z</time></trkpt><trkpt lat="37.42442150138461" lon="14.382655598259579"><ele>776.0</ele><time>2026-05-03T09:53:07Z</time></trkpt><trkpt lat="37.424540659854244" lon="14.382608719908076"><ele>777.4</ele><time>2026-05-03T09:53:08Z</time></trkpt><trkpt lat="37.424662446146606" lon="14.382558257270853"><ele>778.8</ele><time>2026-05-03T09:53:09Z</time></trkpt><trkpt lat="37.42477438830391" lon="14.38251278790844"><ele>780.1999999999999</ele><time>2026-05-03T09:53:10Z</time></trkpt><trkpt lat="37.42487356589277" lon="14.382472703263753"><ele>781.5999999999999</ele><time>2026-05-03T09:53:11Z</time></trkpt><trkpt lat="37.42495714924793" lon="14.382434185950391"><ele>783.0</ele><time>2026-05-03T09:53:12Z</time></trkpt><trkpt lat="37.4250555773692" lon="14.38240021527266"><ele>783.0</ele><time>2026-05-03T09:53:13Z</time></trkpt><trkpt lat="37.42516384785245" lon="14.382377995377048"><ele>783.0</ele><time>2026-05-03T09:53:14Z</time></trkpt><trkpt lat="37.425266160401634" lon="14.382366505416723"><ele>783.0</ele><time>2026-05-03T09:53:15Z</time></trkpt><trkpt lat="37.42535977515838" lon="14.382371186408037"><ele>783.0</ele><time>2026-05-03T09:53:16Z</time></trkpt><trkpt lat="37.42546042759235" lon="14.382397582935107"><ele>783.0</ele><time>2026-05-03T09:53:17Z</time></trkpt><trkpt lat="37.425537871445165" lon="14.382427954708412"><ele>785.8</ele><time>2026-05-03T09:53:18Z</time></trkpt><trkpt lat="37.42561004077843" lon="14.382436538285994"><ele>788.5999999999999</ele><time>2026-05-03T09:53:19Z</time></trkpt><trkpt lat="37.425721696753044" lon="14.382368420014537"><ele>791.4000000000001</ele><time>2026-05-03T09:53:21Z</time></trkpt><trkpt lat="37.42579360123872" lon="14.382305807941545"><ele>794.2</ele><time>2026-05-03T09:53:22Z</time></trkpt><trkpt lat="37.42587255870945" lon="14.382247817648157"><ele>797.0</ele><time>2026-05-03T09:53:23Z</time></trkpt><trkpt lat="37.42596529056906" lon="14.38221313877164"><ele>796.2</ele><time>2026-05-03T09:53:24Z</time></trkpt><trkpt lat="37.4260570472413" lon="14.38216782925161"><ele>795.4000000000001</ele><time>2026-05-03T09:53:25Z</time></trkpt><trkpt lat="37.426148976162786" lon="14.382129260589634"><ele>794.5999999999999</ele><time>2026-05-03T09:53:26Z</time></trkpt><trkpt lat="37.42624983191369" lon="14.38208596494018"><ele>793.8</ele><time>2026-05-03T09:53:27Z</time></trkpt><trkpt lat="37.42635178578415" lon="14.382041138780425"><ele>793.0</ele><time>2026-05-03T09:53:28Z</time></trkpt><trkpt lat="37.42643897928895" lon="14.381978951655528"><ele>793.0</ele><time>2026-05-03T09:53:29Z</time></trkpt><trkpt lat="37.42652116703688" lon="14.381915135578282"><ele>793.0</ele><time>2026-05-03T09:53:30Z</time></trkpt><trkpt lat="37.42662075332286" lon="14.381869167642844"><ele>793.0</ele><time>2026-05-03T09:53:31Z</time></trkpt><trkpt lat="37.426714149280336" lon="14.381810496961837"><ele>793.0</ele><time>2026-05-03T09:53:32Z</time></trkpt><trkpt lat="37.42681296536872" lon="14.38174843881855"><ele>793.0</ele><time>2026-05-03T09:53:33Z</time></trkpt><trkpt lat="37.42691588988275" lon="14.381695024063154"><ele>793.0</ele><time>2026-05-03T09:53:34Z</time></trkpt><trkpt lat="37.42701726303067" lon="14.381621511061596"><ele>793.0</ele><time>2026-05-03T09:53:35Z</time></trkpt><trkpt lat="37.42710586881433" lon="14.3815389451336"><ele>793.0</ele><time>2026-05-03T09:53:36Z</time></trkpt><trkpt lat="37.427181761577074" lon="14.38145299563412"><ele>793.0</ele><time>2026-05-03T09:53:37Z</time></trkpt><trkpt lat="37.427257253246474" lon="14.38138872196679"><ele>793.0</ele><time>2026-05-03T09:53:38Z</time></trkpt><trkpt lat="37.42732734344864" lon="14.381355909334996"><ele>795.2</ele><time>2026-05-03T09:53:39Z</time></trkpt><trkpt lat="37.427388346754654" lon="14.381329317924859"><ele>797.4</ele><time>2026-05-03T09:53:40Z</time></trkpt><trkpt lat="37.42747942393973" lon="14.381203057707113"><ele>799.6</ele><time>2026-05-03T09:53:42Z</time></trkpt><trkpt lat="37.427515506981834" lon="14.381108712709446"><ele>801.8000000000001</ele><time>2026-05-03T09:53:43Z</time></trkpt><trkpt lat="37.42754929053313" lon="14.381003915547206"><ele>804.0</ele><time>2026-05-03T09:53:44Z</time></trkpt><trkpt lat="37.42756879772495" lon="14.380892475360483"><ele>804.0</ele><time>2026-05-03T09:53:45Z</time></trkpt><trkpt lat="37.42759776297729" lon="14.380787864250212"><ele>804.0</ele><time>2026-05-03T09:53:46Z</time></trkpt><trkpt lat="37.42763004941274" lon="14.380690882978671"><ele>804.0</ele><time>2026-05-03T09:53:47Z</time></trkpt><trkpt lat="37.427650069124404" lon="14.380613986136204"><ele>804.0</ele><time>2026-05-03T09:53:48Z</time></trkpt><trkpt lat="37.427727832345205" lon="14.38054029125649"><ele>804.0</ele><time>2026-05-03T09:53:50Z</time></trkpt><trkpt lat="37.42779280737406" lon="14.380496391393036"><ele>804.0</ele><time>2026-05-03T09:53:53Z</time></trkpt><trkpt lat="37.42782784199586" lon="14.380405294608419"><ele>803.6</ele><time>2026-05-03T09:53:55Z</time></trkpt><trkpt lat="37.42787711384065" lon="14.380349308451441"><ele>803.2</ele><time>2026-05-03T09:53:56Z</time></trkpt><trkpt lat="37.427945606075426" lon="14.380280830584994"><ele>802.8000000000001</ele><time>2026-05-03T09:53:58Z</time></trkpt><trkpt lat="37.42800368440471" lon="14.380171703476421"><ele>802.4000000000001</ele><time>2026-05-03T09:54:00Z</time></trkpt><trkpt lat="37.42809358662361" lon="14.38006946712656"><ele>802.0</ele><time>2026-05-03T09:54:02Z</time></trkpt><trkpt lat="37.42818280112333" lon="14.379988217323369"><ele>802.2</ele><time>2026-05-03T09:54:03Z</time></trkpt><trkpt lat="37.42829860555952" lon="14.37984888529897"><ele>802.4000000000001</ele><time>2026-05-03T09:54:04Z</time></trkpt><trkpt lat="37.42837028096965" lon="14.379800845137828"><ele>802.5999999999999</ele><time>2026-05-03T09:54:05Z</time></trkpt><trkpt lat="37.42844726631077" lon="14.379714601032516"><ele>802.8</ele><time>2026-05-03T09:54:06Z</time></trkpt><trkpt lat="37.42850947232056" lon="14.379626526082774"><ele>803.0</ele><time>2026-05-03T09:54:07Z</time></trkpt><trkpt lat="37.42859630561532" lon="14.37952211835628"><ele>803.0</ele><time>2026-05-03T09:54:08Z</time></trkpt><trkpt lat="37.42871193905331" lon="14.379404595320045"><ele>803.0</ele><time>2026-05-03T09:54:09Z</time></trkpt><trkpt lat="37.428795171797994" lon="14.379316635017448"><ele>803.0</ele><time>2026-05-03T09:54:10Z</time></trkpt><trkpt lat="37.42887276441889" lon="14.379224126328124"><ele>803.0</ele><time>2026-05-03T09:54:11Z</time></trkpt><trkpt lat="37.428929858804715" lon="14.379140025724901"><ele>802.8</ele><time>2026-05-03T09:54:12Z</time></trkpt><trkpt lat="37.42898293307381" lon="14.379067873224596"><ele>802.5999999999999</ele><time>2026-05-03T09:54:13Z</time></trkpt><trkpt lat="37.42906438332945" lon="14.37898934725755"><ele>802.4000000000001</ele><time>2026-05-03T09:54:14Z</time></trkpt><trkpt lat="37.42914509278242" lon="14.378918257920443"><ele>802.2</ele><time>2026-05-03T09:54:15Z</time></trkpt><trkpt lat="37.42920710318058" lon="14.37883349936478"><ele>802.0</ele><time>2026-05-03T09:54:16Z</time></trkpt><trkpt lat="37.42926186611162" lon="14.378730695791692"><ele>801.9999999999999</ele><time>2026-05-03T09:54:17Z</time></trkpt><trkpt lat="37.42930875473501" lon="14.378630242294438"><ele>802.0</ele><time>2026-05-03T09:54:18Z</time></trkpt><trkpt lat="37.42936815579953" lon="14.378566721861114"><ele>802.0</ele><time>2026-05-03T09:54:19Z</time></trkpt><trkpt lat="37.42943922487959" lon="14.378513969991683"><ele>802.0</ele><time>2026-05-03T09:54:20Z</time></trkpt><trkpt lat="37.4294951305915" lon="14.37845120430355"><ele>801.9999999999999</ele><time>2026-05-03T09:54:21Z</time></trkpt><trkpt lat="37.429561149211246" lon="14.378412640604132"><ele>802.0</ele><time>2026-05-03T09:54:22Z</time></trkpt><trkpt lat="37.429632983032946" lon="14.378418016233118"><ele>802.8333333333333</ele><time>2026-05-03T09:54:23Z</time></trkpt><trkpt lat="37.429692803704654" lon="14.378453654112686"><ele>803.6666666666666</ele><time>2026-05-03T09:54:24Z</time></trkpt><trkpt lat="37.429742306846194" lon="14.378525167881218"><ele>804.5</ele><time>2026-05-03T09:54:25Z</time></trkpt><trkpt lat="37.42983012886853" lon="14.378493828345809"><ele>805.3333333333333</ele><time>2026-05-03T09:54:27Z</time></trkpt><trkpt lat="37.42984529277125" lon="14.378409111006977"><ele>806.1666666666666</ele><time>2026-05-03T09:54:28Z</time></trkpt><trkpt lat="37.42984098348009" lon="14.378295098641834"><ele>807.0</ele><time>2026-05-03T09:54:29Z</time></trkpt><trkpt lat="37.42980572579965" lon="14.378214102230684"><ele>807.0</ele><time>2026-05-03T09:54:30Z</time></trkpt><trkpt lat="37.42978607285214" lon="14.378115038334899"><ele>807.0</ele><time>2026-05-03T09:54:31Z</time></trkpt><trkpt lat="37.429832315430836" lon="14.378033430425395"><ele>807.0</ele><time>2026-05-03T09:54:32Z</time></trkpt><trkpt lat="37.429915801126285" lon="14.377899857023568"><ele>807.0</ele><time>2026-05-03T09:54:33Z</time></trkpt><trkpt lat="37.43002101333767" lon="14.377746142925083"><ele>805.0</ele><time>2026-05-03T09:54:34Z</time></trkpt><trkpt lat="37.43007542831378" lon="14.377639570939127"><ele>803.0</ele><time>2026-05-03T09:54:35Z</time></trkpt><trkpt lat="37.430121750507574" lon="14.377528777726601"><ele>801.0</ele><time>2026-05-03T09:54:36Z</time></trkpt><trkpt lat="37.43020590548083" lon="14.377399137597225"><ele>799.0</ele><time>2026-05-03T09:54:38Z</time></trkpt><trkpt lat="37.43019176607322" lon="14.377280528557614"><ele>797.0</ele><time>2026-05-03T09:54:39Z</time></trkpt><trkpt lat="37.43023121549047" lon="14.37716823073645"><ele>796.8333333333334</ele><time>2026-05-03T09:54:40Z</time></trkpt><trkpt lat="37.430249373426506" lon="14.377056813977164"><ele>796.6666666666667</ele><time>2026-05-03T09:54:41Z</time></trkpt><trkpt lat="37.430309847211554" lon="14.37696008682486"><ele>796.5</ele><time>2026-05-03T09:54:42Z</time></trkpt><trkpt lat="37.43034478089125" lon="14.376867062375258"><ele>796.3333333333333</ele><time>2026-05-03T09:54:43Z</time></trkpt><trkpt lat="37.43038250357235" lon="14.376802109753315"><ele>796.1666666666666</ele><time>2026-05-03T09:54:44Z</time></trkpt><trkpt lat="37.430463327256156" lon="14.376738317139035"><ele>796.0</ele><time>2026-05-03T09:54:47Z</time></trkpt><trkpt lat="37.43053699713124" lon="14.376669658777232"><ele>796.0</ele><time>2026-05-03T09:54:48Z</time></trkpt><trkpt lat="37.430573104417775" lon="14.376598910897975"><ele>796.0</ele><time>2026-05-03T09:54:49Z</time></trkpt><trkpt lat="37.43055069548921" lon="14.376470870350197"><ele>796.0</ele><time>2026-05-03T09:54:51Z</time></trkpt><trkpt lat="37.43062284324284" lon="14.376414896704578"><ele>796.0</ele><time>2026-05-03T09:54:53Z</time></trkpt><trkpt lat="37.43071780296394" lon="14.37638972486368"><ele>796.0</ele><time>2026-05-03T09:54:54Z</time></trkpt><trkpt lat="37.43081423265992" lon="14.376337965436976"><ele>794.6666666666666</ele><time>2026-05-03T09:54:55Z</time></trkpt><trkpt lat="37.43090411641308" lon="14.37630080073682"><ele>793.3333333333333</ele><time>2026-05-03T09:54:56Z</time></trkpt><trkpt lat="37.43095850103351" lon="14.376257906459056"><ele>792.0</ele><time>2026-05-03T09:54:57Z</time></trkpt><trkpt lat="37.430975113134025" lon="14.376166085117214"><ele>790.6666666666667</ele><time>2026-05-03T09:54:58Z</time></trkpt><trkpt lat="37.43105103179062" lon="14.376143860635814"><ele>789.3333333333334</ele><time>2026-05-03T09:54:59Z</time></trkpt><trkpt lat="37.43112003249899" lon="14.376110651424431"><ele>788.0</ele><time>2026-05-03T09:55:00Z</time></trkpt><trkpt lat="37.43117679846345" lon="14.375980207573123"><ele>788.0000000000001</ele><time>2026-05-03T09:55:02Z</time></trkpt><trkpt lat="37.43116838786824" lon="14.375881985928826"><ele>788.0</ele><time>2026-05-03T09:55:03Z</time></trkpt><trkpt lat="37.43114073347849" lon="14.375786051996984"><ele>788.0</ele><time>2026-05-03T09:55:04Z</time></trkpt><trkpt lat="37.431138156987934" lon="14.375677829195078"><ele>788.0</ele><time>2026-05-03T09:55:05Z</time></trkpt><trkpt lat="37.431145251007" lon="14.375573401931685"><ele>788.0000000000001</ele><time>2026-05-03T09:55:06Z</time></trkpt><trkpt lat="37.43116008921682" lon="14.375495268798218"><ele>788.0</ele><time>2026-05-03T09:55:07Z</time></trkpt><trkpt lat="37.431207552700585" lon="14.375439206904822"><ele>786.8</ele><time>2026-05-03T09:55:08Z</time></trkpt><trkpt lat="37.43127306806827" lon="14.375472655255413"><ele>785.5999999999999</ele><time>2026-05-03T09:55:10Z</time></trkpt><trkpt lat="37.431348366675294" lon="14.375312669115033"><ele>784.4000000000001</ele><time>2026-05-03T09:55:12Z</time></trkpt><trkpt lat="37.43138572365857" lon="14.37519209171121"><ele>783.2</ele><time>2026-05-03T09:55:13Z</time></trkpt><trkpt lat="37.43147534535306" lon="14.375157936455397"><ele>782.0</ele><time>2026-05-03T09:55:15Z</time></trkpt><trkpt lat="37.431559695686786" lon="14.375123649624708"><ele>782.0</ele><time>2026-05-03T09:55:16Z</time></trkpt><trkpt lat="37.43161684272233" lon="14.375050786787392"><ele>782.0</ele><time>2026-05-03T09:55:17Z</time></trkpt><trkpt lat="37.4316670500596" lon="14.374970442481583"><ele>782.0</ele><time>2026-05-03T09:55:19Z</time></trkpt><trkpt lat="37.43172475617187" lon="14.375013073548232"><ele>782.0</ele><time>2026-05-03T09:55:20Z</time></trkpt><trkpt lat="37.431832049115094" lon="14.375024413840146"><ele>782.0</ele><time>2026-05-03T09:55:21Z</time></trkpt><trkpt lat="37.43196353178937" lon="14.375013964125673"><ele>782.0</ele><time>2026-05-03T09:55:22Z</time></trkpt><trkpt lat="37.43208149589301" lon="14.375004487714579"><ele>782.0</ele><time>2026-05-03T09:55:23Z</time></trkpt><trkpt lat="37.432210264419844" lon="14.375002475907158"><ele>782.0</ele><time>2026-05-03T09:55:24Z</time></trkpt><trkpt lat="37.432321467038925" lon="14.374996753774605"><ele>782.0</ele><time>2026-05-03T09:55:25Z</time></trkpt><trkpt lat="37.4324107897878" lon="14.374982596257496"><ele>782.0</ele><time>2026-05-03T09:55:26Z</time></trkpt><trkpt lat="37.4324895307839" lon="14.374975341195885"><ele>783.6</ele><time>2026-05-03T09:55:27Z</time></trkpt><trkpt lat="37.43256200245254" lon="14.37498428918787"><ele>785.2</ele><time>2026-05-03T09:55:28Z</time></trkpt><trkpt lat="37.43263944103694" lon="14.374984099135695"><ele>786.8</ele><time>2026-05-03T09:55:29Z</time></trkpt><trkpt lat="37.43273821459361" lon="14.374973267892527"><ele>788.4</ele><time>2026-05-03T09:55:30Z</time></trkpt><trkpt lat="37.432852341985416" lon="14.374960047842308"><ele>790.0</ele><time>2026-05-03T09:55:31Z</time></trkpt><trkpt lat="37.43296479709739" lon="14.374954231794018"><ele>791.2</ele><time>2026-05-03T09:55:32Z</time></trkpt><trkpt lat="37.43307512824865" lon="14.374952045810028"><ele>792.4</ele><time>2026-05-03T09:55:33Z</time></trkpt><trkpt lat="37.43314233176384" lon="14.375015966847393"><ele>793.5999999999999</ele><time>2026-05-03T09:55:36Z</time></trkpt><trkpt lat="37.43317181935213" lon="14.375101063713808"><ele>794.8</ele><time>2026-05-03T09:55:38Z</time></trkpt><trkpt lat="37.43324227763128" lon="14.375217256699278"><ele>796.0</ele><time>2026-05-03T09:55:41Z</time></trkpt><trkpt lat="37.43330687899714" lon="14.375316841218845"><ele>796.0</ele><time>2026-05-03T09:55:43Z</time></trkpt><trkpt lat="37.43329682595756" lon="14.375398762518799"><ele>796.0</ele><time>2026-05-03T09:55:47Z</time></trkpt><trkpt lat="37.433213050493215" lon="14.375491221704191"><ele>796.0</ele><time>2026-05-03T09:55:52Z</time></trkpt><trkpt lat="37.43314749281831" lon="14.375597912640167"><ele>796.0</ele><time>2026-05-03T09:55:54Z</time></trkpt><trkpt lat="37.433129789327126" lon="14.375750343080101"><ele>796.0</ele><time>2026-05-03T09:55:56Z</time></trkpt><trkpt lat="37.43310816417409" lon="14.375904026309996"><ele>798.1666666666666</ele><time>2026-05-03T09:55:58Z</time></trkpt><trkpt lat="37.43309324103084" lon="14.375983761571392"><ele>800.3333333333333</ele><time>2026-05-03T09:55:59Z</time></trkpt><trkpt lat="37.433072574870934" lon="14.376059518892692"><ele>802.5</ele><time>2026-05-03T09:56:00Z</time></trkpt><trkpt lat="37.433050589449515" lon="14.3761851249581"><ele>804.6666666666667</ele><time>2026-05-03T09:56:02Z</time></trkpt><trkpt lat="37.4330467040647" lon="14.3763348662577"><ele>806.8333333333334</ele><time>2026-05-03T09:56:04Z</time></trkpt><trkpt lat="37.43299207759942" lon="14.376439398219242"><ele>809.0</ele><time>2026-05-03T09:56:06Z</time></trkpt><trkpt lat="37.432949903555695" lon="14.37653194221223"><ele>810.8333333333334</ele><time>2026-05-03T09:56:09Z</time></trkpt><trkpt lat="37.43300956360332" lon="14.376621565207776"><ele>812.6666666666667</ele><time>2026-05-03T09:56:12Z</time></trkpt><trkpt lat="37.43308572313075" lon="14.376679727028906"><ele>814.5</ele><time>2026-05-03T09:56:14Z</time></trkpt><trkpt lat="37.43312255730633" lon="14.376782268913487"><ele>816.3333333333333</ele><time>2026-05-03T09:56:20Z</time></trkpt><trkpt lat="37.43319930414793" lon="14.376803072056704"><ele>818.1666666666666</ele><time>2026-05-03T09:56:23Z</time></trkpt><trkpt lat="37.43328720478365" lon="14.37679802878457"><ele>820.0</ele><time>2026-05-03T09:56:25Z</time></trkpt><trkpt lat="37.43338776000637" lon="14.376782156812707"><ele>819.9999999999999</ele><time>2026-05-03T09:56:27Z</time></trkpt><trkpt lat="37.43350547796839" lon="14.376785256473148"><ele>820.0</ele><time>2026-05-03T09:56:29Z</time></trkpt><trkpt lat="37.43358063114199" lon="14.376740305049989"><ele>820.0</ele><time>2026-05-03T09:56:31Z</time></trkpt><trkpt lat="37.43366091421177" lon="14.376807546494314"><ele>820.0</ele><time>2026-05-03T09:56:47Z</time></trkpt><trkpt lat="37.43371504191423" lon="14.376869841987679"><ele>819.9999999999999</ele><time>2026-05-03T09:56:48Z</time></trkpt><trkpt lat="37.433781559477666" lon="14.376921019374311"><ele>820.0</ele><time>2026-05-03T09:56:49Z</time></trkpt><trkpt lat="37.43388227668668" lon="14.376967517134744"><ele>820.8333333333333</ele><time>2026-05-03T09:56:50Z</time></trkpt><trkpt lat="37.43396126516158" lon="14.37700849724771"><ele>821.6666666666666</ele><time>2026-05-03T09:56:51Z</time></trkpt><trkpt lat="37.43405402762671" lon="14.377071146952463"><ele>822.5</ele><time>2026-05-03T09:56:53Z</time></trkpt><trkpt lat="37.4341146453947" lon="14.37709782763732"><ele>823.3333333333333</ele><time>2026-05-03T09:56:55Z</time></trkpt><trkpt lat="37.43418094659799" lon="14.377043302549442"><ele>824.1666666666666</ele><time>2026-05-03T09:56:57Z</time></trkpt><trkpt lat="37.43423756193801" lon="14.376975794643531"><ele>825.0</ele><time>2026-05-03T09:56:59Z</time></trkpt><trkpt lat="37.43426945745946" lon="14.377054955958025"><ele>825.0</ele><time>2026-05-03T09:57:02Z</time></trkpt><trkpt lat="37.43425417506839" lon="14.37715188558177"><ele>825.0</ele><time>2026-05-03T09:57:04Z</time></trkpt><trkpt lat="37.43430638801753" lon="14.377231676906424"><ele>825.0</ele><time>2026-05-03T09:57:06Z</time></trkpt><trkpt lat="37.43438964402197" lon="14.37725950429928"><ele>825.0</ele><time>2026-05-03T09:57:07Z</time></trkpt><trkpt lat="37.43448421933195" lon="14.377310770875987"><ele>825.0</ele><time>2026-05-03T09:57:08Z</time></trkpt><trkpt lat="37.43458647951384" lon="14.377371519960054"><ele>826.1666666666666</ele><time>2026-05-03T09:57:09Z</time></trkpt><trkpt lat="37.43466224304212" lon="14.377434519760472"><ele>827.3333333333333</ele><time>2026-05-03T09:57:10Z</time></trkpt><trkpt lat="37.4347186295901" lon="14.377489711604397"><ele>828.5</ele><time>2026-05-03T09:57:11Z</time></trkpt><trkpt lat="37.434784727996316" lon="14.377525041607788"><ele>829.6666666666666</ele><time>2026-05-03T09:57:12Z</time></trkpt><trkpt lat="37.43489933365466" lon="14.377454346253629"><ele>830.8333333333333</ele><time>2026-05-03T09:57:14Z</time></trkpt><trkpt lat="37.43495012977282" lon="14.377370055721537"><ele>832.0</ele><time>2026-05-03T09:57:15Z</time></trkpt><trkpt lat="37.434967399964734" lon="14.377287693838545"><ele>832.0</ele><time>2026-05-03T09:57:16Z</time></trkpt><trkpt lat="37.43506567995918" lon="14.37727993762219"><ele>832.0</ele><time>2026-05-03T09:57:18Z</time></trkpt><trkpt lat="37.43508230946712" lon="14.37743088766909"><ele>832.0</ele><time>2026-05-03T09:57:20Z</time></trkpt><trkpt lat="37.435053960859484" lon="14.377509481066584"><ele>832.0</ele><time>2026-05-03T09:57:21Z</time></trkpt><trkpt lat="37.435065869756315" lon="14.377650917244399"><ele>832.0</ele><time>2026-05-03T09:57:23Z</time></trkpt><trkpt lat="37.43503956577441" lon="14.377747792036157"><ele>831.9999999999999</ele><time>2026-05-03T09:57:24Z</time></trkpt><trkpt lat="37.43504715183543" lon="14.377844590527394"><ele>832.0</ele><time>2026-05-03T09:57:25Z</time></trkpt><trkpt lat="37.435055771533726" lon="14.377932548125935"><ele>832.0</ele><time>2026-05-03T09:57:26Z</time></trkpt><trkpt lat="37.43505196578862" lon="14.378061246613846"><ele>832.0</ele><time>2026-05-03T09:57:28Z</time></trkpt><trkpt lat="37.435072481260875" lon="14.378185355599173"><ele>831.9999999999999</ele><time>2026-05-03T09:57:30Z</time></trkpt><trkpt lat="37.43507262386046" lon="14.378272006150969"><ele>832.0</ele><time>2026-05-03T09:57:32Z</time></trkpt><trkpt lat="37.43507089425389" lon="14.378380455350758"><ele>833.4999999999999</ele><time>2026-05-03T09:57:34Z</time></trkpt><trkpt lat="37.43508498184096" lon="14.378474809902649"><ele>835.0</ele><time>2026-05-03T09:57:35Z</time></trkpt><trkpt lat="37.43509342902694" lon="14.378572513441757"><ele>836.5</ele><time>2026-05-03T09:57:36Z</time></trkpt><trkpt lat="37.43510911006853" lon="14.378683470129468"><ele>838.0</ele><time>2026-05-03T09:57:37Z</time></trkpt><trkpt lat="37.43513001814691" lon="14.378767184579702"><ele>839.4999999999999</ele><time>2026-05-03T09:57:38Z</time></trkpt><trkpt lat="37.435142674695086" lon="14.378864087249694"><ele>841.0</ele><time>2026-05-03T09:57:39Z</time></trkpt><trkpt lat="37.435170814672986" lon="14.378964459485543"><ele>843.8</ele><time>2026-05-03T09:57:41Z</time></trkpt><trkpt lat="37.43511673275281" lon="14.379091604146078"><ele>846.5999999999999</ele><time>2026-05-03T09:57:43Z</time></trkpt><trkpt lat="37.435096522008365" lon="14.379185850340773"><ele>849.4</ele><time>2026-05-03T09:57:44Z</time></trkpt><trkpt lat="37.43511106736522" lon="14.379306084820024"><ele>852.2</ele><time>2026-05-03T09:57:46Z</time></trkpt><trkpt lat="37.4351868363936" lon="14.379227531225062"><ele>855.0</ele><time>2026-05-03T09:57:48Z</time></trkpt><trkpt lat="37.43522860483415" lon="14.379122968197642"><ele>855.0</ele><time>2026-05-03T09:57:49Z</time></trkpt><trkpt lat="37.43531251553906" lon="14.378977052677826"><ele>855.0</ele><time>2026-05-03T09:57:51Z</time></trkpt><trkpt lat="37.435352935653945" lon="14.378883189897019"><ele>855.0</ele><time>2026-05-03T09:57:52Z</time></trkpt><trkpt lat="37.43541235616527" lon="14.378802454020866"><ele>855.0</ele><time>2026-05-03T09:57:53Z</time></trkpt><trkpt lat="37.435468198865976" lon="14.378718617345184"><ele>855.0</ele><time>2026-05-03T09:57:54Z</time></trkpt><trkpt lat="37.4355346838211" lon="14.378643350801225"><ele>855.4</ele><time>2026-05-03T09:57:55Z</time></trkpt><trkpt lat="37.43559192199759" lon="14.378571799200918"><ele>855.8</ele><time>2026-05-03T09:57:56Z</time></trkpt><trkpt lat="37.43566459540597" lon="14.378451729960616"><ele>856.2</ele><time>2026-05-03T09:57:58Z</time></trkpt><trkpt lat="37.4357145162039" lon="14.378350554622592"><ele>856.6</ele><time>2026-05-03T09:57:59Z</time></trkpt><trkpt lat="37.43576405572971" lon="14.378252317842803"><ele>857.0</ele><time>2026-05-03T09:58:00Z</time></trkpt><trkpt lat="37.435811944180955" lon="14.37815475417553"><ele>857.0</ele><time>2026-05-03T09:58:01Z</time></trkpt><trkpt lat="37.43587272882702" lon="14.378059952595509"><ele>857.0</ele><time>2026-05-03T09:58:02Z</time></trkpt><trkpt lat="37.435934662920296" lon="14.377982761128827"><ele>857.0</ele><time>2026-05-03T09:58:03Z</time></trkpt><trkpt lat="37.43600760781172" lon="14.377928396189594"><ele>857.0</ele><time>2026-05-03T09:58:04Z</time></trkpt><trkpt lat="37.43608426889754" lon="14.377867467982481"><ele>857.0</ele><time>2026-05-03T09:58:05Z</time></trkpt><trkpt lat="37.43615428681852" lon="14.377781982348527"><ele>855.5000000000001</ele><time>2026-05-03T09:58:06Z</time></trkpt><trkpt lat="37.43621409700335" lon="14.37770032680093"><ele>854.0</ele><time>2026-05-03T09:58:07Z</time></trkpt><trkpt lat="37.43627481650981" lon="14.377612794219154"><ele>852.5</ele><time>2026-05-03T09:58:08Z</time></trkpt><trkpt lat="37.43632484036896" lon="14.377529775715885"><ele>851.0</ele><time>2026-05-03T09:58:09Z</time></trkpt><trkpt lat="37.436392948148985" lon="14.377448395166843"><ele>849.5000000000001</ele><time>2026-05-03T09:58:11Z</time></trkpt><trkpt lat="37.43644467440867" lon="14.37739767726849"><ele>848.0</ele><time>2026-05-03T09:58:12Z</time></trkpt><trkpt lat="37.436536978020825" lon="14.377454198704392"><ele>851.5999999999999</ele><time>2026-05-03T09:58:14Z</time></trkpt><trkpt lat="37.43659241067131" lon="14.377507628938835"><ele>855.1999999999999</ele><time>2026-05-03T09:58:15Z</time></trkpt><trkpt lat="37.43659534012594" lon="14.37762303699788"><ele>858.8</ele><time>2026-05-03T09:58:17Z</time></trkpt><trkpt lat="37.43662694097441" lon="14.377698943204457"><ele>862.4</ele><time>2026-05-03T09:58:18Z</time></trkpt><trkpt lat="37.43664389040131" lon="14.377837335517428"><ele>866.0</ele><time>2026-05-03T09:58:20Z</time></trkpt><trkpt lat="37.436638523382726" lon="14.377984452456486"><ele>866.5999999999999</ele><time>2026-05-03T09:58:22Z</time></trkpt><trkpt lat="37.436610336627204" lon="14.378130004763516"><ele>867.1999999999999</ele><time>2026-05-03T09:58:24Z</time></trkpt><trkpt lat="37.43657138116195" lon="14.37827253718709"><ele>867.8000000000001</ele><time>2026-05-03T09:58:26Z</time></trkpt><trkpt lat="37.43657494455559" lon="14.378400843711763"><ele>868.4000000000001</ele><time>2026-05-03T09:58:28Z</time></trkpt><trkpt lat="37.436558007572444" lon="14.378478223841197"><ele>869.0</ele><time>2026-05-03T09:58:29Z</time></trkpt><trkpt lat="37.43651921146621" lon="14.3786428094428"><ele>869.0</ele><time>2026-05-03T09:58:31Z</time></trkpt><trkpt lat="37.4365002283352" lon="14.378735944673684"><ele>869.0000000000001</ele><time>2026-05-03T09:58:32Z</time></trkpt><trkpt lat="37.43646114683139" lon="14.378834550019997"><ele>869.0000000000001</ele><time>2026-05-03T09:58:33Z</time></trkpt><trkpt lat="37.43642381681036" lon="14.378952592899125"><ele>869.0</ele><time>2026-05-03T09:58:34Z</time></trkpt><trkpt lat="37.436398767680664" lon="14.379081397948763"><ele>869.0</ele><time>2026-05-03T09:58:35Z</time></trkpt><trkpt lat="37.436382365596714" lon="14.379232959221222"><ele>869.8000000000001</ele><time>2026-05-03T09:58:36Z</time></trkpt><trkpt lat="37.43638310025557" lon="14.379355225045837"><ele>870.6000000000001</ele><time>2026-05-03T09:58:37Z</time></trkpt><trkpt lat="37.43636473221404" lon="14.379504219835548"><ele>871.4</ele><time>2026-05-03T09:58:38Z</time></trkpt><trkpt lat="37.43634371266318" lon="14.379652313666087"><ele>872.2</ele><time>2026-05-03T09:58:39Z</time></trkpt><trkpt lat="37.4363389094538" lon="14.379769923139259"><ele>873.0</ele><time>2026-05-03T09:58:40Z</time></trkpt><trkpt lat="37.436334666354576" lon="14.379866455084585"><ele>873.0</ele><time>2026-05-03T09:58:41Z</time></trkpt><trkpt lat="37.43634528094906" lon="14.379990195001017"><ele>873.0</ele><time>2026-05-03T09:58:42Z</time></trkpt><trkpt lat="37.43635990482625" lon="14.380087931783063"><ele>873.0</ele><time>2026-05-03T09:58:43Z</time></trkpt><trkpt lat="37.43641190362218" lon="14.38019045654146"><ele>873.0</ele><time>2026-05-03T09:58:44Z</time></trkpt><trkpt lat="37.43646585281711" lon="14.380318404705644"><ele>873.0</ele><time>2026-05-03T09:58:45Z</time></trkpt><trkpt lat="37.43650976866306" lon="14.380474158042675"><ele>872.4</ele><time>2026-05-03T09:58:46Z</time></trkpt><trkpt lat="37.43653730189172" lon="14.38061958280713"><ele>871.8</ele><time>2026-05-03T09:58:47Z</time></trkpt><trkpt lat="37.43656458852197" lon="14.3807509686835"><ele>871.2</ele><time>2026-05-03T09:58:48Z</time></trkpt><trkpt lat="37.43659857799669" lon="14.380864244876634"><ele>870.6</ele><time>2026-05-03T09:58:49Z</time></trkpt><trkpt lat="37.43662047627227" lon="14.380952264624963"><ele>870.0</ele><time>2026-05-03T09:58:50Z</time></trkpt><trkpt lat="37.43661099427453" lon="14.38103133687123"><ele>870.0</ele><time>2026-05-03T09:58:51Z</time></trkpt><trkpt lat="37.4366323080871" lon="14.381153527981176"><ele>870.0</ele><time>2026-05-03T09:58:53Z</time></trkpt><trkpt lat="37.43667730681062" lon="14.381280163636275"><ele>870.0</ele><time>2026-05-03T09:58:55Z</time></trkpt><trkpt lat="37.436715531854745" lon="14.381374505876128"><ele>870.0</ele><time>2026-05-03T09:58:56Z</time></trkpt><trkpt lat="37.4367699874708" lon="14.381501649635293"><ele>870.0</ele><time>2026-05-03T09:58:57Z</time></trkpt><trkpt lat="37.436813123841524" lon="14.381621817840175"><ele>869.6666666666666</ele><time>2026-05-03T09:58:58Z</time></trkpt><trkpt lat="37.4368491086867" lon="14.381744227458684"><ele>869.3333333333333</ele><time>2026-05-03T09:58:59Z</time></trkpt><trkpt lat="37.43687431943555" lon="14.38184451763143"><ele>869.0</ele><time>2026-05-03T09:59:00Z</time></trkpt><trkpt lat="37.4369017181769" lon="14.38194816681157"><ele>868.6666666666666</ele><time>2026-05-03T09:59:01Z</time></trkpt><trkpt lat="37.43692359074797" lon="14.382050689571294"><ele>868.3333333333333</ele><time>2026-05-03T09:59:02Z</time></trkpt><trkpt lat="37.436944738477514" lon="14.38213012581489"><ele>868.0</ele><time>2026-05-03T09:59:03Z</time></trkpt><trkpt lat="37.43702287833115" lon="14.382221838713798"><ele>867.4</ele><time>2026-05-03T09:59:05Z</time></trkpt><trkpt lat="37.43708316334413" lon="14.382246398157058"><ele>866.8</ele><time>2026-05-03T09:59:06Z</time></trkpt><trkpt lat="37.43715325098663" lon="14.382327604967617"><ele>866.2</ele><time>2026-05-03T09:59:07Z</time></trkpt><trkpt lat="37.43720809428928" lon="14.382430019530956"><ele>865.6</ele><time>2026-05-03T09:59:08Z</time></trkpt><trkpt lat="37.437267498510145" lon="14.38253281441942"><ele>865.0</ele><time>2026-05-03T09:59:09Z</time></trkpt><trkpt lat="37.43735392271725" lon="14.382625028259973"><ele>865.0</ele><time>2026-05-03T09:59:10Z</time></trkpt><trkpt lat="37.43744404066158" lon="14.382720074149182"><ele>865.0</ele><time>2026-05-03T09:59:11Z</time></trkpt><trkpt lat="37.4375150627213" lon="14.382828466746245"><ele>865.0</ele><time>2026-05-03T09:59:12Z</time></trkpt><trkpt lat="37.43756145810573" lon="14.382918867040088"><ele>865.0</ele><time>2026-05-03T09:59:13Z</time></trkpt><trkpt lat="37.437587171869815" lon="14.383012391641673"><ele>865.0</ele><time>2026-05-03T09:59:14Z</time></trkpt><trkpt lat="37.4376325442403" lon="14.383098588239022"><ele>864.8333333333333</ele><time>2026-05-03T09:59:15Z</time></trkpt><trkpt lat="37.43768206187878" lon="14.38318363039539"><ele>864.6666666666666</ele><time>2026-05-03T09:59:16Z</time></trkpt><trkpt lat="37.437736811538905" lon="14.38325285029819"><ele>864.5</ele><time>2026-05-03T09:59:17Z</time></trkpt><trkpt lat="37.437796708828344" lon="14.38331216518808"><ele>864.3333333333333</ele><time>2026-05-03T09:59:18Z</time></trkpt><trkpt lat="37.437855027949084" lon="14.383380650317246"><ele>864.1666666666666</ele><time>2026-05-03T09:59:19Z</time></trkpt><trkpt lat="37.43792166229472" lon="14.383400775199481"><ele>864.0</ele><time>2026-05-03T09:59:20Z</time></trkpt><trkpt lat="37.43799705945307" lon="14.383414539677542"><ele>864.0</ele><time>2026-05-03T09:59:21Z</time></trkpt><trkpt lat="37.438082772810255" lon="14.383435214262382"><ele>864.0</ele><time>2026-05-03T09:59:22Z</time></trkpt><trkpt lat="37.438167130290914" lon="14.383466938125082"><ele>864.0</ele><time>2026-05-03T09:59:23Z</time></trkpt><trkpt lat="37.43823768201374" lon="14.383538396522761"><ele>864.0</ele><time>2026-05-03T09:59:24Z</time></trkpt><trkpt lat="37.43830400922634" lon="14.383629611783698"><ele>864.0</ele><time>2026-05-03T09:59:25Z</time></trkpt><trkpt lat="37.43837855824969" lon="14.383666785546618"><ele>864.0</ele><time>2026-05-03T09:59:26Z</time></trkpt><trkpt lat="37.438444560301434" lon="14.383695084406916"><ele>864.0</ele><time>2026-05-03T09:59:27Z</time></trkpt><trkpt lat="37.43855912513643" lon="14.383763776572943"><ele>864.0000000000001</ele><time>2026-05-03T09:59:29Z</time></trkpt><trkpt lat="37.4386198211946" lon="14.383797709750192"><ele>864.0000000000001</ele><time>2026-05-03T09:59:30Z</time></trkpt><trkpt lat="37.43866486363451" lon="14.383870962466853"><ele>864.0</ele><time>2026-05-03T09:59:31Z</time></trkpt><trkpt lat="37.438735292852236" lon="14.383981914756415"><ele>864.0</ele><time>2026-05-03T09:59:32Z</time></trkpt><trkpt lat="37.438817362701094" lon="14.384087956885777"><ele>862.5</ele><time>2026-05-03T09:59:33Z</time></trkpt><trkpt lat="37.438917263821594" lon="14.384203919054613"><ele>861.0</ele><time>2026-05-03T09:59:34Z</time></trkpt><trkpt lat="37.4390257914215" lon="14.384286740001603"><ele>859.5</ele><time>2026-05-03T09:59:35Z</time></trkpt><trkpt lat="37.439129026531226" lon="14.384362979241718"><ele>858.0</ele><time>2026-05-03T09:59:36Z</time></trkpt><trkpt lat="37.439225784377335" lon="14.38442482913161"><ele>858.0</ele><time>2026-05-03T09:59:37Z</time></trkpt><trkpt lat="37.439323568363136" lon="14.384487794299941"><ele>858.0</ele><time>2026-05-03T09:59:38Z</time></trkpt><trkpt lat="37.43944591771866" lon="14.384565728535781"><ele>858.0</ele><time>2026-05-03T09:59:39Z</time></trkpt><trkpt lat="37.43956741651266" lon="14.384648987614861"><ele>858.0</ele><time>2026-05-03T09:59:40Z</time></trkpt><trkpt lat="37.439658989793124" lon="14.384748165641922"><ele>857.75</ele><time>2026-05-03T09:59:41Z</time></trkpt><trkpt lat="37.43976764623579" lon="14.384829566344251"><ele>857.5</ele><time>2026-05-03T09:59:42Z</time></trkpt><trkpt lat="37.43989588737841" lon="14.384894433157989"><ele>857.25</ele><time>2026-05-03T09:59:43Z</time></trkpt><trkpt lat="37.440036359293025" lon="14.38494090674755"><ele>857.0</ele><time>2026-05-03T09:59:44Z</time></trkpt><trkpt lat="37.440147720593416" lon="14.384981043484729"><ele>857.0</ele><time>2026-05-03T09:59:45Z</time></trkpt><trkpt lat="37.44025214996043" lon="14.384997475131934"><ele>857.0</ele><time>2026-05-03T09:59:46Z</time></trkpt><trkpt lat="37.440336448221316" lon="14.385045640345213"><ele>857.0</ele><time>2026-05-03T09:59:47Z</time></trkpt><trkpt lat="37.44043665362967" lon="14.385149143720115"><ele>857.0</ele><time>2026-05-03T09:59:48Z</time></trkpt><trkpt lat="37.440570560551585" lon="14.38526501272219"><ele>855.3333333333334</ele><time>2026-05-03T09:59:49Z</time></trkpt><trkpt lat="37.44072626272356" lon="14.385362142518755"><ele>853.6666666666667</ele><time>2026-05-03T09:59:50Z</time></trkpt><trkpt lat="37.44086413412557" lon="14.385476179192766"><ele>852.0</ele><time>2026-05-03T09:59:51Z</time></trkpt><trkpt lat="37.44098069114236" lon="14.385570880004124"><ele>851.4000000000001</ele><time>2026-05-03T09:59:52Z</time></trkpt><trkpt lat="37.44108476336736" lon="14.385677770228147"><ele>850.8000000000001</ele><time>2026-05-03T09:59:53Z</time></trkpt><trkpt lat="37.441175935622944" lon="14.3857688403505"><ele>850.2</ele><time>2026-05-03T09:59:54Z</time></trkpt><trkpt lat="37.44126549336982" lon="14.385829895999315"><ele>849.6</ele><time>2026-05-03T09:59:55Z</time></trkpt><trkpt lat="37.44132896019817" lon="14.385867389683126"><ele>849.0</ele><time>2026-05-03T09:59:56Z</time></trkpt><trkpt lat="37.44139751928608" lon="14.385899796475096"><ele>848.8333333333334</ele><time>2026-05-03T09:59:57Z</time></trkpt><trkpt lat="37.44146959718999" lon="14.385915024669337"><ele>848.6666666666667</ele><time>2026-05-03T09:59:58Z</time></trkpt><trkpt lat="37.44153613350613" lon="14.385950516642511"><ele>848.5</ele><time>2026-05-03T09:59:59Z</time></trkpt><trkpt lat="37.441592393125816" lon="14.385999049706449"><ele>848.3333333333334</ele><time>2026-05-03T10:00:00Z</time></trkpt><trkpt lat="37.441643424215336" lon="14.386063062035017"><ele>848.1666666666667</ele><time>2026-05-03T10:00:01Z</time></trkpt><trkpt lat="37.44175222772944" lon="14.386140487459924"><ele>848.0</ele><time>2026-05-03T10:00:03Z</time></trkpt><trkpt lat="37.4417945060232" lon="14.386219449340137"><ele>848.0000000000001</ele><time>2026-05-03T10:00:04Z</time></trkpt><trkpt lat="37.441852860522125" lon="14.386280586709015"><ele>848.0</ele><time>2026-05-03T10:00:05Z</time></trkpt><trkpt lat="37.44193870818089" lon="14.386322406408002"><ele>848.0</ele><time>2026-05-03T10:00:06Z</time></trkpt><trkpt lat="37.44200506077426" lon="14.386341095204976"><ele>848.0</ele><time>2026-05-03T10:00:07Z</time></trkpt><trkpt lat="37.442076685221615" lon="14.386401875401743"><ele>848.0000000000001</ele><time>2026-05-03T10:00:08Z</time></trkpt><trkpt lat="37.44214108646012" lon="14.386449923963132"><ele>848.0</ele><time>2026-05-03T10:00:09Z</time></trkpt><trkpt lat="37.44223512955776" lon="14.386509486825336"><ele>847.1666666666667</ele><time>2026-05-03T10:00:11Z</time></trkpt><trkpt lat="37.44229601931351" lon="14.386532398319998"><ele>846.3333333333334</ele><time>2026-05-03T10:00:12Z</time></trkpt><trkpt lat="37.442390114499325" lon="14.38655065809651"><ele>845.5</ele><time>2026-05-03T10:00:14Z</time></trkpt><trkpt lat="37.44246058074751" lon="14.386602726355303"><ele>844.6666666666667</ele><time>2026-05-03T10:00:15Z</time></trkpt><trkpt lat="37.442520248137804" lon="14.386654837268717"><ele>843.8333333333334</ele><time>2026-05-03T10:00:16Z</time></trkpt><trkpt lat="37.4425631493193" lon="14.386720681965073"><ele>843.0</ele><time>2026-05-03T10:00:17Z</time></trkpt><trkpt lat="37.4426285391363" lon="14.386795627582234"><ele>843.0</ele><time>2026-05-03T10:00:18Z</time></trkpt><trkpt lat="37.44272672337749" lon="14.386851852834777"><ele>843.0</ele><time>2026-05-03T10:00:19Z</time></trkpt><trkpt lat="37.442814314752205" lon="14.38690818277487"><ele>843.0</ele><time>2026-05-03T10:00:20Z</time></trkpt><trkpt lat="37.44291201021327" lon="14.387005645783258"><ele>843.0</ele><time>2026-05-03T10:00:21Z</time></trkpt><trkpt lat="37.44300553692896" lon="14.387113745657059"><ele>841.5</ele><time>2026-05-03T10:00:22Z</time></trkpt><trkpt lat="37.44310786390639" lon="14.387213503332378"><ele>840.0</ele><time>2026-05-03T10:00:23Z</time></trkpt><trkpt lat="37.443213203762895" lon="14.387281488097267"><ele>838.5</ele><time>2026-05-03T10:00:24Z</time></trkpt><trkpt lat="37.44330874397796" lon="14.387355034729088"><ele>837.0</ele><time>2026-05-03T10:00:25Z</time></trkpt><trkpt lat="37.44338785140197" lon="14.387431771118914"><ele>837.0</ele><time>2026-05-03T10:00:26Z</time></trkpt><trkpt lat="37.443455341575536" lon="14.387485777110262"><ele>837.0</ele><time>2026-05-03T10:00:27Z</time></trkpt><trkpt lat="37.44351888933224" lon="14.387537619802456"><ele>837.0</ele><time>2026-05-03T10:00:28Z</time></trkpt><trkpt lat="37.44359545464764" lon="14.387588964113233"><ele>837.0</ele><time>2026-05-03T10:00:29Z</time></trkpt><trkpt lat="37.44367251570431" lon="14.387653727319197"><ele>837.0</ele><time>2026-05-03T10:00:30Z</time></trkpt><trkpt lat="37.44375224697361" lon="14.387712617291992"><ele>837.0</ele><time>2026-05-03T10:00:31Z</time></trkpt><trkpt lat="37.44382134401027" lon="14.387756692054971"><ele>837.6666666666666</ele><time>2026-05-03T10:00:32Z</time></trkpt><trkpt lat="37.44387444778921" lon="14.387803970325114"><ele>838.3333333333333</ele><time>2026-05-03T10:00:33Z</time></trkpt><trkpt lat="37.4439366734562" lon="14.38783249544329"><ele>839.0</ele><time>2026-05-03T10:00:34Z</time></trkpt><trkpt lat="37.44400219040151" lon="14.387882999478306"><ele>839.6666666666666</ele><time>2026-05-03T10:00:35Z</time></trkpt><trkpt lat="37.444076853441196" lon="14.387938171131523"><ele>840.3333333333333</ele><time>2026-05-03T10:00:36Z</time></trkpt><trkpt lat="37.44415463017646" lon="14.387990330393956"><ele>841.0</ele><time>2026-05-03T10:00:37Z</time></trkpt><trkpt lat="37.44422144778668" lon="14.388036706262287"><ele>841.4999999999999</ele><time>2026-05-03T10:00:38Z</time></trkpt><trkpt lat="37.4443098846163" lon="14.38808234694056"><ele>842.0</ele><time>2026-05-03T10:00:40Z</time></trkpt><trkpt lat="37.44437618393301" lon="14.388061503579207"><ele>842.5</ele><time>2026-05-03T10:00:42Z</time></trkpt><trkpt lat="37.44444101351733" lon="14.388075702072337"><ele>843.0</ele><time>2026-05-03T10:00:44Z</time></trkpt><trkpt lat="37.44448246404538" lon="14.38814830804653"><ele>843.4999999999999</ele><time>2026-05-03T10:00:45Z</time></trkpt><trkpt lat="37.444525605194585" lon="14.388226398524733"><ele>844.0</ele><time>2026-05-03T10:00:46Z</time></trkpt><trkpt lat="37.44458465761219" lon="14.388301226797022"><ele>845.8000000000001</ele><time>2026-05-03T10:00:47Z</time></trkpt><trkpt lat="37.44465569526203" lon="14.388368197591173"><ele>847.6</ele><time>2026-05-03T10:00:48Z</time></trkpt><trkpt lat="37.444730486328" lon="14.38842515005263"><ele>849.4</ele><time>2026-05-03T10:00:49Z</time></trkpt><trkpt lat="37.444802350788905" lon="14.388478300790776"><ele>851.2</ele><time>2026-05-03T10:00:50Z</time></trkpt><trkpt lat="37.44486222692564" lon="14.388513662018532"><ele>853.0</ele><time>2026-05-03T10:00:51Z</time></trkpt><trkpt lat="37.44497117356962" lon="14.388601464013659"><ele>852.9999999999999</ele><time>2026-05-03T10:00:53Z</time></trkpt><trkpt lat="37.445034911963255" lon="14.388675986467563"><ele>853.0</ele><time>2026-05-03T10:00:54Z</time></trkpt><trkpt lat="37.44512774985569" lon="14.388748799100233"><ele>853.0</ele><time>2026-05-03T10:00:56Z</time></trkpt><trkpt lat="37.445191332442704" lon="14.38878785954058"><ele>853.0</ele><time>2026-05-03T10:00:58Z</time></trkpt><trkpt lat="37.44525736136518" lon="14.388860339924632"><ele>852.9999999999999</ele><time>2026-05-03T10:01:01Z</time></trkpt><trkpt lat="37.44532056758835" lon="14.388858566839314"><ele>853.0</ele><time>2026-05-03T10:01:04Z</time></trkpt><trkpt lat="37.44538538491482" lon="14.388872796701722"><ele>852.9999999999999</ele><time>2026-05-03T10:01:06Z</time></trkpt><trkpt lat="37.44545400036291" lon="14.388924835089048"><ele>853.0</ele><time>2026-05-03T10:01:08Z</time></trkpt><trkpt lat="37.445518812736914" lon="14.388922687235285"><ele>853.0</ele><time>2026-05-03T10:01:10Z</time></trkpt><trkpt lat="37.44560063723614" lon="14.388889283978644"><ele>853.0</ele><time>2026-05-03T10:01:12Z</time></trkpt><trkpt lat="37.44566593318818" lon="14.388868361759785"><ele>852.9999999999999</ele><time>2026-05-03T10:01:13Z</time></trkpt><trkpt lat="37.445726727539046" lon="14.388835655921724"><ele>853.0</ele><time>2026-05-03T10:01:14Z</time></trkpt><trkpt lat="37.44576700036316" lon="14.388719847528684"><ele>854.3333333333333</ele><time>2026-05-03T10:01:15Z</time></trkpt><trkpt lat="37.44584022288625" lon="14.388694030557497"><ele>855.6666666666666</ele><time>2026-05-03T10:01:16Z</time></trkpt><trkpt lat="37.44590514915397" lon="14.38867146235418"><ele>857.0</ele><time>2026-05-03T10:01:17Z</time></trkpt><trkpt lat="37.445994839409046" lon="14.388641043263592"><ele>858.3333333333333</ele><time>2026-05-03T10:01:18Z</time></trkpt><trkpt lat="37.446090559017044" lon="14.38861237455623"><ele>859.6666666666666</ele><time>2026-05-03T10:01:19Z</time></trkpt><trkpt lat="37.44617848817217" lon="14.388586039118618"><ele>861.0</ele><time>2026-05-03T10:01:20Z</time></trkpt><trkpt lat="37.44626475080622" lon="14.388560202811162"><ele>862.1999999999999</ele><time>2026-05-03T10:01:21Z</time></trkpt><trkpt lat="37.446367855679796" lon="14.388527409271603"><ele>863.3999999999999</ele><time>2026-05-03T10:01:22Z</time></trkpt><trkpt lat="37.44646119711267" lon="14.388495478747737"><ele>864.6</ele><time>2026-05-03T10:01:23Z</time></trkpt><trkpt lat="37.44656083409948" lon="14.388458178136318"><ele>865.8</ele><time>2026-05-03T10:01:24Z</time></trkpt><trkpt lat="37.44664729603388" lon="14.38842331271114"><ele>867.0</ele><time>2026-05-03T10:01:25Z</time></trkpt><trkpt lat="37.446736933864564" lon="14.388382242416101"><ele>867.0</ele><time>2026-05-03T10:01:26Z</time></trkpt><trkpt lat="37.446812168727625" lon="14.388336425064658"><ele>867.0</ele><time>2026-05-03T10:01:27Z</time></trkpt><trkpt lat="37.4468867363135" lon="14.388290036377068"><ele>867.0</ele><time>2026-05-03T10:01:28Z</time></trkpt><trkpt lat="37.44695249445161" lon="14.388249128098183"><ele>867.0</ele><time>2026-05-03T10:01:30Z</time></trkpt><trkpt lat="37.44707907602846" lon="14.388167873327953"><ele>867.0</ele><time>2026-05-03T10:01:32Z</time></trkpt><trkpt lat="37.44716452710412" lon="14.388103715561828"><ele>867.5</ele><time>2026-05-03T10:01:33Z</time></trkpt><trkpt lat="37.447245438955406" lon="14.388032117098733"><ele>868.0</ele><time>2026-05-03T10:01:34Z</time></trkpt><trkpt lat="37.447320585373255" lon="14.387956695125972"><ele>868.5</ele><time>2026-05-03T10:01:35Z</time></trkpt><trkpt lat="37.447390376128666" lon="14.3878777334278"><ele>869.0</ele><time>2026-05-03T10:01:36Z</time></trkpt><trkpt lat="37.44744345049083" lon="14.38781177293665"><ele>869.5</ele><time>2026-05-03T10:01:37Z</time></trkpt><trkpt lat="37.44750230588935" lon="14.387733551817025"><ele>870.0</ele><time>2026-05-03T10:01:38Z</time></trkpt><trkpt lat="37.447579058403456" lon="14.387627427054948"><ele>870.0</ele><time>2026-05-03T10:01:39Z</time></trkpt><trkpt lat="37.44765446657371" lon="14.38749197272362"><ele>870.0</ele><time>2026-05-03T10:01:40Z</time></trkpt><trkpt lat="37.447748145413996" lon="14.387327498901469"><ele>870.0</ele><time>2026-05-03T10:01:41Z</time></trkpt><trkpt lat="37.44786217081882" lon="14.387137097336234"><ele>870.3333333333333</ele><time>2026-05-03T10:01:42Z</time></trkpt><trkpt lat="37.44796385546783" lon="14.38694007562465"><ele>870.6666666666666</ele><time>2026-05-03T10:01:43Z</time></trkpt><trkpt lat="37.4480558029742" lon="14.386788985947465"><ele>871.0</ele><time>2026-05-03T10:01:44Z</time></trkpt><trkpt lat="37.448150697350336" lon="14.386642658241204"><ele>871.0</ele><time>2026-05-03T10:01:45Z</time></trkpt><trkpt lat="37.44822830720851" lon="14.386502646050001"><ele>871.0</ele><time>2026-05-03T10:01:46Z</time></trkpt><trkpt lat="37.44832218176282" lon="14.386365195945636"><ele>871.0</ele><time>2026-05-03T10:01:47Z</time></trkpt><trkpt lat="37.44840796085081" lon="14.386223855015619"><ele>871.0</ele><time>2026-05-03T10:01:48Z</time></trkpt><trkpt lat="37.448496773785514" lon="14.38607346578733"><ele>871.0</ele><time>2026-05-03T10:01:49Z</time></trkpt><trkpt lat="37.44858987065365" lon="14.385923348543203"><ele>871.0</ele><time>2026-05-03T10:01:50Z</time></trkpt><trkpt lat="37.448685300332826" lon="14.385771188737996"><ele>871.0</ele><time>2026-05-03T10:01:51Z</time></trkpt><trkpt lat="37.44877157494707" lon="14.385615236419873"><ele>871.5</ele><time>2026-05-03T10:01:52Z</time></trkpt><trkpt lat="37.44884796023025" lon="14.385453888500042"><ele>872.0</ele><time>2026-05-03T10:01:53Z</time></trkpt><trkpt lat="37.44893000390271" lon="14.385293959665113"><ele>872.5</ele><time>2026-05-03T10:01:54Z</time></trkpt><trkpt lat="37.44900387654306" lon="14.385136577251641"><ele>873.0</ele><time>2026-05-03T10:01:55Z</time></trkpt><trkpt lat="37.44907503213476" lon="14.384991652732255"><ele>873.0</ele><time>2026-05-03T10:01:56Z</time></trkpt><trkpt lat="37.44915008128964" lon="14.384811357180993"><ele>873.0</ele><time>2026-05-03T10:01:57Z</time></trkpt><trkpt lat="37.4492173402382" lon="14.384640340101928"><ele>873.0</ele><time>2026-05-03T10:01:58Z</time></trkpt><trkpt lat="37.44926611853186" lon="14.384473359400305"><ele>872.25</ele><time>2026-05-03T10:01:59Z</time></trkpt><trkpt lat="37.449314538107664" lon="14.384315189575826"><ele>871.5</ele><time>2026-05-03T10:02:00Z</time></trkpt><trkpt lat="37.44936448001967" lon="14.384172554863833"><ele>870.75</ele><time>2026-05-03T10:02:01Z</time></trkpt><trkpt lat="37.4494360267677" lon="14.384038869189075"><ele>870.0</ele><time>2026-05-03T10:02:02Z</time></trkpt><trkpt lat="37.44946774056539" lon="14.383928766057975"><ele>870.1666666666666</ele><time>2026-05-03T10:02:03Z</time></trkpt><trkpt lat="37.4495193116956" lon="14.383830569075595"><ele>870.3333333333333</ele><time>2026-05-03T10:02:04Z</time></trkpt><trkpt lat="37.44957343222785" lon="14.383735915332688"><ele>870.5</ele><time>2026-05-03T10:02:05Z</time></trkpt><trkpt lat="37.449614626456984" lon="14.383664257158399"><ele>870.6666666666666</ele><time>2026-05-03T10:02:06Z</time></trkpt><trkpt lat="37.449659036662815" lon="14.38360067661851"><ele>870.8333333333333</ele><time>2026-05-03T10:02:07Z</time></trkpt><trkpt lat="37.449716369436366" lon="14.38353527523855"><ele>871.0</ele><time>2026-05-03T10:02:08Z</time></trkpt><trkpt lat="37.44977910697167" lon="14.383462137345134"><ele>871.0</ele><time>2026-05-03T10:02:09Z</time></trkpt><trkpt lat="37.44984122907025" lon="14.383391613956965"><ele>870.9999999999999</ele><time>2026-05-03T10:02:10Z</time></trkpt><trkpt lat="37.44991638777765" lon="14.383303623065844"><ele>870.9999999999999</ele><time>2026-05-03T10:02:11Z</time></trkpt><trkpt lat="37.449976885050404" lon="14.383230394020238"><ele>871.0</ele><time>2026-05-03T10:02:12Z</time></trkpt><trkpt lat="37.45003807820973" lon="14.383150642907697"><ele>871.0</ele><time>2026-05-03T10:02:13Z</time></trkpt><trkpt lat="37.45010653443055" lon="14.383054893523868"><ele>871.5999999999999</ele><time>2026-05-03T10:02:14Z</time></trkpt><trkpt lat="37.45016955375707" lon="14.382991856651097"><ele>872.1999999999999</ele><time>2026-05-03T10:02:15Z</time></trkpt><trkpt lat="37.45022906277521" lon="14.382913748120782"><ele>872.8000000000001</ele><time>2026-05-03T10:02:16Z</time></trkpt><trkpt lat="37.450297288320186" lon="14.382840703318298"><ele>873.4000000000001</ele><time>2026-05-03T10:02:17Z</time></trkpt><trkpt lat="37.450373334839995" lon="14.382742143967578"><ele>874.0</ele><time>2026-05-03T10:02:18Z</time></trkpt><trkpt lat="37.45044840148458" lon="14.382631224206952"><ele>873.0</ele><time>2026-05-03T10:02:19Z</time></trkpt><trkpt lat="37.45051891323517" lon="14.382530023038097"><ele>872.0</ele><time>2026-05-03T10:02:20Z</time></trkpt><trkpt lat="37.450586630989974" lon="14.382401361464922"><ele>871.0</ele><time>2026-05-03T10:02:21Z</time></trkpt><trkpt lat="37.45065053068822" lon="14.38227336517088"><ele>870.0</ele><time>2026-05-03T10:02:22Z</time></trkpt><trkpt lat="37.45071841937639" lon="14.3821283205875"><ele>868.0</ele><time>2026-05-03T10:02:23Z</time></trkpt><trkpt lat="37.450806287721505" lon="14.381938740021573"><ele>866.0</ele><time>2026-05-03T10:02:24Z</time></trkpt><trkpt lat="37.4508925620342" lon="14.381747189619759"><ele>864.0</ele><time>2026-05-03T10:02:25Z</time></trkpt><trkpt lat="37.45097506665537" lon="14.381530943002774"><ele>863.0</ele><time>2026-05-03T10:02:26Z</time></trkpt><trkpt lat="37.45108158264482" lon="14.381279920790108"><ele>862.0</ele><time>2026-05-03T10:02:27Z</time></trkpt><trkpt lat="37.451179856719314" lon="14.381046506560349"><ele>861.0</ele><time>2026-05-03T10:02:28Z</time></trkpt><trkpt lat="37.45126447695666" lon="14.380856547543697"><ele>861.25</ele><time>2026-05-03T10:02:29Z</time></trkpt><trkpt lat="37.45133770866704" lon="14.380686947603174"><ele>861.5</ele><time>2026-05-03T10:02:30Z</time></trkpt><trkpt lat="37.451416634575885" lon="14.38052199118283"><ele>861.75</ele><time>2026-05-03T10:02:31Z</time></trkpt><trkpt lat="37.45148774927019" lon="14.380391315123843"><ele>862.0</ele><time>2026-05-03T10:02:32Z</time></trkpt><trkpt lat="37.45153456014487" lon="14.38029030897207"><ele>861.9999999999999</ele><time>2026-05-03T10:02:33Z</time></trkpt><trkpt lat="37.4515808637423" lon="14.380192653257156"><ele>862.0</ele><time>2026-05-03T10:02:34Z</time></trkpt><trkpt lat="37.4516225257329" lon="14.380104745023587"><ele>862.0</ele><time>2026-05-03T10:02:35Z</time></trkpt><trkpt lat="37.451657648883064" lon="14.380033177468627"><ele>862.0</ele><time>2026-05-03T10:02:36Z</time></trkpt><trkpt lat="37.451667210132584" lon="14.379953625162148"><ele>861.9999999999999</ele><time>2026-05-03T10:02:37Z</time></trkpt><trkpt lat="37.45163479803107" lon="14.379798939341237"><ele>862.0</ele><time>2026-05-03T10:02:39Z</time></trkpt><trkpt lat="37.451620234449784" lon="14.379701158290906"><ele>862.5</ele><time>2026-05-03T10:02:40Z</time></trkpt><trkpt lat="37.45172469570523" lon="14.379599708676711"><ele>863.0</ele><time>2026-05-03T10:02:41Z</time></trkpt><trkpt lat="37.45176166150167" lon="14.37948203768379"><ele>863.5</ele><time>2026-05-03T10:02:42Z</time></trkpt><trkpt lat="37.45180658893149" lon="14.379291237026733"><ele>864.0</ele><time>2026-05-03T10:02:43Z</time></trkpt><trkpt lat="37.45187269287058" lon="14.37908811205125"><ele>864.0</ele><time>2026-05-03T10:02:44Z</time></trkpt><trkpt lat="37.45195808644716" lon="14.37888163142917"><ele>864.0</ele><time>2026-05-03T10:02:45Z</time></trkpt><trkpt lat="37.452020394760616" lon="14.378711016413288"><ele>864.0</ele><time>2026-05-03T10:02:46Z</time></trkpt><trkpt lat="37.452071058159454" lon="14.37856398359194"><ele>864.8000000000001</ele><time>2026-05-03T10:02:47Z</time></trkpt><trkpt lat="37.45210402509659" lon="14.378425803988055"><ele>865.6000000000001</ele><time>2026-05-03T10:02:48Z</time></trkpt><trkpt lat="37.45214526530424" lon="14.378296146865294"><ele>866.4</ele><time>2026-05-03T10:02:49Z</time></trkpt><trkpt lat="37.45219598978427" lon="14.378211730708971"><ele>867.2</ele><time>2026-05-03T10:02:50Z</time></trkpt><trkpt lat="37.45225197777733" lon="14.378119806555572"><ele>868.0</ele><time>2026-05-03T10:02:51Z</time></trkpt><trkpt lat="37.45225158718994" lon="14.377908636906133"><ele>870.75</ele><time>2026-05-03T10:02:53Z</time></trkpt><trkpt lat="37.45225130836405" lon="14.377781488329909"><ele>873.5</ele><time>2026-05-03T10:02:54Z</time></trkpt><trkpt lat="37.4522459701097" lon="14.377630463438049"><ele>876.25</ele><time>2026-05-03T10:02:55Z</time></trkpt><trkpt lat="37.45224327935959" lon="14.377448047676731"><ele>879.0</ele><time>2026-05-03T10:02:56Z</time></trkpt><trkpt lat="37.452246502331356" lon="14.377283701465275"><ele>877.75</ele><time>2026-05-03T10:02:57Z</time></trkpt><trkpt lat="37.452252854777946" lon="14.377113057652299"><ele>876.5</ele><time>2026-05-03T10:02:58Z</time></trkpt><trkpt lat="37.452261645290164" lon="14.376923485108565"><ele>875.25</ele><time>2026-05-03T10:02:59Z</time></trkpt><trkpt lat="37.45226249612822" lon="14.376728575259397"><ele>874.0</ele><time>2026-05-03T10:03:00Z</time></trkpt><trkpt lat="37.45228373182681" lon="14.376552605293321"><ele>873.0</ele><time>2026-05-03T10:03:01Z</time></trkpt><trkpt lat="37.45229040563175" lon="14.376352719313646"><ele>872.0</ele><time>2026-05-03T10:03:02Z</time></trkpt><trkpt lat="37.4523040377539" lon="14.376164848481931"><ele>871.0</ele><time>2026-05-03T10:03:03Z</time></trkpt><trkpt lat="37.45230757780003" lon="14.376035956020065"><ele>870.0</ele><time>2026-05-03T10:03:04Z</time></trkpt><trkpt lat="37.4523386116832" lon="14.375867174324982"><ele>870.0</ele><time>2026-05-03T10:03:05Z</time></trkpt><trkpt lat="37.452397974638124" lon="14.375715603583764"><ele>870.0</ele><time>2026-05-03T10:03:06Z</time></trkpt><trkpt lat="37.45243234072924" lon="14.375570258009043"><ele>870.0</ele><time>2026-05-03T10:03:07Z</time></trkpt><trkpt lat="37.452488811988296" lon="14.375457728850323"><ele>870.0</ele><time>2026-05-03T10:03:08Z</time></trkpt><trkpt lat="37.452537818261845" lon="14.37534021757843"><ele>869.5</ele><time>2026-05-03T10:03:09Z</time></trkpt><trkpt lat="37.452609437547025" lon="14.375211054172459"><ele>869.0</ele><time>2026-05-03T10:03:10Z</time></trkpt><trkpt lat="37.45266935219676" lon="14.3750798873849"><ele>868.5</ele><time>2026-05-03T10:03:11Z</time></trkpt><trkpt lat="37.452719228157314" lon="14.374934177152246"><ele>868.0</ele><time>2026-05-03T10:03:12Z</time></trkpt><trkpt lat="37.45275009164992" lon="14.374812184878559"><ele>868.0</ele><time>2026-05-03T10:03:13Z</time></trkpt><trkpt lat="37.45277932887003" lon="14.374696503831851"><ele>868.0</ele><time>2026-05-03T10:03:14Z</time></trkpt><trkpt lat="37.45281898831502" lon="14.374594507190082"><ele>868.0</ele><time>2026-05-03T10:03:15Z</time></trkpt><trkpt lat="37.452870453152876" lon="14.374480971969309"><ele>868.0</ele><time>2026-05-03T10:03:16Z</time></trkpt><trkpt lat="37.452894911359124" lon="14.374377648439204"><ele>868.0</ele><time>2026-05-03T10:03:17Z</time></trkpt><trkpt lat="37.452899849520925" lon="14.374271924771271"><ele>866.8</ele><time>2026-05-03T10:03:18Z</time></trkpt><trkpt lat="37.45289697810852" lon="14.374145637794397"><ele>865.5999999999999</ele><time>2026-05-03T10:03:19Z</time></trkpt><trkpt lat="37.45287524229882" lon="14.374035912097488"><ele>864.4000000000001</ele><time>2026-05-03T10:03:20Z</time></trkpt><trkpt lat="37.452859779308234" lon="14.37386577047276"><ele>863.2</ele><time>2026-05-03T10:03:21Z</time></trkpt><trkpt lat="37.45282679900454" lon="14.37374352060263"><ele>862.0</ele><time>2026-05-03T10:03:22Z</time></trkpt><trkpt lat="37.452790500239885" lon="14.373606055150548"><ele>860.8</ele><time>2026-05-03T10:03:23Z</time></trkpt><trkpt lat="37.452740821162806" lon="14.373447212134087"><ele>859.6</ele><time>2026-05-03T10:03:24Z</time></trkpt><trkpt lat="37.452698537751424" lon="14.37337803323235"><ele>858.3999999999999</ele><time>2026-05-03T10:03:25Z</time></trkpt><trkpt lat="37.452623970589066" lon="14.37326893599834"><ele>857.1999999999999</ele><time>2026-05-03T10:03:26Z</time></trkpt><trkpt lat="37.452540428115874" lon="14.37317907077381"><ele>856.0</ele><time>2026-05-03T10:03:27Z</time></trkpt><trkpt lat="37.452443359945015" lon="14.373115545315873"><ele>856.0</ele><time>2026-05-03T10:03:28Z</time></trkpt><trkpt lat="37.45233710123881" lon="14.373056139526094"><ele>855.9999999999999</ele><time>2026-05-03T10:03:29Z</time></trkpt><trkpt lat="37.452230403123885" lon="14.37299009900615"><ele>855.9999999999999</ele><time>2026-05-03T10:03:30Z</time></trkpt><trkpt lat="37.452150317701054" lon="14.372965046248707"><ele>856.0</ele><time>2026-05-03T10:03:31Z</time></trkpt><trkpt lat="37.45208266938145" lon="14.372942879868875"><ele>856.0</ele><time>2026-05-03T10:03:32Z</time></trkpt><trkpt lat="37.451978878119846" lon="14.372881963179761"><ele>853.75</ele><time>2026-05-03T10:03:34Z</time></trkpt><trkpt lat="37.451874992967596" lon="14.3728262971469"><ele>851.5</ele><time>2026-05-03T10:03:36Z</time></trkpt><trkpt lat="37.451804834364324" lon="14.372741237949453"><ele>849.25</ele><time>2026-05-03T10:03:38Z</time></trkpt><trkpt lat="37.45173002564834" lon="14.372725551261995"><ele>847.0</ele><time>2026-05-03T10:03:40Z</time></trkpt><trkpt lat="37.45205746440947" lon="14.372569710575663"><ele>847.0</ele><time>2026-05-03T10:03:41Z</time></trkpt><trkpt lat="37.45206635493617" lon="14.372480592418288"><ele>847.0</ele><time>2026-05-03T10:03:43Z</time></trkpt><trkpt lat="37.45203246567802" lon="14.372404308206443"><ele>847.0</ele><time>2026-05-03T10:03:45Z</time></trkpt><trkpt lat="37.45162368551536" lon="14.372289704237007"><ele>847.0</ele><time>2026-05-03T10:03:46Z</time></trkpt><trkpt lat="37.45158846809923" lon="14.372172110081552"><ele>847.0</ele><time>2026-05-03T10:03:48Z</time></trkpt><trkpt lat="37.45151363572988" lon="14.37206856972441"><ele>847.0</ele><time>2026-05-03T10:03:50Z</time></trkpt><trkpt lat="37.45146744152899" lon="14.37199131799907"><ele>847.0</ele><time>2026-05-03T10:03:51Z</time></trkpt><trkpt lat="37.4514003123581" lon="14.371894821356758"><ele>847.0</ele><time>2026-05-03T10:03:53Z</time></trkpt><trkpt lat="37.451335324200016" lon="14.371798613770022"><ele>844.9999999999999</ele><time>2026-05-03T10:03:55Z</time></trkpt><trkpt lat="37.4512711395294" lon="14.371730028935659"><ele>843.0</ele><time>2026-05-03T10:03:56Z</time></trkpt><trkpt lat="37.45120522481052" lon="14.371626563142089"><ele>841.0</ele><time>2026-05-03T10:03:57Z</time></trkpt><trkpt lat="37.45114647682033" lon="14.371525955840234"><ele>839.0</ele><time>2026-05-03T10:03:58Z</time></trkpt><trkpt lat="37.451109769978935" lon="14.371445207382312"><ele>836.9999999999999</ele><time>2026-05-03T10:03:59Z</time></trkpt><trkpt lat="37.45106996735231" lon="14.37134816238625"><ele>835.0</ele><time>2026-05-03T10:04:00Z</time></trkpt><trkpt lat="37.451036550455385" lon="14.371250790252565"><ele>834.75</ele><time>2026-05-03T10:04:01Z</time></trkpt><trkpt lat="37.45100068687513" lon="14.37111563784697"><ele>834.5</ele><time>2026-05-03T10:04:02Z</time></trkpt><trkpt lat="37.451009783493845" lon="14.370951375631709"><ele>834.25</ele><time>2026-05-03T10:04:03Z</time></trkpt><trkpt lat="37.45094722075834" lon="14.370790721764276"><ele>834.0</ele><time>2026-05-03T10:04:04Z</time></trkpt><trkpt lat="37.45090936594013" lon="14.37064847199213"><ele>834.25</ele><time>2026-05-03T10:04:05Z</time></trkpt><trkpt lat="37.450845384220074" lon="14.370511316340831"><ele>834.5</ele><time>2026-05-03T10:04:06Z</time></trkpt><trkpt lat="37.45079836362603" lon="14.370374584474908"><ele>834.75</ele><time>2026-05-03T10:04:07Z</time></trkpt><trkpt lat="37.45075255097988" lon="14.370244457727674"><ele>835.0</ele><time>2026-05-03T10:04:08Z</time></trkpt><trkpt lat="37.45070659024121" lon="14.37012093567797"><ele>835.0</ele><time>2026-05-03T10:04:09Z</time></trkpt><trkpt lat="37.450663454796725" lon="14.369998342014572"><ele>835.0</ele><time>2026-05-03T10:04:10Z</time></trkpt><trkpt lat="37.45061559387752" lon="14.369882654298264"><ele>835.0</ele><time>2026-05-03T10:04:11Z</time></trkpt><trkpt lat="37.4505713873884" lon="14.369744841562529"><ele>835.0</ele><time>2026-05-03T10:04:12Z</time></trkpt><trkpt lat="37.45054263539891" lon="14.369625062790675"><ele>835.0</ele><time>2026-05-03T10:04:13Z</time></trkpt><trkpt lat="37.450506266830075" lon="14.369515396112597"><ele>834.8</ele><time>2026-05-03T10:04:14Z</time></trkpt><trkpt lat="37.45046389166276" lon="14.369386314691464"><ele>834.6</ele><time>2026-05-03T10:04:15Z</time></trkpt><trkpt lat="37.45043459137415" lon="14.369275278657867"><ele>834.4000000000001</ele><time>2026-05-03T10:04:16Z</time></trkpt><trkpt lat="37.45040052285055" lon="14.369155939894652"><ele>834.2</ele><time>2026-05-03T10:04:17Z</time></trkpt><trkpt lat="37.45035528203501" lon="14.369013916380682"><ele>834.0</ele><time>2026-05-03T10:04:18Z</time></trkpt><trkpt lat="37.450310984064075" lon="14.3689063358085"><ele>831.8000000000001</ele><time>2026-05-03T10:04:19Z</time></trkpt><trkpt lat="37.45026647081772" lon="14.368804845928596"><ele>829.6</ele><time>2026-05-03T10:04:20Z</time></trkpt><trkpt lat="37.45022568144831" lon="14.368720615481257"><ele>827.4</ele><time>2026-05-03T10:04:21Z</time></trkpt><trkpt lat="37.45018764439989" lon="14.368614467935988"><ele>825.2</ele><time>2026-05-03T10:04:22Z</time></trkpt><trkpt lat="37.45014653132793" lon="14.368525350688481"><ele>823.0</ele><time>2026-05-03T10:04:23Z</time></trkpt><trkpt lat="37.450101023698906" lon="14.368398598396544"><ele>823.0</ele><time>2026-05-03T10:04:25Z</time></trkpt><trkpt lat="37.45005799109124" lon="14.36832521116947"><ele>823.0</ele><time>2026-05-03T10:04:26Z</time></trkpt><trkpt lat="37.44997391894362" lon="14.368186071037693"><ele>823.0</ele><time>2026-05-03T10:04:28Z</time></trkpt><trkpt lat="37.44990013442378" lon="14.36815052922988"><ele>823.0</ele><time>2026-05-03T10:04:29Z</time></trkpt><trkpt lat="37.44982587729053" lon="14.368106313026267"><ele>823.0</ele><time>2026-05-03T10:04:30Z</time></trkpt><trkpt lat="37.449739720877055" lon="14.368059981723217"><ele>823.4</ele><time>2026-05-03T10:04:31Z</time></trkpt><trkpt lat="37.44964688957035" lon="14.36796659222049"><ele>823.8</ele><time>2026-05-03T10:04:32Z</time></trkpt><trkpt lat="37.44956821625387" lon="14.367884863327243"><ele>824.2</ele><time>2026-05-03T10:04:33Z</time></trkpt><trkpt lat="37.449491407927844" lon="14.367774151564987"><ele>824.6</ele><time>2026-05-03T10:04:34Z</time></trkpt><trkpt lat="37.44943997486427" lon="14.367650429574768"><ele>825.0</ele><time>2026-05-03T10:04:35Z</time></trkpt><trkpt lat="37.44938801823685" lon="14.36752578839354"><ele>822.1666666666666</ele><time>2026-05-03T10:04:36Z</time></trkpt><trkpt lat="37.44933928272714" lon="14.367414454002082"><ele>819.3333333333333</ele><time>2026-05-03T10:04:37Z</time></trkpt><trkpt lat="37.449298275423736" lon="14.367320806717506"><ele>816.5</ele><time>2026-05-03T10:04:38Z</time></trkpt><trkpt lat="37.44924382315499" lon="14.367233373732732"><ele>813.6666666666666</ele><time>2026-05-03T10:04:39Z</time></trkpt><trkpt lat="37.44922774289589" lon="14.367137338558441"><ele>810.8333333333333</ele><time>2026-05-03T10:04:40Z</time></trkpt><trkpt lat="37.449192834773584" lon="14.367067750600643"><ele>808.0</ele><time>2026-05-03T10:04:41Z</time></trkpt><trkpt lat="37.44916916999701" lon="14.36698851270595"><ele>807.9999999999999</ele><time>2026-05-03T10:04:42Z</time></trkpt><trkpt lat="37.44913943727153" lon="14.366822557956851"><ele>808.0</ele><time>2026-05-03T10:04:44Z</time></trkpt><trkpt lat="37.449118418195184" lon="14.366735962700755"><ele>808.0</ele><time>2026-05-03T10:04:45Z</time></trkpt><trkpt lat="37.449106824183005" lon="14.366651642399349"><ele>808.0</ele><time>2026-05-03T10:04:46Z</time></trkpt><trkpt lat="37.449087013898904" lon="14.36656520077471"><ele>807.9999999999999</ele><time>2026-05-03T10:04:47Z</time></trkpt><trkpt lat="37.44906744539038" lon="14.366476236602246"><ele>808.0</ele><time>2026-05-03T10:04:48Z</time></trkpt><trkpt lat="37.449028912031096" lon="14.366353310280116"><ele>808.0</ele><time>2026-05-03T10:04:50Z</time></trkpt><trkpt lat="37.44899221073987" lon="14.366210643963173"><ele>808.0</ele><time>2026-05-03T10:04:52Z</time></trkpt><trkpt lat="37.448957355304955" lon="14.366062877137887"><ele>808.0</ele><time>2026-05-03T10:04:54Z</time></trkpt><trkpt lat="37.448924751775465" lon="14.365913836971364"><ele>808.0</ele><time>2026-05-03T10:04:56Z</time></trkpt><trkpt lat="37.448883712449216" lon="14.365801895974775"><ele>808.0</ele><time>2026-05-03T10:04:58Z</time></trkpt><trkpt lat="37.44882647034397" lon="14.365688165109976"><ele>808.0</ele><time>2026-05-03T10:05:00Z</time></trkpt><trkpt lat="37.448781627247264" lon="14.365544936436851"><ele>808.0</ele><time>2026-05-03T10:05:02Z</time></trkpt><trkpt lat="37.44875858409462" lon="14.365452713332933"><ele>808.0</ele><time>2026-05-03T10:05:03Z</time></trkpt><trkpt lat="37.44873283300198" lon="14.36536313738762"><ele>808.0</ele><time>2026-05-03T10:05:04Z</time></trkpt><trkpt lat="37.44866059042063" lon="14.365248712219671"><ele>806.4</ele><time>2026-05-03T10:05:06Z</time></trkpt><trkpt lat="37.44860984991726" lon="14.365156424843743"><ele>804.8</ele><time>2026-05-03T10:05:08Z</time></trkpt><trkpt lat="37.44852509035051" lon="14.365082760293815"><ele>803.2</ele><time>2026-05-03T10:05:10Z</time></trkpt><trkpt lat="37.44852079223906" lon="14.36499660155306"><ele>801.6</ele><time>2026-05-03T10:05:12Z</time></trkpt><trkpt lat="37.448592533521825" lon="14.364969048706351"><ele>800.0</ele><time>2026-05-03T10:06:31Z</time></trkpt><trkpt lat="37.44849617499935" lon="14.364844156030024"><ele>800.0000000000001</ele><time>2026-05-03T10:06:50Z</time></trkpt><trkpt lat="37.44847046533416" lon="14.364769660097814"><ele>800.0</ele><time>2026-05-03T10:06:51Z</time></trkpt><trkpt lat="37.44845331804341" lon="14.36467864536948"><ele>800.0</ele><time>2026-05-03T10:06:52Z</time></trkpt><trkpt lat="37.44843365171179" lon="14.364544649431819"><ele>800.0</ele><time>2026-05-03T10:06:53Z</time></trkpt><trkpt lat="37.44840254782004" lon="14.364421830743114"><ele>800.0000000000001</ele><time>2026-05-03T10:06:54Z</time></trkpt><trkpt lat="37.44839392244508" lon="14.364310350732561"><ele>800.0</ele><time>2026-05-03T10:06:55Z</time></trkpt><trkpt lat="37.448366601532605" lon="14.364170287531199"><ele>800.0</ele><time>2026-05-03T10:06:57Z</time></trkpt><trkpt lat="37.448528098291824" lon="14.364064159167668"><ele>800.0</ele><time>2026-05-03T10:06:59Z</time></trkpt><trkpt lat="37.448617029609814" lon="14.364005753939033"><ele>800.0</ele><time>2026-05-03T10:07:00Z</time></trkpt><trkpt lat="37.44872154857324" lon="14.363937112640413"><ele>800.0</ele><time>2026-05-03T10:07:01Z</time></trkpt><trkpt lat="37.44883303427427" lon="14.363886847197891"><ele>800.2</ele><time>2026-05-03T10:07:02Z</time></trkpt><trkpt lat="37.44895892343179" lon="14.36383784059993"><ele>800.4</ele><time>2026-05-03T10:07:03Z</time></trkpt><trkpt lat="37.44905966471043" lon="14.363778717638734"><ele>800.5999999999999</ele><time>2026-05-03T10:07:04Z</time></trkpt><trkpt lat="37.44914870693282" lon="14.363724274960822"><ele>800.8</ele><time>2026-05-03T10:07:05Z</time></trkpt><trkpt lat="37.44922239727341" lon="14.363669722054318"><ele>801.0</ele><time>2026-05-03T10:07:06Z</time></trkpt><trkpt lat="37.449288638286774" lon="14.363620683869435"><ele>801.0</ele><time>2026-05-03T10:07:07Z</time></trkpt><trkpt lat="37.44935172248393" lon="14.363573982614097"><ele>801.0</ele><time>2026-05-03T10:07:08Z</time></trkpt><trkpt lat="37.44933392373172" lon="14.363491674921114"><ele>801.0</ele><time>2026-05-03T10:07:09Z</time></trkpt><trkpt lat="37.44942391995734" lon="14.363417061785976"><ele>801.0</ele><time>2026-05-03T10:07:11Z</time></trkpt><trkpt lat="37.44950338571014" lon="14.363344045422835"><ele>801.0</ele><time>2026-05-03T10:07:13Z</time></trkpt><trkpt lat="37.4494429243541" lon="14.363321012137696"><ele>801.0</ele><time>2026-05-03T10:07:14Z</time></trkpt><trkpt lat="37.44978091070497" lon="14.363611230115245"><ele>799.1666666666666</ele><time>2026-05-03T10:07:15Z</time></trkpt><trkpt lat="37.44984736578196" lon="14.363556362083566"><ele>797.3333333333333</ele><time>2026-05-03T10:07:20Z</time></trkpt><trkpt lat="37.449920533420766" lon="14.363496488195919"><ele>795.5</ele><time>2026-05-03T10:07:24Z</time></trkpt><trkpt lat="37.45000112570458" lon="14.36343747844541"><ele>793.6666666666666</ele><time>2026-05-03T10:07:27Z</time></trkpt><trkpt lat="37.45008702088742" lon="14.363414106573881"><ele>791.8333333333333</ele><time>2026-05-03T10:07:30Z</time></trkpt><trkpt lat="37.45017907348842" lon="14.363386509588393"><ele>790.0</ele><time>2026-05-03T10:07:32Z</time></trkpt><trkpt lat="37.45028944192686" lon="14.363369297399256"><ele>789.9999999999999</ele><time>2026-05-03T10:07:34Z</time></trkpt><trkpt lat="37.45036796957427" lon="14.363378659224082"><ele>790.0</ele><time>2026-05-03T10:07:36Z</time></trkpt><trkpt lat="37.450449603474254" lon="14.363362911315884"><ele>790.0</ele><time>2026-05-03T10:07:38Z</time></trkpt><trkpt lat="37.450518337808475" lon="14.363310288272238"><ele>790.0</ele><time>2026-05-03T10:07:39Z</time></trkpt><trkpt lat="37.45058272827859" lon="14.363276207934728"><ele>789.9999999999999</ele><time>2026-05-03T10:07:40Z</time></trkpt><trkpt lat="37.45066238740422" lon="14.363279573589999"><ele>790.0</ele><time>2026-05-03T10:07:41Z</time></trkpt><trkpt lat="37.45074767824798" lon="14.363266247754515"><ele>787.6</ele><time>2026-05-03T10:07:42Z</time></trkpt><trkpt lat="37.450815720183016" lon="14.363238463257263"><ele>785.2</ele><time>2026-05-03T10:07:43Z</time></trkpt><trkpt lat="37.45088266531616" lon="14.363202654120197"><ele>782.8</ele><time>2026-05-03T10:07:44Z</time></trkpt><trkpt lat="37.45099951328849" lon="14.363184174568193"><ele>780.4</ele><time>2026-05-03T10:07:46Z</time></trkpt><trkpt lat="37.45110232369012" lon="14.363131332760526"><ele>778.0</ele><time>2026-05-03T10:07:48Z</time></trkpt><trkpt lat="37.45116111888011" lon="14.363065972370562"><ele>776.3333333333333</ele><time>2026-05-03T10:07:50Z</time></trkpt><trkpt lat="37.45117900251465" lon="14.362975077810212"><ele>774.6666666666666</ele><time>2026-05-03T10:07:52Z</time></trkpt><trkpt lat="37.45119523976868" lon="14.362895071301535"><ele>773.0</ele><time>2026-05-03T10:07:54Z</time></trkpt><trkpt lat="37.4512590086991" lon="14.362765361717354"><ele>771.3333333333333</ele><time>2026-05-03T10:07:56Z</time></trkpt><trkpt lat="37.45130592558118" lon="14.362707837635796"><ele>769.6666666666666</ele><time>2026-05-03T10:07:57Z</time></trkpt><trkpt lat="37.4513966767714" lon="14.362640886775313"><ele>768.0</ele><time>2026-05-03T10:07:59Z</time></trkpt><trkpt lat="37.45150109303602" lon="14.362590814431544"><ele>766.5</ele><time>2026-05-03T10:08:01Z</time></trkpt><trkpt lat="37.45156552922968" lon="14.362544785284086"><ele>765.0</ele><time>2026-05-03T10:08:03Z</time></trkpt><trkpt lat="37.45164197972879" lon="14.362491361015882"><ele>763.5</ele><time>2026-05-03T10:08:05Z</time></trkpt><trkpt lat="37.45170332587787" lon="14.36243805264658"><ele>762.0</ele><time>2026-05-03T10:08:07Z</time></trkpt><trkpt lat="37.45177533445303" lon="14.362383365944542"><ele>760.5</ele><time>2026-05-03T10:08:10Z</time></trkpt><trkpt lat="37.45185539622053" lon="14.362293749981667"><ele>759.0</ele><time>2026-05-03T10:08:12Z</time></trkpt><trkpt lat="37.4519607019127" lon="14.362239532203589"><ele>758.3333333333334</ele><time>2026-05-03T10:08:14Z</time></trkpt><trkpt lat="37.452053056363695" lon="14.362188733130676"><ele>757.6666666666666</ele><time>2026-05-03T10:08:16Z</time></trkpt><trkpt lat="37.45212984012374" lon="14.362147646661397"><ele>757.0</ele><time>2026-05-03T10:08:19Z</time></trkpt><trkpt lat="37.452200767427975" lon="14.36208754241472"><ele>756.3333333333333</ele><time>2026-05-03T10:08:22Z</time></trkpt><trkpt lat="37.45227447805024" lon="14.362027015069401"><ele>755.6666666666666</ele><time>2026-05-03T10:08:24Z</time></trkpt><trkpt lat="37.45234362599576" lon="14.361975275226632"><ele>755.0</ele><time>2026-05-03T10:08:25Z</time></trkpt><trkpt lat="37.45242295615988" lon="14.361925420300961"><ele>753.4285714285714</ele><time>2026-05-03T10:08:26Z</time></trkpt><trkpt lat="37.45248637888911" lon="14.36187466763759"><ele>751.8571428571429</ele><time>2026-05-03T10:08:27Z</time></trkpt><trkpt lat="37.452543454202186" lon="14.361827452541254"><ele>750.2857142857143</ele><time>2026-05-03T10:08:28Z</time></trkpt><trkpt lat="37.452604322327446" lon="14.361786746250155"><ele>748.7142857142858</ele><time>2026-05-03T10:08:29Z</time></trkpt><trkpt lat="37.45265943545611" lon="14.361737061627956"><ele>747.1428571428571</ele><time>2026-05-03T10:08:30Z</time></trkpt><trkpt lat="37.45271841039036" lon="14.361678028816348"><ele>745.5714285714287</ele><time>2026-05-03T10:08:31Z</time></trkpt><trkpt lat="37.452801569575286" lon="14.361632336069377"><ele>744.0</ele><time>2026-05-03T10:08:32Z</time></trkpt><trkpt lat="37.452871102268446" lon="14.361582711796512"><ele>744.0</ele><time>2026-05-03T10:08:33Z</time></trkpt><trkpt lat="37.452925611382355" lon="14.361526387681202"><ele>744.0</ele><time>2026-05-03T10:08:34Z</time></trkpt><trkpt lat="37.453035076617226" lon="14.361416960123218"><ele>744.0</ele><time>2026-05-03T10:08:36Z</time></trkpt><trkpt lat="37.45311367857369" lon="14.361364165011887"><ele>744.0</ele><time>2026-05-03T10:08:37Z</time></trkpt><trkpt lat="37.45320036665542" lon="14.361308402807989"><ele>744.0</ele><time>2026-05-03T10:08:38Z</time></trkpt><trkpt lat="37.45329188910442" lon="14.361245976237909"><ele>742.0</ele><time>2026-05-03T10:08:39Z</time></trkpt><trkpt lat="37.45337367473103" lon="14.36117987379734"><ele>740.0</ele><time>2026-05-03T10:08:40Z</time></trkpt><trkpt lat="37.45346518967837" lon="14.361123596659665"><ele>738.0</ele><time>2026-05-03T10:08:41Z</time></trkpt><trkpt lat="37.45353726608426" lon="14.361079731848251"><ele>736.0</ele><time>2026-05-03T10:08:42Z</time></trkpt><trkpt lat="37.45362225692888" lon="14.361035684435317"><ele>734.0</ele><time>2026-05-03T10:08:43Z</time></trkpt><trkpt lat="37.453719097697025" lon="14.36099151344079"><ele>735.2</ele><time>2026-05-03T10:08:44Z</time></trkpt><trkpt lat="37.453810526394456" lon="14.360929291071153"><ele>736.4000000000001</ele><time>2026-05-03T10:08:45Z</time></trkpt><trkpt lat="37.453892088063085" lon="14.360867502349068"><ele>737.6</ele><time>2026-05-03T10:08:46Z</time></trkpt><trkpt lat="37.45396576909486" lon="14.360806909437702"><ele>738.8</ele><time>2026-05-03T10:08:47Z</time></trkpt><trkpt lat="37.454037150625126" lon="14.360749284377498"><ele>740.0</ele><time>2026-05-03T10:08:48Z</time></trkpt><trkpt lat="37.454109409019544" lon="14.360691137971738"><ele>740.0</ele><time>2026-05-03T10:08:49Z</time></trkpt><trkpt lat="37.454187120946585" lon="14.360639050088645"><ele>740.0</ele><time>2026-05-03T10:08:50Z</time></trkpt><trkpt lat="37.45427339104288" lon="14.360588000264272"><ele>740.0</ele><time>2026-05-03T10:08:51Z</time></trkpt><trkpt lat="37.45436701365396" lon="14.360532590681215"><ele>740.0</ele><time>2026-05-03T10:08:52Z</time></trkpt><trkpt lat="37.454461715441234" lon="14.360478709545813"><ele>740.0</ele><time>2026-05-03T10:08:53Z</time></trkpt><trkpt lat="37.45457154445097" lon="14.3603979999561"><ele>737.4</ele><time>2026-05-03T10:08:54Z</time></trkpt><trkpt lat="37.45467327554461" lon="14.360305755142049"><ele>734.8</ele><time>2026-05-03T10:08:55Z</time></trkpt><trkpt lat="37.45476111411574" lon="14.360232621523057"><ele>732.2</ele><time>2026-05-03T10:08:56Z</time></trkpt><trkpt lat="37.454845522511114" lon="14.36016777433144"><ele>729.6</ele><time>2026-05-03T10:08:57Z</time></trkpt><trkpt lat="37.45492501319819" lon="14.360104595591498"><ele>727.0</ele><time>2026-05-03T10:08:58Z</time></trkpt><trkpt lat="37.45498980995201" lon="14.360077021191612"><ele>727.0</ele><time>2026-05-03T10:09:00Z</time></trkpt><trkpt lat="37.45506902719234" lon="14.360122301674842"><ele>727.0</ele><time>2026-05-03T10:09:02Z</time></trkpt><trkpt lat="37.45513796695121" lon="14.360066791764465"><ele>727.0</ele><time>2026-05-03T10:09:06Z</time></trkpt><trkpt lat="37.4551927955995" lon="14.360026518346347"><ele>727.0</ele><time>2026-05-03T10:09:08Z</time></trkpt><trkpt lat="37.455280742470435" lon="14.36001275058792"><ele>727.0</ele><time>2026-05-03T10:09:11Z</time></trkpt><trkpt lat="37.45533533048545" lon="14.359919369637414"><ele>727.0</ele><time>2026-05-03T10:09:14Z</time></trkpt><trkpt lat="37.45537685927211" lon="14.359850599208485"><ele>727.0</ele><time>2026-05-03T10:09:17Z</time></trkpt><trkpt lat="37.45544557863379" lon="14.359800856937978"><ele>727.0</ele><time>2026-05-03T10:09:22Z</time></trkpt><trkpt lat="37.45550081781917" lon="14.359758638248346"><ele>727.0</ele><time>2026-05-03T10:09:24Z</time></trkpt><trkpt lat="37.45556811775936" lon="14.359696809676732"><ele>727.0</ele><time>2026-05-03T10:09:27Z</time></trkpt><trkpt lat="37.45563358624189" lon="14.359643049035268"><ele>727.0</ele><time>2026-05-03T10:09:31Z</time></trkpt><trkpt lat="37.455718227388054" lon="14.359646940402653"><ele>727.0</ele><time>2026-05-03T10:09:34Z</time></trkpt><trkpt lat="37.45578813325524" lon="14.359642720011898"><ele>724.0</ele><time>2026-05-03T10:09:37Z</time></trkpt><trkpt lat="37.45585507698316" lon="14.359667494302844"><ele>721.0</ele><time>2026-05-03T10:09:40Z</time></trkpt><trkpt lat="37.45592736288495" lon="14.35969044447456"><ele>718.0</ele><time>2026-05-03T10:09:42Z</time></trkpt><trkpt lat="37.45598843765092" lon="14.359633171642958"><ele>715.0</ele><time>2026-05-03T10:09:44Z</time></trkpt><trkpt lat="37.456004253976005" lon="14.359513873352736"><ele>712.0</ele><time>2026-05-03T10:09:46Z</time></trkpt><trkpt lat="37.45594965350489" lon="14.359411414203166"><ele>709.0</ele><time>2026-05-03T10:11:59Z</time></trkpt><trkpt lat="37.4560096570595" lon="14.359378037162926"><ele>709.0000000000001</ele><time>2026-05-03T10:12:12Z</time></trkpt><trkpt lat="37.45607220307777" lon="14.359340686735662"><ele>709.0</ele><time>2026-05-03T10:12:15Z</time></trkpt><trkpt lat="37.45613626283546" lon="14.35932608243065"><ele>709.0</ele><time>2026-05-03T10:12:18Z</time></trkpt><trkpt lat="37.4562134546116" lon="14.359295964807515"><ele>709.0</ele><time>2026-05-03T10:12:42Z</time></trkpt><trkpt lat="37.45626809768157" lon="14.359251515293515"><ele>709.0</ele><time>2026-05-03T10:12:44Z</time></trkpt><trkpt lat="37.45633016113552" lon="14.359205653997344"><ele>709.0000000000001</ele><time>2026-05-03T10:12:49Z</time></trkpt><trkpt lat="37.4564213646649" lon="14.359167598658663"><ele>709.0</ele><time>2026-05-03T10:12:52Z</time></trkpt><trkpt lat="37.45649431926959" lon="14.359116826575729"><ele>710.1428571428572</ele><time>2026-05-03T10:12:54Z</time></trkpt><trkpt lat="37.45655743430158" lon="14.359044795445046"><ele>711.2857142857143</ele><time>2026-05-03T10:12:57Z</time></trkpt><trkpt lat="37.456621736374935" lon="14.358991660426435"><ele>712.4285714285714</ele><time>2026-05-03T10:12:59Z</time></trkpt><trkpt lat="37.45668196841263" lon="14.35896161927913"><ele>713.5714285714287</ele><time>2026-05-03T10:20:59Z</time></trkpt><trkpt lat="37.4567341567041" lon="14.358915554567968"><ele>714.7142857142857</ele><time>2026-05-03T10:21:02Z</time></trkpt><trkpt lat="37.45679960420853" lon="14.358882982903149"><ele>715.8571428571429</ele><time>2026-05-03T10:21:08Z</time></trkpt><trkpt lat="37.456865426146216" lon="14.358853185965293"><ele>717.0</ele><time>2026-05-03T10:21:13Z</time></trkpt><trkpt lat="37.456932623126455" lon="14.358827102072173"><ele>717.0</ele><time>2026-05-03T10:21:19Z</time></trkpt><trkpt lat="37.45699741966448" lon="14.358791013182296"><ele>717.0</ele><time>2026-05-03T10:21:23Z</time></trkpt><trkpt lat="37.45707345941303" lon="14.358773580418797"><ele>717.0</ele><time>2026-05-03T10:21:28Z</time></trkpt><trkpt lat="37.45713062135831" lon="14.358729814226766"><ele>717.0</ele><time>2026-05-03T10:21:32Z</time></trkpt><trkpt lat="37.45719741737097" lon="14.358684027989117"><ele>717.0</ele><time>2026-05-03T10:21:35Z</time></trkpt><trkpt lat="37.45726706174716" lon="14.358641323159897"><ele>717.0</ele><time>2026-05-03T10:21:38Z</time></trkpt><trkpt lat="37.45732708726858" lon="14.35858303627737"><ele>717.0</ele><time>2026-05-03T10:21:41Z</time></trkpt><trkpt lat="37.45738738791963" lon="14.358532426288338"><ele>716.1666666666666</ele><time>2026-05-03T10:21:43Z</time></trkpt><trkpt lat="37.45747413454892" lon="14.358512384385692"><ele>715.3333333333334</ele><time>2026-05-03T10:21:46Z</time></trkpt><trkpt lat="37.4575552098918" lon="14.358496964681896"><ele>714.5</ele><time>2026-05-03T10:21:49Z</time></trkpt><trkpt lat="37.457629156770615" lon="14.358439314092703"><ele>713.6666666666667</ele><time>2026-05-03T10:21:52Z</time></trkpt><trkpt lat="37.45771394231425" lon="14.358366025342198"><ele>712.8333333333334</ele><time>2026-05-03T10:21:54Z</time></trkpt><trkpt lat="37.457783932663986" lon="14.358300696115624"><ele>712.0</ele><time>2026-05-03T10:21:56Z</time></trkpt><trkpt lat="37.457857603325635" lon="14.35822415598093"><ele>712.0</ele><time>2026-05-03T10:21:58Z</time></trkpt><trkpt lat="37.45793861788865" lon="14.35814921215585"><ele>712.0</ele><time>2026-05-03T10:22:00Z</time></trkpt><trkpt lat="37.45801981624599" lon="14.35807264393116"><ele>712.0</ele><time>2026-05-03T10:22:02Z</time></trkpt><trkpt lat="37.458133415697134" lon="14.358006902494697"><ele>712.0</ele><time>2026-05-03T10:22:04Z</time></trkpt><trkpt lat="37.45819750517077" lon="14.357953957360095"><ele>712.0</ele><time>2026-05-03T10:22:05Z</time></trkpt><trkpt lat="37.45825736228422" lon="14.35790631253227"><ele>712.5</ele><time>2026-05-03T10:22:06Z</time></trkpt><trkpt lat="37.45832108476354" lon="14.357856064582698"><ele>713.0</ele><time>2026-05-03T10:22:07Z</time></trkpt><trkpt lat="37.45837831686245" lon="14.357806003147635"><ele>713.5</ele><time>2026-05-03T10:22:08Z</time></trkpt><trkpt lat="37.4584401607163" lon="14.357760936691735"><ele>714.0</ele><time>2026-05-03T10:22:09Z</time></trkpt><trkpt lat="37.458502783310216" lon="14.357717910495875"><ele>714.5</ele><time>2026-05-03T10:22:10Z</time></trkpt><trkpt lat="37.45862700590705" lon="14.35764023139113"><ele>715.0</ele><time>2026-05-03T10:22:12Z</time></trkpt><trkpt lat="37.45869814893478" lon="14.357618474767879"><ele>715.0</ele><time>2026-05-03T10:22:13Z</time></trkpt><trkpt lat="37.458761801892834" lon="14.357591872634229"><ele>715.0</ele><time>2026-05-03T10:22:14Z</time></trkpt><trkpt lat="37.45886181093003" lon="14.357525196326138"><ele>715.0</ele><time>2026-05-03T10:22:16Z</time></trkpt><trkpt lat="37.458920985278645" lon="14.35747830365319"><ele>715.0</ele><time>2026-05-03T10:22:17Z</time></trkpt><trkpt lat="37.458977118336115" lon="14.357434042226798"><ele>715.0</ele><time>2026-05-03T10:22:18Z</time></trkpt><trkpt lat="37.45908474937847" lon="14.35735668014836"><ele>715.0</ele><time>2026-05-03T10:22:20Z</time></trkpt><trkpt lat="37.459149604185846" lon="14.35730670781755"><ele>714.2</ele><time>2026-05-03T10:22:21Z</time></trkpt><trkpt lat="37.45920391435799" lon="14.357255787651392"><ele>713.4</ele><time>2026-05-03T10:22:22Z</time></trkpt><trkpt lat="37.45930726862098" lon="14.35719767389552"><ele>712.5999999999999</ele><time>2026-05-03T10:22:24Z</time></trkpt><trkpt lat="37.45939942039839" lon="14.357128382834683"><ele>711.8</ele><time>2026-05-03T10:22:26Z</time></trkpt><trkpt lat="37.459484280280265" lon="14.357061774079307"><ele>711.0</ele><time>2026-05-03T10:22:28Z</time></trkpt><trkpt lat="37.45957407481133" lon="14.356991471240041"><ele>713.5</ele><time>2026-05-03T10:22:30Z</time></trkpt><trkpt lat="37.45965385369493" lon="14.356934169832076"><ele>716.0</ele><time>2026-05-03T10:22:32Z</time></trkpt><trkpt lat="37.45977366488844" lon="14.356879614801024"><ele>718.5</ele><time>2026-05-03T10:22:34Z</time></trkpt><trkpt lat="37.45983497096745" lon="14.356827685241154"><ele>721.0</ele><time>2026-05-03T10:22:35Z</time></trkpt><trkpt lat="37.45989493185581" lon="14.356780654000923"><ele>723.5</ele><time>2026-05-03T10:22:36Z</time></trkpt><trkpt lat="37.4599580367636" lon="14.356734667767567"><ele>726.0</ele><time>2026-05-03T10:22:37Z</time></trkpt><trkpt lat="37.46005475573131" lon="14.356651610205637"><ele>726.0</ele><time>2026-05-03T10:22:39Z</time></trkpt><trkpt lat="37.46014822526363" lon="14.356577020513953"><ele>726.0</ele><time>2026-05-03T10:22:41Z</time></trkpt><trkpt lat="37.46018176319461" lon="14.356482586403127"><ele>726.0</ele><time>2026-05-03T10:22:43Z</time></trkpt><trkpt lat="37.460227947046235" lon="14.356372526278985"><ele>726.0</ele><time>2026-05-03T10:22:46Z</time></trkpt><trkpt lat="37.46026822720266" lon="14.356310436389858"><ele>726.0</ele><time>2026-05-03T10:22:48Z</time></trkpt><trkpt lat="37.46031215297354" lon="14.356231542800353"><ele>726.0</ele><time>2026-05-03T10:22:52Z</time></trkpt><trkpt lat="37.460349768366285" lon="14.356159530428286"><ele>725.4285714285713</ele><time>2026-05-03T10:22:55Z</time></trkpt><trkpt lat="37.46039697083995" lon="14.356082799568679"><ele>724.8571428571429</ele><time>2026-05-03T10:23:03Z</time></trkpt><trkpt lat="37.46042499485433" lon="14.35600274422485"><ele>724.2857142857142</ele><time>2026-05-03T10:23:16Z</time></trkpt><trkpt lat="37.46045892417118" lon="14.355931216372145"><ele>723.7142857142857</ele><time>2026-05-03T10:23:23Z</time></trkpt><trkpt lat="37.46050453282801" lon="14.355871231341904"><ele>723.1428571428571</ele><time>2026-05-03T10:23:29Z</time></trkpt><trkpt lat="37.46056197524317" lon="14.35580938372495"><ele>722.5714285714286</ele><time>2026-05-03T10:23:34Z</time></trkpt><trkpt lat="37.460617913651056" lon="14.355743009275532"><ele>722.0</ele><time>2026-05-03T10:23:40Z</time></trkpt><trkpt lat="37.460682883102365" lon="14.355699873364227"><ele>721.5</ele><time>2026-05-03T10:23:46Z</time></trkpt><trkpt lat="37.46073981117638" lon="14.35565698211972"><ele>721.0</ele><time>2026-05-03T10:23:50Z</time></trkpt><trkpt lat="37.46081457746385" lon="14.355587856014605"><ele>720.5</ele><time>2026-05-03T10:23:52Z</time></trkpt><trkpt lat="37.46090383388695" lon="14.355536212657594"><ele>720.0</ele><time>2026-05-03T10:23:54Z</time></trkpt><trkpt lat="37.46100048257404" lon="14.355507328460178"><ele>719.5</ele><time>2026-05-03T10:23:56Z</time></trkpt><trkpt lat="37.46106524240583" lon="14.355486127000715"><ele>719.0</ele><time>2026-05-03T10:23:58Z</time></trkpt><trkpt lat="37.46111630280287" lon="14.355377687665161"><ele>716.8000000000001</ele><time>2026-05-03T10:24:02Z</time></trkpt><trkpt lat="37.46116943471048" lon="14.355296169170702"><ele>714.6</ele><time>2026-05-03T10:24:43Z</time></trkpt><trkpt lat="37.461259253232924" lon="14.355208400103168"><ele>712.4</ele><time>2026-05-03T10:24:46Z</time></trkpt><trkpt lat="37.46133797723869" lon="14.355149689159957"><ele>710.2</ele><time>2026-05-03T10:24:47Z</time></trkpt><trkpt lat="37.46141178273778" lon="14.355086067353799"><ele>708.0</ele><time>2026-05-03T10:24:48Z</time></trkpt><trkpt lat="37.4614797196445" lon="14.355020564981453"><ele>705.8333333333334</ele><time>2026-05-03T10:24:49Z</time></trkpt><trkpt lat="37.46154301200658" lon="14.354964351276372"><ele>703.6666666666666</ele><time>2026-05-03T10:24:50Z</time></trkpt><trkpt lat="37.46160327327236" lon="14.35492219218265"><ele>701.5</ele><time>2026-05-03T10:24:51Z</time></trkpt><trkpt lat="37.461661060716104" lon="14.354879620732964"><ele>699.3333333333333</ele><time>2026-05-03T10:24:52Z</time></trkpt><trkpt lat="37.46177381943979" lon="14.354800757952667"><ele>697.1666666666666</ele><time>2026-05-03T10:24:54Z</time></trkpt><trkpt lat="37.46185805553092" lon="14.354732256478894"><ele>695.0</ele><time>2026-05-03T10:24:56Z</time></trkpt><trkpt lat="37.461908838696125" lon="14.35467518887816"><ele>694.6666666666666</ele><time>2026-05-03T10:25:03Z</time></trkpt><trkpt lat="37.46197384062241" lon="14.35465556744086"><ele>694.3333333333333</ele><time>2026-05-03T10:25:09Z</time></trkpt><trkpt lat="37.46204743779477" lon="14.35457864770885"><ele>694.0</ele><time>2026-05-03T10:25:13Z</time></trkpt><trkpt lat="37.462103970911684" lon="14.354522953392312"><ele>693.6666666666666</ele><time>2026-05-03T10:25:15Z</time></trkpt><trkpt lat="37.46217906350524" lon="14.354483983700817"><ele>693.3333333333334</ele><time>2026-05-03T10:25:17Z</time></trkpt><trkpt lat="37.46225268723109" lon="14.354486677385708"><ele>693.0</ele><time>2026-05-03T10:25:19Z</time></trkpt><trkpt lat="37.462323231959985" lon="14.35445288035855"><ele>693.0</ele><time>2026-05-03T10:25:21Z</time></trkpt><trkpt lat="37.46238273617137" lon="14.354388938260671"><ele>693.0</ele><time>2026-05-03T10:25:22Z</time></trkpt><trkpt lat="37.46242617320484" lon="14.354329128350107"><ele>693.0</ele><time>2026-05-03T10:25:23Z</time></trkpt><trkpt lat="37.46248379061055" lon="14.35422851772531"><ele>693.0</ele><time>2026-05-03T10:25:25Z</time></trkpt><trkpt lat="37.46255692824964" lon="14.354174975000792"><ele>693.0</ele><time>2026-05-03T10:25:27Z</time></trkpt><trkpt lat="37.462642752710245" lon="14.354126475190231"><ele>693.0</ele><time>2026-05-03T10:25:31Z</time></trkpt><trkpt lat="37.46275526986011" lon="14.354114612251903"><ele>693.0</ele><time>2026-05-03T10:25:33Z</time></trkpt><trkpt lat="37.462860706847025" lon="14.354162712815583"><ele>693.0</ele><time>2026-05-03T10:25:35Z</time></trkpt><trkpt lat="37.46293402995704" lon="14.354213683673043"><ele>693.0</ele><time>2026-05-03T10:25:37Z</time></trkpt><trkpt lat="37.46301894020447" lon="14.354241597939248"><ele>693.0</ele><time>2026-05-03T10:25:39Z</time></trkpt><trkpt lat="37.46308751246074" lon="14.354300739371158"><ele>693.0</ele><time>2026-05-03T10:25:41Z</time></trkpt><trkpt lat="37.46324339723196" lon="14.354163399080015"><ele>695.5</ele><time>2026-05-03T10:25:45Z</time></trkpt><trkpt lat="37.46330680136034" lon="14.354128321810983"><ele>698.0</ele><time>2026-05-03T10:25:47Z</time></trkpt><trkpt lat="37.46336585397488" lon="14.354043616339586"><ele>700.5</ele><time>2026-05-03T10:25:49Z</time></trkpt><trkpt lat="37.46341477367305" lon="14.353991894483073"><ele>703.0</ele><time>2026-05-03T10:25:51Z</time></trkpt><trkpt lat="37.46349039601575" lon="14.35395462457975"><ele>705.5</ele><time>2026-05-03T10:25:55Z</time></trkpt><trkpt lat="37.46357346726997" lon="14.353927352019996"><ele>708.0</ele><time>2026-05-03T10:26:00Z</time></trkpt><trkpt lat="37.46367705638075" lon="14.353878596101755"><ele>708.3333333333334</ele><time>2026-05-03T10:26:02Z</time></trkpt><trkpt lat="37.46373396789264" lon="14.35384056940414"><ele>708.6666666666666</ele><time>2026-05-03T10:26:03Z</time></trkpt><trkpt lat="37.463823370360565" lon="14.353796202403357"><ele>709.0</ele><time>2026-05-03T10:26:05Z</time></trkpt><trkpt lat="37.46392154081599" lon="14.353792530915221"><ele>709.3333333333333</ele><time>2026-05-03T10:26:08Z</time></trkpt><trkpt lat="37.46398702341084" lon="14.35379942839275"><ele>709.6666666666666</ele><time>2026-05-03T10:26:09Z</time></trkpt><trkpt lat="37.46405120567029" lon="14.35377325904333"><ele>710.0</ele><time>2026-05-03T10:26:10Z</time></trkpt><trkpt lat="37.464101988603645" lon="14.353720402482882"><ele>711.6</ele><time>2026-05-03T10:26:11Z</time></trkpt><trkpt lat="37.46415877593847" lon="14.35366232571479"><ele>713.2</ele><time>2026-05-03T10:26:12Z</time></trkpt><trkpt lat="37.464212753192015" lon="14.353615350718236"><ele>714.8</ele><time>2026-05-03T10:26:13Z</time></trkpt><trkpt lat="37.46429860301155" lon="14.35354235260705"><ele>716.4</ele><time>2026-05-03T10:26:15Z</time></trkpt><trkpt lat="37.46436117838948" lon="14.353502557121168"><ele>718.0</ele><time>2026-05-03T10:26:31Z</time></trkpt><trkpt lat="37.464488242758094" lon="14.353398369744134"><ele>718.0</ele><time>2026-05-03T10:26:35Z</time></trkpt><trkpt lat="37.46457657049371" lon="14.353333244623604"><ele>718.0</ele><time>2026-05-03T10:26:36Z</time></trkpt><trkpt lat="37.46467240147535" lon="14.353262793366525"><ele>718.0</ele><time>2026-05-03T10:26:37Z</time></trkpt><trkpt lat="37.464775981158226" lon="14.353179204125308"><ele>718.0</ele><time>2026-05-03T10:26:38Z</time></trkpt><trkpt lat="37.46488004098883" lon="14.35310694451582"><ele>715.75</ele><time>2026-05-03T10:26:39Z</time></trkpt><trkpt lat="37.46499352994596" lon="14.35302580275535"><ele>713.5</ele><time>2026-05-03T10:26:40Z</time></trkpt><trkpt lat="37.46509982745956" lon="14.352931872880655"><ele>711.25</ele><time>2026-05-03T10:26:41Z</time></trkpt><trkpt lat="37.46520011646107" lon="14.352862191761956"><ele>709.0</ele><time>2026-05-03T10:26:42Z</time></trkpt><trkpt lat="37.4652844773263" lon="14.352796206970389"><ele>709.0</ele><time>2026-05-03T10:26:43Z</time></trkpt><trkpt lat="37.4653652415437" lon="14.352728238726057"><ele>709.0</ele><time>2026-05-03T10:26:44Z</time></trkpt><trkpt lat="37.465445918298194" lon="14.352660028535027"><ele>709.0</ele><time>2026-05-03T10:26:45Z</time></trkpt><trkpt lat="37.46553431257915" lon="14.35260652111828"><ele>709.0</ele><time>2026-05-03T10:26:46Z</time></trkpt><trkpt lat="37.465593621396984" lon="14.35256036336696"><ele>709.0</ele><time>2026-05-03T10:26:47Z</time></trkpt><trkpt lat="37.46565058999832" lon="14.3525252005437"><ele>709.0</ele><time>2026-05-03T10:26:48Z</time></trkpt><trkpt lat="37.465706958977975" lon="14.352456993142425"><ele>709.7142857142858</ele><time>2026-05-03T10:26:49Z</time></trkpt><trkpt lat="37.46576462071283" lon="14.352418733614693"><ele>710.4285714285714</ele><time>2026-05-03T10:26:50Z</time></trkpt><trkpt lat="37.46581849585976" lon="14.352376236686467"><ele>711.1428571428571</ele><time>2026-05-03T10:26:52Z</time></trkpt><trkpt lat="37.465879357914716" lon="14.352329494949117"><ele>711.8571428571429</ele><time>2026-05-03T10:26:54Z</time></trkpt><trkpt lat="37.4659135463545" lon="14.352259953799534"><ele>712.5714285714286</ele><time>2026-05-03T10:26:57Z</time></trkpt><trkpt lat="37.46594358732477" lon="14.352181078445744"><ele>713.2857142857143</ele><time>2026-05-03T10:26:59Z</time></trkpt><trkpt lat="37.46592794144447" lon="14.352066788183809"><ele>714.0</ele><time>2026-05-03T10:27:02Z</time></trkpt><trkpt lat="37.46589286631959" lon="14.352000524158255"><ele>712.4285714285714</ele><time>2026-05-03T10:27:04Z</time></trkpt><trkpt lat="37.46587016346127" lon="14.351906270789753"><ele>710.8571428571429</ele><time>2026-05-03T10:27:06Z</time></trkpt><trkpt lat="37.46589316538518" lon="14.35181688891195"><ele>709.2857142857142</ele><time>2026-05-03T10:27:08Z</time></trkpt><trkpt lat="37.46594510913785" lon="14.351771181183144"><ele>707.7142857142858</ele><time>2026-05-03T10:27:09Z</time></trkpt><trkpt lat="37.46599984548113" lon="14.351710993222916"><ele>706.1428571428571</ele><time>2026-05-03T10:27:10Z</time></trkpt><trkpt lat="37.46602997567733" lon="14.351627330117756"><ele>704.5714285714286</ele><time>2026-05-03T10:27:12Z</time></trkpt><trkpt lat="37.46607633205816" lon="14.351538774225173"><ele>703.0</ele><time>2026-05-03T10:27:16Z</time></trkpt><trkpt lat="37.466136455230256" lon="14.351489557177295"><ele>703.0</ele><time>2026-05-03T10:27:18Z</time></trkpt><trkpt lat="37.46619854890812" lon="14.351448385804112"><ele>703.0</ele><time>2026-05-03T10:27:20Z</time></trkpt><trkpt lat="37.46627829413011" lon="14.351431271975454"><ele>703.0</ele><time>2026-05-03T10:27:38Z</time></trkpt><trkpt lat="37.46638514943605" lon="14.351502723830995"><ele>703.0</ele><time>2026-05-03T10:27:40Z</time></trkpt><trkpt lat="37.4664485081953" lon="14.351543213397887"><ele>703.0</ele><time>2026-05-03T10:27:41Z</time></trkpt><trkpt lat="37.466506127375915" lon="14.351599037602202"><ele>703.0</ele><time>2026-05-03T10:27:42Z</time></trkpt><trkpt lat="37.466570009104416" lon="14.35163360225873"><ele>703.75</ele><time>2026-05-03T10:27:43Z</time></trkpt><trkpt lat="37.46663478884447" lon="14.351668652755777"><ele>704.5</ele><time>2026-05-03T10:27:44Z</time></trkpt><trkpt lat="37.466697885073835" lon="14.351701468551902"><ele>705.25</ele><time>2026-05-03T10:27:45Z</time></trkpt><trkpt lat="37.46678947627839" lon="14.351745438157662"><ele>706.0</ele><time>2026-05-03T10:27:47Z</time></trkpt><trkpt lat="37.466984999310334" lon="14.351480845539456"><ele>706.0</ele><time>2026-05-03T10:27:58Z</time></trkpt><trkpt lat="37.467072163169384" lon="14.351424629796599"><ele>706.0</ele><time>2026-05-03T10:28:00Z</time></trkpt><trkpt lat="37.46711837745019" lon="14.35136484576799"><ele>706.0</ele><time>2026-05-03T10:28:01Z</time></trkpt><trkpt lat="37.467190652981344" lon="14.351277508104918"><ele>706.0</ele><time>2026-05-03T10:28:03Z</time></trkpt><trkpt lat="37.46725143764766" lon="14.351238307615658"><ele>706.0</ele><time>2026-05-03T10:28:04Z</time></trkpt><trkpt lat="37.46729801107127" lon="14.351174091632515"><ele>706.0</ele><time>2026-05-03T10:28:05Z</time></trkpt><trkpt lat="37.46735048459611" lon="14.351109916986958"><ele>709.6666666666667</ele><time>2026-05-03T10:28:06Z</time></trkpt><trkpt lat="37.4674078876445" lon="14.351059944467591"><ele>713.3333333333334</ele><time>2026-05-03T10:28:07Z</time></trkpt><trkpt lat="37.467463922550884" lon="14.350989149250124"><ele>717.0</ele><time>2026-05-03T10:28:08Z</time></trkpt><trkpt lat="37.46753629668327" lon="14.35092228087499"><ele>720.6666666666666</ele><time>2026-05-03T10:28:09Z</time></trkpt><trkpt lat="37.467594099732246" lon="14.35086129378802"><ele>724.3333333333333</ele><time>2026-05-03T10:28:10Z</time></trkpt><trkpt lat="37.467664065794835" lon="14.350807799391431"><ele>728.0</ele><time>2026-05-03T10:28:11Z</time></trkpt><trkpt lat="37.46772190638249" lon="14.350750091514904"><ele>728.0</ele><time>2026-05-03T10:28:12Z</time></trkpt><trkpt lat="37.46776903820987" lon="14.350695096127534"><ele>728.0</ele><time>2026-05-03T10:28:13Z</time></trkpt><trkpt lat="37.46781643146664" lon="14.350639958808118"><ele>728.0</ele><time>2026-05-03T10:28:14Z</time></trkpt><trkpt lat="37.46785476140425" lon="14.350539423700077"><ele>728.0</ele><time>2026-05-03T10:28:16Z</time></trkpt><trkpt lat="37.46792825575866" lon="14.35043653025612"><ele>728.0</ele><time>2026-05-03T10:28:18Z</time></trkpt><trkpt lat="37.467998342108665" lon="14.350378705882877"><ele>728.0</ele><time>2026-05-03T10:28:19Z</time></trkpt><trkpt lat="37.468084176439284" lon="14.350301544639573"><ele>732.5999999999999</ele><time>2026-05-03T10:28:20Z</time></trkpt><trkpt lat="37.46816500932559" lon="14.350200574657991"><ele>737.1999999999999</ele><time>2026-05-03T10:28:21Z</time></trkpt><trkpt lat="37.468210043934505" lon="14.350123496923818"><ele>741.8</ele><time>2026-05-03T10:28:22Z</time></trkpt><trkpt lat="37.46824798793012" lon="14.349959395781951"><ele>746.4</ele><time>2026-05-03T10:28:24Z</time></trkpt><trkpt lat="37.46830967920673" lon="14.34989381281605"><ele>751.0</ele><time>2026-05-03T10:28:25Z</time></trkpt><trkpt lat="37.46838872996381" lon="14.349845707612515"><ele>751.0</ele><time>2026-05-03T10:28:26Z</time></trkpt><trkpt lat="37.46846199658466" lon="14.349804500873727"><ele>751.0</ele><time>2026-05-03T10:28:27Z</time></trkpt><trkpt lat="37.46852229463028" lon="14.349769045319613"><ele>751.0</ele><time>2026-05-03T10:28:28Z</time></trkpt><trkpt lat="37.46861001892423" lon="14.349723286816051"><ele>751.0</ele><time>2026-05-03T10:28:29Z</time></trkpt><trkpt lat="37.46866126010222" lon="14.349669366166673"><ele>751.0</ele><time>2026-05-03T10:28:30Z</time></trkpt><trkpt lat="37.468705448925014" lon="14.349589540468846"><ele>751.0</ele><time>2026-05-03T10:28:31Z</time></trkpt><trkpt lat="37.468762831304225" lon="14.349495839458529"><ele>752.1666666666667</ele><time>2026-05-03T10:28:32Z</time></trkpt><trkpt lat="37.468814867279995" lon="14.349421599561648"><ele>753.3333333333334</ele><time>2026-05-03T10:28:33Z</time></trkpt><trkpt lat="37.4688535134041" lon="14.349341805728468"><ele>754.5</ele><time>2026-05-03T10:28:34Z</time></trkpt><trkpt lat="37.46893248510904" lon="14.349258740839852"><ele>755.6666666666666</ele><time>2026-05-03T10:28:35Z</time></trkpt><trkpt lat="37.46899778819927" lon="14.349164391494103"><ele>756.8333333333333</ele><time>2026-05-03T10:28:36Z</time></trkpt><trkpt lat="37.46904763391651" lon="14.349090583805554"><ele>758.0</ele><time>2026-05-03T10:28:37Z</time></trkpt><trkpt lat="37.469056264322425" lon="14.349002845854312"><ele>758.0</ele><time>2026-05-03T10:28:38Z</time></trkpt><trkpt lat="37.46896782133052" lon="14.348908247829012"><ele>758.0</ele><time>2026-05-03T10:28:39Z</time></trkpt><trkpt lat="37.46895759121548" lon="14.348803270770514"><ele>758.0</ele><time>2026-05-03T10:28:40Z</time></trkpt><trkpt lat="37.46897468083517" lon="14.348722907053416"><ele>758.0</ele><time>2026-05-03T10:28:41Z</time></trkpt><trkpt lat="37.46896795844732" lon="14.348619110580646"><ele>758.0</ele><time>2026-05-03T10:28:42Z</time></trkpt><trkpt lat="37.468975009760165" lon="14.348512630107402"><ele>758.0</ele><time>2026-05-03T10:28:43Z</time></trkpt><trkpt lat="37.4689859862087" lon="14.348432993397251"><ele>759.1666666666666</ele><time>2026-05-03T10:28:44Z</time></trkpt><trkpt lat="37.46896184487388" lon="14.34831292645492"><ele>760.3333333333333</ele><time>2026-05-03T10:28:46Z</time></trkpt><trkpt lat="37.46892389945454" lon="14.34819088578497"><ele>761.5</ele><time>2026-05-03T10:28:48Z</time></trkpt><trkpt lat="37.468849187317524" lon="14.348109734141438"><ele>762.6666666666666</ele><time>2026-05-03T10:28:50Z</time></trkpt><trkpt lat="37.46879630653849" lon="14.348046024908871"><ele>763.8333333333334</ele><time>2026-05-03T10:28:51Z</time></trkpt><trkpt lat="37.46875071455306" lon="14.347973704559067"><ele>765.0</ele><time>2026-05-03T10:28:52Z</time></trkpt><trkpt lat="37.46869957514378" lon="14.347890045345713"><ele>767.1666666666666</ele><time>2026-05-03T10:28:53Z</time></trkpt><trkpt lat="37.46864078329564" lon="14.347793449580118"><ele>769.3333333333333</ele><time>2026-05-03T10:28:54Z</time></trkpt><trkpt lat="37.46858637119224" lon="14.34769394934745"><ele>771.5</ele><time>2026-05-03T10:28:55Z</time></trkpt><trkpt lat="37.468560455655364" lon="14.347607348338043"><ele>773.6666666666666</ele><time>2026-05-03T10:28:56Z</time></trkpt><trkpt lat="37.46853198655147" lon="14.347528370451343"><ele>775.8333333333333</ele><time>2026-05-03T10:28:57Z</time></trkpt><trkpt lat="37.46851283110527" lon="14.347444400766415"><ele>778.0</ele><time>2026-05-03T10:28:58Z</time></trkpt><trkpt lat="37.46848893856931" lon="14.347353790855543"><ele>778.0</ele><time>2026-05-03T10:28:59Z</time></trkpt><trkpt lat="37.46850905955176" lon="14.347243271396708"><ele>778.0</ele><time>2026-05-03T10:29:00Z</time></trkpt><trkpt lat="37.46843226989892" lon="14.347111120152539"><ele>778.0</ele><time>2026-05-03T10:29:01Z</time></trkpt><trkpt lat="37.46840874681065" lon="14.347036439206223"><ele>778.0</ele><time>2026-05-03T10:29:02Z</time></trkpt><trkpt lat="37.46842906497229" lon="14.346944067616915"><ele>778.0</ele><time>2026-05-03T10:29:04Z</time></trkpt><trkpt lat="37.46843475213728" lon="14.346800506666323"><ele>777.2</ele><time>2026-05-03T10:29:05Z</time></trkpt><trkpt lat="37.46840996924247" lon="14.346693894485293"><ele>776.4</ele><time>2026-05-03T10:29:06Z</time></trkpt><trkpt lat="37.46838411906263" lon="14.346582691602451"><ele>775.6</ele><time>2026-05-03T10:29:07Z</time></trkpt><trkpt lat="37.46844956027308" lon="14.34640241422459"><ele>774.8000000000001</ele><time>2026-05-03T10:29:10Z</time></trkpt><trkpt lat="37.46846709457257" lon="14.346272220811356"><ele>774.0</ele><time>2026-05-03T10:29:11Z</time></trkpt><trkpt lat="37.46848437441455" lon="14.346152345262075"><ele>773.1666666666666</ele><time>2026-05-03T10:29:12Z</time></trkpt><trkpt lat="37.46850232537477" lon="14.346032191450668"><ele>772.3333333333333</ele><time>2026-05-03T10:29:13Z</time></trkpt><trkpt lat="37.46852284204561" lon="14.34589830122988"><ele>771.5</ele><time>2026-05-03T10:29:14Z</time></trkpt><trkpt lat="37.46853851265866" lon="14.345798249457715"><ele>770.6666666666666</ele><time>2026-05-03T10:29:15Z</time></trkpt><trkpt lat="37.4685571298276" lon="14.345683233050307"><ele>769.8333333333333</ele><time>2026-05-03T10:29:16Z</time></trkpt><trkpt lat="37.468575069482995" lon="14.345601750858615"><ele>769.0</ele><time>2026-05-03T10:29:17Z</time></trkpt><trkpt lat="37.46860053456912" lon="14.345471622319577"><ele>769.0</ele><time>2026-05-03T10:29:18Z</time></trkpt><trkpt lat="37.4686159251647" lon="14.345382159807343"><ele>769.0</ele><time>2026-05-03T10:29:19Z</time></trkpt><trkpt lat="37.46863133991099" lon="14.345292558236682"><ele>769.0</ele><time>2026-05-03T10:29:20Z</time></trkpt><trkpt lat="37.46864597398513" lon="14.345207494553037"><ele>769.0</ele><time>2026-05-03T10:29:21Z</time></trkpt><trkpt lat="37.46823366527667" lon="14.344750462971557"><ele>769.6</ele><time>2026-05-03T10:29:24Z</time></trkpt><trkpt lat="37.468257842345004" lon="14.34458542613026"><ele>770.2</ele><time>2026-05-03T10:29:25Z</time></trkpt><trkpt lat="37.46826296506402" lon="14.344456343220592"><ele>770.8000000000001</ele><time>2026-05-03T10:29:26Z</time></trkpt><trkpt lat="37.46823898482943" lon="14.344340209259373"><ele>771.4000000000001</ele><time>2026-05-03T10:29:27Z</time></trkpt><trkpt lat="37.46824046360667" lon="14.344216587882995"><ele>772.0</ele><time>2026-05-03T10:29:28Z</time></trkpt><trkpt lat="37.468269718355366" lon="14.344111604563984"><ele>771.9999999999999</ele><time>2026-05-03T10:29:29Z</time></trkpt><trkpt lat="37.46830489580584" lon="14.344002856676315"><ele>772.0</ele><time>2026-05-03T10:29:30Z</time></trkpt><trkpt lat="37.46831769467405" lon="14.343866809015605"><ele>772.0</ele><time>2026-05-03T10:29:31Z</time></trkpt><trkpt lat="37.46830854137027" lon="14.343752043116751"><ele>772.0</ele><time>2026-05-03T10:29:32Z</time></trkpt><trkpt lat="37.46831348262375" lon="14.343665200368237"><ele>771.9999999999999</ele><time>2026-05-03T10:29:33Z</time></trkpt><trkpt lat="37.46830633832133" lon="14.343572024372145"><ele>772.0</ele><time>2026-05-03T10:29:34Z</time></trkpt><trkpt lat="37.46829502312144" lon="14.343461209797837"><ele>772.4000000000001</ele><time>2026-05-03T10:29:35Z</time></trkpt><trkpt lat="37.46831362633933" lon="14.343337453059188"><ele>772.8000000000001</ele><time>2026-05-03T10:29:36Z</time></trkpt><trkpt lat="37.468326429839905" lon="14.34322666156964"><ele>773.2</ele><time>2026-05-03T10:29:37Z</time></trkpt><trkpt lat="37.46834466660021" lon="14.343111006836853"><ele>773.6</ele><time>2026-05-03T10:29:38Z</time></trkpt><trkpt lat="37.46836482360401" lon="14.342959725229766"><ele>774.0</ele><time>2026-05-03T10:29:39Z</time></trkpt><trkpt lat="37.46837610462925" lon="14.34283785504396"><ele>774.0</ele><time>2026-05-03T10:29:40Z</time></trkpt><trkpt lat="37.46841191700828" lon="14.342738362473346"><ele>774.0</ele><time>2026-05-03T10:29:41Z</time></trkpt><trkpt lat="37.4684592176493" lon="14.342645534532013"><ele>774.0</ele><time>2026-05-03T10:29:42Z</time></trkpt><trkpt lat="37.4685273558521" lon="14.34254087721258"><ele>774.0</ele><time>2026-05-03T10:29:43Z</time></trkpt><trkpt lat="37.46858846483259" lon="14.342433156022906"><ele>774.0</ele><time>2026-05-03T10:29:44Z</time></trkpt><trkpt lat="37.46862554354605" lon="14.342320243436006"><ele>773.2</ele><time>2026-05-03T10:29:45Z</time></trkpt><trkpt lat="37.46864649068835" lon="14.342205858217898"><ele>772.4000000000001</ele><time>2026-05-03T10:29:46Z</time></trkpt><trkpt lat="37.468647139340206" lon="14.342091263383908"><ele>771.6</ele><time>2026-05-03T10:29:47Z</time></trkpt><trkpt lat="37.46860538780408" lon="14.341931645426998"><ele>770.8</ele><time>2026-05-03T10:29:48Z</time></trkpt><trkpt lat="37.468555508264174" lon="14.341796734934903"><ele>770.0</ele><time>2026-05-03T10:29:49Z</time></trkpt><trkpt lat="37.468500496363774" lon="14.341675493637576"><ele>770.0</ele><time>2026-05-03T10:29:50Z</time></trkpt><trkpt lat="37.46841975839264" lon="14.341522331466626"><ele>770.0</ele><time>2026-05-03T10:29:51Z</time></trkpt><trkpt lat="37.468369600587785" lon="14.341408348593182"><ele>770.0</ele><time>2026-05-03T10:29:52Z</time></trkpt><trkpt lat="37.468324556608955" lon="14.341305998065012"><ele>770.0</ele><time>2026-05-03T10:29:53Z</time></trkpt><trkpt lat="37.468287847972434" lon="14.341190710930059"><ele>770.0</ele><time>2026-05-03T10:29:54Z</time></trkpt><trkpt lat="37.46826763503755" lon="14.341093449033911"><ele>769.2</ele><time>2026-05-03T10:29:55Z</time></trkpt><trkpt lat="37.46827491397244" lon="14.34101293290978"><ele>768.4</ele><time>2026-05-03T10:29:56Z</time></trkpt><trkpt lat="37.468312629843574" lon="14.340889980590163"><ele>767.5999999999999</ele><time>2026-05-03T10:29:57Z</time></trkpt><trkpt lat="37.468354964657976" lon="14.340760140317503"><ele>766.8</ele><time>2026-05-03T10:29:58Z</time></trkpt><trkpt lat="37.46839393019201" lon="14.340627283263304"><ele>766.0</ele><time>2026-05-03T10:29:59Z</time></trkpt><trkpt lat="37.46843137642441" lon="14.340492983873094"><ele>769.5</ele><time>2026-05-03T10:30:00Z</time></trkpt><trkpt lat="37.46845233832412" lon="14.340364180580124"><ele>773.0</ele><time>2026-05-03T10:30:01Z</time></trkpt><trkpt lat="37.46848303498272" lon="14.340234976151573"><ele>776.5</ele><time>2026-05-03T10:30:02Z</time></trkpt><trkpt lat="37.46851430486536" lon="14.340086757747754"><ele>780.0</ele><time>2026-05-03T10:30:03Z</time></trkpt><trkpt lat="37.46857481763962" lon="14.33992528586872"><ele>780.0</ele><time>2026-05-03T10:30:04Z</time></trkpt><trkpt lat="37.46862618834519" lon="14.339783491512437"><ele>780.0</ele><time>2026-05-03T10:30:05Z</time></trkpt><trkpt lat="37.46865182310433" lon="14.339685509648202"><ele>780.0</ele><time>2026-05-03T10:30:06Z</time></trkpt><trkpt lat="37.468676949257244" lon="14.339610592587615"><ele>780.0</ele><time>2026-05-03T10:30:07Z</time></trkpt><trkpt lat="37.468707095872674" lon="14.339534451455394"><ele>780.0</ele><time>2026-05-03T10:30:08Z</time></trkpt><trkpt lat="37.468731563462214" lon="14.339443212133192"><ele>780.0</ele><time>2026-05-03T10:30:09Z</time></trkpt><trkpt lat="37.46874124539522" lon="14.339338217260794"><ele>782.2</ele><time>2026-05-03T10:30:10Z</time></trkpt><trkpt lat="37.46875180095998" lon="14.339230401919464"><ele>784.4</ele><time>2026-05-03T10:30:11Z</time></trkpt><trkpt lat="37.46876264894427" lon="14.339112352560942"><ele>786.5999999999999</ele><time>2026-05-03T10:30:12Z</time></trkpt><trkpt lat="37.46875729101204" lon="14.339005608446646"><ele>788.8</ele><time>2026-05-03T10:30:13Z</time></trkpt><trkpt lat="37.46871283974079" lon="14.3388796222959"><ele>791.0</ele><time>2026-05-03T10:30:15Z</time></trkpt><trkpt lat="37.468688340113346" lon="14.338727206941725"><ele>793.0000000000001</ele><time>2026-05-03T10:30:17Z</time></trkpt><trkpt lat="37.46866981514734" lon="14.338644616702434"><ele>795.0</ele><time>2026-05-03T10:30:18Z</time></trkpt><trkpt lat="37.468678859679095" lon="14.33854296509458"><ele>797.0</ele><time>2026-05-03T10:30:19Z</time></trkpt><trkpt lat="37.46868331383823" lon="14.33842556495879"><ele>799.0</ele><time>2026-05-03T10:30:20Z</time></trkpt><trkpt lat="37.46865142600896" lon="14.338300289062598"><ele>801.0000000000001</ele><time>2026-05-03T10:30:21Z</time></trkpt><trkpt lat="37.46863436832915" lon="14.338184446989295"><ele>803.0</ele><time>2026-05-03T10:30:22Z</time></trkpt><trkpt lat="37.468637758640774" lon="14.338091131461296"><ele>800.5999999999999</ele><time>2026-05-03T10:30:23Z</time></trkpt><trkpt lat="37.46864406036104" lon="14.337995896747527"><ele>798.1999999999999</ele><time>2026-05-03T10:30:24Z</time></trkpt><trkpt lat="37.468651628497405" lon="14.337896467663919"><ele>795.8</ele><time>2026-05-03T10:30:25Z</time></trkpt><trkpt lat="37.46870463865546" lon="14.337806248711253"><ele>793.4</ele><time>2026-05-03T10:30:26Z</time></trkpt><trkpt lat="37.46878531956976" lon="14.33773156449203"><ele>791.0</ele><time>2026-05-03T10:30:27Z</time></trkpt><trkpt lat="37.468882475691736" lon="14.337654222994093"><ele>791.0</ele><time>2026-05-03T10:30:28Z</time></trkpt><trkpt lat="37.469001426255474" lon="14.337566898538416"><ele>791.0</ele><time>2026-05-03T10:30:29Z</time></trkpt><trkpt lat="37.4691121448601" lon="14.337481094371716"><ele>791.0</ele><time>2026-05-03T10:30:30Z</time></trkpt><trkpt lat="37.469198926650776" lon="14.337405656439879"><ele>791.0</ele><time>2026-05-03T10:30:31Z</time></trkpt><trkpt lat="37.469285266683535" lon="14.337321002921403"><ele>791.0</ele><time>2026-05-03T10:30:32Z</time></trkpt><trkpt lat="37.46934604544992" lon="14.337254612395073"><ele>791.0</ele><time>2026-05-03T10:30:33Z</time></trkpt><trkpt lat="37.469358325925796" lon="14.337170016444881"><ele>791.0</ele><time>2026-05-03T10:30:34Z</time></trkpt><trkpt lat="37.469392699254534" lon="14.337015695922164"><ele>791.0</ele><time>2026-05-03T10:30:35Z</time></trkpt><trkpt lat="37.469431566053395" lon="14.336874633889002"><ele>791.0</ele><time>2026-05-03T10:30:36Z</time></trkpt><trkpt lat="37.46948770364877" lon="14.336733499934734"><ele>789.75</ele><time>2026-05-03T10:30:37Z</time></trkpt><trkpt lat="37.469542855668436" lon="14.336604189949266"><ele>788.5</ele><time>2026-05-03T10:30:38Z</time></trkpt><trkpt lat="37.46959320164533" lon="14.336464167858136"><ele>787.25</ele><time>2026-05-03T10:30:39Z</time></trkpt><trkpt lat="37.469646357898064" lon="14.336324778499076"><ele>786.0</ele><time>2026-05-03T10:30:40Z</time></trkpt><trkpt lat="37.46969543754345" lon="14.33618080164508"><ele>788.0</ele><time>2026-05-03T10:30:41Z</time></trkpt><trkpt lat="37.469747485217205" lon="14.336043208097804"><ele>790.0</ele><time>2026-05-03T10:30:42Z</time></trkpt><trkpt lat="37.46978838682478" lon="14.335910252589017"><ele>792.0</ele><time>2026-05-03T10:30:43Z</time></trkpt><trkpt lat="37.46982249038171" lon="14.335789737192238"><ele>794.0</ele><time>2026-05-03T10:30:44Z</time></trkpt><trkpt lat="37.46986108136147" lon="14.335660869467413"><ele>796.0</ele><time>2026-05-03T10:30:45Z</time></trkpt><trkpt lat="37.469908561004075" lon="14.335547883558952"><ele>796.0</ele><time>2026-05-03T10:30:46Z</time></trkpt><trkpt lat="37.46995951907981" lon="14.335430805691278"><ele>796.0</ele><time>2026-05-03T10:30:47Z</time></trkpt><trkpt lat="37.469999885510504" lon="14.335284102905707"><ele>796.0</ele><time>2026-05-03T10:30:48Z</time></trkpt><trkpt lat="37.47005252099645" lon="14.335147656369367"><ele>796.0</ele><time>2026-05-03T10:30:49Z</time></trkpt><trkpt lat="37.47007242676086" lon="14.335046592238596"><ele>796.0</ele><time>2026-05-03T10:30:50Z</time></trkpt><trkpt lat="37.47010271193185" lon="14.334862950085947"><ele>796.0</ele><time>2026-05-03T10:30:52Z</time></trkpt><trkpt lat="37.470124398356084" lon="14.334732484077822"><ele>796.0</ele><time>2026-05-03T10:30:53Z</time></trkpt><trkpt lat="37.4701451415659" lon="14.334545278970992"><ele>796.0</ele><time>2026-05-03T10:30:54Z</time></trkpt><trkpt lat="37.47016846648743" lon="14.334374261208618"><ele>796.0</ele><time>2026-05-03T10:30:55Z</time></trkpt><trkpt lat="37.47018903196265" lon="14.334263086164167"><ele>795.8333333333333</ele><time>2026-05-03T10:30:56Z</time></trkpt><trkpt lat="37.47021428393786" lon="14.334160662464063"><ele>795.6666666666666</ele><time>2026-05-03T10:30:57Z</time></trkpt><trkpt lat="37.47023699992724" lon="14.334059590602026"><ele>795.5</ele><time>2026-05-03T10:30:58Z</time></trkpt><trkpt lat="37.470269438946566" lon="14.333933198237453"><ele>795.3333333333333</ele><time>2026-05-03T10:31:00Z</time></trkpt><trkpt lat="37.47030085510326" lon="14.333857442521593"><ele>795.1666666666666</ele><time>2026-05-03T10:31:04Z</time></trkpt><trkpt lat="37.470303520402354" lon="14.333755538227763"><ele>795.0</ele><time>2026-05-03T10:31:17Z</time></trkpt><trkpt lat="37.47032511939373" lon="14.333652985039329"><ele>794.75</ele><time>2026-05-03T10:32:07Z</time></trkpt><trkpt lat="37.47035272762456" lon="14.333495839483442"><ele>794.5</ele><time>2026-05-03T10:32:09Z</time></trkpt><trkpt lat="37.470370556468914" lon="14.333376444088904"><ele>794.25</ele><time>2026-05-03T10:32:10Z</time></trkpt><trkpt lat="37.47037093047226" lon="14.333199975787492"><ele>794.0</ele><time>2026-05-03T10:32:11Z</time></trkpt><trkpt lat="37.47037541485904" lon="14.332990313531567"><ele>794.0</ele><time>2026-05-03T10:32:12Z</time></trkpt><trkpt lat="37.470371334597225" lon="14.332753202657058"><ele>794.0</ele><time>2026-05-03T10:32:13Z</time></trkpt><trkpt lat="37.47035721046215" lon="14.332548169947218"><ele>794.0</ele><time>2026-05-03T10:32:14Z</time></trkpt><trkpt lat="37.470342120549375" lon="14.332328051364437"><ele>795.4000000000001</ele><time>2026-05-03T10:32:15Z</time></trkpt><trkpt lat="37.470348936792256" lon="14.332172615732762"><ele>796.8</ele><time>2026-05-03T10:32:16Z</time></trkpt><trkpt lat="37.470361377263146" lon="14.33206669366205"><ele>798.2</ele><time>2026-05-03T10:32:17Z</time></trkpt><trkpt lat="37.47037113156828" lon="14.331972291512601"><ele>799.5999999999999</ele><time>2026-05-03T10:32:18Z</time></trkpt><trkpt lat="37.47037977736196" lon="14.331868604545493"><ele>801.0</ele><time>2026-05-03T10:32:19Z</time></trkpt><trkpt lat="37.47040295904424" lon="14.331753200102918"><ele>801.0</ele><time>2026-05-03T10:32:20Z</time></trkpt><trkpt lat="37.47043147008659" lon="14.33164754501572"><ele>801.0</ele><time>2026-05-03T10:32:21Z</time></trkpt><trkpt lat="37.47044125928055" lon="14.331533499105488"><ele>801.0</ele><time>2026-05-03T10:32:22Z</time></trkpt><trkpt lat="37.47045311627344" lon="14.331433167553508"><ele>801.0</ele><time>2026-05-03T10:32:23Z</time></trkpt><trkpt lat="37.47045487333233" lon="14.331293337628322"><ele>801.0</ele><time>2026-05-03T10:32:24Z</time></trkpt><trkpt lat="37.470454111269405" lon="14.331161839107784"><ele>802.5</ele><time>2026-05-03T10:32:25Z</time></trkpt><trkpt lat="37.470471317968" lon="14.331039038519183"><ele>804.0</ele><time>2026-05-03T10:32:26Z</time></trkpt><trkpt lat="37.470486276726064" lon="14.330894859169659"><ele>805.5</ele><time>2026-05-03T10:32:27Z</time></trkpt><trkpt lat="37.470481671683785" lon="14.33070900467178"><ele>807.0</ele><time>2026-05-03T10:32:28Z</time></trkpt><trkpt lat="37.470487827105174" lon="14.330530654767198"><ele>807.0</ele><time>2026-05-03T10:32:29Z</time></trkpt><trkpt lat="37.470474934624214" lon="14.330394812419565"><ele>807.0</ele><time>2026-05-03T10:32:30Z</time></trkpt><trkpt lat="37.470478816742" lon="14.330267365341554"><ele>807.0</ele><time>2026-05-03T10:32:31Z</time></trkpt><trkpt lat="37.47049606299976" lon="14.330114615031096"><ele>807.0</ele><time>2026-05-03T10:32:32Z</time></trkpt><trkpt lat="37.47051165507241" lon="14.329973789391147"><ele>807.0</ele><time>2026-05-03T10:32:33Z</time></trkpt><trkpt lat="37.470526023649825" lon="14.329828402924692"><ele>807.0</ele><time>2026-05-03T10:32:34Z</time></trkpt><trkpt lat="37.470556352125584" lon="14.329696799902619"><ele>807.0</ele><time>2026-05-03T10:32:35Z</time></trkpt><trkpt lat="37.47057698439367" lon="14.329588733878294"><ele>807.0</ele><time>2026-05-03T10:32:36Z</time></trkpt><trkpt lat="37.47056740943451" lon="14.329480206374827"><ele>807.0</ele><time>2026-05-03T10:32:37Z</time></trkpt><trkpt lat="37.47056853034792" lon="14.329360418681953"><ele>807.0</ele><time>2026-05-03T10:32:38Z</time></trkpt><trkpt lat="37.470560813053865" lon="14.329260065233644"><ele>807.0</ele><time>2026-05-03T10:32:39Z</time></trkpt><trkpt lat="37.470547604739245" lon="14.329157772404058"><ele>807.0</ele><time>2026-05-03T10:32:40Z</time></trkpt><trkpt lat="37.470556253477746" lon="14.329048091317615"><ele>807.0</ele><time>2026-05-03T10:32:41Z</time></trkpt><trkpt lat="37.47054805884468" lon="14.328933535375102"><ele>807.0</ele><time>2026-05-03T10:32:42Z</time></trkpt><trkpt lat="37.47051395791467" lon="14.328814928029043"><ele>807.0</ele><time>2026-05-03T10:32:43Z</time></trkpt><trkpt lat="37.47048017334974" lon="14.32867499888501"><ele>807.0</ele><time>2026-05-03T10:32:44Z</time></trkpt><trkpt lat="37.470446737597506" lon="14.32856147884689"><ele>807.0</ele><time>2026-05-03T10:32:45Z</time></trkpt><trkpt lat="37.47040490025352" lon="14.328462617650468"><ele>807.0</ele><time>2026-05-03T10:32:46Z</time></trkpt><trkpt lat="37.47036093172914" lon="14.328350715714507"><ele>807.0</ele><time>2026-05-03T10:32:47Z</time></trkpt><trkpt lat="37.470308204884084" lon="14.328243389783736"><ele>807.0</ele><time>2026-05-03T10:32:48Z</time></trkpt><trkpt lat="37.47025246885199" lon="14.328148579033641"><ele>804.6</ele><time>2026-05-03T10:32:49Z</time></trkpt><trkpt lat="37.470195522490016" lon="14.328064262102911"><ele>802.2</ele><time>2026-05-03T10:32:50Z</time></trkpt><trkpt lat="37.470131707834" lon="14.327961802083355"><ele>799.8</ele><time>2026-05-03T10:32:51Z</time></trkpt><trkpt lat="37.47006379321191" lon="14.327844327507595"><ele>797.4</ele><time>2026-05-03T10:32:52Z</time></trkpt><trkpt lat="37.470006254370965" lon="14.327725712440065"><ele>795.0</ele><time>2026-05-03T10:32:53Z</time></trkpt><trkpt lat="37.46996902455817" lon="14.327604937600542"><ele>795.0</ele><time>2026-05-03T10:32:54Z</time></trkpt><trkpt lat="37.46994344726529" lon="14.32749426299821"><ele>795.0</ele><time>2026-05-03T10:32:55Z</time></trkpt><trkpt lat="37.469897646405514" lon="14.32736798910083"><ele>795.0</ele><time>2026-05-03T10:32:56Z</time></trkpt><trkpt lat="37.469826281897156" lon="14.327222860809332"><ele>795.0</ele><time>2026-05-03T10:32:57Z</time></trkpt><trkpt lat="37.46974858213517" lon="14.32706625703312"><ele>796.5</ele><time>2026-05-03T10:32:58Z</time></trkpt><trkpt lat="37.46969046863561" lon="14.326920495042023"><ele>798.0</ele><time>2026-05-03T10:32:59Z</time></trkpt><trkpt lat="37.46963326427251" lon="14.326777026011005"><ele>799.5</ele><time>2026-05-03T10:33:00Z</time></trkpt><trkpt lat="37.469595533678174" lon="14.326646403168906"><ele>801.0</ele><time>2026-05-03T10:33:01Z</time></trkpt><trkpt lat="37.469542070366465" lon="14.326530128222993"><ele>799.0</ele><time>2026-05-03T10:33:02Z</time></trkpt><trkpt lat="37.46949482246773" lon="14.32638968466751"><ele>797.0</ele><time>2026-05-03T10:33:03Z</time></trkpt><trkpt lat="37.469455389623064" lon="14.326238071411067"><ele>795.0</ele><time>2026-05-03T10:33:04Z</time></trkpt><trkpt lat="37.469430478396" lon="14.326114241241038"><ele>793.0</ele><time>2026-05-03T10:33:05Z</time></trkpt><trkpt lat="37.46941710081942" lon="14.326020129883691"><ele>791.0</ele><time>2026-05-03T10:33:06Z</time></trkpt><trkpt lat="37.4693599393476" lon="14.325983042068424"><ele>791.0</ele><time>2026-05-03T10:33:08Z</time></trkpt><trkpt lat="37.46928313020168" lon="14.32600356092588"><ele>791.0</ele><time>2026-05-03T10:33:09Z</time></trkpt><trkpt lat="37.46919896792471" lon="14.326071568143448"><ele>791.0</ele><time>2026-05-03T10:33:10Z</time></trkpt><trkpt lat="37.46911293081619" lon="14.326192349794638"><ele>791.0</ele><time>2026-05-03T10:33:11Z</time></trkpt><trkpt lat="37.469008347221894" lon="14.326319022014998"><ele>791.0</ele><time>2026-05-03T10:33:12Z</time></trkpt><trkpt lat="37.46893778855098" lon="14.3263927336639"><ele>791.0</ele><time>2026-05-03T10:33:13Z</time></trkpt><trkpt lat="37.468859455501324" lon="14.326415828310013"><ele>791.0</ele><time>2026-05-03T10:33:14Z</time></trkpt><trkpt lat="37.46878362787531" lon="14.326384069217582"><ele>791.0</ele><time>2026-05-03T10:33:15Z</time></trkpt><trkpt lat="37.46873809260798" lon="14.326299199688867"><ele>791.0</ele><time>2026-05-03T10:33:16Z</time></trkpt><trkpt lat="37.46867598077434" lon="14.326141096127982"><ele>788.75</ele><time>2026-05-03T10:33:17Z</time></trkpt><trkpt lat="37.468589080332485" lon="14.325998875981899"><ele>786.5</ele><time>2026-05-03T10:33:18Z</time></trkpt><trkpt lat="37.46849578190403" lon="14.325866833736605"><ele>784.25</ele><time>2026-05-03T10:33:19Z</time></trkpt><trkpt lat="37.46842524505081" lon="14.325757160947937"><ele>782.0</ele><time>2026-05-03T10:33:20Z</time></trkpt><trkpt lat="37.46838421040456" lon="14.325671606566704"><ele>782.0</ele><time>2026-05-03T10:33:21Z</time></trkpt><trkpt lat="37.46837540075751" lon="14.325573246812695"><ele>782.0</ele><time>2026-05-03T10:33:22Z</time></trkpt><trkpt lat="37.46840031675675" lon="14.325411371074496"><ele>782.0</ele><time>2026-05-03T10:33:23Z</time></trkpt><trkpt lat="37.468397009343285" lon="14.325250513306267"><ele>782.0</ele><time>2026-05-03T10:33:24Z</time></trkpt><trkpt lat="37.46836488557642" lon="14.325092318805622"><ele>782.25</ele><time>2026-05-03T10:33:25Z</time></trkpt><trkpt lat="37.4683301863987" lon="14.324962652432419"><ele>782.5</ele><time>2026-05-03T10:33:26Z</time></trkpt><trkpt lat="37.46826421651248" lon="14.324817684955377"><ele>782.75</ele><time>2026-05-03T10:33:27Z</time></trkpt><trkpt lat="37.46821986279264" lon="14.324669991892586"><ele>783.0</ele><time>2026-05-03T10:33:28Z</time></trkpt><trkpt lat="37.46818928535913" lon="14.324563760029461"><ele>783.0</ele><time>2026-05-03T10:33:29Z</time></trkpt><trkpt lat="37.46809321429175" lon="14.324456076099581"><ele>783.0</ele><time>2026-05-03T10:33:31Z</time></trkpt><trkpt lat="37.46798843495928" lon="14.324403837579132"><ele>783.0</ele><time>2026-05-03T10:33:32Z</time></trkpt><trkpt lat="37.46789938092278" lon="14.324360533757675"><ele>783.0</ele><time>2026-05-03T10:33:33Z</time></trkpt><trkpt lat="37.46779940046505" lon="14.324353178827108"><ele>783.0</ele><time>2026-05-03T10:33:34Z</time></trkpt><trkpt lat="37.46767249569637" lon="14.324379766715484"><ele>782.8</ele><time>2026-05-03T10:33:35Z</time></trkpt><trkpt lat="37.4675458623106" lon="14.324407387839344"><ele>782.5999999999999</ele><time>2026-05-03T10:33:36Z</time></trkpt><trkpt lat="37.46743733723803" lon="14.324420657912274"><ele>782.4000000000001</ele><time>2026-05-03T10:33:37Z</time></trkpt><trkpt lat="37.467331741662754" lon="14.32442634969163"><ele>782.2</ele><time>2026-05-03T10:33:38Z</time></trkpt><trkpt lat="37.46724682168947" lon="14.324415273368508"><ele>782.0</ele><time>2026-05-03T10:33:39Z</time></trkpt><trkpt lat="37.46718745893305" lon="14.324374186337527"><ele>782.0</ele><time>2026-05-03T10:33:40Z</time></trkpt><trkpt lat="37.46716010150174" lon="14.324216136783269"><ele>782.0</ele><time>2026-05-03T10:33:42Z</time></trkpt><trkpt lat="37.46717064806176" lon="14.324107534122067"><ele>782.0</ele><time>2026-05-03T10:33:43Z</time></trkpt><trkpt lat="37.46719048864395" lon="14.323962427899891"><ele>782.0</ele><time>2026-05-03T10:33:44Z</time></trkpt><trkpt lat="37.467197826660126" lon="14.323800467327736"><ele>780.4000000000001</ele><time>2026-05-03T10:33:45Z</time></trkpt><trkpt lat="37.467210381696994" lon="14.323665560666512"><ele>778.8000000000001</ele><time>2026-05-03T10:33:46Z</time></trkpt><trkpt lat="37.46722422996997" lon="14.323543926115612"><ele>777.2</ele><time>2026-05-03T10:33:47Z</time></trkpt><trkpt lat="37.46723704948685" lon="14.323396040401503"><ele>775.6</ele><time>2026-05-03T10:33:48Z</time></trkpt><trkpt lat="37.46724726774069" lon="14.32326521817614"><ele>774.0</ele><time>2026-05-03T10:33:49Z</time></trkpt><trkpt lat="37.46725462973581" lon="14.323147525210127"><ele>770.6666666666666</ele><time>2026-05-03T10:33:50Z</time></trkpt><trkpt lat="37.467270508763825" lon="14.323039284730433"><ele>767.3333333333334</ele><time>2026-05-03T10:33:51Z</time></trkpt><trkpt lat="37.467303125108096" lon="14.322956665949997"><ele>764.0</ele><time>2026-05-03T10:33:52Z</time></trkpt><trkpt lat="37.4674123512289" lon="14.322906118619517"><ele>760.6666666666667</ele><time>2026-05-03T10:33:54Z</time></trkpt><trkpt lat="37.467477613116515" lon="14.322921052421291"><ele>757.3333333333334</ele><time>2026-05-03T10:33:55Z</time></trkpt><trkpt lat="37.46757736697537" lon="14.322947915581908"><ele>754.0</ele><time>2026-05-03T10:33:56Z</time></trkpt><trkpt lat="37.46771053666418" lon="14.322970620935273"><ele>754.0</ele><time>2026-05-03T10:33:57Z</time></trkpt><trkpt lat="37.46783240930299" lon="14.322996381883437"><ele>754.0</ele><time>2026-05-03T10:33:58Z</time></trkpt><trkpt lat="37.46794999064007" lon="14.323032367078254"><ele>754.0</ele><time>2026-05-03T10:33:59Z</time></trkpt><trkpt lat="37.468075882215004" lon="14.323060252663772"><ele>754.0</ele><time>2026-05-03T10:34:00Z</time></trkpt><trkpt lat="37.468208071027256" lon="14.323042519324936"><ele>753.6</ele><time>2026-05-03T10:34:01Z</time></trkpt><trkpt lat="37.46833591213669" lon="14.323016181623217"><ele>753.2</ele><time>2026-05-03T10:34:02Z</time></trkpt><trkpt lat="37.468454539557634" lon="14.32300583384804"><ele>752.8000000000001</ele><time>2026-05-03T10:34:03Z</time></trkpt><trkpt lat="37.46854130900096" lon="14.32301460177907"><ele>752.4000000000001</ele><time>2026-05-03T10:34:04Z</time></trkpt><trkpt lat="37.46862388238318" lon="14.323037860586444"><ele>752.0</ele><time>2026-05-03T10:34:05Z</time></trkpt><trkpt lat="37.46871425168614" lon="14.323090003126193"><ele>753.6666666666666</ele><time>2026-05-03T10:34:06Z</time></trkpt><trkpt lat="37.46878440580972" lon="14.32315398560243"><ele>755.3333333333333</ele><time>2026-05-03T10:34:07Z</time></trkpt><trkpt lat="37.46883640028153" lon="14.323231808794471"><ele>757.0</ele><time>2026-05-03T10:34:08Z</time></trkpt><trkpt lat="37.46887419776066" lon="14.323315509832996"><ele>758.6666666666666</ele><time>2026-05-03T10:34:09Z</time></trkpt><trkpt lat="37.46890551666694" lon="14.323400461190483"><ele>760.3333333333334</ele><time>2026-05-03T10:34:10Z</time></trkpt><trkpt lat="37.46894855198741" lon="14.323463054665986"><ele>762.0</ele><time>2026-05-03T10:34:11Z</time></trkpt><trkpt lat="37.46901644660711" lon="14.323450305134884"><ele>762.0</ele><time>2026-05-03T10:34:12Z</time></trkpt><trkpt lat="37.46908378676611" lon="14.323498019675725"><ele>762.0</ele><time>2026-05-03T10:34:13Z</time></trkpt><trkpt lat="37.46916183332018" lon="14.323511309719084"><ele>762.0</ele><time>2026-05-03T10:34:14Z</time></trkpt><trkpt lat="37.469254472490206" lon="14.323371385053212"><ele>762.0</ele><time>2026-05-03T10:34:16Z</time></trkpt><trkpt lat="37.46932617938928" lon="14.323233097647021"><ele>762.0</ele><time>2026-05-03T10:34:18Z</time></trkpt><trkpt lat="37.46936726271459" lon="14.323156529164295"><ele>759.4000000000001</ele><time>2026-05-03T10:34:19Z</time></trkpt><trkpt lat="37.46941424350939" lon="14.32302795620837"><ele>756.8000000000001</ele><time>2026-05-03T10:34:21Z</time></trkpt><trkpt lat="37.46941783745307" lon="14.32293494848309"><ele>754.2</ele><time>2026-05-03T10:34:23Z</time></trkpt><trkpt lat="37.469368440690545" lon="14.322787825821933"><ele>751.6</ele><time>2026-05-03T10:34:25Z</time></trkpt><trkpt lat="37.46936056396076" lon="14.32268850358423"><ele>749.0</ele><time>2026-05-03T10:34:26Z</time></trkpt><trkpt lat="37.46935093434631" lon="14.32257938451334"><ele>749.0</ele><time>2026-05-03T10:34:27Z</time></trkpt><trkpt lat="37.46935022445771" lon="14.322478636494576"><ele>749.0</ele><time>2026-05-03T10:34:28Z</time></trkpt><trkpt lat="37.46935262990007" lon="14.322396293316446"><ele>749.0</ele><time>2026-05-03T10:34:29Z</time></trkpt><trkpt lat="37.4693679017541" lon="14.322308441738764"><ele>749.0</ele><time>2026-05-03T10:34:30Z</time></trkpt><trkpt lat="37.46933170402936" lon="14.32223963885307"><ele>749.0</ele><time>2026-05-03T10:34:31Z</time></trkpt><trkpt lat="37.46932566094045" lon="14.322153680349228"><ele>749.0</ele><time>2026-05-03T10:34:32Z</time></trkpt><trkpt lat="37.46931242131565" lon="14.322049565515329"><ele>749.0</ele><time>2026-05-03T10:34:33Z</time></trkpt><trkpt lat="37.46932348328141" lon="14.321943563601863"><ele>747.8000000000001</ele><time>2026-05-03T10:34:34Z</time></trkpt><trkpt lat="37.46931678572789" lon="14.321842708039014"><ele>746.6</ele><time>2026-05-03T10:34:35Z</time></trkpt><trkpt lat="37.46932662608222" lon="14.321704712615693"><ele>745.4</ele><time>2026-05-03T10:34:36Z</time></trkpt><trkpt lat="37.469328741048685" lon="14.321589775282245"><ele>744.2</ele><time>2026-05-03T10:34:37Z</time></trkpt><trkpt lat="37.46934305260792" lon="14.321506253176263"><ele>743.0</ele><time>2026-05-03T10:34:38Z</time></trkpt><trkpt lat="37.46937852344436" lon="14.321361121093926"><ele>743.0</ele><time>2026-05-03T10:34:40Z</time></trkpt><trkpt lat="37.46940568948981" lon="14.321226735818103"><ele>743.0</ele><time>2026-05-03T10:34:42Z</time></trkpt><trkpt lat="37.46944857332588" lon="14.321164654539004"><ele>743.0</ele><time>2026-05-03T10:34:45Z</time></trkpt><trkpt lat="37.469468917986475" lon="14.321049191585962"><ele>743.0</ele><time>2026-05-03T10:35:25Z</time></trkpt><trkpt lat="37.46951420387889" lon="14.320934223898815"><ele>743.0</ele><time>2026-05-03T10:35:27Z</time></trkpt><trkpt lat="37.46956752047514" lon="14.320846084264183"><ele>744.1666666666666</ele><time>2026-05-03T10:35:29Z</time></trkpt><trkpt lat="37.46963482059126" lon="14.320752408009247"><ele>745.3333333333333</ele><time>2026-05-03T10:35:31Z</time></trkpt><trkpt lat="37.469688356778995" lon="14.320697618152996"><ele>746.5</ele><time>2026-05-03T10:35:32Z</time></trkpt><trkpt lat="37.469731967542145" lon="14.320628984850645"><ele>747.6666666666666</ele><time>2026-05-03T10:35:33Z</time></trkpt><trkpt lat="37.46978740222504" lon="14.320557923117013"><ele>748.8333333333334</ele><time>2026-05-03T10:35:34Z</time></trkpt><trkpt lat="37.46983376179473" lon="14.32048677447882"><ele>750.0</ele><time>2026-05-03T10:35:35Z</time></trkpt><trkpt lat="37.46986007819101" lon="14.320394865625548"><ele>751.8</ele><time>2026-05-03T10:35:36Z</time></trkpt><trkpt lat="37.46989308024322" lon="14.320302151531937"><ele>753.6</ele><time>2026-05-03T10:35:37Z</time></trkpt><trkpt lat="37.469927503803795" lon="14.320228841611078"><ele>755.4000000000001</ele><time>2026-05-03T10:35:38Z</time></trkpt><trkpt lat="37.4699834733849" lon="14.320138074435496"><ele>757.2</ele><time>2026-05-03T10:35:40Z</time></trkpt><trkpt lat="37.47008380199625" lon="14.320025245102087"><ele>759.0</ele><time>2026-05-03T10:35:42Z</time></trkpt><trkpt lat="37.470099575622775" lon="14.31991546737712"><ele>759.0</ele><time>2026-05-03T10:35:44Z</time></trkpt><trkpt lat="37.47015858515762" lon="14.319779596661306"><ele>759.0</ele><time>2026-05-03T10:35:46Z</time></trkpt><trkpt lat="37.470194935967335" lon="14.319711901850681"><ele>759.0</ele><time>2026-05-03T10:35:47Z</time></trkpt><trkpt lat="37.470222659428636" lon="14.319561462708693"><ele>759.0</ele><time>2026-05-03T10:35:49Z</time></trkpt><trkpt lat="37.470250346796014" lon="14.31948676285257"><ele>759.0</ele><time>2026-05-03T10:35:50Z</time></trkpt><trkpt lat="37.47027331155659" lon="14.31941256713382"><ele>759.0</ele><time>2026-05-03T10:35:51Z</time></trkpt><trkpt lat="37.47029572844978" lon="14.31931645818864"><ele>758.5</ele><time>2026-05-03T10:35:52Z</time></trkpt><trkpt lat="37.470321168173506" lon="14.319224244012002"><ele>758.0</ele><time>2026-05-03T10:35:53Z</time></trkpt><trkpt lat="37.4703345806993" lon="14.319116604957884"><ele>757.5</ele><time>2026-05-03T10:35:54Z</time></trkpt><trkpt lat="37.4703620336186" lon="14.319031932818303"><ele>757.0</ele><time>2026-05-03T10:35:55Z</time></trkpt><trkpt lat="37.470402765807734" lon="14.318897688369892"><ele>756.5</ele><time>2026-05-03T10:35:57Z</time></trkpt><trkpt lat="37.47044764287995" lon="14.31878779434503"><ele>756.0</ele><time>2026-05-03T10:35:58Z</time></trkpt><trkpt lat="37.470470256870975" lon="14.318620103075391"><ele>756.0</ele><time>2026-05-03T10:35:59Z</time></trkpt><trkpt lat="37.470488301761954" lon="14.318431972516107"><ele>756.0</ele><time>2026-05-03T10:36:00Z</time></trkpt><trkpt lat="37.470521961303646" lon="14.318228559709901"><ele>756.0</ele><time>2026-05-03T10:36:01Z</time></trkpt><trkpt lat="37.470560645794734" lon="14.318049647163548"><ele>758.5</ele><time>2026-05-03T10:36:02Z</time></trkpt><trkpt lat="37.47059108626252" lon="14.317887702120776"><ele>761.0</ele><time>2026-05-03T10:36:03Z</time></trkpt><trkpt lat="37.4706286979867" lon="14.317728300813062"><ele>763.5</ele><time>2026-05-03T10:36:04Z</time></trkpt><trkpt lat="37.4706627451533" lon="14.317577691760253"><ele>766.0</ele><time>2026-05-03T10:36:05Z</time></trkpt><trkpt lat="37.470690606738614" lon="14.317433155056504"><ele>766.0</ele><time>2026-05-03T10:36:06Z</time></trkpt><trkpt lat="37.47070104368555" lon="14.317302470249354"><ele>766.0</ele><time>2026-05-03T10:36:07Z</time></trkpt><trkpt lat="37.47068611799579" lon="14.317165315978691"><ele>766.0</ele><time>2026-05-03T10:36:08Z</time></trkpt><trkpt lat="37.4706324202505" lon="14.31704058397802"><ele>766.0</ele><time>2026-05-03T10:36:09Z</time></trkpt><trkpt lat="37.4705917599139" lon="14.316896608066383"><ele>766.0</ele><time>2026-05-03T10:36:10Z</time></trkpt><trkpt lat="37.47054256415815" lon="14.31675973201559"><ele>766.75</ele><time>2026-05-03T10:36:11Z</time></trkpt><trkpt lat="37.470522468773616" lon="14.316636721525448"><ele>767.5</ele><time>2026-05-03T10:36:12Z</time></trkpt><trkpt lat="37.470524142565836" lon="14.316501831945217"><ele>768.25</ele><time>2026-05-03T10:36:13Z</time></trkpt><trkpt lat="37.47056587258763" lon="14.316345747274454"><ele>769.0</ele><time>2026-05-03T10:36:14Z</time></trkpt><trkpt lat="37.470645612091324" lon="14.316187580374327"><ele>771.5</ele><time>2026-05-03T10:36:15Z</time></trkpt><trkpt lat="37.470742296467776" lon="14.316012402862064"><ele>774.0</ele><time>2026-05-03T10:36:16Z</time></trkpt><trkpt lat="37.470818072553165" lon="14.315853942092742"><ele>776.5</ele><time>2026-05-03T10:36:17Z</time></trkpt><trkpt lat="37.47087286550084" lon="14.315751432622145"><ele>779.0</ele><time>2026-05-03T10:36:18Z</time></trkpt><trkpt lat="37.47092604736727" lon="14.315626950219242"><ele>780.3333333333334</ele><time>2026-05-03T10:36:19Z</time></trkpt><trkpt lat="37.4710028538033" lon="14.315436052598901"><ele>781.6666666666667</ele><time>2026-05-03T10:36:20Z</time></trkpt><trkpt lat="37.471098650487086" lon="14.315246797788976"><ele>783.0</ele><time>2026-05-03T10:36:21Z</time></trkpt><trkpt lat="37.47117107759563" lon="14.315112932702892"><ele>783.0</ele><time>2026-05-03T10:36:22Z</time></trkpt><trkpt lat="37.471224382640564" lon="14.31499863471103"><ele>783.0</ele><time>2026-05-03T10:36:23Z</time></trkpt><trkpt lat="37.471264085168926" lon="14.314915556465035"><ele>783.0</ele><time>2026-05-03T10:36:24Z</time></trkpt><trkpt lat="37.471303110250716" lon="14.31482681986773"><ele>783.0</ele><time>2026-05-03T10:36:25Z</time></trkpt><trkpt lat="37.4713515781285" lon="14.314713360468152"><ele>783.0</ele><time>2026-05-03T10:36:26Z</time></trkpt><trkpt lat="37.47140418897675" lon="14.314609552282231"><ele>781.5999999999999</ele><time>2026-05-03T10:36:27Z</time></trkpt><trkpt lat="37.47145302685183" lon="14.314516631101139"><ele>780.1999999999999</ele><time>2026-05-03T10:36:28Z</time></trkpt><trkpt lat="37.47149702207307" lon="14.314426253638675"><ele>778.8</ele><time>2026-05-03T10:36:29Z</time></trkpt><trkpt lat="37.4715376217766" lon="14.314321134435074"><ele>777.4</ele><time>2026-05-03T10:36:30Z</time></trkpt><trkpt lat="37.47156879815123" lon="14.314228147098037"><ele>776.0</ele><time>2026-05-03T10:36:31Z</time></trkpt><trkpt lat="37.47164310623337" lon="14.314094317897007"><ele>776.0000000000001</ele><time>2026-05-03T10:36:33Z</time></trkpt><trkpt lat="37.47168105203175" lon="14.314030249258462"><ele>776.0</ele><time>2026-05-03T10:36:34Z</time></trkpt><trkpt lat="37.471726897458076" lon="14.313886516207196"><ele>776.0</ele><time>2026-05-03T10:36:36Z</time></trkpt><trkpt lat="37.471732645439374" lon="14.31377974409762"><ele>776.0</ele><time>2026-05-03T10:36:37Z</time></trkpt><trkpt lat="37.47174174656571" lon="14.313683498895971"><ele>776.0000000000001</ele><time>2026-05-03T10:36:38Z</time></trkpt><trkpt lat="37.47176068968749" lon="14.313573777619043"><ele>776.0</ele><time>2026-05-03T10:36:39Z</time></trkpt><trkpt lat="37.471783068812535" lon="14.313494340598847"><ele>776.0</ele><time>2026-05-03T10:36:40Z</time></trkpt><trkpt lat="37.4718434826988" lon="14.313429754172754"><ele>776.0</ele><time>2026-05-03T10:36:41Z</time></trkpt><trkpt lat="37.471944653677504" lon="14.31330088957694"><ele>776.0</ele><time>2026-05-03T10:36:42Z</time></trkpt><trkpt lat="37.47199541401482" lon="14.31321569977591"><ele>776.0</ele><time>2026-05-03T10:36:43Z</time></trkpt><trkpt lat="37.47203564110935" lon="14.31311448293246"><ele>776.0</ele><time>2026-05-03T10:36:44Z</time></trkpt><trkpt lat="37.47205856528413" lon="14.313029021011392"><ele>772.0</ele><time>2026-05-03T10:36:45Z</time></trkpt><trkpt lat="37.47211109281612" lon="14.312888855469357"><ele>768.0</ele><time>2026-05-03T10:36:47Z</time></trkpt><trkpt lat="37.472137120887" lon="14.312814648894777"><ele>764.0</ele><time>2026-05-03T10:36:48Z</time></trkpt><trkpt lat="37.4721713686953" lon="14.312677119906942"><ele>760.0</ele><time>2026-05-03T10:36:50Z</time></trkpt><trkpt lat="37.47221308089813" lon="14.312562485435343"><ele>756.0</ele><time>2026-05-03T10:36:52Z</time></trkpt><trkpt lat="37.47224824526352" lon="14.312462185349027"><ele>756.0</ele><time>2026-05-03T10:36:54Z</time></trkpt><trkpt lat="37.47225095708189" lon="14.312354205072415"><ele>756.0</ele><time>2026-05-03T10:36:56Z</time></trkpt><trkpt lat="37.47223133888625" lon="14.312251647283464"><ele>756.0</ele><time>2026-05-03T10:36:58Z</time></trkpt><trkpt lat="37.47228030347003" lon="14.312201301587216"><ele>756.0</ele><time>2026-05-03T10:37:01Z</time></trkpt><trkpt lat="37.47233809554643" lon="14.312271844564268"><ele>756.0</ele><time>2026-05-03T10:37:07Z</time></trkpt><trkpt lat="37.47242532185289" lon="14.312299657779167"><ele>756.0</ele><time>2026-05-03T10:37:08Z</time></trkpt><trkpt lat="37.47249333567617" lon="14.312312904614062"><ele>755.25</ele><time>2026-05-03T10:37:09Z</time></trkpt><trkpt lat="37.47260714206595" lon="14.31221348750004"><ele>754.5</ele><time>2026-05-03T10:37:11Z</time></trkpt><trkpt lat="37.47265657915987" lon="14.312130697146277"><ele>753.75</ele><time>2026-05-03T10:37:12Z</time></trkpt><trkpt lat="37.472606796441966" lon="14.31198300798716"><ele>753.0</ele><time>2026-05-03T10:37:14Z</time></trkpt><trkpt lat="37.472533533700044" lon="14.311876585772534"><ele>753.0</ele><time>2026-05-03T10:37:15Z</time></trkpt><trkpt lat="37.472436619532516" lon="14.31179100440359"><ele>753.0</ele><time>2026-05-03T10:37:16Z</time></trkpt><trkpt lat="37.47237682273489" lon="14.311704535607445"><ele>753.0</ele><time>2026-05-03T10:37:17Z</time></trkpt><trkpt lat="37.47234868635867" lon="14.311581655749764"><ele>753.0</ele><time>2026-05-03T10:37:18Z</time></trkpt><trkpt lat="37.47236121504654" lon="14.311450421513007"><ele>753.0</ele><time>2026-05-03T10:37:19Z</time></trkpt><trkpt lat="37.472379282298895" lon="14.31134691596964"><ele>753.0</ele><time>2026-05-03T10:37:20Z</time></trkpt><trkpt lat="37.47245030823581" lon="14.311281730317473"><ele>753.0</ele><time>2026-05-03T10:37:22Z</time></trkpt><trkpt lat="37.472527045382215" lon="14.311300260865139"><ele>753.0</ele><time>2026-05-03T10:37:23Z</time></trkpt><trkpt lat="37.47261256661257" lon="14.311344724577554"><ele>753.0</ele><time>2026-05-03T10:37:24Z</time></trkpt><trkpt lat="37.472701167682494" lon="14.311403975200257"><ele>753.0</ele><time>2026-05-03T10:37:25Z</time></trkpt><trkpt lat="37.47278063540467" lon="14.311434812078401"><ele>753.0</ele><time>2026-05-03T10:37:26Z</time></trkpt><trkpt lat="37.47287572288451" lon="14.31143996971062"><ele>753.8</ele><time>2026-05-03T10:37:27Z</time></trkpt><trkpt lat="37.472974326446256" lon="14.311422367478515"><ele>754.5999999999999</ele><time>2026-05-03T10:37:28Z</time></trkpt><trkpt lat="37.47306843470941" lon="14.311271585772854"><ele>755.4000000000001</ele><time>2026-05-03T10:37:30Z</time></trkpt><trkpt lat="37.473090341760226" lon="14.311158613263691"><ele>756.2</ele><time>2026-05-03T10:37:31Z</time></trkpt><trkpt lat="37.47312964010481" lon="14.311051636458942"><ele>757.0</ele><time>2026-05-03T10:37:32Z</time></trkpt><trkpt lat="37.47315368396213" lon="14.310975894991474"><ele>759.6666666666667</ele><time>2026-05-03T10:37:33Z</time></trkpt><trkpt lat="37.4731967911043" lon="14.310869560643377"><ele>762.3333333333334</ele><time>2026-05-03T10:37:35Z</time></trkpt><trkpt lat="37.47323213128207" lon="14.310796296657818"><ele>765.0</ele><time>2026-05-03T10:37:38Z</time></trkpt><trkpt lat="37.47328637990865" lon="14.310716101734016"><ele>767.6666666666667</ele><time>2026-05-03T10:37:40Z</time></trkpt><trkpt lat="37.47337269304105" lon="14.310627026021768"><ele>770.3333333333334</ele><time>2026-05-03T10:37:42Z</time></trkpt><trkpt lat="37.47341338832628" lon="14.310547698331591"><ele>773.0</ele><time>2026-05-03T10:37:43Z</time></trkpt><trkpt lat="37.473424598924936" lon="14.310434590282835"><ele>774.25</ele><time>2026-05-03T10:37:44Z</time></trkpt><trkpt lat="37.47343814726908" lon="14.310290825587233"><ele>775.5</ele><time>2026-05-03T10:37:45Z</time></trkpt><trkpt lat="37.47349412160144" lon="14.310127693599654"><ele>776.75</ele><time>2026-05-03T10:37:46Z</time></trkpt><trkpt lat="37.4735203242254" lon="14.309989302264569"><ele>778.0</ele><time>2026-05-03T10:37:47Z</time></trkpt><trkpt lat="37.47353661706763" lon="14.309886022106696"><ele>778.0</ele><time>2026-05-03T10:37:48Z</time></trkpt><trkpt lat="37.47357540518998" lon="14.309785165824785"><ele>778.0</ele><time>2026-05-03T10:37:49Z</time></trkpt><trkpt lat="37.47364791955638" lon="14.309666412157586"><ele>778.0</ele><time>2026-05-03T10:37:50Z</time></trkpt><trkpt lat="37.47373761146317" lon="14.309530546937355"><ele>778.0</ele><time>2026-05-03T10:37:51Z</time></trkpt><trkpt lat="37.473803443565316" lon="14.309405949006651"><ele>778.8</ele><time>2026-05-03T10:37:52Z</time></trkpt><trkpt lat="37.47386349659528" lon="14.309296739127062"><ele>779.5999999999999</ele><time>2026-05-03T10:37:53Z</time></trkpt><trkpt lat="37.47391401424642" lon="14.309191445310883"><ele>780.4000000000001</ele><time>2026-05-03T10:37:54Z</time></trkpt><trkpt lat="37.4739425685881" lon="14.309103779490608"><ele>781.2</ele><time>2026-05-03T10:37:55Z</time></trkpt><trkpt lat="37.473970673699625" lon="14.309020968357661"><ele>782.0</ele><time>2026-05-03T10:37:56Z</time></trkpt><trkpt lat="37.47409623589414" lon="14.308989871287505"><ele>782.0</ele><time>2026-05-03T10:37:58Z</time></trkpt><trkpt lat="37.474187639279045" lon="14.308916562308518"><ele>782.0</ele><time>2026-05-03T10:37:59Z</time></trkpt><trkpt lat="37.474259995513286" lon="14.308848932621213"><ele>782.0</ele><time>2026-05-03T10:38:00Z</time></trkpt><trkpt lat="37.47432823796981" lon="14.308793761988554"><ele>782.0</ele><time>2026-05-03T10:38:01Z</time></trkpt><trkpt lat="37.474405856077645" lon="14.308654588423446"><ele>782.0</ele><time>2026-05-03T10:38:03Z</time></trkpt><trkpt lat="37.47442069757168" lon="14.308556691118227"><ele>782.6</ele><time>2026-05-03T10:38:04Z</time></trkpt><trkpt lat="37.47449082104184" lon="14.308437592523388"><ele>783.2</ele><time>2026-05-03T10:38:06Z</time></trkpt><trkpt lat="37.47456008542221" lon="14.308341513365868"><ele>783.8</ele><time>2026-05-03T10:38:07Z</time></trkpt><trkpt lat="37.47462829508595" lon="14.308234312041522"><ele>784.4</ele><time>2026-05-03T10:38:08Z</time></trkpt><trkpt lat="37.47468751544883" lon="14.308164655335919"><ele>785.0</ele><time>2026-05-03T10:38:09Z</time></trkpt><trkpt lat="37.47482972173143" lon="14.308096252977366"><ele>787.2</ele><time>2026-05-03T10:38:11Z</time></trkpt><trkpt lat="37.47491324628326" lon="14.308007078271874"><ele>789.4</ele><time>2026-05-03T10:38:12Z</time></trkpt><trkpt lat="37.474985503908265" lon="14.30791950863209"><ele>791.5999999999999</ele><time>2026-05-03T10:38:13Z</time></trkpt><trkpt lat="37.475049494569234" lon="14.307837520413706"><ele>793.8</ele><time>2026-05-03T10:38:14Z</time></trkpt><trkpt lat="37.4751123497852" lon="14.307756037363125"><ele>796.0</ele><time>2026-05-03T10:38:15Z</time></trkpt><trkpt lat="37.47516845089907" lon="14.30767767671297"><ele>796.0</ele><time>2026-05-03T10:38:16Z</time></trkpt><trkpt lat="37.47523434749308" lon="14.307582839968555"><ele>796.0</ele><time>2026-05-03T10:38:17Z</time></trkpt><trkpt lat="37.475291505338014" lon="14.307497177976023"><ele>796.0</ele><time>2026-05-03T10:38:18Z</time></trkpt><trkpt lat="37.475356563461595" lon="14.30740522263254"><ele>796.0</ele><time>2026-05-03T10:38:19Z</time></trkpt><trkpt lat="37.47541579521383" lon="14.307304649259295"><ele>796.0</ele><time>2026-05-03T10:38:20Z</time></trkpt><trkpt lat="37.47547667695797" lon="14.30720123619426"><ele>797.5999999999999</ele><time>2026-05-03T10:38:21Z</time></trkpt><trkpt lat="37.47552123557538" lon="14.307104967603172"><ele>799.2</ele><time>2026-05-03T10:38:22Z</time></trkpt><trkpt lat="37.475579289322255" lon="14.306997399393103"><ele>800.8</ele><time>2026-05-03T10:38:23Z</time></trkpt><trkpt lat="37.47564618732138" lon="14.306892430695934"><ele>802.4000000000001</ele><time>2026-05-03T10:38:24Z</time></trkpt><trkpt lat="37.47571325958101" lon="14.306786570587674"><ele>804.0</ele><time>2026-05-03T10:38:25Z</time></trkpt><trkpt lat="37.47577606850525" lon="14.30667217980696"><ele>804.0</ele><time>2026-05-03T10:38:26Z</time></trkpt><trkpt lat="37.47584275274475" lon="14.306556416444852"><ele>804.0</ele><time>2026-05-03T10:38:27Z</time></trkpt><trkpt lat="37.4759059362421" lon="14.306440084647853"><ele>804.0</ele><time>2026-05-03T10:38:28Z</time></trkpt><trkpt lat="37.47597911948621" lon="14.306358180648344"><ele>804.0</ele><time>2026-05-03T10:38:29Z</time></trkpt><trkpt lat="37.476032398111236" lon="14.306273993632589"><ele>804.0</ele><time>2026-05-03T10:38:30Z</time></trkpt><trkpt lat="37.47607697541923" lon="14.306190879963216"><ele>804.0</ele><time>2026-05-03T10:38:31Z</time></trkpt><trkpt lat="37.476125004736375" lon="14.306108909547204"><ele>804.0</ele><time>2026-05-03T10:38:32Z</time></trkpt><trkpt lat="37.47616891468023" lon="14.306017573113998"><ele>804.0</ele><time>2026-05-03T10:38:33Z</time></trkpt><trkpt lat="37.47622215654836" lon="14.305908765783451"><ele>804.0</ele><time>2026-05-03T10:38:34Z</time></trkpt><trkpt lat="37.47628268660858" lon="14.305787064688385"><ele>804.0</ele><time>2026-05-03T10:38:35Z</time></trkpt><trkpt lat="37.47633610916524" lon="14.305674731573687"><ele>805.25</ele><time>2026-05-03T10:38:36Z</time></trkpt><trkpt lat="37.47640934563166" lon="14.305569240112856"><ele>806.5</ele><time>2026-05-03T10:38:37Z</time></trkpt><trkpt lat="37.476475935631676" lon="14.305447438862558"><ele>807.75</ele><time>2026-05-03T10:38:38Z</time></trkpt><trkpt lat="37.4765391910705" lon="14.305307010204825"><ele>809.0</ele><time>2026-05-03T10:38:39Z</time></trkpt><trkpt lat="37.476596888520234" lon="14.30518667688599"><ele>809.0</ele><time>2026-05-03T10:38:40Z</time></trkpt><trkpt lat="37.47665135348946" lon="14.305070022705564"><ele>809.0</ele><time>2026-05-03T10:38:41Z</time></trkpt><trkpt lat="37.47670019924526" lon="14.304978602802645"><ele>809.0</ele><time>2026-05-03T10:38:42Z</time></trkpt><trkpt lat="37.47674494707741" lon="14.304902115781816"><ele>809.0</ele><time>2026-05-03T10:38:43Z</time></trkpt><trkpt lat="37.476821862865876" lon="14.304806065839783"><ele>809.0</ele><time>2026-05-03T10:38:45Z</time></trkpt><trkpt lat="37.47687695478239" lon="14.30466491903405"><ele>808.6666666666667</ele><time>2026-05-03T10:38:47Z</time></trkpt><trkpt lat="37.476911707309" lon="14.304577436175922"><ele>808.3333333333334</ele><time>2026-05-03T10:38:48Z</time></trkpt><trkpt lat="37.4769438576747" lon="14.304506651210968"><ele>808.0</ele><time>2026-05-03T10:38:49Z</time></trkpt><trkpt lat="37.47703433373936" lon="14.304374145849518"><ele>807.6666666666667</ele><time>2026-05-03T10:38:51Z</time></trkpt><trkpt lat="37.477074471400115" lon="14.304306129027717"><ele>807.3333333333334</ele><time>2026-05-03T10:38:52Z</time></trkpt><trkpt lat="37.47711535318719" lon="14.304225864302431"><ele>807.0</ele><time>2026-05-03T10:38:53Z</time></trkpt><trkpt lat="37.477157762286346" lon="14.304152756802555"><ele>807.1428571428572</ele><time>2026-05-03T10:38:54Z</time></trkpt><trkpt lat="37.47719973599489" lon="14.304085965462471"><ele>807.2857142857143</ele><time>2026-05-03T10:38:55Z</time></trkpt><trkpt lat="37.47724624060047" lon="14.304015061159799"><ele>807.4285714285714</ele><time>2026-05-03T10:38:56Z</time></trkpt><trkpt lat="37.4773051420146" lon="14.303946038623387"><ele>807.5714285714287</ele><time>2026-05-03T10:38:57Z</time></trkpt><trkpt lat="37.47735980581842" lon="14.303880601940799"><ele>807.7142857142857</ele><time>2026-05-03T10:38:58Z</time></trkpt><trkpt lat="37.477403272681364" lon="14.30380091431637"><ele>807.8571428571429</ele><time>2026-05-03T10:38:59Z</time></trkpt><trkpt lat="37.47743769126119" lon="14.30372778038018"><ele>808.0</ele><time>2026-05-03T10:39:00Z</time></trkpt><trkpt lat="37.47749293092203" lon="14.303616606430746"><ele>807.9999999999999</ele><time>2026-05-03T10:39:02Z</time></trkpt><trkpt lat="37.4775658619212" lon="14.303496639029515"><ele>808.0</ele><time>2026-05-03T10:39:04Z</time></trkpt><trkpt lat="37.47765095976887" lon="14.30342137671208"><ele>808.0</ele><time>2026-05-03T10:39:06Z</time></trkpt><trkpt lat="37.477718720034275" lon="14.303394589542775"><ele>808.0</ele><time>2026-05-03T10:39:07Z</time></trkpt><trkpt lat="37.47779160452267" lon="14.303378742946476"><ele>807.9999999999999</ele><time>2026-05-03T10:39:08Z</time></trkpt><trkpt lat="37.477855436598055" lon="14.303337568225748"><ele>808.0</ele><time>2026-05-03T10:39:09Z</time></trkpt><trkpt lat="37.47792811356252" lon="14.303254873625077"><ele>807.1666666666666</ele><time>2026-05-03T10:39:11Z</time></trkpt><trkpt lat="37.4779686103433" lon="14.303112103928921"><ele>806.3333333333333</ele><time>2026-05-03T10:39:13Z</time></trkpt><trkpt lat="37.47796140262707" lon="14.303017052099552"><ele>805.5</ele><time>2026-05-03T10:39:14Z</time></trkpt><trkpt lat="37.47798148629912" lon="14.30293632096705"><ele>804.6666666666667</ele><time>2026-05-03T10:39:15Z</time></trkpt><trkpt lat="37.47799387329922" lon="14.30284793470572"><ele>803.8333333333334</ele><time>2026-05-03T10:39:16Z</time></trkpt><trkpt lat="37.478043349529514" lon="14.302754590513775"><ele>803.0</ele><time>2026-05-03T10:39:17Z</time></trkpt><trkpt lat="37.47809401196567" lon="14.302692784066297"><ele>801.25</ele><time>2026-05-03T10:39:18Z</time></trkpt><trkpt lat="37.478128680313226" lon="14.3026170428243"><ele>799.5</ele><time>2026-05-03T10:39:19Z</time></trkpt><trkpt lat="37.47825034625039" lon="14.302555130179927"><ele>797.75</ele><time>2026-05-03T10:39:21Z</time></trkpt><trkpt lat="37.478309276075" lon="14.30239302934185"><ele>796.0</ele><time>2026-05-03T10:39:23Z</time></trkpt><trkpt lat="37.47838608670858" lon="14.302276670424304"><ele>793.0</ele><time>2026-05-03T10:39:25Z</time></trkpt><trkpt lat="37.47845480669528" lon="14.302228112465459"><ele>790.0</ele><time>2026-05-03T10:39:26Z</time></trkpt><trkpt lat="37.47853048140479" lon="14.302162441747651"><ele>787.0</ele><time>2026-05-03T10:39:27Z</time></trkpt><trkpt lat="37.47861547298019" lon="14.302070543830467"><ele>784.0</ele><time>2026-05-03T10:39:28Z</time></trkpt><trkpt lat="37.47868710537496" lon="14.301999865529938"><ele>781.0</ele><time>2026-05-03T10:39:29Z</time></trkpt><trkpt lat="37.47875997665242" lon="14.301926813355992"><ele>781.8</ele><time>2026-05-03T10:39:30Z</time></trkpt><trkpt lat="37.478824532384685" lon="14.301842586423804"><ele>782.5999999999999</ele><time>2026-05-03T10:39:31Z</time></trkpt><trkpt lat="37.47885922549738" lon="14.30174022967222"><ele>783.4</ele><time>2026-05-03T10:39:32Z</time></trkpt><trkpt lat="37.47888633151938" lon="14.301611221004677"><ele>784.2</ele><time>2026-05-03T10:39:33Z</time></trkpt><trkpt lat="37.47894403573579" lon="14.301495877496624"><ele>785.0</ele><time>2026-05-03T10:39:34Z</time></trkpt><trkpt lat="37.47897573040222" lon="14.301407303033924"><ele>785.0000000000001</ele><time>2026-05-03T10:39:35Z</time></trkpt><trkpt lat="37.479006477573755" lon="14.30132742676231"><ele>785.0</ele><time>2026-05-03T10:39:36Z</time></trkpt><trkpt lat="37.47903025273275" lon="14.301224434449884"><ele>785.0</ele><time>2026-05-03T10:39:37Z</time></trkpt><trkpt lat="37.47905348267778" lon="14.301102234057065"><ele>785.0</ele><time>2026-05-03T10:39:38Z</time></trkpt><trkpt lat="37.47908726107581" lon="14.300979924489392"><ele>785.0000000000001</ele><time>2026-05-03T10:39:39Z</time></trkpt><trkpt lat="37.47910566903416" lon="14.300887788251703"><ele>785.0</ele><time>2026-05-03T10:39:40Z</time></trkpt><trkpt lat="37.47912372556804" lon="14.300800317420881"><ele>785.0</ele><time>2026-05-03T10:39:41Z</time></trkpt><trkpt lat="37.47915494947726" lon="14.300702195645435"><ele>785.0</ele><time>2026-05-03T10:39:42Z</time></trkpt><trkpt lat="37.47921441279883" lon="14.300615154699425"><ele>785.0</ele><time>2026-05-03T10:39:43Z</time></trkpt><trkpt lat="37.4792382180584" lon="14.300517151167837"><ele>785.0</ele><time>2026-05-03T10:39:44Z</time></trkpt><trkpt lat="37.47922230941276" lon="14.300368345758038"><ele>785.0</ele><time>2026-05-03T10:39:46Z</time></trkpt><trkpt lat="37.47920758941002" lon="14.300249366102522"><ele>785.4</ele><time>2026-05-03T10:39:47Z</time></trkpt><trkpt lat="37.4791916467003" lon="14.300122177388054"><ele>785.8</ele><time>2026-05-03T10:39:48Z</time></trkpt><trkpt lat="37.47918166637653" lon="14.299983013674085"><ele>786.2</ele><time>2026-05-03T10:39:49Z</time></trkpt><trkpt lat="37.47916750358164" lon="14.299840087101455"><ele>786.6</ele><time>2026-05-03T10:39:50Z</time></trkpt><trkpt lat="37.47915443952726" lon="14.299700347090024"><ele>787.0</ele><time>2026-05-03T10:39:51Z</time></trkpt><trkpt lat="37.47915144747547" lon="14.299586162577247"><ele>787.6666666666666</ele><time>2026-05-03T10:39:52Z</time></trkpt><trkpt lat="37.479130859820614" lon="14.299473646258372"><ele>788.3333333333333</ele><time>2026-05-03T10:39:53Z</time></trkpt><trkpt lat="37.4791235194674" lon="14.299371712758107"><ele>789.0</ele><time>2026-05-03T10:39:54Z</time></trkpt><trkpt lat="37.47910605763307" lon="14.299270308315975"><ele>789.6666666666667</ele><time>2026-05-03T10:39:55Z</time></trkpt><trkpt lat="37.47907326210862" lon="14.299202505017021"><ele>790.3333333333334</ele><time>2026-05-03T10:39:56Z</time></trkpt><trkpt lat="37.47902202446935" lon="14.299124636195291"><ele>791.0</ele><time>2026-05-03T10:39:57Z</time></trkpt><trkpt lat="37.47896467544469" lon="14.299045282660423"><ele>791.0</ele><time>2026-05-03T10:39:58Z</time></trkpt><trkpt lat="37.478912939143896" lon="14.298960292173804"><ele>791.0</ele><time>2026-05-03T10:39:59Z</time></trkpt><trkpt lat="37.47882652332019" lon="14.298812358289194"><ele>791.0</ele><time>2026-05-03T10:40:01Z</time></trkpt><trkpt lat="37.47875402218233" lon="14.298728332567634"><ele>791.0</ele><time>2026-05-03T10:40:02Z</time></trkpt><trkpt lat="37.47869275523284" lon="14.29863893871449"><ele>791.0</ele><time>2026-05-03T10:40:03Z</time></trkpt><trkpt lat="37.478652724854484" lon="14.2985194848992"><ele>789.5</ele><time>2026-05-03T10:40:04Z</time></trkpt><trkpt lat="37.47857664132098" lon="14.298392654689923"><ele>788.0</ele><time>2026-05-03T10:40:05Z</time></trkpt><trkpt lat="37.4785057860594" lon="14.298276424650757"><ele>786.5</ele><time>2026-05-03T10:40:06Z</time></trkpt><trkpt lat="37.47843367380086" lon="14.298165434825153"><ele>785.0</ele><time>2026-05-03T10:40:07Z</time></trkpt><trkpt lat="37.47836977227556" lon="14.298028963316018"><ele>788.8</ele><time>2026-05-03T10:40:08Z</time></trkpt><trkpt lat="37.47832336268928" lon="14.297909388959535"><ele>792.6</ele><time>2026-05-03T10:40:09Z</time></trkpt><trkpt lat="37.47827928698053" lon="14.297801127043872"><ele>796.4000000000001</ele><time>2026-05-03T10:40:10Z</time></trkpt><trkpt lat="37.47822105097936" lon="14.297697245819217"><ele>800.2</ele><time>2026-05-03T10:40:11Z</time></trkpt><trkpt lat="37.47814589073738" lon="14.297574492941246"><ele>804.0</ele><time>2026-05-03T10:40:12Z</time></trkpt><trkpt lat="37.47808282753088" lon="14.297469019929846"><ele>804.0</ele><time>2026-05-03T10:40:13Z</time></trkpt><trkpt lat="37.47806403297136" lon="14.297356710824422"><ele>804.0</ele><time>2026-05-03T10:40:14Z</time></trkpt><trkpt lat="37.478063271220826" lon="14.297245234761865"><ele>804.0</ele><time>2026-05-03T10:40:15Z</time></trkpt><trkpt lat="37.478070381238105" lon="14.297132520692937"><ele>804.0</ele><time>2026-05-03T10:40:16Z</time></trkpt><trkpt lat="37.47808137889732" lon="14.296996642788995"><ele>804.0</ele><time>2026-05-03T10:40:17Z</time></trkpt><trkpt lat="37.47810395316908" lon="14.296831420121782"><ele>804.75</ele><time>2026-05-03T10:40:18Z</time></trkpt><trkpt lat="37.47813389544729" lon="14.296708240053537"><ele>805.5</ele><time>2026-05-03T10:40:19Z</time></trkpt><trkpt lat="37.47817936468863" lon="14.296564376101367"><ele>806.25</ele><time>2026-05-03T10:40:20Z</time></trkpt><trkpt lat="37.4782177363563" lon="14.296378749570529"><ele>807.0</ele><time>2026-05-03T10:40:21Z</time></trkpt><trkpt lat="37.47825432331862" lon="14.29622423615847"><ele>807.2</ele><time>2026-05-03T10:40:22Z</time></trkpt><trkpt lat="37.47826802707154" lon="14.296096353786455"><ele>807.4000000000001</ele><time>2026-05-03T10:40:23Z</time></trkpt><trkpt lat="37.478308139459074" lon="14.296004067119087"><ele>807.5999999999999</ele><time>2026-05-03T10:40:24Z</time></trkpt><trkpt lat="37.47833247592421" lon="14.295880213531971"><ele>807.8</ele><time>2026-05-03T10:40:25Z</time></trkpt><trkpt lat="37.47838299393256" lon="14.295751776723714"><ele>808.0</ele><time>2026-05-03T10:40:26Z</time></trkpt><trkpt lat="37.47841705730588" lon="14.295631739032943"><ele>808.0</ele><time>2026-05-03T10:40:27Z</time></trkpt><trkpt lat="37.478432363176985" lon="14.295513391420542"><ele>808.0</ele><time>2026-05-03T10:40:28Z</time></trkpt><trkpt lat="37.4784396751615" lon="14.295359284314877"><ele>808.0</ele><time>2026-05-03T10:40:29Z</time></trkpt><trkpt lat="37.47845170553683" lon="14.295237112819919"><ele>808.0</ele><time>2026-05-03T10:40:30Z</time></trkpt><trkpt lat="37.47841173136285" lon="14.295078319859993"><ele>808.0</ele><time>2026-05-03T10:40:32Z</time></trkpt><trkpt lat="37.47840240769952" lon="14.294973063513254"><ele>807.9999999999999</ele><time>2026-05-03T10:40:33Z</time></trkpt><trkpt lat="37.478456289434014" lon="14.294894696626722"><ele>808.0</ele><time>2026-05-03T10:40:34Z</time></trkpt><trkpt lat="37.47847400444639" lon="14.294795093820614"><ele>808.0</ele><time>2026-05-03T10:40:35Z</time></trkpt><trkpt lat="37.47847831926591" lon="14.294707662516247"><ele>808.0</ele><time>2026-05-03T10:40:36Z</time></trkpt><trkpt lat="37.478402350118174" lon="14.294648588883339"><ele>807.9999999999999</ele><time>2026-05-03T10:40:37Z</time></trkpt><trkpt lat="37.47833797799393" lon="14.29452833960665"><ele>808.0</ele><time>2026-05-03T10:40:38Z</time></trkpt><trkpt lat="37.4782314259813" lon="14.294370375037289"><ele>807.3333333333333</ele><time>2026-05-03T10:40:39Z</time></trkpt><trkpt lat="37.4781349791303" lon="14.294246004796072"><ele>806.6666666666667</ele><time>2026-05-03T10:40:40Z</time></trkpt><trkpt lat="37.47798107013625" lon="14.294144840221312"><ele>806.0</ele><time>2026-05-03T10:40:41Z</time></trkpt><trkpt lat="37.477853868085056" lon="14.294075460296549"><ele>806.0</ele><time>2026-05-03T10:40:42Z</time></trkpt><trkpt lat="37.477739481304916" lon="14.2940068703152"><ele>806.0</ele><time>2026-05-03T10:40:43Z</time></trkpt><trkpt lat="37.4775999720825" lon="14.293986708685665"><ele>806.0</ele><time>2026-05-03T10:40:44Z</time></trkpt><trkpt lat="37.47746385380602" lon="14.2939427319982"><ele>806.0</ele><time>2026-05-03T10:40:45Z</time></trkpt><trkpt lat="37.47730377605338" lon="14.293895032779524"><ele>808.25</ele><time>2026-05-03T10:40:46Z</time></trkpt><trkpt lat="37.47716268850138" lon="14.293847618793365"><ele>810.5</ele><time>2026-05-03T10:40:47Z</time></trkpt><trkpt lat="37.47703128622222" lon="14.293796819030483"><ele>812.75</ele><time>2026-05-03T10:40:48Z</time></trkpt><trkpt lat="37.47692417512056" lon="14.293776958414364"><ele>815.0</ele><time>2026-05-03T10:40:49Z</time></trkpt><trkpt lat="37.476846016152" lon="14.293730605377561"><ele>815.0</ele><time>2026-05-03T10:40:50Z</time></trkpt><trkpt lat="37.47678960523987" lon="14.293661466921922"><ele>815.0</ele><time>2026-05-03T10:40:51Z</time></trkpt><trkpt lat="37.47674459873292" lon="14.293595183668103"><ele>815.0</ele><time>2026-05-03T10:40:52Z</time></trkpt><trkpt lat="37.47670079946077" lon="14.293503494866098"><ele>815.0</ele><time>2026-05-03T10:40:53Z</time></trkpt><trkpt lat="37.47662784237916" lon="14.293358940747574"><ele>815.0</ele><time>2026-05-03T10:40:54Z</time></trkpt><trkpt lat="37.47654430392266" lon="14.293220704698664"><ele>816.3333333333334</ele><time>2026-05-03T10:40:55Z</time></trkpt><trkpt lat="37.47647258262624" lon="14.293067305166929"><ele>817.6666666666667</ele><time>2026-05-03T10:40:56Z</time></trkpt><trkpt lat="37.476362477291126" lon="14.29288204191428"><ele>819.0</ele><time>2026-05-03T10:40:57Z</time></trkpt><trkpt lat="37.476271237742836" lon="14.292706879854322"><ele>817.0</ele><time>2026-05-03T10:40:58Z</time></trkpt><trkpt lat="37.47617122912073" lon="14.29255262747623"><ele>815.0</ele><time>2026-05-03T10:40:59Z</time></trkpt><trkpt lat="37.47608104460796" lon="14.292397214579795"><ele>813.0</ele><time>2026-05-03T10:41:00Z</time></trkpt><trkpt lat="37.47599831564815" lon="14.292269254545362"><ele>811.0</ele><time>2026-05-03T10:41:01Z</time></trkpt><trkpt lat="37.475915381580045" lon="14.292153200575646"><ele>811.0</ele><time>2026-05-03T10:41:02Z</time></trkpt><trkpt lat="37.475823682380664" lon="14.292046987226767"><ele>811.0</ele><time>2026-05-03T10:41:03Z</time></trkpt><trkpt lat="37.475735789479934" lon="14.291929730272525"><ele>811.0</ele><time>2026-05-03T10:41:04Z</time></trkpt><trkpt lat="37.47566719627414" lon="14.291798168740874"><ele>811.0</ele><time>2026-05-03T10:41:05Z</time></trkpt><trkpt lat="37.47557754262624" lon="14.291672824688344"><ele>811.0</ele><time>2026-05-03T10:41:06Z</time></trkpt><trkpt lat="37.475513689942915" lon="14.291552070623274"><ele>811.0</ele><time>2026-05-03T10:41:07Z</time></trkpt><trkpt lat="37.47547599863783" lon="14.291421839269553"><ele>811.0</ele><time>2026-05-03T10:41:08Z</time></trkpt><trkpt lat="37.47543258592579" lon="14.291244042766523"><ele>811.0</ele><time>2026-05-03T10:41:09Z</time></trkpt><trkpt lat="37.47537390895144" lon="14.29105286295003"><ele>808.25</ele><time>2026-05-03T10:41:10Z</time></trkpt><trkpt lat="37.47536463626946" lon="14.290914019974528"><ele>805.5</ele><time>2026-05-03T10:41:11Z</time></trkpt><trkpt lat="37.475404444371364" lon="14.290819295287564"><ele>802.75</ele><time>2026-05-03T10:41:12Z</time></trkpt><trkpt lat="37.47542419047261" lon="14.2906669242692"><ele>800.0</ele><time>2026-05-03T10:41:13Z</time></trkpt><trkpt lat="37.475431236387585" lon="14.290482900214263"><ele>800.0</ele><time>2026-05-03T10:41:14Z</time></trkpt><trkpt lat="37.47541278932345" lon="14.290285744156684"><ele>800.0</ele><time>2026-05-03T10:41:15Z</time></trkpt><trkpt lat="37.475399913180915" lon="14.290105491354769"><ele>800.0</ele><time>2026-05-03T10:41:16Z</time></trkpt><trkpt lat="37.47539122515226" lon="14.289973257495"><ele>800.0</ele><time>2026-05-03T10:41:17Z</time></trkpt><trkpt lat="37.47537519309141" lon="14.289868614488174"><ele>800.0</ele><time>2026-05-03T10:41:18Z</time></trkpt><trkpt lat="37.47539218328075" lon="14.289785658046213"><ele>800.0</ele><time>2026-05-03T10:41:19Z</time></trkpt><trkpt lat="37.475454297741535" lon="14.289739020171938"><ele>800.0</ele><time>2026-05-03T10:41:20Z</time></trkpt><trkpt lat="37.475519334127476" lon="14.289625785979355"><ele>800.0</ele><time>2026-05-03T10:41:21Z</time></trkpt><trkpt lat="37.47559504794567" lon="14.28944777110147"><ele>800.0</ele><time>2026-05-03T10:41:22Z</time></trkpt><trkpt lat="37.47563737707102" lon="14.289343862078454"><ele>798.6666666666667</ele><time>2026-05-03T10:41:23Z</time></trkpt><trkpt lat="37.47563360481866" lon="14.289103401864999"><ele>797.3333333333333</ele><time>2026-05-03T10:41:25Z</time></trkpt><trkpt lat="37.4756892998003" lon="14.288944877738816"><ele>796.0</ele><time>2026-05-03T10:41:26Z</time></trkpt><trkpt lat="37.475753960009435" lon="14.288810971639725"><ele>796.0</ele><time>2026-05-03T10:41:27Z</time></trkpt><trkpt lat="37.47580949439682" lon="14.288741759835526"><ele>796.0</ele><time>2026-05-03T10:41:28Z</time></trkpt><trkpt lat="37.475884742150484" lon="14.288628545549761"><ele>796.0</ele><time>2026-05-03T10:41:29Z</time></trkpt><trkpt lat="37.4759456964926" lon="14.288494062603492"><ele>796.0</ele><time>2026-05-03T10:41:30Z</time></trkpt><trkpt lat="37.47599257750384" lon="14.288353446664964"><ele>796.0</ele><time>2026-05-03T10:41:31Z</time></trkpt><trkpt lat="37.47602383991128" lon="14.288207511063327"><ele>793.5</ele><time>2026-05-03T10:41:32Z</time></trkpt><trkpt lat="37.47606769856209" lon="14.288064261382754"><ele>791.0</ele><time>2026-05-03T10:41:33Z</time></trkpt><trkpt lat="37.47612025078615" lon="14.287877615816997"><ele>788.5</ele><time>2026-05-03T10:41:34Z</time></trkpt><trkpt lat="37.47618384484062" lon="14.287711170770356"><ele>786.0</ele><time>2026-05-03T10:41:35Z</time></trkpt><trkpt lat="37.476230272567676" lon="14.287565750438024"><ele>788.0</ele><time>2026-05-03T10:41:36Z</time></trkpt><trkpt lat="37.47629079555666" lon="14.287400392019558"><ele>790.0</ele><time>2026-05-03T10:41:37Z</time></trkpt><trkpt lat="37.47635816564848" lon="14.287205757918453"><ele>792.0</ele><time>2026-05-03T10:41:38Z</time></trkpt><trkpt lat="37.47640184940163" lon="14.287036777762347"><ele>789.0</ele><time>2026-05-03T10:41:39Z</time></trkpt><trkpt lat="37.47644308280399" lon="14.28684426379099"><ele>786.0</ele><time>2026-05-03T10:41:40Z</time></trkpt><trkpt lat="37.47647852905661" lon="14.286666054040124"><ele>783.0</ele><time>2026-05-03T10:41:41Z</time></trkpt><trkpt lat="37.47650521269713" lon="14.286512265674663"><ele>780.0</ele><time>2026-05-03T10:41:42Z</time></trkpt><trkpt lat="37.476515978764795" lon="14.286393176706044"><ele>778.8</ele><time>2026-05-03T10:41:43Z</time></trkpt><trkpt lat="37.476534342687934" lon="14.286235114993692"><ele>777.6</ele><time>2026-05-03T10:41:44Z</time></trkpt><trkpt lat="37.4765610012301" lon="14.286112426938695"><ele>776.4000000000001</ele><time>2026-05-03T10:41:45Z</time></trkpt><trkpt lat="37.47657866300123" lon="14.286007219628353"><ele>775.2</ele><time>2026-05-03T10:41:46Z</time></trkpt><trkpt lat="37.476588559809265" lon="14.285921926193407"><ele>774.0</ele><time>2026-05-03T10:41:47Z</time></trkpt><trkpt lat="37.47668746966999" lon="14.285979015424552"><ele>774.0</ele><time>2026-05-03T10:43:38Z</time></trkpt><trkpt lat="37.476812092068734" lon="14.286018729956798"><ele>774.0</ele><time>2026-05-03T10:43:40Z</time></trkpt><trkpt lat="37.47691936126787" lon="14.286033815900687"><ele>774.0</ele><time>2026-05-03T10:43:41Z</time></trkpt><trkpt lat="37.47703690243583" lon="14.286086836340099"><ele>774.0</ele><time>2026-05-03T10:43:42Z</time></trkpt><trkpt lat="37.47721471089953" lon="14.286120454962283"><ele>770.3333333333334</ele><time>2026-05-03T10:43:43Z</time></trkpt><trkpt lat="37.47734463477803" lon="14.28619904906175"><ele>766.6666666666667</ele><time>2026-05-03T10:43:44Z</time></trkpt><trkpt lat="37.47747321905497" lon="14.286280044991209"><ele>763.0</ele><time>2026-05-03T10:43:45Z</time></trkpt><trkpt lat="37.47762626693769" lon="14.286397638751987"><ele>762.0</ele><time>2026-05-03T10:43:46Z</time></trkpt><trkpt lat="37.47781055880971" lon="14.28651405303508"><ele>761.0</ele><time>2026-05-03T10:43:47Z</time></trkpt><trkpt lat="37.47800434068389" lon="14.28660602123375"><ele>760.0</ele><time>2026-05-03T10:43:48Z</time></trkpt><trkpt lat="37.47819658401075" lon="14.286757726598253"><ele>760.0</ele><time>2026-05-03T10:43:49Z</time></trkpt><trkpt lat="37.4783866769216" lon="14.286873281052417"><ele>760.0</ele><time>2026-05-03T10:43:50Z</time></trkpt><trkpt lat="37.478557947476055" lon="14.28696856040516"><ele>760.0</ele><time>2026-05-03T10:43:51Z</time></trkpt><trkpt lat="37.47873086422137" lon="14.287062919252918"><ele>758.3333333333334</ele><time>2026-05-03T10:43:52Z</time></trkpt><trkpt lat="37.478890739532105" lon="14.287154046236626"><ele>756.6666666666666</ele><time>2026-05-03T10:43:53Z</time></trkpt><trkpt lat="37.47907910055239" lon="14.28728419664342"><ele>755.0</ele><time>2026-05-03T10:43:54Z</time></trkpt><trkpt lat="37.47925072574703" lon="14.287402625585132"><ele>755.0</ele><time>2026-05-03T10:43:55Z</time></trkpt><trkpt lat="37.47940489352685" lon="14.287506423595879"><ele>755.0</ele><time>2026-05-03T10:43:56Z</time></trkpt><trkpt lat="37.479543583169956" lon="14.287612183307045"><ele>755.0</ele><time>2026-05-03T10:43:57Z</time></trkpt><trkpt lat="37.479657114668484" lon="14.287730791332645"><ele>752.75</ele><time>2026-05-03T10:43:58Z</time></trkpt><trkpt lat="37.47973742921043" lon="14.287844959878145"><ele>750.5</ele><time>2026-05-03T10:43:59Z</time></trkpt><trkpt lat="37.479806900547715" lon="14.287974943637792"><ele>748.25</ele><time>2026-05-03T10:44:00Z</time></trkpt><trkpt lat="37.47987583881583" lon="14.28809686220905"><ele>746.0</ele><time>2026-05-03T10:44:01Z</time></trkpt><trkpt lat="37.479929818251584" lon="14.28821765419194"><ele>746.0</ele><time>2026-05-03T10:44:02Z</time></trkpt><trkpt lat="37.47998533379918" lon="14.288300668994133"><ele>746.0</ele><time>2026-05-03T10:44:03Z</time></trkpt><trkpt lat="37.48005553212897" lon="14.288374034789525"><ele>746.0</ele><time>2026-05-03T10:44:05Z</time></trkpt><trkpt lat="37.48009898746262" lon="14.28855164717773"><ele>746.0</ele><time>2026-05-03T10:44:07Z</time></trkpt><trkpt lat="37.48012859539797" lon="14.288721611797298"><ele>747.0</ele><time>2026-05-03T10:44:08Z</time></trkpt><trkpt lat="37.480151730698886" lon="14.288939825064295"><ele>748.0</ele><time>2026-05-03T10:44:09Z</time></trkpt><trkpt lat="37.48016164754507" lon="14.289135321244782"><ele>749.0</ele><time>2026-05-03T10:44:10Z</time></trkpt><trkpt lat="37.48016967677902" lon="14.289370609844472"><ele>749.0</ele><time>2026-05-03T10:44:11Z</time></trkpt><trkpt lat="37.48018482134629" lon="14.28963730568402"><ele>749.0</ele><time>2026-05-03T10:44:12Z</time></trkpt><trkpt lat="37.480230228922686" lon="14.28990576498657"><ele>749.0</ele><time>2026-05-03T10:44:13Z</time></trkpt><trkpt lat="37.48030426802305" lon="14.290142241141291"><ele>747.6666666666666</ele><time>2026-05-03T10:44:14Z</time></trkpt><trkpt lat="37.480386741493724" lon="14.290384755494093"><ele>746.3333333333334</ele><time>2026-05-03T10:44:15Z</time></trkpt><trkpt lat="37.48047235272794" lon="14.290581127734757"><ele>745.0</ele><time>2026-05-03T10:44:16Z</time></trkpt><trkpt lat="37.48055325959102" lon="14.29076082082631"><ele>745.0</ele><time>2026-05-03T10:44:17Z</time></trkpt><trkpt lat="37.48064152464412" lon="14.290922136302475"><ele>745.0</ele><time>2026-05-03T10:44:18Z</time></trkpt><trkpt lat="37.48076566531492" lon="14.29108608691504"><ele>745.0</ele><time>2026-05-03T10:44:19Z</time></trkpt><trkpt lat="37.48090569263456" lon="14.29122123512148"><ele>745.0</ele><time>2026-05-03T10:44:20Z</time></trkpt><trkpt lat="37.48107663726602" lon="14.291314630956533"><ele>745.0</ele><time>2026-05-03T10:44:21Z</time></trkpt><trkpt lat="37.481278610174755" lon="14.291360228214343"><ele>745.0</ele><time>2026-05-03T10:44:22Z</time></trkpt><trkpt lat="37.48150257642659" lon="14.291370965710259"><ele>741.0</ele><time>2026-05-03T10:44:23Z</time></trkpt><trkpt lat="37.48169078125271" lon="14.291351218872391"><ele>737.0</ele><time>2026-05-03T10:44:24Z</time></trkpt><trkpt lat="37.48186426082159" lon="14.291338095198862"><ele>733.0</ele><time>2026-05-03T10:44:25Z</time></trkpt><trkpt lat="37.48201913924368" lon="14.291347754576433"><ele>733.0</ele><time>2026-05-03T10:44:26Z</time></trkpt><trkpt lat="37.48212096979962" lon="14.291432754227044"><ele>733.0</ele><time>2026-05-03T10:44:27Z</time></trkpt><trkpt lat="37.482200238670764" lon="14.291547251810996"><ele>733.0</ele><time>2026-05-03T10:44:28Z</time></trkpt><trkpt lat="37.48225940188755" lon="14.291693561929861"><ele>733.0</ele><time>2026-05-03T10:44:29Z</time></trkpt><trkpt lat="37.48228959526445" lon="14.29186489855123"><ele>733.0</ele><time>2026-05-03T10:44:30Z</time></trkpt><trkpt lat="37.48231602164089" lon="14.292060985166133"><ele>733.0</ele><time>2026-05-03T10:44:31Z</time></trkpt><trkpt lat="37.482354651309855" lon="14.292300462285594"><ele>733.0</ele><time>2026-05-03T10:44:32Z</time></trkpt><trkpt lat="37.48239178930107" lon="14.292530691814765"><ele>734.3333333333334</ele><time>2026-05-03T10:44:33Z</time></trkpt><trkpt lat="37.482428310769976" lon="14.292733442036031"><ele>735.6666666666666</ele><time>2026-05-03T10:44:34Z</time></trkpt><trkpt lat="37.482465773601106" lon="14.292912046863648"><ele>737.0</ele><time>2026-05-03T10:44:35Z</time></trkpt><trkpt lat="37.48253495614746" lon="14.293084171532357"><ele>739.0</ele><time>2026-05-03T10:44:36Z</time></trkpt><trkpt lat="37.482595707102206" lon="14.293235891980796"><ele>741.0</ele><time>2026-05-03T10:44:37Z</time></trkpt><trkpt lat="37.48273883864094" lon="14.29337236849377"><ele>743.0</ele><time>2026-05-03T10:44:38Z</time></trkpt><trkpt lat="37.482918242985846" lon="14.29347454166478"><ele>736.0</ele><time>2026-05-03T10:44:39Z</time></trkpt><trkpt lat="37.483139415606054" lon="14.293560216816589"><ele>729.0</ele><time>2026-05-03T10:44:40Z</time></trkpt><trkpt lat="37.4833637038451" lon="14.29360624120785"><ele>729.0</ele><time>2026-05-03T10:44:41Z</time></trkpt><trkpt lat="37.48357305458102" lon="14.293661690851444"><ele>729.0</ele><time>2026-05-03T10:44:42Z</time></trkpt><trkpt lat="37.483756568269385" lon="14.293706731396776"><ele>729.0</ele><time>2026-05-03T10:44:43Z</time></trkpt><trkpt lat="37.483926455843466" lon="14.293761304952634"><ele>729.0</ele><time>2026-05-03T10:44:44Z</time></trkpt><trkpt lat="37.4840674897315" lon="14.29387350146933"><ele>729.0</ele><time>2026-05-03T10:44:45Z</time></trkpt><trkpt lat="37.48420485672618" lon="14.294010648569868"><ele>729.0</ele><time>2026-05-03T10:44:46Z</time></trkpt><trkpt lat="37.48434820882362" lon="14.294179109180806"><ele>729.0</ele><time>2026-05-03T10:44:47Z</time></trkpt><trkpt lat="37.484438429098084" lon="14.29435173263621"><ele>729.0</ele><time>2026-05-03T10:44:48Z</time></trkpt><trkpt lat="37.484490125439514" lon="14.294534182072763"><ele>729.0</ele><time>2026-05-03T10:44:49Z</time></trkpt><trkpt lat="37.48451920813106" lon="14.294749324721403"><ele>732.6666666666666</ele><time>2026-05-03T10:44:50Z</time></trkpt><trkpt lat="37.48454760286136" lon="14.294986198521812"><ele>736.3333333333333</ele><time>2026-05-03T10:44:51Z</time></trkpt><trkpt lat="37.48455774651357" lon="14.295250114948894"><ele>740.0</ele><time>2026-05-03T10:44:52Z</time></trkpt><trkpt lat="37.48454695527563" lon="14.295491403364066"><ele>740.0</ele><time>2026-05-03T10:44:53Z</time></trkpt><trkpt lat="37.48454317310128" lon="14.295731165461726"><ele>740.0</ele><time>2026-05-03T10:44:54Z</time></trkpt><trkpt lat="37.48458575043844" lon="14.295995047029392"><ele>740.0</ele><time>2026-05-03T10:44:55Z</time></trkpt><trkpt lat="37.48463121088468" lon="14.296219668312515"><ele>733.3333333333333</ele><time>2026-05-03T10:44:56Z</time></trkpt><trkpt lat="37.48470153076477" lon="14.296447311346515"><ele>726.6666666666666</ele><time>2026-05-03T10:44:57Z</time></trkpt><trkpt lat="37.484807286061645" lon="14.296671394247364"><ele>720.0</ele><time>2026-05-03T10:44:58Z</time></trkpt><trkpt lat="37.4849573746484" lon="14.296871165439363"><ele>720.0</ele><time>2026-05-03T10:44:59Z</time></trkpt><trkpt lat="37.48514828956224" lon="14.297096795251461"><ele>720.0</ele><time>2026-05-03T10:45:00Z</time></trkpt><trkpt lat="37.485317367639" lon="14.297304332258104"><ele>717.0</ele><time>2026-05-03T10:45:01Z</time></trkpt><trkpt lat="37.48550403362823" lon="14.297511315238951"><ele>714.0</ele><time>2026-05-03T10:45:02Z</time></trkpt><trkpt lat="37.48566072428954" lon="14.29769281980774"><ele>714.0</ele><time>2026-05-03T10:45:03Z</time></trkpt><trkpt lat="37.4857760551453" lon="14.297856163133163"><ele>714.0</ele><time>2026-05-03T10:45:04Z</time></trkpt><trkpt lat="37.48588875961524" lon="14.29800156453738"><ele>714.0</ele><time>2026-05-03T10:45:05Z</time></trkpt><trkpt lat="37.485983149665245" lon="14.29814442118245"><ele>715.25</ele><time>2026-05-03T10:45:06Z</time></trkpt><trkpt lat="37.486036024008676" lon="14.298293607818614"><ele>716.5</ele><time>2026-05-03T10:45:07Z</time></trkpt><trkpt lat="37.48606614140994" lon="14.298459600514134"><ele>717.75</ele><time>2026-05-03T10:45:08Z</time></trkpt><trkpt lat="37.486055624591216" lon="14.298654516004918"><ele>719.0</ele><time>2026-05-03T10:45:09Z</time></trkpt><trkpt lat="37.486023549837455" lon="14.298893834251972"><ele>718.3333333333333</ele><time>2026-05-03T10:45:10Z</time></trkpt><trkpt lat="37.48599545841259" lon="14.299143139539725"><ele>717.6666666666666</ele><time>2026-05-03T10:45:11Z</time></trkpt><trkpt lat="37.48599479622008" lon="14.299364549090445"><ele>717.0</ele><time>2026-05-03T10:45:12Z</time></trkpt><trkpt lat="37.486042279454004" lon="14.29956832869551"><ele>716.0</ele><time>2026-05-03T10:45:13Z</time></trkpt><trkpt lat="37.48609867834351" lon="14.299770072674178"><ele>715.0</ele><time>2026-05-03T10:45:14Z</time></trkpt><trkpt lat="37.48619360073358" lon="14.29995065197017"><ele>714.0</ele><time>2026-05-03T10:45:15Z</time></trkpt><trkpt lat="37.486335768933074" lon="14.300142263883789"><ele>710.6666666666666</ele><time>2026-05-03T10:45:16Z</time></trkpt><trkpt lat="37.486510509473575" lon="14.30033354448161"><ele>707.3333333333333</ele><time>2026-05-03T10:45:17Z</time></trkpt><trkpt lat="37.486658094633555" lon="14.300512356059905"><ele>704.0</ele><time>2026-05-03T10:45:18Z</time></trkpt><trkpt lat="37.486770379585444" lon="14.300748151912767"><ele>704.0</ele><time>2026-05-03T10:45:19Z</time></trkpt><trkpt lat="37.48687247467021" lon="14.300989034189717"><ele>704.0</ele><time>2026-05-03T10:45:20Z</time></trkpt><trkpt lat="37.48695794839654" lon="14.301212333752966"><ele>704.0</ele><time>2026-05-03T10:45:21Z</time></trkpt><trkpt lat="37.48704284641806" lon="14.301385087570827"><ele>701.0</ele><time>2026-05-03T10:45:22Z</time></trkpt><trkpt lat="37.48714532422306" lon="14.301560827442536"><ele>698.0</ele><time>2026-05-03T10:45:23Z</time></trkpt><trkpt lat="37.48729649533198" lon="14.301694292008326"><ele>695.0</ele><time>2026-05-03T10:45:24Z</time></trkpt><trkpt lat="37.48747932801598" lon="14.301790467080789"><ele>695.0</ele><time>2026-05-03T10:45:25Z</time></trkpt><trkpt lat="37.48768243081245" lon="14.301827611416055"><ele>695.0</ele><time>2026-05-03T10:45:26Z</time></trkpt><trkpt lat="37.48788644920636" lon="14.30183286461339"><ele>695.0</ele><time>2026-05-03T10:45:27Z</time></trkpt><trkpt lat="37.48807691128845" lon="14.301873470035533"><ele>692.6666666666666</ele><time>2026-05-03T10:45:28Z</time></trkpt><trkpt lat="37.48824142330852" lon="14.302012662282971"><ele>690.3333333333334</ele><time>2026-05-03T10:45:29Z</time></trkpt><trkpt lat="37.48839925879715" lon="14.302119594967289"><ele>688.0</ele><time>2026-05-03T10:45:30Z</time></trkpt><trkpt lat="37.48854623929647" lon="14.302207842482957"><ele>688.0</ele><time>2026-05-03T10:45:31Z</time></trkpt><trkpt lat="37.48869689647749" lon="14.302232150437197"><ele>688.0</ele><time>2026-05-03T10:45:32Z</time></trkpt><trkpt lat="37.48884614221901" lon="14.302177659993669"><ele>688.0</ele><time>2026-05-03T10:45:33Z</time></trkpt><trkpt lat="37.48899690042317" lon="14.302076885863727"><ele>687.3333333333334</ele><time>2026-05-03T10:45:34Z</time></trkpt><trkpt lat="37.48915695682219" lon="14.301924758213817"><ele>686.6666666666666</ele><time>2026-05-03T10:45:35Z</time></trkpt><trkpt lat="37.489335009262334" lon="14.301744532382338"><ele>686.0</ele><time>2026-05-03T10:45:36Z</time></trkpt><trkpt lat="37.48949268685036" lon="14.301612317941562"><ele>686.3333333333333</ele><time>2026-05-03T10:45:37Z</time></trkpt><trkpt lat="37.489644366257096" lon="14.301513220634046"><ele>686.6666666666666</ele><time>2026-05-03T10:45:38Z</time></trkpt><trkpt lat="37.48978436688643" lon="14.301435187957583"><ele>687.0</ele><time>2026-05-03T10:45:39Z</time></trkpt><trkpt lat="37.489914476184" lon="14.301369062052219"><ele>686.4000000000001</ele><time>2026-05-03T10:45:40Z</time></trkpt><trkpt lat="37.490034855143044" lon="14.301311588266719"><ele>685.8000000000001</ele><time>2026-05-03T10:45:41Z</time></trkpt><trkpt lat="37.49015035096291" lon="14.301269023807604"><ele>685.2</ele><time>2026-05-03T10:45:42Z</time></trkpt><trkpt lat="37.49024443820689" lon="14.301242627758038"><ele>684.6</ele><time>2026-05-03T10:45:43Z</time></trkpt><trkpt lat="37.49031403164425" lon="14.301239066846202"><ele>684.0</ele><time>2026-05-03T10:45:44Z</time></trkpt><trkpt lat="37.49041546808401" lon="14.301234763440542"><ele>684.3333333333334</ele><time>2026-05-03T10:45:46Z</time></trkpt><trkpt lat="37.49048052545493" lon="14.301234366428265"><ele>684.6666666666666</ele><time>2026-05-03T10:45:49Z</time></trkpt><trkpt lat="37.490603848802884" lon="14.301292568349634"><ele>685.0</ele><time>2026-05-03T10:47:24Z</time></trkpt><trkpt lat="37.49067245759938" lon="14.30132968794008"><ele>685.3333333333333</ele><time>2026-05-03T10:47:25Z</time></trkpt><trkpt lat="37.490739175407946" lon="14.301358172152028"><ele>685.6666666666666</ele><time>2026-05-03T10:47:26Z</time></trkpt><trkpt lat="37.490820920391506" lon="14.301392340064469"><ele>686.0</ele><time>2026-05-03T10:47:27Z</time></trkpt><trkpt lat="37.49092057465811" lon="14.301433251987001"><ele>686.0</ele><time>2026-05-03T10:47:28Z</time></trkpt><trkpt lat="37.49106050430804" lon="14.30149737771844"><ele>686.0</ele><time>2026-05-03T10:47:29Z</time></trkpt><trkpt lat="37.49120296926626" lon="14.30160796333387"><ele>686.0</ele><time>2026-05-03T10:47:30Z</time></trkpt><trkpt lat="37.49135127987484" lon="14.301716458066808"><ele>687.3333333333333</ele><time>2026-05-03T10:47:31Z</time></trkpt><trkpt lat="37.49146704644112" lon="14.301832128771887"><ele>688.6666666666666</ele><time>2026-05-03T10:47:32Z</time></trkpt><trkpt lat="37.491587910974" lon="14.30196540361086"><ele>690.0</ele><time>2026-05-03T10:47:33Z</time></trkpt><trkpt lat="37.49171246396999" lon="14.30212924887275"><ele>689.0</ele><time>2026-05-03T10:47:34Z</time></trkpt><trkpt lat="37.491829496731754" lon="14.302332453513959"><ele>688.0</ele><time>2026-05-03T10:47:35Z</time></trkpt><trkpt lat="37.49193901582547" lon="14.3025650269361"><ele>687.0</ele><time>2026-05-03T10:47:36Z</time></trkpt><trkpt lat="37.492014764595204" lon="14.302790046358572"><ele>687.0</ele><time>2026-05-03T10:47:37Z</time></trkpt><trkpt lat="37.49208704534933" lon="14.30302818895751"><ele>687.0</ele><time>2026-05-03T10:47:38Z</time></trkpt><trkpt lat="37.492155093874075" lon="14.303266426596473"><ele>687.0</ele><time>2026-05-03T10:47:39Z</time></trkpt><trkpt lat="37.492219556298" lon="14.303493488665154"><ele>689.0</ele><time>2026-05-03T10:47:40Z</time></trkpt><trkpt lat="37.49228536753583" lon="14.30371710794734"><ele>691.0</ele><time>2026-05-03T10:47:41Z</time></trkpt><trkpt lat="37.49236313660741" lon="14.30393714374718"><ele>693.0</ele><time>2026-05-03T10:47:42Z</time></trkpt><trkpt lat="37.49247945117987" lon="14.304135695543044"><ele>693.0</ele><time>2026-05-03T10:47:43Z</time></trkpt><trkpt lat="37.49260560453866" lon="14.304357292888154"><ele>693.0</ele><time>2026-05-03T10:47:44Z</time></trkpt><trkpt lat="37.49274955605376" lon="14.304548881643537"><ele>693.0</ele><time>2026-05-03T10:47:45Z</time></trkpt><trkpt lat="37.49290768199346" lon="14.304716596496288"><ele>695.0</ele><time>2026-05-03T10:47:46Z</time></trkpt><trkpt lat="37.49308662079695" lon="14.304860405442206"><ele>697.0</ele><time>2026-05-03T10:47:47Z</time></trkpt><trkpt lat="37.493283838413404" lon="14.304974525760926"><ele>699.0</ele><time>2026-05-03T10:47:48Z</time></trkpt><trkpt lat="37.493493352181275" lon="14.305061119413926"><ele>699.0</ele><time>2026-05-03T10:47:49Z</time></trkpt><trkpt lat="37.493709493551336" lon="14.30511895854247"><ele>699.0</ele><time>2026-05-03T10:47:50Z</time></trkpt><trkpt lat="37.493932432251114" lon="14.305166439326374"><ele>699.0</ele><time>2026-05-03T10:47:51Z</time></trkpt><trkpt lat="37.49413424353463" lon="14.3052258910861"><ele>700.0</ele><time>2026-05-03T10:47:52Z</time></trkpt><trkpt lat="37.49435465535703" lon="14.305294993688376"><ele>701.0</ele><time>2026-05-03T10:47:53Z</time></trkpt><trkpt lat="37.494566472160585" lon="14.305356886706255"><ele>702.0</ele><time>2026-05-03T10:47:54Z</time></trkpt><trkpt lat="37.49477061822627" lon="14.305415381220326"><ele>702.3333333333334</ele><time>2026-05-03T10:47:55Z</time></trkpt><trkpt lat="37.49496733168012" lon="14.305488223451885"><ele>702.6666666666667</ele><time>2026-05-03T10:47:56Z</time></trkpt><trkpt lat="37.495168775355864" lon="14.305554319565214"><ele>703.0</ele><time>2026-05-03T10:47:57Z</time></trkpt><trkpt lat="37.49536587719351" lon="14.305614779205465"><ele>699.0</ele><time>2026-05-03T10:47:58Z</time></trkpt><trkpt lat="37.49555866592704" lon="14.305684256218106"><ele>695.0</ele><time>2026-05-03T10:47:59Z</time></trkpt><trkpt lat="37.49575357795112" lon="14.305745566352938"><ele>691.0</ele><time>2026-05-03T10:48:00Z</time></trkpt><trkpt lat="37.49594775418287" lon="14.305814711762896"><ele>691.0</ele><time>2026-05-03T10:48:01Z</time></trkpt><trkpt lat="37.49615202063419" lon="14.305888087713978"><ele>691.0</ele><time>2026-05-03T10:48:02Z</time></trkpt><trkpt lat="37.496416704032555" lon="14.305966847085205"><ele>692.0</ele><time>2026-05-03T10:48:03Z</time></trkpt><trkpt lat="37.49666351264195" lon="14.306049459346541"><ele>693.0</ele><time>2026-05-03T10:48:04Z</time></trkpt><trkpt lat="37.49690128945682" lon="14.306124418490775"><ele>697.0</ele><time>2026-05-03T10:48:05Z</time></trkpt><trkpt lat="37.49713404797515" lon="14.306204908569335"><ele>701.0</ele><time>2026-05-03T10:48:06Z</time></trkpt><trkpt lat="37.497360876462366" lon="14.30627881644951"><ele>701.0</ele><time>2026-05-03T10:48:07Z</time></trkpt><trkpt lat="37.497594586117835" lon="14.306346260696454"><ele>701.0</ele><time>2026-05-03T10:48:08Z</time></trkpt><trkpt lat="37.49782272566789" lon="14.306400799048017"><ele>694.0</ele><time>2026-05-03T10:48:09Z</time></trkpt><trkpt lat="37.498047396129046" lon="14.306443638475717"><ele>687.0</ele><time>2026-05-03T10:48:10Z</time></trkpt><trkpt lat="37.498272806030265" lon="14.30647626033486"><ele>687.0</ele><time>2026-05-03T10:48:11Z</time></trkpt><trkpt lat="37.498498814491754" lon="14.306492868412668"><ele>687.0</ele><time>2026-05-03T10:48:12Z</time></trkpt><trkpt lat="37.498728004845255" lon="14.306498177060977"><ele>689.0</ele><time>2026-05-03T10:48:13Z</time></trkpt><trkpt lat="37.49895859089083" lon="14.306494186305686"><ele>691.0</ele><time>2026-05-03T10:48:14Z</time></trkpt><trkpt lat="37.499182465060834" lon="14.306480522547668"><ele>691.0</ele><time>2026-05-03T10:48:15Z</time></trkpt><trkpt lat="37.499406960553515" lon="14.30645784479222"><ele>691.0</ele><time>2026-05-03T10:48:16Z</time></trkpt><trkpt lat="37.49962593570546" lon="14.306435990823548"><ele>691.0</ele><time>2026-05-03T10:48:17Z</time></trkpt><trkpt lat="37.499843832621856" lon="14.306416884265166"><ele>690.0</ele><time>2026-05-03T10:48:18Z</time></trkpt><trkpt lat="37.500058085516535" lon="14.306405290982749"><ele>689.0</ele><time>2026-05-03T10:48:19Z</time></trkpt><trkpt lat="37.500270674461184" lon="14.306408823630257"><ele>688.0</ele><time>2026-05-03T10:48:20Z</time></trkpt><trkpt lat="37.50048201053159" lon="14.306439997800695"><ele>688.0</ele><time>2026-05-03T10:48:21Z</time></trkpt><trkpt lat="37.50067885997211" lon="14.306511769167624"><ele>688.0</ele><time>2026-05-03T10:48:22Z</time></trkpt><trkpt lat="37.50087725695764" lon="14.306610233292385"><ele>688.0</ele><time>2026-05-03T10:48:23Z</time></trkpt><trkpt lat="37.501091346127" lon="14.30671493639846"><ele>693.3333333333334</ele><time>2026-05-03T10:48:24Z</time></trkpt><trkpt lat="37.50127805102512" lon="14.306898192329719"><ele>698.6666666666666</ele><time>2026-05-03T10:48:25Z</time></trkpt><trkpt lat="37.5014556314339" lon="14.307006978946044"><ele>704.0</ele><time>2026-05-03T10:48:26Z</time></trkpt><trkpt lat="37.50153633316673" lon="14.307353273969014"><ele>704.5</ele><time>2026-05-03T10:48:27Z</time></trkpt><trkpt lat="37.50162689373433" lon="14.307622106979911"><ele>705.0</ele><time>2026-05-03T10:48:28Z</time></trkpt><trkpt lat="37.501698681036636" lon="14.30791729483372"><ele>701.5</ele><time>2026-05-03T10:48:29Z</time></trkpt><trkpt lat="37.50175384732362" lon="14.308258786276067"><ele>698.0</ele><time>2026-05-03T10:48:30Z</time></trkpt><trkpt lat="37.501781593827396" lon="14.30858651873097"><ele>698.0</ele><time>2026-05-03T10:48:31Z</time></trkpt><trkpt lat="37.50179559983589" lon="14.308896396282725"><ele>698.0</ele><time>2026-05-03T10:48:32Z</time></trkpt><trkpt lat="37.501811782387115" lon="14.30919772744733"><ele>697.5</ele><time>2026-05-03T10:48:33Z</time></trkpt><trkpt lat="37.50183833072932" lon="14.309488934969897"><ele>697.0</ele><time>2026-05-03T10:48:34Z</time></trkpt><trkpt lat="37.501863716459575" lon="14.309775539380734"><ele>697.0</ele><time>2026-05-03T10:48:35Z</time></trkpt><trkpt lat="37.50188824561916" lon="14.310062365310968"><ele>697.0</ele><time>2026-05-03T10:48:36Z</time></trkpt><trkpt lat="37.501915778872" lon="14.31034423104153"><ele>696.6666666666667</ele><time>2026-05-03T10:48:37Z</time></trkpt><trkpt lat="37.501945544751216" lon="14.31062152101019"><ele>696.3333333333334</ele><time>2026-05-03T10:48:38Z</time></trkpt><trkpt lat="37.50197676103122" lon="14.310896903947073"><ele>696.0</ele><time>2026-05-03T10:48:39Z</time></trkpt><trkpt lat="37.502004914583786" lon="14.311165545192555"><ele>693.3333333333334</ele><time>2026-05-03T10:48:40Z</time></trkpt><trkpt lat="37.50202863649919" lon="14.31143582413248"><ele>690.6666666666667</ele><time>2026-05-03T10:48:41Z</time></trkpt><trkpt lat="37.50205633437588" lon="14.31170458518402"><ele>688.0</ele><time>2026-05-03T10:48:42Z</time></trkpt><trkpt lat="37.50208380601774" lon="14.311974814248066"><ele>699.3333333333334</ele><time>2026-05-03T10:48:43Z</time></trkpt><trkpt lat="37.50211228131508" lon="14.312243724826587"><ele>710.6666666666666</ele><time>2026-05-03T10:48:44Z</time></trkpt><trkpt lat="37.50214491117276" lon="14.312513820023531"><ele>722.0</ele><time>2026-05-03T10:48:45Z</time></trkpt><trkpt lat="37.50218160516417" lon="14.312789720860215"><ele>719.5</ele><time>2026-05-03T10:48:46Z</time></trkpt><trkpt lat="37.50224111236398" lon="14.313084191316893"><ele>717.0</ele><time>2026-05-03T10:48:47Z</time></trkpt><trkpt lat="37.502329736941356" lon="14.313374241591273"><ele>717.0</ele><time>2026-05-03T10:48:48Z</time></trkpt><trkpt lat="37.50245391482215" lon="14.313664789340638"><ele>717.0</ele><time>2026-05-03T10:48:49Z</time></trkpt><trkpt lat="37.50260213864961" lon="14.313945313000717"><ele>712.5</ele><time>2026-05-03T10:48:50Z</time></trkpt><trkpt lat="37.50275146632584" lon="14.314186122443553"><ele>708.0</ele><time>2026-05-03T10:48:51Z</time></trkpt><trkpt lat="37.50289619259116" lon="14.314418764735551"><ele>716.0</ele><time>2026-05-03T10:48:52Z</time></trkpt><trkpt lat="37.5030300939414" lon="14.314653591612126"><ele>724.0</ele><time>2026-05-03T10:48:53Z</time></trkpt><trkpt lat="37.50317366778071" lon="14.314882207841395"><ele>724.0</ele><time>2026-05-03T10:48:54Z</time></trkpt><trkpt lat="37.50334081874494" lon="14.315087910167493"><ele>724.0</ele><time>2026-05-03T10:48:55Z</time></trkpt><trkpt lat="37.50352571053538" lon="14.315262530399709"><ele>724.0</ele><time>2026-05-03T10:48:56Z</time></trkpt><trkpt lat="37.503731491954625" lon="14.315407629635825"><ele>724.0</ele><time>2026-05-03T10:48:57Z</time></trkpt><trkpt lat="37.5039680977009" lon="14.315527545293088"><ele>724.0</ele><time>2026-05-03T10:48:58Z</time></trkpt><trkpt lat="37.50420277065876" lon="14.31559229746055"><ele>724.0</ele><time>2026-05-03T10:48:59Z</time></trkpt><trkpt lat="37.504472837889416" lon="14.315635260496991"><ele>726.0</ele><time>2026-05-03T10:49:00Z</time></trkpt><trkpt lat="37.50474252442888" lon="14.315683952212662"><ele>728.0</ele><time>2026-05-03T10:49:01Z</time></trkpt><trkpt lat="37.50500478938145" lon="14.315736937532238"><ele>728.0</ele><time>2026-05-03T10:49:02Z</time></trkpt><trkpt lat="37.505226625570224" lon="14.315786268699524"><ele>728.0</ele><time>2026-05-03T10:49:03Z</time></trkpt><trkpt lat="37.50544222674185" lon="14.315839475068122"><ele>728.0</ele><time>2026-05-03T10:49:04Z</time></trkpt><trkpt lat="37.505658189832936" lon="14.315889290179781"><ele>729.5</ele><time>2026-05-03T10:49:05Z</time></trkpt><trkpt lat="37.50588443383277" lon="14.315942105046513"><ele>731.0</ele><time>2026-05-03T10:49:06Z</time></trkpt><trkpt lat="37.506129260746796" lon="14.31597723135486"><ele>730.5</ele><time>2026-05-03T10:49:07Z</time></trkpt><trkpt lat="37.5063596186975" lon="14.315990143292044"><ele>730.0</ele><time>2026-05-03T10:49:08Z</time></trkpt><trkpt lat="37.506627544750884" lon="14.31597797572279"><ele>730.0</ele><time>2026-05-03T10:49:09Z</time></trkpt><trkpt lat="37.50687502839789" lon="14.315952365320852"><ele>730.0</ele><time>2026-05-03T10:49:10Z</time></trkpt><trkpt lat="37.50711373130517" lon="14.315903469059405"><ele>729.0</ele><time>2026-05-03T10:49:11Z</time></trkpt><trkpt lat="37.507348111884625" lon="14.31584705903937"><ele>728.0</ele><time>2026-05-03T10:49:12Z</time></trkpt><trkpt lat="37.50758130343561" lon="14.315787755455519"><ele>728.0</ele><time>2026-05-03T10:49:13Z</time></trkpt><trkpt lat="37.507801044463584" lon="14.31572923316098"><ele>728.0</ele><time>2026-05-03T10:49:14Z</time></trkpt><trkpt lat="37.50805132608894" lon="14.31567370876279"><ele>726.5</ele><time>2026-05-03T10:49:15Z</time></trkpt><trkpt lat="37.50829011423303" lon="14.315642112992562"><ele>725.0</ele><time>2026-05-03T10:49:16Z</time></trkpt><trkpt lat="37.508519960750704" lon="14.315652650943957"><ele>724.5</ele><time>2026-05-03T10:49:17Z</time></trkpt><trkpt lat="37.508783500098744" lon="14.315702273693153"><ele>724.0</ele><time>2026-05-03T10:49:18Z</time></trkpt><trkpt lat="37.50905437618617" lon="14.31578780344427"><ele>724.0</ele><time>2026-05-03T10:49:19Z</time></trkpt><trkpt lat="37.509308619078105" lon="14.315887449642515"><ele>724.0</ele><time>2026-05-03T10:49:20Z</time></trkpt><trkpt lat="37.50954071736918" lon="14.315983643289522"><ele>723.5</ele><time>2026-05-03T10:49:21Z</time></trkpt><trkpt lat="37.50977141512531" lon="14.316059601780651"><ele>723.0</ele><time>2026-05-03T10:49:22Z</time></trkpt><trkpt lat="37.51000090003604" lon="14.316135904019138"><ele>723.0</ele><time>2026-05-03T10:49:23Z</time></trkpt><trkpt lat="37.51023366877949" lon="14.316211060442162"><ele>723.0</ele><time>2026-05-03T10:49:24Z</time></trkpt><trkpt lat="37.510466088600666" lon="14.316286552301879"><ele>722.5</ele><time>2026-05-03T10:49:25Z</time></trkpt><trkpt lat="37.51069791118713" lon="14.316364156397954"><ele>722.0</ele><time>2026-05-03T10:49:26Z</time></trkpt><trkpt lat="37.510933611828285" lon="14.316423437953903"><ele>721.0</ele><time>2026-05-03T10:49:27Z</time></trkpt><trkpt lat="37.51116970890541" lon="14.316472795785463"><ele>720.0</ele><time>2026-05-03T10:49:28Z</time></trkpt><trkpt lat="37.51140813058418" lon="14.316503390533311"><ele>717.5</ele><time>2026-05-03T10:49:29Z</time></trkpt><trkpt lat="37.51164845386001" lon="14.316528128130834"><ele>715.0</ele><time>2026-05-03T10:49:30Z</time></trkpt><trkpt lat="37.511892919403515" lon="14.31656194848973"><ele>713.5</ele><time>2026-05-03T10:49:31Z</time></trkpt><trkpt lat="37.51211966423556" lon="14.316592692949296"><ele>712.0</ele><time>2026-05-03T10:49:32Z</time></trkpt><trkpt lat="37.51235406934096" lon="14.316623766125048"><ele>712.0</ele><time>2026-05-03T10:49:33Z</time></trkpt><trkpt lat="37.51258945248512" lon="14.316650458542588"><ele>712.0</ele><time>2026-05-03T10:49:34Z</time></trkpt><trkpt lat="37.512825775600284" lon="14.316679534060608"><ele>711.6666666666667</ele><time>2026-05-03T10:49:35Z</time></trkpt><trkpt lat="37.5130502468836" lon="14.316708073950506"><ele>711.3333333333334</ele><time>2026-05-03T10:49:36Z</time></trkpt><trkpt lat="37.513270389373" lon="14.316732081908487"><ele>711.0</ele><time>2026-05-03T10:49:37Z</time></trkpt><trkpt lat="37.513492685036724" lon="14.31675240376257"><ele>711.0</ele><time>2026-05-03T10:49:38Z</time></trkpt><trkpt lat="37.51371381759171" lon="14.316762213923317"><ele>711.0</ele><time>2026-05-03T10:49:39Z</time></trkpt><trkpt lat="37.513940665930804" lon="14.316745733427618"><ele>711.0</ele><time>2026-05-03T10:49:40Z</time></trkpt><trkpt lat="37.51416987194911" lon="14.31671954723018"><ele>711.0</ele><time>2026-05-03T10:49:41Z</time></trkpt><trkpt lat="37.514409503981625" lon="14.31668648869906"><ele>711.0</ele><time>2026-05-03T10:49:42Z</time></trkpt><trkpt lat="37.51464081907477" lon="14.316651011871691"><ele>710.6666666666666</ele><time>2026-05-03T10:49:43Z</time></trkpt><trkpt lat="37.51486660668696" lon="14.31661315475948"><ele>710.3333333333333</ele><time>2026-05-03T10:49:44Z</time></trkpt><trkpt lat="37.51508612484262" lon="14.316580153740057"><ele>710.0</ele><time>2026-05-03T10:49:45Z</time></trkpt><trkpt lat="37.51531216197194" lon="14.3165501333497"><ele>709.6666666666666</ele><time>2026-05-03T10:49:46Z</time></trkpt><trkpt lat="37.515517042473746" lon="14.316519449111574"><ele>709.3333333333334</ele><time>2026-05-03T10:49:47Z</time></trkpt><trkpt lat="37.515736445555845" lon="14.316489724864619"><ele>709.0</ele><time>2026-05-03T10:49:48Z</time></trkpt><trkpt lat="37.51596627304472" lon="14.316467306749434"><ele>709.0</ele><time>2026-05-03T10:49:49Z</time></trkpt><trkpt lat="37.516187461492066" lon="14.316451610500552"><ele>709.0</ele><time>2026-05-03T10:49:50Z</time></trkpt><trkpt lat="37.51641543725752" lon="14.316443641852162"><ele>709.0</ele><time>2026-05-03T10:49:51Z</time></trkpt><trkpt lat="37.51664030835005" lon="14.316446356043485"><ele>709.0</ele><time>2026-05-03T10:49:52Z</time></trkpt><trkpt lat="37.51685659497878" lon="14.316453373475545"><ele>709.0</ele><time>2026-05-03T10:49:53Z</time></trkpt><trkpt lat="37.5170922904754" lon="14.316458357636533"><ele>709.0</ele><time>2026-05-03T10:49:54Z</time></trkpt><trkpt lat="37.51732248455478" lon="14.316466930489844"><ele>709.0</ele><time>2026-05-03T10:49:55Z</time></trkpt><trkpt lat="37.51754069415173" lon="14.316476062746295"><ele>709.0</ele><time>2026-05-03T10:49:56Z</time></trkpt><trkpt lat="37.51775340565641" lon="14.31648573030388"><ele>706.3333333333334</ele><time>2026-05-03T10:49:57Z</time></trkpt><trkpt lat="37.51795535863448" lon="14.316496709124724"><ele>703.6666666666666</ele><time>2026-05-03T10:49:58Z</time></trkpt><trkpt lat="37.51816027663788" lon="14.316507068473452"><ele>701.0</ele><time>2026-05-03T10:49:59Z</time></trkpt><trkpt lat="37.51833726323489" lon="14.31651196507092"><ele>701.0</ele><time>2026-05-03T10:50:00Z</time></trkpt><trkpt lat="37.51850349383161" lon="14.316520973215473"><ele>701.0</ele><time>2026-05-03T10:50:01Z</time></trkpt><trkpt lat="37.51864865628867" lon="14.316558787027123"><ele>701.0</ele><time>2026-05-03T10:50:02Z</time></trkpt><trkpt lat="37.518810748125894" lon="14.316641678073784"><ele>697.6666666666666</ele><time>2026-05-03T10:50:03Z</time></trkpt><trkpt lat="37.51895714135531" lon="14.316778786754961"><ele>694.3333333333334</ele><time>2026-05-03T10:50:04Z</time></trkpt><trkpt lat="37.51909747322345" lon="14.316986437192009"><ele>691.0</ele><time>2026-05-03T10:50:05Z</time></trkpt><trkpt lat="37.51922198182459" lon="14.317198861642929"><ele>693.6666666666667</ele><time>2026-05-03T10:50:06Z</time></trkpt><trkpt lat="37.519314011328866" lon="14.3173921904807"><ele>696.3333333333334</ele><time>2026-05-03T10:50:07Z</time></trkpt><trkpt lat="37.51940796658355" lon="14.317562091002168"><ele>699.0</ele><time>2026-05-03T10:50:08Z</time></trkpt><trkpt lat="37.51952131271778" lon="14.317700408743585"><ele>695.6666666666666</ele><time>2026-05-03T10:50:09Z</time></trkpt><trkpt lat="37.519649951370624" lon="14.31777616402515"><ele>692.3333333333333</ele><time>2026-05-03T10:50:10Z</time></trkpt><trkpt lat="37.519803798290354" lon="14.317777564944898"><ele>689.0</ele><time>2026-05-03T10:50:11Z</time></trkpt><trkpt lat="37.51999302134065" lon="14.317715107920872"><ele>689.0</ele><time>2026-05-03T10:50:12Z</time></trkpt><trkpt lat="37.520207112338944" lon="14.31762789694473"><ele>689.0</ele><time>2026-05-03T10:50:13Z</time></trkpt><trkpt lat="37.520440377766135" lon="14.317528568664011"><ele>687.5</ele><time>2026-05-03T10:50:14Z</time></trkpt><trkpt lat="37.52069678353722" lon="14.317415521007597"><ele>686.0</ele><time>2026-05-03T10:50:15Z</time></trkpt><trkpt lat="37.52092913929344" lon="14.317328336626494"><ele>686.0</ele><time>2026-05-03T10:50:16Z</time></trkpt><trkpt lat="37.52114178586975" lon="14.317245231999593"><ele>686.0</ele><time>2026-05-03T10:50:17Z</time></trkpt><trkpt lat="37.52134395205461" lon="14.317167871802228"><ele>686.0</ele><time>2026-05-03T10:50:18Z</time></trkpt><trkpt lat="37.52156027708024" lon="14.317093885355304"><ele>684.3333333333333</ele><time>2026-05-03T10:50:19Z</time></trkpt><trkpt lat="37.52177279708538" lon="14.31701485310928"><ele>682.6666666666666</ele><time>2026-05-03T10:50:20Z</time></trkpt><trkpt lat="37.52198148191557" lon="14.316932549852625"><ele>681.0</ele><time>2026-05-03T10:50:21Z</time></trkpt><trkpt lat="37.52218178558366" lon="14.316848733476151"><ele>681.0</ele><time>2026-05-03T10:50:22Z</time></trkpt><trkpt lat="37.52235204433165" lon="14.316755968334588"><ele>681.0</ele><time>2026-05-03T10:50:23Z</time></trkpt><trkpt lat="37.52250213538741" lon="14.3166403055691"><ele>681.0</ele><time>2026-05-03T10:50:24Z</time></trkpt><trkpt lat="37.522638838915306" lon="14.316494150943546"><ele>680.3333333333334</ele><time>2026-05-03T10:50:25Z</time></trkpt><trkpt lat="37.52278166340793" lon="14.316316412732089"><ele>679.6666666666667</ele><time>2026-05-03T10:50:26Z</time></trkpt><trkpt lat="37.52294357719351" lon="14.316105588661308"><ele>679.0</ele><time>2026-05-03T10:50:27Z</time></trkpt><trkpt lat="37.52307654578704" lon="14.315941565927002"><ele>679.0</ele><time>2026-05-03T10:50:28Z</time></trkpt><trkpt lat="37.523212896770495" lon="14.315794387098377"><ele>679.0</ele><time>2026-05-03T10:50:29Z</time></trkpt><trkpt lat="37.52334188625854" lon="14.315660711115644"><ele>679.0</ele><time>2026-05-03T10:50:30Z</time></trkpt><trkpt lat="37.523458580735095" lon="14.315538782094325"><ele>678.75</ele><time>2026-05-03T10:50:31Z</time></trkpt><trkpt lat="37.52355228740077" lon="14.315413592753092"><ele>678.5</ele><time>2026-05-03T10:50:32Z</time></trkpt><trkpt lat="37.52360956006897" lon="14.31527055057227"><ele>678.25</ele><time>2026-05-03T10:50:33Z</time></trkpt><trkpt lat="37.52362810233409" lon="14.315107641056583"><ele>678.0</ele><time>2026-05-03T10:50:34Z</time></trkpt><trkpt lat="37.52362040968043" lon="14.314915551870225"><ele>677.75</ele><time>2026-05-03T10:50:35Z</time></trkpt><trkpt lat="37.52359249303111" lon="14.314735033851518"><ele>677.5</ele><time>2026-05-03T10:50:36Z</time></trkpt><trkpt lat="37.523570164348726" lon="14.314547732946194"><ele>677.25</ele><time>2026-05-03T10:50:37Z</time></trkpt><trkpt lat="37.523557989915666" lon="14.314372149456755"><ele>677.0</ele><time>2026-05-03T10:50:38Z</time></trkpt><trkpt lat="37.52353973093724" lon="14.314203763458417"><ele>677.0</ele><time>2026-05-03T10:50:39Z</time></trkpt><trkpt lat="37.523518408749915" lon="14.314038605702963"><ele>677.0</ele><time>2026-05-03T10:50:40Z</time></trkpt><trkpt lat="37.5235034849092" lon="14.313877443910107"><ele>677.0</ele><time>2026-05-03T10:50:41Z</time></trkpt><trkpt lat="37.523488035341146" lon="14.313708135134565"><ele>677.0</ele><time>2026-05-03T10:50:42Z</time></trkpt><trkpt lat="37.5234722936815" lon="14.313547420836745"><ele>677.0</ele><time>2026-05-03T10:50:43Z</time></trkpt><trkpt lat="37.52345905096373" lon="14.313400997250751"><ele>677.0</ele><time>2026-05-03T10:50:44Z</time></trkpt><trkpt lat="37.5234512024359" lon="14.313246390638867"><ele>677.0</ele><time>2026-05-03T10:50:45Z</time></trkpt><trkpt lat="37.5234497343556" lon="14.313110391017767"><ele>677.0</ele><time>2026-05-03T10:50:46Z</time></trkpt><trkpt lat="37.52346185379607" lon="14.312994576282431"><ele>677.0</ele><time>2026-05-03T10:50:47Z</time></trkpt><trkpt lat="37.52346239698425" lon="14.312881404640082"><ele>677.0</ele><time>2026-05-03T10:50:48Z</time></trkpt><trkpt lat="37.52347289531559" lon="14.312777251763071"><ele>677.0</ele><time>2026-05-03T10:50:49Z</time></trkpt><trkpt lat="37.523494717083175" lon="14.312668682224318"><ele>677.0</ele><time>2026-05-03T10:50:51Z</time></trkpt><trkpt lat="37.52342056733735" lon="14.312672147412055"><ele>677.0</ele><time>2026-05-03T10:51:36Z</time></trkpt><trkpt lat="37.52333221417706" lon="14.31263773513626"><ele>677.0</ele><time>2026-05-03T10:51:39Z</time></trkpt><trkpt lat="37.523259712384935" lon="14.312614511626915"><ele>677.0</ele><time>2026-05-03T10:51:40Z</time></trkpt><trkpt lat="37.52315358435284" lon="14.312584173419538"><ele>677.0</ele><time>2026-05-03T10:51:41Z</time></trkpt><trkpt lat="37.523032790387575" lon="14.312538018846805"><ele>677.0</ele><time>2026-05-03T10:51:42Z</time></trkpt><trkpt lat="37.52288008897867" lon="14.31252999867766"><ele>677.0</ele><time>2026-05-03T10:51:43Z</time></trkpt><trkpt lat="37.522777356252" lon="14.312526211869836"><ele>677.0</ele><time>2026-05-03T10:51:44Z</time></trkpt><trkpt lat="37.522703076651936" lon="14.312540371489156"><ele>676.25</ele><time>2026-05-03T10:51:45Z</time></trkpt><trkpt lat="37.52261650748366" lon="14.312476011085048"><ele>675.5</ele><time>2026-05-03T10:51:47Z</time></trkpt><trkpt lat="37.5226086905301" lon="14.312269599327266"><ele>674.75</ele><time>2026-05-03T10:51:49Z</time></trkpt><trkpt lat="37.522612918115115" lon="14.312090978301054"><ele>674.0</ele><time>2026-05-03T10:51:50Z</time></trkpt><trkpt lat="37.5226008707975" lon="14.311898656313435"><ele>673.6666666666666</ele><time>2026-05-03T10:51:51Z</time></trkpt><trkpt lat="37.52258939914822" lon="14.311696210624715"><ele>673.3333333333334</ele><time>2026-05-03T10:51:52Z</time></trkpt><trkpt lat="37.5225787015027" lon="14.311494197748782"><ele>673.0</ele><time>2026-05-03T10:51:53Z</time></trkpt><trkpt lat="37.522566117776236" lon="14.31128206838654"><ele>672.0</ele><time>2026-05-03T10:51:54Z</time></trkpt><trkpt lat="37.52255404388307" lon="14.311062683803403"><ele>671.0</ele><time>2026-05-03T10:51:55Z</time></trkpt><trkpt lat="37.522536616049734" lon="14.31084624227834"><ele>670.0</ele><time>2026-05-03T10:51:56Z</time></trkpt><trkpt lat="37.522519348718646" lon="14.310645970764323"><ele>669.0</ele><time>2026-05-03T10:51:57Z</time></trkpt><trkpt lat="37.522512406804964" lon="14.310446505399394"><ele>668.0</ele><time>2026-05-03T10:51:58Z</time></trkpt><trkpt lat="37.52250478577489" lon="14.310249998596701"><ele>667.0</ele><time>2026-05-03T10:51:59Z</time></trkpt><trkpt lat="37.522524628892555" lon="14.310054271214865"><ele>667.0</ele><time>2026-05-03T10:52:00Z</time></trkpt><trkpt lat="37.522560022763244" lon="14.309864351844977"><ele>667.0</ele><time>2026-05-03T10:52:01Z</time></trkpt><trkpt lat="37.52260918905986" lon="14.309682800881143"><ele>667.0</ele><time>2026-05-03T10:52:02Z</time></trkpt><trkpt lat="37.52264746895653" lon="14.309531096431066"><ele>667.0</ele><time>2026-05-03T10:52:03Z</time></trkpt><trkpt lat="37.52267834194985" lon="14.309387689676923"><ele>668.75</ele><time>2026-05-03T10:52:04Z</time></trkpt><trkpt lat="37.522698755814346" lon="14.30925524995672"><ele>670.5</ele><time>2026-05-03T10:52:05Z</time></trkpt><trkpt lat="37.522649806342" lon="14.30912994256386"><ele>672.25</ele><time>2026-05-03T10:52:06Z</time></trkpt><trkpt lat="37.52259391083757" lon="14.308986765985305"><ele>674.0</ele><time>2026-05-03T10:52:07Z</time></trkpt><trkpt lat="37.52253993750389" lon="14.308819120922164"><ele>675.0</ele><time>2026-05-03T10:52:08Z</time></trkpt><trkpt lat="37.522491956907764" lon="14.30865149166136"><ele>676.0</ele><time>2026-05-03T10:52:09Z</time></trkpt><trkpt lat="37.522440584782096" lon="14.308470324368374"><ele>677.0</ele><time>2026-05-03T10:52:10Z</time></trkpt><trkpt lat="37.52239517830028" lon="14.308310195407334"><ele>678.0</ele><time>2026-05-03T10:52:11Z</time></trkpt><trkpt lat="37.52235526099092" lon="14.308165794114492"><ele>677.8333333333334</ele><time>2026-05-03T10:52:12Z</time></trkpt><trkpt lat="37.52231382495908" lon="14.308046334251351"><ele>677.6666666666666</ele><time>2026-05-03T10:52:13Z</time></trkpt><trkpt lat="37.52228184758989" lon="14.307947679380318"><ele>677.5</ele><time>2026-05-03T10:52:14Z</time></trkpt><trkpt lat="37.52225842698087" lon="14.307870249111074"><ele>677.3333333333333</ele><time>2026-05-03T10:52:15Z</time></trkpt><trkpt lat="37.52221129570077" lon="14.307791917521376"><ele>677.1666666666666</ele><time>2026-05-03T10:52:17Z</time></trkpt><trkpt lat="37.522175824864426" lon="14.307718251147683"><ele>677.0</ele><time>2026-05-03T10:52:18Z</time></trkpt><trkpt lat="37.5220486318796" lon="14.307688360854138"><ele>677.0</ele><time>2026-05-03T10:52:19Z</time></trkpt><trkpt lat="37.521955992718624" lon="14.30764761977317"><ele>677.0</ele><time>2026-05-03T10:52:20Z</time></trkpt><trkpt lat="37.52185567346824" lon="14.307630626960743"><ele>677.0</ele><time>2026-05-03T10:52:21Z</time></trkpt><trkpt lat="37.521755892554" lon="14.307604201187036"><ele>677.0</ele><time>2026-05-03T10:52:22Z</time></trkpt><trkpt lat="37.52165417309791" lon="14.307573899498252"><ele>677.0</ele><time>2026-05-03T10:52:23Z</time></trkpt><trkpt lat="37.521552753799334" lon="14.307537128263485"><ele>677.0</ele><time>2026-05-03T10:52:24Z</time></trkpt><trkpt lat="37.521455904246736" lon="14.307495357716174"><ele>677.0</ele><time>2026-05-03T10:52:25Z</time></trkpt><trkpt lat="37.52138367377764" lon="14.307434812203004"><ele>677.0</ele><time>2026-05-03T10:52:26Z</time></trkpt><trkpt lat="37.521304342143694" lon="14.307400576022774"><ele>677.0</ele><time>2026-05-03T10:52:27Z</time></trkpt><trkpt lat="37.52123316450403" lon="14.307359457033789"><ele>677.0</ele><time>2026-05-03T10:52:28Z</time></trkpt><trkpt lat="37.52116952200511" lon="14.307285540514581"><ele>677.0</ele><time>2026-05-03T10:52:29Z</time></trkpt><trkpt lat="37.521109367520964" lon="14.307167360488792"><ele>676.3333333333333</ele><time>2026-05-03T10:52:30Z</time></trkpt><trkpt lat="37.521051767226034" lon="14.30701968825451"><ele>675.6666666666666</ele><time>2026-05-03T10:52:31Z</time></trkpt><trkpt lat="37.5209676913168" lon="14.306821633542778"><ele>675.0</ele><time>2026-05-03T10:52:32Z</time></trkpt><trkpt lat="37.52087079524403" lon="14.306600583073488"><ele>677.0</ele><time>2026-05-03T10:52:33Z</time></trkpt><trkpt lat="37.52076405886376" lon="14.306356465641691"><ele>679.0</ele><time>2026-05-03T10:52:34Z</time></trkpt><trkpt lat="37.5206568744472" lon="14.306144407216495"><ele>681.0</ele><time>2026-05-03T10:52:35Z</time></trkpt><trkpt lat="37.52056321382289" lon="14.30593352592511"><ele>681.0</ele><time>2026-05-03T10:52:36Z</time></trkpt><trkpt lat="37.52047374738404" lon="14.305733953158535"><ele>681.0</ele><time>2026-05-03T10:52:37Z</time></trkpt><trkpt lat="37.520385242913704" lon="14.305543764891162"><ele>681.0</ele><time>2026-05-03T10:52:38Z</time></trkpt><trkpt lat="37.5202865311447" lon="14.305353763317848"><ele>679.6666666666666</ele><time>2026-05-03T10:52:39Z</time></trkpt><trkpt lat="37.52019534251028" lon="14.305164045882808"><ele>678.3333333333333</ele><time>2026-05-03T10:52:40Z</time></trkpt><trkpt lat="37.52010136641464" lon="14.304953739107116"><ele>677.0</ele><time>2026-05-03T10:52:41Z</time></trkpt><trkpt lat="37.52000471810811" lon="14.304739787722646"><ele>679.6666666666666</ele><time>2026-05-03T10:52:42Z</time></trkpt><trkpt lat="37.51990278063748" lon="14.30452892493431"><ele>682.3333333333334</ele><time>2026-05-03T10:52:43Z</time></trkpt><trkpt lat="37.51981098776826" lon="14.304316263049406"><ele>685.0</ele><time>2026-05-03T10:52:44Z</time></trkpt><trkpt lat="37.51971245048654" lon="14.304088809821991"><ele>681.6666666666667</ele><time>2026-05-03T10:52:45Z</time></trkpt><trkpt lat="37.51961026560185" lon="14.303853211232996"><ele>678.3333333333334</ele><time>2026-05-03T10:52:46Z</time></trkpt><trkpt lat="37.51948565651172" lon="14.30362724798977"><ele>675.0</ele><time>2026-05-03T10:52:47Z</time></trkpt><trkpt lat="37.519378463020864" lon="14.30336150356962"><ele>675.0</ele><time>2026-05-03T10:52:48Z</time></trkpt><trkpt lat="37.519261557590355" lon="14.303145183140959"><ele>675.0</ele><time>2026-05-03T10:52:49Z</time></trkpt><trkpt lat="37.51917830141828" lon="14.302925327638052"><ele>675.0</ele><time>2026-05-03T10:52:50Z</time></trkpt><trkpt lat="37.519086176710076" lon="14.302737927333466"><ele>677.25</ele><time>2026-05-03T10:52:51Z</time></trkpt><trkpt lat="37.519008381009925" lon="14.30257170447961"><ele>679.5</ele><time>2026-05-03T10:52:52Z</time></trkpt><trkpt lat="37.518934893213256" lon="14.302422335468354"><ele>681.75</ele><time>2026-05-03T10:52:53Z</time></trkpt><trkpt lat="37.518873165561075" lon="14.302285857798195"><ele>684.0</ele><time>2026-05-03T10:52:54Z</time></trkpt><trkpt lat="37.51879281266475" lon="14.30217531034917"><ele>683.2</ele><time>2026-05-03T10:52:55Z</time></trkpt><trkpt lat="37.51873369819937" lon="14.302072705710712"><ele>682.4000000000001</ele><time>2026-05-03T10:52:56Z</time></trkpt><trkpt lat="37.51868143967275" lon="14.301982000847724"><ele>681.6</ele><time>2026-05-03T10:52:57Z</time></trkpt><trkpt lat="37.51861651614368" lon="14.301872073770983"><ele>680.8</ele><time>2026-05-03T10:52:58Z</time></trkpt><trkpt lat="37.51852845989036" lon="14.301741451250715"><ele>680.0</ele><time>2026-05-03T10:52:59Z</time></trkpt><trkpt lat="37.51842361342499" lon="14.301619813484347"><ele>680.0</ele><time>2026-05-03T10:53:00Z</time></trkpt><trkpt lat="37.51829443735281" lon="14.30151301001121"><ele>680.0</ele><time>2026-05-03T10:53:01Z</time></trkpt><trkpt lat="37.518155067262526" lon="14.30142110372313"><ele>680.0</ele><time>2026-05-03T10:53:02Z</time></trkpt><trkpt lat="37.51803828709631" lon="14.30136030530602"><ele>680.0</ele><time>2026-05-03T10:53:03Z</time></trkpt><trkpt lat="37.517916325501844" lon="14.301299113624186"><ele>681.0</ele><time>2026-05-03T10:53:04Z</time></trkpt><trkpt lat="37.51779780040829" lon="14.301239646151956"><ele>682.0</ele><time>2026-05-03T10:53:05Z</time></trkpt><trkpt lat="37.517694721241064" lon="14.301186657254469"><ele>683.0</ele><time>2026-05-03T10:53:06Z</time></trkpt><trkpt lat="37.51759674876207" lon="14.30115107129136"><ele>684.0</ele><time>2026-05-03T10:53:07Z</time></trkpt><trkpt lat="37.51747389514005" lon="14.301107351482823"><ele>684.0</ele><time>2026-05-03T10:53:08Z</time></trkpt><trkpt lat="37.517325648305864" lon="14.301051586348894"><ele>684.0</ele><time>2026-05-03T10:53:09Z</time></trkpt><trkpt lat="37.517151637426565" lon="14.300982361870604"><ele>684.0</ele><time>2026-05-03T10:53:10Z</time></trkpt><trkpt lat="37.516988398432495" lon="14.30091079391239"><ele>681.3333333333334</ele><time>2026-05-03T10:53:11Z</time></trkpt><trkpt lat="37.51682565396029" lon="14.300837039029513"><ele>678.6666666666667</ele><time>2026-05-03T10:53:12Z</time></trkpt><trkpt lat="37.51666266772266" lon="14.300774583939464"><ele>676.0</ele><time>2026-05-03T10:53:13Z</time></trkpt><trkpt lat="37.51649122713785" lon="14.300700466213925"><ele>676.0</ele><time>2026-05-03T10:53:14Z</time></trkpt><trkpt lat="37.51633549383424" lon="14.300633644906133"><ele>676.0</ele><time>2026-05-03T10:53:15Z</time></trkpt><trkpt lat="37.516195284145596" lon="14.300569665498914"><ele>676.0</ele><time>2026-05-03T10:53:16Z</time></trkpt><trkpt lat="37.516069738109294" lon="14.300505558889647"><ele>676.0</ele><time>2026-05-03T10:53:17Z</time></trkpt><trkpt lat="37.51594453005861" lon="14.300457808085707"><ele>677.5</ele><time>2026-05-03T10:53:18Z</time></trkpt><trkpt lat="37.51579443645959" lon="14.300386660167204"><ele>679.0</ele><time>2026-05-03T10:53:19Z</time></trkpt><trkpt lat="37.51567214656601" lon="14.300304646824175"><ele>680.5</ele><time>2026-05-03T10:53:20Z</time></trkpt><trkpt lat="37.51556924086664" lon="14.30025015980729"><ele>682.0</ele><time>2026-05-03T10:53:21Z</time></trkpt><trkpt lat="37.515468714994356" lon="14.300195324819041"><ele>682.0</ele><time>2026-05-03T10:53:22Z</time></trkpt><trkpt lat="37.515396199425304" lon="14.300147139583254"><ele>682.0</ele><time>2026-05-03T10:53:23Z</time></trkpt><trkpt lat="37.515452605415554" lon="14.300098601481137"><ele>682.0</ele><time>2026-05-03T10:53:26Z</time></trkpt><trkpt lat="37.515525063589266" lon="14.300083635917003"><ele>682.0</ele><time>2026-05-03T10:53:27Z</time></trkpt><trkpt lat="37.51564166253302" lon="14.299990132623655"><ele>682.0</ele><time>2026-05-03T10:53:28Z</time></trkpt><trkpt lat="37.515738982129996" lon="14.299830653790513"><ele>688.6666666666667</ele><time>2026-05-03T10:53:29Z</time></trkpt><trkpt lat="37.51587462560587" lon="14.299698850404992"><ele>695.3333333333334</ele><time>2026-05-03T10:53:30Z</time></trkpt><trkpt lat="37.51602268196904" lon="14.299556365591783"><ele>702.0</ele><time>2026-05-03T10:53:31Z</time></trkpt><trkpt lat="37.51614346082712" lon="14.299436812306993"><ele>702.0</ele><time>2026-05-03T10:53:32Z</time></trkpt><trkpt lat="37.5162260209186" lon="14.2993352765902"><ele>702.0</ele><time>2026-05-03T10:53:33Z</time></trkpt><trkpt lat="37.51627394028933" lon="14.299214550125127"><ele>702.0</ele><time>2026-05-03T10:53:34Z</time></trkpt><trkpt lat="37.51633208065089" lon="14.299099518448305"><ele>702.0</ele><time>2026-05-03T10:53:35Z</time></trkpt><trkpt lat="37.516414884501025" lon="14.299028651002477"><ele>702.0</ele><time>2026-05-03T10:53:36Z</time></trkpt><trkpt lat="37.516508367837844" lon="14.29903671183284"><ele>700.8</ele><time>2026-05-03T10:53:37Z</time></trkpt><trkpt lat="37.51659955308915" lon="14.298966941977447"><ele>699.6</ele><time>2026-05-03T10:53:38Z</time></trkpt><trkpt lat="37.516693797349035" lon="14.298874639810789"><ele>698.4</ele><time>2026-05-03T10:53:39Z</time></trkpt><trkpt lat="37.51678630982767" lon="14.298772758925574"><ele>697.1999999999999</ele><time>2026-05-03T10:53:40Z</time></trkpt><trkpt lat="37.51686358564572" lon="14.2987324286078"><ele>696.0</ele><time>2026-05-03T10:53:41Z</time></trkpt><trkpt lat="37.516941089448245" lon="14.298742285162612"><ele>698.4</ele><time>2026-05-03T10:53:42Z</time></trkpt><trkpt lat="37.51703518880532" lon="14.298722279010242"><ele>700.8</ele><time>2026-05-03T10:53:43Z</time></trkpt><trkpt lat="37.51715002608798" lon="14.298698763039363"><ele>703.1999999999999</ele><time>2026-05-03T10:53:44Z</time></trkpt><trkpt lat="37.51723760004883" lon="14.298684629197618"><ele>705.5999999999999</ele><time>2026-05-03T10:53:45Z</time></trkpt><trkpt lat="37.517326330110514" lon="14.298688829250688"><ele>708.0</ele><time>2026-05-03T10:53:46Z</time></trkpt><trkpt lat="37.51740763069236" lon="14.29873508463782"><ele>708.0</ele><time>2026-05-03T10:53:47Z</time></trkpt><trkpt lat="37.517479153108894" lon="14.298811302963701"><ele>708.0</ele><time>2026-05-03T10:53:48Z</time></trkpt><trkpt lat="37.5175195285168" lon="14.298920413681092"><ele>708.0</ele><time>2026-05-03T10:53:49Z</time></trkpt><trkpt lat="37.51761700375486" lon="14.298977762149207"><ele>708.0</ele><time>2026-05-03T10:53:50Z</time></trkpt><trkpt lat="37.517707578228446" lon="14.29903628633122"><ele>708.0</ele><time>2026-05-03T10:53:51Z</time></trkpt><trkpt lat="37.5178460699768" lon="14.299053128486182"><ele>705.25</ele><time>2026-05-03T10:53:52Z</time></trkpt><trkpt lat="37.51797775479527" lon="14.299047621985999"><ele>702.5</ele><time>2026-05-03T10:53:53Z</time></trkpt><trkpt lat="37.51808658071517" lon="14.299021559136841"><ele>699.75</ele><time>2026-05-03T10:53:54Z</time></trkpt><trkpt lat="37.518184424053594" lon="14.298904490047041"><ele>697.0</ele><time>2026-05-03T10:53:55Z</time></trkpt><trkpt lat="37.51832145926037" lon="14.298796765576387"><ele>697.0</ele><time>2026-05-03T10:53:56Z</time></trkpt><trkpt lat="37.51845413414185" lon="14.298649620366664"><ele>697.0</ele><time>2026-05-03T10:53:57Z</time></trkpt><trkpt lat="37.518583978367566" lon="14.298528957851989"><ele>697.0</ele><time>2026-05-03T10:53:58Z</time></trkpt><trkpt lat="37.51871158126415" lon="14.298417276894336"><ele>697.25</ele><time>2026-05-03T10:53:59Z</time></trkpt><trkpt lat="37.51882424848273" lon="14.298316152462565"><ele>697.5</ele><time>2026-05-03T10:54:00Z</time></trkpt><trkpt lat="37.51892795159886" lon="14.298225815212971"><ele>697.75</ele><time>2026-05-03T10:54:01Z</time></trkpt><trkpt lat="37.51902849848505" lon="14.298134876141157"><ele>698.0</ele><time>2026-05-03T10:54:02Z</time></trkpt><trkpt lat="37.519112741281106" lon="14.29804260179376"><ele>698.25</ele><time>2026-05-03T10:54:03Z</time></trkpt><trkpt lat="37.51919381310673" lon="14.29794888151328"><ele>698.5</ele><time>2026-05-03T10:54:04Z</time></trkpt><trkpt lat="37.51927371772219" lon="14.297831538183061"><ele>698.75</ele><time>2026-05-03T10:54:05Z</time></trkpt><trkpt lat="37.5193629498727" lon="14.29771686138485"><ele>699.0</ele><time>2026-05-03T10:54:06Z</time></trkpt><trkpt lat="37.51946731787072" lon="14.297617185425748"><ele>697.0</ele><time>2026-05-03T10:54:07Z</time></trkpt><trkpt lat="37.51957317600611" lon="14.29750173485937"><ele>695.0</ele><time>2026-05-03T10:54:08Z</time></trkpt><trkpt lat="37.519692320211774" lon="14.29737673716979"><ele>693.0</ele><time>2026-05-03T10:54:09Z</time></trkpt><trkpt lat="37.519819478605925" lon="14.297243386238112"><ele>692.6666666666666</ele><time>2026-05-03T10:54:10Z</time></trkpt><trkpt lat="37.51993172209722" lon="14.297096404564321"><ele>692.3333333333333</ele><time>2026-05-03T10:54:11Z</time></trkpt><trkpt lat="37.52003580180139" lon="14.296966469776024"><ele>692.0</ele><time>2026-05-03T10:54:12Z</time></trkpt><trkpt lat="37.52014521812922" lon="14.296837428827889"><ele>692.0</ele><time>2026-05-03T10:54:13Z</time></trkpt><trkpt lat="37.520258160837976" lon="14.29670696941123"><ele>692.0</ele><time>2026-05-03T10:54:14Z</time></trkpt><trkpt lat="37.520367949880644" lon="14.296571238782459"><ele>692.0</ele><time>2026-05-03T10:54:15Z</time></trkpt><trkpt lat="37.52049123597834" lon="14.296397849397922"><ele>690.6666666666666</ele><time>2026-05-03T10:54:16Z</time></trkpt><trkpt lat="37.520601339185205" lon="14.296219429449971"><ele>689.3333333333334</ele><time>2026-05-03T10:54:17Z</time></trkpt><trkpt lat="37.5206958822089" lon="14.296056714137299"><ele>688.0</ele><time>2026-05-03T10:54:18Z</time></trkpt><trkpt lat="37.520783979465705" lon="14.295898843572823"><ele>688.0</ele><time>2026-05-03T10:54:19Z</time></trkpt><trkpt lat="37.52085364792023" lon="14.295750620356383"><ele>688.0</ele><time>2026-05-03T10:54:20Z</time></trkpt><trkpt lat="37.52090774244664" lon="14.295596692732286"><ele>688.0</ele><time>2026-05-03T10:54:21Z</time></trkpt><trkpt lat="37.52091676405146" lon="14.295423086794264"><ele>688.0</ele><time>2026-05-03T10:54:22Z</time></trkpt><trkpt lat="37.52096505443145" lon="14.295249475284065"><ele>688.2</ele><time>2026-05-03T10:54:23Z</time></trkpt><trkpt lat="37.52098777357512" lon="14.295089505527734"><ele>688.4</ele><time>2026-05-03T10:54:24Z</time></trkpt><trkpt lat="37.521020824093775" lon="14.294959472725438"><ele>688.6</ele><time>2026-05-03T10:54:25Z</time></trkpt><trkpt lat="37.52108275266791" lon="14.294868504713982"><ele>688.8000000000001</ele><time>2026-05-03T10:54:26Z</time></trkpt><trkpt lat="37.52116430011453" lon="14.294868636120555"><ele>689.0</ele><time>2026-05-03T10:54:27Z</time></trkpt><trkpt lat="37.52126971031911" lon="14.294885682331376"><ele>687.6666666666666</ele><time>2026-05-03T10:54:28Z</time></trkpt><trkpt lat="37.52141545396793" lon="14.294866449774648"><ele>686.3333333333334</ele><time>2026-05-03T10:54:29Z</time></trkpt><trkpt lat="37.521581723762004" lon="14.294847844661321"><ele>685.0</ele><time>2026-05-03T10:54:30Z</time></trkpt><trkpt lat="37.52174679498953" lon="14.29483012358872"><ele>685.0</ele><time>2026-05-03T10:54:31Z</time></trkpt><trkpt lat="37.52187590526358" lon="14.29481664594955"><ele>685.0</ele><time>2026-05-03T10:54:32Z</time></trkpt><trkpt lat="37.5219900922096" lon="14.294804726147696"><ele>685.0</ele><time>2026-05-03T10:54:33Z</time></trkpt><trkpt lat="37.52208986399836" lon="14.294781274851992"><ele>685.0</ele><time>2026-05-03T10:54:34Z</time></trkpt><trkpt lat="37.522181970936714" lon="14.294772217889513"><ele>685.0</ele><time>2026-05-03T10:54:35Z</time></trkpt><trkpt lat="37.52226117307545" lon="14.294770860985032"><ele>685.2</ele><time>2026-05-03T10:54:36Z</time></trkpt><trkpt lat="37.52229713611683" lon="14.294659124688629"><ele>685.4</ele><time>2026-05-03T10:55:33Z</time></trkpt><trkpt lat="37.522264706141286" lon="14.29457400660328"><ele>685.5999999999999</ele><time>2026-05-03T10:55:34Z</time></trkpt><trkpt lat="37.52218604899373" lon="14.294474342703248"><ele>685.8</ele><time>2026-05-03T10:55:35Z</time></trkpt><trkpt lat="37.52208673096467" lon="14.294364992936838"><ele>686.0</ele><time>2026-05-03T10:55:36Z</time></trkpt><trkpt lat="37.521978715241" lon="14.294230344835393"><ele>686.0</ele><time>2026-05-03T10:55:37Z</time></trkpt><trkpt lat="37.521866198226505" lon="14.294080819676719"><ele>686.0</ele><time>2026-05-03T10:55:38Z</time></trkpt><trkpt lat="37.521737380523916" lon="14.293911579685181"><ele>686.0</ele><time>2026-05-03T10:55:39Z</time></trkpt><trkpt lat="37.52160463462898" lon="14.293741179274685"><ele>687.3333333333333</ele><time>2026-05-03T10:55:40Z</time></trkpt><trkpt lat="37.5214945824162" lon="14.293589820155118"><ele>688.6666666666666</ele><time>2026-05-03T10:55:41Z</time></trkpt><trkpt lat="37.52139294112096" lon="14.29345115778437"><ele>690.0</ele><time>2026-05-03T10:55:42Z</time></trkpt><trkpt lat="37.52128938686129" lon="14.293315434101846"><ele>690.25</ele><time>2026-05-03T10:55:43Z</time></trkpt><trkpt lat="37.521207050512864" lon="14.293206884109317"><ele>690.5</ele><time>2026-05-03T10:55:44Z</time></trkpt><trkpt lat="37.521160765753116" lon="14.293102317609911"><ele>690.75</ele><time>2026-05-03T10:55:45Z</time></trkpt><trkpt lat="37.52122514642529" lon="14.292933089313024"><ele>691.0</ele><time>2026-05-03T10:55:47Z</time></trkpt><trkpt lat="37.52130276187004" lon="14.292854859682388"><ele>691.0</ele><time>2026-05-03T10:55:48Z</time></trkpt><trkpt lat="37.52140159641822" lon="14.292762263648912"><ele>691.0</ele><time>2026-05-03T10:55:49Z</time></trkpt><trkpt lat="37.521572996766764" lon="14.292814745577523"><ele>691.0</ele><time>2026-05-03T10:55:50Z</time></trkpt><trkpt lat="37.52174974666071" lon="14.292779123075839"><ele>691.0</ele><time>2026-05-03T10:55:51Z</time></trkpt><trkpt lat="37.521929266402275" lon="14.292740687194442"><ele>691.0</ele><time>2026-05-03T10:55:52Z</time></trkpt><trkpt lat="37.52208844112222" lon="14.292692848857314"><ele>691.0</ele><time>2026-05-03T10:55:53Z</time></trkpt><trkpt lat="37.52225396138102" lon="14.292665882077184"><ele>689.75</ele><time>2026-05-03T10:55:54Z</time></trkpt><trkpt lat="37.52238954870837" lon="14.292636764671519"><ele>688.5</ele><time>2026-05-03T10:55:55Z</time></trkpt><trkpt lat="37.52250428435655" lon="14.292612799242955"><ele>687.25</ele><time>2026-05-03T10:55:56Z</time></trkpt><trkpt lat="37.522606643720415" lon="14.29256574309939"><ele>686.0</ele><time>2026-05-03T10:55:57Z</time></trkpt><trkpt lat="37.52268397800096" lon="14.292505146332024"><ele>686.0</ele><time>2026-05-03T10:55:58Z</time></trkpt><trkpt lat="37.522739005633966" lon="14.29246149621226"><ele>686.0</ele><time>2026-05-03T10:55:59Z</time></trkpt><trkpt lat="37.52279334106395" lon="14.29240522926931"><ele>686.0</ele><time>2026-05-03T10:56:01Z</time></trkpt><trkpt lat="37.522883538071895" lon="14.292250264559943"><ele>686.0</ele><time>2026-05-03T10:57:09Z</time></trkpt><trkpt lat="37.52295618543965" lon="14.292133609521647"><ele>686.0</ele><time>2026-05-03T10:57:10Z</time></trkpt><trkpt lat="37.5230215572719" lon="14.291979117693117"><ele>687.6666666666666</ele><time>2026-05-03T10:57:11Z</time></trkpt><trkpt lat="37.523077637535025" lon="14.291788388047504"><ele>689.3333333333334</ele><time>2026-05-03T10:57:12Z</time></trkpt><trkpt lat="37.52309686847679" lon="14.291554381311302"><ele>691.0</ele><time>2026-05-03T10:57:13Z</time></trkpt><trkpt lat="37.523106693791156" lon="14.291308195247998"><ele>691.0</ele><time>2026-05-03T10:57:14Z</time></trkpt><trkpt lat="37.5231217029731" lon="14.29104281235027"><ele>691.0</ele><time>2026-05-03T10:57:15Z</time></trkpt><trkpt lat="37.52311990573604" lon="14.290776657129344"><ele>691.0</ele><time>2026-05-03T10:57:16Z</time></trkpt><trkpt lat="37.52312688437714" lon="14.290518029047446"><ele>690.6666666666667</ele><time>2026-05-03T10:57:17Z</time></trkpt><trkpt lat="37.52313247316331" lon="14.290263989291395"><ele>690.3333333333334</ele><time>2026-05-03T10:57:18Z</time></trkpt><trkpt lat="37.52314583927415" lon="14.290006362924913"><ele>690.0</ele><time>2026-05-03T10:57:19Z</time></trkpt><trkpt lat="37.523170477401" lon="14.289751052519495"><ele>689.6666666666666</ele><time>2026-05-03T10:57:20Z</time></trkpt><trkpt lat="37.52320700300035" lon="14.289493356729906"><ele>689.3333333333333</ele><time>2026-05-03T10:57:21Z</time></trkpt><trkpt lat="37.523253402473664" lon="14.289232946331309"><ele>689.0</ele><time>2026-05-03T10:57:22Z</time></trkpt><trkpt lat="37.52330808556909" lon="14.288983268354372"><ele>688.6666666666666</ele><time>2026-05-03T10:57:23Z</time></trkpt><trkpt lat="37.523369032439" lon="14.28872693463596"><ele>688.3333333333334</ele><time>2026-05-03T10:57:24Z</time></trkpt><trkpt lat="37.52342542118462" lon="14.288478169609363"><ele>688.0</ele><time>2026-05-03T10:57:25Z</time></trkpt><trkpt lat="37.523481183531175" lon="14.288226907076293"><ele>688.0</ele><time>2026-05-03T10:57:26Z</time></trkpt><trkpt lat="37.52353719544933" lon="14.28797434172075"><ele>688.0</ele><time>2026-05-03T10:57:27Z</time></trkpt><trkpt lat="37.52359448336602" lon="14.287721841468668"><ele>688.0</ele><time>2026-05-03T10:57:28Z</time></trkpt><trkpt lat="37.52365072061583" lon="14.287471489602012"><ele>688.3333333333334</ele><time>2026-05-03T10:57:29Z</time></trkpt><trkpt lat="37.52369994282212" lon="14.287200511537687"><ele>688.6666666666666</ele><time>2026-05-03T10:57:30Z</time></trkpt><trkpt lat="37.52376483332863" lon="14.28696012388269"><ele>689.0</ele><time>2026-05-03T10:57:31Z</time></trkpt><trkpt lat="37.523823701879785" lon="14.286712579881005"><ele>689.0</ele><time>2026-05-03T10:57:32Z</time></trkpt><trkpt lat="37.523872139104185" lon="14.286463295452936"><ele>689.0</ele><time>2026-05-03T10:57:33Z</time></trkpt><trkpt lat="37.523914314414206" lon="14.286207522369422"><ele>689.0</ele><time>2026-05-03T10:57:34Z</time></trkpt><trkpt lat="37.52394446371142" lon="14.285958046152762"><ele>688.3333333333333</ele><time>2026-05-03T10:57:35Z</time></trkpt><trkpt lat="37.52397545263894" lon="14.28571207414593"><ele>687.6666666666666</ele><time>2026-05-03T10:57:36Z</time></trkpt><trkpt lat="37.52400145149918" lon="14.285469022212482"><ele>687.0</ele><time>2026-05-03T10:57:37Z</time></trkpt><trkpt lat="37.52403363891866" lon="14.285228200900653"><ele>686.6666666666666</ele><time>2026-05-03T10:57:38Z</time></trkpt><trkpt lat="37.52406665890815" lon="14.285008689763469"><ele>686.3333333333333</ele><time>2026-05-03T10:57:39Z</time></trkpt><trkpt lat="37.52409553700304" lon="14.284811100681486"><ele>686.0</ele><time>2026-05-03T10:57:40Z</time></trkpt><trkpt lat="37.52413929007774" lon="14.284631014578514"><ele>683.0</ele><time>2026-05-03T10:57:41Z</time></trkpt><trkpt lat="37.52424090426873" lon="14.284497232276824"><ele>680.0</ele><time>2026-05-03T10:57:42Z</time></trkpt><trkpt lat="37.52435467086376" lon="14.284378486537362"><ele>677.0</ele><time>2026-05-03T10:57:43Z</time></trkpt><trkpt lat="37.52448934133809" lon="14.28426350991306"><ele>679.0</ele><time>2026-05-03T10:57:44Z</time></trkpt><trkpt lat="37.52465743361634" lon="14.284208007729644"><ele>681.0</ele><time>2026-05-03T10:57:45Z</time></trkpt><trkpt lat="37.52483608607699" lon="14.284119343886044"><ele>683.0</ele><time>2026-05-03T10:57:46Z</time></trkpt><trkpt lat="37.525023581786996" lon="14.284027720306106"><ele>683.0</ele><time>2026-05-03T10:57:47Z</time></trkpt><trkpt lat="37.525184943133944" lon="14.283936555505656"><ele>683.0</ele><time>2026-05-03T10:57:48Z</time></trkpt><trkpt lat="37.525342853351255" lon="14.283857819879287"><ele>683.0</ele><time>2026-05-03T10:57:49Z</time></trkpt><trkpt lat="37.52549878941912" lon="14.283786949232391"><ele>679.6666666666666</ele><time>2026-05-03T10:57:50Z</time></trkpt><trkpt lat="37.52564875706514" lon="14.283717015637516"><ele>676.3333333333334</ele><time>2026-05-03T10:57:51Z</time></trkpt><trkpt lat="37.52578700538552" lon="14.283643150829386"><ele>673.0</ele><time>2026-05-03T10:57:52Z</time></trkpt><trkpt lat="37.52592670760391" lon="14.28354796169565"><ele>673.0</ele><time>2026-05-03T10:57:53Z</time></trkpt><trkpt lat="37.52605347082281" lon="14.283435006860572"><ele>673.0</ele><time>2026-05-03T10:57:54Z</time></trkpt><trkpt lat="37.526188642700205" lon="14.283290936934787"><ele>673.0</ele><time>2026-05-03T10:57:55Z</time></trkpt><trkpt lat="37.52631077490435" lon="14.283125997623356"><ele>670.0</ele><time>2026-05-03T10:57:56Z</time></trkpt><trkpt lat="37.52642561261027" lon="14.282947905030094"><ele>667.0</ele><time>2026-05-03T10:57:57Z</time></trkpt><trkpt lat="37.52652639246946" lon="14.282757095796672"><ele>664.0</ele><time>2026-05-03T10:57:58Z</time></trkpt><trkpt lat="37.52661735130054" lon="14.28254354638282"><ele>664.0</ele><time>2026-05-03T10:57:59Z</time></trkpt><trkpt lat="37.52669191349072" lon="14.282314107367753"><ele>664.0</ele><time>2026-05-03T10:58:00Z</time></trkpt><trkpt lat="37.52674552569992" lon="14.282060052667292"><ele>664.0</ele><time>2026-05-03T10:58:01Z</time></trkpt><trkpt lat="37.52677737203118" lon="14.281786520199418"><ele>661.0</ele><time>2026-05-03T10:58:02Z</time></trkpt><trkpt lat="37.52679881051331" lon="14.281511267910105"><ele>658.0</ele><time>2026-05-03T10:58:03Z</time></trkpt><trkpt lat="37.526815590547315" lon="14.28123304398218"><ele>655.0</ele><time>2026-05-03T10:58:04Z</time></trkpt><trkpt lat="37.526839665348184" lon="14.280951246251432"><ele>652.6666666666667</ele><time>2026-05-03T10:58:05Z</time></trkpt><trkpt lat="37.52686970958392" lon="14.280676128544812"><ele>650.3333333333334</ele><time>2026-05-03T10:58:06Z</time></trkpt><trkpt lat="37.52689800463766" lon="14.280405838424878"><ele>648.0</ele><time>2026-05-03T10:58:07Z</time></trkpt><trkpt lat="37.52692453615243" lon="14.28013965025825"><ele>646.0</ele><time>2026-05-03T10:58:08Z</time></trkpt><trkpt lat="37.5269508963251" lon="14.279884099737357"><ele>644.0</ele><time>2026-05-03T10:58:09Z</time></trkpt><trkpt lat="37.52698353971494" lon="14.279638568024756"><ele>642.0</ele><time>2026-05-03T10:58:10Z</time></trkpt><trkpt lat="37.52700276478282" lon="14.279380914656079"><ele>640.6666666666666</ele><time>2026-05-03T10:58:11Z</time></trkpt><trkpt lat="37.52703041101522" lon="14.279123877152555"><ele>639.3333333333333</ele><time>2026-05-03T10:58:12Z</time></trkpt><trkpt lat="37.52705815369399" lon="14.278865805529444"><ele>638.0</ele><time>2026-05-03T10:58:13Z</time></trkpt><trkpt lat="37.5270855327991" lon="14.278607235585678"><ele>639.6666666666666</ele><time>2026-05-03T10:58:14Z</time></trkpt><trkpt lat="37.52711728978068" lon="14.278350027479902"><ele>641.3333333333334</ele><time>2026-05-03T10:58:15Z</time></trkpt><trkpt lat="37.52714841937971" lon="14.278091264108012"><ele>643.0</ele><time>2026-05-03T10:58:16Z</time></trkpt><trkpt lat="37.52718015965136" lon="14.277825774354255"><ele>643.0</ele><time>2026-05-03T10:58:17Z</time></trkpt><trkpt lat="37.527207591940076" lon="14.277563576373636"><ele>643.0</ele><time>2026-05-03T10:58:18Z</time></trkpt><trkpt lat="37.52723362303768" lon="14.277330515109071"><ele>643.0</ele><time>2026-05-03T10:58:19Z</time></trkpt><trkpt lat="37.52725579676013" lon="14.277114643926884"><ele>640.6666666666667</ele><time>2026-05-03T10:58:20Z</time></trkpt><trkpt lat="37.527284080156754" lon="14.276890929797935"><ele>638.3333333333334</ele><time>2026-05-03T10:58:21Z</time></trkpt><trkpt lat="37.527307246163275" lon="14.276687125881432"><ele>636.0</ele><time>2026-05-03T10:58:22Z</time></trkpt><trkpt lat="37.527329686127565" lon="14.276483716375168"><ele>634.3333333333334</ele><time>2026-05-03T10:58:23Z</time></trkpt><trkpt lat="37.52735336256461" lon="14.276290511327204"><ele>632.6666666666667</ele><time>2026-05-03T10:58:24Z</time></trkpt><trkpt lat="37.52738051529334" lon="14.276082188658098"><ele>631.0</ele><time>2026-05-03T10:58:25Z</time></trkpt><trkpt lat="37.52740384186774" lon="14.275893955212494"><ele>631.0</ele><time>2026-05-03T10:58:26Z</time></trkpt><trkpt lat="37.5274235022436" lon="14.275731569622648"><ele>631.0</ele><time>2026-05-03T10:58:27Z</time></trkpt><trkpt lat="37.527445491274506" lon="14.275572987281523"><ele>631.0</ele><time>2026-05-03T10:58:28Z</time></trkpt><trkpt lat="37.527469542817734" lon="14.275427515866122"><ele>631.0</ele><time>2026-05-03T10:58:29Z</time></trkpt><trkpt lat="37.52749015475553" lon="14.275268577638736"><ele>628.75</ele><time>2026-05-03T10:58:30Z</time></trkpt><trkpt lat="37.52751392169056" lon="14.275092288128976"><ele>626.5</ele><time>2026-05-03T10:58:31Z</time></trkpt><trkpt lat="37.52753564299207" lon="14.27490750922841"><ele>624.25</ele><time>2026-05-03T10:58:32Z</time></trkpt><trkpt lat="37.527559318538934" lon="14.274723267538253"><ele>622.0</ele><time>2026-05-03T10:58:33Z</time></trkpt><trkpt lat="37.52758324028077" lon="14.27454704287602"><ele>620.25</ele><time>2026-05-03T10:58:34Z</time></trkpt><trkpt lat="37.52761447110917" lon="14.274373797751867"><ele>618.5</ele><time>2026-05-03T10:58:35Z</time></trkpt><trkpt lat="37.52765551655657" lon="14.274218384722264"><ele>616.75</ele><time>2026-05-03T10:58:36Z</time></trkpt><trkpt lat="37.52771901445134" lon="14.274058603860144"><ele>615.0</ele><time>2026-05-03T10:58:37Z</time></trkpt><trkpt lat="37.52778432200088" lon="14.273886070750029"><ele>616.0</ele><time>2026-05-03T10:58:38Z</time></trkpt><trkpt lat="37.527855120388416" lon="14.273714509579996"><ele>617.0</ele><time>2026-05-03T10:58:39Z</time></trkpt><trkpt lat="37.52793322443382" lon="14.27354215917983"><ele>618.0</ele><time>2026-05-03T10:58:40Z</time></trkpt><trkpt lat="37.528009454437495" lon="14.273372076981524"><ele>618.0</ele><time>2026-05-03T10:58:41Z</time></trkpt><trkpt lat="37.52808027281548" lon="14.273202661711238"><ele>618.0</ele><time>2026-05-03T10:58:42Z</time></trkpt><trkpt lat="37.52815315903088" lon="14.273037526415191"><ele>618.0</ele><time>2026-05-03T10:58:43Z</time></trkpt><trkpt lat="37.528228759416464" lon="14.272874354062372"><ele>617.0</ele><time>2026-05-03T10:58:44Z</time></trkpt><trkpt lat="37.52829867420443" lon="14.272720784690822"><ele>616.0</ele><time>2026-05-03T10:58:45Z</time></trkpt><trkpt lat="37.52837184054837" lon="14.272546357291773"><ele>615.0</ele><time>2026-05-03T10:58:46Z</time></trkpt><trkpt lat="37.52844164511196" lon="14.272381666076416"><ele>614.0</ele><time>2026-05-03T10:58:47Z</time></trkpt><trkpt lat="37.528506479745374" lon="14.272222024012311"><ele>611.6666666666666</ele><time>2026-05-03T10:58:48Z</time></trkpt><trkpt lat="37.52856524592375" lon="14.272060918968906"><ele>609.3333333333334</ele><time>2026-05-03T10:58:49Z</time></trkpt><trkpt lat="37.52862722371317" lon="14.27189125925888"><ele>607.0</ele><time>2026-05-03T10:58:50Z</time></trkpt><trkpt lat="37.52869701713552" lon="14.271678367952612"><ele>609.0</ele><time>2026-05-03T10:58:51Z</time></trkpt><trkpt lat="37.52875861196468" lon="14.271451710289487"><ele>611.0</ele><time>2026-05-03T10:58:52Z</time></trkpt><trkpt lat="37.5288230949709" lon="14.271198315748052"><ele>613.0</ele><time>2026-05-03T10:58:53Z</time></trkpt><trkpt lat="37.52886406317629" lon="14.270963155094414"><ele>613.0</ele><time>2026-05-03T10:58:54Z</time></trkpt><trkpt lat="37.52890252850343" lon="14.270745216605595"><ele>613.0</ele><time>2026-05-03T10:58:55Z</time></trkpt><trkpt lat="37.52893971658205" lon="14.270539038641928"><ele>613.0</ele><time>2026-05-03T10:58:56Z</time></trkpt><trkpt lat="37.52897323182841" lon="14.270347285215449"><ele>608.6666666666667</ele><time>2026-05-03T10:58:57Z</time></trkpt><trkpt lat="37.52901199452736" lon="14.270153919497197"><ele>604.3333333333334</ele><time>2026-05-03T10:58:58Z</time></trkpt><trkpt lat="37.52905421991235" lon="14.269933919134962"><ele>600.0</ele><time>2026-05-03T10:58:59Z</time></trkpt><trkpt lat="37.52909568019131" lon="14.26970382695638"><ele>598.3333333333334</ele><time>2026-05-03T10:59:00Z</time></trkpt><trkpt lat="37.529143501380986" lon="14.269455120833529"><ele>596.6666666666667</ele><time>2026-05-03T10:59:01Z</time></trkpt><trkpt lat="37.52918939352567" lon="14.269188067896462"><ele>595.0</ele><time>2026-05-03T10:59:02Z</time></trkpt><trkpt lat="37.5292116296323" lon="14.268925096265416"><ele>592.6666666666667</ele><time>2026-05-03T10:59:03Z</time></trkpt><trkpt lat="37.52920475048406" lon="14.268657585694802"><ele>590.3333333333334</ele><time>2026-05-03T10:59:04Z</time></trkpt><trkpt lat="37.52917787058295" lon="14.268382961930298"><ele>588.0</ele><time>2026-05-03T10:59:05Z</time></trkpt><trkpt lat="37.52912841247046" lon="14.268107469279357"><ele>586.0</ele><time>2026-05-03T10:59:06Z</time></trkpt><trkpt lat="37.52906444835963" lon="14.26785454347311"><ele>584.0</ele><time>2026-05-03T10:59:07Z</time></trkpt><trkpt lat="37.52900999709061" lon="14.267617357926106"><ele>582.0</ele><time>2026-05-03T10:59:08Z</time></trkpt><trkpt lat="37.52896197150403" lon="14.267388644909666"><ele>580.6666666666666</ele><time>2026-05-03T10:59:09Z</time></trkpt><trkpt lat="37.52891999271239" lon="14.267163559825018"><ele>579.3333333333333</ele><time>2026-05-03T10:59:10Z</time></trkpt><trkpt lat="37.528891416063054" lon="14.266949165666599"><ele>578.0</ele><time>2026-05-03T10:59:11Z</time></trkpt><trkpt lat="37.528880602417246" lon="14.266749571816957"><ele>578.0</ele><time>2026-05-03T10:59:12Z</time></trkpt><trkpt lat="37.528889322362865" lon="14.26654449003672"><ele>578.0</ele><time>2026-05-03T10:59:13Z</time></trkpt><trkpt lat="37.528923112935544" lon="14.266329020271698"><ele>578.0</ele><time>2026-05-03T10:59:14Z</time></trkpt><trkpt lat="37.5289732022955" lon="14.266101491459997"><ele>577.6666666666666</ele><time>2026-05-03T10:59:15Z</time></trkpt><trkpt lat="37.52902649963944" lon="14.265911032900046"><ele>577.3333333333334</ele><time>2026-05-03T10:59:16Z</time></trkpt><trkpt lat="37.52911990131506" lon="14.26572399519247"><ele>577.0</ele><time>2026-05-03T10:59:17Z</time></trkpt><trkpt lat="37.52922495716358" lon="14.265539876188237"><ele>574.3333333333334</ele><time>2026-05-03T10:59:18Z</time></trkpt><trkpt lat="37.529357854823104" lon="14.26536844342948"><ele>571.6666666666666</ele><time>2026-05-03T10:59:19Z</time></trkpt><trkpt lat="37.529500975071" lon="14.265222797957827"><ele>569.0</ele><time>2026-05-03T10:59:20Z</time></trkpt><trkpt lat="37.52967602793981" lon="14.26510289014541"><ele>569.0</ele><time>2026-05-03T10:59:21Z</time></trkpt><trkpt lat="37.52987001402059" lon="14.264974945697993"><ele>569.0</ele><time>2026-05-03T10:59:22Z</time></trkpt><trkpt lat="37.530061295837505" lon="14.26485663623955"><ele>569.0</ele><time>2026-05-03T10:59:23Z</time></trkpt><trkpt lat="37.530253373126556" lon="14.264736407814757"><ele>560.5</ele><time>2026-05-03T10:59:24Z</time></trkpt><trkpt lat="37.53045984128502" lon="14.264604399267544"><ele>552.0</ele><time>2026-05-03T10:59:25Z</time></trkpt><trkpt lat="37.53066210403793" lon="14.264477487470527"><ele>552.0</ele><time>2026-05-03T10:59:26Z</time></trkpt><trkpt lat="37.5308431668656" lon="14.264363878030444"><ele>552.0</ele><time>2026-05-03T10:59:27Z</time></trkpt><trkpt lat="37.53101533029853" lon="14.264257158604522"><ele>552.0</ele><time>2026-05-03T10:59:28Z</time></trkpt><trkpt lat="37.53118635579458" lon="14.2641410630651"><ele>552.3333333333334</ele><time>2026-05-03T10:59:29Z</time></trkpt><trkpt lat="37.53134268604229" lon="14.264052753102275"><ele>552.6666666666667</ele><time>2026-05-03T10:59:30Z</time></trkpt><trkpt lat="37.53148849616315" lon="14.263966469570738"><ele>553.0</ele><time>2026-05-03T10:59:31Z</time></trkpt><trkpt lat="37.531627422486466" lon="14.26386654533487"><ele>553.0</ele><time>2026-05-03T10:59:32Z</time></trkpt><trkpt lat="37.53174626017667" lon="14.263780618481638"><ele>553.0</ele><time>2026-05-03T10:59:33Z</time></trkpt><trkpt lat="37.531867371738" lon="14.263701386663177"><ele>553.0</ele><time>2026-05-03T10:59:34Z</time></trkpt><trkpt lat="37.53196877817825" lon="14.263635063753906"><ele>553.0</ele><time>2026-05-03T10:59:35Z</time></trkpt><trkpt lat="37.53206715267754" lon="14.263586728657875"><ele>554.3333333333334</ele><time>2026-05-03T10:59:36Z</time></trkpt><trkpt lat="37.532162997992394" lon="14.263548074350513"><ele>555.6666666666667</ele><time>2026-05-03T10:59:37Z</time></trkpt><trkpt lat="37.53223306313556" lon="14.263488406626038"><ele>557.0</ele><time>2026-05-03T10:59:38Z</time></trkpt><trkpt lat="37.53227280367252" lon="14.263422632219072"><ele>558.3333333333334</ele><time>2026-05-03T10:59:39Z</time></trkpt><trkpt lat="37.53226419690131" lon="14.263311819321885"><ele>559.6666666666666</ele><time>2026-05-03T10:59:45Z</time></trkpt><trkpt lat="37.53222697495283" lon="14.263241826191432"><ele>561.0</ele><time>2026-05-03T10:59:46Z</time></trkpt><trkpt lat="37.532150176322695" lon="14.263155281442009"><ele>560.0</ele><time>2026-05-03T10:59:47Z</time></trkpt><trkpt lat="37.53202420980767" lon="14.263056935763105"><ele>559.0</ele><time>2026-05-03T10:59:48Z</time></trkpt><trkpt lat="37.531870681132254" lon="14.262931892942374"><ele>558.0</ele><time>2026-05-03T10:59:49Z</time></trkpt><trkpt lat="37.53169933591088" lon="14.262788049558676"><ele>558.0</ele><time>2026-05-03T10:59:50Z</time></trkpt><trkpt lat="37.531521940940564" lon="14.262615155085557"><ele>558.0</ele><time>2026-05-03T10:59:51Z</time></trkpt><trkpt lat="37.53134221710683" lon="14.262426015685948"><ele>559.0</ele><time>2026-05-03T10:59:52Z</time></trkpt><trkpt lat="37.531157071049925" lon="14.262208950387238"><ele>560.0</ele><time>2026-05-03T10:59:53Z</time></trkpt><trkpt lat="37.53099219077209" lon="14.261994333471565"><ele>560.0</ele><time>2026-05-03T10:59:54Z</time></trkpt><trkpt lat="37.53084152001855" lon="14.261759087638758"><ele>560.0</ele><time>2026-05-03T10:59:55Z</time></trkpt><trkpt lat="37.53070602586183" lon="14.261516105569465"><ele>565.0</ele><time>2026-05-03T10:59:56Z</time></trkpt><trkpt lat="37.53058151243317" lon="14.261270888758304"><ele>570.0</ele><time>2026-05-03T10:59:57Z</time></trkpt><trkpt lat="37.53046411487335" lon="14.261016982937234"><ele>566.5</ele><time>2026-05-03T10:59:58Z</time></trkpt><trkpt lat="37.530349742726116" lon="14.260763254460157"><ele>563.0</ele><time>2026-05-03T10:59:59Z</time></trkpt><trkpt lat="37.530240037681125" lon="14.260512398677367"><ele>563.0</ele><time>2026-05-03T11:00:00Z</time></trkpt><trkpt lat="37.530129448853586" lon="14.260266960789545"><ele>563.0</ele><time>2026-05-03T11:00:01Z</time></trkpt><trkpt lat="37.53002061621362" lon="14.260025975400293"><ele>563.0</ele><time>2026-05-03T11:00:02Z</time></trkpt><trkpt lat="37.52991181684942" lon="14.25978245227001"><ele>566.3333333333333</ele><time>2026-05-03T11:00:03Z</time></trkpt><trkpt lat="37.52980746395671" lon="14.259535713264597"><ele>569.6666666666666</ele><time>2026-05-03T11:00:04Z</time></trkpt><trkpt lat="37.529718024451434" lon="14.259280854980346"><ele>573.0</ele><time>2026-05-03T11:00:05Z</time></trkpt><trkpt lat="37.52964767331968" lon="14.259016474135205"><ele>577.0</ele><time>2026-05-03T11:00:06Z</time></trkpt><trkpt lat="37.52959407909185" lon="14.25873982732414"><ele>581.0</ele><time>2026-05-03T11:00:07Z</time></trkpt><trkpt lat="37.52955616134278" lon="14.258459690693828"><ele>572.0</ele><time>2026-05-03T11:00:08Z</time></trkpt><trkpt lat="37.52953696482507" lon="14.258175702882612"><ele>563.0</ele><time>2026-05-03T11:00:09Z</time></trkpt><trkpt lat="37.529544638759766" lon="14.257886195929363"><ele>572.0</ele><time>2026-05-03T11:00:10Z</time></trkpt><trkpt lat="37.529573108633556" lon="14.257601723925639"><ele>581.0</ele><time>2026-05-03T11:00:11Z</time></trkpt><trkpt lat="37.52961340590763" lon="14.257319565322497"><ele>576.5</ele><time>2026-05-03T11:00:12Z</time></trkpt><trkpt lat="37.52967383499009" lon="14.257042655904623"><ele>572.0</ele><time>2026-05-03T11:00:13Z</time></trkpt><trkpt lat="37.52975082336933" lon="14.256767567198343"><ele>572.0</ele><time>2026-05-03T11:00:14Z</time></trkpt><trkpt lat="37.529826544786054" lon="14.256493116163302"><ele>572.0</ele><time>2026-05-03T11:00:15Z</time></trkpt><trkpt lat="37.52989653759321" lon="14.25621956527756"><ele>569.5</ele><time>2026-05-03T11:00:16Z</time></trkpt><trkpt lat="37.52996756618734" lon="14.255940454620346"><ele>567.0</ele><time>2026-05-03T11:00:17Z</time></trkpt><trkpt lat="37.53003515842817" lon="14.25566278995207"><ele>566.0</ele><time>2026-05-03T11:00:18Z</time></trkpt><trkpt lat="37.53010526715593" lon="14.255384513768501"><ele>565.0</ele><time>2026-05-03T11:00:19Z</time></trkpt><trkpt lat="37.53017088055421" lon="14.25510743496726"><ele>565.0</ele><time>2026-05-03T11:00:20Z</time></trkpt><trkpt lat="37.53024019959489" lon="14.254834177749895"><ele>565.0</ele><time>2026-05-03T11:00:21Z</time></trkpt><trkpt lat="37.5303086374458" lon="14.254561275823374"><ele>564.5</ele><time>2026-05-03T11:00:22Z</time></trkpt><trkpt lat="37.530376589628936" lon="14.254287845105587"><ele>564.0</ele><time>2026-05-03T11:00:23Z</time></trkpt><trkpt lat="37.53044037078195" lon="14.254013473797368"><ele>570.0</ele><time>2026-05-03T11:00:24Z</time></trkpt><trkpt lat="37.53051013391622" lon="14.253735163117623"><ele>576.0</ele><time>2026-05-03T11:00:25Z</time></trkpt><trkpt lat="37.530577596869044" lon="14.253460895387438"><ele>576.0</ele><time>2026-05-03T11:00:26Z</time></trkpt><trkpt lat="37.53064491322029" lon="14.25318752721663"><ele>576.0</ele><time>2026-05-03T11:00:27Z</time></trkpt><trkpt lat="37.53071199389889" lon="14.252913818563357"><ele>573.5</ele><time>2026-05-03T11:00:28Z</time></trkpt><trkpt lat="37.53077684656718" lon="14.252640401724978"><ele>571.0</ele><time>2026-05-03T11:00:29Z</time></trkpt><trkpt lat="37.53083753250591" lon="14.252369148801439"><ele>571.5</ele><time>2026-05-03T11:00:30Z</time></trkpt><trkpt lat="37.53089467203777" lon="14.252094190093482"><ele>572.0</ele><time>2026-05-03T11:00:31Z</time></trkpt><trkpt lat="37.530945892471806" lon="14.251814094065944"><ele>572.0</ele><time>2026-05-03T11:00:32Z</time></trkpt><trkpt lat="37.5309879408234" lon="14.251530199124769"><ele>572.0</ele><time>2026-05-03T11:00:33Z</time></trkpt><trkpt lat="37.53102421259699" lon="14.25124569918453"><ele>572.5</ele><time>2026-05-03T11:00:34Z</time></trkpt><trkpt lat="37.53105425759448" lon="14.250961158390622"><ele>573.0</ele><time>2026-05-03T11:00:35Z</time></trkpt><trkpt lat="37.531082053283896" lon="14.250676052318818"><ele>572.6666666666666</ele><time>2026-05-03T11:00:36Z</time></trkpt><trkpt lat="37.53110985482653" lon="14.250389142856625"><ele>572.3333333333333</ele><time>2026-05-03T11:00:37Z</time></trkpt><trkpt lat="37.531131666840416" lon="14.250146395571434"><ele>572.0</ele><time>2026-05-03T11:00:38Z</time></trkpt><trkpt lat="37.53115811265906" lon="14.249916761295893"><ele>572.0</ele><time>2026-05-03T11:00:39Z</time></trkpt><trkpt lat="37.53118369456466" lon="14.249671821263831"><ele>572.0</ele><time>2026-05-03T11:00:40Z</time></trkpt><trkpt lat="37.53120728649594" lon="14.249466647342443"><ele>572.0</ele><time>2026-05-03T11:00:41Z</time></trkpt><trkpt lat="37.531229104263744" lon="14.249289378249832"><ele>573.5</ele><time>2026-05-03T11:00:42Z</time></trkpt><trkpt lat="37.531252845870114" lon="14.249153847923937"><ele>575.0</ele><time>2026-05-03T11:00:43Z</time></trkpt><trkpt lat="37.53127057786464" lon="14.249065445595717"><ele>576.5</ele><time>2026-05-03T11:00:44Z</time></trkpt><trkpt lat="37.53129440593683" lon="14.249160629114922"><ele>578.0</ele><time>2026-05-03T11:00:48Z</time></trkpt><trkpt lat="37.53132298974576" lon="14.249268540113246"><ele>579.5</ele><time>2026-05-03T11:00:49Z</time></trkpt><trkpt lat="37.5313036704609" lon="14.24936540446433"><ele>581.0</ele><time>2026-05-03T11:00:50Z</time></trkpt><trkpt lat="37.53133155040315" lon="14.249453273020812"><ele>581.0</ele><time>2026-05-03T11:00:51Z</time></trkpt><trkpt lat="37.53141154301521" lon="14.249495846342079"><ele>581.0</ele><time>2026-05-03T11:00:52Z</time></trkpt><trkpt lat="37.53151187220187" lon="14.249519672606027"><ele>581.0</ele><time>2026-05-03T11:00:53Z</time></trkpt><trkpt lat="37.531584387842" lon="14.249568139797214"><ele>581.0</ele><time>2026-05-03T11:00:54Z</time></trkpt><trkpt lat="37.531628493405634" lon="14.24967099317501"><ele>581.0</ele><time>2026-05-03T11:00:55Z</time></trkpt><trkpt lat="37.531660969757745" lon="14.249819130362434"><ele>582.25</ele><time>2026-05-03T11:00:56Z</time></trkpt><trkpt lat="37.531712813598645" lon="14.249975967764268"><ele>583.5</ele><time>2026-05-03T11:00:57Z</time></trkpt><trkpt lat="37.5317901860451" lon="14.250084574979487"><ele>584.75</ele><time>2026-05-03T11:00:58Z</time></trkpt><trkpt lat="37.531890870031724" lon="14.250155813382124"><ele>586.0</ele><time>2026-05-03T11:00:59Z</time></trkpt><trkpt lat="37.532018968450224" lon="14.25018876888602"><ele>590.6666666666667</ele><time>2026-05-03T11:01:00Z</time></trkpt><trkpt lat="37.53217733328759" lon="14.250216075807511"><ele>595.3333333333334</ele><time>2026-05-03T11:01:01Z</time></trkpt><trkpt lat="37.53234793735993" lon="14.250282053404186"><ele>600.0</ele><time>2026-05-03T11:01:02Z</time></trkpt><trkpt lat="37.53251373006017" lon="14.250382751861599"><ele>600.0</ele><time>2026-05-03T11:01:03Z</time></trkpt><trkpt lat="37.53261612809904" lon="14.250475808212762"><ele>600.0</ele><time>2026-05-03T11:01:04Z</time></trkpt><trkpt lat="37.53271145709235" lon="14.25054483756537"><ele>600.0</ele><time>2026-05-03T11:01:05Z</time></trkpt><trkpt lat="37.53278796105394" lon="14.250571495902141"><ele>600.0</ele><time>2026-05-03T11:01:06Z</time></trkpt><trkpt lat="37.53287023236546" lon="14.250541857994754"><ele>600.0</ele><time>2026-05-03T11:01:07Z</time></trkpt><trkpt lat="37.53296617333925" lon="14.25046446565137"><ele>602.1666666666666</ele><time>2026-05-03T11:01:08Z</time></trkpt><trkpt lat="37.53303162708664" lon="14.250404291743003"><ele>604.3333333333334</ele><time>2026-05-03T11:01:09Z</time></trkpt><trkpt lat="37.53309744471895" lon="14.250452961720757"><ele>606.5</ele><time>2026-05-03T11:01:11Z</time></trkpt><trkpt lat="37.53304586307925" lon="14.250504342143918"><ele>608.6666666666667</ele><time>2026-05-03T11:01:32Z</time></trkpt><trkpt lat="37.53300933505115" lon="14.25060028813958"><ele>610.8333333333334</ele><time>2026-05-03T11:01:38Z</time></trkpt><trkpt lat="37.53293578284662" lon="14.250686977953606"><ele>613.0</ele><time>2026-05-03T11:01:40Z</time></trkpt><trkpt lat="37.532944736674374" lon="14.250789531570419"><ele>622.0</ele><time>2026-05-03T11:01:42Z</time></trkpt><trkpt lat="37.53299947190971" lon="14.250876680377415"><ele>622.0</ele><time>2026-05-03T11:01:44Z</time></trkpt><trkpt lat="37.533062586046405" lon="14.250949113978951"><ele>622.0</ele><time>2026-05-03T11:01:46Z</time></trkpt><trkpt lat="37.5331384706412" lon="14.250982025027632"><ele>622.0</ele><time>2026-05-03T11:01:49Z</time></trkpt><trkpt lat="37.5331384706412" lon="14.250982025027632"><ele>622.0</ele><time>2026-05-03T11:01:49Z</time></trkpt></trkseg></trk></gpx>